<?xml version='1.0' encoding='UTF-8'?><gpx version="1.1" creator="JPX - https://github.com/jenetics/jpx" xmlns="http://www.topografix.com/GPX/1/1"><trk><trkseg><trkpt lat="45.0550732" lon="7.6531287"><ele>255.0</ele><time>2026-05-01T06:26:12.054Z</time></trkpt><trkpt lat="45.0547639" lon="7.6537475"><ele>255.0</ele><time>2026-05-01T06:26:44.081Z</time></trkpt><trkpt lat="45.0548514" lon="7.653351"><ele>255.0</ele><time>2026-05-01T06:27:26.553Z</time></trkpt><trkpt lat="45.0549386" lon="7.6539319"><ele>255.0</ele><time>2026-05-01T06:38:15.411Z</time></trkpt><trkpt lat="45.054869" lon="7.6538932"><ele>255.0</ele><time>2026-05-01T06:38:17.413Z</time></trkpt><trkpt lat="45.0547584" lon="7.6538306"><ele>255.0</ele><time>2026-05-01T06:38:18.411Z</time></trkpt><trkpt lat="45.0548315" lon="7.6538621"><ele>255.0</ele><time>2026-05-01T06:38:21.411Z</time></trkpt><trkpt lat="45.0547443" lon="7.6538384"><ele>255.0</ele><time>2026-05-01T06:38:57.411Z</time></trkpt><trkpt lat="45.0546758" lon="7.6538125"><ele>255.0</ele><time>2026-05-01T06:39:02.411Z</time></trkpt><trkpt lat="45.0546152" lon="7.6537601"><ele>255.0</ele><time>2026-05-01T06:39:14.411Z</time></trkpt><trkpt lat="45.0545214" lon="7.6537193"><ele>255.00000000000003</ele><time>2026-05-01T06:39:18.411Z</time></trkpt><trkpt lat="45.0545873" lon="7.6537328"><ele>255.0</ele><time>2026-05-01T06:39:24.411Z</time></trkpt><trkpt lat="45.0546493" lon="7.6537629"><ele>255.0</ele><time>2026-05-01T06:39:27.411Z</time></trkpt><trkpt lat="45.0547168" lon="7.6537993"><ele>255.00000000000003</ele><time>2026-05-01T06:39:29.411Z</time></trkpt><trkpt lat="45.0547812" lon="7.6538418"><ele>255.0</ele><time>2026-05-01T06:39:31.411Z</time></trkpt><trkpt lat="45.0547197" lon="7.6537982"><ele>255.0</ele><time>2026-05-01T06:39:55.411Z</time></trkpt><trkpt lat="45.0546549" lon="7.6537645"><ele>255.0</ele><time>2026-05-01T06:39:58.411Z</time></trkpt><trkpt lat="45.0547356" lon="7.65379"><ele>255.0</ele><time>2026-05-01T06:40:07.412Z</time></trkpt><trkpt lat="45.054826" lon="7.6538294"><ele>255.0</ele><time>2026-05-01T06:42:09.411Z</time></trkpt><trkpt lat="45.0548977" lon="7.6539063"><ele>255.0</ele><time>2026-05-01T06:42:11.411Z</time></trkpt><trkpt lat="45.055015" lon="7.6540552"><ele>255.0</ele><time>2026-05-01T06:42:49.411Z</time></trkpt><trkpt lat="45.0550736" lon="7.6541125"><ele>255.6</ele><time>2026-05-01T06:43:15.411Z</time></trkpt><trkpt lat="45.0551658" lon="7.6541101"><ele>256.2</ele><time>2026-05-01T06:43:17.412Z</time></trkpt><trkpt lat="45.0552885" lon="7.6541477"><ele>256.8</ele><time>2026-05-01T06:43:19.413Z</time></trkpt><trkpt lat="45.0554" lon="7.6541772"><ele>257.4</ele><time>2026-05-01T06:43:21.411Z</time></trkpt><trkpt lat="45.0554675" lon="7.6542214"><ele>258.0</ele><time>2026-05-01T06:43:23.412Z</time></trkpt><trkpt lat="45.0554867" lon="7.6543233"><ele>258.0</ele><time>2026-05-01T06:43:25.411Z</time></trkpt><trkpt lat="45.0554537" lon="7.6544264"><ele>258.0</ele><time>2026-05-01T06:43:27.411Z</time></trkpt><trkpt lat="45.0553695" lon="7.6545011"><ele>258.0</ele><time>2026-05-01T06:43:29.411Z</time></trkpt><trkpt lat="45.0552455" lon="7.6545295"><ele>258.0</ele><time>2026-05-01T06:43:31.411Z</time></trkpt><trkpt lat="45.0551704" lon="7.6545312"><ele>258.0</ele><time>2026-05-01T06:43:32.412Z</time></trkpt><trkpt lat="45.0550861" lon="7.6545354"><ele>258.2</ele><time>2026-05-01T06:43:33.411Z</time></trkpt><trkpt lat="45.0549933" lon="7.6545389"><ele>258.4</ele><time>2026-05-01T06:43:34.412Z</time></trkpt><trkpt lat="45.054905" lon="7.6545457"><ele>258.59999999999997</ele><time>2026-05-01T06:43:35.411Z</time></trkpt><trkpt lat="45.05482" lon="7.6545685"><ele>258.8</ele><time>2026-05-01T06:43:36.411Z</time></trkpt><trkpt lat="45.0547157" lon="7.6546008"><ele>259.0</ele><time>2026-05-01T06:43:37.411Z</time></trkpt><trkpt lat="45.0545875" lon="7.6546211"><ele>258.5</ele><time>2026-05-01T06:43:38.411Z</time></trkpt><trkpt lat="45.0544468" lon="7.654634"><ele>258.0</ele><time>2026-05-01T06:43:39.411Z</time></trkpt><trkpt lat="45.0543017" lon="7.6546491"><ele>257.5</ele><time>2026-05-01T06:43:40.411Z</time></trkpt><trkpt lat="45.0541573" lon="7.6546689"><ele>257.0</ele><time>2026-05-01T06:43:41.412Z</time></trkpt><trkpt lat="45.0540196" lon="7.6546957"><ele>256.4</ele><time>2026-05-01T06:43:42.411Z</time></trkpt><trkpt lat="45.0539043" lon="7.6547243"><ele>255.79999999999998</ele><time>2026-05-01T06:43:43.412Z</time></trkpt><trkpt lat="45.0538105" lon="7.6547496"><ele>255.2</ele><time>2026-05-01T06:43:44.411Z</time></trkpt><trkpt lat="45.0537376" lon="7.6547726"><ele>254.6</ele><time>2026-05-01T06:43:45.412Z</time></trkpt><trkpt lat="45.0536454" lon="7.6548128"><ele>254.0</ele><time>2026-05-01T06:43:47.412Z</time></trkpt><trkpt lat="45.0535774" lon="7.6548585"><ele>254.0</ele><time>2026-05-01T06:44:53.412Z</time></trkpt><trkpt lat="45.0534978" lon="7.6548645"><ele>253.99999999999997</ele><time>2026-05-01T06:44:55.411Z</time></trkpt><trkpt lat="45.0534609" lon="7.6547837"><ele>253.99999999999997</ele><time>2026-05-01T06:44:57.411Z</time></trkpt><trkpt lat="45.0534985" lon="7.6546286"><ele>254.0</ele><time>2026-05-01T06:44:59.411Z</time></trkpt><trkpt lat="45.0535317" lon="7.6545003"><ele>254.0</ele><time>2026-05-01T06:45:00.411Z</time></trkpt><trkpt lat="45.0535642" lon="7.6543464"><ele>254.75</ele><time>2026-05-01T06:45:01.411Z</time></trkpt><trkpt lat="45.0536002" lon="7.6542034"><ele>255.5</ele><time>2026-05-01T06:45:02.411Z</time></trkpt><trkpt lat="45.0536374" lon="7.6540528"><ele>256.25</ele><time>2026-05-01T06:45:03.411Z</time></trkpt><trkpt lat="45.0536747" lon="7.6538992"><ele>257.0</ele><time>2026-05-01T06:45:04.411Z</time></trkpt><trkpt lat="45.0537119" lon="7.6537424"><ele>258.6</ele><time>2026-05-01T06:45:05.413Z</time></trkpt><trkpt lat="45.0537458" lon="7.6535983"><ele>260.2</ele><time>2026-05-01T06:45:06.411Z</time></trkpt><trkpt lat="45.0537763" lon="7.6534551"><ele>261.8</ele><time>2026-05-01T06:45:07.411Z</time></trkpt><trkpt lat="45.053811" lon="7.6533065"><ele>263.4</ele><time>2026-05-01T06:45:08.411Z</time></trkpt><trkpt lat="45.0538459" lon="7.6531603"><ele>265.0</ele><time>2026-05-01T06:45:09.411Z</time></trkpt><trkpt lat="45.0538801" lon="7.6530122"><ele>265.0</ele><time>2026-05-01T06:45:10.411Z</time></trkpt><trkpt lat="45.0539155" lon="7.6528615"><ele>265.0</ele><time>2026-05-01T06:45:11.411Z</time></trkpt><trkpt lat="45.0539562" lon="7.6527031"><ele>265.0</ele><time>2026-05-01T06:45:12.411Z</time></trkpt><trkpt lat="45.0539957" lon="7.6525417"><ele>265.0</ele><time>2026-05-01T06:45:13.411Z</time></trkpt><trkpt lat="45.054028" lon="7.6523923"><ele>265.2</ele><time>2026-05-01T06:45:14.412Z</time></trkpt><trkpt lat="45.0540569" lon="7.6522486"><ele>265.4</ele><time>2026-05-01T06:45:15.411Z</time></trkpt><trkpt lat="45.054088" lon="7.6521095"><ele>265.6</ele><time>2026-05-01T06:45:16.411Z</time></trkpt><trkpt lat="45.0541193" lon="7.6519741"><ele>265.8</ele><time>2026-05-01T06:45:17.411Z</time></trkpt><trkpt lat="45.0541487" lon="7.6518363"><ele>266.0</ele><time>2026-05-01T06:45:18.411Z</time></trkpt><trkpt lat="45.0541825" lon="7.6516929"><ele>265.0</ele><time>2026-05-01T06:45:19.411Z</time></trkpt><trkpt lat="45.0542224" lon="7.6515444"><ele>264.0</ele><time>2026-05-01T06:45:20.411Z</time></trkpt><trkpt lat="45.0542652" lon="7.651379"><ele>263.0</ele><time>2026-05-01T06:45:21.411Z</time></trkpt><trkpt lat="45.054312" lon="7.6511993"><ele>262.0</ele><time>2026-05-01T06:45:22.411Z</time></trkpt><trkpt lat="45.054364" lon="7.6510085"><ele>262.0</ele><time>2026-05-01T06:45:23.411Z</time></trkpt><trkpt lat="45.0544152" lon="7.6508142"><ele>262.0</ele><time>2026-05-01T06:45:24.412Z</time></trkpt><trkpt lat="45.05446" lon="7.650619"><ele>262.0</ele><time>2026-05-01T06:45:25.411Z</time></trkpt><trkpt lat="45.0545005" lon="7.6504361"><ele>262.0</ele><time>2026-05-01T06:45:26.411Z</time></trkpt><trkpt lat="45.0545334" lon="7.6502653"><ele>261.0</ele><time>2026-05-01T06:45:27.411Z</time></trkpt><trkpt lat="45.0545602" lon="7.650107"><ele>260.0</ele><time>2026-05-01T06:45:28.411Z</time></trkpt><trkpt lat="45.0545848" lon="7.6499715"><ele>259.0</ele><time>2026-05-01T06:45:29.412Z</time></trkpt><trkpt lat="45.0546036" lon="7.6498624"><ele>258.0</ele><time>2026-05-01T06:45:30.411Z</time></trkpt><trkpt lat="45.05464" lon="7.6497285"><ele>257.0</ele><time>2026-05-01T06:45:32.411Z</time></trkpt><trkpt lat="45.0547132" lon="7.6495936"><ele>257.0</ele><time>2026-05-01T06:45:34.411Z</time></trkpt><trkpt lat="45.0547567" lon="7.6495137"><ele>257.0</ele><time>2026-05-01T06:45:35.411Z</time></trkpt><trkpt lat="45.0547981" lon="7.649428"><ele>257.0</ele><time>2026-05-01T06:45:36.411Z</time></trkpt><trkpt lat="45.054836" lon="7.6493269"><ele>257.0</ele><time>2026-05-01T06:45:37.411Z</time></trkpt><trkpt lat="45.0548638" lon="7.6492028"><ele>257.0</ele><time>2026-05-01T06:45:38.411Z</time></trkpt><trkpt lat="45.0548751" lon="7.64906"><ele>257.0</ele><time>2026-05-01T06:45:39.411Z</time></trkpt><trkpt lat="45.0548816" lon="7.6488989"><ele>256.5</ele><time>2026-05-01T06:45:40.411Z</time></trkpt><trkpt lat="45.0548942" lon="7.6487434"><ele>256.0</ele><time>2026-05-01T06:45:41.411Z</time></trkpt><trkpt lat="45.054925" lon="7.6485842"><ele>255.5</ele><time>2026-05-01T06:45:42.411Z</time></trkpt><trkpt lat="45.054961" lon="7.6484216"><ele>255.0</ele><time>2026-05-01T06:45:43.411Z</time></trkpt><trkpt lat="45.0550004" lon="7.6482514"><ele>255.0</ele><time>2026-05-01T06:45:44.411Z</time></trkpt><trkpt lat="45.0550455" lon="7.6480692"><ele>255.0</ele><time>2026-05-01T06:45:45.411Z</time></trkpt><trkpt lat="45.0550889" lon="7.6478843"><ele>255.0</ele><time>2026-05-01T06:45:46.411Z</time></trkpt><trkpt lat="45.0551315" lon="7.6476977"><ele>255.0</ele><time>2026-05-01T06:45:47.411Z</time></trkpt><trkpt lat="45.0551749" lon="7.6475103"><ele>254.75</ele><time>2026-05-01T06:45:48.411Z</time></trkpt><trkpt lat="45.0552172" lon="7.6473195"><ele>254.5</ele><time>2026-05-01T06:45:49.412Z</time></trkpt><trkpt lat="45.0552617" lon="7.6471275"><ele>254.25</ele><time>2026-05-01T06:45:50.411Z</time></trkpt><trkpt lat="45.055307" lon="7.6469324"><ele>254.0</ele><time>2026-05-01T06:45:51.411Z</time></trkpt><trkpt lat="45.0553494" lon="7.646744"><ele>254.0</ele><time>2026-05-01T06:45:52.411Z</time></trkpt><trkpt lat="45.0553897" lon="7.6465723"><ele>254.0</ele><time>2026-05-01T06:45:53.411Z</time></trkpt><trkpt lat="45.055428" lon="7.6464124"><ele>254.0</ele><time>2026-05-01T06:45:54.411Z</time></trkpt><trkpt lat="45.055465" lon="7.6462508"><ele>254.0</ele><time>2026-05-01T06:45:55.411Z</time></trkpt><trkpt lat="45.0555026" lon="7.6460827"><ele>254.5</ele><time>2026-05-01T06:45:56.411Z</time></trkpt><trkpt lat="45.0555443" lon="7.6459045"><ele>255.0</ele><time>2026-05-01T06:45:57.411Z</time></trkpt><trkpt lat="45.05559" lon="7.645717"><ele>255.5</ele><time>2026-05-01T06:45:58.411Z</time></trkpt><trkpt lat="45.0556344" lon="7.6455314"><ele>256.0</ele><time>2026-05-01T06:45:59.412Z</time></trkpt><trkpt lat="45.0556752" lon="7.6453678"><ele>256.0</ele><time>2026-05-01T06:46:00.411Z</time></trkpt><trkpt lat="45.0557046" lon="7.6452398"><ele>256.0</ele><time>2026-05-01T06:46:01.411Z</time></trkpt><trkpt lat="45.0557283" lon="7.6451295"><ele>256.0</ele><time>2026-05-01T06:46:02.411Z</time></trkpt><trkpt lat="45.0557554" lon="7.6450101"><ele>256.0</ele><time>2026-05-01T06:46:03.411Z</time></trkpt><trkpt lat="45.0557859" lon="7.6448833"><ele>256.0</ele><time>2026-05-01T06:46:04.411Z</time></trkpt><trkpt lat="45.0558141" lon="7.6447367"><ele>256.0</ele><time>2026-05-01T06:46:05.411Z</time></trkpt><trkpt lat="45.0558444" lon="7.6445812"><ele>256.0</ele><time>2026-05-01T06:46:06.411Z</time></trkpt><trkpt lat="45.0558817" lon="7.644425"><ele>256.0</ele><time>2026-05-01T06:46:07.411Z</time></trkpt><trkpt lat="45.0559237" lon="7.6442568"><ele>256.0</ele><time>2026-05-01T06:46:08.411Z</time></trkpt><trkpt lat="45.0559692" lon="7.6440712"><ele>256.66666666666663</ele><time>2026-05-01T06:46:09.411Z</time></trkpt><trkpt lat="45.0560162" lon="7.6438742"><ele>257.3333333333333</ele><time>2026-05-01T06:46:10.412Z</time></trkpt><trkpt lat="45.0560643" lon="7.6436642"><ele>258.0</ele><time>2026-05-01T06:46:11.411Z</time></trkpt><trkpt lat="45.0561151" lon="7.6434485"><ele>258.0</ele><time>2026-05-01T06:46:12.411Z</time></trkpt><trkpt lat="45.0561647" lon="7.6432374"><ele>258.0</ele><time>2026-05-01T06:46:13.411Z</time></trkpt><trkpt lat="45.0562141" lon="7.6430226"><ele>258.0</ele><time>2026-05-01T06:46:14.412Z</time></trkpt><trkpt lat="45.0562644" lon="7.6428068"><ele>257.5</ele><time>2026-05-01T06:46:15.412Z</time></trkpt><trkpt lat="45.0563097" lon="7.6425999"><ele>257.0</ele><time>2026-05-01T06:46:16.412Z</time></trkpt><trkpt lat="45.0563534" lon="7.6424015"><ele>256.5</ele><time>2026-05-01T06:46:17.411Z</time></trkpt><trkpt lat="45.0563949" lon="7.642208"><ele>256.0</ele><time>2026-05-01T06:46:18.411Z</time></trkpt><trkpt lat="45.0564382" lon="7.6420143"><ele>256.0</ele><time>2026-05-01T06:46:19.411Z</time></trkpt><trkpt lat="45.0564811" lon="7.6418181"><ele>256.0</ele><time>2026-05-01T06:46:20.413Z</time></trkpt><trkpt lat="45.0565256" lon="7.6416222"><ele>256.0</ele><time>2026-05-01T06:46:21.411Z</time></trkpt><trkpt lat="45.0565709" lon="7.6414232"><ele>256.0</ele><time>2026-05-01T06:46:22.411Z</time></trkpt><trkpt lat="45.0566185" lon="7.6412132"><ele>258.0</ele><time>2026-05-01T06:46:23.412Z</time></trkpt><trkpt lat="45.0566688" lon="7.6409991"><ele>260.0</ele><time>2026-05-01T06:46:24.411Z</time></trkpt><trkpt lat="45.0567201" lon="7.6407801"><ele>262.0</ele><time>2026-05-01T06:46:25.411Z</time></trkpt><trkpt lat="45.0567738" lon="7.6405585"><ele>262.0</ele><time>2026-05-01T06:46:26.411Z</time></trkpt><trkpt lat="45.0568251" lon="7.6403353"><ele>262.0</ele><time>2026-05-01T06:46:27.412Z</time></trkpt><trkpt lat="45.0568755" lon="7.6401127"><ele>262.0</ele><time>2026-05-01T06:46:28.411Z</time></trkpt><trkpt lat="45.0569264" lon="7.6398957"><ele>261.3333333333333</ele><time>2026-05-01T06:46:29.411Z</time></trkpt><trkpt lat="45.0569738" lon="7.6396849"><ele>260.6666666666667</ele><time>2026-05-01T06:46:30.411Z</time></trkpt><trkpt lat="45.0570219" lon="7.6394716"><ele>260.0</ele><time>2026-05-01T06:46:31.411Z</time></trkpt><trkpt lat="45.05707" lon="7.6392554"><ele>259.0</ele><time>2026-05-01T06:46:32.411Z</time></trkpt><trkpt lat="45.0571198" lon="7.639046"><ele>258.0</ele><time>2026-05-01T06:46:33.411Z</time></trkpt><trkpt lat="45.0571697" lon="7.6388362"><ele>257.0</ele><time>2026-05-01T06:46:34.411Z</time></trkpt><trkpt lat="45.0572185" lon="7.6386315"><ele>257.0</ele><time>2026-05-01T06:46:35.411Z</time></trkpt><trkpt lat="45.0572638" lon="7.6384298"><ele>257.0</ele><time>2026-05-01T06:46:36.411Z</time></trkpt><trkpt lat="45.0573051" lon="7.6382337"><ele>257.0</ele><time>2026-05-01T06:46:37.411Z</time></trkpt><trkpt lat="45.057345" lon="7.6380429"><ele>257.0</ele><time>2026-05-01T06:46:38.411Z</time></trkpt><trkpt lat="45.0573845" lon="7.6378625"><ele>257.25</ele><time>2026-05-01T06:46:39.411Z</time></trkpt><trkpt lat="45.0574231" lon="7.6376928"><ele>257.5</ele><time>2026-05-01T06:46:40.411Z</time></trkpt><trkpt lat="45.0574592" lon="7.6375352"><ele>257.75</ele><time>2026-05-01T06:46:41.411Z</time></trkpt><trkpt lat="45.057494" lon="7.6373809"><ele>258.0</ele><time>2026-05-01T06:46:42.411Z</time></trkpt><trkpt lat="45.0575315" lon="7.6372271"><ele>258.0</ele><time>2026-05-01T06:46:43.412Z</time></trkpt><trkpt lat="45.0575677" lon="7.6370804"><ele>258.0</ele><time>2026-05-01T06:46:44.411Z</time></trkpt><trkpt lat="45.0576028" lon="7.6369325"><ele>258.0</ele><time>2026-05-01T06:46:45.411Z</time></trkpt><trkpt lat="45.0576386" lon="7.6367848"><ele>258.0</ele><time>2026-05-01T06:46:46.412Z</time></trkpt><trkpt lat="45.0576732" lon="7.6366347"><ele>258.0</ele><time>2026-05-01T06:46:47.411Z</time></trkpt><trkpt lat="45.0577059" lon="7.6364931"><ele>258.6</ele><time>2026-05-01T06:46:48.411Z</time></trkpt><trkpt lat="45.0577391" lon="7.6363577"><ele>259.20000000000005</ele><time>2026-05-01T06:46:49.412Z</time></trkpt><trkpt lat="45.0577734" lon="7.6362284"><ele>259.8</ele><time>2026-05-01T06:46:50.412Z</time></trkpt><trkpt lat="45.0578038" lon="7.6361005"><ele>260.40000000000003</ele><time>2026-05-01T06:46:51.411Z</time></trkpt><trkpt lat="45.0578325" lon="7.6359752"><ele>261.0</ele><time>2026-05-01T06:46:52.411Z</time></trkpt><trkpt lat="45.0578608" lon="7.6358618"><ele>261.5</ele><time>2026-05-01T06:46:53.411Z</time></trkpt><trkpt lat="45.0578855" lon="7.6357579"><ele>262.0</ele><time>2026-05-01T06:46:54.411Z</time></trkpt><trkpt lat="45.0579071" lon="7.6356638"><ele>262.5</ele><time>2026-05-01T06:46:55.412Z</time></trkpt><trkpt lat="45.0579469" lon="7.6355073"><ele>263.0</ele><time>2026-05-01T06:46:57.411Z</time></trkpt><trkpt lat="45.0579816" lon="7.6353643"><ele>263.5</ele><time>2026-05-01T06:46:59.411Z</time></trkpt><trkpt lat="45.0579987" lon="7.6352597"><ele>264.0</ele><time>2026-05-01T06:47:00.411Z</time></trkpt><trkpt lat="45.0580012" lon="7.6351427"><ele>264.5</ele><time>2026-05-01T06:47:01.411Z</time></trkpt><trkpt lat="45.0579887" lon="7.6350262"><ele>265.0</ele><time>2026-05-01T06:47:02.411Z</time></trkpt><trkpt lat="45.0579594" lon="7.6349183"><ele>265.5</ele><time>2026-05-01T06:47:03.412Z</time></trkpt><trkpt lat="45.0579141" lon="7.6348273"><ele>266.0</ele><time>2026-05-01T06:47:04.412Z</time></trkpt><trkpt lat="45.0578558" lon="7.6347582"><ele>266.5</ele><time>2026-05-01T06:47:05.411Z</time></trkpt><trkpt lat="45.0577851" lon="7.6347135"><ele>267.0</ele><time>2026-05-01T06:47:06.411Z</time></trkpt><trkpt lat="45.0576969" lon="7.6346906"><ele>267.0</ele><time>2026-05-01T06:47:07.411Z</time></trkpt><trkpt lat="45.0575983" lon="7.6346772"><ele>267.0</ele><time>2026-05-01T06:47:08.411Z</time></trkpt><trkpt lat="45.0574861" lon="7.6346736"><ele>267.0</ele><time>2026-05-01T06:47:09.411Z</time></trkpt><trkpt lat="45.0573655" lon="7.6346695"><ele>267.0</ele><time>2026-05-01T06:47:10.411Z</time></trkpt><trkpt lat="45.0572506" lon="7.6346631"><ele>267.0</ele><time>2026-05-01T06:47:11.411Z</time></trkpt><trkpt lat="45.0571419" lon="7.6346613"><ele>266.2</ele><time>2026-05-01T06:47:12.411Z</time></trkpt><trkpt lat="45.0570414" lon="7.6346577"><ele>265.4</ele><time>2026-05-01T06:47:13.411Z</time></trkpt><trkpt lat="45.0569532" lon="7.6346549"><ele>264.6</ele><time>2026-05-01T06:47:14.411Z</time></trkpt><trkpt lat="45.0568807" lon="7.6346521"><ele>263.8</ele><time>2026-05-01T06:47:15.411Z</time></trkpt><trkpt lat="45.0567991" lon="7.6346508"><ele>263.0</ele><time>2026-05-01T06:47:17.412Z</time></trkpt><trkpt lat="45.0566704" lon="7.6346396"><ele>262.25</ele><time>2026-05-01T06:47:47.411Z</time></trkpt><trkpt lat="45.0565693" lon="7.6346288"><ele>261.5</ele><time>2026-05-01T06:47:48.411Z</time></trkpt><trkpt lat="45.0564601" lon="7.6346193"><ele>260.75</ele><time>2026-05-01T06:47:49.411Z</time></trkpt><trkpt lat="45.0563342" lon="7.6346113"><ele>260.0</ele><time>2026-05-01T06:47:50.411Z</time></trkpt><trkpt lat="45.056196" lon="7.6346033"><ele>260.0</ele><time>2026-05-01T06:47:51.411Z</time></trkpt><trkpt lat="45.0560551" lon="7.6345949"><ele>260.0</ele><time>2026-05-01T06:47:52.411Z</time></trkpt><trkpt lat="45.0559262" lon="7.6345901"><ele>260.0</ele><time>2026-05-01T06:47:53.412Z</time></trkpt><trkpt lat="45.0558106" lon="7.6345848"><ele>260.0</ele><time>2026-05-01T06:47:54.411Z</time></trkpt><trkpt lat="45.0557077" lon="7.6345797"><ele>260.6</ele><time>2026-05-01T06:47:55.411Z</time></trkpt><trkpt lat="45.0556226" lon="7.6345744"><ele>261.2</ele><time>2026-05-01T06:47:56.411Z</time></trkpt><trkpt lat="45.0555166" lon="7.6345515"><ele>261.8</ele><time>2026-05-01T06:47:58.411Z</time></trkpt><trkpt lat="45.0554576" lon="7.6344534"><ele>262.4</ele><time>2026-05-01T06:48:00.411Z</time></trkpt><trkpt lat="45.0554671" lon="7.6342791"><ele>263.0</ele><time>2026-05-01T06:48:02.402Z</time></trkpt><trkpt lat="45.0555006" lon="7.6341564"><ele>263.0</ele><time>2026-05-01T06:48:03.397Z</time></trkpt><trkpt lat="45.0555387" lon="7.6340078"><ele>263.0</ele><time>2026-05-01T06:48:04.407Z</time></trkpt><trkpt lat="45.0555804" lon="7.633819"><ele>263.0</ele><time>2026-05-01T06:48:05.402Z</time></trkpt><trkpt lat="45.0556252" lon="7.6335963"><ele>263.0</ele><time>2026-05-01T06:48:06.396Z</time></trkpt><trkpt lat="45.05567" lon="7.6333581"><ele>263.33333333333337</ele><time>2026-05-01T06:48:07.396Z</time></trkpt><trkpt lat="45.055712" lon="7.6331062"><ele>263.6666666666667</ele><time>2026-05-01T06:48:08.396Z</time></trkpt><trkpt lat="45.0557518" lon="7.6328431"><ele>264.0</ele><time>2026-05-01T06:48:09.397Z</time></trkpt><trkpt lat="45.0557912" lon="7.6325659"><ele>264.3333333333333</ele><time>2026-05-01T06:48:10.396Z</time></trkpt><trkpt lat="45.055836" lon="7.6322725"><ele>264.66666666666663</ele><time>2026-05-01T06:48:11.397Z</time></trkpt><trkpt lat="45.0558777" lon="7.6319814"><ele>265.0</ele><time>2026-05-01T06:48:12.396Z</time></trkpt><trkpt lat="45.0559455" lon="7.6317049"><ele>265.0</ele><time>2026-05-01T06:48:13.411Z</time></trkpt><trkpt lat="45.0560046" lon="7.6314291"><ele>265.0</ele><time>2026-05-01T06:48:14.411Z</time></trkpt><trkpt lat="45.0560614" lon="7.631155"><ele>265.0</ele><time>2026-05-01T06:48:15.411Z</time></trkpt><trkpt lat="45.056115" lon="7.6308854"><ele>264.3333333333333</ele><time>2026-05-01T06:48:16.411Z</time></trkpt><trkpt lat="45.0561689" lon="7.6306168"><ele>263.6666666666667</ele><time>2026-05-01T06:48:17.41Z</time></trkpt><trkpt lat="45.0562216" lon="7.6303512"><ele>263.0</ele><time>2026-05-01T06:48:18.41Z</time></trkpt><trkpt lat="45.0562715" lon="7.6300924"><ele>263.0</ele><time>2026-05-01T06:48:19.411Z</time></trkpt><trkpt lat="45.0563207" lon="7.6298392"><ele>263.0</ele><time>2026-05-01T06:48:20.41Z</time></trkpt><trkpt lat="45.0563706" lon="7.6295902"><ele>263.0</ele><time>2026-05-01T06:48:21.41Z</time></trkpt><trkpt lat="45.0564285" lon="7.6293567"><ele>263.6666666666667</ele><time>2026-05-01T06:48:22.411Z</time></trkpt><trkpt lat="45.0564817" lon="7.6291122"><ele>264.3333333333333</ele><time>2026-05-01T06:48:23.41Z</time></trkpt><trkpt lat="45.0565373" lon="7.6288551"><ele>265.0</ele><time>2026-05-01T06:48:24.41Z</time></trkpt><trkpt lat="45.0565902" lon="7.6286027"><ele>265.3333333333333</ele><time>2026-05-01T06:48:25.41Z</time></trkpt><trkpt lat="45.0566437" lon="7.6283468"><ele>265.6666666666667</ele><time>2026-05-01T06:48:26.41Z</time></trkpt><trkpt lat="45.0566973" lon="7.6280932"><ele>266.0</ele><time>2026-05-01T06:48:27.411Z</time></trkpt><trkpt lat="45.056749" lon="7.6278452"><ele>266.33333333333337</ele><time>2026-05-01T06:48:28.41Z</time></trkpt><trkpt lat="45.0567985" lon="7.6276017"><ele>266.6666666666667</ele><time>2026-05-01T06:48:29.41Z</time></trkpt><trkpt lat="45.0568436" lon="7.6273704"><ele>267.0</ele><time>2026-05-01T06:48:30.41Z</time></trkpt><trkpt lat="45.0568863" lon="7.6271477"><ele>265.6666666666667</ele><time>2026-05-01T06:48:31.411Z</time></trkpt><trkpt lat="45.0569319" lon="7.6269242"><ele>264.33333333333337</ele><time>2026-05-01T06:48:32.41Z</time></trkpt><trkpt lat="45.0569778" lon="7.6267044"><ele>263.0</ele><time>2026-05-01T06:48:33.41Z</time></trkpt><trkpt lat="45.0570218" lon="7.6264888"><ele>263.0</ele><time>2026-05-01T06:48:34.411Z</time></trkpt><trkpt lat="45.0570669" lon="7.6262773"><ele>263.0</ele><time>2026-05-01T06:48:35.41Z</time></trkpt><trkpt lat="45.0571105" lon="7.626074"><ele>263.0</ele><time>2026-05-01T06:48:36.41Z</time></trkpt><trkpt lat="45.0571528" lon="7.6258728"><ele>263.75</ele><time>2026-05-01T06:48:37.41Z</time></trkpt><trkpt lat="45.0571952" lon="7.6256725"><ele>264.5</ele><time>2026-05-01T06:48:38.41Z</time></trkpt><trkpt lat="45.0572358" lon="7.6254816"><ele>265.25</ele><time>2026-05-01T06:48:39.41Z</time></trkpt><trkpt lat="45.0572736" lon="7.6252924"><ele>266.0</ele><time>2026-05-01T06:48:40.41Z</time></trkpt><trkpt lat="45.0573116" lon="7.6251039"><ele>266.33333333333337</ele><time>2026-05-01T06:48:41.41Z</time></trkpt><trkpt lat="45.0573518" lon="7.6249092"><ele>266.6666666666667</ele><time>2026-05-01T06:48:42.411Z</time></trkpt><trkpt lat="45.0574002" lon="7.6246968"><ele>267.0</ele><time>2026-05-01T06:48:43.41Z</time></trkpt><trkpt lat="45.0574602" lon="7.6244682"><ele>267.0</ele><time>2026-05-01T06:48:44.41Z</time></trkpt><trkpt lat="45.0575356" lon="7.6242287"><ele>267.0</ele><time>2026-05-01T06:48:45.411Z</time></trkpt><trkpt lat="45.0576195" lon="7.6239757"><ele>267.0</ele><time>2026-05-01T06:48:46.41Z</time></trkpt><trkpt lat="45.0577021" lon="7.6237093"><ele>267.3333333333333</ele><time>2026-05-01T06:48:47.41Z</time></trkpt><trkpt lat="45.0577847" lon="7.6234373"><ele>267.66666666666663</ele><time>2026-05-01T06:48:48.41Z</time></trkpt><trkpt lat="45.0578667" lon="7.6231636"><ele>268.0</ele><time>2026-05-01T06:48:49.41Z</time></trkpt><trkpt lat="45.0579495" lon="7.6228973"><ele>268.3333333333333</ele><time>2026-05-01T06:48:50.41Z</time></trkpt><trkpt lat="45.0580324" lon="7.6226396"><ele>268.6666666666667</ele><time>2026-05-01T06:48:51.41Z</time></trkpt><trkpt lat="45.0581126" lon="7.6223962"><ele>269.0</ele><time>2026-05-01T06:48:52.41Z</time></trkpt><trkpt lat="45.058189" lon="7.6221641"><ele>269.0</ele><time>2026-05-01T06:48:53.41Z</time></trkpt><trkpt lat="45.0582629" lon="7.6219463"><ele>269.0</ele><time>2026-05-01T06:48:54.41Z</time></trkpt><trkpt lat="45.0583345" lon="7.6217409"><ele>269.0</ele><time>2026-05-01T06:48:55.41Z</time></trkpt><trkpt lat="45.0584031" lon="7.6215471"><ele>269.0</ele><time>2026-05-01T06:48:56.41Z</time></trkpt><trkpt lat="45.0584683" lon="7.6213638"><ele>269.0</ele><time>2026-05-01T06:48:57.41Z</time></trkpt><trkpt lat="45.0585306" lon="7.6211917"><ele>269.0</ele><time>2026-05-01T06:48:58.411Z</time></trkpt><trkpt lat="45.0585869" lon="7.6210382"><ele>269.0</ele><time>2026-05-01T06:48:59.411Z</time></trkpt><trkpt lat="45.0586345" lon="7.6209045"><ele>269.1666666666667</ele><time>2026-05-01T06:49:00.41Z</time></trkpt><trkpt lat="45.0586771" lon="7.6207856"><ele>269.33333333333337</ele><time>2026-05-01T06:49:01.41Z</time></trkpt><trkpt lat="45.058711" lon="7.6206878"><ele>269.5</ele><time>2026-05-01T06:49:02.41Z</time></trkpt><trkpt lat="45.0587549" lon="7.6205561"><ele>269.6666666666667</ele><time>2026-05-01T06:49:04.41Z</time></trkpt><trkpt lat="45.0587854" lon="7.6204397"><ele>269.8333333333333</ele><time>2026-05-01T06:49:46.41Z</time></trkpt><trkpt lat="45.0588125" lon="7.6203491"><ele>270.0</ele><time>2026-05-01T06:49:47.41Z</time></trkpt><trkpt lat="45.058857" lon="7.6202306"><ele>270.0</ele><time>2026-05-01T06:49:48.411Z</time></trkpt><trkpt lat="45.0589061" lon="7.6201038"><ele>270.0</ele><time>2026-05-01T06:49:49.41Z</time></trkpt><trkpt lat="45.0589558" lon="7.6199511"><ele>270.0</ele><time>2026-05-01T06:49:50.41Z</time></trkpt><trkpt lat="45.0590018" lon="7.6197728"><ele>270.0</ele><time>2026-05-01T06:49:51.41Z</time></trkpt><trkpt lat="45.0590385" lon="7.6195666"><ele>269.0</ele><time>2026-05-01T06:49:52.41Z</time></trkpt><trkpt lat="45.0590703" lon="7.6193406"><ele>268.0</ele><time>2026-05-01T06:49:53.41Z</time></trkpt><trkpt lat="45.0591002" lon="7.6191115"><ele>267.0</ele><time>2026-05-01T06:49:54.41Z</time></trkpt><trkpt lat="45.0591289" lon="7.618875"><ele>267.6666666666667</ele><time>2026-05-01T06:49:55.41Z</time></trkpt><trkpt lat="45.0591587" lon="7.6186306"><ele>268.33333333333337</ele><time>2026-05-01T06:49:56.41Z</time></trkpt><trkpt lat="45.0591879" lon="7.6183741"><ele>269.0</ele><time>2026-05-01T06:49:57.41Z</time></trkpt><trkpt lat="45.0592188" lon="7.6181104"><ele>269.0</ele><time>2026-05-01T06:49:58.41Z</time></trkpt><trkpt lat="45.0592506" lon="7.6178377"><ele>269.0</ele><time>2026-05-01T06:49:59.41Z</time></trkpt><trkpt lat="45.059284" lon="7.6175573"><ele>269.0</ele><time>2026-05-01T06:50:00.41Z</time></trkpt><trkpt lat="45.0593182" lon="7.6172749"><ele>269.6666666666667</ele><time>2026-05-01T06:50:01.41Z</time></trkpt><trkpt lat="45.0593504" lon="7.6169978"><ele>270.3333333333333</ele><time>2026-05-01T06:50:02.41Z</time></trkpt><trkpt lat="45.0593813" lon="7.6167282"><ele>271.0</ele><time>2026-05-01T06:50:03.41Z</time></trkpt><trkpt lat="45.0594108" lon="7.6164662"><ele>271.0</ele><time>2026-05-01T06:50:04.411Z</time></trkpt><trkpt lat="45.0594366" lon="7.6162203"><ele>271.0</ele><time>2026-05-01T06:50:05.41Z</time></trkpt><trkpt lat="45.0594548" lon="7.615991"><ele>271.0</ele><time>2026-05-01T06:50:06.41Z</time></trkpt><trkpt lat="45.0594607" lon="7.6157793"><ele>271.0</ele><time>2026-05-01T06:50:07.41Z</time></trkpt><trkpt lat="45.0594576" lon="7.6155937"><ele>271.0</ele><time>2026-05-01T06:50:08.41Z</time></trkpt><trkpt lat="45.0594541" lon="7.6154305"><ele>271.0</ele><time>2026-05-01T06:50:09.41Z</time></trkpt><trkpt lat="45.0594707" lon="7.6152634"><ele>271.0</ele><time>2026-05-01T06:50:10.41Z</time></trkpt><trkpt lat="45.0595001" lon="7.6150738"><ele>271.3333333333333</ele><time>2026-05-01T06:50:11.41Z</time></trkpt><trkpt lat="45.0595143" lon="7.6148615"><ele>271.6666666666667</ele><time>2026-05-01T06:50:12.41Z</time></trkpt><trkpt lat="45.0595353" lon="7.6146243"><ele>272.0</ele><time>2026-05-01T06:50:13.41Z</time></trkpt><trkpt lat="45.0595739" lon="7.6143627"><ele>272.33333333333337</ele><time>2026-05-01T06:50:14.41Z</time></trkpt><trkpt lat="45.0596162" lon="7.6140712"><ele>272.6666666666667</ele><time>2026-05-01T06:50:15.41Z</time></trkpt><trkpt lat="45.0596553" lon="7.6137658"><ele>273.0</ele><time>2026-05-01T06:50:16.41Z</time></trkpt><trkpt lat="45.0596943" lon="7.6134634"><ele>272.0</ele><time>2026-05-01T06:50:17.41Z</time></trkpt><trkpt lat="45.0597346" lon="7.6131498"><ele>271.0</ele><time>2026-05-01T06:50:18.41Z</time></trkpt><trkpt lat="45.0597759" lon="7.6128343"><ele>270.0</ele><time>2026-05-01T06:50:19.41Z</time></trkpt><trkpt lat="45.0598165" lon="7.6125197"><ele>269.0</ele><time>2026-05-01T06:50:20.41Z</time></trkpt><trkpt lat="45.0598574" lon="7.612205"><ele>269.0</ele><time>2026-05-01T06:50:21.411Z</time></trkpt><trkpt lat="45.0598983" lon="7.6118912"><ele>269.0</ele><time>2026-05-01T06:50:22.41Z</time></trkpt><trkpt lat="45.0599401" lon="7.6115782"><ele>270.5</ele><time>2026-05-01T06:50:23.41Z</time></trkpt><trkpt lat="45.0599834" lon="7.6112656"><ele>272.0</ele><time>2026-05-01T06:50:24.41Z</time></trkpt><trkpt lat="45.0600275" lon="7.6109539"><ele>272.33333333333337</ele><time>2026-05-01T06:50:25.41Z</time></trkpt><trkpt lat="45.0600701" lon="7.6106452"><ele>272.6666666666667</ele><time>2026-05-01T06:50:26.411Z</time></trkpt><trkpt lat="45.0601141" lon="7.610338"><ele>273.0</ele><time>2026-05-01T06:50:27.41Z</time></trkpt><trkpt lat="45.0601591" lon="7.6100291"><ele>273.0</ele><time>2026-05-01T06:50:28.41Z</time></trkpt><trkpt lat="45.060209" lon="7.6097213"><ele>273.0</ele><time>2026-05-01T06:50:29.41Z</time></trkpt><trkpt lat="45.0602629" lon="7.609417"><ele>273.0</ele><time>2026-05-01T06:50:30.41Z</time></trkpt><trkpt lat="45.0603191" lon="7.6091201"><ele>274.6666666666667</ele><time>2026-05-01T06:50:31.41Z</time></trkpt><trkpt lat="45.0603762" lon="7.6088276"><ele>276.33333333333337</ele><time>2026-05-01T06:50:32.41Z</time></trkpt><trkpt lat="45.060432" lon="7.6085428"><ele>278.0</ele><time>2026-05-01T06:50:33.41Z</time></trkpt><trkpt lat="45.060483" lon="7.608272"><ele>278.33333333333337</ele><time>2026-05-01T06:50:34.41Z</time></trkpt><trkpt lat="45.0605292" lon="7.6080162"><ele>278.6666666666667</ele><time>2026-05-01T06:50:35.41Z</time></trkpt><trkpt lat="45.0605679" lon="7.6077822"><ele>279.0</ele><time>2026-05-01T06:50:36.41Z</time></trkpt><trkpt lat="45.0606004" lon="7.6075726"><ele>279.0</ele><time>2026-05-01T06:50:37.41Z</time></trkpt><trkpt lat="45.0606284" lon="7.6073934"><ele>279.0</ele><time>2026-05-01T06:50:38.41Z</time></trkpt><trkpt lat="45.060653" lon="7.6072459"><ele>279.0</ele><time>2026-05-01T06:50:39.41Z</time></trkpt><trkpt lat="45.0606734" lon="7.6071333"><ele>279.0</ele><time>2026-05-01T06:50:40.41Z</time></trkpt><trkpt lat="45.0606915" lon="7.607015"><ele>279.0</ele><time>2026-05-01T06:50:42.41Z</time></trkpt><trkpt lat="45.0607195" lon="7.6068663"><ele>278.8</ele><time>2026-05-01T06:51:22.41Z</time></trkpt><trkpt lat="45.0607385" lon="7.6067464"><ele>278.59999999999997</ele><time>2026-05-01T06:51:23.41Z</time></trkpt><trkpt lat="45.0607611" lon="7.6066166"><ele>278.4</ele><time>2026-05-01T06:51:24.41Z</time></trkpt><trkpt lat="45.060792" lon="7.6064592"><ele>278.2</ele><time>2026-05-01T06:51:25.41Z</time></trkpt><trkpt lat="45.0608269" lon="7.60627"><ele>278.0</ele><time>2026-05-01T06:51:26.41Z</time></trkpt><trkpt lat="45.0608678" lon="7.6060604"><ele>278.0</ele><time>2026-05-01T06:51:27.41Z</time></trkpt><trkpt lat="45.0609139" lon="7.6058282"><ele>278.0</ele><time>2026-05-01T06:51:28.41Z</time></trkpt><trkpt lat="45.0609631" lon="7.6055909"><ele>278.0</ele><time>2026-05-01T06:51:29.41Z</time></trkpt><trkpt lat="45.0610145" lon="7.6053438"><ele>277.0</ele><time>2026-05-01T06:51:30.41Z</time></trkpt><trkpt lat="45.0610692" lon="7.6050806"><ele>276.0</ele><time>2026-05-01T06:51:31.41Z</time></trkpt><trkpt lat="45.0611235" lon="7.6048088"><ele>275.0</ele><time>2026-05-01T06:51:32.41Z</time></trkpt><trkpt lat="45.0611824" lon="7.604526"><ele>275.33333333333337</ele><time>2026-05-01T06:51:33.41Z</time></trkpt><trkpt lat="45.0612427" lon="7.6042333"><ele>275.6666666666667</ele><time>2026-05-01T06:51:34.41Z</time></trkpt><trkpt lat="45.0613052" lon="7.6039348"><ele>276.0</ele><time>2026-05-01T06:51:35.41Z</time></trkpt><trkpt lat="45.06137" lon="7.6036248"><ele>277.0</ele><time>2026-05-01T06:51:36.41Z</time></trkpt><trkpt lat="45.0614322" lon="7.6033209"><ele>278.0</ele><time>2026-05-01T06:51:37.399Z</time></trkpt><trkpt lat="45.061495" lon="7.6030086"><ele>277.0</ele><time>2026-05-01T06:51:38.399Z</time></trkpt><trkpt lat="45.0615611" lon="7.6026947"><ele>276.0</ele><time>2026-05-01T06:51:39.392Z</time></trkpt><trkpt lat="45.0616273" lon="7.6023747"><ele>276.0</ele><time>2026-05-01T06:51:40.395Z</time></trkpt><trkpt lat="45.0616936" lon="7.6020586"><ele>276.0</ele><time>2026-05-01T06:51:41.398Z</time></trkpt><trkpt lat="45.061759" lon="7.6017478"><ele>277.6666666666667</ele><time>2026-05-01T06:51:42.398Z</time></trkpt><trkpt lat="45.0618221" lon="7.6014467"><ele>279.33333333333337</ele><time>2026-05-01T06:51:43.398Z</time></trkpt><trkpt lat="45.0618812" lon="7.6011674"><ele>281.0</ele><time>2026-05-01T06:51:44.397Z</time></trkpt><trkpt lat="45.0619409" lon="7.6008979"><ele>281.0</ele><time>2026-05-01T06:51:45.397Z</time></trkpt><trkpt lat="45.0620067" lon="7.6006219"><ele>281.0</ele><time>2026-05-01T06:51:46.398Z</time></trkpt><trkpt lat="45.0620814" lon="7.6003336"><ele>281.0</ele><time>2026-05-01T06:51:47.397Z</time></trkpt><trkpt lat="45.0621595" lon="7.6000489"><ele>281.0</ele><time>2026-05-01T06:51:48.397Z</time></trkpt><trkpt lat="45.0622458" lon="7.5997406"><ele>281.0</ele><time>2026-05-01T06:51:49.397Z</time></trkpt><trkpt lat="45.062337" lon="7.5994205"><ele>280.0</ele><time>2026-05-01T06:51:50.397Z</time></trkpt><trkpt lat="45.0624283" lon="7.599098"><ele>279.0</ele><time>2026-05-01T06:51:51.398Z</time></trkpt><trkpt lat="45.0625283" lon="7.5987448"><ele>278.0</ele><time>2026-05-01T06:51:52.398Z</time></trkpt><trkpt lat="45.062628" lon="7.5983944"><ele>277.0</ele><time>2026-05-01T06:51:53.397Z</time></trkpt><trkpt lat="45.0627255" lon="7.5980521"><ele>278.0</ele><time>2026-05-01T06:51:54.397Z</time></trkpt><trkpt lat="45.0628249" lon="7.597703"><ele>279.0</ele><time>2026-05-01T06:51:55.397Z</time></trkpt><trkpt lat="45.0629153" lon="7.5973919"><ele>279.0</ele><time>2026-05-01T06:51:56.397Z</time></trkpt><trkpt lat="45.0630042" lon="7.5970862"><ele>279.0</ele><time>2026-05-01T06:51:57.398Z</time></trkpt><trkpt lat="45.0630874" lon="7.5967931"><ele>278.6666666666667</ele><time>2026-05-01T06:51:58.397Z</time></trkpt><trkpt lat="45.063164" lon="7.5965162"><ele>278.33333333333337</ele><time>2026-05-01T06:51:59.398Z</time></trkpt><trkpt lat="45.0632425" lon="7.5962314"><ele>278.0</ele><time>2026-05-01T06:52:00.397Z</time></trkpt><trkpt lat="45.06332" lon="7.5959623"><ele>279.33333333333337</ele><time>2026-05-01T06:52:01.41Z</time></trkpt><trkpt lat="45.0633899" lon="7.5957116"><ele>280.6666666666667</ele><time>2026-05-01T06:52:02.41Z</time></trkpt><trkpt lat="45.063448" lon="7.5954966"><ele>282.0</ele><time>2026-05-01T06:52:03.41Z</time></trkpt><trkpt lat="45.0635007" lon="7.5953227"><ele>282.5</ele><time>2026-05-01T06:52:04.41Z</time></trkpt><trkpt lat="45.0635506" lon="7.5951907"><ele>283.0</ele><time>2026-05-01T06:52:05.41Z</time></trkpt><trkpt lat="45.0636063" lon="7.5951007"><ele>283.5</ele><time>2026-05-01T06:52:06.411Z</time></trkpt><trkpt lat="45.0636686" lon="7.5950484"><ele>284.0</ele><time>2026-05-01T06:52:07.41Z</time></trkpt><trkpt lat="45.0637374" lon="7.5950309"><ele>284.5</ele><time>2026-05-01T06:52:08.41Z</time></trkpt><trkpt lat="45.0638073" lon="7.5950309"><ele>285.0</ele><time>2026-05-01T06:52:09.392Z</time></trkpt><trkpt lat="45.0638726" lon="7.5950124"><ele>285.0</ele><time>2026-05-01T06:52:10.403Z</time></trkpt><trkpt lat="45.0639337" lon="7.5949657"><ele>285.0</ele><time>2026-05-01T06:52:11.395Z</time></trkpt><trkpt lat="45.0639748" lon="7.5948976"><ele>285.0</ele><time>2026-05-01T06:52:12.394Z</time></trkpt><trkpt lat="45.0639946" lon="7.5947177"><ele>285.0</ele><time>2026-05-01T06:52:14.397Z</time></trkpt><trkpt lat="45.0639818" lon="7.5945949"><ele>285.0</ele><time>2026-05-01T06:52:15.397Z</time></trkpt><trkpt lat="45.0639666" lon="7.5944399"><ele>284.75</ele><time>2026-05-01T06:52:16.397Z</time></trkpt><trkpt lat="45.0639534" lon="7.594262"><ele>284.5</ele><time>2026-05-01T06:52:17.398Z</time></trkpt><trkpt lat="45.0639396" lon="7.5940579"><ele>284.25</ele><time>2026-05-01T06:52:18.397Z</time></trkpt><trkpt lat="45.0639236" lon="7.5938128"><ele>284.0</ele><time>2026-05-01T06:52:19.397Z</time></trkpt><trkpt lat="45.0639122" lon="7.5935585"><ele>283.6666666666667</ele><time>2026-05-01T06:52:20.397Z</time></trkpt><trkpt lat="45.0639096" lon="7.5933094"><ele>283.3333333333333</ele><time>2026-05-01T06:52:21.397Z</time></trkpt><trkpt lat="45.0639132" lon="7.593079"><ele>283.0</ele><time>2026-05-01T06:52:22.397Z</time></trkpt><trkpt lat="45.0639211" lon="7.5928549"><ele>283.2</ele><time>2026-05-01T06:52:23.397Z</time></trkpt><trkpt lat="45.0639316" lon="7.5926491"><ele>283.4</ele><time>2026-05-01T06:52:24.398Z</time></trkpt><trkpt lat="45.0639427" lon="7.5924782"><ele>283.59999999999997</ele><time>2026-05-01T06:52:25.397Z</time></trkpt><trkpt lat="45.0639515" lon="7.5923472"><ele>283.8</ele><time>2026-05-01T06:52:26.397Z</time></trkpt><trkpt lat="45.0639583" lon="7.5922457"><ele>284.0</ele><time>2026-05-01T06:52:27.397Z</time></trkpt><trkpt lat="45.063973" lon="7.5920682"><ele>284.59999999999997</ele><time>2026-05-01T06:52:29.397Z</time></trkpt><trkpt lat="45.0639805" lon="7.5919592"><ele>285.2</ele><time>2026-05-01T06:52:30.397Z</time></trkpt><trkpt lat="45.063985" lon="7.5918285"><ele>285.79999999999995</ele><time>2026-05-01T06:52:31.397Z</time></trkpt><trkpt lat="45.0639932" lon="7.5916555"><ele>286.4</ele><time>2026-05-01T06:52:32.397Z</time></trkpt><trkpt lat="45.0640107" lon="7.5914694"><ele>287.0</ele><time>2026-05-01T06:52:33.397Z</time></trkpt><trkpt lat="45.0640344" lon="7.5912589"><ele>287.33333333333337</ele><time>2026-05-01T06:52:34.397Z</time></trkpt><trkpt lat="45.0640644" lon="7.5910159"><ele>287.6666666666667</ele><time>2026-05-01T06:52:35.41Z</time></trkpt><trkpt lat="45.0640987" lon="7.5907502"><ele>288.0</ele><time>2026-05-01T06:52:36.411Z</time></trkpt><trkpt lat="45.0641344" lon="7.5904722"><ele>288.3333333333333</ele><time>2026-05-01T06:52:37.411Z</time></trkpt><trkpt lat="45.0641759" lon="7.5902071"><ele>288.66666666666663</ele><time>2026-05-01T06:52:38.41Z</time></trkpt><trkpt lat="45.0642167" lon="7.5899469"><ele>289.0</ele><time>2026-05-01T06:52:39.41Z</time></trkpt><trkpt lat="45.0642601" lon="7.5897005"><ele>288.66666666666663</ele><time>2026-05-01T06:52:40.41Z</time></trkpt><trkpt lat="45.0643045" lon="7.5894688"><ele>288.3333333333333</ele><time>2026-05-01T06:52:41.41Z</time></trkpt><trkpt lat="45.0643482" lon="7.5892477"><ele>288.0</ele><time>2026-05-01T06:52:42.411Z</time></trkpt><trkpt lat="45.0643912" lon="7.5890441"><ele>288.0</ele><time>2026-05-01T06:52:43.41Z</time></trkpt><trkpt lat="45.0644332" lon="7.5888656"><ele>288.0</ele><time>2026-05-01T06:52:44.41Z</time></trkpt><trkpt lat="45.0644692" lon="7.588717"><ele>288.0</ele><time>2026-05-01T06:52:45.41Z</time></trkpt><trkpt lat="45.0645002" lon="7.5885953"><ele>288.0</ele><time>2026-05-01T06:52:46.41Z</time></trkpt><trkpt lat="45.0645407" lon="7.5884797"><ele>288.0</ele><time>2026-05-01T06:52:47.411Z</time></trkpt><trkpt lat="45.0645795" lon="7.5883668"><ele>288.25</ele><time>2026-05-01T06:52:48.41Z</time></trkpt><trkpt lat="45.0646129" lon="7.5882292"><ele>288.5</ele><time>2026-05-01T06:52:49.41Z</time></trkpt><trkpt lat="45.0646389" lon="7.5880644"><ele>288.75</ele><time>2026-05-01T06:52:50.41Z</time></trkpt><trkpt lat="45.0646706" lon="7.5878789"><ele>289.0</ele><time>2026-05-01T06:52:51.411Z</time></trkpt><trkpt lat="45.0647115" lon="7.5876737"><ele>289.0</ele><time>2026-05-01T06:52:52.41Z</time></trkpt><trkpt lat="45.064762" lon="7.5874541"><ele>289.0</ele><time>2026-05-01T06:52:53.41Z</time></trkpt><trkpt lat="45.0648117" lon="7.5872212"><ele>289.0</ele><time>2026-05-01T06:52:54.411Z</time></trkpt><trkpt lat="45.064866" lon="7.5869689"><ele>289.0</ele><time>2026-05-01T06:52:55.41Z</time></trkpt><trkpt lat="45.0649199" lon="7.5867043"><ele>289.0</ele><time>2026-05-01T06:52:56.412Z</time></trkpt><trkpt lat="45.0649734" lon="7.586434"><ele>289.0</ele><time>2026-05-01T06:52:57.41Z</time></trkpt><trkpt lat="45.0650262" lon="7.5861626"><ele>289.66666666666663</ele><time>2026-05-01T06:52:58.411Z</time></trkpt><trkpt lat="45.0650769" lon="7.5859079"><ele>290.3333333333333</ele><time>2026-05-01T06:52:59.41Z</time></trkpt><trkpt lat="45.0651239" lon="7.5856707"><ele>291.0</ele><time>2026-05-01T06:53:00.41Z</time></trkpt><trkpt lat="45.0651693" lon="7.5854459"><ele>291.2</ele><time>2026-05-01T06:53:01.41Z</time></trkpt><trkpt lat="45.0652107" lon="7.5852409"><ele>291.40000000000003</ele><time>2026-05-01T06:53:02.411Z</time></trkpt><trkpt lat="45.0652434" lon="7.585082"><ele>291.6</ele><time>2026-05-01T06:53:03.41Z</time></trkpt><trkpt lat="45.0652698" lon="7.5849597"><ele>291.8</ele><time>2026-05-01T06:53:04.41Z</time></trkpt><trkpt lat="45.0652964" lon="7.5848462"><ele>292.0</ele><time>2026-05-01T06:53:05.41Z</time></trkpt><trkpt lat="45.0653263" lon="7.5847273"><ele>292.0</ele><time>2026-05-01T06:53:06.41Z</time></trkpt><trkpt lat="45.0653508" lon="7.5845777"><ele>292.0</ele><time>2026-05-01T06:53:07.41Z</time></trkpt><trkpt lat="45.0653723" lon="7.5843963"><ele>292.0</ele><time>2026-05-01T06:53:08.41Z</time></trkpt><trkpt lat="45.0653965" lon="7.5841944"><ele>292.0</ele><time>2026-05-01T06:53:09.41Z</time></trkpt><trkpt lat="45.0654195" lon="7.5839646"><ele>292.0</ele><time>2026-05-01T06:53:10.41Z</time></trkpt><trkpt lat="45.0654458" lon="7.5837146"><ele>292.0</ele><time>2026-05-01T06:53:11.41Z</time></trkpt><trkpt lat="45.0654735" lon="7.5834706"><ele>292.0</ele><time>2026-05-01T06:53:12.41Z</time></trkpt><trkpt lat="45.0655041" lon="7.5832203"><ele>292.66666666666663</ele><time>2026-05-01T06:53:13.41Z</time></trkpt><trkpt lat="45.0655358" lon="7.5829729"><ele>293.3333333333333</ele><time>2026-05-01T06:53:14.41Z</time></trkpt><trkpt lat="45.0655676" lon="7.5827421"><ele>294.0</ele><time>2026-05-01T06:53:15.41Z</time></trkpt><trkpt lat="45.0655968" lon="7.5825383"><ele>294.25</ele><time>2026-05-01T06:53:16.41Z</time></trkpt><trkpt lat="45.0656199" lon="7.5823774"><ele>294.5</ele><time>2026-05-01T06:53:17.41Z</time></trkpt><trkpt lat="45.0656386" lon="7.5822279"><ele>294.75</ele><time>2026-05-01T06:53:18.41Z</time></trkpt><trkpt lat="45.0656555" lon="7.5820745"><ele>295.0</ele><time>2026-05-01T06:53:19.41Z</time></trkpt><trkpt lat="45.0656766" lon="7.5819059"><ele>295.0</ele><time>2026-05-01T06:53:20.41Z</time></trkpt><trkpt lat="45.0657045" lon="7.5817162"><ele>295.0</ele><time>2026-05-01T06:53:21.41Z</time></trkpt><trkpt lat="45.065736" lon="7.5815154"><ele>295.0</ele><time>2026-05-01T06:53:22.41Z</time></trkpt><trkpt lat="45.0657663" lon="7.5813025"><ele>295.0</ele><time>2026-05-01T06:53:23.411Z</time></trkpt><trkpt lat="45.0657934" lon="7.5810803"><ele>295.75</ele><time>2026-05-01T06:53:24.411Z</time></trkpt><trkpt lat="45.0658222" lon="7.5808621"><ele>296.5</ele><time>2026-05-01T06:53:25.41Z</time></trkpt><trkpt lat="45.0658518" lon="7.580659"><ele>297.25</ele><time>2026-05-01T06:53:26.411Z</time></trkpt><trkpt lat="45.06588" lon="7.5804754"><ele>298.0</ele><time>2026-05-01T06:53:27.41Z</time></trkpt><trkpt lat="45.065906" lon="7.5803169"><ele>298.0</ele><time>2026-05-01T06:53:28.411Z</time></trkpt><trkpt lat="45.0659326" lon="7.5801655"><ele>298.0</ele><time>2026-05-01T06:53:29.41Z</time></trkpt><trkpt lat="45.0659557" lon="7.5800125"><ele>298.0</ele><time>2026-05-01T06:53:30.41Z</time></trkpt><trkpt lat="45.0659771" lon="7.5798476"><ele>298.0</ele><time>2026-05-01T06:53:31.41Z</time></trkpt><trkpt lat="45.0659944" lon="7.5796698"><ele>297.6</ele><time>2026-05-01T06:53:32.41Z</time></trkpt><trkpt lat="45.0660089" lon="7.5795028"><ele>297.20000000000005</ele><time>2026-05-01T06:53:33.41Z</time></trkpt><trkpt lat="45.0660262" lon="7.5793574"><ele>296.8</ele><time>2026-05-01T06:53:34.41Z</time></trkpt><trkpt lat="45.0660488" lon="7.5792318"><ele>296.40000000000003</ele><time>2026-05-01T06:53:35.41Z</time></trkpt><trkpt lat="45.0660775" lon="7.5791059"><ele>296.0</ele><time>2026-05-01T06:53:36.41Z</time></trkpt><trkpt lat="45.0660966" lon="7.5789621"><ele>296.0</ele><time>2026-05-01T06:53:37.411Z</time></trkpt><trkpt lat="45.0661055" lon="7.5788199"><ele>296.0</ele><time>2026-05-01T06:53:38.41Z</time></trkpt><trkpt lat="45.0661162" lon="7.5786873"><ele>296.0</ele><time>2026-05-01T06:53:39.41Z</time></trkpt><trkpt lat="45.0661355" lon="7.5785587"><ele>296.0</ele><time>2026-05-01T06:53:40.41Z</time></trkpt><trkpt lat="45.0661718" lon="7.578421"><ele>296.0</ele><time>2026-05-01T06:53:41.41Z</time></trkpt><trkpt lat="45.0662327" lon="7.5782756"><ele>296.25</ele><time>2026-05-01T06:53:42.41Z</time></trkpt><trkpt lat="45.066315" lon="7.5781262"><ele>296.5</ele><time>2026-05-01T06:53:43.41Z</time></trkpt><trkpt lat="45.0664173" lon="7.5779785"><ele>296.75</ele><time>2026-05-01T06:53:44.41Z</time></trkpt><trkpt lat="45.0665384" lon="7.5778392"><ele>297.0</ele><time>2026-05-01T06:53:45.41Z</time></trkpt><trkpt lat="45.0666695" lon="7.5777152"><ele>297.0</ele><time>2026-05-01T06:53:46.41Z</time></trkpt><trkpt lat="45.0667941" lon="7.5776021"><ele>297.0</ele><time>2026-05-01T06:53:47.411Z</time></trkpt><trkpt lat="45.0668992" lon="7.5774826"><ele>297.0</ele><time>2026-05-01T06:53:48.411Z</time></trkpt><trkpt lat="45.0669824" lon="7.5773566"><ele>297.0</ele><time>2026-05-01T06:53:49.41Z</time></trkpt><trkpt lat="45.0670406" lon="7.5772483"><ele>297.0</ele><time>2026-05-01T06:53:50.41Z</time></trkpt><trkpt lat="45.0670918" lon="7.5771387"><ele>297.0</ele><time>2026-05-01T06:53:51.411Z</time></trkpt><trkpt lat="45.0671367" lon="7.5770268"><ele>297.0</ele><time>2026-05-01T06:53:52.41Z</time></trkpt><trkpt lat="45.0671794" lon="7.5769025"><ele>297.0</ele><time>2026-05-01T06:53:53.41Z</time></trkpt><trkpt lat="45.0672162" lon="7.5767594"><ele>297.0</ele><time>2026-05-01T06:53:54.41Z</time></trkpt><trkpt lat="45.0672438" lon="7.5765966"><ele>296.75</ele><time>2026-05-01T06:53:55.41Z</time></trkpt><trkpt lat="45.0672603" lon="7.5764088"><ele>296.5</ele><time>2026-05-01T06:53:56.41Z</time></trkpt><trkpt lat="45.0672646" lon="7.5762016"><ele>296.25</ele><time>2026-05-01T06:53:57.41Z</time></trkpt><trkpt lat="45.0672602" lon="7.5759805"><ele>296.0</ele><time>2026-05-01T06:53:58.41Z</time></trkpt><trkpt lat="45.0672553" lon="7.5757628"><ele>296.0</ele><time>2026-05-01T06:53:59.41Z</time></trkpt><trkpt lat="45.0672472" lon="7.5755601"><ele>296.0</ele><time>2026-05-01T06:54:00.411Z</time></trkpt><trkpt lat="45.067238" lon="7.5753661"><ele>296.0</ele><time>2026-05-01T06:54:01.411Z</time></trkpt><trkpt lat="45.0672295" lon="7.575186"><ele>296.0</ele><time>2026-05-01T06:54:02.411Z</time></trkpt><trkpt lat="45.0672155" lon="7.5750282"><ele>296.1666666666667</ele><time>2026-05-01T06:54:03.41Z</time></trkpt><trkpt lat="45.0671921" lon="7.5748969"><ele>296.33333333333337</ele><time>2026-05-01T06:54:04.41Z</time></trkpt><trkpt lat="45.0671611" lon="7.5747952"><ele>296.5</ele><time>2026-05-01T06:54:05.411Z</time></trkpt><trkpt lat="45.0671211" lon="7.5746997"><ele>296.6666666666667</ele><time>2026-05-01T06:54:06.41Z</time></trkpt><trkpt lat="45.0670759" lon="7.5745993"><ele>296.8333333333333</ele><time>2026-05-01T06:54:07.41Z</time></trkpt><trkpt lat="45.0670224" lon="7.5745004"><ele>297.0</ele><time>2026-05-01T06:54:08.411Z</time></trkpt><trkpt lat="45.0669567" lon="7.5744106"><ele>297.5</ele><time>2026-05-01T06:54:09.41Z</time></trkpt><trkpt lat="45.0668767" lon="7.5743337"><ele>298.0</ele><time>2026-05-01T06:54:10.41Z</time></trkpt><trkpt lat="45.066774" lon="7.5742689"><ele>298.5</ele><time>2026-05-01T06:54:11.41Z</time></trkpt><trkpt lat="45.0666507" lon="7.574213"><ele>299.0</ele><time>2026-05-01T06:54:12.41Z</time></trkpt><trkpt lat="45.0665117" lon="7.5741588"><ele>299.0</ele><time>2026-05-01T06:54:13.41Z</time></trkpt><trkpt lat="45.0663691" lon="7.5741042"><ele>299.0</ele><time>2026-05-01T06:54:14.41Z</time></trkpt><trkpt lat="45.066236" lon="7.5740439"><ele>299.0</ele><time>2026-05-01T06:54:15.41Z</time></trkpt><trkpt lat="45.0661161" lon="7.5739675"><ele>299.0</ele><time>2026-05-01T06:54:16.41Z</time></trkpt><trkpt lat="45.0660154" lon="7.5738698"><ele>299.0</ele><time>2026-05-01T06:54:17.41Z</time></trkpt><trkpt lat="45.065941" lon="7.5737717"><ele>299.0</ele><time>2026-05-01T06:54:18.41Z</time></trkpt><trkpt lat="45.0658766" lon="7.5736735"><ele>299.0</ele><time>2026-05-01T06:54:19.41Z</time></trkpt><trkpt lat="45.065813" lon="7.5735686"><ele>299.0</ele><time>2026-05-01T06:54:20.41Z</time></trkpt><trkpt lat="45.0657429" lon="7.57347"><ele>299.0</ele><time>2026-05-01T06:54:21.41Z</time></trkpt><trkpt lat="45.0656616" lon="7.5733847"><ele>299.2</ele><time>2026-05-01T06:54:22.41Z</time></trkpt><trkpt lat="45.0655672" lon="7.5733089"><ele>299.4</ele><time>2026-05-01T06:54:23.41Z</time></trkpt><trkpt lat="45.0654632" lon="7.5732463"><ele>299.6</ele><time>2026-05-01T06:54:24.41Z</time></trkpt><trkpt lat="45.0653594" lon="7.5732031"><ele>299.8</ele><time>2026-05-01T06:54:25.41Z</time></trkpt><trkpt lat="45.0652601" lon="7.5731641"><ele>300.0</ele><time>2026-05-01T06:54:26.411Z</time></trkpt><trkpt lat="45.0651574" lon="7.5731226"><ele>300.0</ele><time>2026-05-01T06:54:27.41Z</time></trkpt><trkpt lat="45.0650471" lon="7.5730854"><ele>300.0</ele><time>2026-05-01T06:54:28.41Z</time></trkpt><trkpt lat="45.064928" lon="7.573059"><ele>300.0</ele><time>2026-05-01T06:54:29.41Z</time></trkpt><trkpt lat="45.0648" lon="7.5730458"><ele>300.0</ele><time>2026-05-01T06:54:30.411Z</time></trkpt><trkpt lat="45.0646606" lon="7.5730431"><ele>299.6666666666667</ele><time>2026-05-01T06:54:31.41Z</time></trkpt><trkpt lat="45.0645111" lon="7.5730473"><ele>299.33333333333337</ele><time>2026-05-01T06:54:32.41Z</time></trkpt><trkpt lat="45.0643556" lon="7.5730585"><ele>299.0</ele><time>2026-05-01T06:54:33.411Z</time></trkpt><trkpt lat="45.0642044" lon="7.5730792"><ele>299.0</ele><time>2026-05-01T06:54:34.41Z</time></trkpt><trkpt lat="45.0640632" lon="7.5731094"><ele>299.0</ele><time>2026-05-01T06:54:35.41Z</time></trkpt><trkpt lat="45.06393" lon="7.5731422"><ele>299.0</ele><time>2026-05-01T06:54:36.411Z</time></trkpt><trkpt lat="45.0638156" lon="7.5731731"><ele>299.0</ele><time>2026-05-01T06:54:37.41Z</time></trkpt><trkpt lat="45.063732" lon="7.573197"><ele>299.0</ele><time>2026-05-01T06:54:38.41Z</time></trkpt><trkpt lat="45.0636588" lon="7.5732135"><ele>299.0</ele><time>2026-05-01T06:54:40.411Z</time></trkpt><trkpt lat="45.0635657" lon="7.5732085"><ele>299.0</ele><time>2026-05-01T06:54:44.41Z</time></trkpt><trkpt lat="45.063486" lon="7.5731515"><ele>299.0</ele><time>2026-05-01T06:54:46.41Z</time></trkpt><trkpt lat="45.0634399" lon="7.5730412"><ele>299.0</ele><time>2026-05-01T06:54:48.41Z</time></trkpt><trkpt lat="45.0634346" lon="7.572859"><ele>299.4</ele><time>2026-05-01T06:54:50.411Z</time></trkpt><trkpt lat="45.0634412" lon="7.5727332"><ele>299.79999999999995</ele><time>2026-05-01T06:54:51.41Z</time></trkpt><trkpt lat="45.0634492" lon="7.5725929"><ele>300.20000000000005</ele><time>2026-05-01T06:54:52.41Z</time></trkpt><trkpt lat="45.0634584" lon="7.5724446"><ele>300.6</ele><time>2026-05-01T06:54:53.411Z</time></trkpt><trkpt lat="45.0634678" lon="7.5722866"><ele>301.0</ele><time>2026-05-01T06:54:54.41Z</time></trkpt><trkpt lat="45.0634769" lon="7.5721158"><ele>300.6</ele><time>2026-05-01T06:54:55.412Z</time></trkpt><trkpt lat="45.0634887" lon="7.571944"><ele>300.20000000000005</ele><time>2026-05-01T06:54:56.411Z</time></trkpt><trkpt lat="45.0634964" lon="7.5717884"><ele>299.79999999999995</ele><time>2026-05-01T06:54:57.41Z</time></trkpt><trkpt lat="45.0634953" lon="7.5716406"><ele>299.4</ele><time>2026-05-01T06:54:58.41Z</time></trkpt><trkpt lat="45.0634964" lon="7.571493"><ele>299.0</ele><time>2026-05-01T06:54:59.411Z</time></trkpt><trkpt lat="45.0634965" lon="7.5713358"><ele>299.25</ele><time>2026-05-01T06:55:00.41Z</time></trkpt><trkpt lat="45.0634925" lon="7.5711719"><ele>299.5</ele><time>2026-05-01T06:55:01.41Z</time></trkpt><trkpt lat="45.0634871" lon="7.571003"><ele>299.75</ele><time>2026-05-01T06:55:02.411Z</time></trkpt><trkpt lat="45.0634894" lon="7.5708308"><ele>300.0</ele><time>2026-05-01T06:55:03.41Z</time></trkpt><trkpt lat="45.0634964" lon="7.5706601"><ele>300.0</ele><time>2026-05-01T06:55:04.41Z</time></trkpt><trkpt lat="45.0635003" lon="7.5704924"><ele>300.0</ele><time>2026-05-01T06:55:05.41Z</time></trkpt><trkpt lat="45.0635067" lon="7.5703212"><ele>300.0</ele><time>2026-05-01T06:55:06.41Z</time></trkpt><trkpt lat="45.0635143" lon="7.5701423"><ele>300.0</ele><time>2026-05-01T06:55:07.41Z</time></trkpt><trkpt lat="45.0635247" lon="7.5699761"><ele>299.8</ele><time>2026-05-01T06:55:08.411Z</time></trkpt><trkpt lat="45.0635379" lon="7.5698253"><ele>299.6</ele><time>2026-05-01T06:55:09.41Z</time></trkpt><trkpt lat="45.0635509" lon="7.5696897"><ele>299.4</ele><time>2026-05-01T06:55:10.41Z</time></trkpt><trkpt lat="45.0635617" lon="7.5695405"><ele>299.2</ele><time>2026-05-01T06:55:11.41Z</time></trkpt><trkpt lat="45.0635752" lon="7.5693719"><ele>299.0</ele><time>2026-05-01T06:55:12.41Z</time></trkpt><trkpt lat="45.0635893" lon="7.5691834"><ele>299.0</ele><time>2026-05-01T06:55:13.41Z</time></trkpt><trkpt lat="45.0636009" lon="7.5689933"><ele>299.0</ele><time>2026-05-01T06:55:14.41Z</time></trkpt><trkpt lat="45.0636108" lon="7.5688145"><ele>299.0</ele><time>2026-05-01T06:55:15.41Z</time></trkpt><trkpt lat="45.0636192" lon="7.5686539"><ele>299.0</ele><time>2026-05-01T06:55:16.41Z</time></trkpt><trkpt lat="45.0636269" lon="7.5685132"><ele>299.8</ele><time>2026-05-01T06:55:17.41Z</time></trkpt><trkpt lat="45.0636328" lon="7.5683763"><ele>300.59999999999997</ele><time>2026-05-01T06:55:18.41Z</time></trkpt><trkpt lat="45.0636397" lon="7.5682289"><ele>301.4</ele><time>2026-05-01T06:55:19.41Z</time></trkpt><trkpt lat="45.0636498" lon="7.5680823"><ele>302.2</ele><time>2026-05-01T06:55:20.41Z</time></trkpt><trkpt lat="45.0636615" lon="7.5679589"><ele>303.0</ele><time>2026-05-01T06:55:21.41Z</time></trkpt><trkpt lat="45.0636726" lon="7.5678453"><ele>303.2</ele><time>2026-05-01T06:55:22.41Z</time></trkpt><trkpt lat="45.0636835" lon="7.5677359"><ele>303.4</ele><time>2026-05-01T06:55:23.41Z</time></trkpt><trkpt lat="45.0636975" lon="7.5676138"><ele>303.59999999999997</ele><time>2026-05-01T06:55:24.41Z</time></trkpt><trkpt lat="45.0637174" lon="7.5674854"><ele>303.8</ele><time>2026-05-01T06:55:25.41Z</time></trkpt><trkpt lat="45.0637431" lon="7.5673372"><ele>304.0</ele><time>2026-05-01T06:55:26.41Z</time></trkpt><trkpt lat="45.0637681" lon="7.5671748"><ele>303.5</ele><time>2026-05-01T06:55:27.411Z</time></trkpt><trkpt lat="45.0637919" lon="7.5670027"><ele>303.0</ele><time>2026-05-01T06:55:28.41Z</time></trkpt><trkpt lat="45.0638168" lon="7.566838"><ele>302.5</ele><time>2026-05-01T06:55:29.41Z</time></trkpt><trkpt lat="45.0638445" lon="7.5666684"><ele>302.0</ele><time>2026-05-01T06:55:30.41Z</time></trkpt><trkpt lat="45.0638745" lon="7.5664947"><ele>302.0</ele><time>2026-05-01T06:55:31.41Z</time></trkpt><trkpt lat="45.0639046" lon="7.5663158"><ele>302.0</ele><time>2026-05-01T06:55:32.41Z</time></trkpt><trkpt lat="45.0639352" lon="7.566125"><ele>302.0</ele><time>2026-05-01T06:55:33.411Z</time></trkpt><trkpt lat="45.063968" lon="7.5659171"><ele>302.0</ele><time>2026-05-01T06:55:34.41Z</time></trkpt><trkpt lat="45.0640023" lon="7.5657042"><ele>301.75</ele><time>2026-05-01T06:55:35.41Z</time></trkpt><trkpt lat="45.0640377" lon="7.5655056"><ele>301.5</ele><time>2026-05-01T06:55:36.41Z</time></trkpt><trkpt lat="45.0640692" lon="7.5653241"><ele>301.25</ele><time>2026-05-01T06:55:37.41Z</time></trkpt><trkpt lat="45.0640978" lon="7.5651613"><ele>301.0</ele><time>2026-05-01T06:55:38.41Z</time></trkpt><trkpt lat="45.0641279" lon="7.5650123"><ele>300.8</ele><time>2026-05-01T06:55:39.41Z</time></trkpt><trkpt lat="45.0641614" lon="7.5648736"><ele>300.6</ele><time>2026-05-01T06:55:40.41Z</time></trkpt><trkpt lat="45.0642063" lon="7.5647361"><ele>300.4</ele><time>2026-05-01T06:55:41.411Z</time></trkpt><trkpt lat="45.0642624" lon="7.564609"><ele>300.2</ele><time>2026-05-01T06:55:42.411Z</time></trkpt><trkpt lat="45.064321" lon="7.5645055"><ele>300.0</ele><time>2026-05-01T06:55:43.411Z</time></trkpt><trkpt lat="45.0643614" lon="7.5644077"><ele>299.8333333333333</ele><time>2026-05-01T06:55:44.41Z</time></trkpt><trkpt lat="45.0643773" lon="7.5643104"><ele>299.6666666666667</ele><time>2026-05-01T06:55:45.411Z</time></trkpt><trkpt lat="45.0643696" lon="7.5642135"><ele>299.5</ele><time>2026-05-01T06:55:46.41Z</time></trkpt><trkpt lat="45.0643381" lon="7.5640936"><ele>299.33333333333337</ele><time>2026-05-01T06:55:47.411Z</time></trkpt><trkpt lat="45.0643017" lon="7.5639618"><ele>299.1666666666667</ele><time>2026-05-01T06:55:48.411Z</time></trkpt><trkpt lat="45.0642798" lon="7.5638367"><ele>299.0</ele><time>2026-05-01T06:55:49.41Z</time></trkpt><trkpt lat="45.0642683" lon="7.5637409"><ele>299.2</ele><time>2026-05-01T06:55:50.411Z</time></trkpt><trkpt lat="45.0642655" lon="7.5636256"><ele>299.4</ele><time>2026-05-01T06:55:51.41Z</time></trkpt><trkpt lat="45.0642802" lon="7.5634919"><ele>299.6</ele><time>2026-05-01T06:55:52.411Z</time></trkpt><trkpt lat="45.0643053" lon="7.5633419"><ele>299.8</ele><time>2026-05-01T06:55:53.41Z</time></trkpt><trkpt lat="45.064327" lon="7.5631818"><ele>300.0</ele><time>2026-05-01T06:55:54.41Z</time></trkpt><trkpt lat="45.0643381" lon="7.5630357"><ele>300.0</ele><time>2026-05-01T06:55:55.41Z</time></trkpt><trkpt lat="45.0643436" lon="7.562909"><ele>300.0</ele><time>2026-05-01T06:55:56.41Z</time></trkpt><trkpt lat="45.0643391" lon="7.5628061"><ele>300.0</ele><time>2026-05-01T06:55:57.41Z</time></trkpt><trkpt lat="45.0643162" lon="7.5627169"><ele>300.0</ele><time>2026-05-01T06:55:58.41Z</time></trkpt><trkpt lat="45.0642736" lon="7.5626456"><ele>300.0</ele><time>2026-05-01T06:55:59.411Z</time></trkpt><trkpt lat="45.064207" lon="7.5625947"><ele>300.0</ele><time>2026-05-01T06:56:00.41Z</time></trkpt><trkpt lat="45.0641125" lon="7.5625562"><ele>299.25</ele><time>2026-05-01T06:56:01.41Z</time></trkpt><trkpt lat="45.0639902" lon="7.5625169"><ele>298.5</ele><time>2026-05-01T06:56:02.41Z</time></trkpt><trkpt lat="45.063843" lon="7.5624677"><ele>297.75</ele><time>2026-05-01T06:56:03.41Z</time></trkpt><trkpt lat="45.0636749" lon="7.562412"><ele>297.0</ele><time>2026-05-01T06:56:04.41Z</time></trkpt><trkpt lat="45.0634932" lon="7.5623518"><ele>297.0</ele><time>2026-05-01T06:56:05.411Z</time></trkpt><trkpt lat="45.0633063" lon="7.5622889"><ele>297.0</ele><time>2026-05-01T06:56:06.41Z</time></trkpt><trkpt lat="45.0631083" lon="7.5622191"><ele>297.0</ele><time>2026-05-01T06:56:07.411Z</time></trkpt><trkpt lat="45.0629041" lon="7.5621476"><ele>297.0</ele><time>2026-05-01T06:56:08.41Z</time></trkpt><trkpt lat="45.0626957" lon="7.5620762"><ele>297.0</ele><time>2026-05-01T06:56:09.41Z</time></trkpt><trkpt lat="45.0624923" lon="7.5620069"><ele>297.0</ele><time>2026-05-01T06:56:10.41Z</time></trkpt><trkpt lat="45.0622993" lon="7.5619408"><ele>297.0</ele><time>2026-05-01T06:56:11.41Z</time></trkpt><trkpt lat="45.0621176" lon="7.5618808"><ele>297.0</ele><time>2026-05-01T06:56:12.41Z</time></trkpt><trkpt lat="45.0619537" lon="7.5618339"><ele>297.0</ele><time>2026-05-01T06:56:13.41Z</time></trkpt><trkpt lat="45.0618139" lon="7.561797"><ele>297.0</ele><time>2026-05-01T06:56:14.41Z</time></trkpt><trkpt lat="45.0616988" lon="7.5617692"><ele>297.0</ele><time>2026-05-01T06:56:15.41Z</time></trkpt><trkpt lat="45.0615964" lon="7.5617444"><ele>297.0</ele><time>2026-05-01T06:56:16.41Z</time></trkpt><trkpt lat="45.0615159" lon="7.5617047"><ele>297.0</ele><time>2026-05-01T06:56:17.411Z</time></trkpt><trkpt lat="45.0614523" lon="7.5616376"><ele>297.0</ele><time>2026-05-01T06:56:18.41Z</time></trkpt><trkpt lat="45.0614079" lon="7.5615559"><ele>297.0</ele><time>2026-05-01T06:56:19.41Z</time></trkpt><trkpt lat="45.0613815" lon="7.5614587"><ele>297.0</ele><time>2026-05-01T06:56:20.41Z</time></trkpt><trkpt lat="45.0613729" lon="7.5613431"><ele>297.0</ele><time>2026-05-01T06:56:21.411Z</time></trkpt><trkpt lat="45.0613847" lon="7.561202"><ele>297.0</ele><time>2026-05-01T06:56:22.411Z</time></trkpt><trkpt lat="45.061412" lon="7.5610426"><ele>297.0</ele><time>2026-05-01T06:56:23.41Z</time></trkpt><trkpt lat="45.0614473" lon="7.5608524"><ele>297.0</ele><time>2026-05-01T06:56:24.41Z</time></trkpt><trkpt lat="45.061487" lon="7.5606268"><ele>297.0</ele><time>2026-05-01T06:56:25.41Z</time></trkpt><trkpt lat="45.061527" lon="7.5603861"><ele>297.0</ele><time>2026-05-01T06:56:26.41Z</time></trkpt><trkpt lat="45.0615678" lon="7.5601472"><ele>297.0</ele><time>2026-05-01T06:56:27.41Z</time></trkpt><trkpt lat="45.0616116" lon="7.5598942"><ele>297.0</ele><time>2026-05-01T06:56:28.41Z</time></trkpt><trkpt lat="45.0616555" lon="7.559638"><ele>297.0</ele><time>2026-05-01T06:56:29.41Z</time></trkpt><trkpt lat="45.0616962" lon="7.5593882"><ele>298.3333333333333</ele><time>2026-05-01T06:56:30.411Z</time></trkpt><trkpt lat="45.061738" lon="7.5591416"><ele>299.66666666666663</ele><time>2026-05-01T06:56:31.41Z</time></trkpt><trkpt lat="45.0617833" lon="7.5588914"><ele>301.0</ele><time>2026-05-01T06:56:32.41Z</time></trkpt><trkpt lat="45.0618291" lon="7.5586367"><ele>301.0</ele><time>2026-05-01T06:56:33.41Z</time></trkpt><trkpt lat="45.0618745" lon="7.5583823"><ele>301.0</ele><time>2026-05-01T06:56:34.41Z</time></trkpt><trkpt lat="45.0619169" lon="7.5581283"><ele>301.0</ele><time>2026-05-01T06:56:35.41Z</time></trkpt><trkpt lat="45.0619565" lon="7.5578786"><ele>301.0</ele><time>2026-05-01T06:56:36.41Z</time></trkpt><trkpt lat="45.0619957" lon="7.5576274"><ele>301.0</ele><time>2026-05-01T06:56:37.41Z</time></trkpt><trkpt lat="45.0620404" lon="7.5573694"><ele>301.0</ele><time>2026-05-01T06:56:38.41Z</time></trkpt><trkpt lat="45.0620902" lon="7.5571064"><ele>301.0</ele><time>2026-05-01T06:56:39.41Z</time></trkpt><trkpt lat="45.0621393" lon="7.5568405"><ele>301.0</ele><time>2026-05-01T06:56:40.411Z</time></trkpt><trkpt lat="45.0621819" lon="7.5565974"><ele>301.0</ele><time>2026-05-01T06:56:41.41Z</time></trkpt><trkpt lat="45.0622151" lon="7.5564004"><ele>301.0</ele><time>2026-05-01T06:56:42.41Z</time></trkpt><trkpt lat="45.0622443" lon="7.5562286"><ele>301.0</ele><time>2026-05-01T06:56:43.41Z</time></trkpt><trkpt lat="45.0622736" lon="7.5560428"><ele>301.0</ele><time>2026-05-01T06:56:44.41Z</time></trkpt><trkpt lat="45.0623079" lon="7.5558391"><ele>301.0</ele><time>2026-05-01T06:56:45.41Z</time></trkpt><trkpt lat="45.0623475" lon="7.5556173"><ele>301.66666666666663</ele><time>2026-05-01T06:56:46.41Z</time></trkpt><trkpt lat="45.062389" lon="7.5553705"><ele>302.3333333333333</ele><time>2026-05-01T06:56:47.41Z</time></trkpt><trkpt lat="45.0624343" lon="7.5551055"><ele>303.0</ele><time>2026-05-01T06:56:48.41Z</time></trkpt><trkpt lat="45.0624826" lon="7.5548277"><ele>303.0</ele><time>2026-05-01T06:56:49.411Z</time></trkpt><trkpt lat="45.0625325" lon="7.554543"><ele>303.0</ele><time>2026-05-01T06:56:50.41Z</time></trkpt><trkpt lat="45.0625813" lon="7.5542605"><ele>303.0</ele><time>2026-05-01T06:56:51.411Z</time></trkpt><trkpt lat="45.062626" lon="7.5539868"><ele>303.6666666666667</ele><time>2026-05-01T06:56:52.41Z</time></trkpt><trkpt lat="45.0626696" lon="7.5537252"><ele>304.33333333333337</ele><time>2026-05-01T06:56:53.41Z</time></trkpt><trkpt lat="45.0627128" lon="7.5534807"><ele>305.0</ele><time>2026-05-01T06:56:54.411Z</time></trkpt><trkpt lat="45.062759" lon="7.5532572"><ele>305.0</ele><time>2026-05-01T06:56:55.41Z</time></trkpt><trkpt lat="45.0628037" lon="7.5530535"><ele>305.0</ele><time>2026-05-01T06:56:56.41Z</time></trkpt><trkpt lat="45.0628335" lon="7.552858"><ele>305.0</ele><time>2026-05-01T06:56:57.411Z</time></trkpt><trkpt lat="45.0628592" lon="7.552644"><ele>305.0</ele><time>2026-05-01T06:56:58.41Z</time></trkpt><trkpt lat="45.0628896" lon="7.5524217"><ele>304.6666666666667</ele><time>2026-05-01T06:56:59.411Z</time></trkpt><trkpt lat="45.0629294" lon="7.5521841"><ele>304.3333333333333</ele><time>2026-05-01T06:57:00.41Z</time></trkpt><trkpt lat="45.0629746" lon="7.5519297"><ele>304.0</ele><time>2026-05-01T06:57:01.41Z</time></trkpt><trkpt lat="45.0630207" lon="7.5516641"><ele>304.66666666666663</ele><time>2026-05-01T06:57:02.41Z</time></trkpt><trkpt lat="45.063068" lon="7.5513946"><ele>305.3333333333333</ele><time>2026-05-01T06:57:03.41Z</time></trkpt><trkpt lat="45.0631123" lon="7.5511428"><ele>306.0</ele><time>2026-05-01T06:57:04.41Z</time></trkpt><trkpt lat="45.0631543" lon="7.5509077"><ele>306.0</ele><time>2026-05-01T06:57:05.41Z</time></trkpt><trkpt lat="45.0631894" lon="7.5507005"><ele>306.0</ele><time>2026-05-01T06:57:06.41Z</time></trkpt><trkpt lat="45.0632185" lon="7.5505307"><ele>306.0</ele><time>2026-05-01T06:57:07.41Z</time></trkpt><trkpt lat="45.0632403" lon="7.550396"><ele>306.0</ele><time>2026-05-01T06:57:08.41Z</time></trkpt><trkpt lat="45.0632579" lon="7.5502677"><ele>306.40000000000003</ele><time>2026-05-01T06:57:10.41Z</time></trkpt><trkpt lat="45.0632452" lon="7.550161"><ele>306.8</ele><time>2026-05-01T06:57:13.41Z</time></trkpt><trkpt lat="45.0631747" lon="7.5500443"><ele>307.20000000000005</ele><time>2026-05-01T06:57:15.411Z</time></trkpt><trkpt lat="45.0631068" lon="7.5499962"><ele>307.6</ele><time>2026-05-01T06:57:16.41Z</time></trkpt><trkpt lat="45.0630102" lon="7.5499545"><ele>308.0</ele><time>2026-05-01T06:57:17.411Z</time></trkpt><trkpt lat="45.0628857" lon="7.5499141"><ele>308.0</ele><time>2026-05-01T06:57:18.41Z</time></trkpt><trkpt lat="45.06274" lon="7.5498703"><ele>308.0</ele><time>2026-05-01T06:57:19.41Z</time></trkpt><trkpt lat="45.0625969" lon="7.5498223"><ele>308.0</ele><time>2026-05-01T06:57:20.41Z</time></trkpt><trkpt lat="45.0624595" lon="7.549764"><ele>308.0</ele><time>2026-05-01T06:57:21.41Z</time></trkpt><trkpt lat="45.0623264" lon="7.5496905"><ele>307.8</ele><time>2026-05-01T06:57:22.411Z</time></trkpt><trkpt lat="45.0622016" lon="7.549608"><ele>307.6</ele><time>2026-05-01T06:57:23.41Z</time></trkpt><trkpt lat="45.06209" lon="7.5495335"><ele>307.4</ele><time>2026-05-01T06:57:24.41Z</time></trkpt><trkpt lat="45.0620005" lon="7.5494691"><ele>307.2</ele><time>2026-05-01T06:57:25.41Z</time></trkpt><trkpt lat="45.0619269" lon="7.5494079"><ele>307.0</ele><time>2026-05-01T06:57:26.41Z</time></trkpt><trkpt lat="45.0618756" lon="7.5493439"><ele>307.0</ele><time>2026-05-01T06:57:27.41Z</time></trkpt><trkpt lat="45.0618414" lon="7.5491765"><ele>307.0</ele><time>2026-05-01T06:57:29.41Z</time></trkpt><trkpt lat="45.0618594" lon="7.5490725"><ele>307.0</ele><time>2026-05-01T06:57:30.41Z</time></trkpt><trkpt lat="45.0619004" lon="7.5489504"><ele>307.0</ele><time>2026-05-01T06:57:31.41Z</time></trkpt><trkpt lat="45.061961" lon="7.5488015"><ele>307.0</ele><time>2026-05-01T06:57:32.411Z</time></trkpt><trkpt lat="45.0620396" lon="7.5486253"><ele>307.66666666666663</ele><time>2026-05-01T06:57:33.41Z</time></trkpt><trkpt lat="45.0621369" lon="7.5484235"><ele>308.3333333333333</ele><time>2026-05-01T06:57:34.411Z</time></trkpt><trkpt lat="45.062249" lon="7.5482047"><ele>309.0</ele><time>2026-05-01T06:57:35.41Z</time></trkpt><trkpt lat="45.0623808" lon="7.5479572"><ele>310.0</ele><time>2026-05-01T06:57:36.41Z</time></trkpt><trkpt lat="45.0625285" lon="7.5476924"><ele>311.0</ele><time>2026-05-01T06:57:37.41Z</time></trkpt><trkpt lat="45.0626903" lon="7.5474224"><ele>311.0</ele><time>2026-05-01T06:57:38.41Z</time></trkpt><trkpt lat="45.0628501" lon="7.5471567"><ele>311.0</ele><time>2026-05-01T06:57:39.41Z</time></trkpt><trkpt lat="45.0630147" lon="7.5468714"><ele>312.5</ele><time>2026-05-01T06:57:40.41Z</time></trkpt><trkpt lat="45.0631736" lon="7.5465716"><ele>314.0</ele><time>2026-05-01T06:57:41.41Z</time></trkpt><trkpt lat="45.0633248" lon="7.5462565"><ele>314.5</ele><time>2026-05-01T06:57:42.41Z</time></trkpt><trkpt lat="45.0634678" lon="7.5459316"><ele>315.0</ele><time>2026-05-01T06:57:43.41Z</time></trkpt><trkpt lat="45.0636034" lon="7.5456016"><ele>315.0</ele><time>2026-05-01T06:57:44.41Z</time></trkpt><trkpt lat="45.0637257" lon="7.5452753"><ele>315.0</ele><time>2026-05-01T06:57:45.411Z</time></trkpt><trkpt lat="45.0638373" lon="7.5449597"><ele>315.0</ele><time>2026-05-01T06:57:46.41Z</time></trkpt><trkpt lat="45.0639395" lon="7.5446591"><ele>315.0</ele><time>2026-05-01T06:57:47.41Z</time></trkpt><trkpt lat="45.0640324" lon="7.5443726"><ele>315.6666666666667</ele><time>2026-05-01T06:57:48.411Z</time></trkpt><trkpt lat="45.0641184" lon="7.5440971"><ele>316.33333333333337</ele><time>2026-05-01T06:57:49.41Z</time></trkpt><trkpt lat="45.0641965" lon="7.5438323"><ele>317.0</ele><time>2026-05-01T06:57:50.41Z</time></trkpt><trkpt lat="45.0642692" lon="7.5435767"><ele>317.0</ele><time>2026-05-01T06:57:51.41Z</time></trkpt><trkpt lat="45.0643405" lon="7.5433195"><ele>317.0</ele><time>2026-05-01T06:57:52.41Z</time></trkpt><trkpt lat="45.0644148" lon="7.5430524"><ele>317.0</ele><time>2026-05-01T06:57:53.411Z</time></trkpt><trkpt lat="45.064492" lon="7.5427889"><ele>318.0</ele><time>2026-05-01T06:57:54.41Z</time></trkpt><trkpt lat="45.0645709" lon="7.542537"><ele>319.0</ele><time>2026-05-01T06:57:55.41Z</time></trkpt><trkpt lat="45.0646532" lon="7.5423002"><ele>320.0</ele><time>2026-05-01T06:57:56.41Z</time></trkpt><trkpt lat="45.0647375" lon="7.5420836"><ele>320.25</ele><time>2026-05-01T06:57:57.41Z</time></trkpt><trkpt lat="45.0648179" lon="7.5418951"><ele>320.5</ele><time>2026-05-01T06:57:58.41Z</time></trkpt><trkpt lat="45.0648945" lon="7.5417323"><ele>320.75</ele><time>2026-05-01T06:57:59.41Z</time></trkpt><trkpt lat="45.0649678" lon="7.5415925"><ele>321.0</ele><time>2026-05-01T06:58:00.41Z</time></trkpt><trkpt lat="45.0650378" lon="7.5414782"><ele>321.20000000000005</ele><time>2026-05-01T06:58:01.41Z</time></trkpt><trkpt lat="45.065109" lon="7.541379"><ele>321.40000000000003</ele><time>2026-05-01T06:58:02.41Z</time></trkpt><trkpt lat="45.065184" lon="7.5412935"><ele>321.6</ele><time>2026-05-01T06:58:03.41Z</time></trkpt><trkpt lat="45.0652448" lon="7.5411983"><ele>321.8</ele><time>2026-05-01T06:58:04.41Z</time></trkpt><trkpt lat="45.0652845" lon="7.5410829"><ele>322.0</ele><time>2026-05-01T06:58:05.41Z</time></trkpt><trkpt lat="45.0653034" lon="7.5409478"><ele>322.25</ele><time>2026-05-01T06:58:06.411Z</time></trkpt><trkpt lat="45.0653148" lon="7.5407856"><ele>322.5</ele><time>2026-05-01T06:58:07.41Z</time></trkpt><trkpt lat="45.065348" lon="7.5406188"><ele>322.75</ele><time>2026-05-01T06:58:08.411Z</time></trkpt><trkpt lat="45.065404" lon="7.5404418"><ele>323.0</ele><time>2026-05-01T06:58:09.41Z</time></trkpt><trkpt lat="45.0654798" lon="7.5402592"><ele>323.6666666666667</ele><time>2026-05-01T06:58:10.41Z</time></trkpt><trkpt lat="45.0655589" lon="7.5400753"><ele>324.3333333333333</ele><time>2026-05-01T06:58:11.41Z</time></trkpt><trkpt lat="45.0656347" lon="7.539889"><ele>325.0</ele><time>2026-05-01T06:58:12.41Z</time></trkpt><trkpt lat="45.0657166" lon="7.5396815"><ele>325.66666666666663</ele><time>2026-05-01T06:58:13.41Z</time></trkpt><trkpt lat="45.0657955" lon="7.5394577"><ele>326.3333333333333</ele><time>2026-05-01T06:58:14.411Z</time></trkpt><trkpt lat="45.0658718" lon="7.5392145"><ele>327.0</ele><time>2026-05-01T06:58:15.41Z</time></trkpt><trkpt lat="45.0659511" lon="7.5389587"><ele>326.3333333333333</ele><time>2026-05-01T06:58:16.41Z</time></trkpt><trkpt lat="45.0660324" lon="7.5387035"><ele>325.66666666666663</ele><time>2026-05-01T06:58:17.41Z</time></trkpt><trkpt lat="45.0661113" lon="7.5384609"><ele>325.0</ele><time>2026-05-01T06:58:18.41Z</time></trkpt><trkpt lat="45.0661808" lon="7.5382329"><ele>325.0</ele><time>2026-05-01T06:58:19.41Z</time></trkpt><trkpt lat="45.0662378" lon="7.5380184"><ele>325.0</ele><time>2026-05-01T06:58:20.41Z</time></trkpt><trkpt lat="45.0662849" lon="7.5378271"><ele>325.0</ele><time>2026-05-01T06:58:21.41Z</time></trkpt><trkpt lat="45.0663253" lon="7.537667"><ele>325.0</ele><time>2026-05-01T06:58:22.41Z</time></trkpt><trkpt lat="45.0663706" lon="7.5375424"><ele>325.4</ele><time>2026-05-01T06:58:23.41Z</time></trkpt><trkpt lat="45.0664202" lon="7.5374494"><ele>325.8</ele><time>2026-05-01T06:58:24.41Z</time></trkpt><trkpt lat="45.066519" lon="7.5373675"><ele>326.20000000000005</ele><time>2026-05-01T06:58:26.41Z</time></trkpt><trkpt lat="45.0666428" lon="7.5373791"><ele>326.6</ele><time>2026-05-01T06:58:28.411Z</time></trkpt><trkpt lat="45.0667184" lon="7.5373847"><ele>327.0</ele><time>2026-05-01T06:58:29.411Z</time></trkpt><trkpt lat="45.0667951" lon="7.5373453"><ele>327.40000000000003</ele><time>2026-05-01T06:58:30.411Z</time></trkpt><trkpt lat="45.0668567" lon="7.5372769"><ele>327.8</ele><time>2026-05-01T06:58:31.41Z</time></trkpt><trkpt lat="45.066909" lon="7.5371812"><ele>328.2</ele><time>2026-05-01T06:58:32.41Z</time></trkpt><trkpt lat="45.0669755" lon="7.5370692"><ele>328.6</ele><time>2026-05-01T06:58:33.411Z</time></trkpt><trkpt lat="45.0670589" lon="7.5369518"><ele>329.0</ele><time>2026-05-01T06:58:34.41Z</time></trkpt><trkpt lat="45.0671277" lon="7.5368076"><ele>329.0</ele><time>2026-05-01T06:58:35.411Z</time></trkpt><trkpt lat="45.0671839" lon="7.5366515"><ele>329.0</ele><time>2026-05-01T06:58:36.41Z</time></trkpt><trkpt lat="45.067245" lon="7.5365001"><ele>329.0</ele><time>2026-05-01T06:58:37.41Z</time></trkpt><trkpt lat="45.0673081" lon="7.5363562"><ele>329.0</ele><time>2026-05-01T06:58:38.41Z</time></trkpt><trkpt lat="45.0673698" lon="7.5362116"><ele>329.5</ele><time>2026-05-01T06:58:39.411Z</time></trkpt><trkpt lat="45.0674301" lon="7.536051"><ele>330.0</ele><time>2026-05-01T06:58:40.41Z</time></trkpt><trkpt lat="45.0675032" lon="7.5358668"><ele>330.5</ele><time>2026-05-01T06:58:41.41Z</time></trkpt><trkpt lat="45.0675975" lon="7.5356656"><ele>331.0</ele><time>2026-05-01T06:58:42.411Z</time></trkpt><trkpt lat="45.0677055" lon="7.5354559"><ele>332.0</ele><time>2026-05-01T06:58:43.411Z</time></trkpt><trkpt lat="45.0678115" lon="7.5352453"><ele>333.0</ele><time>2026-05-01T06:58:44.41Z</time></trkpt><trkpt lat="45.0679059" lon="7.5350402"><ele>334.0</ele><time>2026-05-01T06:58:45.41Z</time></trkpt><trkpt lat="45.0679954" lon="7.5348482"><ele>334.0</ele><time>2026-05-01T06:58:46.41Z</time></trkpt><trkpt lat="45.0680782" lon="7.534666"><ele>334.0</ele><time>2026-05-01T06:58:47.41Z</time></trkpt><trkpt lat="45.0681561" lon="7.5345008"><ele>334.0</ele><time>2026-05-01T06:58:48.41Z</time></trkpt><trkpt lat="45.068225" lon="7.534354"><ele>334.0</ele><time>2026-05-01T06:58:49.41Z</time></trkpt><trkpt lat="45.0682812" lon="7.5342305"><ele>334.3333333333333</ele><time>2026-05-01T06:58:50.41Z</time></trkpt><trkpt lat="45.0683327" lon="7.5341234"><ele>334.66666666666663</ele><time>2026-05-01T06:58:51.412Z</time></trkpt><trkpt lat="45.0683871" lon="7.5340287"><ele>335.0</ele><time>2026-05-01T06:58:52.41Z</time></trkpt><trkpt lat="45.0684511" lon="7.5339596"><ele>335.3333333333333</ele><time>2026-05-01T06:58:53.41Z</time></trkpt><trkpt lat="45.0685213" lon="7.5339043"><ele>335.6666666666667</ele><time>2026-05-01T06:58:54.41Z</time></trkpt><trkpt lat="45.0685736" lon="7.5338251"><ele>336.0</ele><time>2026-05-01T06:58:55.41Z</time></trkpt><trkpt lat="45.0686058" lon="7.5337299"><ele>336.8</ele><time>2026-05-01T06:58:56.411Z</time></trkpt><trkpt lat="45.0686231" lon="7.5336137"><ele>337.6</ele><time>2026-05-01T06:58:57.41Z</time></trkpt><trkpt lat="45.0686477" lon="7.5334748"><ele>338.4</ele><time>2026-05-01T06:58:58.41Z</time></trkpt><trkpt lat="45.0687009" lon="7.5333235"><ele>339.2</ele><time>2026-05-01T06:58:59.41Z</time></trkpt><trkpt lat="45.0687751" lon="7.5331551"><ele>340.0</ele><time>2026-05-01T06:59:00.41Z</time></trkpt><trkpt lat="45.0688672" lon="7.5329634"><ele>341.0</ele><time>2026-05-01T06:59:01.41Z</time></trkpt><trkpt lat="45.0689693" lon="7.5327504"><ele>342.0</ele><time>2026-05-01T06:59:02.41Z</time></trkpt><trkpt lat="45.0690782" lon="7.5325189"><ele>343.0</ele><time>2026-05-01T06:59:03.41Z</time></trkpt><trkpt lat="45.0691889" lon="7.5322779"><ele>344.66666666666663</ele><time>2026-05-01T06:59:04.411Z</time></trkpt><trkpt lat="45.0693007" lon="7.532033"><ele>346.3333333333333</ele><time>2026-05-01T06:59:05.41Z</time></trkpt><trkpt lat="45.069409" lon="7.5317985"><ele>348.0</ele><time>2026-05-01T06:59:06.41Z</time></trkpt><trkpt lat="45.0695117" lon="7.5315747"><ele>348.0</ele><time>2026-05-01T06:59:07.411Z</time></trkpt><trkpt lat="45.0696141" lon="7.5313548"><ele>348.0</ele><time>2026-05-01T06:59:08.41Z</time></trkpt><trkpt lat="45.0697139" lon="7.5311364"><ele>348.0</ele><time>2026-05-01T06:59:09.41Z</time></trkpt><trkpt lat="45.0698079" lon="7.5309188"><ele>348.6666666666667</ele><time>2026-05-01T06:59:10.41Z</time></trkpt><trkpt lat="45.0698966" lon="7.5306908"><ele>349.33333333333337</ele><time>2026-05-01T06:59:11.41Z</time></trkpt><trkpt lat="45.0699788" lon="7.5304666"><ele>350.0</ele><time>2026-05-01T06:59:12.41Z</time></trkpt><trkpt lat="45.0700576" lon="7.5302541"><ele>351.0</ele><time>2026-05-01T06:59:13.41Z</time></trkpt><trkpt lat="45.07013" lon="7.5300559"><ele>352.0</ele><time>2026-05-01T06:59:14.41Z</time></trkpt><trkpt lat="45.0701976" lon="7.5298683"><ele>353.0</ele><time>2026-05-01T06:59:15.41Z</time></trkpt><trkpt lat="45.0702542" lon="7.5296931"><ele>354.0</ele><time>2026-05-01T06:59:16.41Z</time></trkpt><trkpt lat="45.0703006" lon="7.529535"><ele>354.0</ele><time>2026-05-01T06:59:17.41Z</time></trkpt><trkpt lat="45.0703416" lon="7.5294063"><ele>354.0</ele><time>2026-05-01T06:59:18.41Z</time></trkpt><trkpt lat="45.0703696" lon="7.5293124"><ele>354.0</ele><time>2026-05-01T06:59:19.41Z</time></trkpt><trkpt lat="45.0704033" lon="7.529178"><ele>354.0</ele><time>2026-05-01T06:59:21.411Z</time></trkpt><trkpt lat="45.0704366" lon="7.5290772"><ele>354.0</ele><time>2026-05-01T06:59:23.41Z</time></trkpt><trkpt lat="45.0704706" lon="7.5289929"><ele>354.0</ele><time>2026-05-01T06:59:25.41Z</time></trkpt><trkpt lat="45.070521" lon="7.5289265"><ele>354.0</ele><time>2026-05-01T06:59:58.41Z</time></trkpt><trkpt lat="45.0705729" lon="7.5288719"><ele>354.0</ele><time>2026-05-01T06:59:59.411Z</time></trkpt><trkpt lat="45.0706992" lon="7.5288399"><ele>354.0</ele><time>2026-05-01T07:00:01.41Z</time></trkpt><trkpt lat="45.070778" lon="7.5288508"><ele>354.0</ele><time>2026-05-01T07:00:02.41Z</time></trkpt><trkpt lat="45.0708737" lon="7.5288807"><ele>354.0</ele><time>2026-05-01T07:00:03.41Z</time></trkpt><trkpt lat="45.0709821" lon="7.5289368"><ele>352.6666666666667</ele><time>2026-05-01T07:00:04.411Z</time></trkpt><trkpt lat="45.0711055" lon="7.5290247"><ele>351.33333333333337</ele><time>2026-05-01T07:00:05.41Z</time></trkpt><trkpt lat="45.0712487" lon="7.5291469"><ele>350.0</ele><time>2026-05-01T07:00:06.41Z</time></trkpt><trkpt lat="45.0713948" lon="7.5292773"><ele>350.0</ele><time>2026-05-01T07:00:07.411Z</time></trkpt><trkpt lat="45.0715417" lon="7.5294144"><ele>350.0</ele><time>2026-05-01T07:00:08.41Z</time></trkpt><trkpt lat="45.0716992" lon="7.5295601"><ele>350.0</ele><time>2026-05-01T07:00:09.411Z</time></trkpt><trkpt lat="45.0718629" lon="7.5297077"><ele>349.0</ele><time>2026-05-01T07:00:10.411Z</time></trkpt><trkpt lat="45.0720245" lon="7.5298544"><ele>348.0</ele><time>2026-05-01T07:00:11.41Z</time></trkpt><trkpt lat="45.0721748" lon="7.5299931"><ele>347.0</ele><time>2026-05-01T07:00:12.41Z</time></trkpt><trkpt lat="45.0723132" lon="7.5301208"><ele>347.0</ele><time>2026-05-01T07:00:13.41Z</time></trkpt><trkpt lat="45.0724429" lon="7.5302264"><ele>347.0</ele><time>2026-05-01T07:00:14.411Z</time></trkpt><trkpt lat="45.0725639" lon="7.5303039"><ele>347.0</ele><time>2026-05-01T07:00:15.41Z</time></trkpt><trkpt lat="45.0726852" lon="7.5303472"><ele>347.0</ele><time>2026-05-01T07:00:16.411Z</time></trkpt><trkpt lat="45.0728014" lon="7.5303534"><ele>347.0</ele><time>2026-05-01T07:00:17.41Z</time></trkpt><trkpt lat="45.0729124" lon="7.5303205"><ele>347.0</ele><time>2026-05-01T07:00:18.41Z</time></trkpt><trkpt lat="45.0730201" lon="7.5302541"><ele>347.0</ele><time>2026-05-01T07:00:19.41Z</time></trkpt><trkpt lat="45.0731219" lon="7.53014"><ele>347.0</ele><time>2026-05-01T07:00:20.41Z</time></trkpt><trkpt lat="45.0732143" lon="7.5299864"><ele>347.0</ele><time>2026-05-01T07:00:21.41Z</time></trkpt><trkpt lat="45.0733057" lon="7.529797"><ele>347.0</ele><time>2026-05-01T07:00:22.41Z</time></trkpt><trkpt lat="45.0733973" lon="7.5295953"><ele>347.0</ele><time>2026-05-01T07:00:23.41Z</time></trkpt><trkpt lat="45.0734764" lon="7.5294236"><ele>347.0</ele><time>2026-05-01T07:00:24.41Z</time></trkpt><trkpt lat="45.0735446" lon="7.5292747"><ele>347.0</ele><time>2026-05-01T07:00:25.41Z</time></trkpt><trkpt lat="45.0736079" lon="7.5291372"><ele>347.0</ele><time>2026-05-01T07:00:26.41Z</time></trkpt><trkpt lat="45.0736657" lon="7.5290054"><ele>347.0</ele><time>2026-05-01T07:00:27.41Z</time></trkpt><trkpt lat="45.0737228" lon="7.5288781"><ele>347.0</ele><time>2026-05-01T07:00:28.411Z</time></trkpt><trkpt lat="45.0737799" lon="7.5287551"><ele>347.0</ele><time>2026-05-01T07:00:29.41Z</time></trkpt><trkpt lat="45.073835" lon="7.5286383"><ele>347.0</ele><time>2026-05-01T07:00:30.41Z</time></trkpt><trkpt lat="45.0738864" lon="7.5285177"><ele>347.0</ele><time>2026-05-01T07:00:31.411Z</time></trkpt><trkpt lat="45.0739335" lon="7.5284047"><ele>347.0</ele><time>2026-05-01T07:00:32.41Z</time></trkpt><trkpt lat="45.0739765" lon="7.5283013"><ele>347.0</ele><time>2026-05-01T07:00:33.41Z</time></trkpt><trkpt lat="45.0740123" lon="7.5282094"><ele>347.0</ele><time>2026-05-01T07:00:34.41Z</time></trkpt><trkpt lat="45.0740444" lon="7.5281205"><ele>347.0</ele><time>2026-05-01T07:00:35.41Z</time></trkpt><trkpt lat="45.0740993" lon="7.5279667"><ele>347.0</ele><time>2026-05-01T07:00:37.41Z</time></trkpt><trkpt lat="45.0741466" lon="7.527846"><ele>347.0</ele><time>2026-05-01T07:00:39.41Z</time></trkpt><trkpt lat="45.0741832" lon="7.5277553"><ele>347.0</ele><time>2026-05-01T07:00:41.41Z</time></trkpt><trkpt lat="45.0742278" lon="7.5276429"><ele>347.1666666666667</ele><time>2026-05-01T07:00:44.41Z</time></trkpt><trkpt lat="45.0742611" lon="7.5275503"><ele>347.33333333333337</ele><time>2026-05-01T07:00:47.41Z</time></trkpt><trkpt lat="45.0743001" lon="7.5274679"><ele>347.5</ele><time>2026-05-01T07:00:55.41Z</time></trkpt><trkpt lat="45.0743583" lon="7.5273449"><ele>347.6666666666667</ele><time>2026-05-01T07:00:57.41Z</time></trkpt><trkpt lat="45.0743997" lon="7.5272458"><ele>347.8333333333333</ele><time>2026-05-01T07:00:58.41Z</time></trkpt><trkpt lat="45.0744434" lon="7.5271356"><ele>348.0</ele><time>2026-05-01T07:00:59.41Z</time></trkpt><trkpt lat="45.074483" lon="7.5270256"><ele>348.0</ele><time>2026-05-01T07:01:00.41Z</time></trkpt><trkpt lat="45.0745215" lon="7.526916"><ele>348.0</ele><time>2026-05-01T07:01:01.41Z</time></trkpt><trkpt lat="45.074561" lon="7.5268192"><ele>348.0</ele><time>2026-05-01T07:01:02.41Z</time></trkpt><trkpt lat="45.0746027" lon="7.5267371"><ele>348.0</ele><time>2026-05-01T07:01:03.41Z</time></trkpt><trkpt lat="45.0746805" lon="7.5266513"><ele>348.0</ele><time>2026-05-01T07:01:05.41Z</time></trkpt><trkpt lat="45.0747561" lon="7.526618"><ele>348.0</ele><time>2026-05-01T07:01:07.41Z</time></trkpt><trkpt lat="45.0748453" lon="7.5265625"><ele>348.0</ele><time>2026-05-01T07:01:09.41Z</time></trkpt><trkpt lat="45.0748757" lon="7.5264161"><ele>348.0</ele><time>2026-05-01T07:01:11.411Z</time></trkpt><trkpt lat="45.0748596" lon="7.5263188"><ele>348.0</ele><time>2026-05-01T07:01:12.411Z</time></trkpt><trkpt lat="45.0748381" lon="7.5261969"><ele>348.0</ele><time>2026-05-01T07:01:13.41Z</time></trkpt><trkpt lat="45.0748379" lon="7.5260492"><ele>348.0</ele><time>2026-05-01T07:01:14.411Z</time></trkpt><trkpt lat="45.0748512" lon="7.5258702"><ele>348.0</ele><time>2026-05-01T07:01:15.41Z</time></trkpt><trkpt lat="45.0748675" lon="7.525661"><ele>348.0</ele><time>2026-05-01T07:01:16.41Z</time></trkpt><trkpt lat="45.0748798" lon="7.5254321"><ele>348.0</ele><time>2026-05-01T07:01:17.41Z</time></trkpt><trkpt lat="45.0748926" lon="7.5251973"><ele>347.6666666666667</ele><time>2026-05-01T07:01:18.41Z</time></trkpt><trkpt lat="45.074905" lon="7.5249713"><ele>347.33333333333337</ele><time>2026-05-01T07:01:19.411Z</time></trkpt><trkpt lat="45.0749176" lon="7.5247574"><ele>347.0</ele><time>2026-05-01T07:01:20.411Z</time></trkpt><trkpt lat="45.0749305" lon="7.5245438"><ele>348.0</ele><time>2026-05-01T07:01:21.41Z</time></trkpt><trkpt lat="45.0749523" lon="7.5243255"><ele>349.0</ele><time>2026-05-01T07:01:22.411Z</time></trkpt><trkpt lat="45.0749834" lon="7.5240982"><ele>350.0</ele><time>2026-05-01T07:01:23.411Z</time></trkpt><trkpt lat="45.0750225" lon="7.5238747"><ele>350.0</ele><time>2026-05-01T07:01:24.41Z</time></trkpt><trkpt lat="45.0750617" lon="7.5236654"><ele>350.0</ele><time>2026-05-01T07:01:25.412Z</time></trkpt><trkpt lat="45.0750966" lon="7.5234641"><ele>350.0</ele><time>2026-05-01T07:01:26.411Z</time></trkpt><trkpt lat="45.0751281" lon="7.5232673"><ele>350.0</ele><time>2026-05-01T07:01:27.41Z</time></trkpt><trkpt lat="45.075158" lon="7.5230741"><ele>349.75</ele><time>2026-05-01T07:01:28.41Z</time></trkpt><trkpt lat="45.075187" lon="7.5228923"><ele>349.5</ele><time>2026-05-01T07:01:29.41Z</time></trkpt><trkpt lat="45.075214" lon="7.5227187"><ele>349.25</ele><time>2026-05-01T07:01:30.41Z</time></trkpt><trkpt lat="45.0752408" lon="7.522545"><ele>349.0</ele><time>2026-05-01T07:01:31.41Z</time></trkpt><trkpt lat="45.0752701" lon="7.522354"><ele>349.0</ele><time>2026-05-01T07:01:32.411Z</time></trkpt><trkpt lat="45.0753029" lon="7.5221476"><ele>349.0</ele><time>2026-05-01T07:01:33.411Z</time></trkpt><trkpt lat="45.0753397" lon="7.5219277"><ele>349.0</ele><time>2026-05-01T07:01:34.41Z</time></trkpt><trkpt lat="45.0753759" lon="7.5216962"><ele>349.66666666666663</ele><time>2026-05-01T07:01:35.41Z</time></trkpt><trkpt lat="45.075411" lon="7.5214577"><ele>350.3333333333333</ele><time>2026-05-01T07:01:36.41Z</time></trkpt><trkpt lat="45.0754473" lon="7.5212261"><ele>351.0</ele><time>2026-05-01T07:01:37.41Z</time></trkpt><trkpt lat="45.0754843" lon="7.521006"><ele>351.5</ele><time>2026-05-01T07:01:38.41Z</time></trkpt><trkpt lat="45.0755195" lon="7.5208038"><ele>352.0</ele><time>2026-05-01T07:01:39.41Z</time></trkpt><trkpt lat="45.0755513" lon="7.520626"><ele>352.5</ele><time>2026-05-01T07:01:40.41Z</time></trkpt><trkpt lat="45.075574" lon="7.5204889"><ele>353.0</ele><time>2026-05-01T07:01:41.41Z</time></trkpt><trkpt lat="45.0755923" lon="7.5203629"><ele>353.0</ele><time>2026-05-01T07:01:42.41Z</time></trkpt><trkpt lat="45.0756066" lon="7.5202522"><ele>353.0</ele><time>2026-05-01T07:01:43.41Z</time></trkpt><trkpt lat="45.0756378" lon="7.5201011"><ele>353.0</ele><time>2026-05-01T07:01:45.411Z</time></trkpt><trkpt lat="45.0756895" lon="7.5200485"><ele>353.0</ele><time>2026-05-01T07:01:47.41Z</time></trkpt><trkpt lat="45.0757699" lon="7.5200705"><ele>353.0</ele><time>2026-05-01T07:01:50.411Z</time></trkpt><trkpt lat="45.0758286" lon="7.5200034"><ele>353.0</ele><time>2026-05-01T07:02:01.41Z</time></trkpt><trkpt lat="45.0758689" lon="7.5198732"><ele>352.79999999999995</ele><time>2026-05-01T07:02:03.41Z</time></trkpt><trkpt lat="45.0758837" lon="7.5197486"><ele>352.6</ele><time>2026-05-01T07:02:05.41Z</time></trkpt><trkpt lat="45.0758618" lon="7.5195997"><ele>352.4</ele><time>2026-05-01T07:02:07.41Z</time></trkpt><trkpt lat="45.0758796" lon="7.5195135"><ele>352.20000000000005</ele><time>2026-05-01T07:02:08.411Z</time></trkpt><trkpt lat="45.0759223" lon="7.5194148"><ele>352.0</ele><time>2026-05-01T07:02:09.41Z</time></trkpt><trkpt lat="45.0759894" lon="7.5192914"><ele>352.0</ele><time>2026-05-01T07:02:10.41Z</time></trkpt><trkpt lat="45.0760615" lon="7.5191376"><ele>352.0</ele><time>2026-05-01T07:02:11.41Z</time></trkpt><trkpt lat="45.07613" lon="7.5189743"><ele>352.0</ele><time>2026-05-01T07:02:12.41Z</time></trkpt><trkpt lat="45.076199" lon="7.5188022"><ele>352.0</ele><time>2026-05-01T07:02:13.41Z</time></trkpt><trkpt lat="45.0762711" lon="7.5186227"><ele>352.25</ele><time>2026-05-01T07:02:14.41Z</time></trkpt><trkpt lat="45.0763399" lon="7.5184413"><ele>352.5</ele><time>2026-05-01T07:02:15.41Z</time></trkpt><trkpt lat="45.0764054" lon="7.5182663"><ele>352.75</ele><time>2026-05-01T07:02:16.41Z</time></trkpt><trkpt lat="45.0764719" lon="7.5180944"><ele>353.0</ele><time>2026-05-01T07:02:17.41Z</time></trkpt><trkpt lat="45.0765418" lon="7.5179145"><ele>353.5</ele><time>2026-05-01T07:02:18.41Z</time></trkpt><trkpt lat="45.0766123" lon="7.5177319"><ele>354.0</ele><time>2026-05-01T07:02:19.411Z</time></trkpt><trkpt lat="45.0766821" lon="7.5175466"><ele>354.5</ele><time>2026-05-01T07:02:20.411Z</time></trkpt><trkpt lat="45.076751" lon="7.5173621"><ele>355.0</ele><time>2026-05-01T07:02:21.41Z</time></trkpt><trkpt lat="45.0768187" lon="7.5171802"><ele>355.0</ele><time>2026-05-01T07:02:22.41Z</time></trkpt><trkpt lat="45.0768854" lon="7.5169989"><ele>355.0</ele><time>2026-05-01T07:02:23.411Z</time></trkpt><trkpt lat="45.076951" lon="7.5168198"><ele>355.0</ele><time>2026-05-01T07:02:24.41Z</time></trkpt><trkpt lat="45.0770171" lon="7.5166445"><ele>355.0</ele><time>2026-05-01T07:02:25.41Z</time></trkpt><trkpt lat="45.0770836" lon="7.5164719"><ele>355.0</ele><time>2026-05-01T07:02:26.41Z</time></trkpt><trkpt lat="45.0771463" lon="7.5163061"><ele>355.0</ele><time>2026-05-01T07:02:27.41Z</time></trkpt><trkpt lat="45.077206" lon="7.5161538"><ele>355.0</ele><time>2026-05-01T07:02:28.411Z</time></trkpt><trkpt lat="45.0772567" lon="7.5160209"><ele>355.0</ele><time>2026-05-01T07:02:29.41Z</time></trkpt><trkpt lat="45.0772965" lon="7.5159174"><ele>355.0</ele><time>2026-05-01T07:02:30.41Z</time></trkpt><trkpt lat="45.0773572" lon="7.5157972"><ele>354.6</ele><time>2026-05-01T07:02:32.411Z</time></trkpt><trkpt lat="45.0774496" lon="7.5157479"><ele>354.2</ele><time>2026-05-01T07:02:34.41Z</time></trkpt><trkpt lat="45.0775478" lon="7.5156681"><ele>353.79999999999995</ele><time>2026-05-01T07:02:36.411Z</time></trkpt><trkpt lat="45.0775962" lon="7.5155066"><ele>353.4</ele><time>2026-05-01T07:02:38.41Z</time></trkpt><trkpt lat="45.0776034" lon="7.5154019"><ele>353.0</ele><time>2026-05-01T07:02:39.41Z</time></trkpt><trkpt lat="45.0776159" lon="7.5152822"><ele>352.79999999999995</ele><time>2026-05-01T07:02:40.41Z</time></trkpt><trkpt lat="45.0776416" lon="7.5151548"><ele>352.6</ele><time>2026-05-01T07:02:41.411Z</time></trkpt><trkpt lat="45.0776743" lon="7.515023"><ele>352.4</ele><time>2026-05-01T07:02:42.41Z</time></trkpt><trkpt lat="45.0777137" lon="7.5148957"><ele>352.20000000000005</ele><time>2026-05-01T07:02:43.411Z</time></trkpt><trkpt lat="45.0777537" lon="7.5147719"><ele>352.0</ele><time>2026-05-01T07:02:44.41Z</time></trkpt><trkpt lat="45.0777946" lon="7.5146563"><ele>352.16666666666663</ele><time>2026-05-01T07:02:45.41Z</time></trkpt><trkpt lat="45.0778379" lon="7.5145506"><ele>352.3333333333333</ele><time>2026-05-01T07:02:46.41Z</time></trkpt><trkpt lat="45.0778902" lon="7.5144655"><ele>352.5</ele><time>2026-05-01T07:02:47.41Z</time></trkpt><trkpt lat="45.0779561" lon="7.5144067"><ele>352.6666666666667</ele><time>2026-05-01T07:02:48.41Z</time></trkpt><trkpt lat="45.0780173" lon="7.514358"><ele>352.83333333333337</ele><time>2026-05-01T07:02:49.41Z</time></trkpt><trkpt lat="45.0780624" lon="7.5142112"><ele>353.0</ele><time>2026-05-01T07:02:51.41Z</time></trkpt><trkpt lat="45.0780584" lon="7.5140513"><ele>353.0</ele><time>2026-05-01T07:02:53.41Z</time></trkpt><trkpt lat="45.0780844" lon="7.5139028"><ele>353.0</ele><time>2026-05-01T07:02:55.411Z</time></trkpt><trkpt lat="45.0780998" lon="7.5137967"><ele>353.0</ele><time>2026-05-01T07:02:58.411Z</time></trkpt><trkpt lat="45.0780288" lon="7.5137267"><ele>353.0</ele><time>2026-05-01T07:03:02.41Z</time></trkpt><trkpt lat="45.0780355" lon="7.5138164"><ele>353.0</ele><time>2026-05-01T07:11:45.411Z</time></trkpt><trkpt lat="45.0780984" lon="7.5138001"><ele>353.0</ele><time>2026-05-01T07:11:48.411Z</time></trkpt><trkpt lat="45.078132" lon="7.5137178"><ele>353.0</ele><time>2026-05-01T07:11:50.411Z</time></trkpt><trkpt lat="45.0781828" lon="7.5136452"><ele>353.0</ele><time>2026-05-01T07:11:52.411Z</time></trkpt><trkpt lat="45.0782538" lon="7.513582"><ele>353.0</ele><time>2026-05-01T07:11:55.411Z</time></trkpt><trkpt lat="45.0782982" lon="7.5135167"><ele>353.0</ele><time>2026-05-01T07:12:19.411Z</time></trkpt><trkpt lat="45.0783251" lon="7.5134015"><ele>353.0</ele><time>2026-05-01T07:12:25.411Z</time></trkpt><trkpt lat="45.0783638" lon="7.513313"><ele>353.0</ele><time>2026-05-01T07:12:27.411Z</time></trkpt><trkpt lat="45.0783932" lon="7.5132119"><ele>353.0</ele><time>2026-05-01T07:12:29.411Z</time></trkpt><trkpt lat="45.0784237" lon="7.5131233"><ele>353.0</ele><time>2026-05-01T07:12:31.412Z</time></trkpt><trkpt lat="45.0784704" lon="7.5130049"><ele>353.0</ele><time>2026-05-01T07:12:33.411Z</time></trkpt><trkpt lat="45.0785123" lon="7.5128645"><ele>353.0</ele><time>2026-05-01T07:12:35.411Z</time></trkpt><trkpt lat="45.0785379" lon="7.512778"><ele>353.0</ele><time>2026-05-01T07:12:37.411Z</time></trkpt><trkpt lat="45.0785539" lon="7.5126853"><ele>353.0</ele><time>2026-05-01T07:12:40.411Z</time></trkpt><trkpt lat="45.0785883" lon="7.5125589"><ele>353.0</ele><time>2026-05-01T07:12:43.411Z</time></trkpt><trkpt lat="45.078648" lon="7.5124231"><ele>353.0</ele><time>2026-05-01T07:12:45.411Z</time></trkpt><trkpt lat="45.0786884" lon="7.5123535"><ele>353.0</ele><time>2026-05-01T07:12:46.412Z</time></trkpt><trkpt lat="45.0787398" lon="7.5122104"><ele>353.0</ele><time>2026-05-01T07:12:48.411Z</time></trkpt><trkpt lat="45.078762" lon="7.5120539"><ele>353.0</ele><time>2026-05-01T07:12:50.411Z</time></trkpt><trkpt lat="45.0787942" lon="7.5119622"><ele>353.0</ele><time>2026-05-01T07:12:51.411Z</time></trkpt><trkpt lat="45.0788301" lon="7.5118593"><ele>353.0</ele><time>2026-05-01T07:12:52.411Z</time></trkpt><trkpt lat="45.0788665" lon="7.5117566"><ele>353.0</ele><time>2026-05-01T07:12:53.411Z</time></trkpt><trkpt lat="45.0789055" lon="7.5116485"><ele>353.0</ele><time>2026-05-01T07:12:54.411Z</time></trkpt><trkpt lat="45.078951" lon="7.5115297"><ele>353.0</ele><time>2026-05-01T07:12:55.411Z</time></trkpt><trkpt lat="45.0789952" lon="7.5114139"><ele>353.0</ele><time>2026-05-01T07:12:56.412Z</time></trkpt><trkpt lat="45.079036" lon="7.5113036"><ele>353.0</ele><time>2026-05-01T07:12:57.411Z</time></trkpt><trkpt lat="45.0790762" lon="7.511198"><ele>353.0</ele><time>2026-05-01T07:12:58.412Z</time></trkpt><trkpt lat="45.0791182" lon="7.5110887"><ele>353.0</ele><time>2026-05-01T07:12:59.411Z</time></trkpt><trkpt lat="45.0791592" lon="7.5109763"><ele>353.0</ele><time>2026-05-01T07:13:00.411Z</time></trkpt><trkpt lat="45.0792012" lon="7.5108665"><ele>353.0</ele><time>2026-05-01T07:13:01.411Z</time></trkpt><trkpt lat="45.0792421" lon="7.5107605"><ele>353.0</ele><time>2026-05-01T07:13:02.411Z</time></trkpt><trkpt lat="45.0792819" lon="7.5106561"><ele>353.0</ele><time>2026-05-01T07:13:03.411Z</time></trkpt><trkpt lat="45.0793205" lon="7.5105536"><ele>353.0</ele><time>2026-05-01T07:13:04.411Z</time></trkpt><trkpt lat="45.0793591" lon="7.510447"><ele>353.0</ele><time>2026-05-01T07:13:05.412Z</time></trkpt><trkpt lat="45.0794015" lon="7.5103367"><ele>353.0</ele><time>2026-05-01T07:13:06.411Z</time></trkpt><trkpt lat="45.0794437" lon="7.5102263"><ele>353.0</ele><time>2026-05-01T07:13:07.411Z</time></trkpt><trkpt lat="45.0794849" lon="7.5101141"><ele>353.0</ele><time>2026-05-01T07:13:08.411Z</time></trkpt><trkpt lat="45.0795295" lon="7.5099991"><ele>353.2</ele><time>2026-05-01T07:13:09.411Z</time></trkpt><trkpt lat="45.0795741" lon="7.5098768"><ele>353.4</ele><time>2026-05-01T07:13:10.411Z</time></trkpt><trkpt lat="45.0796228" lon="7.5097526"><ele>353.59999999999997</ele><time>2026-05-01T07:13:11.411Z</time></trkpt><trkpt lat="45.0796699" lon="7.5096299"><ele>353.79999999999995</ele><time>2026-05-01T07:13:12.412Z</time></trkpt><trkpt lat="45.0797154" lon="7.5095049"><ele>354.0</ele><time>2026-05-01T07:13:13.412Z</time></trkpt><trkpt lat="45.0797627" lon="7.5093761"><ele>354.2</ele><time>2026-05-01T07:13:14.411Z</time></trkpt><trkpt lat="45.0798092" lon="7.5092488"><ele>354.4</ele><time>2026-05-01T07:13:15.412Z</time></trkpt><trkpt lat="45.0798551" lon="7.5091268"><ele>354.6</ele><time>2026-05-01T07:13:16.411Z</time></trkpt><trkpt lat="45.0798975" lon="7.5090132"><ele>354.8</ele><time>2026-05-01T07:13:17.411Z</time></trkpt><trkpt lat="45.0799374" lon="7.5089021"><ele>355.0</ele><time>2026-05-01T07:13:18.412Z</time></trkpt><trkpt lat="45.0799777" lon="7.5087908"><ele>355.16666666666663</ele><time>2026-05-01T07:13:19.411Z</time></trkpt><trkpt lat="45.0800194" lon="7.5086838"><ele>355.3333333333333</ele><time>2026-05-01T07:13:20.411Z</time></trkpt><trkpt lat="45.0800585" lon="7.50858"><ele>355.5</ele><time>2026-05-01T07:13:21.411Z</time></trkpt><trkpt lat="45.0800894" lon="7.5085014"><ele>355.6666666666667</ele><time>2026-05-01T07:13:22.411Z</time></trkpt><trkpt lat="45.0801623" lon="7.5083467"><ele>355.83333333333337</ele><time>2026-05-01T07:13:24.412Z</time></trkpt><trkpt lat="45.0802056" lon="7.5082569"><ele>356.0</ele><time>2026-05-01T07:13:25.411Z</time></trkpt><trkpt lat="45.0802406" lon="7.5081408"><ele>356.0</ele><time>2026-05-01T07:13:26.411Z</time></trkpt><trkpt lat="45.0802788" lon="7.5080079"><ele>356.0</ele><time>2026-05-01T07:13:27.411Z</time></trkpt><trkpt lat="45.0803287" lon="7.5078791"><ele>356.0</ele><time>2026-05-01T07:13:28.411Z</time></trkpt><trkpt lat="45.0803782" lon="7.5077532"><ele>356.0</ele><time>2026-05-01T07:13:29.411Z</time></trkpt><trkpt lat="45.080428" lon="7.5076261"><ele>356.0</ele><time>2026-05-01T07:13:30.411Z</time></trkpt><trkpt lat="45.080479" lon="7.5074959"><ele>356.0</ele><time>2026-05-01T07:13:31.411Z</time></trkpt><trkpt lat="45.0805329" lon="7.5073579"><ele>356.0</ele><time>2026-05-01T07:13:32.411Z</time></trkpt><trkpt lat="45.0805867" lon="7.5072203"><ele>356.0</ele><time>2026-05-01T07:13:33.411Z</time></trkpt><trkpt lat="45.0806424" lon="7.5070781"><ele>356.0</ele><time>2026-05-01T07:13:34.411Z</time></trkpt><trkpt lat="45.0806955" lon="7.5069394"><ele>356.0</ele><time>2026-05-01T07:13:35.411Z</time></trkpt><trkpt lat="45.0807464" lon="7.5067994"><ele>355.8</ele><time>2026-05-01T07:13:36.411Z</time></trkpt><trkpt lat="45.0807983" lon="7.5066609"><ele>355.6</ele><time>2026-05-01T07:13:37.411Z</time></trkpt><trkpt lat="45.0808477" lon="7.5065314"><ele>355.4</ele><time>2026-05-01T07:13:38.412Z</time></trkpt><trkpt lat="45.080893" lon="7.5064067"><ele>355.2</ele><time>2026-05-01T07:13:39.411Z</time></trkpt><trkpt lat="45.0809384" lon="7.5062831"><ele>355.0</ele><time>2026-05-01T07:13:40.411Z</time></trkpt><trkpt lat="45.0809858" lon="7.5061656"><ele>355.8333333333333</ele><time>2026-05-01T07:13:41.411Z</time></trkpt><trkpt lat="45.0810331" lon="7.5060553"><ele>356.66666666666663</ele><time>2026-05-01T07:13:42.411Z</time></trkpt><trkpt lat="45.0810789" lon="7.5059532"><ele>357.5</ele><time>2026-05-01T07:13:43.411Z</time></trkpt><trkpt lat="45.0811231" lon="7.5058556"><ele>358.3333333333333</ele><time>2026-05-01T07:13:44.411Z</time></trkpt><trkpt lat="45.0811697" lon="7.5057582"><ele>359.1666666666667</ele><time>2026-05-01T07:13:45.412Z</time></trkpt><trkpt lat="45.0812234" lon="7.5056611"><ele>360.0</ele><time>2026-05-01T07:13:46.411Z</time></trkpt><trkpt lat="45.0812832" lon="7.5055763"><ele>360.0</ele><time>2026-05-01T07:13:47.411Z</time></trkpt><trkpt lat="45.0813344" lon="7.5054859"><ele>360.0</ele><time>2026-05-01T07:13:48.411Z</time></trkpt><trkpt lat="45.0813592" lon="7.5053796"><ele>360.0</ele><time>2026-05-01T07:13:49.411Z</time></trkpt><trkpt lat="45.0813729" lon="7.5052421"><ele>360.0</ele><time>2026-05-01T07:13:50.411Z</time></trkpt><trkpt lat="45.0813927" lon="7.5050768"><ele>360.0</ele><time>2026-05-01T07:13:51.411Z</time></trkpt><trkpt lat="45.081437" lon="7.5049035"><ele>360.2</ele><time>2026-05-01T07:13:52.412Z</time></trkpt><trkpt lat="45.0814945" lon="7.5047377"><ele>360.4</ele><time>2026-05-01T07:13:53.411Z</time></trkpt><trkpt lat="45.0815506" lon="7.5045924"><ele>360.6</ele><time>2026-05-01T07:13:54.411Z</time></trkpt><trkpt lat="45.0816009" lon="7.5044703"><ele>360.8</ele><time>2026-05-01T07:13:55.412Z</time></trkpt><trkpt lat="45.081648" lon="7.5043643"><ele>361.0</ele><time>2026-05-01T07:13:56.412Z</time></trkpt><trkpt lat="45.0816971" lon="7.5042578"><ele>360.66666666666663</ele><time>2026-05-01T07:13:57.412Z</time></trkpt><trkpt lat="45.0817491" lon="7.5041824"><ele>360.3333333333333</ele><time>2026-05-01T07:13:58.412Z</time></trkpt><trkpt lat="45.0818079" lon="7.5041098"><ele>360.0</ele><time>2026-05-01T07:13:59.412Z</time></trkpt><trkpt lat="45.0818647" lon="7.5040685"><ele>359.6666666666667</ele><time>2026-05-01T07:14:00.411Z</time></trkpt><trkpt lat="45.0819782" lon="7.5040636"><ele>359.33333333333337</ele><time>2026-05-01T07:14:02.411Z</time></trkpt><trkpt lat="45.0820443" lon="7.5040947"><ele>359.0</ele><time>2026-05-01T07:14:03.411Z</time></trkpt><trkpt lat="45.082107" lon="7.5041672"><ele>359.0</ele><time>2026-05-01T07:14:04.411Z</time></trkpt><trkpt lat="45.0821741" lon="7.5042693"><ele>359.0</ele><time>2026-05-01T07:14:05.411Z</time></trkpt><trkpt lat="45.0822494" lon="7.5043952"><ele>359.0</ele><time>2026-05-01T07:14:06.412Z</time></trkpt><trkpt lat="45.0823331" lon="7.5045274"><ele>359.0</ele><time>2026-05-01T07:14:07.412Z</time></trkpt><trkpt lat="45.0824125" lon="7.5046584"><ele>358.79999999999995</ele><time>2026-05-01T07:14:08.412Z</time></trkpt><trkpt lat="45.0824863" lon="7.5047812"><ele>358.59999999999997</ele><time>2026-05-01T07:14:09.411Z</time></trkpt><trkpt lat="45.0825566" lon="7.5048945"><ele>358.4</ele><time>2026-05-01T07:14:10.411Z</time></trkpt><trkpt lat="45.0826173" lon="7.5049976"><ele>358.2</ele><time>2026-05-01T07:14:11.411Z</time></trkpt><trkpt lat="45.0826743" lon="7.5050931"><ele>358.0</ele><time>2026-05-01T07:14:12.411Z</time></trkpt><trkpt lat="45.0827319" lon="7.5051857"><ele>358.0</ele><time>2026-05-01T07:14:13.411Z</time></trkpt><trkpt lat="45.0827866" lon="7.5052799"><ele>358.0</ele><time>2026-05-01T07:14:14.411Z</time></trkpt><trkpt lat="45.0828405" lon="7.5053764"><ele>358.0</ele><time>2026-05-01T07:14:15.412Z</time></trkpt><trkpt lat="45.0828926" lon="7.5054733"><ele>358.0</ele><time>2026-05-01T07:14:16.411Z</time></trkpt><trkpt lat="45.0829352" lon="7.5055842"><ele>358.0</ele><time>2026-05-01T07:14:17.411Z</time></trkpt><trkpt lat="45.0829628" lon="7.5057089"><ele>358.0</ele><time>2026-05-01T07:14:18.411Z</time></trkpt><trkpt lat="45.0829649" lon="7.5058429"><ele>358.2</ele><time>2026-05-01T07:14:19.412Z</time></trkpt><trkpt lat="45.0829447" lon="7.5059704"><ele>358.4</ele><time>2026-05-01T07:14:20.412Z</time></trkpt><trkpt lat="45.0829024" lon="7.5060901"><ele>358.59999999999997</ele><time>2026-05-01T07:14:21.411Z</time></trkpt><trkpt lat="45.08284" lon="7.5061958"><ele>358.79999999999995</ele><time>2026-05-01T07:14:22.412Z</time></trkpt><trkpt lat="45.0827611" lon="7.5062807"><ele>359.0</ele><time>2026-05-01T07:14:23.411Z</time></trkpt><trkpt lat="45.0826625" lon="7.5063391"><ele>358.6</ele><time>2026-05-01T07:14:24.411Z</time></trkpt><trkpt lat="45.0825521" lon="7.5063605"><ele>358.2</ele><time>2026-05-01T07:14:25.411Z</time></trkpt><trkpt lat="45.0824377" lon="7.5063371"><ele>357.8</ele><time>2026-05-01T07:14:26.411Z</time></trkpt><trkpt lat="45.0823363" lon="7.5062733"><ele>357.40000000000003</ele><time>2026-05-01T07:14:27.411Z</time></trkpt><trkpt lat="45.0822537" lon="7.5061779"><ele>357.0</ele><time>2026-05-01T07:14:28.411Z</time></trkpt><trkpt lat="45.0821909" lon="7.5060494"><ele>357.0</ele><time>2026-05-01T07:14:29.411Z</time></trkpt><trkpt lat="45.0821463" lon="7.5058863"><ele>357.0</ele><time>2026-05-01T07:14:30.412Z</time></trkpt><trkpt lat="45.0821086" lon="7.5056895"><ele>357.0</ele><time>2026-05-01T07:14:31.411Z</time></trkpt><trkpt lat="45.0820623" lon="7.5054706"><ele>357.0</ele><time>2026-05-01T07:14:32.411Z</time></trkpt><trkpt lat="45.0820109" lon="7.5052243"><ele>357.3333333333333</ele><time>2026-05-01T07:14:33.411Z</time></trkpt><trkpt lat="45.0819574" lon="7.504961"><ele>357.66666666666663</ele><time>2026-05-01T07:14:34.411Z</time></trkpt><trkpt lat="45.0819062" lon="7.5047005"><ele>358.0</ele><time>2026-05-01T07:14:35.412Z</time></trkpt><trkpt lat="45.0818566" lon="7.5044442"><ele>358.3333333333333</ele><time>2026-05-01T07:14:36.411Z</time></trkpt><trkpt lat="45.0818092" lon="7.5041818"><ele>358.6666666666667</ele><time>2026-05-01T07:14:37.411Z</time></trkpt><trkpt lat="45.0817617" lon="7.5039168"><ele>359.0</ele><time>2026-05-01T07:14:38.411Z</time></trkpt><trkpt lat="45.0817154" lon="7.5036607"><ele>359.33333333333337</ele><time>2026-05-01T07:14:39.412Z</time></trkpt><trkpt lat="45.0816706" lon="7.503414"><ele>359.6666666666667</ele><time>2026-05-01T07:14:40.412Z</time></trkpt><trkpt lat="45.0816291" lon="7.5031726"><ele>360.0</ele><time>2026-05-01T07:14:41.411Z</time></trkpt><trkpt lat="45.0815891" lon="7.5029389"><ele>360.3333333333333</ele><time>2026-05-01T07:14:42.411Z</time></trkpt><trkpt lat="45.081552" lon="7.5027105"><ele>360.66666666666663</ele><time>2026-05-01T07:14:43.411Z</time></trkpt><trkpt lat="45.0815157" lon="7.5024931"><ele>361.0</ele><time>2026-05-01T07:14:44.411Z</time></trkpt><trkpt lat="45.0814769" lon="7.5022817"><ele>360.3333333333333</ele><time>2026-05-01T07:14:45.411Z</time></trkpt><trkpt lat="45.0814404" lon="7.5020729"><ele>359.6666666666667</ele><time>2026-05-01T07:14:46.412Z</time></trkpt><trkpt lat="45.0814014" lon="7.5018587"><ele>359.0</ele><time>2026-05-01T07:14:47.411Z</time></trkpt><trkpt lat="45.0813612" lon="7.5016424"><ele>359.0</ele><time>2026-05-01T07:14:48.411Z</time></trkpt><trkpt lat="45.0813201" lon="7.501412"><ele>359.0</ele><time>2026-05-01T07:14:49.412Z</time></trkpt><trkpt lat="45.0812766" lon="7.5011773"><ele>359.0</ele><time>2026-05-01T07:14:50.411Z</time></trkpt><trkpt lat="45.0812345" lon="7.5009375"><ele>359.33333333333337</ele><time>2026-05-01T07:14:51.411Z</time></trkpt><trkpt lat="45.0811973" lon="7.5007"><ele>359.6666666666667</ele><time>2026-05-01T07:14:52.411Z</time></trkpt><trkpt lat="45.0811608" lon="7.5004595"><ele>360.0</ele><time>2026-05-01T07:14:53.412Z</time></trkpt><trkpt lat="45.0811215" lon="7.5002048"><ele>359.3333333333333</ele><time>2026-05-01T07:14:54.411Z</time></trkpt><trkpt lat="45.0810781" lon="7.4999294"><ele>358.66666666666663</ele><time>2026-05-01T07:14:55.411Z</time></trkpt><trkpt lat="45.0810357" lon="7.499629"><ele>358.0</ele><time>2026-05-01T07:14:56.412Z</time></trkpt><trkpt lat="45.0809984" lon="7.499318"><ele>358.0</ele><time>2026-05-01T07:14:57.411Z</time></trkpt><trkpt lat="45.0809669" lon="7.4990017"><ele>358.0</ele><time>2026-05-01T07:14:58.411Z</time></trkpt><trkpt lat="45.0809419" lon="7.4986833"><ele>359.0</ele><time>2026-05-01T07:14:59.411Z</time></trkpt><trkpt lat="45.0809245" lon="7.4983646"><ele>360.0</ele><time>2026-05-01T07:15:00.411Z</time></trkpt><trkpt lat="45.0845222" lon="7.4900388"><ele>349.0</ele><time>2026-05-01T07:15:27.411Z</time></trkpt><trkpt lat="45.0847494" lon="7.4897702"><ele>338.0</ele><time>2026-05-01T07:15:28.412Z</time></trkpt><trkpt lat="45.0861131" lon="7.4883113"><ele>336.33333333333337</ele><time>2026-05-01T07:15:36.411Z</time></trkpt><trkpt lat="45.0862296" lon="7.48816"><ele>334.6666666666667</ele><time>2026-05-01T07:15:37.411Z</time></trkpt><trkpt lat="45.0863517" lon="7.4879994"><ele>333.0</ele><time>2026-05-01T07:15:38.412Z</time></trkpt><trkpt lat="45.0864759" lon="7.4878235"><ele>332.0</ele><time>2026-05-01T07:15:39.413Z</time></trkpt><trkpt lat="45.0866076" lon="7.4876355"><ele>331.0</ele><time>2026-05-01T07:15:40.411Z</time></trkpt><trkpt lat="45.0867381" lon="7.4874342"><ele>330.0</ele><time>2026-05-01T07:15:41.411Z</time></trkpt><trkpt lat="45.0868666" lon="7.4872203"><ele>329.6666666666667</ele><time>2026-05-01T07:15:42.411Z</time></trkpt><trkpt lat="45.0869955" lon="7.4869993"><ele>329.33333333333337</ele><time>2026-05-01T07:15:43.411Z</time></trkpt><trkpt lat="45.0871247" lon="7.4867743"><ele>329.0</ele><time>2026-05-01T07:15:44.411Z</time></trkpt><trkpt lat="45.0872529" lon="7.4865337"><ele>329.0</ele><time>2026-05-01T07:15:45.411Z</time></trkpt><trkpt lat="45.0873758" lon="7.4862755"><ele>329.0</ele><time>2026-05-01T07:15:46.412Z</time></trkpt><trkpt lat="45.0874915" lon="7.4860021"><ele>329.0</ele><time>2026-05-01T07:15:47.411Z</time></trkpt><trkpt lat="45.0875983" lon="7.485721"><ele>328.6666666666667</ele><time>2026-05-01T07:15:48.411Z</time></trkpt><trkpt lat="45.0876939" lon="7.4854366"><ele>328.3333333333333</ele><time>2026-05-01T07:15:49.411Z</time></trkpt><trkpt lat="45.0877846" lon="7.4851492"><ele>328.0</ele><time>2026-05-01T07:15:50.411Z</time></trkpt><trkpt lat="45.0878699" lon="7.4848596"><ele>327.66666666666663</ele><time>2026-05-01T07:15:51.411Z</time></trkpt><trkpt lat="45.0879424" lon="7.484569"><ele>327.3333333333333</ele><time>2026-05-01T07:15:52.411Z</time></trkpt><trkpt lat="45.0880052" lon="7.4842785"><ele>327.0</ele><time>2026-05-01T07:15:53.411Z</time></trkpt><trkpt lat="45.0880628" lon="7.4839867"><ele>326.0</ele><time>2026-05-01T07:15:54.411Z</time></trkpt><trkpt lat="45.088109" lon="7.4836963"><ele>325.0</ele><time>2026-05-01T07:15:55.411Z</time></trkpt><trkpt lat="45.0881494" lon="7.4834037"><ele>324.0</ele><time>2026-05-01T07:15:56.411Z</time></trkpt><trkpt lat="45.0881842" lon="7.4831087"><ele>324.0</ele><time>2026-05-01T07:15:57.411Z</time></trkpt><trkpt lat="45.0882177" lon="7.4828117"><ele>324.0</ele><time>2026-05-01T07:15:58.412Z</time></trkpt><trkpt lat="45.0882468" lon="7.4825161"><ele>324.0</ele><time>2026-05-01T07:15:59.412Z</time></trkpt><trkpt lat="45.0882708" lon="7.4822143"><ele>325.0</ele><time>2026-05-01T07:16:00.412Z</time></trkpt><trkpt lat="45.0882931" lon="7.4819128"><ele>326.0</ele><time>2026-05-01T07:16:01.412Z</time></trkpt><trkpt lat="45.0883172" lon="7.4816124"><ele>327.0</ele><time>2026-05-01T07:16:02.411Z</time></trkpt><trkpt lat="45.0883402" lon="7.4813108"><ele>326.3333333333333</ele><time>2026-05-01T07:16:03.411Z</time></trkpt><trkpt lat="45.0883626" lon="7.481012"><ele>325.66666666666663</ele><time>2026-05-01T07:16:04.411Z</time></trkpt><trkpt lat="45.088386" lon="7.480712"><ele>325.0</ele><time>2026-05-01T07:16:05.411Z</time></trkpt><trkpt lat="45.0884057" lon="7.48041"><ele>325.0</ele><time>2026-05-01T07:16:06.411Z</time></trkpt><trkpt lat="45.0884311" lon="7.4800998"><ele>325.0</ele><time>2026-05-01T07:16:07.411Z</time></trkpt><trkpt lat="45.0884587" lon="7.4797793"><ele>325.0</ele><time>2026-05-01T07:16:08.412Z</time></trkpt><trkpt lat="45.0884829" lon="7.4794539"><ele>327.0</ele><time>2026-05-01T07:16:09.411Z</time></trkpt><trkpt lat="45.0885104" lon="7.4791237"><ele>329.0</ele><time>2026-05-01T07:16:10.411Z</time></trkpt><trkpt lat="45.0885375" lon="7.4787983"><ele>329.0</ele><time>2026-05-01T07:16:11.411Z</time></trkpt><trkpt lat="45.0885623" lon="7.4784868"><ele>329.0</ele><time>2026-05-01T07:16:12.411Z</time></trkpt><trkpt lat="45.0885847" lon="7.4781846"><ele>329.0</ele><time>2026-05-01T07:16:13.411Z</time></trkpt><trkpt lat="45.0886061" lon="7.4778902"><ele>329.0</ele><time>2026-05-01T07:16:14.411Z</time></trkpt><trkpt lat="45.0886272" lon="7.4776009"><ele>329.0</ele><time>2026-05-01T07:16:15.411Z</time></trkpt><trkpt lat="45.0886491" lon="7.4773163"><ele>329.0</ele><time>2026-05-01T07:16:16.412Z</time></trkpt><trkpt lat="45.0886724" lon="7.4770302"><ele>329.0</ele><time>2026-05-01T07:16:17.411Z</time></trkpt><trkpt lat="45.0886949" lon="7.4767427"><ele>329.0</ele><time>2026-05-01T07:16:18.411Z</time></trkpt><trkpt lat="45.0887161" lon="7.4764517"><ele>329.0</ele><time>2026-05-01T07:16:19.412Z</time></trkpt><trkpt lat="45.088738" lon="7.4761643"><ele>329.0</ele><time>2026-05-01T07:16:20.411Z</time></trkpt><trkpt lat="45.0887604" lon="7.4758811"><ele>329.0</ele><time>2026-05-01T07:16:21.411Z</time></trkpt><trkpt lat="45.0887826" lon="7.4755948"><ele>329.0</ele><time>2026-05-01T07:16:22.411Z</time></trkpt><trkpt lat="45.0888048" lon="7.4753119"><ele>329.0</ele><time>2026-05-01T07:16:23.412Z</time></trkpt><trkpt lat="45.0888293" lon="7.4750212"><ele>329.0</ele><time>2026-05-01T07:16:24.411Z</time></trkpt><trkpt lat="45.0888549" lon="7.4747174"><ele>329.0</ele><time>2026-05-01T07:16:25.411Z</time></trkpt><trkpt lat="45.0888801" lon="7.4744034"><ele>328.5</ele><time>2026-05-01T07:16:26.411Z</time></trkpt><trkpt lat="45.0889042" lon="7.4740812"><ele>328.0</ele><time>2026-05-01T07:16:27.411Z</time></trkpt><trkpt lat="45.0889292" lon="7.4737571"><ele>328.0</ele><time>2026-05-01T07:16:28.411Z</time></trkpt><trkpt lat="45.0889526" lon="7.4734311"><ele>328.0</ele><time>2026-05-01T07:16:29.411Z</time></trkpt><trkpt lat="45.0889782" lon="7.4731037"><ele>327.5</ele><time>2026-05-01T07:16:30.411Z</time></trkpt><trkpt lat="45.0890047" lon="7.4727789"><ele>327.0</ele><time>2026-05-01T07:16:31.411Z</time></trkpt><trkpt lat="45.0890305" lon="7.4724549"><ele>327.0</ele><time>2026-05-01T07:16:32.411Z</time></trkpt><trkpt lat="45.0890552" lon="7.4721339"><ele>327.0</ele><time>2026-05-01T07:16:33.411Z</time></trkpt><trkpt lat="45.0890795" lon="7.4718181"><ele>327.5</ele><time>2026-05-01T07:16:34.411Z</time></trkpt><trkpt lat="45.0891045" lon="7.4714992"><ele>328.0</ele><time>2026-05-01T07:16:35.412Z</time></trkpt><trkpt lat="45.0891314" lon="7.4711791"><ele>328.0</ele><time>2026-05-01T07:16:36.411Z</time></trkpt><trkpt lat="45.0891554" lon="7.4708604"><ele>328.0</ele><time>2026-05-01T07:16:37.411Z</time></trkpt><trkpt lat="45.0891799" lon="7.4705436"><ele>328.66666666666663</ele><time>2026-05-01T07:16:38.411Z</time></trkpt><trkpt lat="45.0892027" lon="7.470233"><ele>329.3333333333333</ele><time>2026-05-01T07:16:39.411Z</time></trkpt><trkpt lat="45.0892257" lon="7.4699284"><ele>330.0</ele><time>2026-05-01T07:16:40.411Z</time></trkpt><trkpt lat="45.0892497" lon="7.4696304"><ele>330.0</ele><time>2026-05-01T07:16:41.411Z</time></trkpt><trkpt lat="45.0892699" lon="7.4693317"><ele>330.0</ele><time>2026-05-01T07:16:42.411Z</time></trkpt><trkpt lat="45.0892944" lon="7.4690307"><ele>330.0</ele><time>2026-05-01T07:16:43.412Z</time></trkpt><trkpt lat="45.0893169" lon="7.4687319"><ele>329.6666666666667</ele><time>2026-05-01T07:16:44.411Z</time></trkpt><trkpt lat="45.0893393" lon="7.4684263"><ele>329.33333333333337</ele><time>2026-05-01T07:16:45.412Z</time></trkpt><trkpt lat="45.0893611" lon="7.4681166"><ele>329.0</ele><time>2026-05-01T07:16:46.412Z</time></trkpt><trkpt lat="45.0893845" lon="7.4678017"><ele>329.0</ele><time>2026-05-01T07:16:47.411Z</time></trkpt><trkpt lat="45.0894096" lon="7.4674873"><ele>329.0</ele><time>2026-05-01T07:16:48.411Z</time></trkpt><trkpt lat="45.0894364" lon="7.4671738"><ele>329.0</ele><time>2026-05-01T07:16:49.412Z</time></trkpt><trkpt lat="45.0894627" lon="7.4668601"><ele>328.5</ele><time>2026-05-01T07:16:50.412Z</time></trkpt><trkpt lat="45.0894893" lon="7.4665433"><ele>328.0</ele><time>2026-05-01T07:16:51.411Z</time></trkpt><trkpt lat="45.0895151" lon="7.466224"><ele>328.0</ele><time>2026-05-01T07:16:52.411Z</time></trkpt><trkpt lat="45.0895395" lon="7.4659048"><ele>328.0</ele><time>2026-05-01T07:16:53.411Z</time></trkpt><trkpt lat="45.089564" lon="7.4655861"><ele>328.0</ele><time>2026-05-01T07:16:54.411Z</time></trkpt><trkpt lat="45.0895878" lon="7.4652693"><ele>328.0</ele><time>2026-05-01T07:16:55.412Z</time></trkpt><trkpt lat="45.0896108" lon="7.4649523"><ele>328.0</ele><time>2026-05-01T07:16:56.411Z</time></trkpt><trkpt lat="45.0896354" lon="7.4646356"><ele>328.0</ele><time>2026-05-01T07:16:57.412Z</time></trkpt><trkpt lat="45.089659" lon="7.4643156"><ele>327.5</ele><time>2026-05-01T07:16:58.411Z</time></trkpt><trkpt lat="45.0896839" lon="7.463992"><ele>327.0</ele><time>2026-05-01T07:16:59.411Z</time></trkpt><trkpt lat="45.0897095" lon="7.4636656"><ele>327.0</ele><time>2026-05-01T07:17:00.411Z</time></trkpt><trkpt lat="45.0897347" lon="7.4633413"><ele>327.0</ele><time>2026-05-01T07:17:01.411Z</time></trkpt><trkpt lat="45.0897614" lon="7.4630212"><ele>327.5</ele><time>2026-05-01T07:17:02.412Z</time></trkpt><trkpt lat="45.0897868" lon="7.4627064"><ele>328.0</ele><time>2026-05-01T07:17:03.411Z</time></trkpt><trkpt lat="45.0898121" lon="7.4623845"><ele>329.0</ele><time>2026-05-01T07:17:04.411Z</time></trkpt><trkpt lat="45.089839" lon="7.462059"><ele>330.0</ele><time>2026-05-01T07:17:05.411Z</time></trkpt><trkpt lat="45.0898667" lon="7.4617279"><ele>330.0</ele><time>2026-05-01T07:17:06.411Z</time></trkpt><trkpt lat="45.0898944" lon="7.4613915"><ele>330.0</ele><time>2026-05-01T07:17:07.412Z</time></trkpt><trkpt lat="45.0899197" lon="7.4610492"><ele>330.0</ele><time>2026-05-01T07:17:08.411Z</time></trkpt><trkpt lat="45.0899451" lon="7.4607018"><ele>330.0</ele><time>2026-05-01T07:17:09.411Z</time></trkpt><trkpt lat="45.0899704" lon="7.4603493"><ele>330.0</ele><time>2026-05-01T07:17:10.412Z</time></trkpt><trkpt lat="45.0899965" lon="7.4599974"><ele>330.0</ele><time>2026-05-01T07:17:11.411Z</time></trkpt><trkpt lat="45.0900241" lon="7.4596428"><ele>329.5</ele><time>2026-05-01T07:17:12.411Z</time></trkpt><trkpt lat="45.0900526" lon="7.4592889"><ele>329.0</ele><time>2026-05-01T07:17:13.411Z</time></trkpt><trkpt lat="45.0900809" lon="7.458937"><ele>329.0</ele><time>2026-05-01T07:17:14.411Z</time></trkpt><trkpt lat="45.0901099" lon="7.4585815"><ele>329.0</ele><time>2026-05-01T07:17:15.411Z</time></trkpt><trkpt lat="45.0901359" lon="7.4582221"><ele>329.5</ele><time>2026-05-01T07:17:16.411Z</time></trkpt><trkpt lat="45.090165" lon="7.4578608"><ele>330.0</ele><time>2026-05-01T07:17:17.411Z</time></trkpt><trkpt lat="45.0901934" lon="7.4574957"><ele>330.0</ele><time>2026-05-01T07:17:18.411Z</time></trkpt><trkpt lat="45.0902216" lon="7.4571282"><ele>330.0</ele><time>2026-05-01T07:17:19.411Z</time></trkpt><trkpt lat="45.0902515" lon="7.4567569"><ele>330.0</ele><time>2026-05-01T07:17:20.411Z</time></trkpt><trkpt lat="45.0902798" lon="7.4563798"><ele>330.0</ele><time>2026-05-01T07:17:21.411Z</time></trkpt><trkpt lat="45.0903085" lon="7.4560001"><ele>330.0</ele><time>2026-05-01T07:17:22.411Z</time></trkpt><trkpt lat="45.090337" lon="7.4556179"><ele>330.0</ele><time>2026-05-01T07:17:23.411Z</time></trkpt><trkpt lat="45.090362" lon="7.4552348"><ele>330.0</ele><time>2026-05-01T07:17:24.411Z</time></trkpt><trkpt lat="45.0903809" lon="7.454849"><ele>330.0</ele><time>2026-05-01T07:17:25.412Z</time></trkpt><trkpt lat="45.0903972" lon="7.4544667"><ele>330.0</ele><time>2026-05-01T07:17:26.411Z</time></trkpt><trkpt lat="45.0904091" lon="7.4540841"><ele>330.0</ele><time>2026-05-01T07:17:27.411Z</time></trkpt><trkpt lat="45.0904157" lon="7.4536983"><ele>330.0</ele><time>2026-05-01T07:17:28.411Z</time></trkpt><trkpt lat="45.090422" lon="7.4533095"><ele>330.0</ele><time>2026-05-01T07:17:29.411Z</time></trkpt><trkpt lat="45.0904253" lon="7.4529212"><ele>330.0</ele><time>2026-05-01T07:17:30.411Z</time></trkpt><trkpt lat="45.0904276" lon="7.4525329"><ele>330.0</ele><time>2026-05-01T07:17:31.412Z</time></trkpt><trkpt lat="45.0904299" lon="7.4521487"><ele>329.5</ele><time>2026-05-01T07:17:32.412Z</time></trkpt><trkpt lat="45.0904303" lon="7.451765"><ele>329.0</ele><time>2026-05-01T07:17:33.411Z</time></trkpt><trkpt lat="45.0904317" lon="7.4513806"><ele>328.5</ele><time>2026-05-01T07:17:34.411Z</time></trkpt><trkpt lat="45.0904324" lon="7.4509969"><ele>328.0</ele><time>2026-05-01T07:17:35.411Z</time></trkpt><trkpt lat="45.0904338" lon="7.4506147"><ele>329.0</ele><time>2026-05-01T07:17:36.411Z</time></trkpt><trkpt lat="45.0904349" lon="7.4502336"><ele>330.0</ele><time>2026-05-01T07:17:37.411Z</time></trkpt><trkpt lat="45.0904368" lon="7.4498547"><ele>329.5</ele><time>2026-05-01T07:17:38.412Z</time></trkpt><trkpt lat="45.0904374" lon="7.4494769"><ele>329.0</ele><time>2026-05-01T07:17:39.411Z</time></trkpt><trkpt lat="45.0904383" lon="7.4491002"><ele>330.0</ele><time>2026-05-01T07:17:40.411Z</time></trkpt><trkpt lat="45.0904387" lon="7.4487252"><ele>331.0</ele><time>2026-05-01T07:17:41.411Z</time></trkpt><trkpt lat="45.0904411" lon="7.4483497"><ele>331.0</ele><time>2026-05-01T07:17:42.413Z</time></trkpt><trkpt lat="45.0904437" lon="7.4479759"><ele>331.0</ele><time>2026-05-01T07:17:43.411Z</time></trkpt><trkpt lat="45.0904442" lon="7.4476039"><ele>330.5</ele><time>2026-05-01T07:17:44.411Z</time></trkpt><trkpt lat="45.0904448" lon="7.4472325"><ele>330.0</ele><time>2026-05-01T07:17:45.411Z</time></trkpt><trkpt lat="45.0904438" lon="7.446861"><ele>330.0</ele><time>2026-05-01T07:17:46.411Z</time></trkpt><trkpt lat="45.0904445" lon="7.4464905"><ele>330.0</ele><time>2026-05-01T07:17:47.411Z</time></trkpt><trkpt lat="45.0904453" lon="7.4461185"><ele>330.0</ele><time>2026-05-01T07:17:48.411Z</time></trkpt><trkpt lat="45.0904466" lon="7.4457442"><ele>330.0</ele><time>2026-05-01T07:17:49.411Z</time></trkpt><trkpt lat="45.0904491" lon="7.4453686"><ele>330.5</ele><time>2026-05-01T07:17:50.411Z</time></trkpt><trkpt lat="45.0904508" lon="7.444993"><ele>331.0</ele><time>2026-05-01T07:17:51.411Z</time></trkpt><trkpt lat="45.0904488" lon="7.4446153"><ele>331.0</ele><time>2026-05-01T07:17:52.412Z</time></trkpt><trkpt lat="45.0904459" lon="7.4442382"><ele>331.0</ele><time>2026-05-01T07:17:53.411Z</time></trkpt><trkpt lat="45.0904424" lon="7.4438586"><ele>330.0</ele><time>2026-05-01T07:17:54.412Z</time></trkpt><trkpt lat="45.0904365" lon="7.4434781"><ele>329.0</ele><time>2026-05-01T07:17:55.411Z</time></trkpt><trkpt lat="45.0904244" lon="7.4430963"><ele>329.5</ele><time>2026-05-01T07:17:56.411Z</time></trkpt><trkpt lat="45.0904081" lon="7.4427127"><ele>330.0</ele><time>2026-05-01T07:17:57.411Z</time></trkpt><trkpt lat="45.0903879" lon="7.4423306"><ele>331.0</ele><time>2026-05-01T07:17:58.411Z</time></trkpt><trkpt lat="45.0903626" lon="7.4419489"><ele>332.0</ele><time>2026-05-01T07:17:59.411Z</time></trkpt><trkpt lat="45.0903344" lon="7.4415735"><ele>332.0</ele><time>2026-05-01T07:18:00.411Z</time></trkpt><trkpt lat="45.090301" lon="7.441203"><ele>332.0</ele><time>2026-05-01T07:18:01.411Z</time></trkpt><trkpt lat="45.0902645" lon="7.4408379"><ele>332.0</ele><time>2026-05-01T07:18:02.411Z</time></trkpt><trkpt lat="45.0902267" lon="7.4404709"><ele>332.0</ele><time>2026-05-01T07:18:03.411Z</time></trkpt><trkpt lat="45.0901859" lon="7.4400998"><ele>332.0</ele><time>2026-05-01T07:18:04.411Z</time></trkpt><trkpt lat="45.0901384" lon="7.4397285"><ele>332.0</ele><time>2026-05-01T07:18:05.411Z</time></trkpt><trkpt lat="45.0900914" lon="7.439352"><ele>331.5</ele><time>2026-05-01T07:18:06.411Z</time></trkpt><trkpt lat="45.0900462" lon="7.4389709"><ele>331.0</ele><time>2026-05-01T07:18:07.411Z</time></trkpt><trkpt lat="45.0900008" lon="7.4385905"><ele>330.5</ele><time>2026-05-01T07:18:08.411Z</time></trkpt><trkpt lat="45.0899559" lon="7.4382109"><ele>330.0</ele><time>2026-05-01T07:18:09.411Z</time></trkpt><trkpt lat="45.0899115" lon="7.4378279"><ele>330.0</ele><time>2026-05-01T07:18:10.411Z</time></trkpt><trkpt lat="45.089867" lon="7.4374452"><ele>330.0</ele><time>2026-05-01T07:18:11.411Z</time></trkpt><trkpt lat="45.0898219" lon="7.4370617"><ele>330.0</ele><time>2026-05-01T07:18:12.411Z</time></trkpt><trkpt lat="45.0897764" lon="7.4366772"><ele>330.0</ele><time>2026-05-01T07:18:13.411Z</time></trkpt><trkpt lat="45.0897304" lon="7.436294"><ele>330.0</ele><time>2026-05-01T07:18:14.411Z</time></trkpt><trkpt lat="45.0896851" lon="7.4359107"><ele>330.0</ele><time>2026-05-01T07:18:15.411Z</time></trkpt><trkpt lat="45.0896398" lon="7.4355272"><ele>331.0</ele><time>2026-05-01T07:18:16.411Z</time></trkpt><trkpt lat="45.0895929" lon="7.4351496"><ele>332.0</ele><time>2026-05-01T07:18:17.411Z</time></trkpt><trkpt lat="45.0895474" lon="7.4347791"><ele>332.0</ele><time>2026-05-01T07:18:18.411Z</time></trkpt><trkpt lat="45.0895073" lon="7.4344082"><ele>332.0</ele><time>2026-05-01T07:18:19.413Z</time></trkpt><trkpt lat="45.0894714" lon="7.4340368"><ele>331.5</ele><time>2026-05-01T07:18:20.411Z</time></trkpt><trkpt lat="45.0894476" lon="7.4336615"><ele>331.0</ele><time>2026-05-01T07:18:21.411Z</time></trkpt><trkpt lat="45.0894342" lon="7.4332815"><ele>330.5</ele><time>2026-05-01T07:18:22.411Z</time></trkpt><trkpt lat="45.0894266" lon="7.4329059"><ele>330.0</ele><time>2026-05-01T07:18:23.411Z</time></trkpt><trkpt lat="45.0894256" lon="7.4325405"><ele>330.0</ele><time>2026-05-01T07:18:24.411Z</time></trkpt><trkpt lat="45.0894304" lon="7.4321852"><ele>330.0</ele><time>2026-05-01T07:18:25.411Z</time></trkpt><trkpt lat="45.0894431" lon="7.4318319"><ele>330.5</ele><time>2026-05-01T07:18:26.413Z</time></trkpt><trkpt lat="45.0894636" lon="7.4314809"><ele>331.0</ele><time>2026-05-01T07:18:27.411Z</time></trkpt><trkpt lat="45.0894904" lon="7.4311307"><ele>331.5</ele><time>2026-05-01T07:18:28.411Z</time></trkpt><trkpt lat="45.0895261" lon="7.4307794"><ele>332.0</ele><time>2026-05-01T07:18:29.411Z</time></trkpt><trkpt lat="45.0895714" lon="7.4304217"><ele>332.0</ele><time>2026-05-01T07:18:30.411Z</time></trkpt><trkpt lat="45.0896224" lon="7.4300646"><ele>332.0</ele><time>2026-05-01T07:18:31.411Z</time></trkpt><trkpt lat="45.0896786" lon="7.4297009"><ele>332.0</ele><time>2026-05-01T07:18:32.411Z</time></trkpt><trkpt lat="45.089742" lon="7.4293426"><ele>332.0</ele><time>2026-05-01T07:18:33.411Z</time></trkpt><trkpt lat="45.0898106" lon="7.428991"><ele>331.5</ele><time>2026-05-01T07:18:34.411Z</time></trkpt><trkpt lat="45.0898809" lon="7.4286489"><ele>331.0</ele><time>2026-05-01T07:18:35.413Z</time></trkpt><trkpt lat="45.0899515" lon="7.4283095"><ele>332.0</ele><time>2026-05-01T07:18:36.412Z</time></trkpt><trkpt lat="45.0900193" lon="7.4279731"><ele>333.0</ele><time>2026-05-01T07:18:37.411Z</time></trkpt><trkpt lat="45.090082" lon="7.42764"><ele>333.0</ele><time>2026-05-01T07:18:38.412Z</time></trkpt><trkpt lat="45.0901466" lon="7.4273074"><ele>333.0</ele><time>2026-05-01T07:18:39.411Z</time></trkpt><trkpt lat="45.0902132" lon="7.4269752"><ele>333.5</ele><time>2026-05-01T07:18:40.411Z</time></trkpt><trkpt lat="45.090279" lon="7.4266442"><ele>334.0</ele><time>2026-05-01T07:18:41.411Z</time></trkpt><trkpt lat="45.0903441" lon="7.4263141"><ele>335.0</ele><time>2026-05-01T07:18:42.411Z</time></trkpt><trkpt lat="45.090412" lon="7.4259785"><ele>336.0</ele><time>2026-05-01T07:18:43.411Z</time></trkpt><trkpt lat="45.0904803" lon="7.4256371"><ele>336.0</ele><time>2026-05-01T07:18:44.411Z</time></trkpt><trkpt lat="45.0905482" lon="7.4252895"><ele>336.0</ele><time>2026-05-01T07:18:45.411Z</time></trkpt><trkpt lat="45.0906177" lon="7.4249419"><ele>335.5</ele><time>2026-05-01T07:18:46.411Z</time></trkpt><trkpt lat="45.0906885" lon="7.4245907"><ele>335.0</ele><time>2026-05-01T07:18:47.412Z</time></trkpt><trkpt lat="45.090757" lon="7.4242366"><ele>335.0</ele><time>2026-05-01T07:18:48.413Z</time></trkpt><trkpt lat="45.0908235" lon="7.4238819"><ele>335.0</ele><time>2026-05-01T07:18:49.411Z</time></trkpt><trkpt lat="45.090889" lon="7.4235205"><ele>335.0</ele><time>2026-05-01T07:18:50.411Z</time></trkpt><trkpt lat="45.0909522" lon="7.4231573"><ele>335.0</ele><time>2026-05-01T07:18:51.411Z</time></trkpt><trkpt lat="45.0910127" lon="7.4227884"><ele>335.5</ele><time>2026-05-01T07:18:52.412Z</time></trkpt><trkpt lat="45.0910714" lon="7.4224122"><ele>336.0</ele><time>2026-05-01T07:18:53.412Z</time></trkpt><trkpt lat="45.0911262" lon="7.4220275"><ele>336.0</ele><time>2026-05-01T07:18:54.411Z</time></trkpt><trkpt lat="45.0911772" lon="7.4216414"><ele>336.0</ele><time>2026-05-01T07:18:55.412Z</time></trkpt><trkpt lat="45.091224" lon="7.4212557"><ele>336.0</ele><time>2026-05-01T07:18:56.411Z</time></trkpt><trkpt lat="45.091268" lon="7.4208709"><ele>336.0</ele><time>2026-05-01T07:18:57.412Z</time></trkpt><trkpt lat="45.0913096" lon="7.420494"><ele>335.5</ele><time>2026-05-01T07:18:58.411Z</time></trkpt><trkpt lat="45.0913502" lon="7.4201317"><ele>335.0</ele><time>2026-05-01T07:18:59.411Z</time></trkpt><trkpt lat="45.0913913" lon="7.4197721"><ele>335.0</ele><time>2026-05-01T07:19:00.411Z</time></trkpt><trkpt lat="45.0914318" lon="7.4194246"><ele>335.0</ele><time>2026-05-01T07:19:01.413Z</time></trkpt><trkpt lat="45.0914716" lon="7.4190894"><ele>334.5</ele><time>2026-05-01T07:19:02.411Z</time></trkpt><trkpt lat="45.0915107" lon="7.4187557"><ele>334.0</ele><time>2026-05-01T07:19:03.411Z</time></trkpt><trkpt lat="45.0915488" lon="7.4184223"><ele>334.0</ele><time>2026-05-01T07:19:04.411Z</time></trkpt><trkpt lat="45.091587" lon="7.418092"><ele>334.0</ele><time>2026-05-01T07:19:05.411Z</time></trkpt><trkpt lat="45.0916236" lon="7.4177645"><ele>337.0</ele><time>2026-05-01T07:19:06.411Z</time></trkpt><trkpt lat="45.0916594" lon="7.4174379"><ele>340.0</ele><time>2026-05-01T07:19:07.412Z</time></trkpt><trkpt lat="45.0916954" lon="7.4171067"><ele>340.0</ele><time>2026-05-01T07:19:08.411Z</time></trkpt><trkpt lat="45.0917338" lon="7.4167704"><ele>340.0</ele><time>2026-05-01T07:19:09.411Z</time></trkpt><trkpt lat="45.0917745" lon="7.416429"><ele>340.0</ele><time>2026-05-01T07:19:10.411Z</time></trkpt><trkpt lat="45.0918136" lon="7.416087"><ele>340.0</ele><time>2026-05-01T07:19:11.411Z</time></trkpt><trkpt lat="45.0918514" lon="7.4157436"><ele>339.5</ele><time>2026-05-01T07:19:12.411Z</time></trkpt><trkpt lat="45.0918889" lon="7.4154018"><ele>339.0</ele><time>2026-05-01T07:19:13.411Z</time></trkpt><trkpt lat="45.091927" lon="7.4150572"><ele>339.0</ele><time>2026-05-01T07:19:14.411Z</time></trkpt><trkpt lat="45.0919657" lon="7.4147115"><ele>339.0</ele><time>2026-05-01T07:19:15.412Z</time></trkpt><trkpt lat="45.0920047" lon="7.4143625"><ele>338.5</ele><time>2026-05-01T07:19:16.411Z</time></trkpt><trkpt lat="45.0920463" lon="7.4140126"><ele>338.0</ele><time>2026-05-01T07:19:17.411Z</time></trkpt><trkpt lat="45.0920856" lon="7.4136635"><ele>337.0</ele><time>2026-05-01T07:19:18.411Z</time></trkpt><trkpt lat="45.0921253" lon="7.413313"><ele>336.0</ele><time>2026-05-01T07:19:19.411Z</time></trkpt><trkpt lat="45.0921661" lon="7.412959"><ele>335.5</ele><time>2026-05-01T07:19:20.411Z</time></trkpt><trkpt lat="45.0922082" lon="7.4126023"><ele>335.0</ele><time>2026-05-01T07:19:21.411Z</time></trkpt><trkpt lat="45.092249" lon="7.4122414"><ele>334.0</ele><time>2026-05-01T07:19:22.411Z</time></trkpt><trkpt lat="45.0922899" lon="7.4118761"><ele>333.0</ele><time>2026-05-01T07:19:23.411Z</time></trkpt><trkpt lat="45.0923324" lon="7.4115112"><ele>334.0</ele><time>2026-05-01T07:19:24.411Z</time></trkpt><trkpt lat="45.0923743" lon="7.4111451"><ele>335.0</ele><time>2026-05-01T07:19:25.412Z</time></trkpt><trkpt lat="45.0924138" lon="7.4107773"><ele>336.5</ele><time>2026-05-01T07:19:26.411Z</time></trkpt><trkpt lat="45.0924555" lon="7.4104084"><ele>338.0</ele><time>2026-05-01T07:19:27.411Z</time></trkpt><trkpt lat="45.0924955" lon="7.4100384"><ele>338.0</ele><time>2026-05-01T07:19:28.411Z</time></trkpt><trkpt lat="45.092537" lon="7.4096713"><ele>338.0</ele><time>2026-05-01T07:19:29.411Z</time></trkpt><trkpt lat="45.092578" lon="7.4093051"><ele>338.5</ele><time>2026-05-01T07:19:30.412Z</time></trkpt><trkpt lat="45.0926216" lon="7.4089417"><ele>339.0</ele><time>2026-05-01T07:19:31.411Z</time></trkpt><trkpt lat="45.092662" lon="7.408579"><ele>339.0</ele><time>2026-05-01T07:19:32.411Z</time></trkpt><trkpt lat="45.0927031" lon="7.4082183"><ele>339.0</ele><time>2026-05-01T07:19:33.411Z</time></trkpt><trkpt lat="45.0927429" lon="7.4078609"><ele>338.5</ele><time>2026-05-01T07:19:34.411Z</time></trkpt><trkpt lat="45.092783" lon="7.4075052"><ele>338.0</ele><time>2026-05-01T07:19:35.411Z</time></trkpt><trkpt lat="45.0928234" lon="7.4071532"><ele>339.0</ele><time>2026-05-01T07:19:36.412Z</time></trkpt><trkpt lat="45.0928618" lon="7.4068033"><ele>340.0</ele><time>2026-05-01T07:19:37.411Z</time></trkpt><trkpt lat="45.0929013" lon="7.4064561"><ele>340.5</ele><time>2026-05-01T07:19:38.411Z</time></trkpt><trkpt lat="45.0929413" lon="7.4061094"><ele>341.0</ele><time>2026-05-01T07:19:39.413Z</time></trkpt><trkpt lat="45.0929794" lon="7.4057629"><ele>340.5</ele><time>2026-05-01T07:19:40.411Z</time></trkpt><trkpt lat="45.0930197" lon="7.4054164"><ele>340.0</ele><time>2026-05-01T07:19:41.411Z</time></trkpt><trkpt lat="45.0930612" lon="7.405074"><ele>340.0</ele><time>2026-05-01T07:19:42.411Z</time></trkpt><trkpt lat="45.0931012" lon="7.4047346"><ele>340.0</ele><time>2026-05-01T07:19:43.411Z</time></trkpt><trkpt lat="45.0931363" lon="7.4043917"><ele>340.5</ele><time>2026-05-01T07:19:44.413Z</time></trkpt><trkpt lat="45.0931719" lon="7.4040562"><ele>341.0</ele><time>2026-05-01T07:19:45.411Z</time></trkpt><trkpt lat="45.0932062" lon="7.4037306"><ele>341.0</ele><time>2026-05-01T07:19:46.411Z</time></trkpt><trkpt lat="45.0932428" lon="7.4034109"><ele>341.0</ele><time>2026-05-01T07:19:47.411Z</time></trkpt><trkpt lat="45.0932777" lon="7.4031045"><ele>341.0</ele><time>2026-05-01T07:19:48.412Z</time></trkpt><trkpt lat="45.0933094" lon="7.4028165"><ele>341.6666666666667</ele><time>2026-05-01T07:19:49.412Z</time></trkpt><trkpt lat="45.093341" lon="7.4025369"><ele>342.3333333333333</ele><time>2026-05-01T07:19:50.411Z</time></trkpt><trkpt lat="45.0933716" lon="7.4022644"><ele>343.0</ele><time>2026-05-01T07:19:51.411Z</time></trkpt><trkpt lat="45.0934023" lon="7.4020072"><ele>343.0</ele><time>2026-05-01T07:19:52.411Z</time></trkpt><trkpt lat="45.0934324" lon="7.4017614"><ele>343.0</ele><time>2026-05-01T07:19:53.413Z</time></trkpt><trkpt lat="45.093464" lon="7.4015276"><ele>343.0</ele><time>2026-05-01T07:19:54.411Z</time></trkpt><trkpt lat="45.0934949" lon="7.4012994"><ele>343.3333333333333</ele><time>2026-05-01T07:19:55.412Z</time></trkpt><trkpt lat="45.0935261" lon="7.4010779"><ele>343.6666666666667</ele><time>2026-05-01T07:19:56.412Z</time></trkpt><trkpt lat="45.0935576" lon="7.4008581"><ele>344.0</ele><time>2026-05-01T07:19:57.411Z</time></trkpt><trkpt lat="45.0935914" lon="7.4006275"><ele>344.33333333333337</ele><time>2026-05-01T07:19:58.411Z</time></trkpt><trkpt lat="45.0936273" lon="7.400392"><ele>344.6666666666667</ele><time>2026-05-01T07:19:59.411Z</time></trkpt><trkpt lat="45.0936644" lon="7.4001557"><ele>345.0</ele><time>2026-05-01T07:20:00.411Z</time></trkpt><trkpt lat="45.0937003" lon="7.3999137"><ele>345.0</ele><time>2026-05-01T07:20:01.411Z</time></trkpt><trkpt lat="45.0937386" lon="7.3996667"><ele>345.0</ele><time>2026-05-01T07:20:02.411Z</time></trkpt><trkpt lat="45.0937786" lon="7.3994139"><ele>345.0</ele><time>2026-05-01T07:20:03.411Z</time></trkpt><trkpt lat="45.0938186" lon="7.3991563"><ele>345.0</ele><time>2026-05-01T07:20:04.411Z</time></trkpt><trkpt lat="45.0938573" lon="7.3989086"><ele>345.0</ele><time>2026-05-01T07:20:05.412Z</time></trkpt><trkpt lat="45.093895" lon="7.3986697"><ele>345.0</ele><time>2026-05-01T07:20:06.411Z</time></trkpt><trkpt lat="45.0939313" lon="7.398432"><ele>345.0</ele><time>2026-05-01T07:20:07.412Z</time></trkpt><trkpt lat="45.0939694" lon="7.3981882"><ele>345.0</ele><time>2026-05-01T07:20:08.411Z</time></trkpt><trkpt lat="45.0940057" lon="7.3979421"><ele>345.0</ele><time>2026-05-01T07:20:09.411Z</time></trkpt><trkpt lat="45.094044" lon="7.3976875"><ele>344.6666666666667</ele><time>2026-05-01T07:20:10.412Z</time></trkpt><trkpt lat="45.0940826" lon="7.3974327"><ele>344.33333333333337</ele><time>2026-05-01T07:20:11.411Z</time></trkpt><trkpt lat="45.0941206" lon="7.3971882"><ele>344.0</ele><time>2026-05-01T07:20:12.412Z</time></trkpt><trkpt lat="45.0941581" lon="7.3969539"><ele>344.0</ele><time>2026-05-01T07:20:13.411Z</time></trkpt><trkpt lat="45.0941997" lon="7.3967306"><ele>344.0</ele><time>2026-05-01T07:20:14.411Z</time></trkpt><trkpt lat="45.0942475" lon="7.3965174"><ele>344.0</ele><time>2026-05-01T07:20:15.411Z</time></trkpt><trkpt lat="45.0943033" lon="7.3963098"><ele>344.33333333333337</ele><time>2026-05-01T07:20:16.411Z</time></trkpt><trkpt lat="45.0943673" lon="7.3961038"><ele>344.6666666666667</ele><time>2026-05-01T07:20:17.411Z</time></trkpt><trkpt lat="45.0944335" lon="7.3958965"><ele>345.0</ele><time>2026-05-01T07:20:18.412Z</time></trkpt><trkpt lat="45.0944982" lon="7.3956883"><ele>345.0</ele><time>2026-05-01T07:20:19.411Z</time></trkpt><trkpt lat="45.0945566" lon="7.3954943"><ele>345.0</ele><time>2026-05-01T07:20:20.411Z</time></trkpt><trkpt lat="45.0946027" lon="7.3953211"><ele>345.0</ele><time>2026-05-01T07:20:21.411Z</time></trkpt><trkpt lat="45.0946389" lon="7.3951798"><ele>345.0</ele><time>2026-05-01T07:20:22.411Z</time></trkpt><trkpt lat="45.0946698" lon="7.3950592"><ele>345.0</ele><time>2026-05-01T07:20:23.412Z</time></trkpt><trkpt lat="45.0946947" lon="7.3949475"><ele>345.0</ele><time>2026-05-01T07:20:24.412Z</time></trkpt><trkpt lat="45.0947154" lon="7.3948389"><ele>345.0</ele><time>2026-05-01T07:20:25.411Z</time></trkpt><trkpt lat="45.0947351" lon="7.3947304"><ele>345.0</ele><time>2026-05-01T07:20:26.412Z</time></trkpt><trkpt lat="45.0947546" lon="7.3946233"><ele>345.0</ele><time>2026-05-01T07:20:27.412Z</time></trkpt><trkpt lat="45.0947714" lon="7.3945226"><ele>345.0</ele><time>2026-05-01T07:20:28.412Z</time></trkpt><trkpt lat="45.0947858" lon="7.3944252"><ele>345.2857142857143</ele><time>2026-05-01T07:20:29.411Z</time></trkpt><trkpt lat="45.0947992" lon="7.3943306"><ele>345.57142857142856</ele><time>2026-05-01T07:20:30.412Z</time></trkpt><trkpt lat="45.0948117" lon="7.3942363"><ele>345.8571428571429</ele><time>2026-05-01T07:20:31.411Z</time></trkpt><trkpt lat="45.0948237" lon="7.3941396"><ele>346.1428571428571</ele><time>2026-05-01T07:20:32.412Z</time></trkpt><trkpt lat="45.094837" lon="7.3940414"><ele>346.4285714285714</ele><time>2026-05-01T07:20:33.411Z</time></trkpt><trkpt lat="45.0948525" lon="7.3939335"><ele>346.7142857142857</ele><time>2026-05-01T07:20:34.411Z</time></trkpt><trkpt lat="45.0948721" lon="7.3938039"><ele>347.0</ele><time>2026-05-01T07:20:35.411Z</time></trkpt><trkpt lat="45.0948931" lon="7.393665"><ele>347.0</ele><time>2026-05-01T07:20:36.411Z</time></trkpt><trkpt lat="45.0949096" lon="7.3935144"><ele>347.0</ele><time>2026-05-01T07:20:37.412Z</time></trkpt><trkpt lat="45.0949221" lon="7.3933518"><ele>347.0</ele><time>2026-05-01T07:20:38.412Z</time></trkpt><trkpt lat="45.0949296" lon="7.3931782"><ele>347.0</ele><time>2026-05-01T07:20:39.411Z</time></trkpt><trkpt lat="45.0949365" lon="7.3929978"><ele>346.5</ele><time>2026-05-01T07:20:40.411Z</time></trkpt><trkpt lat="45.0949383" lon="7.3928062"><ele>346.0</ele><time>2026-05-01T07:20:41.411Z</time></trkpt><trkpt lat="45.094937" lon="7.392607"><ele>345.5</ele><time>2026-05-01T07:20:42.411Z</time></trkpt><trkpt lat="45.094939" lon="7.3924016"><ele>345.0</ele><time>2026-05-01T07:20:43.411Z</time></trkpt><trkpt lat="45.094944" lon="7.3921885"><ele>345.3333333333333</ele><time>2026-05-01T07:20:44.412Z</time></trkpt><trkpt lat="45.0949511" lon="7.3919694"><ele>345.66666666666663</ele><time>2026-05-01T07:20:45.411Z</time></trkpt><trkpt lat="45.0949633" lon="7.3917473"><ele>346.0</ele><time>2026-05-01T07:20:46.411Z</time></trkpt><trkpt lat="45.0949867" lon="7.3915267"><ele>346.3333333333333</ele><time>2026-05-01T07:20:47.412Z</time></trkpt><trkpt lat="45.0950183" lon="7.3913066"><ele>346.6666666666667</ele><time>2026-05-01T07:20:48.412Z</time></trkpt><trkpt lat="45.0950505" lon="7.3910799"><ele>347.0</ele><time>2026-05-01T07:20:49.411Z</time></trkpt><trkpt lat="45.0950805" lon="7.3908455"><ele>347.0</ele><time>2026-05-01T07:20:50.411Z</time></trkpt><trkpt lat="45.0951083" lon="7.3905999"><ele>347.0</ele><time>2026-05-01T07:20:51.411Z</time></trkpt><trkpt lat="45.0951347" lon="7.3903587"><ele>347.0</ele><time>2026-05-01T07:20:52.411Z</time></trkpt><trkpt lat="45.0951651" lon="7.3900885"><ele>346.6666666666667</ele><time>2026-05-01T07:20:53.411Z</time></trkpt><trkpt lat="45.095206" lon="7.3898022"><ele>346.3333333333333</ele><time>2026-05-01T07:20:54.411Z</time></trkpt><trkpt lat="45.0952622" lon="7.3894987"><ele>346.0</ele><time>2026-05-01T07:20:55.411Z</time></trkpt><trkpt lat="45.0953227" lon="7.3891871"><ele>346.0</ele><time>2026-05-01T07:20:56.411Z</time></trkpt><trkpt lat="45.0953769" lon="7.388879"><ele>346.0</ele><time>2026-05-01T07:20:57.411Z</time></trkpt><trkpt lat="45.0954227" lon="7.3885868"><ele>346.0</ele><time>2026-05-01T07:20:58.411Z</time></trkpt><trkpt lat="45.0954685" lon="7.3883045"><ele>346.3333333333333</ele><time>2026-05-01T07:20:59.411Z</time></trkpt><trkpt lat="45.0955114" lon="7.3880308"><ele>346.6666666666667</ele><time>2026-05-01T07:21:00.411Z</time></trkpt><trkpt lat="45.0955544" lon="7.3877571"><ele>347.0</ele><time>2026-05-01T07:21:01.411Z</time></trkpt><trkpt lat="45.0955979" lon="7.3874858"><ele>347.0</ele><time>2026-05-01T07:21:02.412Z</time></trkpt><trkpt lat="45.0956415" lon="7.3872135"><ele>347.0</ele><time>2026-05-01T07:21:03.411Z</time></trkpt><trkpt lat="45.0956839" lon="7.386942"><ele>347.0</ele><time>2026-05-01T07:21:04.412Z</time></trkpt><trkpt lat="45.0957255" lon="7.3866686"><ele>347.33333333333337</ele><time>2026-05-01T07:21:05.412Z</time></trkpt><trkpt lat="45.0957645" lon="7.3863922"><ele>347.6666666666667</ele><time>2026-05-01T07:21:06.411Z</time></trkpt><trkpt lat="45.095807" lon="7.3861228"><ele>348.0</ele><time>2026-05-01T07:21:07.411Z</time></trkpt><trkpt lat="45.0958465" lon="7.3858665"><ele>348.0</ele><time>2026-05-01T07:21:08.411Z</time></trkpt><trkpt lat="45.0958845" lon="7.3856177"><ele>348.0</ele><time>2026-05-01T07:21:09.411Z</time></trkpt><trkpt lat="45.0959211" lon="7.3853646"><ele>348.0</ele><time>2026-05-01T07:21:10.411Z</time></trkpt><trkpt lat="45.0959621" lon="7.3851058"><ele>348.0</ele><time>2026-05-01T07:21:11.412Z</time></trkpt><trkpt lat="45.0960034" lon="7.3848341"><ele>348.0</ele><time>2026-05-01T07:21:12.412Z</time></trkpt><trkpt lat="45.0960421" lon="7.3845546"><ele>348.0</ele><time>2026-05-01T07:21:13.411Z</time></trkpt><trkpt lat="45.0960848" lon="7.3842653"><ele>348.0</ele><time>2026-05-01T07:21:14.411Z</time></trkpt><trkpt lat="45.0961263" lon="7.383974"><ele>348.0</ele><time>2026-05-01T07:21:15.411Z</time></trkpt><trkpt lat="45.0961705" lon="7.3836725"><ele>348.0</ele><time>2026-05-01T07:21:16.411Z</time></trkpt><trkpt lat="45.0962167" lon="7.3833668"><ele>347.5</ele><time>2026-05-01T07:21:17.411Z</time></trkpt><trkpt lat="45.0962665" lon="7.3830536"><ele>347.0</ele><time>2026-05-01T07:21:18.411Z</time></trkpt><trkpt lat="45.0963167" lon="7.3827358"><ele>347.0</ele><time>2026-05-01T07:21:19.411Z</time></trkpt><trkpt lat="45.0963666" lon="7.3824092"><ele>347.0</ele><time>2026-05-01T07:21:20.411Z</time></trkpt><trkpt lat="45.0964167" lon="7.38208"><ele>347.5</ele><time>2026-05-01T07:21:21.412Z</time></trkpt><trkpt lat="45.0964707" lon="7.3817583"><ele>348.0</ele><time>2026-05-01T07:21:22.411Z</time></trkpt><trkpt lat="45.096525" lon="7.3814322"><ele>347.5</ele><time>2026-05-01T07:21:23.412Z</time></trkpt><trkpt lat="45.0965837" lon="7.3811073"><ele>347.0</ele><time>2026-05-01T07:21:24.411Z</time></trkpt><trkpt lat="45.0966457" lon="7.38078"><ele>349.0</ele><time>2026-05-01T07:21:25.411Z</time></trkpt><trkpt lat="45.0967152" lon="7.3804543"><ele>351.0</ele><time>2026-05-01T07:21:26.411Z</time></trkpt><trkpt lat="45.0967936" lon="7.3801315"><ele>351.0</ele><time>2026-05-01T07:21:27.411Z</time></trkpt><trkpt lat="45.0968769" lon="7.3798081"><ele>351.0</ele><time>2026-05-01T07:21:28.411Z</time></trkpt><trkpt lat="45.0969676" lon="7.3794897"><ele>350.5</ele><time>2026-05-01T07:21:29.411Z</time></trkpt><trkpt lat="45.0970664" lon="7.3791758"><ele>350.0</ele><time>2026-05-01T07:21:30.411Z</time></trkpt><trkpt lat="45.0971701" lon="7.378868"><ele>349.0</ele><time>2026-05-01T07:21:31.411Z</time></trkpt><trkpt lat="45.0972784" lon="7.3785654"><ele>348.0</ele><time>2026-05-01T07:21:32.411Z</time></trkpt><trkpt lat="45.097389" lon="7.3782792"><ele>348.5</ele><time>2026-05-01T07:21:33.411Z</time></trkpt><trkpt lat="45.0975023" lon="7.3779992"><ele>349.0</ele><time>2026-05-01T07:21:34.411Z</time></trkpt><trkpt lat="45.0976211" lon="7.377723"><ele>349.0</ele><time>2026-05-01T07:21:35.412Z</time></trkpt><trkpt lat="45.0977449" lon="7.3774499"><ele>349.0</ele><time>2026-05-01T07:21:36.411Z</time></trkpt><trkpt lat="45.0978718" lon="7.3771839"><ele>349.3333333333333</ele><time>2026-05-01T07:21:37.411Z</time></trkpt><trkpt lat="45.0979986" lon="7.3769237"><ele>349.6666666666667</ele><time>2026-05-01T07:21:38.411Z</time></trkpt><trkpt lat="45.0981326" lon="7.3766687"><ele>350.0</ele><time>2026-05-01T07:21:39.412Z</time></trkpt><trkpt lat="45.0982722" lon="7.3764168"><ele>351.0</ele><time>2026-05-01T07:21:40.411Z</time></trkpt><trkpt lat="45.0984196" lon="7.3761679"><ele>352.0</ele><time>2026-05-01T07:21:41.411Z</time></trkpt><trkpt lat="45.0985721" lon="7.3759236"><ele>352.0</ele><time>2026-05-01T07:21:42.412Z</time></trkpt><trkpt lat="45.0987315" lon="7.3756861"><ele>352.0</ele><time>2026-05-01T07:21:43.411Z</time></trkpt><trkpt lat="45.0988957" lon="7.3754522"><ele>352.0</ele><time>2026-05-01T07:21:44.411Z</time></trkpt><trkpt lat="45.099061" lon="7.3752265"><ele>352.0</ele><time>2026-05-01T07:21:45.411Z</time></trkpt><trkpt lat="45.0992295" lon="7.3750064"><ele>351.5</ele><time>2026-05-01T07:21:46.411Z</time></trkpt><trkpt lat="45.0994037" lon="7.3747922"><ele>351.0</ele><time>2026-05-01T07:21:47.411Z</time></trkpt><trkpt lat="45.0995805" lon="7.3745786"><ele>351.0</ele><time>2026-05-01T07:21:48.411Z</time></trkpt><trkpt lat="45.0997643" lon="7.3743719"><ele>351.0</ele><time>2026-05-01T07:21:49.411Z</time></trkpt><trkpt lat="45.0999532" lon="7.3741712"><ele>351.5</ele><time>2026-05-01T07:21:50.412Z</time></trkpt><trkpt lat="45.1001516" lon="7.3739793"><ele>352.0</ele><time>2026-05-01T07:21:51.411Z</time></trkpt><trkpt lat="45.1003537" lon="7.3737928"><ele>352.0</ele><time>2026-05-01T07:21:52.412Z</time></trkpt><trkpt lat="45.100554" lon="7.3736033"><ele>352.0</ele><time>2026-05-01T07:21:53.411Z</time></trkpt><trkpt lat="45.100755" lon="7.3734149"><ele>352.0</ele><time>2026-05-01T07:21:54.411Z</time></trkpt><trkpt lat="45.1009513" lon="7.3732306"><ele>352.0</ele><time>2026-05-01T07:21:55.411Z</time></trkpt><trkpt lat="45.1011456" lon="7.3730424"><ele>352.0</ele><time>2026-05-01T07:21:56.411Z</time></trkpt><trkpt lat="45.1013431" lon="7.3728579"><ele>352.0</ele><time>2026-05-01T07:21:57.411Z</time></trkpt><trkpt lat="45.101538" lon="7.3726718"><ele>351.5</ele><time>2026-05-01T07:21:58.412Z</time></trkpt><trkpt lat="45.1017308" lon="7.3724895"><ele>351.0</ele><time>2026-05-01T07:21:59.411Z</time></trkpt><trkpt lat="45.1019188" lon="7.3723136"><ele>350.6666666666667</ele><time>2026-05-01T07:22:00.411Z</time></trkpt><trkpt lat="45.1021059" lon="7.3721381"><ele>350.33333333333337</ele><time>2026-05-01T07:22:01.411Z</time></trkpt><trkpt lat="45.1022892" lon="7.3719719"><ele>350.0</ele><time>2026-05-01T07:22:02.411Z</time></trkpt><trkpt lat="45.1024697" lon="7.3718033"><ele>351.0</ele><time>2026-05-01T07:22:03.411Z</time></trkpt><trkpt lat="45.1026501" lon="7.371631"><ele>352.0</ele><time>2026-05-01T07:22:04.411Z</time></trkpt><trkpt lat="45.1028314" lon="7.371461"><ele>353.0</ele><time>2026-05-01T07:22:05.411Z</time></trkpt><trkpt lat="45.1030116" lon="7.3712912"><ele>353.0</ele><time>2026-05-01T07:22:06.412Z</time></trkpt><trkpt lat="45.1031928" lon="7.3711231"><ele>353.0</ele><time>2026-05-01T07:22:07.411Z</time></trkpt><trkpt lat="45.1033764" lon="7.3709562"><ele>353.0</ele><time>2026-05-01T07:22:08.411Z</time></trkpt><trkpt lat="45.1035576" lon="7.3707885"><ele>353.0</ele><time>2026-05-01T07:22:09.411Z</time></trkpt><trkpt lat="45.1037365" lon="7.3706181"><ele>353.0</ele><time>2026-05-01T07:22:10.411Z</time></trkpt><trkpt lat="45.103919" lon="7.3704479"><ele>353.0</ele><time>2026-05-01T07:22:11.411Z</time></trkpt><trkpt lat="45.1041004" lon="7.3702744"><ele>353.33333333333337</ele><time>2026-05-01T07:22:12.411Z</time></trkpt><trkpt lat="45.1042813" lon="7.3701039"><ele>353.6666666666667</ele><time>2026-05-01T07:22:13.411Z</time></trkpt><trkpt lat="45.1044613" lon="7.3699411"><ele>354.0</ele><time>2026-05-01T07:22:14.412Z</time></trkpt><trkpt lat="45.104641" lon="7.3697761"><ele>354.3333333333333</ele><time>2026-05-01T07:22:15.411Z</time></trkpt><trkpt lat="45.104824" lon="7.3696046"><ele>354.66666666666663</ele><time>2026-05-01T07:22:16.411Z</time></trkpt><trkpt lat="45.1050095" lon="7.3694326"><ele>355.0</ele><time>2026-05-01T07:22:17.411Z</time></trkpt><trkpt lat="45.1051976" lon="7.3692577"><ele>356.0</ele><time>2026-05-01T07:22:18.411Z</time></trkpt><trkpt lat="45.1053888" lon="7.3690784"><ele>357.0</ele><time>2026-05-01T07:22:19.411Z</time></trkpt><trkpt lat="45.1055817" lon="7.3688975"><ele>357.0</ele><time>2026-05-01T07:22:20.411Z</time></trkpt><trkpt lat="45.1057729" lon="7.3687142"><ele>357.0</ele><time>2026-05-01T07:22:21.411Z</time></trkpt><trkpt lat="45.1059637" lon="7.3685315"><ele>357.0</ele><time>2026-05-01T07:22:22.411Z</time></trkpt><trkpt lat="45.1061532" lon="7.3683464"><ele>357.0</ele><time>2026-05-01T07:22:23.412Z</time></trkpt><trkpt lat="45.1063427" lon="7.3681574"><ele>357.0</ele><time>2026-05-01T07:22:24.413Z</time></trkpt><trkpt lat="45.1065271" lon="7.3679571"><ele>357.0</ele><time>2026-05-01T07:22:25.412Z</time></trkpt><trkpt lat="45.1067095" lon="7.367749"><ele>357.0</ele><time>2026-05-01T07:22:26.411Z</time></trkpt><trkpt lat="45.1068882" lon="7.3675308"><ele>357.0</ele><time>2026-05-01T07:22:27.412Z</time></trkpt><trkpt lat="45.1070665" lon="7.3673082"><ele>357.0</ele><time>2026-05-01T07:22:28.411Z</time></trkpt><trkpt lat="45.1072418" lon="7.3670789"><ele>357.0</ele><time>2026-05-01T07:22:29.411Z</time></trkpt><trkpt lat="45.1074134" lon="7.3668384"><ele>357.0</ele><time>2026-05-01T07:22:30.412Z</time></trkpt><trkpt lat="45.1075782" lon="7.3665924"><ele>357.0</ele><time>2026-05-01T07:22:31.411Z</time></trkpt><trkpt lat="45.1077416" lon="7.3663417"><ele>357.0</ele><time>2026-05-01T07:22:32.411Z</time></trkpt><trkpt lat="45.1078974" lon="7.3660792"><ele>357.0</ele><time>2026-05-01T07:22:33.411Z</time></trkpt><trkpt lat="45.1080498" lon="7.3658134"><ele>357.0</ele><time>2026-05-01T07:22:34.412Z</time></trkpt><trkpt lat="45.1081952" lon="7.3655486"><ele>357.0</ele><time>2026-05-01T07:22:35.411Z</time></trkpt><trkpt lat="45.1083369" lon="7.365277"><ele>356.5</ele><time>2026-05-01T07:22:36.411Z</time></trkpt><trkpt lat="45.1084749" lon="7.3650053"><ele>356.0</ele><time>2026-05-01T07:22:37.411Z</time></trkpt><trkpt lat="45.1086056" lon="7.3647288"><ele>355.0</ele><time>2026-05-01T07:22:38.412Z</time></trkpt><trkpt lat="45.1087277" lon="7.3644518"><ele>354.0</ele><time>2026-05-01T07:22:39.411Z</time></trkpt><trkpt lat="45.1088431" lon="7.3641707"><ele>354.0</ele><time>2026-05-01T07:22:40.412Z</time></trkpt><trkpt lat="45.1089522" lon="7.3638931"><ele>354.0</ele><time>2026-05-01T07:22:41.411Z</time></trkpt><trkpt lat="45.1090538" lon="7.3636122"><ele>354.0</ele><time>2026-05-01T07:22:42.411Z</time></trkpt><trkpt lat="45.1091527" lon="7.3633311"><ele>354.6666666666667</ele><time>2026-05-01T07:22:43.412Z</time></trkpt><trkpt lat="45.1092465" lon="7.3630523"><ele>355.33333333333337</ele><time>2026-05-01T07:22:44.411Z</time></trkpt><trkpt lat="45.1093344" lon="7.3627754"><ele>356.0</ele><time>2026-05-01T07:22:45.411Z</time></trkpt><trkpt lat="45.1094166" lon="7.3624979"><ele>356.33333333333337</ele><time>2026-05-01T07:22:46.411Z</time></trkpt><trkpt lat="45.1094944" lon="7.3622217"><ele>356.6666666666667</ele><time>2026-05-01T07:22:47.411Z</time></trkpt><trkpt lat="45.1095742" lon="7.3619467"><ele>357.0</ele><time>2026-05-01T07:22:48.411Z</time></trkpt><trkpt lat="45.1096566" lon="7.3616716"><ele>357.0</ele><time>2026-05-01T07:22:49.411Z</time></trkpt><trkpt lat="45.1097395" lon="7.3613968"><ele>357.0</ele><time>2026-05-01T07:22:50.411Z</time></trkpt><trkpt lat="45.1098231" lon="7.3611219"><ele>357.0</ele><time>2026-05-01T07:22:51.411Z</time></trkpt><trkpt lat="45.1099048" lon="7.3608457"><ele>356.6666666666667</ele><time>2026-05-01T07:22:52.411Z</time></trkpt><trkpt lat="45.1099894" lon="7.3605681"><ele>356.33333333333337</ele><time>2026-05-01T07:22:53.411Z</time></trkpt><trkpt lat="45.1100718" lon="7.3602854"><ele>356.0</ele><time>2026-05-01T07:22:54.411Z</time></trkpt><trkpt lat="45.1101537" lon="7.359999"><ele>356.0</ele><time>2026-05-01T07:22:55.411Z</time></trkpt><trkpt lat="45.1102339" lon="7.3597187"><ele>356.0</ele><time>2026-05-01T07:22:56.411Z</time></trkpt><trkpt lat="45.1103137" lon="7.3594508"><ele>356.0</ele><time>2026-05-01T07:22:57.412Z</time></trkpt><trkpt lat="45.1103912" lon="7.3591887"><ele>356.0</ele><time>2026-05-01T07:22:58.412Z</time></trkpt><trkpt lat="45.110469" lon="7.3589271"><ele>356.0</ele><time>2026-05-01T07:22:59.411Z</time></trkpt><trkpt lat="45.1105479" lon="7.3586605"><ele>356.0</ele><time>2026-05-01T07:23:00.411Z</time></trkpt><trkpt lat="45.1106273" lon="7.3583876"><ele>356.0</ele><time>2026-05-01T07:23:01.411Z</time></trkpt><trkpt lat="45.1107089" lon="7.3581121"><ele>356.0</ele><time>2026-05-01T07:23:02.412Z</time></trkpt><trkpt lat="45.1107913" lon="7.3578375"><ele>356.0</ele><time>2026-05-01T07:23:03.411Z</time></trkpt><trkpt lat="45.1108707" lon="7.3575603"><ele>356.6666666666667</ele><time>2026-05-01T07:23:04.411Z</time></trkpt><trkpt lat="45.1109481" lon="7.3572862"><ele>357.3333333333333</ele><time>2026-05-01T07:23:05.411Z</time></trkpt><trkpt lat="45.1110228" lon="7.3570097"><ele>358.0</ele><time>2026-05-01T07:23:06.412Z</time></trkpt><trkpt lat="45.1110941" lon="7.3567296"><ele>358.0</ele><time>2026-05-01T07:23:07.411Z</time></trkpt><trkpt lat="45.111161" lon="7.3564431"><ele>358.0</ele><time>2026-05-01T07:23:08.411Z</time></trkpt><trkpt lat="45.111224" lon="7.3561492"><ele>358.0</ele><time>2026-05-01T07:23:09.412Z</time></trkpt><trkpt lat="45.1112837" lon="7.3558447"><ele>357.0</ele><time>2026-05-01T07:23:10.411Z</time></trkpt><trkpt lat="45.1113379" lon="7.3555299"><ele>356.0</ele><time>2026-05-01T07:23:11.411Z</time></trkpt><trkpt lat="45.1113889" lon="7.3552113"><ele>356.0</ele><time>2026-05-01T07:23:12.411Z</time></trkpt><trkpt lat="45.1114327" lon="7.3548888"><ele>356.0</ele><time>2026-05-01T07:23:13.412Z</time></trkpt><trkpt lat="45.1114715" lon="7.3545662"><ele>357.0</ele><time>2026-05-01T07:23:14.412Z</time></trkpt><trkpt lat="45.1115058" lon="7.3542431"><ele>358.0</ele><time>2026-05-01T07:23:15.411Z</time></trkpt><trkpt lat="45.1115327" lon="7.3539228"><ele>358.0</ele><time>2026-05-01T07:23:16.411Z</time></trkpt><trkpt lat="45.1115562" lon="7.353604"><ele>358.0</ele><time>2026-05-01T07:23:17.411Z</time></trkpt><trkpt lat="45.1115741" lon="7.3532822"><ele>358.0</ele><time>2026-05-01T07:23:18.411Z</time></trkpt><trkpt lat="45.1115874" lon="7.3529605"><ele>358.0</ele><time>2026-05-01T07:23:19.411Z</time></trkpt><trkpt lat="45.1115939" lon="7.3526383"><ele>358.0</ele><time>2026-05-01T07:23:20.411Z</time></trkpt><trkpt lat="45.1115998" lon="7.3523128"><ele>358.0</ele><time>2026-05-01T07:23:21.411Z</time></trkpt><trkpt lat="45.1116066" lon="7.3519883"><ele>358.5</ele><time>2026-05-01T07:23:22.411Z</time></trkpt><trkpt lat="45.1116141" lon="7.3516679"><ele>359.0</ele><time>2026-05-01T07:23:23.411Z</time></trkpt><trkpt lat="45.1116227" lon="7.3513479"><ele>359.0</ele><time>2026-05-01T07:23:24.411Z</time></trkpt><trkpt lat="45.1116302" lon="7.3510309"><ele>359.0</ele><time>2026-05-01T07:23:25.411Z</time></trkpt><trkpt lat="45.1116377" lon="7.3507159"><ele>359.0</ele><time>2026-05-01T07:23:26.412Z</time></trkpt><trkpt lat="45.1116459" lon="7.350406"><ele>359.33333333333337</ele><time>2026-05-01T07:23:27.412Z</time></trkpt><trkpt lat="45.111653" lon="7.3500964"><ele>359.6666666666667</ele><time>2026-05-01T07:23:28.411Z</time></trkpt><trkpt lat="45.1116611" lon="7.3497915"><ele>360.0</ele><time>2026-05-01T07:23:29.411Z</time></trkpt><trkpt lat="45.1116684" lon="7.3494826"><ele>360.3333333333333</ele><time>2026-05-01T07:23:30.411Z</time></trkpt><trkpt lat="45.1116745" lon="7.3491763"><ele>360.66666666666663</ele><time>2026-05-01T07:23:31.412Z</time></trkpt><trkpt lat="45.1116801" lon="7.3488736"><ele>361.0</ele><time>2026-05-01T07:23:32.411Z</time></trkpt><trkpt lat="45.1116852" lon="7.348571"><ele>361.0</ele><time>2026-05-01T07:23:33.412Z</time></trkpt><trkpt lat="45.1116917" lon="7.3482677"><ele>361.0</ele><time>2026-05-01T07:23:34.412Z</time></trkpt><trkpt lat="45.1116974" lon="7.3479606"><ele>361.0</ele><time>2026-05-01T07:23:35.411Z</time></trkpt><trkpt lat="45.1116993" lon="7.3476553"><ele>360.66666666666663</ele><time>2026-05-01T07:23:36.411Z</time></trkpt><trkpt lat="45.1116939" lon="7.3473562"><ele>360.3333333333333</ele><time>2026-05-01T07:23:37.412Z</time></trkpt><trkpt lat="45.1116838" lon="7.3470589"><ele>360.0</ele><time>2026-05-01T07:23:38.412Z</time></trkpt><trkpt lat="45.1116672" lon="7.3467646"><ele>360.0</ele><time>2026-05-01T07:23:39.411Z</time></trkpt><trkpt lat="45.1116438" lon="7.3464734"><ele>360.0</ele><time>2026-05-01T07:23:40.411Z</time></trkpt><trkpt lat="45.1116175" lon="7.3461837"><ele>360.0</ele><time>2026-05-01T07:23:41.412Z</time></trkpt><trkpt lat="45.1115858" lon="7.3458927"><ele>359.6666666666667</ele><time>2026-05-01T07:23:42.411Z</time></trkpt><trkpt lat="45.1115491" lon="7.3455985"><ele>359.33333333333337</ele><time>2026-05-01T07:23:43.411Z</time></trkpt><trkpt lat="45.1115075" lon="7.3452998"><ele>359.0</ele><time>2026-05-01T07:23:44.411Z</time></trkpt><trkpt lat="45.1114651" lon="7.3450055"><ele>359.6666666666667</ele><time>2026-05-01T07:23:45.411Z</time></trkpt><trkpt lat="45.1114246" lon="7.34471"><ele>360.3333333333333</ele><time>2026-05-01T07:23:46.411Z</time></trkpt><trkpt lat="45.1113856" lon="7.3444259"><ele>361.0</ele><time>2026-05-01T07:23:47.413Z</time></trkpt><trkpt lat="45.1113477" lon="7.3441453"><ele>360.66666666666663</ele><time>2026-05-01T07:23:48.411Z</time></trkpt><trkpt lat="45.1113123" lon="7.3438793"><ele>360.3333333333333</ele><time>2026-05-01T07:23:49.412Z</time></trkpt><trkpt lat="45.1112793" lon="7.3436395"><ele>360.0</ele><time>2026-05-01T07:23:50.411Z</time></trkpt><trkpt lat="45.1112471" lon="7.3434238"><ele>360.0</ele><time>2026-05-01T07:23:51.411Z</time></trkpt><trkpt lat="45.1112173" lon="7.3432163"><ele>360.0</ele><time>2026-05-01T07:23:52.411Z</time></trkpt><trkpt lat="45.1111881" lon="7.3430177"><ele>360.0</ele><time>2026-05-01T07:23:53.411Z</time></trkpt><trkpt lat="45.1111585" lon="7.3428201"><ele>360.0</ele><time>2026-05-01T07:23:54.411Z</time></trkpt><trkpt lat="45.111129" lon="7.3426177"><ele>360.0</ele><time>2026-05-01T07:23:55.412Z</time></trkpt><trkpt lat="45.1110982" lon="7.3424138"><ele>360.0</ele><time>2026-05-01T07:23:56.411Z</time></trkpt><trkpt lat="45.111068" lon="7.3422066"><ele>360.0</ele><time>2026-05-01T07:23:57.411Z</time></trkpt><trkpt lat="45.1110385" lon="7.3419938"><ele>360.0</ele><time>2026-05-01T07:23:58.411Z</time></trkpt><trkpt lat="45.1110093" lon="7.3417716"><ele>360.0</ele><time>2026-05-01T07:23:59.412Z</time></trkpt><trkpt lat="45.1109776" lon="7.3415433"><ele>360.0</ele><time>2026-05-01T07:24:00.411Z</time></trkpt><trkpt lat="45.1109418" lon="7.341302"><ele>360.3333333333333</ele><time>2026-05-01T07:24:01.411Z</time></trkpt><trkpt lat="45.1109092" lon="7.3410547"><ele>360.66666666666663</ele><time>2026-05-01T07:24:02.412Z</time></trkpt><trkpt lat="45.1108705" lon="7.3408009"><ele>361.0</ele><time>2026-05-01T07:24:03.412Z</time></trkpt><trkpt lat="45.1108345" lon="7.3405392"><ele>361.3333333333333</ele><time>2026-05-01T07:24:04.411Z</time></trkpt><trkpt lat="45.1107968" lon="7.3402758"><ele>361.6666666666667</ele><time>2026-05-01T07:24:05.412Z</time></trkpt><trkpt lat="45.11076" lon="7.3400174"><ele>362.0</ele><time>2026-05-01T07:24:06.411Z</time></trkpt><trkpt lat="45.1107245" lon="7.3397611"><ele>362.0</ele><time>2026-05-01T07:24:07.412Z</time></trkpt><trkpt lat="45.1106882" lon="7.3395022"><ele>362.0</ele><time>2026-05-01T07:24:08.413Z</time></trkpt><trkpt lat="45.1106511" lon="7.3392372"><ele>362.0</ele><time>2026-05-01T07:24:09.412Z</time></trkpt><trkpt lat="45.1106153" lon="7.3389698"><ele>361.6666666666667</ele><time>2026-05-01T07:24:10.411Z</time></trkpt><trkpt lat="45.1105806" lon="7.3387074"><ele>361.3333333333333</ele><time>2026-05-01T07:24:11.411Z</time></trkpt><trkpt lat="45.1105435" lon="7.3384487"><ele>361.0</ele><time>2026-05-01T07:24:12.411Z</time></trkpt><trkpt lat="45.11051" lon="7.3381991"><ele>361.3333333333333</ele><time>2026-05-01T07:24:13.412Z</time></trkpt><trkpt lat="45.1104743" lon="7.3379526"><ele>361.6666666666667</ele><time>2026-05-01T07:24:14.411Z</time></trkpt><trkpt lat="45.1104375" lon="7.3377058"><ele>362.0</ele><time>2026-05-01T07:24:15.412Z</time></trkpt><trkpt lat="45.1104007" lon="7.3374558"><ele>362.33333333333337</ele><time>2026-05-01T07:24:16.411Z</time></trkpt><trkpt lat="45.1103649" lon="7.3371972"><ele>362.6666666666667</ele><time>2026-05-01T07:24:17.411Z</time></trkpt><trkpt lat="45.1103288" lon="7.3369412"><ele>363.0</ele><time>2026-05-01T07:24:18.411Z</time></trkpt><trkpt lat="45.1102921" lon="7.3366809"><ele>363.0</ele><time>2026-05-01T07:24:19.412Z</time></trkpt><trkpt lat="45.1102559" lon="7.336416"><ele>363.0</ele><time>2026-05-01T07:24:20.412Z</time></trkpt><trkpt lat="45.110219" lon="7.3361489"><ele>363.0</ele><time>2026-05-01T07:24:21.411Z</time></trkpt><trkpt lat="45.11018" lon="7.3358761"><ele>363.0</ele><time>2026-05-01T07:24:22.411Z</time></trkpt><trkpt lat="45.1101401" lon="7.3355981"><ele>363.0</ele><time>2026-05-01T07:24:23.411Z</time></trkpt><trkpt lat="45.1101005" lon="7.3353153"><ele>363.0</ele><time>2026-05-01T07:24:24.411Z</time></trkpt><trkpt lat="45.1100638" lon="7.3350338"><ele>363.0</ele><time>2026-05-01T07:24:25.411Z</time></trkpt><trkpt lat="45.1100305" lon="7.3347632"><ele>363.0</ele><time>2026-05-01T07:24:26.412Z</time></trkpt><trkpt lat="45.1100058" lon="7.3344997"><ele>363.0</ele><time>2026-05-01T07:24:27.412Z</time></trkpt><trkpt lat="45.1099861" lon="7.3342372"><ele>363.0</ele><time>2026-05-01T07:24:28.411Z</time></trkpt><trkpt lat="45.1099691" lon="7.3339762"><ele>363.0</ele><time>2026-05-01T07:24:29.411Z</time></trkpt><trkpt lat="45.1099554" lon="7.3337182"><ele>363.0</ele><time>2026-05-01T07:24:30.411Z</time></trkpt><trkpt lat="45.1099465" lon="7.3334659"><ele>363.3333333333333</ele><time>2026-05-01T07:24:31.411Z</time></trkpt><trkpt lat="45.1099415" lon="7.3332126"><ele>363.66666666666663</ele><time>2026-05-01T07:24:32.411Z</time></trkpt><trkpt lat="45.1099389" lon="7.3329576"><ele>364.0</ele><time>2026-05-01T07:24:33.412Z</time></trkpt><trkpt lat="45.1099381" lon="7.3327012"><ele>364.0</ele><time>2026-05-01T07:24:34.411Z</time></trkpt><trkpt lat="45.109938" lon="7.3324436"><ele>364.0</ele><time>2026-05-01T07:24:35.411Z</time></trkpt><trkpt lat="45.1099406" lon="7.3321806"><ele>364.0</ele><time>2026-05-01T07:24:36.411Z</time></trkpt><trkpt lat="45.1099417" lon="7.3319172"><ele>364.66666666666663</ele><time>2026-05-01T07:24:37.411Z</time></trkpt><trkpt lat="45.1099423" lon="7.3316509"><ele>365.3333333333333</ele><time>2026-05-01T07:24:38.411Z</time></trkpt><trkpt lat="45.1099431" lon="7.3313867"><ele>366.0</ele><time>2026-05-01T07:24:39.411Z</time></trkpt><trkpt lat="45.1099444" lon="7.3311187"><ele>366.0</ele><time>2026-05-01T07:24:40.412Z</time></trkpt><trkpt lat="45.109945" lon="7.3308529"><ele>366.0</ele><time>2026-05-01T07:24:41.411Z</time></trkpt><trkpt lat="45.1099429" lon="7.3305873"><ele>366.0</ele><time>2026-05-01T07:24:42.411Z</time></trkpt><trkpt lat="45.1099406" lon="7.3303227"><ele>366.0</ele><time>2026-05-01T07:24:43.411Z</time></trkpt><trkpt lat="45.1099404" lon="7.3300586"><ele>366.0</ele><time>2026-05-01T07:24:44.411Z</time></trkpt><trkpt lat="45.1099395" lon="7.329797"><ele>366.0</ele><time>2026-05-01T07:24:45.411Z</time></trkpt><trkpt lat="45.1099417" lon="7.3295378"><ele>366.0</ele><time>2026-05-01T07:24:46.411Z</time></trkpt><trkpt lat="45.1099405" lon="7.3292862"><ele>366.0</ele><time>2026-05-01T07:24:47.411Z</time></trkpt><trkpt lat="45.1099349" lon="7.329035"><ele>366.0</ele><time>2026-05-01T07:24:48.411Z</time></trkpt><trkpt lat="45.1099276" lon="7.3287869"><ele>365.6666666666667</ele><time>2026-05-01T07:24:49.412Z</time></trkpt><trkpt lat="45.1099157" lon="7.3285401"><ele>365.33333333333337</ele><time>2026-05-01T07:24:50.412Z</time></trkpt><trkpt lat="45.1098989" lon="7.3282879"><ele>365.0</ele><time>2026-05-01T07:24:51.412Z</time></trkpt><trkpt lat="45.1098799" lon="7.3280388"><ele>365.0</ele><time>2026-05-01T07:24:52.411Z</time></trkpt><trkpt lat="45.1098569" lon="7.3277924"><ele>365.0</ele><time>2026-05-01T07:24:53.411Z</time></trkpt><trkpt lat="45.1098324" lon="7.327548"><ele>365.0</ele><time>2026-05-01T07:24:54.411Z</time></trkpt><trkpt lat="45.1098045" lon="7.3273047"><ele>365.33333333333337</ele><time>2026-05-01T07:24:55.411Z</time></trkpt><trkpt lat="45.1097714" lon="7.3270581"><ele>365.6666666666667</ele><time>2026-05-01T07:24:56.412Z</time></trkpt><trkpt lat="45.1097324" lon="7.3268123"><ele>366.0</ele><time>2026-05-01T07:24:57.411Z</time></trkpt><trkpt lat="45.1096913" lon="7.3265653"><ele>366.0</ele><time>2026-05-01T07:24:58.411Z</time></trkpt><trkpt lat="45.1096509" lon="7.3263134"><ele>366.0</ele><time>2026-05-01T07:24:59.411Z</time></trkpt><trkpt lat="45.1096074" lon="7.3260598"><ele>366.0</ele><time>2026-05-01T07:25:00.411Z</time></trkpt><trkpt lat="45.1095623" lon="7.3258021"><ele>366.3333333333333</ele><time>2026-05-01T07:25:01.411Z</time></trkpt><trkpt lat="45.1095146" lon="7.3255435"><ele>366.66666666666663</ele><time>2026-05-01T07:25:02.411Z</time></trkpt><trkpt lat="45.1094686" lon="7.3252787"><ele>367.0</ele><time>2026-05-01T07:25:03.412Z</time></trkpt><trkpt lat="45.1094229" lon="7.3250101"><ele>367.0</ele><time>2026-05-01T07:25:04.411Z</time></trkpt><trkpt lat="45.1093771" lon="7.3247335"><ele>367.0</ele><time>2026-05-01T07:25:05.411Z</time></trkpt><trkpt lat="45.1093288" lon="7.3244549"><ele>367.0</ele><time>2026-05-01T07:25:06.411Z</time></trkpt><trkpt lat="45.1092809" lon="7.3241702"><ele>367.0</ele><time>2026-05-01T07:25:07.412Z</time></trkpt><trkpt lat="45.1092309" lon="7.3238836"><ele>367.0</ele><time>2026-05-01T07:25:08.411Z</time></trkpt><trkpt lat="45.1091811" lon="7.3235936"><ele>367.0</ele><time>2026-05-01T07:25:09.411Z</time></trkpt><trkpt lat="45.109131" lon="7.3233057"><ele>366.3333333333333</ele><time>2026-05-01T07:25:10.411Z</time></trkpt><trkpt lat="45.1090822" lon="7.3230189"><ele>365.6666666666667</ele><time>2026-05-01T07:25:11.411Z</time></trkpt><trkpt lat="45.1090324" lon="7.3227371"><ele>365.0</ele><time>2026-05-01T07:25:12.411Z</time></trkpt><trkpt lat="45.1089826" lon="7.3224574"><ele>365.33333333333337</ele><time>2026-05-01T07:25:13.411Z</time></trkpt><trkpt lat="45.1089331" lon="7.3221824"><ele>365.6666666666667</ele><time>2026-05-01T07:25:14.411Z</time></trkpt><trkpt lat="45.108887" lon="7.321907"><ele>366.0</ele><time>2026-05-01T07:25:15.411Z</time></trkpt><trkpt lat="45.1088419" lon="7.3216371"><ele>366.6666666666667</ele><time>2026-05-01T07:25:16.411Z</time></trkpt><trkpt lat="45.1087951" lon="7.321366"><ele>367.33333333333337</ele><time>2026-05-01T07:25:17.411Z</time></trkpt><trkpt lat="45.1087465" lon="7.3210993"><ele>368.0</ele><time>2026-05-01T07:25:18.411Z</time></trkpt><trkpt lat="45.1087017" lon="7.3208264"><ele>368.33333333333337</ele><time>2026-05-01T07:25:19.412Z</time></trkpt><trkpt lat="45.1086574" lon="7.3205492"><ele>368.6666666666667</ele><time>2026-05-01T07:25:20.411Z</time></trkpt><trkpt lat="45.1086082" lon="7.3202735"><ele>369.0</ele><time>2026-05-01T07:25:21.411Z</time></trkpt><trkpt lat="45.1085573" lon="7.3199921"><ele>369.3333333333333</ele><time>2026-05-01T07:25:22.411Z</time></trkpt><trkpt lat="45.1085092" lon="7.3197052"><ele>369.66666666666663</ele><time>2026-05-01T07:25:23.411Z</time></trkpt><trkpt lat="45.1084614" lon="7.3194138"><ele>370.0</ele><time>2026-05-01T07:25:24.411Z</time></trkpt><trkpt lat="45.1084177" lon="7.3191199"><ele>370.0</ele><time>2026-05-01T07:25:25.411Z</time></trkpt><trkpt lat="45.108375" lon="7.3188231"><ele>370.0</ele><time>2026-05-01T07:25:26.411Z</time></trkpt><trkpt lat="45.1083369" lon="7.3185255"><ele>370.0</ele><time>2026-05-01T07:25:27.411Z</time></trkpt><trkpt lat="45.1083042" lon="7.3182277"><ele>370.3333333333333</ele><time>2026-05-01T07:25:28.411Z</time></trkpt><trkpt lat="45.1082762" lon="7.3179379"><ele>370.6666666666667</ele><time>2026-05-01T07:25:29.411Z</time></trkpt><trkpt lat="45.1082497" lon="7.3176551"><ele>371.0</ele><time>2026-05-01T07:25:30.411Z</time></trkpt><trkpt lat="45.1082261" lon="7.3173762"><ele>370.33333333333337</ele><time>2026-05-01T07:25:31.411Z</time></trkpt><trkpt lat="45.1082064" lon="7.3171002"><ele>369.6666666666667</ele><time>2026-05-01T07:25:32.412Z</time></trkpt><trkpt lat="45.1081903" lon="7.3168263"><ele>369.0</ele><time>2026-05-01T07:25:33.411Z</time></trkpt><trkpt lat="45.1081762" lon="7.31656"><ele>369.3333333333333</ele><time>2026-05-01T07:25:34.411Z</time></trkpt><trkpt lat="45.1081633" lon="7.3162986"><ele>369.66666666666663</ele><time>2026-05-01T07:25:35.411Z</time></trkpt><trkpt lat="45.1081542" lon="7.3160341"><ele>370.0</ele><time>2026-05-01T07:25:36.411Z</time></trkpt><trkpt lat="45.1081493" lon="7.3157673"><ele>369.66666666666663</ele><time>2026-05-01T07:25:37.411Z</time></trkpt><trkpt lat="45.108146" lon="7.3155041"><ele>369.3333333333333</ele><time>2026-05-01T07:25:38.411Z</time></trkpt><trkpt lat="45.1081448" lon="7.3152407"><ele>369.0</ele><time>2026-05-01T07:25:39.411Z</time></trkpt><trkpt lat="45.1081494" lon="7.3149776"><ele>369.3333333333333</ele><time>2026-05-01T07:25:40.411Z</time></trkpt><trkpt lat="45.1081565" lon="7.3147136"><ele>369.66666666666663</ele><time>2026-05-01T07:25:41.411Z</time></trkpt><trkpt lat="45.1081655" lon="7.314445"><ele>370.0</ele><time>2026-05-01T07:25:42.411Z</time></trkpt><trkpt lat="45.1081726" lon="7.3141748"><ele>370.0</ele><time>2026-05-01T07:25:43.411Z</time></trkpt><trkpt lat="45.1081846" lon="7.3139081"><ele>370.0</ele><time>2026-05-01T07:25:44.411Z</time></trkpt><trkpt lat="45.1082009" lon="7.3136399"><ele>370.0</ele><time>2026-05-01T07:25:45.411Z</time></trkpt><trkpt lat="45.1082208" lon="7.3133669"><ele>369.3333333333333</ele><time>2026-05-01T07:25:46.411Z</time></trkpt><trkpt lat="45.1082419" lon="7.3130962"><ele>368.6666666666667</ele><time>2026-05-01T07:25:47.411Z</time></trkpt><trkpt lat="45.1082633" lon="7.312827"><ele>368.0</ele><time>2026-05-01T07:25:48.412Z</time></trkpt><trkpt lat="45.1082849" lon="7.3125527"><ele>367.6666666666667</ele><time>2026-05-01T07:25:49.412Z</time></trkpt><trkpt lat="45.1083033" lon="7.3122809"><ele>367.3333333333333</ele><time>2026-05-01T07:25:50.412Z</time></trkpt><trkpt lat="45.1083228" lon="7.3120121"><ele>367.0</ele><time>2026-05-01T07:25:51.412Z</time></trkpt><trkpt lat="45.1083432" lon="7.3117449"><ele>368.0</ele><time>2026-05-01T07:25:52.411Z</time></trkpt><trkpt lat="45.1083642" lon="7.3114802"><ele>369.0</ele><time>2026-05-01T07:25:53.412Z</time></trkpt><trkpt lat="45.1083833" lon="7.3112194"><ele>370.0</ele><time>2026-05-01T07:25:54.413Z</time></trkpt><trkpt lat="45.1084034" lon="7.3109655"><ele>370.3333333333333</ele><time>2026-05-01T07:25:55.411Z</time></trkpt><trkpt lat="45.1084234" lon="7.3107137"><ele>370.6666666666667</ele><time>2026-05-01T07:25:56.411Z</time></trkpt><trkpt lat="45.1084426" lon="7.3104617"><ele>371.0</ele><time>2026-05-01T07:25:57.411Z</time></trkpt><trkpt lat="45.108463" lon="7.3102116"><ele>371.0</ele><time>2026-05-01T07:25:58.412Z</time></trkpt><trkpt lat="45.1084817" lon="7.3099602"><ele>371.0</ele><time>2026-05-01T07:25:59.411Z</time></trkpt><trkpt lat="45.1084997" lon="7.3097074"><ele>371.0</ele><time>2026-05-01T07:26:00.412Z</time></trkpt><trkpt lat="45.1085182" lon="7.3094535"><ele>370.33333333333337</ele><time>2026-05-01T07:26:01.411Z</time></trkpt><trkpt lat="45.1085359" lon="7.3091992"><ele>369.6666666666667</ele><time>2026-05-01T07:26:02.411Z</time></trkpt><trkpt lat="45.1085541" lon="7.3089468"><ele>369.0</ele><time>2026-05-01T07:26:03.411Z</time></trkpt><trkpt lat="45.1085741" lon="7.3086949"><ele>369.0</ele><time>2026-05-01T07:26:04.411Z</time></trkpt><trkpt lat="45.108593" lon="7.3084424"><ele>369.0</ele><time>2026-05-01T07:26:05.411Z</time></trkpt><trkpt lat="45.1086117" lon="7.3081877"><ele>369.0</ele><time>2026-05-01T07:26:06.411Z</time></trkpt><trkpt lat="45.1086323" lon="7.3079314"><ele>369.0</ele><time>2026-05-01T07:26:07.411Z</time></trkpt><trkpt lat="45.108652" lon="7.3076808"><ele>369.0</ele><time>2026-05-01T07:26:08.411Z</time></trkpt><trkpt lat="45.1086725" lon="7.3074359"><ele>369.0</ele><time>2026-05-01T07:26:09.412Z</time></trkpt><trkpt lat="45.1086912" lon="7.3071928"><ele>369.6666666666667</ele><time>2026-05-01T07:26:10.411Z</time></trkpt><trkpt lat="45.1087093" lon="7.3069446"><ele>370.33333333333337</ele><time>2026-05-01T07:26:11.411Z</time></trkpt><trkpt lat="45.1087269" lon="7.3067003"><ele>371.0</ele><time>2026-05-01T07:26:12.411Z</time></trkpt><trkpt lat="45.1087442" lon="7.3064655"><ele>371.33333333333337</ele><time>2026-05-01T07:26:13.411Z</time></trkpt><trkpt lat="45.1087622" lon="7.3062414"><ele>371.6666666666667</ele><time>2026-05-01T07:26:14.412Z</time></trkpt><trkpt lat="45.1087795" lon="7.3060245"><ele>372.0</ele><time>2026-05-01T07:26:15.411Z</time></trkpt><trkpt lat="45.1087994" lon="7.3058036"><ele>372.0</ele><time>2026-05-01T07:26:16.411Z</time></trkpt><trkpt lat="45.1088222" lon="7.3055818"><ele>372.0</ele><time>2026-05-01T07:26:17.411Z</time></trkpt><trkpt lat="45.10885" lon="7.3053604"><ele>372.0</ele><time>2026-05-01T07:26:18.411Z</time></trkpt><trkpt lat="45.1088826" lon="7.3051386"><ele>372.0</ele><time>2026-05-01T07:26:19.411Z</time></trkpt><trkpt lat="45.108917" lon="7.3049098"><ele>372.0</ele><time>2026-05-01T07:26:20.411Z</time></trkpt><trkpt lat="45.1089571" lon="7.3046764"><ele>372.0</ele><time>2026-05-01T07:26:21.411Z</time></trkpt><trkpt lat="45.1089977" lon="7.3044397"><ele>372.0</ele><time>2026-05-01T07:26:22.411Z</time></trkpt><trkpt lat="45.1090443" lon="7.3042046"><ele>372.0</ele><time>2026-05-01T07:26:23.411Z</time></trkpt><trkpt lat="45.109095" lon="7.3039646"><ele>372.0</ele><time>2026-05-01T07:26:24.411Z</time></trkpt><trkpt lat="45.1091516" lon="7.3037193"><ele>372.0</ele><time>2026-05-01T07:26:25.411Z</time></trkpt><trkpt lat="45.1092124" lon="7.3034722"><ele>372.0</ele><time>2026-05-01T07:26:26.412Z</time></trkpt><trkpt lat="45.1092757" lon="7.3032311"><ele>372.0</ele><time>2026-05-01T07:26:27.411Z</time></trkpt><trkpt lat="45.1093429" lon="7.3029923"><ele>372.3333333333333</ele><time>2026-05-01T07:26:28.412Z</time></trkpt><trkpt lat="45.1094125" lon="7.3027522"><ele>372.66666666666663</ele><time>2026-05-01T07:26:29.412Z</time></trkpt><trkpt lat="45.1094861" lon="7.302517"><ele>373.0</ele><time>2026-05-01T07:26:30.411Z</time></trkpt><trkpt lat="45.1095634" lon="7.3022814"><ele>373.0</ele><time>2026-05-01T07:26:31.411Z</time></trkpt><trkpt lat="45.1096444" lon="7.3020449"><ele>373.0</ele><time>2026-05-01T07:26:32.411Z</time></trkpt><trkpt lat="45.1097283" lon="7.301814"><ele>373.0</ele><time>2026-05-01T07:26:33.411Z</time></trkpt><trkpt lat="45.1098153" lon="7.3015843"><ele>373.0</ele><time>2026-05-01T07:26:34.411Z</time></trkpt><trkpt lat="45.1099061" lon="7.3013586"><ele>373.0</ele><time>2026-05-01T07:26:35.411Z</time></trkpt><trkpt lat="45.1099969" lon="7.3011428"><ele>373.0</ele><time>2026-05-01T07:26:36.412Z</time></trkpt><trkpt lat="45.1100898" lon="7.3009289"><ele>373.0</ele><time>2026-05-01T07:26:37.412Z</time></trkpt><trkpt lat="45.1101854" lon="7.3007175"><ele>373.0</ele><time>2026-05-01T07:26:38.411Z</time></trkpt><trkpt lat="45.1102841" lon="7.3005111"><ele>373.0</ele><time>2026-05-01T07:26:39.411Z</time></trkpt><trkpt lat="45.1103869" lon="7.3003079"><ele>373.0</ele><time>2026-05-01T07:26:40.411Z</time></trkpt><trkpt lat="45.1104934" lon="7.3001056"><ele>373.0</ele><time>2026-05-01T07:26:41.411Z</time></trkpt><trkpt lat="45.1106018" lon="7.2999052"><ele>373.0</ele><time>2026-05-01T07:26:42.411Z</time></trkpt><trkpt lat="45.110712" lon="7.2997135"><ele>373.66666666666663</ele><time>2026-05-01T07:26:43.412Z</time></trkpt><trkpt lat="45.1108166" lon="7.2995378"><ele>374.3333333333333</ele><time>2026-05-01T07:26:44.411Z</time></trkpt><trkpt lat="45.1109177" lon="7.2993761"><ele>375.0</ele><time>2026-05-01T07:26:45.411Z</time></trkpt><trkpt lat="45.1110139" lon="7.2992189"><ele>375.0</ele><time>2026-05-01T07:26:46.411Z</time></trkpt><trkpt lat="45.1111121" lon="7.299063"><ele>375.0</ele><time>2026-05-01T07:26:47.412Z</time></trkpt><trkpt lat="45.1112071" lon="7.2989083"><ele>375.0</ele><time>2026-05-01T07:26:48.411Z</time></trkpt><trkpt lat="45.1112992" lon="7.2987602"><ele>375.0</ele><time>2026-05-01T07:26:49.412Z</time></trkpt><trkpt lat="45.1113894" lon="7.2986159"><ele>375.0</ele><time>2026-05-01T07:26:50.411Z</time></trkpt><trkpt lat="45.1114815" lon="7.2984717"><ele>375.0</ele><time>2026-05-01T07:26:51.411Z</time></trkpt><trkpt lat="45.1115738" lon="7.2983256"><ele>375.0</ele><time>2026-05-01T07:26:52.411Z</time></trkpt><trkpt lat="45.1116688" lon="7.2981749"><ele>375.0</ele><time>2026-05-01T07:26:53.411Z</time></trkpt><trkpt lat="45.111769" lon="7.2980176"><ele>375.0</ele><time>2026-05-01T07:26:54.412Z</time></trkpt><trkpt lat="45.1118759" lon="7.2978534"><ele>375.0</ele><time>2026-05-01T07:26:55.411Z</time></trkpt><trkpt lat="45.1119839" lon="7.2976808"><ele>375.0</ele><time>2026-05-01T07:26:56.411Z</time></trkpt><trkpt lat="45.1120933" lon="7.2975022"><ele>375.0</ele><time>2026-05-01T07:26:57.411Z</time></trkpt><trkpt lat="45.1122039" lon="7.2973176"><ele>375.0</ele><time>2026-05-01T07:26:58.411Z</time></trkpt><trkpt lat="45.1123154" lon="7.2971289"><ele>375.0</ele><time>2026-05-01T07:26:59.411Z</time></trkpt><trkpt lat="45.1124291" lon="7.2969267"><ele>374.6666666666667</ele><time>2026-05-01T07:27:00.412Z</time></trkpt><trkpt lat="45.1125463" lon="7.2967106"><ele>374.33333333333337</ele><time>2026-05-01T07:27:01.411Z</time></trkpt><trkpt lat="45.1126681" lon="7.2964769"><ele>374.0</ele><time>2026-05-01T07:27:02.412Z</time></trkpt><trkpt lat="45.1127923" lon="7.2962312"><ele>374.0</ele><time>2026-05-01T07:27:03.412Z</time></trkpt><trkpt lat="45.1129173" lon="7.2959636"><ele>374.0</ele><time>2026-05-01T07:27:04.411Z</time></trkpt><trkpt lat="45.1130362" lon="7.2956916"><ele>374.0</ele><time>2026-05-01T07:27:05.411Z</time></trkpt><trkpt lat="45.1131488" lon="7.2954185"><ele>374.0</ele><time>2026-05-01T07:27:06.411Z</time></trkpt><trkpt lat="45.1132611" lon="7.2951361"><ele>375.0</ele><time>2026-05-01T07:27:07.411Z</time></trkpt><trkpt lat="45.1133726" lon="7.2948441"><ele>376.0</ele><time>2026-05-01T07:27:08.412Z</time></trkpt><trkpt lat="45.1134794" lon="7.2945416"><ele>376.0</ele><time>2026-05-01T07:27:09.411Z</time></trkpt><trkpt lat="45.1135825" lon="7.2942254"><ele>376.0</ele><time>2026-05-01T07:27:10.411Z</time></trkpt><trkpt lat="45.1136814" lon="7.2939012"><ele>375.0</ele><time>2026-05-01T07:27:11.411Z</time></trkpt><trkpt lat="45.1137724" lon="7.2935706"><ele>374.0</ele><time>2026-05-01T07:27:12.411Z</time></trkpt><trkpt lat="45.1138578" lon="7.2932357"><ele>373.5</ele><time>2026-05-01T07:27:13.412Z</time></trkpt><trkpt lat="45.1139351" lon="7.2928943"><ele>373.0</ele><time>2026-05-01T07:27:14.411Z</time></trkpt><trkpt lat="45.1140086" lon="7.2925527"><ele>373.5</ele><time>2026-05-01T07:27:15.411Z</time></trkpt><trkpt lat="45.1140749" lon="7.2922127"><ele>374.0</ele><time>2026-05-01T07:27:16.412Z</time></trkpt><trkpt lat="45.1141316" lon="7.291873"><ele>374.0</ele><time>2026-05-01T07:27:17.411Z</time></trkpt><trkpt lat="45.1141812" lon="7.2915358"><ele>374.0</ele><time>2026-05-01T07:27:18.411Z</time></trkpt><trkpt lat="45.1142262" lon="7.2911987"><ele>374.5</ele><time>2026-05-01T07:27:19.411Z</time></trkpt><trkpt lat="45.114265" lon="7.2908591"><ele>375.0</ele><time>2026-05-01T07:27:20.411Z</time></trkpt><trkpt lat="45.1142975" lon="7.2905154"><ele>375.5</ele><time>2026-05-01T07:27:21.411Z</time></trkpt><trkpt lat="45.1143223" lon="7.2901691"><ele>376.0</ele><time>2026-05-01T07:27:22.411Z</time></trkpt><trkpt lat="45.1143395" lon="7.2898208"><ele>376.5</ele><time>2026-05-01T07:27:23.411Z</time></trkpt><trkpt lat="45.1143495" lon="7.2894704"><ele>377.0</ele><time>2026-05-01T07:27:24.412Z</time></trkpt><trkpt lat="45.114354" lon="7.2891196"><ele>375.5</ele><time>2026-05-01T07:27:25.411Z</time></trkpt><trkpt lat="45.1143523" lon="7.2887696"><ele>374.0</ele><time>2026-05-01T07:27:26.411Z</time></trkpt><trkpt lat="45.1143443" lon="7.2884206"><ele>375.0</ele><time>2026-05-01T07:27:27.411Z</time></trkpt><trkpt lat="45.1143296" lon="7.2880698"><ele>376.0</ele><time>2026-05-01T07:27:28.412Z</time></trkpt><trkpt lat="45.1142775" lon="7.2873682"><ele>376.5</ele><time>2026-05-01T07:27:30.412Z</time></trkpt><trkpt lat="45.1142402" lon="7.2870179"><ele>377.0</ele><time>2026-05-01T07:27:31.411Z</time></trkpt><trkpt lat="45.1141974" lon="7.2866686"><ele>377.0</ele><time>2026-05-01T07:27:32.411Z</time></trkpt><trkpt lat="45.1141497" lon="7.2863197"><ele>377.0</ele><time>2026-05-01T07:27:33.412Z</time></trkpt><trkpt lat="45.1140985" lon="7.28597"><ele>376.0</ele><time>2026-05-01T07:27:34.411Z</time></trkpt><trkpt lat="45.1140482" lon="7.2856182"><ele>375.0</ele><time>2026-05-01T07:27:35.411Z</time></trkpt><trkpt lat="45.1139999" lon="7.2852652"><ele>375.0</ele><time>2026-05-01T07:27:36.411Z</time></trkpt><trkpt lat="45.1139506" lon="7.2849089"><ele>375.0</ele><time>2026-05-01T07:27:37.411Z</time></trkpt><trkpt lat="45.1139021" lon="7.2845493"><ele>376.0</ele><time>2026-05-01T07:27:38.411Z</time></trkpt><trkpt lat="45.1138524" lon="7.2841869"><ele>377.0</ele><time>2026-05-01T07:27:39.411Z</time></trkpt><trkpt lat="45.1138005" lon="7.2838236"><ele>377.0</ele><time>2026-05-01T07:27:40.412Z</time></trkpt><trkpt lat="45.1137487" lon="7.2834581"><ele>377.0</ele><time>2026-05-01T07:27:41.411Z</time></trkpt><trkpt lat="45.1136971" lon="7.2830897"><ele>377.5</ele><time>2026-05-01T07:27:42.412Z</time></trkpt><trkpt lat="45.1136432" lon="7.2827181"><ele>378.0</ele><time>2026-05-01T07:27:43.411Z</time></trkpt><trkpt lat="45.1135902" lon="7.2823463"><ele>377.5</ele><time>2026-05-01T07:27:44.411Z</time></trkpt><trkpt lat="45.1135388" lon="7.2819739"><ele>377.0</ele><time>2026-05-01T07:27:45.411Z</time></trkpt><trkpt lat="45.1134887" lon="7.281599"><ele>376.5</ele><time>2026-05-01T07:27:46.411Z</time></trkpt><trkpt lat="45.1134429" lon="7.2812256"><ele>376.0</ele><time>2026-05-01T07:27:47.411Z</time></trkpt><trkpt lat="45.1134011" lon="7.2808526"><ele>376.0</ele><time>2026-05-01T07:27:48.412Z</time></trkpt><trkpt lat="45.1133642" lon="7.2804783"><ele>376.0</ele><time>2026-05-01T07:27:49.412Z</time></trkpt><trkpt lat="45.1133304" lon="7.2801056"><ele>377.5</ele><time>2026-05-01T07:27:50.411Z</time></trkpt><trkpt lat="45.1133013" lon="7.2797358"><ele>379.0</ele><time>2026-05-01T07:27:51.411Z</time></trkpt><trkpt lat="45.1132771" lon="7.279366"><ele>379.0</ele><time>2026-05-01T07:27:52.411Z</time></trkpt><trkpt lat="45.1132566" lon="7.2789925"><ele>379.0</ele><time>2026-05-01T07:27:53.412Z</time></trkpt><trkpt lat="45.1132375" lon="7.2786147"><ele>379.0</ele><time>2026-05-01T07:27:54.411Z</time></trkpt><trkpt lat="45.1132195" lon="7.278241"><ele>379.0</ele><time>2026-05-01T07:27:55.411Z</time></trkpt><trkpt lat="45.1132025" lon="7.2778709"><ele>379.0</ele><time>2026-05-01T07:27:56.411Z</time></trkpt><trkpt lat="45.1131853" lon="7.2774975"><ele>379.0</ele><time>2026-05-01T07:27:57.411Z</time></trkpt><trkpt lat="45.1131678" lon="7.2771219"><ele>379.0</ele><time>2026-05-01T07:27:58.412Z</time></trkpt><trkpt lat="45.1131506" lon="7.2767424"><ele>379.0</ele><time>2026-05-01T07:27:59.411Z</time></trkpt><trkpt lat="45.1131343" lon="7.2763616"><ele>379.0</ele><time>2026-05-01T07:28:00.412Z</time></trkpt><trkpt lat="45.1131185" lon="7.2759801"><ele>379.0</ele><time>2026-05-01T07:28:01.411Z</time></trkpt><trkpt lat="45.113103" lon="7.2756018"><ele>379.0</ele><time>2026-05-01T07:28:02.411Z</time></trkpt><trkpt lat="45.1130861" lon="7.2752268"><ele>379.0</ele><time>2026-05-01T07:28:03.412Z</time></trkpt><trkpt lat="45.113071" lon="7.2748499"><ele>379.5</ele><time>2026-05-01T07:28:04.411Z</time></trkpt><trkpt lat="45.1130554" lon="7.2744724"><ele>380.0</ele><time>2026-05-01T07:28:05.411Z</time></trkpt><trkpt lat="45.1130384" lon="7.2740943"><ele>380.0</ele><time>2026-05-01T07:28:06.411Z</time></trkpt><trkpt lat="45.1130225" lon="7.273716"><ele>380.0</ele><time>2026-05-01T07:28:07.411Z</time></trkpt><trkpt lat="45.1130063" lon="7.2733364"><ele>380.0</ele><time>2026-05-01T07:28:08.411Z</time></trkpt><trkpt lat="45.1129903" lon="7.2729566"><ele>380.0</ele><time>2026-05-01T07:28:09.412Z</time></trkpt><trkpt lat="45.1129738" lon="7.2725779"><ele>380.5</ele><time>2026-05-01T07:28:10.412Z</time></trkpt><trkpt lat="45.1129559" lon="7.272191"><ele>381.0</ele><time>2026-05-01T07:28:11.411Z</time></trkpt><trkpt lat="45.1129376" lon="7.2717972"><ele>380.5</ele><time>2026-05-01T07:28:12.412Z</time></trkpt><trkpt lat="45.112916" lon="7.2714013"><ele>380.0</ele><time>2026-05-01T07:28:13.411Z</time></trkpt><trkpt lat="45.1128914" lon="7.2710052"><ele>379.5</ele><time>2026-05-01T07:28:14.411Z</time></trkpt><trkpt lat="45.1128693" lon="7.2706067"><ele>379.0</ele><time>2026-05-01T07:28:15.411Z</time></trkpt><trkpt lat="45.1128461" lon="7.270203"><ele>379.0</ele><time>2026-05-01T07:28:16.411Z</time></trkpt><trkpt lat="45.112829" lon="7.2698034"><ele>379.0</ele><time>2026-05-01T07:28:17.411Z</time></trkpt><trkpt lat="45.1128105" lon="7.2694127"><ele>379.5</ele><time>2026-05-01T07:28:18.411Z</time></trkpt><trkpt lat="45.1127885" lon="7.2690343"><ele>380.0</ele><time>2026-05-01T07:28:19.412Z</time></trkpt><trkpt lat="45.1127581" lon="7.2686533"><ele>381.0</ele><time>2026-05-01T07:28:20.412Z</time></trkpt><trkpt lat="45.1127176" lon="7.2682726"><ele>382.0</ele><time>2026-05-01T07:28:21.411Z</time></trkpt><trkpt lat="45.1126693" lon="7.2678952"><ele>382.0</ele><time>2026-05-01T07:28:22.411Z</time></trkpt><trkpt lat="45.1126142" lon="7.2675185"><ele>382.0</ele><time>2026-05-01T07:28:23.411Z</time></trkpt><trkpt lat="45.1125545" lon="7.2671433"><ele>382.0</ele><time>2026-05-01T07:28:24.411Z</time></trkpt><trkpt lat="45.1124897" lon="7.2667682"><ele>382.0</ele><time>2026-05-01T07:28:25.411Z</time></trkpt><trkpt lat="45.112422" lon="7.2663953"><ele>382.5</ele><time>2026-05-01T07:28:26.412Z</time></trkpt><trkpt lat="45.1123557" lon="7.2660252"><ele>383.0</ele><time>2026-05-01T07:28:27.411Z</time></trkpt><trkpt lat="45.1122939" lon="7.2656559"><ele>384.0</ele><time>2026-05-01T07:28:28.411Z</time></trkpt><trkpt lat="45.112239" lon="7.2652904"><ele>385.0</ele><time>2026-05-01T07:28:29.411Z</time></trkpt><trkpt lat="45.1121816" lon="7.264927"><ele>386.0</ele><time>2026-05-01T07:28:30.411Z</time></trkpt><trkpt lat="45.1121299" lon="7.2645672"><ele>387.0</ele><time>2026-05-01T07:28:31.411Z</time></trkpt><trkpt lat="45.1120752" lon="7.2642125"><ele>388.0</ele><time>2026-05-01T07:28:32.411Z</time></trkpt><trkpt lat="45.1120244" lon="7.2638624"><ele>389.0</ele><time>2026-05-01T07:28:33.411Z</time></trkpt><trkpt lat="45.1119783" lon="7.2635155"><ele>389.0</ele><time>2026-05-01T07:28:34.411Z</time></trkpt><trkpt lat="45.1119395" lon="7.2631718"><ele>389.0</ele><time>2026-05-01T07:28:35.412Z</time></trkpt><trkpt lat="45.1119084" lon="7.2628276"><ele>389.0</ele><time>2026-05-01T07:28:36.412Z</time></trkpt><trkpt lat="45.1118845" lon="7.2624821"><ele>389.0</ele><time>2026-05-01T07:28:37.412Z</time></trkpt><trkpt lat="45.1118676" lon="7.2621313"><ele>389.5</ele><time>2026-05-01T07:28:38.411Z</time></trkpt><trkpt lat="45.1118584" lon="7.2617808"><ele>390.0</ele><time>2026-05-01T07:28:39.411Z</time></trkpt><trkpt lat="45.1118536" lon="7.2614257"><ele>390.0</ele><time>2026-05-01T07:28:40.413Z</time></trkpt><trkpt lat="45.1118576" lon="7.2610676"><ele>390.0</ele><time>2026-05-01T07:28:41.411Z</time></trkpt><trkpt lat="45.1118689" lon="7.2607073"><ele>389.0</ele><time>2026-05-01T07:28:42.412Z</time></trkpt><trkpt lat="45.1118894" lon="7.260345"><ele>388.0</ele><time>2026-05-01T07:28:43.411Z</time></trkpt><trkpt lat="45.1119159" lon="7.2599837"><ele>387.5</ele><time>2026-05-01T07:28:44.411Z</time></trkpt><trkpt lat="45.1119493" lon="7.2596269"><ele>387.0</ele><time>2026-05-01T07:28:45.411Z</time></trkpt><trkpt lat="45.1119916" lon="7.2592684"><ele>386.5</ele><time>2026-05-01T07:28:46.412Z</time></trkpt><trkpt lat="45.1120405" lon="7.2589039"><ele>386.0</ele><time>2026-05-01T07:28:47.411Z</time></trkpt><trkpt lat="45.1120969" lon="7.2585364"><ele>386.0</ele><time>2026-05-01T07:28:48.412Z</time></trkpt><trkpt lat="45.1121606" lon="7.2581773"><ele>386.0</ele><time>2026-05-01T07:28:49.411Z</time></trkpt><trkpt lat="45.1122319" lon="7.257816"><ele>385.5</ele><time>2026-05-01T07:28:50.412Z</time></trkpt><trkpt lat="45.1123132" lon="7.2574596"><ele>385.0</ele><time>2026-05-01T07:28:51.411Z</time></trkpt><trkpt lat="45.1124002" lon="7.2571118"><ele>384.5</ele><time>2026-05-01T07:28:52.411Z</time></trkpt><trkpt lat="45.1124914" lon="7.2567705"><ele>384.0</ele><time>2026-05-01T07:28:53.412Z</time></trkpt><trkpt lat="45.1125848" lon="7.2564383"><ele>384.0</ele><time>2026-05-01T07:28:54.411Z</time></trkpt><trkpt lat="45.1126783" lon="7.2561075"><ele>384.0</ele><time>2026-05-01T07:28:55.411Z</time></trkpt><trkpt lat="45.1127717" lon="7.2557738"><ele>384.5</ele><time>2026-05-01T07:28:56.412Z</time></trkpt><trkpt lat="45.1128624" lon="7.2554451"><ele>385.0</ele><time>2026-05-01T07:28:57.411Z</time></trkpt><trkpt lat="45.1129515" lon="7.255116"><ele>385.0</ele><time>2026-05-01T07:28:58.411Z</time></trkpt><trkpt lat="45.1130439" lon="7.2547887"><ele>385.0</ele><time>2026-05-01T07:28:59.411Z</time></trkpt><trkpt lat="45.1131358" lon="7.2544625"><ele>385.5</ele><time>2026-05-01T07:29:00.411Z</time></trkpt><trkpt lat="45.1132275" lon="7.2541402"><ele>386.0</ele><time>2026-05-01T07:29:01.411Z</time></trkpt><trkpt lat="45.1133191" lon="7.2538144"><ele>387.0</ele><time>2026-05-01T07:29:02.411Z</time></trkpt><trkpt lat="45.1134113" lon="7.2534889"><ele>388.0</ele><time>2026-05-01T07:29:03.411Z</time></trkpt><trkpt lat="45.1135027" lon="7.2531653"><ele>388.5</ele><time>2026-05-01T07:29:04.411Z</time></trkpt><trkpt lat="45.1135909" lon="7.2528462"><ele>389.0</ele><time>2026-05-01T07:29:05.411Z</time></trkpt><trkpt lat="45.1136789" lon="7.2525256"><ele>388.5</ele><time>2026-05-01T07:29:06.411Z</time></trkpt><trkpt lat="45.1137682" lon="7.2522021"><ele>388.0</ele><time>2026-05-01T07:29:07.411Z</time></trkpt><trkpt lat="45.1138565" lon="7.2518819"><ele>388.0</ele><time>2026-05-01T07:29:08.411Z</time></trkpt><trkpt lat="45.1139456" lon="7.2515605"><ele>388.0</ele><time>2026-05-01T07:29:09.411Z</time></trkpt><trkpt lat="45.1140359" lon="7.2512425"><ele>389.0</ele><time>2026-05-01T07:29:10.411Z</time></trkpt><trkpt lat="45.1141256" lon="7.250925"><ele>390.0</ele><time>2026-05-01T07:29:11.411Z</time></trkpt><trkpt lat="45.114213" lon="7.2506087"><ele>390.0</ele><time>2026-05-01T07:29:12.412Z</time></trkpt><trkpt lat="45.1142996" lon="7.2502975"><ele>390.0</ele><time>2026-05-01T07:29:13.411Z</time></trkpt><trkpt lat="45.1143861" lon="7.2499877"><ele>390.0</ele><time>2026-05-01T07:29:14.411Z</time></trkpt><trkpt lat="45.1144734" lon="7.2496761"><ele>390.0</ele><time>2026-05-01T07:29:15.412Z</time></trkpt><trkpt lat="45.1145606" lon="7.249363"><ele>390.0</ele><time>2026-05-01T07:29:16.411Z</time></trkpt><trkpt lat="45.1146479" lon="7.2490486"><ele>390.0</ele><time>2026-05-01T07:29:17.412Z</time></trkpt><trkpt lat="45.1147353" lon="7.2487318"><ele>390.5</ele><time>2026-05-01T07:29:18.411Z</time></trkpt><trkpt lat="45.1148216" lon="7.2484146"><ele>391.0</ele><time>2026-05-01T07:29:19.412Z</time></trkpt><trkpt lat="45.1149064" lon="7.2480941"><ele>391.0</ele><time>2026-05-01T07:29:20.411Z</time></trkpt><trkpt lat="45.1149913" lon="7.2477723"><ele>391.0</ele><time>2026-05-01T07:29:21.411Z</time></trkpt><trkpt lat="45.1150731" lon="7.2474437"><ele>390.5</ele><time>2026-05-01T07:29:22.412Z</time></trkpt><trkpt lat="45.1151526" lon="7.2471194"><ele>390.0</ele><time>2026-05-01T07:29:23.411Z</time></trkpt><trkpt lat="45.1152284" lon="7.2467915"><ele>390.0</ele><time>2026-05-01T07:29:24.412Z</time></trkpt><trkpt lat="45.1153009" lon="7.2464617"><ele>390.0</ele><time>2026-05-01T07:29:25.411Z</time></trkpt><trkpt lat="45.1153694" lon="7.2461324"><ele>390.0</ele><time>2026-05-01T07:29:26.411Z</time></trkpt><trkpt lat="45.115437" lon="7.2458022"><ele>390.0</ele><time>2026-05-01T07:29:27.411Z</time></trkpt><trkpt lat="45.1155013" lon="7.2454687"><ele>390.0</ele><time>2026-05-01T07:29:28.411Z</time></trkpt><trkpt lat="45.1155634" lon="7.2451331"><ele>390.0</ele><time>2026-05-01T07:29:29.412Z</time></trkpt><trkpt lat="45.1156258" lon="7.2447967"><ele>390.0</ele><time>2026-05-01T07:29:30.411Z</time></trkpt><trkpt lat="45.1156891" lon="7.2444613"><ele>390.0</ele><time>2026-05-01T07:29:31.411Z</time></trkpt><trkpt lat="45.1157567" lon="7.2441286"><ele>391.0</ele><time>2026-05-01T07:29:32.411Z</time></trkpt><trkpt lat="45.1158319" lon="7.2437953"><ele>392.0</ele><time>2026-05-01T07:29:33.412Z</time></trkpt><trkpt lat="45.115911" lon="7.2434651"><ele>392.0</ele><time>2026-05-01T07:29:34.411Z</time></trkpt><trkpt lat="45.1159998" lon="7.2431319"><ele>392.0</ele><time>2026-05-01T07:29:35.411Z</time></trkpt><trkpt lat="45.1160969" lon="7.2428002"><ele>392.5</ele><time>2026-05-01T07:29:36.411Z</time></trkpt><trkpt lat="45.1161993" lon="7.242472"><ele>393.0</ele><time>2026-05-01T07:29:37.413Z</time></trkpt><trkpt lat="45.1163071" lon="7.2421489"><ele>393.5</ele><time>2026-05-01T07:29:38.411Z</time></trkpt><trkpt lat="45.1164219" lon="7.241827"><ele>394.0</ele><time>2026-05-01T07:29:39.412Z</time></trkpt><trkpt lat="45.1165441" lon="7.2415091"><ele>394.0</ele><time>2026-05-01T07:29:40.411Z</time></trkpt><trkpt lat="45.1166723" lon="7.2412"><ele>394.0</ele><time>2026-05-01T07:29:41.411Z</time></trkpt><trkpt lat="45.1168071" lon="7.2408992"><ele>395.0</ele><time>2026-05-01T07:29:42.411Z</time></trkpt><trkpt lat="45.1169459" lon="7.2406053"><ele>396.0</ele><time>2026-05-01T07:29:43.411Z</time></trkpt><trkpt lat="45.1170888" lon="7.2403194"><ele>396.0</ele><time>2026-05-01T07:29:44.411Z</time></trkpt><trkpt lat="45.1172356" lon="7.2400431"><ele>396.0</ele><time>2026-05-01T07:29:45.411Z</time></trkpt><trkpt lat="45.117387" lon="7.2397776"><ele>396.5</ele><time>2026-05-01T07:29:46.411Z</time></trkpt><trkpt lat="45.1175425" lon="7.2395198"><ele>397.0</ele><time>2026-05-01T07:29:47.411Z</time></trkpt><trkpt lat="45.1177012" lon="7.2392676"><ele>397.0</ele><time>2026-05-01T07:29:48.411Z</time></trkpt><trkpt lat="45.1178616" lon="7.239014"><ele>397.0</ele><time>2026-05-01T07:29:49.412Z</time></trkpt><trkpt lat="45.1180209" lon="7.2387581"><ele>396.5</ele><time>2026-05-01T07:29:50.411Z</time></trkpt><trkpt lat="45.1181813" lon="7.2384963"><ele>396.0</ele><time>2026-05-01T07:29:51.412Z</time></trkpt><trkpt lat="45.1183422" lon="7.2382375"><ele>397.0</ele><time>2026-05-01T07:29:52.411Z</time></trkpt><trkpt lat="45.1185065" lon="7.2379791"><ele>398.0</ele><time>2026-05-01T07:29:53.412Z</time></trkpt><trkpt lat="45.1186723" lon="7.2377193"><ele>398.0</ele><time>2026-05-01T07:29:54.411Z</time></trkpt><trkpt lat="45.1188372" lon="7.2374557"><ele>398.0</ele><time>2026-05-01T07:29:55.411Z</time></trkpt><trkpt lat="45.1190028" lon="7.2371908"><ele>398.5</ele><time>2026-05-01T07:29:56.411Z</time></trkpt><trkpt lat="45.1191688" lon="7.2369263"><ele>399.0</ele><time>2026-05-01T07:29:57.412Z</time></trkpt><trkpt lat="45.1193354" lon="7.2366613"><ele>399.0</ele><time>2026-05-01T07:29:58.413Z</time></trkpt><trkpt lat="45.1195032" lon="7.2363919"><ele>399.0</ele><time>2026-05-01T07:29:59.412Z</time></trkpt><trkpt lat="45.119673" lon="7.236121"><ele>399.0</ele><time>2026-05-01T07:30:00.411Z</time></trkpt><trkpt lat="45.1198416" lon="7.2358454"><ele>399.0</ele><time>2026-05-01T07:30:01.411Z</time></trkpt><trkpt lat="45.1200105" lon="7.2355682"><ele>398.0</ele><time>2026-05-01T07:30:02.411Z</time></trkpt><trkpt lat="45.1201805" lon="7.2352944"><ele>397.0</ele><time>2026-05-01T07:30:03.411Z</time></trkpt><trkpt lat="45.1203487" lon="7.2350214"><ele>397.0</ele><time>2026-05-01T07:30:04.411Z</time></trkpt><trkpt lat="45.1205121" lon="7.2347459"><ele>397.0</ele><time>2026-05-01T07:30:05.411Z</time></trkpt><trkpt lat="45.1206727" lon="7.234467"><ele>397.0</ele><time>2026-05-01T07:30:06.411Z</time></trkpt><trkpt lat="45.120831" lon="7.2341843"><ele>397.0</ele><time>2026-05-01T07:30:07.411Z</time></trkpt><trkpt lat="45.1209857" lon="7.233898"><ele>397.5</ele><time>2026-05-01T07:30:08.411Z</time></trkpt><trkpt lat="45.1211342" lon="7.2336013"><ele>398.0</ele><time>2026-05-01T07:30:09.411Z</time></trkpt><trkpt lat="45.1212739" lon="7.2332963"><ele>398.0</ele><time>2026-05-01T07:30:10.411Z</time></trkpt><trkpt lat="45.1214073" lon="7.2329839"><ele>398.0</ele><time>2026-05-01T07:30:11.411Z</time></trkpt><trkpt lat="45.1215367" lon="7.23266"><ele>398.5</ele><time>2026-05-01T07:30:12.411Z</time></trkpt><trkpt lat="45.1216617" lon="7.2323312"><ele>399.0</ele><time>2026-05-01T07:30:13.411Z</time></trkpt><trkpt lat="45.121782" lon="7.2319961"><ele>399.0</ele><time>2026-05-01T07:30:14.411Z</time></trkpt><trkpt lat="45.1218926" lon="7.2316559"><ele>399.0</ele><time>2026-05-01T07:30:15.412Z</time></trkpt><trkpt lat="45.1219954" lon="7.2313127"><ele>399.0</ele><time>2026-05-01T07:30:16.411Z</time></trkpt><trkpt lat="45.1220908" lon="7.2309698"><ele>399.0</ele><time>2026-05-01T07:30:17.411Z</time></trkpt><trkpt lat="45.122179" lon="7.230622"><ele>399.0</ele><time>2026-05-01T07:30:18.412Z</time></trkpt><trkpt lat="45.1222627" lon="7.2302729"><ele>399.0</ele><time>2026-05-01T07:30:19.411Z</time></trkpt><trkpt lat="45.1223379" lon="7.2299234"><ele>399.0</ele><time>2026-05-01T07:30:20.412Z</time></trkpt><trkpt lat="45.1224049" lon="7.229571"><ele>399.0</ele><time>2026-05-01T07:30:21.411Z</time></trkpt><trkpt lat="45.1224668" lon="7.229215"><ele>399.0</ele><time>2026-05-01T07:30:22.411Z</time></trkpt><trkpt lat="45.1225251" lon="7.2288549"><ele>399.0</ele><time>2026-05-01T07:30:23.412Z</time></trkpt><trkpt lat="45.1225814" lon="7.2284968"><ele>399.0</ele><time>2026-05-01T07:30:24.411Z</time></trkpt><trkpt lat="45.1226391" lon="7.2281371"><ele>399.0</ele><time>2026-05-01T07:30:25.411Z</time></trkpt><trkpt lat="45.1226972" lon="7.2277788"><ele>399.0</ele><time>2026-05-01T07:30:26.411Z</time></trkpt><trkpt lat="45.1227531" lon="7.2274273"><ele>399.0</ele><time>2026-05-01T07:30:27.411Z</time></trkpt><trkpt lat="45.1228089" lon="7.2270761"><ele>399.0</ele><time>2026-05-01T07:30:28.411Z</time></trkpt><trkpt lat="45.1228653" lon="7.2267247"><ele>399.0</ele><time>2026-05-01T07:30:29.411Z</time></trkpt><trkpt lat="45.12292" lon="7.2263727"><ele>399.0</ele><time>2026-05-01T07:30:30.411Z</time></trkpt><trkpt lat="45.1229744" lon="7.2260199"><ele>399.0</ele><time>2026-05-01T07:30:31.412Z</time></trkpt><trkpt lat="45.1230309" lon="7.2256649"><ele>399.0</ele><time>2026-05-01T07:30:32.411Z</time></trkpt><trkpt lat="45.1230888" lon="7.225313"><ele>399.0</ele><time>2026-05-01T07:30:33.411Z</time></trkpt><trkpt lat="45.1231458" lon="7.2249616"><ele>399.0</ele><time>2026-05-01T07:30:34.412Z</time></trkpt><trkpt lat="45.1232019" lon="7.2246078"><ele>399.0</ele><time>2026-05-01T07:30:35.411Z</time></trkpt><trkpt lat="45.1232574" lon="7.224259"><ele>400.0</ele><time>2026-05-01T07:30:36.411Z</time></trkpt><trkpt lat="45.1233121" lon="7.2239059"><ele>401.0</ele><time>2026-05-01T07:30:37.411Z</time></trkpt><trkpt lat="45.123367" lon="7.2235522"><ele>401.0</ele><time>2026-05-01T07:30:38.411Z</time></trkpt><trkpt lat="45.1234195" lon="7.2231971"><ele>401.0</ele><time>2026-05-01T07:30:39.411Z</time></trkpt><trkpt lat="45.1234753" lon="7.2228377"><ele>401.5</ele><time>2026-05-01T07:30:40.411Z</time></trkpt><trkpt lat="45.1235319" lon="7.2224765"><ele>402.0</ele><time>2026-05-01T07:30:41.411Z</time></trkpt><trkpt lat="45.1235911" lon="7.2221161"><ele>402.0</ele><time>2026-05-01T07:30:42.411Z</time></trkpt><trkpt lat="45.1236514" lon="7.2217559"><ele>402.0</ele><time>2026-05-01T07:30:43.411Z</time></trkpt><trkpt lat="45.1237074" lon="7.2213987"><ele>402.0</ele><time>2026-05-01T07:30:44.412Z</time></trkpt><trkpt lat="45.123764" lon="7.221043"><ele>402.0</ele><time>2026-05-01T07:30:45.411Z</time></trkpt><trkpt lat="45.1238196" lon="7.2206848"><ele>401.5</ele><time>2026-05-01T07:30:46.411Z</time></trkpt><trkpt lat="45.1238759" lon="7.2203249"><ele>401.0</ele><time>2026-05-01T07:30:47.412Z</time></trkpt><trkpt lat="45.1239337" lon="7.2199654"><ele>401.0</ele><time>2026-05-01T07:30:48.411Z</time></trkpt><trkpt lat="45.1239916" lon="7.2196065"><ele>401.0</ele><time>2026-05-01T07:30:49.412Z</time></trkpt><trkpt lat="45.124047" lon="7.2192472"><ele>402.0</ele><time>2026-05-01T07:30:50.411Z</time></trkpt><trkpt lat="45.1241035" lon="7.2188869"><ele>403.0</ele><time>2026-05-01T07:30:51.411Z</time></trkpt><trkpt lat="45.1241605" lon="7.2185316"><ele>403.0</ele><time>2026-05-01T07:30:52.411Z</time></trkpt><trkpt lat="45.1242158" lon="7.2181785"><ele>403.0</ele><time>2026-05-01T07:30:53.413Z</time></trkpt><trkpt lat="45.1242687" lon="7.2178299"><ele>403.0</ele><time>2026-05-01T07:30:54.411Z</time></trkpt><trkpt lat="45.1243195" lon="7.2174851"><ele>403.0</ele><time>2026-05-01T07:30:55.411Z</time></trkpt><trkpt lat="45.1243654" lon="7.2171392"><ele>403.0</ele><time>2026-05-01T07:30:56.411Z</time></trkpt><trkpt lat="45.1244038" lon="7.2167881"><ele>403.0</ele><time>2026-05-01T07:30:57.411Z</time></trkpt><trkpt lat="45.1244344" lon="7.2164356"><ele>402.5</ele><time>2026-05-01T07:30:58.411Z</time></trkpt><trkpt lat="45.1244567" lon="7.2160804"><ele>402.0</ele><time>2026-05-01T07:30:59.411Z</time></trkpt><trkpt lat="45.1244746" lon="7.2157222"><ele>402.5</ele><time>2026-05-01T07:31:00.411Z</time></trkpt><trkpt lat="45.1244868" lon="7.2153614"><ele>403.0</ele><time>2026-05-01T07:31:01.411Z</time></trkpt><trkpt lat="45.124495" lon="7.2150064"><ele>403.5</ele><time>2026-05-01T07:31:02.411Z</time></trkpt><trkpt lat="45.1244998" lon="7.2146485"><ele>404.0</ele><time>2026-05-01T07:31:03.411Z</time></trkpt><trkpt lat="45.1245045" lon="7.214285"><ele>404.5</ele><time>2026-05-01T07:31:04.412Z</time></trkpt><trkpt lat="45.1245104" lon="7.2139168"><ele>405.0</ele><time>2026-05-01T07:31:05.412Z</time></trkpt><trkpt lat="45.1245158" lon="7.213551"><ele>405.0</ele><time>2026-05-01T07:31:06.412Z</time></trkpt><trkpt lat="45.1245209" lon="7.2131849"><ele>405.0</ele><time>2026-05-01T07:31:07.411Z</time></trkpt><trkpt lat="45.1245235" lon="7.2128265"><ele>404.5</ele><time>2026-05-01T07:31:08.411Z</time></trkpt><trkpt lat="45.1245284" lon="7.21247"><ele>404.0</ele><time>2026-05-01T07:31:09.411Z</time></trkpt><trkpt lat="45.1245328" lon="7.2121186"><ele>404.5</ele><time>2026-05-01T07:31:10.412Z</time></trkpt><trkpt lat="45.1245381" lon="7.2117685"><ele>405.0</ele><time>2026-05-01T07:31:11.411Z</time></trkpt><trkpt lat="45.1245475" lon="7.2114228"><ele>405.0</ele><time>2026-05-01T07:31:12.412Z</time></trkpt><trkpt lat="45.1245544" lon="7.2110752"><ele>405.0</ele><time>2026-05-01T07:31:13.411Z</time></trkpt><trkpt lat="45.1245614" lon="7.2107249"><ele>405.5</ele><time>2026-05-01T07:31:14.412Z</time></trkpt><trkpt lat="45.1245667" lon="7.2103676"><ele>406.0</ele><time>2026-05-01T07:31:15.411Z</time></trkpt><trkpt lat="45.1245701" lon="7.2100073"><ele>405.5</ele><time>2026-05-01T07:31:16.411Z</time></trkpt><trkpt lat="45.1245762" lon="7.2096459"><ele>405.0</ele><time>2026-05-01T07:31:17.411Z</time></trkpt><trkpt lat="45.1245821" lon="7.2092838"><ele>405.0</ele><time>2026-05-01T07:31:18.411Z</time></trkpt><trkpt lat="45.1245885" lon="7.2089188"><ele>405.0</ele><time>2026-05-01T07:31:19.411Z</time></trkpt><trkpt lat="45.1245946" lon="7.2085564"><ele>405.0</ele><time>2026-05-01T07:31:20.411Z</time></trkpt><trkpt lat="45.1245999" lon="7.2081939"><ele>405.0</ele><time>2026-05-01T07:31:21.412Z</time></trkpt><trkpt lat="45.1246056" lon="7.2078313"><ele>405.0</ele><time>2026-05-01T07:31:22.411Z</time></trkpt><trkpt lat="45.124615" lon="7.2074655"><ele>405.0</ele><time>2026-05-01T07:31:23.411Z</time></trkpt><trkpt lat="45.1246288" lon="7.2070979"><ele>405.0</ele><time>2026-05-01T07:31:24.411Z</time></trkpt><trkpt lat="45.1246504" lon="7.2067263"><ele>405.0</ele><time>2026-05-01T07:31:25.411Z</time></trkpt><trkpt lat="45.1246811" lon="7.2063576"><ele>405.0</ele><time>2026-05-01T07:31:26.411Z</time></trkpt><trkpt lat="45.1247183" lon="7.2059881"><ele>405.0</ele><time>2026-05-01T07:31:27.411Z</time></trkpt><trkpt lat="45.1247605" lon="7.2056262"><ele>405.0</ele><time>2026-05-01T07:31:28.411Z</time></trkpt><trkpt lat="45.1248129" lon="7.2052688"><ele>405.0</ele><time>2026-05-01T07:31:29.411Z</time></trkpt><trkpt lat="45.1248708" lon="7.2049159"><ele>405.5</ele><time>2026-05-01T07:31:30.411Z</time></trkpt><trkpt lat="45.1249347" lon="7.2045667"><ele>406.0</ele><time>2026-05-01T07:31:31.411Z</time></trkpt><trkpt lat="45.1250082" lon="7.204222"><ele>406.5</ele><time>2026-05-01T07:31:32.411Z</time></trkpt><trkpt lat="45.1250878" lon="7.2038789"><ele>407.0</ele><time>2026-05-01T07:31:33.412Z</time></trkpt><trkpt lat="45.1251756" lon="7.2035364"><ele>407.0</ele><time>2026-05-01T07:31:34.411Z</time></trkpt><trkpt lat="45.1252708" lon="7.2031916"><ele>407.0</ele><time>2026-05-01T07:31:35.411Z</time></trkpt><trkpt lat="45.1253725" lon="7.2028545"><ele>407.5</ele><time>2026-05-01T07:31:36.412Z</time></trkpt><trkpt lat="45.1254818" lon="7.2025273"><ele>408.0</ele><time>2026-05-01T07:31:37.411Z</time></trkpt><trkpt lat="45.1255952" lon="7.2022072"><ele>408.0</ele><time>2026-05-01T07:31:38.412Z</time></trkpt><trkpt lat="45.1257138" lon="7.201891"><ele>408.0</ele><time>2026-05-01T07:31:39.411Z</time></trkpt><trkpt lat="45.1258389" lon="7.2015788"><ele>408.5</ele><time>2026-05-01T07:31:40.411Z</time></trkpt><trkpt lat="45.1259681" lon="7.2012727"><ele>409.0</ele><time>2026-05-01T07:31:41.411Z</time></trkpt><trkpt lat="45.1261028" lon="7.2009737"><ele>409.0</ele><time>2026-05-01T07:31:42.411Z</time></trkpt><trkpt lat="45.1262409" lon="7.2006776"><ele>409.0</ele><time>2026-05-01T07:31:43.411Z</time></trkpt><trkpt lat="45.1263777" lon="7.200379"><ele>409.5</ele><time>2026-05-01T07:31:44.411Z</time></trkpt><trkpt lat="45.1265137" lon="7.2000794"><ele>410.0</ele><time>2026-05-01T07:31:45.411Z</time></trkpt><trkpt lat="45.126654" lon="7.1997789"><ele>410.0</ele><time>2026-05-01T07:31:46.411Z</time></trkpt><trkpt lat="45.1267956" lon="7.1994761"><ele>410.0</ele><time>2026-05-01T07:31:47.411Z</time></trkpt><trkpt lat="45.1269359" lon="7.1991735"><ele>409.5</ele><time>2026-05-01T07:31:48.412Z</time></trkpt><trkpt lat="45.1270739" lon="7.198874"><ele>409.0</ele><time>2026-05-01T07:31:49.411Z</time></trkpt><trkpt lat="45.1272107" lon="7.1985747"><ele>409.0</ele><time>2026-05-01T07:31:50.411Z</time></trkpt><trkpt lat="45.1273503" lon="7.1982752"><ele>409.0</ele><time>2026-05-01T07:31:51.412Z</time></trkpt><trkpt lat="45.1274881" lon="7.1979776"><ele>410.0</ele><time>2026-05-01T07:31:52.411Z</time></trkpt><trkpt lat="45.127624" lon="7.1976799"><ele>411.0</ele><time>2026-05-01T07:31:53.411Z</time></trkpt><trkpt lat="45.1277597" lon="7.1973833"><ele>410.5</ele><time>2026-05-01T07:31:54.412Z</time></trkpt><trkpt lat="45.1278923" lon="7.1970898"><ele>410.0</ele><time>2026-05-01T07:31:55.411Z</time></trkpt><trkpt lat="45.1280289" lon="7.196799"><ele>410.0</ele><time>2026-05-01T07:31:56.411Z</time></trkpt><trkpt lat="45.128167" lon="7.1965058"><ele>410.0</ele><time>2026-05-01T07:31:57.412Z</time></trkpt><trkpt lat="45.1283056" lon="7.1962112"><ele>411.0</ele><time>2026-05-01T07:31:58.411Z</time></trkpt><trkpt lat="45.1284457" lon="7.1959144"><ele>412.0</ele><time>2026-05-01T07:31:59.412Z</time></trkpt><trkpt lat="45.1285841" lon="7.1956149"><ele>412.0</ele><time>2026-05-01T07:32:00.411Z</time></trkpt><trkpt lat="45.1287255" lon="7.1953171"><ele>412.0</ele><time>2026-05-01T07:32:01.411Z</time></trkpt><trkpt lat="45.1288672" lon="7.1950169"><ele>412.5</ele><time>2026-05-01T07:32:02.411Z</time></trkpt><trkpt lat="45.1290101" lon="7.1947127"><ele>413.0</ele><time>2026-05-01T07:32:03.412Z</time></trkpt><trkpt lat="45.129151" lon="7.1944078"><ele>413.0</ele><time>2026-05-01T07:32:04.411Z</time></trkpt><trkpt lat="45.1292911" lon="7.1941007"><ele>413.0</ele><time>2026-05-01T07:32:05.412Z</time></trkpt><trkpt lat="45.1294313" lon="7.1937909"><ele>412.5</ele><time>2026-05-01T07:32:06.411Z</time></trkpt><trkpt lat="45.1295697" lon="7.1934831"><ele>412.0</ele><time>2026-05-01T07:32:07.411Z</time></trkpt><trkpt lat="45.1297059" lon="7.1931705"><ele>412.0</ele><time>2026-05-01T07:32:08.412Z</time></trkpt><trkpt lat="45.1298387" lon="7.1928491"><ele>412.0</ele><time>2026-05-01T07:32:09.411Z</time></trkpt><trkpt lat="45.1299651" lon="7.1925177"><ele>412.5</ele><time>2026-05-01T07:32:10.411Z</time></trkpt><trkpt lat="45.1300853" lon="7.1921812"><ele>413.0</ele><time>2026-05-01T07:32:11.411Z</time></trkpt><trkpt lat="45.1301995" lon="7.1918399"><ele>413.0</ele><time>2026-05-01T07:32:12.411Z</time></trkpt><trkpt lat="45.1303099" lon="7.1914929"><ele>413.0</ele><time>2026-05-01T07:32:13.411Z</time></trkpt><trkpt lat="45.1304096" lon="7.1911404"><ele>413.0</ele><time>2026-05-01T07:32:14.412Z</time></trkpt><trkpt lat="45.1305042" lon="7.1907861"><ele>413.0</ele><time>2026-05-01T07:32:15.411Z</time></trkpt><trkpt lat="45.1305923" lon="7.1904274"><ele>413.5</ele><time>2026-05-01T07:32:16.411Z</time></trkpt><trkpt lat="45.1306773" lon="7.1900673"><ele>414.0</ele><time>2026-05-01T07:32:17.411Z</time></trkpt><trkpt lat="45.1307612" lon="7.1897088"><ele>414.0</ele><time>2026-05-01T07:32:18.412Z</time></trkpt><trkpt lat="45.1308437" lon="7.1893445"><ele>414.0</ele><time>2026-05-01T07:32:19.411Z</time></trkpt><trkpt lat="45.1309256" lon="7.1889833"><ele>414.0</ele><time>2026-05-01T07:32:20.411Z</time></trkpt><trkpt lat="45.1310064" lon="7.1886225"><ele>414.0</ele><time>2026-05-01T07:32:21.411Z</time></trkpt><trkpt lat="45.131087" lon="7.1882613"><ele>414.0</ele><time>2026-05-01T07:32:22.411Z</time></trkpt><trkpt lat="45.131167" lon="7.1879005"><ele>414.0</ele><time>2026-05-01T07:32:23.411Z</time></trkpt><trkpt lat="45.1312489" lon="7.1875419"><ele>413.5</ele><time>2026-05-01T07:32:24.411Z</time></trkpt><trkpt lat="45.1313284" lon="7.18719"><ele>413.0</ele><time>2026-05-01T07:32:25.411Z</time></trkpt><trkpt lat="45.1314053" lon="7.1868432"><ele>413.0</ele><time>2026-05-01T07:32:26.411Z</time></trkpt><trkpt lat="45.1314822" lon="7.1864991"><ele>413.0</ele><time>2026-05-01T07:32:27.411Z</time></trkpt><trkpt lat="45.1315603" lon="7.1861574"><ele>414.0</ele><time>2026-05-01T07:32:28.411Z</time></trkpt><trkpt lat="45.1316382" lon="7.1858166"><ele>415.0</ele><time>2026-05-01T07:32:29.411Z</time></trkpt><trkpt lat="45.1317139" lon="7.1854756"><ele>415.0</ele><time>2026-05-01T07:32:30.411Z</time></trkpt><trkpt lat="45.1317922" lon="7.1851351"><ele>415.0</ele><time>2026-05-01T07:32:31.411Z</time></trkpt><trkpt lat="45.1318676" lon="7.1847916"><ele>414.5</ele><time>2026-05-01T07:32:32.411Z</time></trkpt><trkpt lat="45.1319452" lon="7.1844454"><ele>414.0</ele><time>2026-05-01T07:32:33.412Z</time></trkpt><trkpt lat="45.1320257" lon="7.1840997"><ele>414.5</ele><time>2026-05-01T07:32:34.411Z</time></trkpt><trkpt lat="45.1321059" lon="7.1837569"><ele>415.0</ele><time>2026-05-01T07:32:35.411Z</time></trkpt><trkpt lat="45.1321893" lon="7.1834119"><ele>416.0</ele><time>2026-05-01T07:32:36.411Z</time></trkpt><trkpt lat="45.1322703" lon="7.1830599"><ele>417.0</ele><time>2026-05-01T07:32:37.411Z</time></trkpt><trkpt lat="45.1323494" lon="7.1827092"><ele>418.0</ele><time>2026-05-01T07:32:38.411Z</time></trkpt><trkpt lat="45.1324264" lon="7.1823625"><ele>419.0</ele><time>2026-05-01T07:32:39.411Z</time></trkpt><trkpt lat="45.1325031" lon="7.1820148"><ele>419.0</ele><time>2026-05-01T07:32:40.411Z</time></trkpt><trkpt lat="45.1325803" lon="7.181667"><ele>419.0</ele><time>2026-05-01T07:32:41.411Z</time></trkpt><trkpt lat="45.1326576" lon="7.1813197"><ele>419.0</ele><time>2026-05-01T07:32:42.411Z</time></trkpt><trkpt lat="45.1327353" lon="7.1809728"><ele>419.0</ele><time>2026-05-01T07:32:43.411Z</time></trkpt><trkpt lat="45.1328123" lon="7.180626"><ele>419.0</ele><time>2026-05-01T07:32:44.411Z</time></trkpt><trkpt lat="45.1328907" lon="7.1802781"><ele>419.0</ele><time>2026-05-01T07:32:45.411Z</time></trkpt><trkpt lat="45.1329694" lon="7.1799289"><ele>418.5</ele><time>2026-05-01T07:32:46.412Z</time></trkpt><trkpt lat="45.1330493" lon="7.1795786"><ele>418.0</ele><time>2026-05-01T07:32:47.413Z</time></trkpt><trkpt lat="45.1331314" lon="7.1792282"><ele>417.5</ele><time>2026-05-01T07:32:48.411Z</time></trkpt><trkpt lat="45.1332115" lon="7.1788805"><ele>417.0</ele><time>2026-05-01T07:32:49.412Z</time></trkpt><trkpt lat="45.1332903" lon="7.1785323"><ele>419.5</ele><time>2026-05-01T07:32:50.411Z</time></trkpt><trkpt lat="45.1333696" lon="7.178183"><ele>422.0</ele><time>2026-05-01T07:32:51.412Z</time></trkpt><trkpt lat="45.1334482" lon="7.1778351"><ele>422.0</ele><time>2026-05-01T07:32:52.412Z</time></trkpt><trkpt lat="45.1335273" lon="7.1774896"><ele>422.0</ele><time>2026-05-01T07:32:53.411Z</time></trkpt><trkpt lat="45.1336039" lon="7.1771464"><ele>422.0</ele><time>2026-05-01T07:32:54.412Z</time></trkpt><trkpt lat="45.1336797" lon="7.1768087"><ele>422.0</ele><time>2026-05-01T07:32:55.411Z</time></trkpt><trkpt lat="45.1337562" lon="7.1764712"><ele>422.0</ele><time>2026-05-01T07:32:56.411Z</time></trkpt><trkpt lat="45.1338315" lon="7.1761348"><ele>422.0</ele><time>2026-05-01T07:32:57.411Z</time></trkpt><trkpt lat="45.133907" lon="7.175797"><ele>422.0</ele><time>2026-05-01T07:32:58.411Z</time></trkpt><trkpt lat="45.1339822" lon="7.1754597"><ele>422.0</ele><time>2026-05-01T07:32:59.411Z</time></trkpt><trkpt lat="45.1340588" lon="7.1751279"><ele>423.0</ele><time>2026-05-01T07:33:00.412Z</time></trkpt><trkpt lat="45.1341348" lon="7.1747968"><ele>424.0</ele><time>2026-05-01T07:33:01.411Z</time></trkpt><trkpt lat="45.1342103" lon="7.1744675"><ele>424.0</ele><time>2026-05-01T07:33:02.412Z</time></trkpt><trkpt lat="45.134285" lon="7.1741381"><ele>424.0</ele><time>2026-05-01T07:33:03.411Z</time></trkpt><trkpt lat="45.1343558" lon="7.1738018"><ele>424.5</ele><time>2026-05-01T07:33:04.411Z</time></trkpt><trkpt lat="45.1344152" lon="7.1734568"><ele>425.0</ele><time>2026-05-01T07:33:05.413Z</time></trkpt><trkpt lat="45.1344679" lon="7.1731067"><ele>425.5</ele><time>2026-05-01T07:33:06.411Z</time></trkpt><trkpt lat="45.134506" lon="7.1727439"><ele>426.0</ele><time>2026-05-01T07:33:07.412Z</time></trkpt><trkpt lat="45.1345308" lon="7.1723756"><ele>426.0</ele><time>2026-05-01T07:33:08.412Z</time></trkpt><trkpt lat="45.1345399" lon="7.1720022"><ele>426.0</ele><time>2026-05-01T07:33:09.412Z</time></trkpt><trkpt lat="45.1345366" lon="7.171628"><ele>426.0</ele><time>2026-05-01T07:33:10.411Z</time></trkpt><trkpt lat="45.1345216" lon="7.1712521"><ele>426.0</ele><time>2026-05-01T07:33:11.412Z</time></trkpt><trkpt lat="45.1344934" lon="7.1708786"><ele>427.0</ele><time>2026-05-01T07:33:12.411Z</time></trkpt><trkpt lat="45.1344515" lon="7.1705063"><ele>428.0</ele><time>2026-05-01T07:33:13.411Z</time></trkpt><trkpt lat="45.1343932" lon="7.170141"><ele>427.0</ele><time>2026-05-01T07:33:14.411Z</time></trkpt><trkpt lat="45.1343197" lon="7.1697814"><ele>426.0</ele><time>2026-05-01T07:33:15.411Z</time></trkpt><trkpt lat="45.1342375" lon="7.1694317"><ele>426.0</ele><time>2026-05-01T07:33:16.411Z</time></trkpt><trkpt lat="45.1341556" lon="7.1690862"><ele>426.0</ele><time>2026-05-01T07:33:17.412Z</time></trkpt><trkpt lat="45.1340756" lon="7.1687433"><ele>425.5</ele><time>2026-05-01T07:33:18.411Z</time></trkpt><trkpt lat="45.1339957" lon="7.1684002"><ele>425.0</ele><time>2026-05-01T07:33:19.412Z</time></trkpt><trkpt lat="45.1339175" lon="7.1680559"><ele>425.0</ele><time>2026-05-01T07:33:20.411Z</time></trkpt><trkpt lat="45.1338374" lon="7.1677125"><ele>425.0</ele><time>2026-05-01T07:33:21.412Z</time></trkpt><trkpt lat="45.1337582" lon="7.1673681"><ele>424.5</ele><time>2026-05-01T07:33:22.411Z</time></trkpt><trkpt lat="45.133679" lon="7.1670251"><ele>424.0</ele><time>2026-05-01T07:33:23.412Z</time></trkpt><trkpt lat="45.133598" lon="7.1666823"><ele>424.0</ele><time>2026-05-01T07:33:24.411Z</time></trkpt><trkpt lat="45.1335169" lon="7.1663391"><ele>424.0</ele><time>2026-05-01T07:33:25.411Z</time></trkpt><trkpt lat="45.1334366" lon="7.1659961"><ele>424.5</ele><time>2026-05-01T07:33:26.41Z</time></trkpt><trkpt lat="45.1333572" lon="7.1656561"><ele>425.0</ele><time>2026-05-01T07:33:27.412Z</time></trkpt><trkpt lat="45.1332775" lon="7.1653194"><ele>425.5</ele><time>2026-05-01T07:33:28.41Z</time></trkpt><trkpt lat="45.1331985" lon="7.1649827"><ele>426.0</ele><time>2026-05-01T07:33:29.41Z</time></trkpt><trkpt lat="45.1331191" lon="7.1646468"><ele>427.5</ele><time>2026-05-01T07:33:30.41Z</time></trkpt><trkpt lat="45.1330392" lon="7.1643094"><ele>429.0</ele><time>2026-05-01T07:33:31.41Z</time></trkpt><trkpt lat="45.1329596" lon="7.1639671"><ele>430.5</ele><time>2026-05-01T07:33:32.41Z</time></trkpt><trkpt lat="45.1328766" lon="7.1636232"><ele>432.0</ele><time>2026-05-01T07:33:33.41Z</time></trkpt><trkpt lat="45.1327945" lon="7.1632761"><ele>432.5</ele><time>2026-05-01T07:33:34.41Z</time></trkpt><trkpt lat="45.1327079" lon="7.162932"><ele>433.0</ele><time>2026-05-01T07:33:35.41Z</time></trkpt><trkpt lat="45.1326178" lon="7.162586"><ele>432.0</ele><time>2026-05-01T07:33:36.41Z</time></trkpt><trkpt lat="45.1325204" lon="7.1622425"><ele>431.0</ele><time>2026-05-01T07:33:37.41Z</time></trkpt><trkpt lat="45.1324143" lon="7.1619022"><ele>432.5</ele><time>2026-05-01T07:33:38.41Z</time></trkpt><trkpt lat="45.1323025" lon="7.161561"><ele>434.0</ele><time>2026-05-01T07:33:39.411Z</time></trkpt><trkpt lat="45.1321911" lon="7.1612198"><ele>434.5</ele><time>2026-05-01T07:33:40.41Z</time></trkpt><trkpt lat="45.1320832" lon="7.1608883"><ele>435.0</ele><time>2026-05-01T07:33:41.41Z</time></trkpt><trkpt lat="45.1319775" lon="7.1605616"><ele>435.0</ele><time>2026-05-01T07:33:42.41Z</time></trkpt><trkpt lat="45.1318714" lon="7.1602336"><ele>435.0</ele><time>2026-05-01T07:33:43.41Z</time></trkpt><trkpt lat="45.1317653" lon="7.1599105"><ele>436.5</ele><time>2026-05-01T07:33:44.41Z</time></trkpt><trkpt lat="45.1316597" lon="7.1595896"><ele>438.0</ele><time>2026-05-01T07:33:45.411Z</time></trkpt><trkpt lat="45.1315574" lon="7.1592708"><ele>442.0</ele><time>2026-05-01T07:33:46.411Z</time></trkpt><trkpt lat="45.1314549" lon="7.158952"><ele>446.0</ele><time>2026-05-01T07:33:47.41Z</time></trkpt><trkpt lat="45.131353" lon="7.1586341"><ele>463.0</ele><time>2026-05-01T07:33:48.411Z</time></trkpt><trkpt lat="45.1311885" lon="7.1074825"><ele>462.6666666666667</ele><time>2026-05-01T07:36:28.41Z</time></trkpt><trkpt lat="45.1312956" lon="7.1072476"><ele>462.33333333333337</ele><time>2026-05-01T07:36:29.411Z</time></trkpt><trkpt lat="45.1313932" lon="7.1070253"><ele>462.0</ele><time>2026-05-01T07:36:30.411Z</time></trkpt><trkpt lat="45.1314798" lon="7.106816"><ele>459.66666666666663</ele><time>2026-05-01T07:36:31.41Z</time></trkpt><trkpt lat="45.1315625" lon="7.1065989"><ele>457.3333333333333</ele><time>2026-05-01T07:36:32.411Z</time></trkpt><trkpt lat="45.1316456" lon="7.1063745"><ele>455.0</ele><time>2026-05-01T07:36:33.41Z</time></trkpt><trkpt lat="45.1317261" lon="7.1061428"><ele>455.0</ele><time>2026-05-01T07:36:34.41Z</time></trkpt><trkpt lat="45.1318039" lon="7.105911"><ele>455.0</ele><time>2026-05-01T07:36:35.41Z</time></trkpt><trkpt lat="45.1318736" lon="7.1056812"><ele>455.0</ele><time>2026-05-01T07:36:36.41Z</time></trkpt><trkpt lat="45.1319366" lon="7.1054554"><ele>455.3333333333333</ele><time>2026-05-01T07:36:37.41Z</time></trkpt><trkpt lat="45.1319979" lon="7.1052329"><ele>455.66666666666663</ele><time>2026-05-01T07:36:38.41Z</time></trkpt><trkpt lat="45.1320553" lon="7.1050121"><ele>456.0</ele><time>2026-05-01T07:36:39.41Z</time></trkpt><trkpt lat="45.1321114" lon="7.1047848"><ele>456.66666666666663</ele><time>2026-05-01T07:36:40.41Z</time></trkpt><trkpt lat="45.1321646" lon="7.1045543"><ele>457.3333333333333</ele><time>2026-05-01T07:36:41.41Z</time></trkpt><trkpt lat="45.1322152" lon="7.1043213"><ele>458.0</ele><time>2026-05-01T07:36:42.41Z</time></trkpt><trkpt lat="45.1322631" lon="7.1040845"><ele>458.66666666666663</ele><time>2026-05-01T07:36:43.411Z</time></trkpt><trkpt lat="45.1323091" lon="7.1038399"><ele>459.33333333333337</ele><time>2026-05-01T07:36:44.411Z</time></trkpt><trkpt lat="45.1323559" lon="7.10359"><ele>460.0</ele><time>2026-05-01T07:36:45.41Z</time></trkpt><trkpt lat="45.1324025" lon="7.1033341"><ele>459.0</ele><time>2026-05-01T07:36:46.41Z</time></trkpt><trkpt lat="45.1324495" lon="7.1030788"><ele>458.0</ele><time>2026-05-01T07:36:47.41Z</time></trkpt><trkpt lat="45.132496" lon="7.1028273"><ele>457.0</ele><time>2026-05-01T07:36:48.41Z</time></trkpt><trkpt lat="45.1325445" lon="7.1025734"><ele>457.6666666666667</ele><time>2026-05-01T07:36:49.41Z</time></trkpt><trkpt lat="45.1325912" lon="7.1023158"><ele>458.33333333333337</ele><time>2026-05-01T07:36:50.41Z</time></trkpt><trkpt lat="45.132637" lon="7.1020562"><ele>459.0</ele><time>2026-05-01T07:36:51.41Z</time></trkpt><trkpt lat="45.1326808" lon="7.101795"><ele>459.0</ele><time>2026-05-01T07:36:52.411Z</time></trkpt><trkpt lat="45.1327244" lon="7.1015312"><ele>459.0</ele><time>2026-05-01T07:36:53.411Z</time></trkpt><trkpt lat="45.1327717" lon="7.1012651"><ele>459.0</ele><time>2026-05-01T07:36:54.41Z</time></trkpt><trkpt lat="45.1328189" lon="7.1009999"><ele>460.0</ele><time>2026-05-01T07:36:55.41Z</time></trkpt><trkpt lat="45.1328665" lon="7.100731"><ele>461.0</ele><time>2026-05-01T07:36:56.41Z</time></trkpt><trkpt lat="45.13292" lon="7.1004591"><ele>462.0</ele><time>2026-05-01T07:36:57.41Z</time></trkpt><trkpt lat="45.1329754" lon="7.1001921"><ele>462.0</ele><time>2026-05-01T07:36:58.41Z</time></trkpt><trkpt lat="45.133034" lon="7.0999309"><ele>462.0</ele><time>2026-05-01T07:36:59.41Z</time></trkpt><trkpt lat="45.1330979" lon="7.0996733"><ele>462.0</ele><time>2026-05-01T07:37:00.41Z</time></trkpt><trkpt lat="45.1331634" lon="7.0994148"><ele>462.33333333333337</ele><time>2026-05-01T07:37:01.41Z</time></trkpt><trkpt lat="45.1332316" lon="7.0991548"><ele>462.6666666666667</ele><time>2026-05-01T07:37:02.41Z</time></trkpt><trkpt lat="45.1333061" lon="7.0988951"><ele>463.0</ele><time>2026-05-01T07:37:03.41Z</time></trkpt><trkpt lat="45.1333857" lon="7.0986382"><ele>463.0</ele><time>2026-05-01T07:37:04.41Z</time></trkpt><trkpt lat="45.1334683" lon="7.0983885"><ele>463.0</ele><time>2026-05-01T07:37:05.411Z</time></trkpt><trkpt lat="45.1335513" lon="7.0981444"><ele>463.0</ele><time>2026-05-01T07:37:06.41Z</time></trkpt><trkpt lat="45.1336389" lon="7.0978992"><ele>463.6666666666667</ele><time>2026-05-01T07:37:07.41Z</time></trkpt><trkpt lat="45.1337325" lon="7.0976532"><ele>464.33333333333337</ele><time>2026-05-01T07:37:08.41Z</time></trkpt><trkpt lat="45.1338337" lon="7.0974066"><ele>465.0</ele><time>2026-05-01T07:37:09.41Z</time></trkpt><trkpt lat="45.13394" lon="7.0971603"><ele>464.66666666666663</ele><time>2026-05-01T07:37:10.41Z</time></trkpt><trkpt lat="45.1340499" lon="7.0969127"><ele>464.3333333333333</ele><time>2026-05-01T07:37:11.411Z</time></trkpt><trkpt lat="45.1341615" lon="7.096662"><ele>464.0</ele><time>2026-05-01T07:37:12.41Z</time></trkpt><trkpt lat="45.134274" lon="7.0964087"><ele>464.0</ele><time>2026-05-01T07:37:13.41Z</time></trkpt><trkpt lat="45.1343868" lon="7.0961531"><ele>464.0</ele><time>2026-05-01T07:37:14.41Z</time></trkpt><trkpt lat="45.1345013" lon="7.0958949"><ele>464.0</ele><time>2026-05-01T07:37:15.41Z</time></trkpt><trkpt lat="45.1346152" lon="7.0956355"><ele>464.0</ele><time>2026-05-01T07:37:16.41Z</time></trkpt><trkpt lat="45.1347296" lon="7.0953742"><ele>464.0</ele><time>2026-05-01T07:37:17.41Z</time></trkpt><trkpt lat="45.1348436" lon="7.0951113"><ele>464.0</ele><time>2026-05-01T07:37:18.41Z</time></trkpt><trkpt lat="45.1349593" lon="7.0948486"><ele>464.0</ele><time>2026-05-01T07:37:19.41Z</time></trkpt><trkpt lat="45.135078" lon="7.0945886"><ele>464.0</ele><time>2026-05-01T07:37:20.411Z</time></trkpt><trkpt lat="45.1351955" lon="7.0943349"><ele>464.0</ele><time>2026-05-01T07:37:21.41Z</time></trkpt><trkpt lat="45.1353082" lon="7.0940959"><ele>464.3333333333333</ele><time>2026-05-01T07:37:22.41Z</time></trkpt><trkpt lat="45.1354107" lon="7.0938756"><ele>464.66666666666663</ele><time>2026-05-01T07:37:23.41Z</time></trkpt><trkpt lat="45.1355048" lon="7.0936715"><ele>465.0</ele><time>2026-05-01T07:37:24.41Z</time></trkpt><trkpt lat="45.1355925" lon="7.0934709"><ele>465.0</ele><time>2026-05-01T07:37:25.41Z</time></trkpt><trkpt lat="45.1356796" lon="7.0932781"><ele>465.0</ele><time>2026-05-01T07:37:26.411Z</time></trkpt><trkpt lat="45.1357606" lon="7.0930906"><ele>465.0</ele><time>2026-05-01T07:37:27.41Z</time></trkpt><trkpt lat="45.1358442" lon="7.0929099"><ele>465.0</ele><time>2026-05-01T07:37:28.41Z</time></trkpt><trkpt lat="45.1359306" lon="7.0927289"><ele>465.0</ele><time>2026-05-01T07:37:29.41Z</time></trkpt><trkpt lat="45.1360177" lon="7.0925525"><ele>465.0</ele><time>2026-05-01T07:37:30.411Z</time></trkpt><trkpt lat="45.136105" lon="7.0923777"><ele>465.25</ele><time>2026-05-01T07:37:31.411Z</time></trkpt><trkpt lat="45.1361926" lon="7.0922053"><ele>465.5</ele><time>2026-05-01T07:37:32.411Z</time></trkpt><trkpt lat="45.1362764" lon="7.0920367"><ele>465.75</ele><time>2026-05-01T07:37:33.41Z</time></trkpt><trkpt lat="45.1363524" lon="7.0918846"><ele>466.0</ele><time>2026-05-01T07:37:34.41Z</time></trkpt><trkpt lat="45.1364199" lon="7.0917387"><ele>466.0</ele><time>2026-05-01T07:37:35.41Z</time></trkpt><trkpt lat="45.1364831" lon="7.0915983"><ele>466.0</ele><time>2026-05-01T07:37:36.41Z</time></trkpt><trkpt lat="45.1365412" lon="7.0914537"><ele>466.0</ele><time>2026-05-01T07:37:37.41Z</time></trkpt><trkpt lat="45.1365969" lon="7.091303"><ele>466.0</ele><time>2026-05-01T07:37:38.41Z</time></trkpt><trkpt lat="45.1366519" lon="7.0911469"><ele>466.5</ele><time>2026-05-01T07:37:39.41Z</time></trkpt><trkpt lat="45.1367039" lon="7.0909871"><ele>467.0</ele><time>2026-05-01T07:37:40.41Z</time></trkpt><trkpt lat="45.1367538" lon="7.0908265"><ele>467.5</ele><time>2026-05-01T07:37:41.41Z</time></trkpt><trkpt lat="45.136799" lon="7.0906635"><ele>468.0</ele><time>2026-05-01T07:37:42.41Z</time></trkpt><trkpt lat="45.136839" lon="7.0904992"><ele>468.5</ele><time>2026-05-01T07:37:43.41Z</time></trkpt><trkpt lat="45.1368767" lon="7.0903372"><ele>469.0</ele><time>2026-05-01T07:37:44.41Z</time></trkpt><trkpt lat="45.136911" lon="7.0901721"><ele>469.5</ele><time>2026-05-01T07:37:45.41Z</time></trkpt><trkpt lat="45.1369414" lon="7.0900061"><ele>470.0</ele><time>2026-05-01T07:37:46.41Z</time></trkpt><trkpt lat="45.1369702" lon="7.0898432"><ele>470.0</ele><time>2026-05-01T07:37:47.41Z</time></trkpt><trkpt lat="45.1369936" lon="7.0896726"><ele>470.0</ele><time>2026-05-01T07:37:48.41Z</time></trkpt><trkpt lat="45.1370145" lon="7.0895024"><ele>470.0</ele><time>2026-05-01T07:37:49.411Z</time></trkpt><trkpt lat="45.1370337" lon="7.0893275"><ele>470.0</ele><time>2026-05-01T07:37:50.41Z</time></trkpt><trkpt lat="45.1370497" lon="7.0891514"><ele>469.5</ele><time>2026-05-01T07:37:51.41Z</time></trkpt><trkpt lat="45.1370614" lon="7.088966"><ele>469.0</ele><time>2026-05-01T07:37:52.41Z</time></trkpt><trkpt lat="45.1370689" lon="7.0887721"><ele>468.5</ele><time>2026-05-01T07:37:53.411Z</time></trkpt><trkpt lat="45.1370742" lon="7.0885665"><ele>468.0</ele><time>2026-05-01T07:37:54.41Z</time></trkpt><trkpt lat="45.1370756" lon="7.0883512"><ele>468.0</ele><time>2026-05-01T07:37:55.411Z</time></trkpt><trkpt lat="45.1370728" lon="7.0881283"><ele>468.0</ele><time>2026-05-01T07:37:56.41Z</time></trkpt><trkpt lat="45.1370646" lon="7.0879048"><ele>468.0</ele><time>2026-05-01T07:37:57.41Z</time></trkpt><trkpt lat="45.1370486" lon="7.0876822"><ele>468.0</ele><time>2026-05-01T07:37:58.41Z</time></trkpt><trkpt lat="45.137026" lon="7.0874646"><ele>468.0</ele><time>2026-05-01T07:37:59.41Z</time></trkpt><trkpt lat="45.1369989" lon="7.0872515"><ele>468.0</ele><time>2026-05-01T07:38:00.41Z</time></trkpt><trkpt lat="45.1369692" lon="7.0870426"><ele>468.5</ele><time>2026-05-01T07:38:01.41Z</time></trkpt><trkpt lat="45.1369374" lon="7.0868394"><ele>469.0</ele><time>2026-05-01T07:38:02.41Z</time></trkpt><trkpt lat="45.1369002" lon="7.086643"><ele>469.5</ele><time>2026-05-01T07:38:03.411Z</time></trkpt><trkpt lat="45.1368615" lon="7.0864517"><ele>470.0</ele><time>2026-05-01T07:38:04.41Z</time></trkpt><trkpt lat="45.1368243" lon="7.0862751"><ele>470.2</ele><time>2026-05-01T07:38:05.411Z</time></trkpt><trkpt lat="45.1367885" lon="7.0861116"><ele>470.4</ele><time>2026-05-01T07:38:06.41Z</time></trkpt><trkpt lat="45.1367557" lon="7.085955"><ele>470.6</ele><time>2026-05-01T07:38:07.41Z</time></trkpt><trkpt lat="45.136724" lon="7.0858073"><ele>470.8</ele><time>2026-05-01T07:38:08.41Z</time></trkpt><trkpt lat="45.1366974" lon="7.0856687"><ele>471.0</ele><time>2026-05-01T07:38:09.41Z</time></trkpt><trkpt lat="45.1366844" lon="7.0855329"><ele>471.20000000000005</ele><time>2026-05-01T07:38:10.411Z</time></trkpt><trkpt lat="45.1366887" lon="7.0854024"><ele>471.40000000000003</ele><time>2026-05-01T07:38:11.41Z</time></trkpt><trkpt lat="45.1367132" lon="7.0852759"><ele>471.6</ele><time>2026-05-01T07:38:12.41Z</time></trkpt><trkpt lat="45.136755" lon="7.085143"><ele>471.8</ele><time>2026-05-01T07:38:13.41Z</time></trkpt><trkpt lat="45.1368046" lon="7.0849981"><ele>472.0</ele><time>2026-05-01T07:38:14.41Z</time></trkpt><trkpt lat="45.1368585" lon="7.0848395"><ele>472.0</ele><time>2026-05-01T07:38:15.41Z</time></trkpt><trkpt lat="45.1369165" lon="7.084668"><ele>472.0</ele><time>2026-05-01T07:38:16.411Z</time></trkpt><trkpt lat="45.1369728" lon="7.0844825"><ele>472.0</ele><time>2026-05-01T07:38:17.41Z</time></trkpt><trkpt lat="45.1370183" lon="7.0842894"><ele>472.0</ele><time>2026-05-01T07:38:18.41Z</time></trkpt><trkpt lat="45.137055" lon="7.0840857"><ele>471.5</ele><time>2026-05-01T07:38:19.41Z</time></trkpt><trkpt lat="45.1370825" lon="7.0838775"><ele>471.0</ele><time>2026-05-01T07:38:20.41Z</time></trkpt><trkpt lat="45.1370979" lon="7.0836704"><ele>470.5</ele><time>2026-05-01T07:38:21.41Z</time></trkpt><trkpt lat="45.1371025" lon="7.0834726"><ele>470.0</ele><time>2026-05-01T07:38:22.41Z</time></trkpt><trkpt lat="45.1370979" lon="7.0832832"><ele>470.25</ele><time>2026-05-01T07:38:23.41Z</time></trkpt><trkpt lat="45.1370897" lon="7.0831057"><ele>470.5</ele><time>2026-05-01T07:38:24.41Z</time></trkpt><trkpt lat="45.1370839" lon="7.0829373"><ele>470.75</ele><time>2026-05-01T07:38:25.41Z</time></trkpt><trkpt lat="45.1370753" lon="7.0827794"><ele>471.0</ele><time>2026-05-01T07:38:26.41Z</time></trkpt><trkpt lat="45.1370667" lon="7.0826321"><ele>471.0</ele><time>2026-05-01T07:38:27.41Z</time></trkpt><trkpt lat="45.1370569" lon="7.0824912"><ele>471.0</ele><time>2026-05-01T07:38:28.41Z</time></trkpt><trkpt lat="45.1370467" lon="7.0823597"><ele>471.0</ele><time>2026-05-01T07:38:29.41Z</time></trkpt><trkpt lat="45.1370393" lon="7.0822403"><ele>471.0</ele><time>2026-05-01T07:38:30.41Z</time></trkpt><trkpt lat="45.1370328" lon="7.0821333"><ele>471.0</ele><time>2026-05-01T07:38:31.412Z</time></trkpt><trkpt lat="45.1370194" lon="7.0820299"><ele>471.0</ele><time>2026-05-01T07:38:32.41Z</time></trkpt><trkpt lat="45.1369988" lon="7.0819211"><ele>471.0</ele><time>2026-05-01T07:38:33.41Z</time></trkpt><trkpt lat="45.1369599" lon="7.0818168"><ele>471.0</ele><time>2026-05-01T07:38:34.41Z</time></trkpt><trkpt lat="45.1369029" lon="7.0817146"><ele>471.0</ele><time>2026-05-01T07:38:35.41Z</time></trkpt><trkpt lat="45.1368275" lon="7.0816245"><ele>471.0</ele><time>2026-05-01T07:38:36.41Z</time></trkpt><trkpt lat="45.1367378" lon="7.0815582"><ele>471.0</ele><time>2026-05-01T07:38:37.411Z</time></trkpt><trkpt lat="45.1366404" lon="7.0815236"><ele>471.6</ele><time>2026-05-01T07:38:38.411Z</time></trkpt><trkpt lat="45.1365418" lon="7.0815208"><ele>472.20000000000005</ele><time>2026-05-01T07:38:39.41Z</time></trkpt><trkpt lat="45.1364474" lon="7.0815605"><ele>472.79999999999995</ele><time>2026-05-01T07:38:40.41Z</time></trkpt><trkpt lat="45.1363573" lon="7.0816296"><ele>473.4</ele><time>2026-05-01T07:38:41.411Z</time></trkpt><trkpt lat="45.1362567" lon="7.0817277"><ele>474.0</ele><time>2026-05-01T07:38:42.411Z</time></trkpt><trkpt lat="45.1361563" lon="7.0818394"><ele>474.0</ele><time>2026-05-01T07:38:43.41Z</time></trkpt><trkpt lat="45.1360574" lon="7.0819491"><ele>474.0</ele><time>2026-05-01T07:38:44.41Z</time></trkpt><trkpt lat="45.1359629" lon="7.0820522"><ele>474.0</ele><time>2026-05-01T07:38:45.411Z</time></trkpt><trkpt lat="45.1358759" lon="7.0821547"><ele>474.0</ele><time>2026-05-01T07:38:46.41Z</time></trkpt><trkpt lat="45.1357995" lon="7.0822672"><ele>474.0</ele><time>2026-05-01T07:38:47.411Z</time></trkpt><trkpt lat="45.1357331" lon="7.0824087"><ele>474.0</ele><time>2026-05-01T07:38:48.41Z</time></trkpt><trkpt lat="45.1357085" lon="7.0825509"><ele>474.0</ele><time>2026-05-01T07:38:49.41Z</time></trkpt><trkpt lat="45.1356948" lon="7.0827242"><ele>474.0</ele><time>2026-05-01T07:38:50.41Z</time></trkpt><trkpt lat="45.1356982" lon="7.0829136"><ele>474.25</ele><time>2026-05-01T07:38:51.41Z</time></trkpt><trkpt lat="45.1357127" lon="7.0830993"><ele>474.5</ele><time>2026-05-01T07:38:52.41Z</time></trkpt><trkpt lat="45.1357264" lon="7.0832731"><ele>474.75</ele><time>2026-05-01T07:38:53.41Z</time></trkpt><trkpt lat="45.1357409" lon="7.0834394"><ele>475.0</ele><time>2026-05-01T07:38:54.41Z</time></trkpt><trkpt lat="45.1357559" lon="7.0835957"><ele>475.2</ele><time>2026-05-01T07:38:55.41Z</time></trkpt><trkpt lat="45.1357703" lon="7.0837528"><ele>475.4</ele><time>2026-05-01T07:38:56.41Z</time></trkpt><trkpt lat="45.1357839" lon="7.0839066"><ele>475.6</ele><time>2026-05-01T07:38:57.41Z</time></trkpt><trkpt lat="45.1357944" lon="7.0840523"><ele>475.8</ele><time>2026-05-01T07:38:58.41Z</time></trkpt><trkpt lat="45.1357992" lon="7.0841975"><ele>476.0</ele><time>2026-05-01T07:38:59.412Z</time></trkpt><trkpt lat="45.1357978" lon="7.0843409"><ele>476.20000000000005</ele><time>2026-05-01T07:39:00.41Z</time></trkpt><trkpt lat="45.1357899" lon="7.0844873"><ele>476.40000000000003</ele><time>2026-05-01T07:39:01.41Z</time></trkpt><trkpt lat="45.1357729" lon="7.084642"><ele>476.6</ele><time>2026-05-01T07:39:02.411Z</time></trkpt><trkpt lat="45.1357458" lon="7.0847942"><ele>476.8</ele><time>2026-05-01T07:39:03.411Z</time></trkpt><trkpt lat="45.1357167" lon="7.0849487"><ele>477.0</ele><time>2026-05-01T07:39:04.411Z</time></trkpt><trkpt lat="45.1356924" lon="7.0850966"><ele>476.6</ele><time>2026-05-01T07:39:05.41Z</time></trkpt><trkpt lat="45.1356721" lon="7.0852444"><ele>476.20000000000005</ele><time>2026-05-01T07:39:06.41Z</time></trkpt><trkpt lat="45.1356535" lon="7.0853895"><ele>475.8</ele><time>2026-05-01T07:39:07.41Z</time></trkpt><trkpt lat="45.1356374" lon="7.0855285"><ele>475.4</ele><time>2026-05-01T07:39:08.411Z</time></trkpt><trkpt lat="45.1356251" lon="7.0856625"><ele>475.0</ele><time>2026-05-01T07:39:09.41Z</time></trkpt><trkpt lat="45.1356156" lon="7.0857905"><ele>474.8</ele><time>2026-05-01T07:39:10.41Z</time></trkpt><trkpt lat="45.1356097" lon="7.0859217"><ele>474.6</ele><time>2026-05-01T07:39:11.41Z</time></trkpt><trkpt lat="45.135607" lon="7.0860671"><ele>474.4</ele><time>2026-05-01T07:39:12.41Z</time></trkpt><trkpt lat="45.1356114" lon="7.0862073"><ele>474.2</ele><time>2026-05-01T07:39:13.41Z</time></trkpt><trkpt lat="45.135618" lon="7.0863307"><ele>474.0</ele><time>2026-05-01T07:39:14.41Z</time></trkpt><trkpt lat="45.135627" lon="7.0864407"><ele>474.0</ele><time>2026-05-01T07:39:15.41Z</time></trkpt><trkpt lat="45.1356369" lon="7.0865407"><ele>474.0</ele><time>2026-05-01T07:39:16.41Z</time></trkpt><trkpt lat="45.1356462" lon="7.0866301"><ele>474.0</ele><time>2026-05-01T07:39:17.41Z</time></trkpt><trkpt lat="45.1356669" lon="7.0867789"><ele>474.0</ele><time>2026-05-01T07:39:19.41Z</time></trkpt><trkpt lat="45.135673" lon="7.086911"><ele>474.0</ele><time>2026-05-01T07:39:21.41Z</time></trkpt><trkpt lat="45.1356265" lon="7.0869879"><ele>474.0</ele><time>2026-05-01T07:39:23.41Z</time></trkpt><trkpt lat="45.1355444" lon="7.0869348"><ele>474.0</ele><time>2026-05-01T07:39:26.411Z</time></trkpt><trkpt lat="45.135506" lon="7.0867418"><ele>474.0</ele><time>2026-05-01T07:39:28.41Z</time></trkpt><trkpt lat="45.1354913" lon="7.0865958"><ele>474.0</ele><time>2026-05-01T07:39:29.41Z</time></trkpt><trkpt lat="45.135475" lon="7.0864389"><ele>474.0</ele><time>2026-05-01T07:39:30.41Z</time></trkpt><trkpt lat="45.135459" lon="7.0862768"><ele>474.0</ele><time>2026-05-01T07:39:31.41Z</time></trkpt><trkpt lat="45.1354467" lon="7.0861067"><ele>474.0</ele><time>2026-05-01T07:39:32.41Z</time></trkpt><trkpt lat="45.1354364" lon="7.0859303"><ele>474.0</ele><time>2026-05-01T07:39:33.41Z</time></trkpt><trkpt lat="45.1354468" lon="7.0857442"><ele>474.0</ele><time>2026-05-01T07:39:34.411Z</time></trkpt><trkpt lat="45.1354771" lon="7.085557"><ele>474.25</ele><time>2026-05-01T07:39:35.41Z</time></trkpt><trkpt lat="45.1355195" lon="7.0853709"><ele>474.5</ele><time>2026-05-01T07:39:36.411Z</time></trkpt><trkpt lat="45.1355618" lon="7.0851827"><ele>474.75</ele><time>2026-05-01T07:39:37.41Z</time></trkpt><trkpt lat="45.1356038" lon="7.0849952"><ele>475.0</ele><time>2026-05-01T07:39:38.41Z</time></trkpt><trkpt lat="45.1356455" lon="7.0848138"><ele>475.4</ele><time>2026-05-01T07:39:39.41Z</time></trkpt><trkpt lat="45.1356742" lon="7.0846424"><ele>475.8</ele><time>2026-05-01T07:39:40.411Z</time></trkpt><trkpt lat="45.1356703" lon="7.0844863"><ele>476.20000000000005</ele><time>2026-05-01T07:39:41.411Z</time></trkpt><trkpt lat="45.1356392" lon="7.0843495"><ele>476.6</ele><time>2026-05-01T07:39:42.41Z</time></trkpt><trkpt lat="45.1355811" lon="7.0842321"><ele>477.0</ele><time>2026-05-01T07:39:43.41Z</time></trkpt><trkpt lat="45.1354951" lon="7.0841433"><ele>476.75</ele><time>2026-05-01T07:39:44.41Z</time></trkpt><trkpt lat="45.1353889" lon="7.0840824"><ele>476.5</ele><time>2026-05-01T07:39:45.41Z</time></trkpt><trkpt lat="45.1352745" lon="7.0840335"><ele>476.25</ele><time>2026-05-01T07:39:46.41Z</time></trkpt><trkpt lat="45.1351656" lon="7.083963"><ele>476.0</ele><time>2026-05-01T07:39:47.41Z</time></trkpt><trkpt lat="45.1350756" lon="7.083861"><ele>476.0</ele><time>2026-05-01T07:39:48.41Z</time></trkpt><trkpt lat="45.1350038" lon="7.0837295"><ele>476.0</ele><time>2026-05-01T07:39:49.41Z</time></trkpt><trkpt lat="45.1349557" lon="7.0835746"><ele>476.0</ele><time>2026-05-01T07:39:50.411Z</time></trkpt><trkpt lat="45.1349182" lon="7.0833985"><ele>476.0</ele><time>2026-05-01T07:39:51.41Z</time></trkpt><trkpt lat="45.1348744" lon="7.0832044"><ele>477.0</ele><time>2026-05-01T07:39:52.41Z</time></trkpt><trkpt lat="45.1348175" lon="7.0829931"><ele>478.0</ele><time>2026-05-01T07:39:53.41Z</time></trkpt><trkpt lat="45.1347549" lon="7.0827635"><ele>479.0</ele><time>2026-05-01T07:39:54.41Z</time></trkpt><trkpt lat="45.1346896" lon="7.0825326"><ele>478.66666666666663</ele><time>2026-05-01T07:39:55.41Z</time></trkpt><trkpt lat="45.1346214" lon="7.0823016"><ele>478.33333333333337</ele><time>2026-05-01T07:39:56.41Z</time></trkpt><trkpt lat="45.1345505" lon="7.0820644"><ele>478.0</ele><time>2026-05-01T07:39:57.41Z</time></trkpt><trkpt lat="45.1344791" lon="7.0818249"><ele>477.0</ele><time>2026-05-01T07:39:58.41Z</time></trkpt><trkpt lat="45.1344093" lon="7.0815849"><ele>476.0</ele><time>2026-05-01T07:39:59.41Z</time></trkpt><trkpt lat="45.134341" lon="7.0813475"><ele>475.0</ele><time>2026-05-01T07:40:00.41Z</time></trkpt><trkpt lat="45.1342718" lon="7.0811133"><ele>475.0</ele><time>2026-05-01T07:40:01.41Z</time></trkpt><trkpt lat="45.1342014" lon="7.0808817"><ele>475.0</ele><time>2026-05-01T07:40:02.411Z</time></trkpt><trkpt lat="45.1341326" lon="7.0806514"><ele>475.0</ele><time>2026-05-01T07:40:03.41Z</time></trkpt><trkpt lat="45.1340647" lon="7.0804211"><ele>475.33333333333337</ele><time>2026-05-01T07:40:04.41Z</time></trkpt><trkpt lat="45.1339997" lon="7.0801882"><ele>475.66666666666663</ele><time>2026-05-01T07:40:05.41Z</time></trkpt><trkpt lat="45.1339388" lon="7.0799535"><ele>476.0</ele><time>2026-05-01T07:40:06.41Z</time></trkpt><trkpt lat="45.133881" lon="7.0797197"><ele>476.0</ele><time>2026-05-01T07:40:07.41Z</time></trkpt><trkpt lat="45.1338307" lon="7.0794922"><ele>476.0</ele><time>2026-05-01T07:40:08.41Z</time></trkpt><trkpt lat="45.1337834" lon="7.0792687"><ele>476.0</ele><time>2026-05-01T07:40:09.41Z</time></trkpt><trkpt lat="45.1337362" lon="7.0790463"><ele>475.66666666666663</ele><time>2026-05-01T07:40:10.41Z</time></trkpt><trkpt lat="45.1336881" lon="7.0788193"><ele>475.33333333333337</ele><time>2026-05-01T07:40:11.41Z</time></trkpt><trkpt lat="45.1336396" lon="7.0785814"><ele>475.0</ele><time>2026-05-01T07:40:12.41Z</time></trkpt><trkpt lat="45.1335886" lon="7.0783351"><ele>474.6666666666667</ele><time>2026-05-01T07:40:13.411Z</time></trkpt><trkpt lat="45.1335326" lon="7.0780831"><ele>474.33333333333337</ele><time>2026-05-01T07:40:14.41Z</time></trkpt><trkpt lat="45.133476" lon="7.0778282"><ele>474.0</ele><time>2026-05-01T07:40:15.411Z</time></trkpt><trkpt lat="45.133422" lon="7.0775777"><ele>473.66666666666663</ele><time>2026-05-01T07:40:16.411Z</time></trkpt><trkpt lat="45.1333692" lon="7.0773331"><ele>473.3333333333333</ele><time>2026-05-01T07:40:17.411Z</time></trkpt><trkpt lat="45.1333176" lon="7.0770912"><ele>473.0</ele><time>2026-05-01T07:40:18.41Z</time></trkpt><trkpt lat="45.133265" lon="7.0768392"><ele>473.0</ele><time>2026-05-01T07:40:19.41Z</time></trkpt><trkpt lat="45.13321" lon="7.0765784"><ele>473.0</ele><time>2026-05-01T07:40:20.41Z</time></trkpt><trkpt lat="45.1331525" lon="7.0763111"><ele>473.0</ele><time>2026-05-01T07:40:21.41Z</time></trkpt><trkpt lat="45.1330961" lon="7.0760419"><ele>473.0</ele><time>2026-05-01T07:40:22.41Z</time></trkpt><trkpt lat="45.1330416" lon="7.0757724"><ele>473.0</ele><time>2026-05-01T07:40:23.41Z</time></trkpt><trkpt lat="45.1329898" lon="7.0755042"><ele>473.0</ele><time>2026-05-01T07:40:24.41Z</time></trkpt><trkpt lat="45.1329443" lon="7.0752352"><ele>474.0</ele><time>2026-05-01T07:40:25.41Z</time></trkpt><trkpt lat="45.132907" lon="7.0749618"><ele>475.0</ele><time>2026-05-01T07:40:26.41Z</time></trkpt><trkpt lat="45.1328758" lon="7.0746841"><ele>476.0</ele><time>2026-05-01T07:40:27.41Z</time></trkpt><trkpt lat="45.1328529" lon="7.0743992"><ele>476.0</ele><time>2026-05-01T07:40:28.41Z</time></trkpt><trkpt lat="45.1328399" lon="7.0741117"><ele>476.0</ele><time>2026-05-01T07:40:29.41Z</time></trkpt><trkpt lat="45.1328356" lon="7.0738271"><ele>476.0</ele><time>2026-05-01T07:40:30.41Z</time></trkpt><trkpt lat="45.1328325" lon="7.0735461"><ele>476.0</ele><time>2026-05-01T07:40:31.41Z</time></trkpt><trkpt lat="45.1328287" lon="7.0732671"><ele>476.0</ele><time>2026-05-01T07:40:32.41Z</time></trkpt><trkpt lat="45.1328267" lon="7.0729892"><ele>476.0</ele><time>2026-05-01T07:40:33.41Z</time></trkpt><trkpt lat="45.1328246" lon="7.0727187"><ele>476.0</ele><time>2026-05-01T07:40:34.41Z</time></trkpt><trkpt lat="45.132825" lon="7.0724606"><ele>476.0</ele><time>2026-05-01T07:40:35.41Z</time></trkpt><trkpt lat="45.1328239" lon="7.0722132"><ele>476.0</ele><time>2026-05-01T07:40:36.41Z</time></trkpt><trkpt lat="45.1328223" lon="7.0719762"><ele>476.3333333333333</ele><time>2026-05-01T07:40:37.41Z</time></trkpt><trkpt lat="45.1328197" lon="7.0717445"><ele>476.66666666666663</ele><time>2026-05-01T07:40:38.41Z</time></trkpt><trkpt lat="45.1328191" lon="7.0715181"><ele>477.0</ele><time>2026-05-01T07:40:39.41Z</time></trkpt><trkpt lat="45.1328186" lon="7.0712906"><ele>477.33333333333337</ele><time>2026-05-01T07:40:40.411Z</time></trkpt><trkpt lat="45.1328184" lon="7.0710624"><ele>477.6666666666667</ele><time>2026-05-01T07:40:41.41Z</time></trkpt><trkpt lat="45.1328179" lon="7.0708312"><ele>478.0</ele><time>2026-05-01T07:40:42.41Z</time></trkpt><trkpt lat="45.1328169" lon="7.0705933"><ele>478.0</ele><time>2026-05-01T07:40:43.41Z</time></trkpt><trkpt lat="45.132818" lon="7.0703477"><ele>478.0</ele><time>2026-05-01T07:40:44.41Z</time></trkpt><trkpt lat="45.132821" lon="7.0700969"><ele>478.0</ele><time>2026-05-01T07:40:45.41Z</time></trkpt><trkpt lat="45.1328232" lon="7.0698427"><ele>478.33333333333337</ele><time>2026-05-01T07:40:46.41Z</time></trkpt><trkpt lat="45.1328249" lon="7.0695827"><ele>478.66666666666663</ele><time>2026-05-01T07:40:47.41Z</time></trkpt><trkpt lat="45.132825" lon="7.0693188"><ele>479.0</ele><time>2026-05-01T07:40:48.41Z</time></trkpt><trkpt lat="45.1328221" lon="7.0690556"><ele>479.3333333333333</ele><time>2026-05-01T07:40:49.41Z</time></trkpt><trkpt lat="45.1328209" lon="7.0687974"><ele>479.66666666666663</ele><time>2026-05-01T07:40:50.41Z</time></trkpt><trkpt lat="45.1328192" lon="7.068544"><ele>480.0</ele><time>2026-05-01T07:40:51.41Z</time></trkpt><trkpt lat="45.1328191" lon="7.0682965"><ele>481.0</ele><time>2026-05-01T07:40:52.411Z</time></trkpt><trkpt lat="45.1328195" lon="7.0680552"><ele>482.0</ele><time>2026-05-01T07:40:53.41Z</time></trkpt><trkpt lat="45.1328182" lon="7.0678149"><ele>483.0</ele><time>2026-05-01T07:40:54.41Z</time></trkpt><trkpt lat="45.1328184" lon="7.06758"><ele>484.0</ele><time>2026-05-01T07:40:55.41Z</time></trkpt><trkpt lat="45.1328177" lon="7.0673465"><ele>485.0</ele><time>2026-05-01T07:40:56.41Z</time></trkpt><trkpt lat="45.1328179" lon="7.0671178"><ele>486.0</ele><time>2026-05-01T07:40:57.41Z</time></trkpt><trkpt lat="45.1328171" lon="7.0668935"><ele>486.0</ele><time>2026-05-01T07:40:58.411Z</time></trkpt><trkpt lat="45.1328173" lon="7.0666702"><ele>486.0</ele><time>2026-05-01T07:40:59.411Z</time></trkpt><trkpt lat="45.1328158" lon="7.0664453"><ele>486.0</ele><time>2026-05-01T07:41:00.41Z</time></trkpt><trkpt lat="45.1328147" lon="7.0662189"><ele>486.33333333333337</ele><time>2026-05-01T07:41:01.41Z</time></trkpt><trkpt lat="45.1328143" lon="7.0659925"><ele>486.6666666666667</ele><time>2026-05-01T07:41:02.411Z</time></trkpt><trkpt lat="45.1328149" lon="7.0657621"><ele>487.0</ele><time>2026-05-01T07:41:03.41Z</time></trkpt><trkpt lat="45.1328145" lon="7.065523"><ele>486.33333333333337</ele><time>2026-05-01T07:41:04.41Z</time></trkpt><trkpt lat="45.1328151" lon="7.065271"><ele>485.66666666666663</ele><time>2026-05-01T07:41:05.41Z</time></trkpt><trkpt lat="45.132821" lon="7.0649998"><ele>485.0</ele><time>2026-05-01T07:41:06.41Z</time></trkpt><trkpt lat="45.1328407" lon="7.064718"><ele>485.0</ele><time>2026-05-01T07:41:07.41Z</time></trkpt><trkpt lat="45.1328872" lon="7.0644264"><ele>485.0</ele><time>2026-05-01T07:41:08.411Z</time></trkpt><trkpt lat="45.1329682" lon="7.0641342"><ele>485.0</ele><time>2026-05-01T07:41:09.41Z</time></trkpt><trkpt lat="45.1330659" lon="7.063849"><ele>485.3333333333333</ele><time>2026-05-01T07:41:10.41Z</time></trkpt><trkpt lat="45.1331634" lon="7.0635754"><ele>485.66666666666663</ele><time>2026-05-01T07:41:11.41Z</time></trkpt><trkpt lat="45.1332536" lon="7.0633102"><ele>486.0</ele><time>2026-05-01T07:41:12.41Z</time></trkpt><trkpt lat="45.1333452" lon="7.0630494"><ele>485.33333333333337</ele><time>2026-05-01T07:41:13.41Z</time></trkpt><trkpt lat="45.1334398" lon="7.0627861"><ele>484.6666666666667</ele><time>2026-05-01T07:41:14.41Z</time></trkpt><trkpt lat="45.1335348" lon="7.0625216"><ele>484.0</ele><time>2026-05-01T07:41:15.41Z</time></trkpt><trkpt lat="45.133626" lon="7.0622667"><ele>484.0</ele><time>2026-05-01T07:41:16.41Z</time></trkpt><trkpt lat="45.1337111" lon="7.0620235"><ele>484.0</ele><time>2026-05-01T07:41:17.41Z</time></trkpt><trkpt lat="45.133793" lon="7.0617873"><ele>484.0</ele><time>2026-05-01T07:41:18.411Z</time></trkpt><trkpt lat="45.133872" lon="7.0615588"><ele>483.6666666666667</ele><time>2026-05-01T07:41:19.41Z</time></trkpt><trkpt lat="45.1339482" lon="7.0613413"><ele>483.33333333333337</ele><time>2026-05-01T07:41:20.41Z</time></trkpt><trkpt lat="45.1340224" lon="7.0611342"><ele>483.0</ele><time>2026-05-01T07:41:21.411Z</time></trkpt><trkpt lat="45.1340921" lon="7.0609384"><ele>484.0</ele><time>2026-05-01T07:41:22.41Z</time></trkpt><trkpt lat="45.1341567" lon="7.0607523"><ele>485.0</ele><time>2026-05-01T07:41:23.41Z</time></trkpt><trkpt lat="45.1342173" lon="7.0605757"><ele>486.0</ele><time>2026-05-01T07:41:24.41Z</time></trkpt><trkpt lat="45.1342707" lon="7.0604232"><ele>487.0</ele><time>2026-05-01T07:41:25.41Z</time></trkpt><trkpt lat="45.1343175" lon="7.0602961"><ele>487.00000000000006</ele><time>2026-05-01T07:41:26.41Z</time></trkpt><trkpt lat="45.1343619" lon="7.0601904"><ele>487.0</ele><time>2026-05-01T07:41:27.41Z</time></trkpt><trkpt lat="45.1344173" lon="7.0601024"><ele>487.0</ele><time>2026-05-01T07:41:28.41Z</time></trkpt><trkpt lat="45.1344815" lon="7.0600356"><ele>487.0</ele><time>2026-05-01T07:41:29.41Z</time></trkpt><trkpt lat="45.1345507" lon="7.0599818"><ele>487.00000000000006</ele><time>2026-05-01T07:41:30.41Z</time></trkpt><trkpt lat="45.1346122" lon="7.0599209"><ele>487.0</ele><time>2026-05-01T07:41:31.411Z</time></trkpt><trkpt lat="45.1346487" lon="7.0598387"><ele>487.20000000000005</ele><time>2026-05-01T07:41:32.41Z</time></trkpt><trkpt lat="45.134662" lon="7.0597349"><ele>487.40000000000003</ele><time>2026-05-01T07:41:33.41Z</time></trkpt><trkpt lat="45.1346577" lon="7.0596051"><ele>487.59999999999997</ele><time>2026-05-01T07:41:34.41Z</time></trkpt><trkpt lat="45.1346553" lon="7.0594573"><ele>487.79999999999995</ele><time>2026-05-01T07:41:35.41Z</time></trkpt><trkpt lat="45.1346823" lon="7.0592987"><ele>488.0</ele><time>2026-05-01T07:41:36.411Z</time></trkpt><trkpt lat="45.1347396" lon="7.059137"><ele>488.0</ele><time>2026-05-01T07:41:37.411Z</time></trkpt><trkpt lat="45.134803" lon="7.0589601"><ele>488.0</ele><time>2026-05-01T07:41:38.41Z</time></trkpt><trkpt lat="45.1348604" lon="7.0587851"><ele>488.0</ele><time>2026-05-01T07:41:39.41Z</time></trkpt><trkpt lat="45.1349189" lon="7.0586162"><ele>488.0</ele><time>2026-05-01T07:41:40.41Z</time></trkpt><trkpt lat="45.1349777" lon="7.0584478"><ele>488.25</ele><time>2026-05-01T07:41:41.41Z</time></trkpt><trkpt lat="45.1350386" lon="7.0582803"><ele>488.5</ele><time>2026-05-01T07:41:42.41Z</time></trkpt><trkpt lat="45.1351012" lon="7.0581174"><ele>488.75</ele><time>2026-05-01T07:41:43.41Z</time></trkpt><trkpt lat="45.1351678" lon="7.0579613"><ele>489.0</ele><time>2026-05-01T07:41:44.41Z</time></trkpt><trkpt lat="45.135237" lon="7.057805"><ele>489.0</ele><time>2026-05-01T07:41:45.41Z</time></trkpt><trkpt lat="45.1353022" lon="7.0576503"><ele>489.0</ele><time>2026-05-01T07:41:46.41Z</time></trkpt><trkpt lat="45.1353655" lon="7.0574988"><ele>489.0</ele><time>2026-05-01T07:41:47.41Z</time></trkpt><trkpt lat="45.1354264" lon="7.0573424"><ele>489.0</ele><time>2026-05-01T07:41:48.411Z</time></trkpt><trkpt lat="45.1354877" lon="7.0571855"><ele>489.0</ele><time>2026-05-01T07:41:49.41Z</time></trkpt><trkpt lat="45.1355487" lon="7.0570273"><ele>489.0</ele><time>2026-05-01T07:41:50.41Z</time></trkpt><trkpt lat="45.1356077" lon="7.0568648"><ele>489.0</ele><time>2026-05-01T07:41:51.41Z</time></trkpt><trkpt lat="45.1356648" lon="7.0566947"><ele>489.0</ele><time>2026-05-01T07:41:52.41Z</time></trkpt><trkpt lat="45.135722" lon="7.0565278"><ele>489.0</ele><time>2026-05-01T07:41:53.41Z</time></trkpt><trkpt lat="45.1357751" lon="7.0563587"><ele>489.0</ele><time>2026-05-01T07:41:54.41Z</time></trkpt><trkpt lat="45.1358287" lon="7.0561914"><ele>489.0</ele><time>2026-05-01T07:41:55.411Z</time></trkpt><trkpt lat="45.1358856" lon="7.0560197"><ele>489.0</ele><time>2026-05-01T07:41:56.41Z</time></trkpt><trkpt lat="45.1359397" lon="7.0558433"><ele>491.25</ele><time>2026-05-01T07:41:57.41Z</time></trkpt><trkpt lat="45.1359879" lon="7.0556659"><ele>493.5</ele><time>2026-05-01T07:41:58.41Z</time></trkpt><trkpt lat="45.1360272" lon="7.055484"><ele>495.75</ele><time>2026-05-01T07:41:59.411Z</time></trkpt><trkpt lat="45.136058" lon="7.0552985"><ele>498.0</ele><time>2026-05-01T07:42:00.411Z</time></trkpt><trkpt lat="45.1360785" lon="7.05511"><ele>497.75</ele><time>2026-05-01T07:42:01.41Z</time></trkpt><trkpt lat="45.1360897" lon="7.0549184"><ele>497.5</ele><time>2026-05-01T07:42:02.41Z</time></trkpt><trkpt lat="45.1360852" lon="7.0547282"><ele>497.25</ele><time>2026-05-01T07:42:03.41Z</time></trkpt><trkpt lat="45.1360593" lon="7.0545422"><ele>497.0</ele><time>2026-05-01T07:42:04.41Z</time></trkpt><trkpt lat="45.1360105" lon="7.0543679"><ele>497.0</ele><time>2026-05-01T07:42:05.41Z</time></trkpt><trkpt lat="45.1359549" lon="7.0542068"><ele>497.0</ele><time>2026-05-01T07:42:06.41Z</time></trkpt><trkpt lat="45.1358999" lon="7.0540537"><ele>497.0</ele><time>2026-05-01T07:42:07.41Z</time></trkpt><trkpt lat="45.1358443" lon="7.0539032"><ele>497.0</ele><time>2026-05-01T07:42:08.41Z</time></trkpt><trkpt lat="45.1357932" lon="7.0537645"><ele>497.0</ele><time>2026-05-01T07:42:09.41Z</time></trkpt><trkpt lat="45.1357445" lon="7.0536426"><ele>497.00000000000006</ele><time>2026-05-01T07:42:10.411Z</time></trkpt><trkpt lat="45.1356956" lon="7.0535388"><ele>497.00000000000006</ele><time>2026-05-01T07:42:11.41Z</time></trkpt><trkpt lat="45.135646" lon="7.0534368"><ele>497.0</ele><time>2026-05-01T07:42:12.41Z</time></trkpt><trkpt lat="45.1355936" lon="7.0533313"><ele>497.0</ele><time>2026-05-01T07:42:13.41Z</time></trkpt><trkpt lat="45.1355414" lon="7.0532166"><ele>497.0</ele><time>2026-05-01T07:42:14.41Z</time></trkpt><trkpt lat="45.1354889" lon="7.0530953"><ele>497.00000000000006</ele><time>2026-05-01T07:42:15.41Z</time></trkpt><trkpt lat="45.135433" lon="7.0529617"><ele>497.00000000000006</ele><time>2026-05-01T07:42:16.41Z</time></trkpt><trkpt lat="45.1353742" lon="7.0528243"><ele>497.0</ele><time>2026-05-01T07:42:17.41Z</time></trkpt><trkpt lat="45.1353182" lon="7.0526814"><ele>497.0</ele><time>2026-05-01T07:42:18.41Z</time></trkpt><trkpt lat="45.1352674" lon="7.0525341"><ele>497.20000000000005</ele><time>2026-05-01T07:42:19.41Z</time></trkpt><trkpt lat="45.1352189" lon="7.0523902"><ele>497.40000000000003</ele><time>2026-05-01T07:42:20.411Z</time></trkpt><trkpt lat="45.1351715" lon="7.0522499"><ele>497.59999999999997</ele><time>2026-05-01T07:42:21.41Z</time></trkpt><trkpt lat="45.135125" lon="7.052115"><ele>497.79999999999995</ele><time>2026-05-01T07:42:22.41Z</time></trkpt><trkpt lat="45.1350805" lon="7.0519862"><ele>498.0</ele><time>2026-05-01T07:42:23.41Z</time></trkpt><trkpt lat="45.1350386" lon="7.0518611"><ele>498.0</ele><time>2026-05-01T07:42:24.41Z</time></trkpt><trkpt lat="45.1349988" lon="7.0517376"><ele>497.99999999999994</ele><time>2026-05-01T07:42:25.41Z</time></trkpt><trkpt lat="45.1349578" lon="7.0516183"><ele>497.99999999999994</ele><time>2026-05-01T07:42:26.41Z</time></trkpt><trkpt lat="45.1349171" lon="7.0515015"><ele>498.0</ele><time>2026-05-01T07:42:27.411Z</time></trkpt><trkpt lat="45.1348767" lon="7.0513825"><ele>498.0</ele><time>2026-05-01T07:42:28.411Z</time></trkpt><trkpt lat="45.1348362" lon="7.0512645"><ele>498.6666666666667</ele><time>2026-05-01T07:42:29.411Z</time></trkpt><trkpt lat="45.1347992" lon="7.0511497"><ele>499.33333333333337</ele><time>2026-05-01T07:42:30.41Z</time></trkpt><trkpt lat="45.1347619" lon="7.0510384"><ele>500.0</ele><time>2026-05-01T07:42:31.411Z</time></trkpt><trkpt lat="45.1347241" lon="7.0509316"><ele>500.6666666666667</ele><time>2026-05-01T07:42:32.41Z</time></trkpt><trkpt lat="45.1346872" lon="7.0508252"><ele>501.33333333333337</ele><time>2026-05-01T07:42:33.411Z</time></trkpt><trkpt lat="45.1346478" lon="7.0507177"><ele>502.0</ele><time>2026-05-01T07:42:34.41Z</time></trkpt><trkpt lat="45.1346095" lon="7.0506087"><ele>502.33333333333337</ele><time>2026-05-01T07:42:35.41Z</time></trkpt><trkpt lat="45.1345726" lon="7.0504962"><ele>502.6666666666667</ele><time>2026-05-01T07:42:36.41Z</time></trkpt><trkpt lat="45.1345367" lon="7.0503825"><ele>503.0</ele><time>2026-05-01T07:42:37.41Z</time></trkpt><trkpt lat="45.1345007" lon="7.0502744"><ele>503.33333333333337</ele><time>2026-05-01T07:42:38.41Z</time></trkpt><trkpt lat="45.1344679" lon="7.0501731"><ele>503.6666666666667</ele><time>2026-05-01T07:42:39.411Z</time></trkpt><trkpt lat="45.1344315" lon="7.050066"><ele>504.0</ele><time>2026-05-01T07:42:40.41Z</time></trkpt><trkpt lat="45.1343965" lon="7.0499506"><ele>504.6</ele><time>2026-05-01T07:42:41.41Z</time></trkpt><trkpt lat="45.1343584" lon="7.0498379"><ele>505.2</ele><time>2026-05-01T07:42:42.41Z</time></trkpt><trkpt lat="45.1343183" lon="7.0497187"><ele>505.80000000000007</ele><time>2026-05-01T07:42:43.41Z</time></trkpt><trkpt lat="45.1342786" lon="7.0495957"><ele>506.40000000000003</ele><time>2026-05-01T07:42:44.41Z</time></trkpt><trkpt lat="45.1342367" lon="7.0494676"><ele>507.0</ele><time>2026-05-01T07:42:45.41Z</time></trkpt><trkpt lat="45.1341881" lon="7.0493332"><ele>507.0</ele><time>2026-05-01T07:42:46.41Z</time></trkpt><trkpt lat="45.134136" lon="7.0491903"><ele>507.0</ele><time>2026-05-01T07:42:47.41Z</time></trkpt><trkpt lat="45.1340829" lon="7.0490357"><ele>507.0</ele><time>2026-05-01T07:42:48.41Z</time></trkpt><trkpt lat="45.1340253" lon="7.0488652"><ele>507.0</ele><time>2026-05-01T07:42:49.41Z</time></trkpt><trkpt lat="45.1339612" lon="7.0486882"><ele>509.0</ele><time>2026-05-01T07:42:50.411Z</time></trkpt><trkpt lat="45.1338991" lon="7.0485146"><ele>511.0</ele><time>2026-05-01T07:42:51.41Z</time></trkpt><trkpt lat="45.1338389" lon="7.04836"><ele>513.0</ele><time>2026-05-01T07:42:52.41Z</time></trkpt><trkpt lat="45.1337802" lon="7.0482223"><ele>515.0</ele><time>2026-05-01T07:42:53.41Z</time></trkpt><trkpt lat="45.1337241" lon="7.048099"><ele>515.0</ele><time>2026-05-01T07:42:54.41Z</time></trkpt><trkpt lat="45.1336781" lon="7.0479936"><ele>515.0</ele><time>2026-05-01T07:42:55.41Z</time></trkpt><trkpt lat="45.133635" lon="7.0478966"><ele>515.0</ele><time>2026-05-01T07:42:56.411Z</time></trkpt><trkpt lat="45.1335897" lon="7.0478026"><ele>515.0</ele><time>2026-05-01T07:42:57.41Z</time></trkpt><trkpt lat="45.1335446" lon="7.0477085"><ele>515.0</ele><time>2026-05-01T07:42:58.41Z</time></trkpt><trkpt lat="45.1334956" lon="7.0476133"><ele>515.0</ele><time>2026-05-01T07:42:59.41Z</time></trkpt><trkpt lat="45.1334437" lon="7.0475124"><ele>514.75</ele><time>2026-05-01T07:43:00.411Z</time></trkpt><trkpt lat="45.1333859" lon="7.047404"><ele>514.5</ele><time>2026-05-01T07:43:01.41Z</time></trkpt><trkpt lat="45.1333219" lon="7.0472816"><ele>514.25</ele><time>2026-05-01T07:43:02.41Z</time></trkpt><trkpt lat="45.1332574" lon="7.0471418"><ele>514.0</ele><time>2026-05-01T07:43:03.41Z</time></trkpt><trkpt lat="45.1331802" lon="7.0469866"><ele>515.75</ele><time>2026-05-01T07:43:04.41Z</time></trkpt><trkpt lat="45.1330896" lon="7.0468273"><ele>517.5</ele><time>2026-05-01T07:43:05.411Z</time></trkpt><trkpt lat="45.1329871" lon="7.0466721"><ele>519.25</ele><time>2026-05-01T07:43:06.41Z</time></trkpt><trkpt lat="45.1328804" lon="7.046531"><ele>521.0</ele><time>2026-05-01T07:43:07.41Z</time></trkpt><trkpt lat="45.1327771" lon="7.0464053"><ele>521.5</ele><time>2026-05-01T07:43:08.41Z</time></trkpt><trkpt lat="45.1326785" lon="7.0462908"><ele>522.0</ele><time>2026-05-01T07:43:09.41Z</time></trkpt><trkpt lat="45.132587" lon="7.0461787"><ele>522.5</ele><time>2026-05-01T07:43:10.411Z</time></trkpt><trkpt lat="45.1324966" lon="7.0460713"><ele>523.0</ele><time>2026-05-01T07:43:11.411Z</time></trkpt><trkpt lat="45.1324057" lon="7.0459721"><ele>524.5</ele><time>2026-05-01T07:43:12.411Z</time></trkpt><trkpt lat="45.1323172" lon="7.0458722"><ele>526.0</ele><time>2026-05-01T07:43:13.41Z</time></trkpt><trkpt lat="45.132227" lon="7.0457738"><ele>527.5</ele><time>2026-05-01T07:43:14.411Z</time></trkpt><trkpt lat="45.1321367" lon="7.0456692"><ele>529.0</ele><time>2026-05-01T07:43:15.41Z</time></trkpt><trkpt lat="45.1320444" lon="7.0455547"><ele>529.0</ele><time>2026-05-01T07:43:16.41Z</time></trkpt><trkpt lat="45.1319503" lon="7.0454258"><ele>529.0</ele><time>2026-05-01T07:43:17.41Z</time></trkpt><trkpt lat="45.1318599" lon="7.0452865"><ele>529.0</ele><time>2026-05-01T07:43:18.41Z</time></trkpt><trkpt lat="45.1317696" lon="7.0451399"><ele>529.0</ele><time>2026-05-01T07:43:19.41Z</time></trkpt><trkpt lat="45.1316828" lon="7.0449851"><ele>530.0</ele><time>2026-05-01T07:43:20.41Z</time></trkpt><trkpt lat="45.1315973" lon="7.0448232"><ele>531.0</ele><time>2026-05-01T07:43:21.411Z</time></trkpt><trkpt lat="45.1315141" lon="7.0446587"><ele>532.0</ele><time>2026-05-01T07:43:22.41Z</time></trkpt><trkpt lat="45.1314316" lon="7.0444908"><ele>533.0</ele><time>2026-05-01T07:43:23.41Z</time></trkpt><trkpt lat="45.1313525" lon="7.044323"><ele>534.5</ele><time>2026-05-01T07:43:24.41Z</time></trkpt><trkpt lat="45.1312893" lon="7.0441485"><ele>536.0</ele><time>2026-05-01T07:43:25.41Z</time></trkpt><trkpt lat="45.1312543" lon="7.0439594"><ele>537.5</ele><time>2026-05-01T07:43:26.41Z</time></trkpt><trkpt lat="45.1312455" lon="7.0437531"><ele>539.0</ele><time>2026-05-01T07:43:27.41Z</time></trkpt><trkpt lat="45.13126" lon="7.0435482"><ele>540.25</ele><time>2026-05-01T07:43:28.41Z</time></trkpt><trkpt lat="45.1312801" lon="7.0433604"><ele>541.5</ele><time>2026-05-01T07:43:29.411Z</time></trkpt><trkpt lat="45.1312743" lon="7.0431834"><ele>542.75</ele><time>2026-05-01T07:43:30.41Z</time></trkpt><trkpt lat="45.1312257" lon="7.0430193"><ele>544.0</ele><time>2026-05-01T07:43:31.41Z</time></trkpt><trkpt lat="45.1311459" lon="7.042883"><ele>544.75</ele><time>2026-05-01T07:43:32.41Z</time></trkpt><trkpt lat="45.1310377" lon="7.0427819"><ele>545.5</ele><time>2026-05-01T07:43:33.41Z</time></trkpt><trkpt lat="45.130903" lon="7.0427146"><ele>546.25</ele><time>2026-05-01T07:43:34.411Z</time></trkpt><trkpt lat="45.1307499" lon="7.0426664"><ele>547.0</ele><time>2026-05-01T07:43:35.41Z</time></trkpt><trkpt lat="45.1305979" lon="7.0426294"><ele>548.25</ele><time>2026-05-01T07:43:36.41Z</time></trkpt><trkpt lat="45.1304643" lon="7.0425814"><ele>549.5</ele><time>2026-05-01T07:43:37.41Z</time></trkpt><trkpt lat="45.1303565" lon="7.0425039"><ele>550.75</ele><time>2026-05-01T07:43:38.411Z</time></trkpt><trkpt lat="45.1302797" lon="7.0424042"><ele>552.0</ele><time>2026-05-01T07:43:39.41Z</time></trkpt><trkpt lat="45.1302442" lon="7.0422884"><ele>553.0</ele><time>2026-05-01T07:43:40.41Z</time></trkpt><trkpt lat="45.1302451" lon="7.0421558"><ele>554.0</ele><time>2026-05-01T07:43:41.41Z</time></trkpt><trkpt lat="45.1302856" lon="7.0420347"><ele>555.0</ele><time>2026-05-01T07:43:42.41Z</time></trkpt><trkpt lat="45.1303597" lon="7.0419565"><ele>556.0</ele><time>2026-05-01T07:43:43.411Z</time></trkpt><trkpt lat="45.1304534" lon="7.0419296"><ele>557.0</ele><time>2026-05-01T07:43:44.41Z</time></trkpt><trkpt lat="45.1305694" lon="7.041949"><ele>557.0</ele><time>2026-05-01T07:43:45.41Z</time></trkpt><trkpt lat="45.1307082" lon="7.0420021"><ele>557.0</ele><time>2026-05-01T07:43:46.41Z</time></trkpt><trkpt lat="45.1308654" lon="7.0420549"><ele>557.0</ele><time>2026-05-01T07:43:47.41Z</time></trkpt><trkpt lat="45.1310364" lon="7.0421089"><ele>558.0</ele><time>2026-05-01T07:43:48.41Z</time></trkpt><trkpt lat="45.1312212" lon="7.0421658"><ele>559.0</ele><time>2026-05-01T07:43:49.41Z</time></trkpt><trkpt lat="45.1314079" lon="7.0422243"><ele>560.0</ele><time>2026-05-01T07:43:50.41Z</time></trkpt><trkpt lat="45.1315926" lon="7.0422646"><ele>563.6666666666666</ele><time>2026-05-01T07:43:51.411Z</time></trkpt><trkpt lat="45.131772" lon="7.0422644"><ele>567.3333333333334</ele><time>2026-05-01T07:43:52.41Z</time></trkpt><trkpt lat="45.13194" lon="7.0422399"><ele>571.0</ele><time>2026-05-01T07:43:53.41Z</time></trkpt><trkpt lat="45.1320944" lon="7.0422501"><ele>571.0</ele><time>2026-05-01T07:43:54.41Z</time></trkpt><trkpt lat="45.132229" lon="7.0423244"><ele>571.0</ele><time>2026-05-01T07:43:55.41Z</time></trkpt><trkpt lat="45.1323428" lon="7.042449"><ele>571.0</ele><time>2026-05-01T07:43:56.41Z</time></trkpt><trkpt lat="45.1324186" lon="7.0426144"><ele>571.0</ele><time>2026-05-01T07:43:57.41Z</time></trkpt><trkpt lat="45.1324543" lon="7.0428144"><ele>566.6666666666667</ele><time>2026-05-01T07:43:58.41Z</time></trkpt><trkpt lat="45.1324713" lon="7.0430362"><ele>562.3333333333334</ele><time>2026-05-01T07:43:59.41Z</time></trkpt><trkpt lat="45.1324985" lon="7.0432619"><ele>558.0</ele><time>2026-05-01T07:44:00.41Z</time></trkpt><trkpt lat="45.132547" lon="7.0434687"><ele>556.4</ele><time>2026-05-01T07:44:01.41Z</time></trkpt><trkpt lat="45.1326168" lon="7.0436349"><ele>554.8</ele><time>2026-05-01T07:44:02.41Z</time></trkpt><trkpt lat="45.1327045" lon="7.0437378"><ele>553.2</ele><time>2026-05-01T07:44:03.41Z</time></trkpt><trkpt lat="45.1328017" lon="7.0437775"><ele>551.6</ele><time>2026-05-01T07:44:04.41Z</time></trkpt><trkpt lat="45.132896" lon="7.0437553"><ele>550.0</ele><time>2026-05-01T07:44:05.41Z</time></trkpt><trkpt lat="45.1329844" lon="7.0436695"><ele>550.0</ele><time>2026-05-01T07:44:06.41Z</time></trkpt><trkpt lat="45.1330407" lon="7.0435307"><ele>550.0</ele><time>2026-05-01T07:44:07.411Z</time></trkpt><trkpt lat="45.1330581" lon="7.043366"><ele>550.0</ele><time>2026-05-01T07:44:08.41Z</time></trkpt><trkpt lat="45.1330358" lon="7.0431842"><ele>550.0</ele><time>2026-05-01T07:44:09.41Z</time></trkpt><trkpt lat="45.1329795" lon="7.0429829"><ele>552.6666666666667</ele><time>2026-05-01T07:44:10.41Z</time></trkpt><trkpt lat="45.1329125" lon="7.0427631"><ele>555.3333333333334</ele><time>2026-05-01T07:44:11.41Z</time></trkpt><trkpt lat="45.1328534" lon="7.0425283"><ele>558.0</ele><time>2026-05-01T07:44:12.41Z</time></trkpt><trkpt lat="45.1328145" lon="7.042287"><ele>561.6666666666666</ele><time>2026-05-01T07:44:13.41Z</time></trkpt><trkpt lat="45.1328038" lon="7.0420593"><ele>565.3333333333333</ele><time>2026-05-01T07:44:14.41Z</time></trkpt><trkpt lat="45.1328238" lon="7.0418443"><ele>569.0</ele><time>2026-05-01T07:44:15.41Z</time></trkpt><trkpt lat="45.132871" lon="7.0416461"><ele>571.25</ele><time>2026-05-01T07:44:16.411Z</time></trkpt><trkpt lat="45.1329366" lon="7.0414653"><ele>573.5</ele><time>2026-05-01T07:44:17.411Z</time></trkpt><trkpt lat="45.133019" lon="7.0413087"><ele>575.75</ele><time>2026-05-01T07:44:18.41Z</time></trkpt><trkpt lat="45.1331154" lon="7.041183"><ele>578.0</ele><time>2026-05-01T07:44:19.41Z</time></trkpt><trkpt lat="45.1332155" lon="7.0410711"><ele>577.25</ele><time>2026-05-01T07:44:20.41Z</time></trkpt><trkpt lat="45.1333062" lon="7.0409412"><ele>576.5</ele><time>2026-05-01T07:44:21.41Z</time></trkpt><trkpt lat="45.1333665" lon="7.0407763"><ele>575.75</ele><time>2026-05-01T07:44:22.41Z</time></trkpt><trkpt lat="45.1334009" lon="7.0405899"><ele>575.0</ele><time>2026-05-01T07:44:23.41Z</time></trkpt><trkpt lat="45.1334017" lon="7.0403918"><ele>578.75</ele><time>2026-05-01T07:44:24.41Z</time></trkpt><trkpt lat="45.1333639" lon="7.0401946"><ele>582.5</ele><time>2026-05-01T07:44:25.41Z</time></trkpt><trkpt lat="45.1332898" lon="7.0400124"><ele>586.25</ele><time>2026-05-01T07:44:26.41Z</time></trkpt><trkpt lat="45.1331833" lon="7.0398581"><ele>590.0</ele><time>2026-05-01T07:44:27.41Z</time></trkpt><trkpt lat="45.1330568" lon="7.0397358"><ele>595.0</ele><time>2026-05-01T07:44:28.41Z</time></trkpt><trkpt lat="45.1329327" lon="7.0396326"><ele>600.0</ele><time>2026-05-01T07:44:29.41Z</time></trkpt><trkpt lat="45.1328186" lon="7.0395374"><ele>605.0</ele><time>2026-05-01T07:44:30.41Z</time></trkpt><trkpt lat="45.1327004" lon="7.0394734"><ele>610.0</ele><time>2026-05-01T07:44:31.411Z</time></trkpt><trkpt lat="45.1325714" lon="7.0394531"><ele>610.0</ele><time>2026-05-01T07:44:32.41Z</time></trkpt><trkpt lat="45.1324427" lon="7.0394811"><ele>610.0</ele><time>2026-05-01T07:44:33.41Z</time></trkpt><trkpt lat="45.1323277" lon="7.0395748"><ele>610.0</ele><time>2026-05-01T07:44:34.411Z</time></trkpt><trkpt lat="45.1322386" lon="7.0397111"><ele>610.0</ele><time>2026-05-01T07:44:35.41Z</time></trkpt><trkpt lat="45.1321703" lon="7.0398806"><ele>608.5</ele><time>2026-05-01T07:44:36.41Z</time></trkpt><trkpt lat="45.1320941" lon="7.0400486"><ele>607.0</ele><time>2026-05-01T07:44:37.411Z</time></trkpt><trkpt lat="45.1319829" lon="7.0401889"><ele>605.5</ele><time>2026-05-01T07:44:38.411Z</time></trkpt><trkpt lat="45.1318507" lon="7.0402953"><ele>604.0</ele><time>2026-05-01T07:44:39.41Z</time></trkpt><trkpt lat="45.1317152" lon="7.0403763"><ele>604.0</ele><time>2026-05-01T07:44:40.41Z</time></trkpt><trkpt lat="45.1315832" lon="7.0404438"><ele>604.0</ele><time>2026-05-01T07:44:41.41Z</time></trkpt><trkpt lat="45.1314521" lon="7.0404715"><ele>604.0</ele><time>2026-05-01T07:44:42.41Z</time></trkpt><trkpt lat="45.1313249" lon="7.0404454"><ele>604.0</ele><time>2026-05-01T07:44:43.41Z</time></trkpt><trkpt lat="45.1312154" lon="7.0403676"><ele>602.0</ele><time>2026-05-01T07:44:44.411Z</time></trkpt><trkpt lat="45.1311288" lon="7.0402474"><ele>600.0</ele><time>2026-05-01T07:44:45.41Z</time></trkpt><trkpt lat="45.1310676" lon="7.0400967"><ele>598.0</ele><time>2026-05-01T07:44:46.41Z</time></trkpt><trkpt lat="45.131033" lon="7.03993"><ele>596.0</ele><time>2026-05-01T07:44:47.41Z</time></trkpt><trkpt lat="45.1310408" lon="7.0397494"><ele>596.0</ele><time>2026-05-01T07:44:48.411Z</time></trkpt><trkpt lat="45.1310863" lon="7.0395725"><ele>596.0</ele><time>2026-05-01T07:44:49.41Z</time></trkpt><trkpt lat="45.1311666" lon="7.0394185"><ele>596.0</ele><time>2026-05-01T07:44:50.41Z</time></trkpt><trkpt lat="45.1312753" lon="7.0392944"><ele>596.0</ele><time>2026-05-01T07:44:51.41Z</time></trkpt><trkpt lat="45.1313983" lon="7.0391797"><ele>597.0</ele><time>2026-05-01T07:44:52.41Z</time></trkpt><trkpt lat="45.1315145" lon="7.0390403"><ele>598.0</ele><time>2026-05-01T07:44:53.41Z</time></trkpt><trkpt lat="45.1315978" lon="7.0388687"><ele>599.0</ele><time>2026-05-01T07:44:54.411Z</time></trkpt><trkpt lat="45.131658" lon="7.0386724"><ele>602.6666666666666</ele><time>2026-05-01T07:44:55.41Z</time></trkpt><trkpt lat="45.1316941" lon="7.0384531"><ele>606.3333333333334</ele><time>2026-05-01T07:44:56.41Z</time></trkpt><trkpt lat="45.1316976" lon="7.0382201"><ele>610.0</ele><time>2026-05-01T07:44:57.41Z</time></trkpt><trkpt lat="45.1316763" lon="7.0379694"><ele>613.3333333333334</ele><time>2026-05-01T07:44:58.411Z</time></trkpt><trkpt lat="45.131645" lon="7.0377157"><ele>616.6666666666666</ele><time>2026-05-01T07:44:59.41Z</time></trkpt><trkpt lat="45.1316135" lon="7.0374606"><ele>620.0</ele><time>2026-05-01T07:45:00.411Z</time></trkpt><trkpt lat="45.1315793" lon="7.0371983"><ele>619.0</ele><time>2026-05-01T07:45:01.411Z</time></trkpt><trkpt lat="45.1315453" lon="7.0369296"><ele>618.0</ele><time>2026-05-01T07:45:02.412Z</time></trkpt><trkpt lat="45.1315111" lon="7.036657"><ele>617.0</ele><time>2026-05-01T07:45:03.41Z</time></trkpt><trkpt lat="45.1314765" lon="7.0363774"><ele>617.0</ele><time>2026-05-01T07:45:04.411Z</time></trkpt><trkpt lat="45.1314391" lon="7.0360943"><ele>617.0</ele><time>2026-05-01T07:45:05.41Z</time></trkpt><trkpt lat="45.1314004" lon="7.0358058"><ele>617.0</ele><time>2026-05-01T07:45:06.41Z</time></trkpt><trkpt lat="45.1313618" lon="7.0355129"><ele>621.3333333333333</ele><time>2026-05-01T07:45:07.41Z</time></trkpt><trkpt lat="45.1313227" lon="7.0352227"><ele>625.6666666666666</ele><time>2026-05-01T07:45:08.41Z</time></trkpt><trkpt lat="45.1312735" lon="7.0349424"><ele>630.0</ele><time>2026-05-01T07:45:09.41Z</time></trkpt><trkpt lat="45.1311987" lon="7.0346585"><ele>634.5</ele><time>2026-05-01T07:45:10.41Z</time></trkpt><trkpt lat="45.1310865" lon="7.0343617"><ele>639.0</ele><time>2026-05-01T07:45:11.41Z</time></trkpt><trkpt lat="45.1309623" lon="7.0340531"><ele>644.0</ele><time>2026-05-01T07:45:12.41Z</time></trkpt><trkpt lat="45.1308373" lon="7.0337574"><ele>649.0</ele><time>2026-05-01T07:45:13.411Z</time></trkpt><trkpt lat="45.1307164" lon="7.0334839"><ele>650.0</ele><time>2026-05-01T07:45:14.411Z</time></trkpt><trkpt lat="45.1305942" lon="7.0332206"><ele>651.0</ele><time>2026-05-01T07:45:15.41Z</time></trkpt><trkpt lat="45.1304781" lon="7.0329767"><ele>652.0</ele><time>2026-05-01T07:45:16.41Z</time></trkpt><trkpt lat="45.1303641" lon="7.0327453"><ele>652.0</ele><time>2026-05-01T07:45:17.41Z</time></trkpt><trkpt lat="45.1302486" lon="7.0325158"><ele>652.0</ele><time>2026-05-01T07:45:18.41Z</time></trkpt><trkpt lat="45.1301361" lon="7.0322895"><ele>652.0</ele><time>2026-05-01T07:45:19.41Z</time></trkpt><trkpt lat="45.1300321" lon="7.0320738"><ele>656.3333333333334</ele><time>2026-05-01T07:45:20.41Z</time></trkpt><trkpt lat="45.1299281" lon="7.0318749"><ele>660.6666666666666</ele><time>2026-05-01T07:45:21.411Z</time></trkpt><trkpt lat="45.1298278" lon="7.0316975"><ele>665.0</ele><time>2026-05-01T07:45:22.41Z</time></trkpt><trkpt lat="45.129729" lon="7.0315384"><ele>668.5</ele><time>2026-05-01T07:45:23.41Z</time></trkpt><trkpt lat="45.1296281" lon="7.0313862"><ele>672.0</ele><time>2026-05-01T07:45:24.41Z</time></trkpt><trkpt lat="45.1295235" lon="7.0312329"><ele>675.5</ele><time>2026-05-01T07:45:25.41Z</time></trkpt><trkpt lat="45.1294209" lon="7.0310745"><ele>679.0</ele><time>2026-05-01T07:45:26.41Z</time></trkpt><trkpt lat="45.1293251" lon="7.0309026"><ele>680.0</ele><time>2026-05-01T07:45:27.41Z</time></trkpt><trkpt lat="45.1292456" lon="7.0307147"><ele>681.0</ele><time>2026-05-01T07:45:28.41Z</time></trkpt><trkpt lat="45.1291859" lon="7.0305112"><ele>682.0</ele><time>2026-05-01T07:45:29.41Z</time></trkpt><trkpt lat="45.1291493" lon="7.0303018"><ele>682.0</ele><time>2026-05-01T07:45:30.41Z</time></trkpt><trkpt lat="45.1291404" lon="7.0300894"><ele>682.0</ele><time>2026-05-01T07:45:31.41Z</time></trkpt><trkpt lat="45.1291651" lon="7.0298832"><ele>682.0</ele><time>2026-05-01T07:45:32.41Z</time></trkpt><trkpt lat="45.1292241" lon="7.0296896"><ele>682.0</ele><time>2026-05-01T07:45:33.41Z</time></trkpt><trkpt lat="45.1293081" lon="7.0295064"><ele>684.3333333333334</ele><time>2026-05-01T07:45:34.41Z</time></trkpt><trkpt lat="45.1293951" lon="7.0293258"><ele>686.6666666666666</ele><time>2026-05-01T07:45:35.411Z</time></trkpt><trkpt lat="45.1294771" lon="7.0291456"><ele>689.0</ele><time>2026-05-01T07:45:36.411Z</time></trkpt><trkpt lat="45.129551" lon="7.0289611"><ele>690.0</ele><time>2026-05-01T07:45:37.41Z</time></trkpt><trkpt lat="45.1296054" lon="7.0287577"><ele>691.0</ele><time>2026-05-01T07:45:38.411Z</time></trkpt><trkpt lat="45.1296307" lon="7.0285232"><ele>692.0</ele><time>2026-05-01T07:45:39.41Z</time></trkpt><trkpt lat="45.12964" lon="7.0282676"><ele>693.0</ele><time>2026-05-01T07:45:40.41Z</time></trkpt><trkpt lat="45.1296513" lon="7.0280074"><ele>694.0</ele><time>2026-05-01T07:45:41.41Z</time></trkpt><trkpt lat="45.1296632" lon="7.0277562"><ele>695.0</ele><time>2026-05-01T07:45:42.412Z</time></trkpt><trkpt lat="45.1296712" lon="7.0275279"><ele>695.0</ele><time>2026-05-01T07:45:43.41Z</time></trkpt><trkpt lat="45.1296765" lon="7.0273175"><ele>695.0</ele><time>2026-05-01T07:45:44.411Z</time></trkpt><trkpt lat="45.1296803" lon="7.0271134"><ele>695.0</ele><time>2026-05-01T07:45:45.41Z</time></trkpt><trkpt lat="45.129681" lon="7.0269089"><ele>695.0</ele><time>2026-05-01T07:45:46.41Z</time></trkpt><trkpt lat="45.129673" lon="7.0267074"><ele>695.6666666666666</ele><time>2026-05-01T07:45:47.411Z</time></trkpt><trkpt lat="45.1296529" lon="7.0265025"><ele>696.3333333333334</ele><time>2026-05-01T07:45:48.41Z</time></trkpt><trkpt lat="45.1296186" lon="7.0262934"><ele>697.0</ele><time>2026-05-01T07:45:49.41Z</time></trkpt><trkpt lat="45.1295708" lon="7.0260854"><ele>697.0</ele><time>2026-05-01T07:45:50.41Z</time></trkpt><trkpt lat="45.1295091" lon="7.0258846"><ele>697.0</ele><time>2026-05-01T07:45:51.411Z</time></trkpt><trkpt lat="45.1294336" lon="7.0256876"><ele>697.0</ele><time>2026-05-01T07:45:52.41Z</time></trkpt><trkpt lat="45.1293429" lon="7.0254909"><ele>697.3333333333334</ele><time>2026-05-01T07:45:53.41Z</time></trkpt><trkpt lat="45.1292405" lon="7.0253013"><ele>697.6666666666666</ele><time>2026-05-01T07:45:54.411Z</time></trkpt><trkpt lat="45.1291272" lon="7.0251259"><ele>698.0</ele><time>2026-05-01T07:45:55.41Z</time></trkpt><trkpt lat="45.1289979" lon="7.0249652"><ele>702.0</ele><time>2026-05-01T07:45:56.41Z</time></trkpt><trkpt lat="45.1288523" lon="7.0248186"><ele>706.0</ele><time>2026-05-01T07:45:57.41Z</time></trkpt><trkpt lat="45.1286995" lon="7.0246814"><ele>710.0</ele><time>2026-05-01T07:45:58.41Z</time></trkpt><trkpt lat="45.1285524" lon="7.024553"><ele>710.0</ele><time>2026-05-01T07:45:59.41Z</time></trkpt><trkpt lat="45.1284092" lon="7.0244308"><ele>710.0</ele><time>2026-05-01T07:46:00.41Z</time></trkpt><trkpt lat="45.1282708" lon="7.0243099"><ele>710.0</ele><time>2026-05-01T07:46:01.41Z</time></trkpt><trkpt lat="45.1281342" lon="7.0241896"><ele>713.6666666666666</ele><time>2026-05-01T07:46:02.411Z</time></trkpt><trkpt lat="45.1279963" lon="7.0240677"><ele>717.3333333333334</ele><time>2026-05-01T07:46:03.411Z</time></trkpt><trkpt lat="45.1278568" lon="7.0239475"><ele>721.0</ele><time>2026-05-01T07:46:04.41Z</time></trkpt><trkpt lat="45.1277138" lon="7.0238243"><ele>721.0</ele><time>2026-05-01T07:46:05.41Z</time></trkpt><trkpt lat="45.127565" lon="7.023697"><ele>721.0</ele><time>2026-05-01T07:46:06.41Z</time></trkpt><trkpt lat="45.1274121" lon="7.0235678"><ele>721.0</ele><time>2026-05-01T07:46:07.41Z</time></trkpt><trkpt lat="45.1272532" lon="7.0234338"><ele>722.6666666666667</ele><time>2026-05-01T07:46:08.41Z</time></trkpt><trkpt lat="45.1270905" lon="7.0232953"><ele>724.3333333333334</ele><time>2026-05-01T07:46:09.41Z</time></trkpt><trkpt lat="45.1269247" lon="7.0231536"><ele>726.0</ele><time>2026-05-01T07:46:10.41Z</time></trkpt><trkpt lat="45.1267583" lon="7.0230129"><ele>726.0</ele><time>2026-05-01T07:46:11.41Z</time></trkpt><trkpt lat="45.126593" lon="7.0228743"><ele>726.0</ele><time>2026-05-01T07:46:12.41Z</time></trkpt><trkpt lat="45.1264321" lon="7.0227393"><ele>726.0</ele><time>2026-05-01T07:46:13.411Z</time></trkpt><trkpt lat="45.1262754" lon="7.0226077"><ele>731.3333333333334</ele><time>2026-05-01T07:46:14.41Z</time></trkpt><trkpt lat="45.1261316" lon="7.0224723"><ele>736.6666666666667</ele><time>2026-05-01T07:46:15.41Z</time></trkpt><trkpt lat="45.1259952" lon="7.02232"><ele>742.0</ele><time>2026-05-01T07:46:16.41Z</time></trkpt><trkpt lat="45.1258747" lon="7.0221484"><ele>742.0</ele><time>2026-05-01T07:46:17.41Z</time></trkpt><trkpt lat="45.1257851" lon="7.02196"><ele>742.0</ele><time>2026-05-01T07:46:18.41Z</time></trkpt><trkpt lat="45.125716" lon="7.0217606"><ele>742.0</ele><time>2026-05-01T07:46:19.41Z</time></trkpt><trkpt lat="45.1256706" lon="7.0215606"><ele>753.5</ele><time>2026-05-01T07:46:20.41Z</time></trkpt><trkpt lat="45.1256462" lon="7.0213751"><ele>765.0</ele><time>2026-05-01T07:46:21.41Z</time></trkpt><trkpt lat="45.125641" lon="7.0212069"><ele>776.5</ele><time>2026-05-01T07:46:22.412Z</time></trkpt><trkpt lat="45.1256497" lon="7.021047"><ele>788.0</ele><time>2026-05-01T07:46:23.41Z</time></trkpt><trkpt lat="45.1256728" lon="7.0208982"><ele>785.4</ele><time>2026-05-01T07:46:24.41Z</time></trkpt><trkpt lat="45.1257058" lon="7.0207663"><ele>782.8</ele><time>2026-05-01T07:46:25.41Z</time></trkpt><trkpt lat="45.1257504" lon="7.020645"><ele>780.2</ele><time>2026-05-01T07:46:26.41Z</time></trkpt><trkpt lat="45.1258055" lon="7.0205281"><ele>777.6</ele><time>2026-05-01T07:46:27.41Z</time></trkpt><trkpt lat="45.1258658" lon="7.0204102"><ele>775.0</ele><time>2026-05-01T07:46:28.411Z</time></trkpt><trkpt lat="45.125931" lon="7.0202863"><ele>770.25</ele><time>2026-05-01T07:46:29.41Z</time></trkpt><trkpt lat="45.1259983" lon="7.0201552"><ele>765.5</ele><time>2026-05-01T07:46:30.41Z</time></trkpt><trkpt lat="45.126061" lon="7.0200199"><ele>760.75</ele><time>2026-05-01T07:46:31.41Z</time></trkpt><trkpt lat="45.1261181" lon="7.0198859"><ele>756.0</ele><time>2026-05-01T07:46:32.41Z</time></trkpt><trkpt lat="45.1261713" lon="7.0197455"><ele>756.0</ele><time>2026-05-01T07:46:33.41Z</time></trkpt><trkpt lat="45.1262236" lon="7.019599"><ele>756.0</ele><time>2026-05-01T07:46:34.41Z</time></trkpt><trkpt lat="45.1262735" lon="7.0194532"><ele>756.0</ele><time>2026-05-01T07:46:35.411Z</time></trkpt><trkpt lat="45.1263201" lon="7.0193092"><ele>756.0</ele><time>2026-05-01T07:46:36.411Z</time></trkpt><trkpt lat="45.1263622" lon="7.019172"><ele>756.0</ele><time>2026-05-01T07:46:37.41Z</time></trkpt><trkpt lat="45.1264023" lon="7.0190419"><ele>757.3333333333334</ele><time>2026-05-01T07:46:38.41Z</time></trkpt><trkpt lat="45.126438" lon="7.0189183"><ele>758.6666666666666</ele><time>2026-05-01T07:46:39.41Z</time></trkpt><trkpt lat="45.126468" lon="7.0187984"><ele>760.0</ele><time>2026-05-01T07:46:40.41Z</time></trkpt><trkpt lat="45.1264943" lon="7.0186761"><ele>761.3333333333333</ele><time>2026-05-01T07:46:41.411Z</time></trkpt><trkpt lat="45.126515" lon="7.0185564"><ele>762.6666666666666</ele><time>2026-05-01T07:46:42.41Z</time></trkpt><trkpt lat="45.1265305" lon="7.0184457"><ele>764.0</ele><time>2026-05-01T07:46:43.411Z</time></trkpt><trkpt lat="45.1265433" lon="7.0183505"><ele>764.5714285714286</ele><time>2026-05-01T07:46:44.411Z</time></trkpt><trkpt lat="45.1265579" lon="7.0182565"><ele>765.1428571428571</ele><time>2026-05-01T07:46:45.411Z</time></trkpt><trkpt lat="45.1265714" lon="7.0181564"><ele>765.7142857142857</ele><time>2026-05-01T07:46:46.41Z</time></trkpt><trkpt lat="45.1265797" lon="7.0180515"><ele>766.2857142857142</ele><time>2026-05-01T07:46:47.411Z</time></trkpt><trkpt lat="45.1265852" lon="7.017945"><ele>766.8571428571429</ele><time>2026-05-01T07:46:48.41Z</time></trkpt><trkpt lat="45.1265904" lon="7.0178338"><ele>767.4285714285713</ele><time>2026-05-01T07:46:49.411Z</time></trkpt><trkpt lat="45.1265931" lon="7.0177193"><ele>768.0</ele><time>2026-05-01T07:46:50.41Z</time></trkpt><trkpt lat="45.1266008" lon="7.017597"><ele>766.0</ele><time>2026-05-01T07:46:51.41Z</time></trkpt><trkpt lat="45.12662" lon="7.0174622"><ele>764.0</ele><time>2026-05-01T07:46:52.41Z</time></trkpt><trkpt lat="45.126656" lon="7.0173148"><ele>762.0</ele><time>2026-05-01T07:46:53.411Z</time></trkpt><trkpt lat="45.1267082" lon="7.0171554"><ele>760.0</ele><time>2026-05-01T07:46:54.41Z</time></trkpt><trkpt lat="45.1267669" lon="7.0169905"><ele>760.0</ele><time>2026-05-01T07:46:55.41Z</time></trkpt><trkpt lat="45.1268236" lon="7.0168216"><ele>760.0</ele><time>2026-05-01T07:46:56.41Z</time></trkpt><trkpt lat="45.1268703" lon="7.0166421"><ele>760.0</ele><time>2026-05-01T07:46:57.41Z</time></trkpt><trkpt lat="45.1269098" lon="7.0164489"><ele>760.0</ele><time>2026-05-01T07:46:58.41Z</time></trkpt><trkpt lat="45.1269409" lon="7.0162542"><ele>760.0</ele><time>2026-05-01T07:46:59.41Z</time></trkpt><trkpt lat="45.1269679" lon="7.0160726"><ele>760.0</ele><time>2026-05-01T07:47:00.41Z</time></trkpt><trkpt lat="45.126996" lon="7.0159081"><ele>760.0</ele><time>2026-05-01T07:47:01.41Z</time></trkpt><trkpt lat="45.1270262" lon="7.0157555"><ele>760.0</ele><time>2026-05-01T07:47:02.411Z</time></trkpt><trkpt lat="45.1270584" lon="7.0156087"><ele>759.8</ele><time>2026-05-01T07:47:03.41Z</time></trkpt><trkpt lat="45.127093" lon="7.0154651"><ele>759.6</ele><time>2026-05-01T07:47:04.41Z</time></trkpt><trkpt lat="45.1271286" lon="7.0153216"><ele>759.4000000000001</ele><time>2026-05-01T07:47:05.41Z</time></trkpt><trkpt lat="45.1271707" lon="7.0151783"><ele>759.2</ele><time>2026-05-01T07:47:06.41Z</time></trkpt><trkpt lat="45.1272159" lon="7.0150247"><ele>759.0</ele><time>2026-05-01T07:47:07.411Z</time></trkpt><trkpt lat="45.1272579" lon="7.0148627"><ele>758.75</ele><time>2026-05-01T07:47:08.41Z</time></trkpt><trkpt lat="45.1272955" lon="7.014689"><ele>758.5</ele><time>2026-05-01T07:47:09.41Z</time></trkpt><trkpt lat="45.1273242" lon="7.0145082"><ele>758.25</ele><time>2026-05-01T07:47:10.41Z</time></trkpt><trkpt lat="45.1273424" lon="7.014316"><ele>758.0</ele><time>2026-05-01T07:47:11.41Z</time></trkpt><trkpt lat="45.1273499" lon="7.0141186"><ele>758.0</ele><time>2026-05-01T07:47:12.41Z</time></trkpt><trkpt lat="45.1273471" lon="7.0139289"><ele>758.0</ele><time>2026-05-01T07:47:13.41Z</time></trkpt><trkpt lat="45.1273379" lon="7.013754"><ele>758.0</ele><time>2026-05-01T07:47:14.411Z</time></trkpt><trkpt lat="45.1273243" lon="7.0135987"><ele>758.0</ele><time>2026-05-01T07:47:15.411Z</time></trkpt><trkpt lat="45.1273115" lon="7.0134548"><ele>757.0</ele><time>2026-05-01T07:47:16.41Z</time></trkpt><trkpt lat="45.1272991" lon="7.0133143"><ele>756.0</ele><time>2026-05-01T07:47:17.41Z</time></trkpt><trkpt lat="45.1272853" lon="7.0131818"><ele>755.0</ele><time>2026-05-01T07:47:18.411Z</time></trkpt><trkpt lat="45.1272708" lon="7.0130565"><ele>754.0</ele><time>2026-05-01T07:47:19.41Z</time></trkpt><trkpt lat="45.1272567" lon="7.0129337"><ele>753.0</ele><time>2026-05-01T07:47:20.41Z</time></trkpt><trkpt lat="45.1272435" lon="7.0128115"><ele>753.0</ele><time>2026-05-01T07:47:21.41Z</time></trkpt><trkpt lat="45.1272287" lon="7.0126924"><ele>753.0</ele><time>2026-05-01T07:47:22.41Z</time></trkpt><trkpt lat="45.1272145" lon="7.0125569"><ele>753.0</ele><time>2026-05-01T07:47:23.41Z</time></trkpt><trkpt lat="45.1272019" lon="7.0123997"><ele>753.0</ele><time>2026-05-01T07:47:24.41Z</time></trkpt><trkpt lat="45.1271847" lon="7.0122258"><ele>753.0</ele><time>2026-05-01T07:47:25.41Z</time></trkpt><trkpt lat="45.1271654" lon="7.0120393"><ele>752.0</ele><time>2026-05-01T07:47:26.41Z</time></trkpt><trkpt lat="45.1271425" lon="7.0118396"><ele>751.0</ele><time>2026-05-01T07:47:27.41Z</time></trkpt><trkpt lat="45.1271181" lon="7.0116402"><ele>750.0</ele><time>2026-05-01T07:47:28.41Z</time></trkpt><trkpt lat="45.1270939" lon="7.011442"><ele>749.0</ele><time>2026-05-01T07:47:29.41Z</time></trkpt><trkpt lat="45.1270676" lon="7.0112458"><ele>748.5</ele><time>2026-05-01T07:47:30.41Z</time></trkpt><trkpt lat="45.1270395" lon="7.0110536"><ele>748.0</ele><time>2026-05-01T07:47:31.41Z</time></trkpt><trkpt lat="45.1270122" lon="7.0108653"><ele>747.5</ele><time>2026-05-01T07:47:32.41Z</time></trkpt><trkpt lat="45.1269828" lon="7.0106784"><ele>747.0</ele><time>2026-05-01T07:47:33.411Z</time></trkpt><trkpt lat="45.1269521" lon="7.0104908"><ele>746.75</ele><time>2026-05-01T07:47:34.41Z</time></trkpt><trkpt lat="45.1269213" lon="7.0102998"><ele>746.5</ele><time>2026-05-01T07:47:35.41Z</time></trkpt><trkpt lat="45.1268918" lon="7.0101003"><ele>746.25</ele><time>2026-05-01T07:47:36.41Z</time></trkpt><trkpt lat="45.1268607" lon="7.0098949"><ele>746.0</ele><time>2026-05-01T07:47:37.41Z</time></trkpt><trkpt lat="45.1268299" lon="7.0096884"><ele>745.25</ele><time>2026-05-01T07:47:38.41Z</time></trkpt><trkpt lat="45.126799" lon="7.0094851"><ele>744.5</ele><time>2026-05-01T07:47:39.41Z</time></trkpt><trkpt lat="45.1267695" lon="7.0092826"><ele>743.75</ele><time>2026-05-01T07:47:40.411Z</time></trkpt><trkpt lat="45.1267365" lon="7.0090752"><ele>743.0</ele><time>2026-05-01T07:47:41.41Z</time></trkpt><trkpt lat="45.1267022" lon="7.0088697"><ele>740.6666666666666</ele><time>2026-05-01T07:47:42.41Z</time></trkpt><trkpt lat="45.1266691" lon="7.0086572"><ele>738.3333333333334</ele><time>2026-05-01T07:47:43.41Z</time></trkpt><trkpt lat="45.1266369" lon="7.008435"><ele>736.0</ele><time>2026-05-01T07:47:44.41Z</time></trkpt><trkpt lat="45.1266037" lon="7.0082104"><ele>736.0</ele><time>2026-05-01T07:47:45.41Z</time></trkpt><trkpt lat="45.1265684" lon="7.0079856"><ele>736.0</ele><time>2026-05-01T07:47:46.41Z</time></trkpt><trkpt lat="45.1265348" lon="7.0077603"><ele>736.0</ele><time>2026-05-01T07:47:47.41Z</time></trkpt><trkpt lat="45.1265018" lon="7.0075261"><ele>739.0</ele><time>2026-05-01T07:47:48.411Z</time></trkpt><trkpt lat="45.1264665" lon="7.0072822"><ele>742.0</ele><time>2026-05-01T07:47:49.41Z</time></trkpt><trkpt lat="45.1264275" lon="7.007031"><ele>745.0</ele><time>2026-05-01T07:47:50.41Z</time></trkpt><trkpt lat="45.1263826" lon="7.0067658"><ele>745.3333333333334</ele><time>2026-05-01T07:47:51.41Z</time></trkpt><trkpt lat="45.126334" lon="7.0065022"><ele>745.6666666666666</ele><time>2026-05-01T07:47:52.41Z</time></trkpt><trkpt lat="45.1262782" lon="7.0062379"><ele>746.0</ele><time>2026-05-01T07:47:53.41Z</time></trkpt><trkpt lat="45.1262148" lon="7.0059698"><ele>745.0</ele><time>2026-05-01T07:47:54.41Z</time></trkpt><trkpt lat="45.1261444" lon="7.0056986"><ele>744.0</ele><time>2026-05-01T07:47:55.41Z</time></trkpt><trkpt lat="45.1260677" lon="7.0054318"><ele>743.0</ele><time>2026-05-01T07:47:56.41Z</time></trkpt><trkpt lat="45.1259853" lon="7.0051799"><ele>744.0</ele><time>2026-05-01T07:47:57.41Z</time></trkpt><trkpt lat="45.1259013" lon="7.0049403"><ele>745.0</ele><time>2026-05-01T07:47:58.411Z</time></trkpt><trkpt lat="45.1258132" lon="7.0046999"><ele>746.0</ele><time>2026-05-01T07:47:59.41Z</time></trkpt><trkpt lat="45.1257187" lon="7.0044555"><ele>746.0</ele><time>2026-05-01T07:48:00.41Z</time></trkpt><trkpt lat="45.1256203" lon="7.0042054"><ele>746.0</ele><time>2026-05-01T07:48:01.41Z</time></trkpt><trkpt lat="45.125515" lon="7.0039466"><ele>746.0</ele><time>2026-05-01T07:48:02.41Z</time></trkpt><trkpt lat="45.1254024" lon="7.0036849"><ele>745.3333333333333</ele><time>2026-05-01T07:48:03.41Z</time></trkpt><trkpt lat="45.1252827" lon="7.0034256"><ele>744.6666666666666</ele><time>2026-05-01T07:48:04.41Z</time></trkpt><trkpt lat="45.1251605" lon="7.0031767"><ele>744.0</ele><time>2026-05-01T07:48:05.41Z</time></trkpt><trkpt lat="45.1250379" lon="7.0029456"><ele>743.3333333333334</ele><time>2026-05-01T07:48:06.41Z</time></trkpt><trkpt lat="45.1249201" lon="7.0027325"><ele>742.6666666666667</ele><time>2026-05-01T07:48:07.41Z</time></trkpt><trkpt lat="45.1248159" lon="7.0025281"><ele>742.0</ele><time>2026-05-01T07:48:08.41Z</time></trkpt><trkpt lat="45.1247308" lon="7.0023137"><ele>743.0</ele><time>2026-05-01T07:48:09.41Z</time></trkpt><trkpt lat="45.1246639" lon="7.0020779"><ele>744.0</ele><time>2026-05-01T07:48:10.411Z</time></trkpt><trkpt lat="45.1246184" lon="7.001822"><ele>745.0</ele><time>2026-05-01T07:48:11.41Z</time></trkpt><trkpt lat="45.1245986" lon="7.0015582"><ele>745.0</ele><time>2026-05-01T07:48:12.41Z</time></trkpt><trkpt lat="45.1246072" lon="7.0012822"><ele>745.0</ele><time>2026-05-01T07:48:13.41Z</time></trkpt><trkpt lat="45.1246338" lon="7.0009926"><ele>745.0</ele><time>2026-05-01T07:48:14.41Z</time></trkpt><trkpt lat="45.1246576" lon="7.000691"><ele>745.0</ele><time>2026-05-01T07:48:15.41Z</time></trkpt><trkpt lat="45.1246868" lon="7.000386"><ele>745.0</ele><time>2026-05-01T07:48:16.41Z</time></trkpt><trkpt lat="45.1247145" lon="7.0000946"><ele>745.0</ele><time>2026-05-01T07:48:17.41Z</time></trkpt><trkpt lat="45.1247385" lon="6.9998133"><ele>745.0</ele><time>2026-05-01T07:48:18.41Z</time></trkpt><trkpt lat="45.1247538" lon="6.9995442"><ele>745.0</ele><time>2026-05-01T07:48:19.41Z</time></trkpt><trkpt lat="45.124753" lon="6.9992792"><ele>745.0</ele><time>2026-05-01T07:48:20.41Z</time></trkpt><trkpt lat="45.1247339" lon="6.9990068"><ele>744.0</ele><time>2026-05-01T07:48:21.41Z</time></trkpt><trkpt lat="45.1246965" lon="6.9987311"><ele>743.0</ele><time>2026-05-01T07:48:22.41Z</time></trkpt><trkpt lat="45.1246352" lon="6.9984593"><ele>742.0</ele><time>2026-05-01T07:48:23.41Z</time></trkpt><trkpt lat="45.124553" lon="6.9981953"><ele>742.0</ele><time>2026-05-01T07:48:24.41Z</time></trkpt><trkpt lat="45.1244485" lon="6.9979407"><ele>742.0</ele><time>2026-05-01T07:48:25.41Z</time></trkpt><trkpt lat="45.1243245" lon="6.9977052"><ele>742.0</ele><time>2026-05-01T07:48:26.41Z</time></trkpt><trkpt lat="45.1241848" lon="6.99749"><ele>744.3333333333334</ele><time>2026-05-01T07:48:27.41Z</time></trkpt><trkpt lat="45.1240437" lon="6.9972822"><ele>746.6666666666666</ele><time>2026-05-01T07:48:28.41Z</time></trkpt><trkpt lat="45.1239124" lon="6.9970659"><ele>749.0</ele><time>2026-05-01T07:48:29.41Z</time></trkpt><trkpt lat="45.1237924" lon="6.9968451"><ele>747.3333333333333</ele><time>2026-05-01T07:48:30.41Z</time></trkpt><trkpt lat="45.1236835" lon="6.99663"><ele>745.6666666666666</ele><time>2026-05-01T07:48:31.411Z</time></trkpt><trkpt lat="45.1235835" lon="6.9964169"><ele>744.0</ele><time>2026-05-01T07:48:32.411Z</time></trkpt><trkpt lat="45.123495" lon="6.9962062"><ele>744.0</ele><time>2026-05-01T07:48:33.41Z</time></trkpt><trkpt lat="45.123415" lon="6.9959908"><ele>744.0</ele><time>2026-05-01T07:48:34.41Z</time></trkpt><trkpt lat="45.1233386" lon="6.9957622"><ele>744.0</ele><time>2026-05-01T07:48:35.41Z</time></trkpt><trkpt lat="45.1232673" lon="6.9955262"><ele>745.6666666666666</ele><time>2026-05-01T07:48:36.41Z</time></trkpt><trkpt lat="45.1231991" lon="6.9952848"><ele>747.3333333333333</ele><time>2026-05-01T07:48:37.41Z</time></trkpt><trkpt lat="45.1231316" lon="6.9950406"><ele>749.0</ele><time>2026-05-01T07:48:38.41Z</time></trkpt><trkpt lat="45.1230657" lon="6.9947942"><ele>749.0</ele><time>2026-05-01T07:48:39.41Z</time></trkpt><trkpt lat="45.1230003" lon="6.9945499"><ele>749.0</ele><time>2026-05-01T07:48:40.41Z</time></trkpt><trkpt lat="45.1229372" lon="6.9943128"><ele>749.0</ele><time>2026-05-01T07:48:41.41Z</time></trkpt><trkpt lat="45.1228736" lon="6.994076"><ele>747.0</ele><time>2026-05-01T07:48:42.41Z</time></trkpt><trkpt lat="45.122813" lon="6.9938441"><ele>745.0</ele><time>2026-05-01T07:48:43.41Z</time></trkpt><trkpt lat="45.122752" lon="6.9936143"><ele>743.0</ele><time>2026-05-01T07:48:44.41Z</time></trkpt><trkpt lat="45.1226898" lon="6.9933838"><ele>742.3333333333333</ele><time>2026-05-01T07:48:45.41Z</time></trkpt><trkpt lat="45.1226285" lon="6.9931559"><ele>741.6666666666666</ele><time>2026-05-01T07:48:46.41Z</time></trkpt><trkpt lat="45.1225657" lon="6.9929257"><ele>741.0</ele><time>2026-05-01T07:48:47.41Z</time></trkpt><trkpt lat="45.1225052" lon="6.9926991"><ele>739.6666666666666</ele><time>2026-05-01T07:48:48.411Z</time></trkpt><trkpt lat="45.1224445" lon="6.9924726"><ele>738.3333333333333</ele><time>2026-05-01T07:48:49.41Z</time></trkpt><trkpt lat="45.1223834" lon="6.9922441"><ele>737.0</ele><time>2026-05-01T07:48:50.41Z</time></trkpt><trkpt lat="45.1223219" lon="6.9920178"><ele>742.0</ele><time>2026-05-01T07:48:51.41Z</time></trkpt><trkpt lat="45.1222609" lon="6.9917968"><ele>747.0</ele><time>2026-05-01T07:48:52.41Z</time></trkpt><trkpt lat="45.1222006" lon="6.9915791"><ele>752.0</ele><time>2026-05-01T07:48:53.412Z</time></trkpt><trkpt lat="45.1221433" lon="6.9913616"><ele>752.0</ele><time>2026-05-01T07:48:54.41Z</time></trkpt><trkpt lat="45.1220907" lon="6.9911413"><ele>752.0</ele><time>2026-05-01T07:48:55.411Z</time></trkpt><trkpt lat="45.1220466" lon="6.9909212"><ele>752.0</ele><time>2026-05-01T07:48:56.41Z</time></trkpt><trkpt lat="45.1220106" lon="6.9907103"><ele>751.25</ele><time>2026-05-01T07:48:57.411Z</time></trkpt><trkpt lat="45.1219812" lon="6.9905138"><ele>750.5</ele><time>2026-05-01T07:48:58.41Z</time></trkpt><trkpt lat="45.1219543" lon="6.9903344"><ele>749.75</ele><time>2026-05-01T07:48:59.41Z</time></trkpt><trkpt lat="45.1219216" lon="6.990164"><ele>749.0</ele><time>2026-05-01T07:49:00.41Z</time></trkpt><trkpt lat="45.1218783" lon="6.9899952"><ele>748.75</ele><time>2026-05-01T07:49:01.41Z</time></trkpt><trkpt lat="45.1218263" lon="6.989826"><ele>748.5</ele><time>2026-05-01T07:49:02.41Z</time></trkpt><trkpt lat="45.1217732" lon="6.9896605"><ele>748.25</ele><time>2026-05-01T07:49:03.41Z</time></trkpt><trkpt lat="45.121723" lon="6.9895113"><ele>748.0</ele><time>2026-05-01T07:49:04.41Z</time></trkpt><trkpt lat="45.1216749" lon="6.989376"><ele>748.0</ele><time>2026-05-01T07:49:05.41Z</time></trkpt><trkpt lat="45.1216276" lon="6.9892385"><ele>748.0</ele><time>2026-05-01T07:49:06.41Z</time></trkpt><trkpt lat="45.1215771" lon="6.9890932"><ele>748.0</ele><time>2026-05-01T07:49:07.41Z</time></trkpt><trkpt lat="45.1215253" lon="6.9889437"><ele>748.0</ele><time>2026-05-01T07:49:08.41Z</time></trkpt><trkpt lat="45.1214733" lon="6.9887957"><ele>749.5999999999999</ele><time>2026-05-01T07:49:09.411Z</time></trkpt><trkpt lat="45.1214237" lon="6.9886545"><ele>751.1999999999999</ele><time>2026-05-01T07:49:10.41Z</time></trkpt><trkpt lat="45.1213732" lon="6.988519"><ele>752.8</ele><time>2026-05-01T07:49:11.411Z</time></trkpt><trkpt lat="45.1213231" lon="6.98838"><ele>754.4</ele><time>2026-05-01T07:49:12.411Z</time></trkpt><trkpt lat="45.1212717" lon="6.9882476"><ele>756.0</ele><time>2026-05-01T07:49:13.41Z</time></trkpt><trkpt lat="45.1212233" lon="6.9881164"><ele>756.0</ele><time>2026-05-01T07:49:14.411Z</time></trkpt><trkpt lat="45.1211734" lon="6.9879832"><ele>756.0</ele><time>2026-05-01T07:49:15.41Z</time></trkpt><trkpt lat="45.1211251" lon="6.9878524"><ele>756.0</ele><time>2026-05-01T07:49:16.41Z</time></trkpt><trkpt lat="45.1210784" lon="6.9877311"><ele>756.0</ele><time>2026-05-01T07:49:17.41Z</time></trkpt><trkpt lat="45.1210339" lon="6.9876138"><ele>756.0</ele><time>2026-05-01T07:49:18.41Z</time></trkpt><trkpt lat="45.12099" lon="6.9874999"><ele>755.5999999999999</ele><time>2026-05-01T07:49:19.41Z</time></trkpt><trkpt lat="45.1209436" lon="6.9873767"><ele>755.2</ele><time>2026-05-01T07:49:20.41Z</time></trkpt><trkpt lat="45.1208962" lon="6.9872409"><ele>754.8</ele><time>2026-05-01T07:49:21.41Z</time></trkpt><trkpt lat="45.1208466" lon="6.9871"><ele>754.4000000000001</ele><time>2026-05-01T07:49:22.411Z</time></trkpt><trkpt lat="45.1207924" lon="6.9869647"><ele>754.0</ele><time>2026-05-01T07:49:23.41Z</time></trkpt><trkpt lat="45.1207341" lon="6.9868432"><ele>755.25</ele><time>2026-05-01T07:49:24.411Z</time></trkpt><trkpt lat="45.1206655" lon="6.9867258"><ele>756.5</ele><time>2026-05-01T07:49:25.41Z</time></trkpt><trkpt lat="45.1205865" lon="6.9866139"><ele>757.75</ele><time>2026-05-01T07:49:26.41Z</time></trkpt><trkpt lat="45.1204955" lon="6.9865154"><ele>759.0</ele><time>2026-05-01T07:49:27.41Z</time></trkpt><trkpt lat="45.12039" lon="6.9864376"><ele>759.0</ele><time>2026-05-01T07:49:28.41Z</time></trkpt><trkpt lat="45.1202696" lon="6.9863791"><ele>759.0</ele><time>2026-05-01T07:49:29.411Z</time></trkpt><trkpt lat="45.1201409" lon="6.9863357"><ele>759.0</ele><time>2026-05-01T07:49:30.41Z</time></trkpt><trkpt lat="45.1200085" lon="6.986294"><ele>759.0</ele><time>2026-05-01T07:49:31.41Z</time></trkpt><trkpt lat="45.119877" lon="6.986246"><ele>760.5</ele><time>2026-05-01T07:49:32.41Z</time></trkpt><trkpt lat="45.1197494" lon="6.9861834"><ele>762.0</ele><time>2026-05-01T07:49:33.41Z</time></trkpt><trkpt lat="45.1196337" lon="6.9861025"><ele>763.5</ele><time>2026-05-01T07:49:34.41Z</time></trkpt><trkpt lat="45.119527" lon="6.986013"><ele>765.0</ele><time>2026-05-01T07:49:35.41Z</time></trkpt><trkpt lat="45.1194214" lon="6.9859157"><ele>766.0</ele><time>2026-05-01T07:49:36.41Z</time></trkpt><trkpt lat="45.1193171" lon="6.9858042"><ele>767.0</ele><time>2026-05-01T07:49:37.41Z</time></trkpt><trkpt lat="45.1192134" lon="6.9856868"><ele>768.0</ele><time>2026-05-01T07:49:38.41Z</time></trkpt><trkpt lat="45.1191156" lon="6.9855657"><ele>769.0</ele><time>2026-05-01T07:49:39.41Z</time></trkpt><trkpt lat="45.1190207" lon="6.9854344"><ele>769.0</ele><time>2026-05-01T07:49:40.41Z</time></trkpt><trkpt lat="45.1189345" lon="6.9852962"><ele>769.0</ele><time>2026-05-01T07:49:41.41Z</time></trkpt><trkpt lat="45.1188497" lon="6.9851566"><ele>769.0</ele><time>2026-05-01T07:49:42.41Z</time></trkpt><trkpt lat="45.1187625" lon="6.9850139"><ele>769.0</ele><time>2026-05-01T07:49:43.41Z</time></trkpt><trkpt lat="45.1186762" lon="6.9848724"><ele>767.75</ele><time>2026-05-01T07:49:44.41Z</time></trkpt><trkpt lat="45.1185874" lon="6.9847327"><ele>766.5</ele><time>2026-05-01T07:49:45.411Z</time></trkpt><trkpt lat="45.1184974" lon="6.9845908"><ele>765.25</ele><time>2026-05-01T07:49:46.41Z</time></trkpt><trkpt lat="45.11841" lon="6.9844544"><ele>764.0</ele><time>2026-05-01T07:49:47.41Z</time></trkpt><trkpt lat="45.1183245" lon="6.9843194"><ele>764.0</ele><time>2026-05-01T07:49:48.411Z</time></trkpt><trkpt lat="45.1182414" lon="6.9841866"><ele>764.0</ele><time>2026-05-01T07:49:49.41Z</time></trkpt><trkpt lat="45.1181627" lon="6.9840624"><ele>764.0</ele><time>2026-05-01T07:49:50.41Z</time></trkpt><trkpt lat="45.1180877" lon="6.9839455"><ele>764.0</ele><time>2026-05-01T07:49:51.41Z</time></trkpt><trkpt lat="45.1180132" lon="6.9838321"><ele>764.0</ele><time>2026-05-01T07:49:52.41Z</time></trkpt><trkpt lat="45.1179355" lon="6.9837084"><ele>764.0</ele><time>2026-05-01T07:49:53.411Z</time></trkpt><trkpt lat="45.1178522" lon="6.9835734"><ele>764.0</ele><time>2026-05-01T07:49:54.41Z</time></trkpt><trkpt lat="45.1177667" lon="6.9834317"><ele>764.0</ele><time>2026-05-01T07:49:55.41Z</time></trkpt><trkpt lat="45.1176802" lon="6.9832854"><ele>764.0</ele><time>2026-05-01T07:49:56.41Z</time></trkpt><trkpt lat="45.1175976" lon="6.9831383"><ele>764.0</ele><time>2026-05-01T07:49:57.41Z</time></trkpt><trkpt lat="45.1175221" lon="6.9829921"><ele>764.0</ele><time>2026-05-01T07:49:58.41Z</time></trkpt><trkpt lat="45.1174516" lon="6.9828368"><ele>764.0</ele><time>2026-05-01T07:49:59.41Z</time></trkpt><trkpt lat="45.1173895" lon="6.9826732"><ele>768.75</ele><time>2026-05-01T07:50:00.41Z</time></trkpt><trkpt lat="45.1173336" lon="6.9824948"><ele>773.5</ele><time>2026-05-01T07:50:01.41Z</time></trkpt><trkpt lat="45.1172928" lon="6.9822948"><ele>778.25</ele><time>2026-05-01T07:50:02.41Z</time></trkpt><trkpt lat="45.1172635" lon="6.9820817"><ele>783.0</ele><time>2026-05-01T07:50:03.411Z</time></trkpt><trkpt lat="45.1172412" lon="6.9818636"><ele>780.75</ele><time>2026-05-01T07:50:04.41Z</time></trkpt><trkpt lat="45.1172299" lon="6.9816505"><ele>778.5</ele><time>2026-05-01T07:50:05.41Z</time></trkpt><trkpt lat="45.117223" lon="6.9814442"><ele>776.25</ele><time>2026-05-01T07:50:06.41Z</time></trkpt><trkpt lat="45.1172167" lon="6.9812485"><ele>774.0</ele><time>2026-05-01T07:50:07.41Z</time></trkpt><trkpt lat="45.1172103" lon="6.9810613"><ele>774.0</ele><time>2026-05-01T07:50:08.41Z</time></trkpt><trkpt lat="45.1172051" lon="6.9808837"><ele>774.0</ele><time>2026-05-01T07:50:09.41Z</time></trkpt><trkpt lat="45.1171989" lon="6.9807108"><ele>774.0</ele><time>2026-05-01T07:50:10.41Z</time></trkpt><trkpt lat="45.1171944" lon="6.9805403"><ele>774.0</ele><time>2026-05-01T07:50:11.411Z</time></trkpt><trkpt lat="45.11719" lon="6.9803697"><ele>772.75</ele><time>2026-05-01T07:50:12.411Z</time></trkpt><trkpt lat="45.1171853" lon="6.9801941"><ele>771.5</ele><time>2026-05-01T07:50:13.41Z</time></trkpt><trkpt lat="45.1171782" lon="6.980017"><ele>770.25</ele><time>2026-05-01T07:50:14.41Z</time></trkpt><trkpt lat="45.1171718" lon="6.9798358"><ele>769.0</ele><time>2026-05-01T07:50:15.41Z</time></trkpt><trkpt lat="45.1171649" lon="6.979652"><ele>767.75</ele><time>2026-05-01T07:50:16.41Z</time></trkpt><trkpt lat="45.1171567" lon="6.9794707"><ele>766.5</ele><time>2026-05-01T07:50:17.41Z</time></trkpt><trkpt lat="45.1171503" lon="6.9792862"><ele>765.25</ele><time>2026-05-01T07:50:18.41Z</time></trkpt><trkpt lat="45.1171461" lon="6.9790979"><ele>764.0</ele><time>2026-05-01T07:50:19.41Z</time></trkpt><trkpt lat="45.1171439" lon="6.9789048"><ele>764.0</ele><time>2026-05-01T07:50:20.411Z</time></trkpt><trkpt lat="45.1171392" lon="6.9787066"><ele>764.0</ele><time>2026-05-01T07:50:21.41Z</time></trkpt><trkpt lat="45.1171342" lon="6.9785025"><ele>764.0</ele><time>2026-05-01T07:50:22.41Z</time></trkpt><trkpt lat="45.1171296" lon="6.9782937"><ele>764.0</ele><time>2026-05-01T07:50:23.411Z</time></trkpt><trkpt lat="45.117122" lon="6.9780811"><ele>765.0</ele><time>2026-05-01T07:50:24.41Z</time></trkpt><trkpt lat="45.1171143" lon="6.977868"><ele>766.0</ele><time>2026-05-01T07:50:25.41Z</time></trkpt><trkpt lat="45.1170964" lon="6.9776542"><ele>767.0</ele><time>2026-05-01T07:50:26.411Z</time></trkpt><trkpt lat="45.1170658" lon="6.977444"><ele>767.3333333333333</ele><time>2026-05-01T07:50:27.41Z</time></trkpt><trkpt lat="45.1170203" lon="6.9772364"><ele>767.6666666666666</ele><time>2026-05-01T07:50:28.41Z</time></trkpt><trkpt lat="45.1169602" lon="6.9770337"><ele>768.0</ele><time>2026-05-01T07:50:29.41Z</time></trkpt><trkpt lat="45.1168842" lon="6.9768362"><ele>769.0</ele><time>2026-05-01T07:50:30.41Z</time></trkpt><trkpt lat="45.1167977" lon="6.9766489"><ele>770.0</ele><time>2026-05-01T07:50:31.41Z</time></trkpt><trkpt lat="45.1167009" lon="6.9764683"><ele>771.0</ele><time>2026-05-01T07:50:32.41Z</time></trkpt><trkpt lat="45.1165962" lon="6.9762923"><ele>774.0</ele><time>2026-05-01T07:50:33.411Z</time></trkpt><trkpt lat="45.1164864" lon="6.9761177"><ele>777.0</ele><time>2026-05-01T07:50:34.41Z</time></trkpt><trkpt lat="45.1163715" lon="6.9759436"><ele>780.0</ele><time>2026-05-01T07:50:35.41Z</time></trkpt><trkpt lat="45.1162612" lon="6.9757713"><ele>780.0</ele><time>2026-05-01T07:50:36.411Z</time></trkpt><trkpt lat="45.1161477" lon="6.9755926"><ele>780.0</ele><time>2026-05-01T07:50:37.409Z</time></trkpt><trkpt lat="45.1160354" lon="6.9754157"><ele>780.0</ele><time>2026-05-01T07:50:38.409Z</time></trkpt><trkpt lat="45.1159185" lon="6.9752354"><ele>780.0</ele><time>2026-05-01T07:50:39.409Z</time></trkpt><trkpt lat="45.1158064" lon="6.9750647"><ele>780.0</ele><time>2026-05-01T07:50:40.41Z</time></trkpt><trkpt lat="45.1156905" lon="6.9748882"><ele>780.0</ele><time>2026-05-01T07:50:41.411Z</time></trkpt><trkpt lat="45.1155782" lon="6.9747192"><ele>781.6666666666667</ele><time>2026-05-01T07:50:42.411Z</time></trkpt><trkpt lat="45.1154628" lon="6.9745414"><ele>783.3333333333334</ele><time>2026-05-01T07:50:43.41Z</time></trkpt><trkpt lat="45.1153456" lon="6.9743631"><ele>785.0</ele><time>2026-05-01T07:50:44.41Z</time></trkpt><trkpt lat="45.1152318" lon="6.9741897"><ele>788.0</ele><time>2026-05-01T07:50:45.409Z</time></trkpt><trkpt lat="45.115114" lon="6.9740088"><ele>791.0</ele><time>2026-05-01T07:50:46.41Z</time></trkpt><trkpt lat="45.1149904" lon="6.9738192"><ele>794.0</ele><time>2026-05-01T07:50:47.411Z</time></trkpt><trkpt lat="45.1148638" lon="6.973622"><ele>794.0</ele><time>2026-05-01T07:50:48.411Z</time></trkpt><trkpt lat="45.114736" lon="6.973421"><ele>794.0</ele><time>2026-05-01T07:50:49.41Z</time></trkpt><trkpt lat="45.1146044" lon="6.973221"><ele>794.0</ele><time>2026-05-01T07:50:50.41Z</time></trkpt><trkpt lat="45.1144716" lon="6.9730165"><ele>791.6666666666667</ele><time>2026-05-01T07:50:51.41Z</time></trkpt><trkpt lat="45.1143325" lon="6.9728075"><ele>789.3333333333333</ele><time>2026-05-01T07:50:52.409Z</time></trkpt><trkpt lat="45.1141995" lon="6.9725987"><ele>787.0</ele><time>2026-05-01T07:50:53.41Z</time></trkpt><trkpt lat="45.1140736" lon="6.9723879"><ele>788.3333333333333</ele><time>2026-05-01T07:50:54.411Z</time></trkpt><trkpt lat="45.1139593" lon="6.9721548"><ele>789.6666666666667</ele><time>2026-05-01T07:50:55.41Z</time></trkpt><trkpt lat="45.1138575" lon="6.9719011"><ele>791.0</ele><time>2026-05-01T07:50:56.41Z</time></trkpt><trkpt lat="45.1137604" lon="6.9716382"><ele>791.0</ele><time>2026-05-01T07:50:57.409Z</time></trkpt><trkpt lat="45.1136592" lon="6.9713691"><ele>791.0</ele><time>2026-05-01T07:50:58.41Z</time></trkpt><trkpt lat="45.1135563" lon="6.9711053"><ele>791.0</ele><time>2026-05-01T07:50:59.409Z</time></trkpt><trkpt lat="45.1134488" lon="6.9708565"><ele>786.6666666666667</ele><time>2026-05-01T07:51:00.41Z</time></trkpt><trkpt lat="45.113328" lon="6.9706278"><ele>782.3333333333333</ele><time>2026-05-01T07:51:01.41Z</time></trkpt><trkpt lat="45.1131915" lon="6.9704307"><ele>778.0</ele><time>2026-05-01T07:51:02.41Z</time></trkpt><trkpt lat="45.1130319" lon="6.9702633"><ele>779.3333333333333</ele><time>2026-05-01T07:51:03.41Z</time></trkpt><trkpt lat="45.1128557" lon="6.9701198"><ele>780.6666666666667</ele><time>2026-05-01T07:51:04.411Z</time></trkpt><trkpt lat="45.1126695" lon="6.9699924"><ele>782.0</ele><time>2026-05-01T07:51:05.41Z</time></trkpt><trkpt lat="45.1124863" lon="6.9698672"><ele>794.3333333333334</ele><time>2026-05-01T07:51:06.411Z</time></trkpt><trkpt lat="45.1123211" lon="6.9697375"><ele>806.6666666666667</ele><time>2026-05-01T07:51:07.411Z</time></trkpt><trkpt lat="45.1121823" lon="6.9696056"><ele>819.0</ele><time>2026-05-01T07:51:08.41Z</time></trkpt><trkpt lat="45.1120738" lon="6.9694547"><ele>819.0</ele><time>2026-05-01T07:51:09.411Z</time></trkpt><trkpt lat="45.1119937" lon="6.969274"><ele>819.0</ele><time>2026-05-01T07:51:10.41Z</time></trkpt><trkpt lat="45.111944" lon="6.9690578"><ele>819.0</ele><time>2026-05-01T07:51:11.41Z</time></trkpt><trkpt lat="45.1119253" lon="6.9688126"><ele>812.6666666666667</ele><time>2026-05-01T07:51:12.409Z</time></trkpt><trkpt lat="45.1119265" lon="6.9685396"><ele>806.3333333333334</ele><time>2026-05-01T07:51:13.41Z</time></trkpt><trkpt lat="45.1119319" lon="6.9682491"><ele>800.0</ele><time>2026-05-01T07:51:14.41Z</time></trkpt><trkpt lat="45.1119393" lon="6.967947"><ele>800.0</ele><time>2026-05-01T07:51:15.41Z</time></trkpt><trkpt lat="45.1119434" lon="6.9676279"><ele>800.0</ele><time>2026-05-01T07:51:16.41Z</time></trkpt><trkpt lat="45.1119425" lon="6.9673139"><ele>800.0</ele><time>2026-05-01T07:51:17.409Z</time></trkpt><trkpt lat="45.1119386" lon="6.9670094"><ele>800.0</ele><time>2026-05-01T07:51:18.41Z</time></trkpt><trkpt lat="45.1119288" lon="6.9667207"><ele>800.0</ele><time>2026-05-01T07:51:19.409Z</time></trkpt><trkpt lat="45.1119081" lon="6.9664547"><ele>800.0</ele><time>2026-05-01T07:51:20.412Z</time></trkpt><trkpt lat="45.1118659" lon="6.9662227"><ele>798.0</ele><time>2026-05-01T07:51:21.409Z</time></trkpt><trkpt lat="45.1117885" lon="6.9660141"><ele>796.0</ele><time>2026-05-01T07:51:22.41Z</time></trkpt><trkpt lat="45.1116829" lon="6.9658084"><ele>794.0</ele><time>2026-05-01T07:51:23.409Z</time></trkpt><trkpt lat="45.1115496" lon="6.9656073"><ele>794.0</ele><time>2026-05-01T07:51:24.411Z</time></trkpt><trkpt lat="45.1113971" lon="6.9653875"><ele>794.0</ele><time>2026-05-01T07:51:25.41Z</time></trkpt><trkpt lat="45.1112441" lon="6.9651512"><ele>794.0</ele><time>2026-05-01T07:51:26.41Z</time></trkpt><trkpt lat="45.1110864" lon="6.9648933"><ele>794.0</ele><time>2026-05-01T07:51:27.411Z</time></trkpt><trkpt lat="45.1109295" lon="6.9646242"><ele>794.0</ele><time>2026-05-01T07:51:28.41Z</time></trkpt><trkpt lat="45.1107761" lon="6.9643621"><ele>799.3333333333334</ele><time>2026-05-01T07:51:29.41Z</time></trkpt><trkpt lat="45.1106332" lon="6.9641159"><ele>804.6666666666667</ele><time>2026-05-01T07:51:30.411Z</time></trkpt><trkpt lat="45.1104931" lon="6.9638795"><ele>810.0</ele><time>2026-05-01T07:51:31.411Z</time></trkpt><trkpt lat="45.1103604" lon="6.9636515"><ele>810.0</ele><time>2026-05-01T07:51:32.41Z</time></trkpt><trkpt lat="45.1102308" lon="6.9634197"><ele>810.0</ele><time>2026-05-01T07:51:33.41Z</time></trkpt><trkpt lat="45.1101305" lon="6.9631723"><ele>810.0</ele><time>2026-05-01T07:51:34.409Z</time></trkpt><trkpt lat="45.1100435" lon="6.9629117"><ele>812.0</ele><time>2026-05-01T07:51:35.409Z</time></trkpt><trkpt lat="45.1099642" lon="6.9626584"><ele>814.0</ele><time>2026-05-01T07:51:36.41Z</time></trkpt><trkpt lat="45.1098711" lon="6.962417"><ele>816.0</ele><time>2026-05-01T07:51:37.41Z</time></trkpt><trkpt lat="45.1097556" lon="6.9621939"><ele>816.0</ele><time>2026-05-01T07:51:38.409Z</time></trkpt><trkpt lat="45.1096214" lon="6.9619676"><ele>816.0</ele><time>2026-05-01T07:51:39.41Z</time></trkpt><trkpt lat="45.1094941" lon="6.961716"><ele>816.0</ele><time>2026-05-01T07:51:40.409Z</time></trkpt><trkpt lat="45.109385" lon="6.9614341"><ele>808.0</ele><time>2026-05-01T07:51:41.411Z</time></trkpt><trkpt lat="45.1092934" lon="6.9611323"><ele>800.0</ele><time>2026-05-01T07:51:42.41Z</time></trkpt><trkpt lat="45.1091948" lon="6.9608281"><ele>809.5</ele><time>2026-05-01T07:51:43.409Z</time></trkpt><trkpt lat="45.109077" lon="6.9605471"><ele>819.0</ele><time>2026-05-01T07:51:44.41Z</time></trkpt><trkpt lat="45.1089581" lon="6.960279"><ele>819.0</ele><time>2026-05-01T07:51:45.409Z</time></trkpt><trkpt lat="45.1088493" lon="6.9600343"><ele>819.0</ele><time>2026-05-01T07:51:46.41Z</time></trkpt><trkpt lat="45.1087655" lon="6.959784"><ele>819.0</ele><time>2026-05-01T07:51:47.409Z</time></trkpt><trkpt lat="45.1087092" lon="6.9595186"><ele>812.0</ele><time>2026-05-01T07:51:48.41Z</time></trkpt><trkpt lat="45.1086698" lon="6.9592415"><ele>805.0</ele><time>2026-05-01T07:51:49.41Z</time></trkpt><trkpt lat="45.1086823" lon="6.9589337"><ele>798.0</ele><time>2026-05-01T07:51:50.409Z</time></trkpt><trkpt lat="45.1086817" lon="6.9586334"><ele>791.3333333333333</ele><time>2026-05-01T07:51:51.409Z</time></trkpt><trkpt lat="45.1086746" lon="6.95832"><ele>784.6666666666666</ele><time>2026-05-01T07:51:52.409Z</time></trkpt><trkpt lat="45.1086523" lon="6.9580061"><ele>778.0</ele><time>2026-05-01T07:51:53.411Z</time></trkpt><trkpt lat="45.1086097" lon="6.957688"><ele>775.5</ele><time>2026-05-01T07:51:54.41Z</time></trkpt><trkpt lat="45.1085399" lon="6.9573668"><ele>773.0</ele><time>2026-05-01T07:51:55.41Z</time></trkpt><trkpt lat="45.1084455" lon="6.9570402"><ele>768.0</ele><time>2026-05-01T07:51:56.41Z</time></trkpt><trkpt lat="45.1083358" lon="6.9567012"><ele>763.0</ele><time>2026-05-01T07:51:57.41Z</time></trkpt><trkpt lat="45.1082142" lon="6.9563428"><ele>760.5</ele><time>2026-05-01T07:51:58.409Z</time></trkpt><trkpt lat="45.1080961" lon="6.9560007"><ele>758.0</ele><time>2026-05-01T07:51:59.41Z</time></trkpt><trkpt lat="45.107991" lon="6.9556658"><ele>751.0</ele><time>2026-05-01T07:52:00.41Z</time></trkpt><trkpt lat="45.1078961" lon="6.9553316"><ele>744.0</ele><time>2026-05-01T07:52:01.409Z</time></trkpt><trkpt lat="45.1078084" lon="6.9549999"><ele>741.0</ele><time>2026-05-01T07:52:02.41Z</time></trkpt><trkpt lat="45.1077249" lon="6.9546752"><ele>738.0</ele><time>2026-05-01T07:52:03.41Z</time></trkpt><trkpt lat="45.1076404" lon="6.9543466"><ele>745.5</ele><time>2026-05-01T07:52:04.409Z</time></trkpt><trkpt lat="45.1075603" lon="6.9540206"><ele>753.0</ele><time>2026-05-01T07:52:05.409Z</time></trkpt><trkpt lat="45.1074817" lon="6.9536961"><ele>746.5</ele><time>2026-05-01T07:52:06.41Z</time></trkpt><trkpt lat="45.1074094" lon="6.9533853"><ele>740.0</ele><time>2026-05-01T07:52:07.411Z</time></trkpt><trkpt lat="45.107342" lon="6.9530833"><ele>740.0</ele><time>2026-05-01T07:52:08.41Z</time></trkpt><trkpt lat="45.1072771" lon="6.9527882"><ele>740.0</ele><time>2026-05-01T07:52:09.41Z</time></trkpt><trkpt lat="45.1072082" lon="6.9524924"><ele>740.0</ele><time>2026-05-01T07:52:10.41Z</time></trkpt><trkpt lat="45.1071279" lon="6.9522088"><ele>743.6666666666666</ele><time>2026-05-01T07:52:11.411Z</time></trkpt><trkpt lat="45.107054" lon="6.9519356"><ele>747.3333333333334</ele><time>2026-05-01T07:52:12.409Z</time></trkpt><trkpt lat="45.1069722" lon="6.9516778"><ele>751.0</ele><time>2026-05-01T07:52:13.41Z</time></trkpt><trkpt lat="45.1068742" lon="6.9514362"><ele>755.3333333333334</ele><time>2026-05-01T07:52:14.41Z</time></trkpt><trkpt lat="45.1067735" lon="6.951199"><ele>759.6666666666666</ele><time>2026-05-01T07:52:15.41Z</time></trkpt><trkpt lat="45.106692" lon="6.9509444"><ele>764.0</ele><time>2026-05-01T07:52:16.409Z</time></trkpt><trkpt lat="45.1066214" lon="6.9506864"><ele>761.0</ele><time>2026-05-01T07:52:17.41Z</time></trkpt><trkpt lat="45.1065764" lon="6.9504253"><ele>758.0</ele><time>2026-05-01T07:52:18.409Z</time></trkpt><trkpt lat="45.1065523" lon="6.9501751"><ele>755.0</ele><time>2026-05-01T07:52:19.411Z</time></trkpt><trkpt lat="45.1065071" lon="6.9499427"><ele>755.0</ele><time>2026-05-01T07:52:20.411Z</time></trkpt><trkpt lat="45.1064378" lon="6.9497278"><ele>755.0</ele><time>2026-05-01T07:52:21.41Z</time></trkpt><trkpt lat="45.1063449" lon="6.9495467"><ele>755.0</ele><time>2026-05-01T07:52:22.41Z</time></trkpt><trkpt lat="45.1062441" lon="6.9493844"><ele>755.0</ele><time>2026-05-01T07:52:23.409Z</time></trkpt><trkpt lat="45.1061598" lon="6.9492178"><ele>755.0</ele><time>2026-05-01T07:52:24.41Z</time></trkpt><trkpt lat="45.1060952" lon="6.9490162"><ele>755.0</ele><time>2026-05-01T07:52:25.41Z</time></trkpt><trkpt lat="45.1060328" lon="6.9487965"><ele>760.6666666666666</ele><time>2026-05-01T07:52:26.409Z</time></trkpt><trkpt lat="45.1059805" lon="6.948579"><ele>766.3333333333333</ele><time>2026-05-01T07:52:27.41Z</time></trkpt><trkpt lat="45.1059508" lon="6.9483552"><ele>772.0</ele><time>2026-05-01T07:52:28.41Z</time></trkpt><trkpt lat="45.1059539" lon="6.9481424"><ele>779.0</ele><time>2026-05-01T07:52:29.409Z</time></trkpt><trkpt lat="45.105945" lon="6.9479358"><ele>786.0</ele><time>2026-05-01T07:52:30.411Z</time></trkpt><trkpt lat="45.1058981" lon="6.9477307"><ele>793.0</ele><time>2026-05-01T07:52:31.41Z</time></trkpt><trkpt lat="45.1058148" lon="6.9475324"><ele>783.6666666666666</ele><time>2026-05-01T07:52:32.41Z</time></trkpt><trkpt lat="45.1057128" lon="6.9473279"><ele>774.3333333333333</ele><time>2026-05-01T07:52:33.41Z</time></trkpt><trkpt lat="45.1056115" lon="6.9471089"><ele>765.0</ele><time>2026-05-01T07:52:34.409Z</time></trkpt><trkpt lat="45.1055161" lon="6.9469015"><ele>765.0</ele><time>2026-05-01T07:52:35.41Z</time></trkpt><trkpt lat="45.1054261" lon="6.9467234"><ele>765.0</ele><time>2026-05-01T07:52:36.411Z</time></trkpt><trkpt lat="45.1053432" lon="6.9465749"><ele>765.0</ele><time>2026-05-01T07:52:37.41Z</time></trkpt><trkpt lat="45.1052595" lon="6.9464398"><ele>765.0</ele><time>2026-05-01T07:52:38.41Z</time></trkpt><trkpt lat="45.1051632" lon="6.9463085"><ele>765.0</ele><time>2026-05-01T07:52:39.41Z</time></trkpt><trkpt lat="45.1050439" lon="6.9461881"><ele>765.0</ele><time>2026-05-01T07:52:40.411Z</time></trkpt><trkpt lat="45.1048981" lon="6.9460828"><ele>765.0</ele><time>2026-05-01T07:52:41.411Z</time></trkpt><trkpt lat="45.1047479" lon="6.9459786"><ele>772.3333333333333</ele><time>2026-05-01T07:52:42.41Z</time></trkpt><trkpt lat="45.1046115" lon="6.9458609"><ele>779.6666666666666</ele><time>2026-05-01T07:52:43.411Z</time></trkpt><trkpt lat="45.1044828" lon="6.9457383"><ele>787.0</ele><time>2026-05-01T07:52:44.41Z</time></trkpt><trkpt lat="45.1043646" lon="6.9455856"><ele>787.0</ele><time>2026-05-01T07:52:45.409Z</time></trkpt><trkpt lat="45.1042466" lon="6.9454103"><ele>787.0</ele><time>2026-05-01T07:52:46.41Z</time></trkpt><trkpt lat="45.1041724" lon="6.9451712"><ele>787.0</ele><time>2026-05-01T07:52:47.41Z</time></trkpt><trkpt lat="45.1040657" lon="6.9449664"><ele>786.0</ele><time>2026-05-01T07:52:48.409Z</time></trkpt><trkpt lat="45.1039403" lon="6.9447671"><ele>785.0</ele><time>2026-05-01T07:52:49.41Z</time></trkpt><trkpt lat="45.1038288" lon="6.9445706"><ele>784.0</ele><time>2026-05-01T07:52:50.409Z</time></trkpt><trkpt lat="45.1037147" lon="6.9443837"><ele>792.3333333333333</ele><time>2026-05-01T07:52:51.409Z</time></trkpt><trkpt lat="45.1035931" lon="6.9442041"><ele>800.6666666666667</ele><time>2026-05-01T07:52:52.409Z</time></trkpt><trkpt lat="45.1034821" lon="6.9440018"><ele>809.0</ele><time>2026-05-01T07:52:53.41Z</time></trkpt><trkpt lat="45.1033872" lon="6.9437693"><ele>809.0</ele><time>2026-05-01T07:52:54.409Z</time></trkpt><trkpt lat="45.1033" lon="6.9435341"><ele>809.0</ele><time>2026-05-01T07:52:55.409Z</time></trkpt><trkpt lat="45.1032162" lon="6.9433144"><ele>809.0</ele><time>2026-05-01T07:52:56.41Z</time></trkpt><trkpt lat="45.1031283" lon="6.9431074"><ele>807.6666666666667</ele><time>2026-05-01T07:52:57.41Z</time></trkpt><trkpt lat="45.1030218" lon="6.942921"><ele>806.3333333333333</ele><time>2026-05-01T07:52:58.409Z</time></trkpt><trkpt lat="45.1029069" lon="6.9427488"><ele>805.0</ele><time>2026-05-01T07:52:59.411Z</time></trkpt><trkpt lat="45.1028048" lon="6.9425727"><ele>809.6666666666666</ele><time>2026-05-01T07:53:00.409Z</time></trkpt><trkpt lat="45.1027235" lon="6.9423729"><ele>814.3333333333333</ele><time>2026-05-01T07:53:01.411Z</time></trkpt><trkpt lat="45.1026713" lon="6.9421385"><ele>819.0</ele><time>2026-05-01T07:53:02.409Z</time></trkpt><trkpt lat="45.1026468" lon="6.9418718"><ele>823.0</ele><time>2026-05-01T07:53:03.411Z</time></trkpt><trkpt lat="45.1026241" lon="6.941594"><ele>827.0</ele><time>2026-05-01T07:53:04.409Z</time></trkpt><trkpt lat="45.1025872" lon="6.9413176"><ele>831.0</ele><time>2026-05-01T07:53:05.409Z</time></trkpt><trkpt lat="45.1025313" lon="6.9410683"><ele>836.6666666666667</ele><time>2026-05-01T07:53:06.409Z</time></trkpt><trkpt lat="45.1024944" lon="6.940816"><ele>842.3333333333334</ele><time>2026-05-01T07:53:07.41Z</time></trkpt><trkpt lat="45.1024695" lon="6.9405624"><ele>848.0</ele><time>2026-05-01T07:53:08.41Z</time></trkpt><trkpt lat="45.1024293" lon="6.9403126"><ele>844.0</ele><time>2026-05-01T07:53:09.409Z</time></trkpt><trkpt lat="45.1023781" lon="6.9400668"><ele>840.0</ele><time>2026-05-01T07:53:10.41Z</time></trkpt><trkpt lat="45.1023368" lon="6.9398294"><ele>836.0</ele><time>2026-05-01T07:53:11.409Z</time></trkpt><trkpt lat="45.1022996" lon="6.9396002"><ele>836.0</ele><time>2026-05-01T07:53:12.412Z</time></trkpt><trkpt lat="45.1022459" lon="6.9393722"><ele>836.0</ele><time>2026-05-01T07:53:13.41Z</time></trkpt><trkpt lat="45.1021742" lon="6.9391546"><ele>836.0</ele><time>2026-05-01T07:53:14.409Z</time></trkpt><trkpt lat="45.1020888" lon="6.9389598"><ele>839.0</ele><time>2026-05-01T07:53:15.41Z</time></trkpt><trkpt lat="45.1019968" lon="6.9387823"><ele>842.0</ele><time>2026-05-01T07:53:16.411Z</time></trkpt><trkpt lat="45.1019195" lon="6.9386021"><ele>845.0</ele><time>2026-05-01T07:53:17.411Z</time></trkpt><trkpt lat="45.101881" lon="6.9384032"><ele>846.0</ele><time>2026-05-01T07:53:18.41Z</time></trkpt><trkpt lat="45.1018473" lon="6.9382086"><ele>847.0</ele><time>2026-05-01T07:53:19.41Z</time></trkpt><trkpt lat="45.1018652" lon="6.9380022"><ele>848.0</ele><time>2026-05-01T07:53:20.409Z</time></trkpt><trkpt lat="45.1018884" lon="6.9377989"><ele>849.0</ele><time>2026-05-01T07:53:21.41Z</time></trkpt><trkpt lat="45.101911" lon="6.937582"><ele>850.0</ele><time>2026-05-01T07:53:22.41Z</time></trkpt><trkpt lat="45.1019229" lon="6.937349"><ele>851.0</ele><time>2026-05-01T07:53:23.411Z</time></trkpt><trkpt lat="45.1019261" lon="6.9371052"><ele>852.0</ele><time>2026-05-01T07:53:24.409Z</time></trkpt><trkpt lat="45.101917" lon="6.9368626"><ele>853.3333333333333</ele><time>2026-05-01T07:53:25.41Z</time></trkpt><trkpt lat="45.1018966" lon="6.9366264"><ele>854.6666666666666</ele><time>2026-05-01T07:53:26.411Z</time></trkpt><trkpt lat="45.1018638" lon="6.9363854"><ele>856.0</ele><time>2026-05-01T07:53:27.41Z</time></trkpt><trkpt lat="45.1018195" lon="6.936142"><ele>856.0</ele><time>2026-05-01T07:53:28.41Z</time></trkpt><trkpt lat="45.1017577" lon="6.9358991"><ele>856.0</ele><time>2026-05-01T07:53:29.409Z</time></trkpt><trkpt lat="45.101682" lon="6.935664"><ele>856.0</ele><time>2026-05-01T07:53:30.41Z</time></trkpt><trkpt lat="45.101589" lon="6.9354371"><ele>856.6666666666666</ele><time>2026-05-01T07:53:31.409Z</time></trkpt><trkpt lat="45.1014918" lon="6.9352278"><ele>857.3333333333333</ele><time>2026-05-01T07:53:32.409Z</time></trkpt><trkpt lat="45.1013911" lon="6.9350299"><ele>858.0</ele><time>2026-05-01T07:53:33.409Z</time></trkpt><trkpt lat="45.1012867" lon="6.9348402"><ele>860.0</ele><time>2026-05-01T07:53:34.409Z</time></trkpt><trkpt lat="45.1011831" lon="6.9346648"><ele>862.0</ele><time>2026-05-01T07:53:35.41Z</time></trkpt><trkpt lat="45.1010851" lon="6.9344972"><ele>864.0</ele><time>2026-05-01T07:53:36.41Z</time></trkpt><trkpt lat="45.1009898" lon="6.9343229"><ele>864.0</ele><time>2026-05-01T07:53:37.409Z</time></trkpt><trkpt lat="45.1009127" lon="6.9341334"><ele>864.0</ele><time>2026-05-01T07:53:38.409Z</time></trkpt><trkpt lat="45.1008548" lon="6.9339323"><ele>864.0</ele><time>2026-05-01T07:53:39.41Z</time></trkpt><trkpt lat="45.1008123" lon="6.9337192"><ele>864.0</ele><time>2026-05-01T07:53:40.41Z</time></trkpt><trkpt lat="45.1007823" lon="6.9335089"><ele>864.0</ele><time>2026-05-01T07:53:41.409Z</time></trkpt><trkpt lat="45.100752" lon="6.9332998"><ele>864.0</ele><time>2026-05-01T07:53:42.409Z</time></trkpt><trkpt lat="45.1007171" lon="6.9330921"><ele>862.6666666666667</ele><time>2026-05-01T07:53:43.409Z</time></trkpt><trkpt lat="45.1006643" lon="6.9328892"><ele>861.3333333333334</ele><time>2026-05-01T07:53:44.41Z</time></trkpt><trkpt lat="45.1005907" lon="6.9326986"><ele>860.0</ele><time>2026-05-01T07:53:45.409Z</time></trkpt><trkpt lat="45.1004978" lon="6.9325173"><ele>862.6666666666667</ele><time>2026-05-01T07:53:46.409Z</time></trkpt><trkpt lat="45.1003899" lon="6.9323579"><ele>865.3333333333333</ele><time>2026-05-01T07:53:47.409Z</time></trkpt><trkpt lat="45.1002588" lon="6.9322283"><ele>868.0</ele><time>2026-05-01T07:53:48.41Z</time></trkpt><trkpt lat="45.1001217" lon="6.9321114"><ele>868.0</ele><time>2026-05-01T07:53:49.41Z</time></trkpt><trkpt lat="45.0999792" lon="6.9319868"><ele>868.0</ele><time>2026-05-01T07:53:50.41Z</time></trkpt><trkpt lat="45.0998481" lon="6.9318443"><ele>868.0</ele><time>2026-05-01T07:53:51.411Z</time></trkpt><trkpt lat="45.0997233" lon="6.9316935"><ele>867.6666666666666</ele><time>2026-05-01T07:53:52.411Z</time></trkpt><trkpt lat="45.0996055" lon="6.9315453"><ele>867.3333333333333</ele><time>2026-05-01T07:53:53.41Z</time></trkpt><trkpt lat="45.0994912" lon="6.9313941"><ele>867.0</ele><time>2026-05-01T07:53:54.41Z</time></trkpt><trkpt lat="45.099378" lon="6.931237"><ele>867.0</ele><time>2026-05-01T07:53:55.409Z</time></trkpt><trkpt lat="45.099267" lon="6.9310789"><ele>867.0</ele><time>2026-05-01T07:53:56.409Z</time></trkpt><trkpt lat="45.0991587" lon="6.9309152"><ele>867.0</ele><time>2026-05-01T07:53:57.409Z</time></trkpt><trkpt lat="45.0990568" lon="6.9307439"><ele>867.6666666666667</ele><time>2026-05-01T07:53:58.41Z</time></trkpt><trkpt lat="45.0989622" lon="6.9305742"><ele>868.3333333333334</ele><time>2026-05-01T07:53:59.409Z</time></trkpt><trkpt lat="45.0988731" lon="6.9304014"><ele>869.0</ele><time>2026-05-01T07:54:00.41Z</time></trkpt><trkpt lat="45.0987884" lon="6.9302255"><ele>873.0</ele><time>2026-05-01T07:54:01.41Z</time></trkpt><trkpt lat="45.0987072" lon="6.9300361"><ele>877.0</ele><time>2026-05-01T07:54:02.41Z</time></trkpt><trkpt lat="45.0986292" lon="6.9298398"><ele>881.0</ele><time>2026-05-01T07:54:03.409Z</time></trkpt><trkpt lat="45.0985496" lon="6.9296352"><ele>881.0</ele><time>2026-05-01T07:54:04.409Z</time></trkpt><trkpt lat="45.0984727" lon="6.9294283"><ele>881.0</ele><time>2026-05-01T07:54:05.41Z</time></trkpt><trkpt lat="45.0983948" lon="6.9292165"><ele>881.0</ele><time>2026-05-01T07:54:06.41Z</time></trkpt><trkpt lat="45.0983162" lon="6.9290148"><ele>881.0</ele><time>2026-05-01T07:54:07.409Z</time></trkpt><trkpt lat="45.0982378" lon="6.9288084"><ele>881.0</ele><time>2026-05-01T07:54:08.409Z</time></trkpt><trkpt lat="45.0981612" lon="6.9286051"><ele>881.0</ele><time>2026-05-01T07:54:09.411Z</time></trkpt><trkpt lat="45.0980857" lon="6.9284034"><ele>882.0</ele><time>2026-05-01T07:54:10.411Z</time></trkpt><trkpt lat="45.0980116" lon="6.9282049"><ele>883.0</ele><time>2026-05-01T07:54:11.411Z</time></trkpt><trkpt lat="45.0979381" lon="6.9280061"><ele>884.0</ele><time>2026-05-01T07:54:12.409Z</time></trkpt><trkpt lat="45.0978652" lon="6.9278114"><ele>884.0</ele><time>2026-05-01T07:54:13.409Z</time></trkpt><trkpt lat="45.0977924" lon="6.9276191"><ele>884.0</ele><time>2026-05-01T07:54:14.41Z</time></trkpt><trkpt lat="45.0977267" lon="6.9274311"><ele>884.0</ele><time>2026-05-01T07:54:15.41Z</time></trkpt><trkpt lat="45.0976541" lon="6.9272419"><ele>887.3333333333334</ele><time>2026-05-01T07:54:16.411Z</time></trkpt><trkpt lat="45.0975714" lon="6.9270652"><ele>890.6666666666667</ele><time>2026-05-01T07:54:17.409Z</time></trkpt><trkpt lat="45.0974643" lon="6.9269066"><ele>894.0</ele><time>2026-05-01T07:54:18.41Z</time></trkpt><trkpt lat="45.0973342" lon="6.9267802"><ele>894.0</ele><time>2026-05-01T07:54:19.41Z</time></trkpt><trkpt lat="45.0971967" lon="6.9266759"><ele>894.0</ele><time>2026-05-01T07:54:20.409Z</time></trkpt><trkpt lat="45.0970373" lon="6.9266163"><ele>894.0</ele><time>2026-05-01T07:54:21.409Z</time></trkpt><trkpt lat="45.0968476" lon="6.9266133"><ele>894.0</ele><time>2026-05-01T07:54:22.41Z</time></trkpt><trkpt lat="45.0966775" lon="6.9265544"><ele>894.0</ele><time>2026-05-01T07:54:23.409Z</time></trkpt><trkpt lat="45.0965018" lon="6.9264807"><ele>894.0</ele><time>2026-05-01T07:54:24.409Z</time></trkpt><trkpt lat="45.0963201" lon="6.9263838"><ele>888.0</ele><time>2026-05-01T07:54:25.411Z</time></trkpt><trkpt lat="45.0961291" lon="6.9262645"><ele>882.0</ele><time>2026-05-01T07:54:26.41Z</time></trkpt><trkpt lat="45.0959376" lon="6.9261315"><ele>876.0</ele><time>2026-05-01T07:54:27.41Z</time></trkpt><trkpt lat="45.0957468" lon="6.9259862"><ele>877.3333333333333</ele><time>2026-05-01T07:54:28.41Z</time></trkpt><trkpt lat="45.0955605" lon="6.9258186"><ele>878.6666666666666</ele><time>2026-05-01T07:54:29.411Z</time></trkpt><trkpt lat="45.0953745" lon="6.9256509"><ele>880.0</ele><time>2026-05-01T07:54:30.41Z</time></trkpt><trkpt lat="45.0951887" lon="6.9254822"><ele>880.0</ele><time>2026-05-01T07:54:31.412Z</time></trkpt><trkpt lat="45.0950711" lon="6.9252019"><ele>880.0</ele><time>2026-05-01T07:54:32.41Z</time></trkpt><trkpt lat="45.0949096" lon="6.9249818"><ele>875.6666666666666</ele><time>2026-05-01T07:54:33.411Z</time></trkpt><trkpt lat="45.0947719" lon="6.9247452"><ele>871.3333333333333</ele><time>2026-05-01T07:54:34.41Z</time></trkpt><trkpt lat="45.0946331" lon="6.9245108"><ele>867.0</ele><time>2026-05-01T07:54:35.411Z</time></trkpt><trkpt lat="45.0944964" lon="6.9242754"><ele>898.0</ele><time>2026-05-01T07:54:36.41Z</time></trkpt><trkpt lat="45.0942506" lon="6.9237025"><ele>884.5</ele><time>2026-05-01T07:54:38.822Z</time></trkpt><trkpt lat="45.0940816" lon="6.9232897"><ele>871.0</ele><time>2026-05-01T07:54:40.409Z</time></trkpt><trkpt lat="45.0939907" lon="6.9230023"><ele>871.0</ele><time>2026-05-01T07:54:41.409Z</time></trkpt><trkpt lat="45.0939196" lon="6.9226965"><ele>871.0</ele><time>2026-05-01T07:54:42.409Z</time></trkpt><trkpt lat="45.0938742" lon="6.9223745"><ele>880.0</ele><time>2026-05-01T07:54:43.409Z</time></trkpt><trkpt lat="45.0938252" lon="6.9220473"><ele>889.0</ele><time>2026-05-01T07:54:44.41Z</time></trkpt><trkpt lat="45.0937597" lon="6.92171"><ele>894.5</ele><time>2026-05-01T07:54:45.41Z</time></trkpt><trkpt lat="45.0936822" lon="6.9213768"><ele>900.0</ele><time>2026-05-01T07:54:46.409Z</time></trkpt><trkpt lat="45.0935911" lon="6.9210518"><ele>910.5</ele><time>2026-05-01T07:54:47.409Z</time></trkpt><trkpt lat="45.0934894" lon="6.9207356"><ele>921.0</ele><time>2026-05-01T07:54:48.409Z</time></trkpt><trkpt lat="45.0933816" lon="6.9204318"><ele>921.0</ele><time>2026-05-01T07:54:49.409Z</time></trkpt><trkpt lat="45.0932652" lon="6.9201368"><ele>921.0</ele><time>2026-05-01T07:54:50.409Z</time></trkpt><trkpt lat="45.0931392" lon="6.9198502"><ele>909.5</ele><time>2026-05-01T07:54:51.409Z</time></trkpt><trkpt lat="45.0930042" lon="6.9195722"><ele>898.0</ele><time>2026-05-01T07:54:52.409Z</time></trkpt><trkpt lat="45.0928629" lon="6.9193005"><ele>910.0</ele><time>2026-05-01T07:54:53.41Z</time></trkpt><trkpt lat="45.092717" lon="6.9190317"><ele>922.0</ele><time>2026-05-01T07:54:54.409Z</time></trkpt><trkpt lat="45.0925676" lon="6.9187691"><ele>918.5</ele><time>2026-05-01T07:54:55.409Z</time></trkpt><trkpt lat="45.0924156" lon="6.9185098"><ele>915.0</ele><time>2026-05-01T07:54:56.409Z</time></trkpt><trkpt lat="45.0922611" lon="6.9182509"><ele>915.0</ele><time>2026-05-01T07:54:57.409Z</time></trkpt><trkpt lat="45.092107" lon="6.9179897"><ele>915.0</ele><time>2026-05-01T07:54:58.409Z</time></trkpt><trkpt lat="45.0919557" lon="6.917724"><ele>931.0</ele><time>2026-05-01T07:54:59.41Z</time></trkpt><trkpt lat="45.0918083" lon="6.9174491"><ele>947.0</ele><time>2026-05-01T07:55:00.409Z</time></trkpt><trkpt lat="45.0916604" lon="6.9171776"><ele>936.0</ele><time>2026-05-01T07:55:01.409Z</time></trkpt><trkpt lat="45.0915258" lon="6.9169306"><ele>925.0</ele><time>2026-05-01T07:55:02.409Z</time></trkpt><trkpt lat="45.0913735" lon="6.9166753"><ele>925.0</ele><time>2026-05-01T07:55:03.409Z</time></trkpt><trkpt lat="45.0912338" lon="6.9164237"><ele>925.0</ele><time>2026-05-01T07:55:04.41Z</time></trkpt><trkpt lat="45.091085" lon="6.9161792"><ele>925.0</ele><time>2026-05-01T07:55:05.41Z</time></trkpt><trkpt lat="45.0909326" lon="6.9159527"><ele>925.0</ele><time>2026-05-01T07:55:06.409Z</time></trkpt><trkpt lat="45.0907841" lon="6.9157329"><ele>925.0</ele><time>2026-05-01T07:55:07.409Z</time></trkpt><trkpt lat="45.090646" lon="6.9155017"><ele>920.3333333333333</ele><time>2026-05-01T07:55:08.409Z</time></trkpt><trkpt lat="45.0905217" lon="6.9152501"><ele>915.6666666666667</ele><time>2026-05-01T07:55:09.409Z</time></trkpt><trkpt lat="45.0904046" lon="6.9149848"><ele>911.0</ele><time>2026-05-01T07:55:10.409Z</time></trkpt><trkpt lat="45.0902915" lon="6.9147106"><ele>923.3333333333334</ele><time>2026-05-01T07:55:11.409Z</time></trkpt><trkpt lat="45.0901805" lon="6.9144312"><ele>935.6666666666667</ele><time>2026-05-01T07:55:12.409Z</time></trkpt><trkpt lat="45.0900764" lon="6.914162"><ele>948.0</ele><time>2026-05-01T07:55:13.409Z</time></trkpt><trkpt lat="45.0899657" lon="6.9138765"><ele>949.3333333333333</ele><time>2026-05-01T07:55:14.409Z</time></trkpt><trkpt lat="45.0898559" lon="6.9135967"><ele>950.6666666666666</ele><time>2026-05-01T07:55:15.409Z</time></trkpt><trkpt lat="45.0897583" lon="6.9133241"><ele>952.0</ele><time>2026-05-01T07:55:16.41Z</time></trkpt><trkpt lat="45.0896809" lon="6.9130626"><ele>952.0</ele><time>2026-05-01T07:55:17.41Z</time></trkpt><trkpt lat="45.0896095" lon="6.9128095"><ele>952.0</ele><time>2026-05-01T07:55:18.411Z</time></trkpt><trkpt lat="45.0895416" lon="6.9125608"><ele>952.0</ele><time>2026-05-01T07:55:19.409Z</time></trkpt><trkpt lat="45.0894554" lon="6.9123251"><ele>957.6666666666666</ele><time>2026-05-01T07:55:20.41Z</time></trkpt><trkpt lat="45.0893443" lon="6.9121084"><ele>963.3333333333333</ele><time>2026-05-01T07:55:21.41Z</time></trkpt><trkpt lat="45.0892229" lon="6.9119147"><ele>969.0</ele><time>2026-05-01T07:55:22.41Z</time></trkpt><trkpt lat="45.0890973" lon="6.9117523"><ele>966.25</ele><time>2026-05-01T07:55:23.411Z</time></trkpt><trkpt lat="45.0889794" lon="6.9116029"><ele>963.5</ele><time>2026-05-01T07:55:24.41Z</time></trkpt><trkpt lat="45.0888703" lon="6.9114606"><ele>960.75</ele><time>2026-05-01T07:55:25.409Z</time></trkpt><trkpt lat="45.0887734" lon="6.9113251"><ele>958.0</ele><time>2026-05-01T07:55:26.411Z</time></trkpt><trkpt lat="45.0886879" lon="6.911178"><ele>958.0</ele><time>2026-05-01T07:55:27.41Z</time></trkpt><trkpt lat="45.088625" lon="6.9110139"><ele>958.0</ele><time>2026-05-01T07:55:28.411Z</time></trkpt><trkpt lat="45.0885779" lon="6.9108366"><ele>958.0</ele><time>2026-05-01T07:55:29.41Z</time></trkpt><trkpt lat="45.0885583" lon="6.9106589"><ele>958.0</ele><time>2026-05-01T07:55:30.41Z</time></trkpt><trkpt lat="45.088556" lon="6.9104777"><ele>966.3333333333333</ele><time>2026-05-01T07:55:31.411Z</time></trkpt><trkpt lat="45.0885664" lon="6.9102823"><ele>974.6666666666667</ele><time>2026-05-01T07:55:32.41Z</time></trkpt><trkpt lat="45.0885784" lon="6.910071"><ele>983.0</ele><time>2026-05-01T07:55:33.41Z</time></trkpt><trkpt lat="45.0885802" lon="6.9098402"><ele>985.3333333333334</ele><time>2026-05-01T07:55:34.41Z</time></trkpt><trkpt lat="45.088566" lon="6.9095956"><ele>987.6666666666667</ele><time>2026-05-01T07:55:35.41Z</time></trkpt><trkpt lat="45.088538" lon="6.909354"><ele>990.0</ele><time>2026-05-01T07:55:36.41Z</time></trkpt><trkpt lat="45.0885055" lon="6.9091203"><ele>992.3333333333333</ele><time>2026-05-01T07:55:37.411Z</time></trkpt><trkpt lat="45.0884732" lon="6.9088977"><ele>994.6666666666666</ele><time>2026-05-01T07:55:38.41Z</time></trkpt><trkpt lat="45.0884464" lon="6.9086886"><ele>997.0</ele><time>2026-05-01T07:55:39.41Z</time></trkpt><trkpt lat="45.0884211" lon="6.9084949"><ele>997.5</ele><time>2026-05-01T07:55:40.409Z</time></trkpt><trkpt lat="45.0883928" lon="6.9083186"><ele>998.0</ele><time>2026-05-01T07:55:41.41Z</time></trkpt><trkpt lat="45.088348" lon="6.9081553"><ele>998.5</ele><time>2026-05-01T07:55:42.409Z</time></trkpt><trkpt lat="45.0882814" lon="6.9080044"><ele>999.0</ele><time>2026-05-01T07:55:43.41Z</time></trkpt><trkpt lat="45.0881886" lon="6.9078764"><ele>999.0</ele><time>2026-05-01T07:55:44.41Z</time></trkpt><trkpt lat="45.0880718" lon="6.9077742"><ele>999.0</ele><time>2026-05-01T07:55:45.411Z</time></trkpt><trkpt lat="45.0879437" lon="6.9077195"><ele>999.0</ele><time>2026-05-01T07:55:46.41Z</time></trkpt><trkpt lat="45.0878209" lon="6.9077158"><ele>999.0</ele><time>2026-05-01T07:55:47.409Z</time></trkpt><trkpt lat="45.0877028" lon="6.9077541"><ele>999.0</ele><time>2026-05-01T07:55:48.41Z</time></trkpt><trkpt lat="45.0875835" lon="6.907827"><ele>999.0</ele><time>2026-05-01T07:55:49.41Z</time></trkpt><trkpt lat="45.087454" lon="6.9078776"><ele>999.0</ele><time>2026-05-01T07:55:50.41Z</time></trkpt><trkpt lat="45.0873217" lon="6.9079073"><ele>999.0</ele><time>2026-05-01T07:55:51.41Z</time></trkpt><trkpt lat="45.0871852" lon="6.907924"><ele>1001.5</ele><time>2026-05-01T07:55:52.41Z</time></trkpt><trkpt lat="45.0870469" lon="6.9079383"><ele>1004.0</ele><time>2026-05-01T07:55:53.409Z</time></trkpt><trkpt lat="45.0869016" lon="6.9079414"><ele>1006.5</ele><time>2026-05-01T07:55:54.409Z</time></trkpt><trkpt lat="45.0867583" lon="6.9079489"><ele>1009.0</ele><time>2026-05-01T07:55:55.411Z</time></trkpt><trkpt lat="45.0866151" lon="6.9079524"><ele>1013.0</ele><time>2026-05-01T07:55:56.411Z</time></trkpt><trkpt lat="45.0864731" lon="6.9079648"><ele>1017.0</ele><time>2026-05-01T07:55:57.41Z</time></trkpt><trkpt lat="45.086335" lon="6.9079898"><ele>1021.0</ele><time>2026-05-01T07:55:58.411Z</time></trkpt><trkpt lat="45.0862024" lon="6.9080367"><ele>1025.0</ele><time>2026-05-01T07:55:59.411Z</time></trkpt><trkpt lat="45.0860742" lon="6.9081128"><ele>1025.0</ele><time>2026-05-01T07:56:00.41Z</time></trkpt><trkpt lat="45.085953" lon="6.9081969"><ele>1025.0</ele><time>2026-05-01T07:56:01.411Z</time></trkpt><trkpt lat="45.0858305" lon="6.9082801"><ele>1025.0</ele><time>2026-05-01T07:56:02.411Z</time></trkpt><trkpt lat="45.0857067" lon="6.9083422"><ele>1025.0</ele><time>2026-05-01T07:56:03.41Z</time></trkpt><trkpt lat="45.0855743" lon="6.9083694"><ele>1025.5</ele><time>2026-05-01T07:56:04.41Z</time></trkpt><trkpt lat="45.0854294" lon="6.9083704"><ele>1026.0</ele><time>2026-05-01T07:56:05.411Z</time></trkpt><trkpt lat="45.0852882" lon="6.9083511"><ele>1026.5</ele><time>2026-05-01T07:56:06.41Z</time></trkpt><trkpt lat="45.0851404" lon="6.9083339"><ele>1027.0</ele><time>2026-05-01T07:56:07.41Z</time></trkpt><trkpt lat="45.0849957" lon="6.9083078"><ele>1024.5</ele><time>2026-05-01T07:56:08.411Z</time></trkpt><trkpt lat="45.0848474" lon="6.9082899"><ele>1022.0</ele><time>2026-05-01T07:56:09.41Z</time></trkpt><trkpt lat="45.0847098" lon="6.9082697"><ele>1019.5</ele><time>2026-05-01T07:56:10.41Z</time></trkpt><trkpt lat="45.0845822" lon="6.908252"><ele>1017.0</ele><time>2026-05-01T07:56:11.41Z</time></trkpt><trkpt lat="45.0844683" lon="6.9082297"><ele>1017.0</ele><time>2026-05-01T07:56:12.41Z</time></trkpt><trkpt lat="45.0843665" lon="6.9081954"><ele>1017.0</ele><time>2026-05-01T07:56:13.41Z</time></trkpt><trkpt lat="45.0842786" lon="6.9081367"><ele>1017.0</ele><time>2026-05-01T07:56:14.409Z</time></trkpt><trkpt lat="45.0842066" lon="6.9080461"><ele>1017.0</ele><time>2026-05-01T07:56:15.411Z</time></trkpt><trkpt lat="45.0841583" lon="6.9079367"><ele>1017.0</ele><time>2026-05-01T07:56:16.41Z</time></trkpt><trkpt lat="45.0841493" lon="6.9078274"><ele>1017.0</ele><time>2026-05-01T07:56:17.409Z</time></trkpt><trkpt lat="45.084173" lon="6.9077257"><ele>1017.0</ele><time>2026-05-01T07:56:18.411Z</time></trkpt><trkpt lat="45.0842356" lon="6.9076597"><ele>1017.0</ele><time>2026-05-01T07:56:19.409Z</time></trkpt><trkpt lat="45.0843219" lon="6.9076407"><ele>1017.0</ele><time>2026-05-01T07:56:20.412Z</time></trkpt><trkpt lat="45.0844286" lon="6.9076728"><ele>1017.0</ele><time>2026-05-01T07:56:21.409Z</time></trkpt><trkpt lat="45.0845504" lon="6.9077434"><ele>1017.0</ele><time>2026-05-01T07:56:22.41Z</time></trkpt><trkpt lat="45.0846992" lon="6.9078204"><ele>1017.0</ele><time>2026-05-01T07:56:23.412Z</time></trkpt><trkpt lat="45.0848574" lon="6.9078747"><ele>1017.0</ele><time>2026-05-01T07:56:24.41Z</time></trkpt><trkpt lat="45.0850117" lon="6.9079206"><ele>1019.5</ele><time>2026-05-01T07:56:25.41Z</time></trkpt><trkpt lat="45.0851547" lon="6.9079571"><ele>1022.0</ele><time>2026-05-01T07:56:26.41Z</time></trkpt><trkpt lat="45.0852892" lon="6.9079904"><ele>1024.5</ele><time>2026-05-01T07:56:27.41Z</time></trkpt><trkpt lat="45.0853841" lon="6.9080417"><ele>1027.0</ele><time>2026-05-01T07:56:28.409Z</time></trkpt><trkpt lat="45.0854805" lon="6.9080617"><ele>1027.0</ele><time>2026-05-01T07:56:29.41Z</time></trkpt><trkpt lat="45.0855641" lon="6.9080427"><ele>1027.0</ele><time>2026-05-01T07:56:30.41Z</time></trkpt><trkpt lat="45.0856269" lon="6.9079826"><ele>1027.0</ele><time>2026-05-01T07:56:31.41Z</time></trkpt><trkpt lat="45.0856504" lon="6.9078811"><ele>1027.0</ele><time>2026-05-01T07:56:32.41Z</time></trkpt><trkpt lat="45.0856315" lon="6.9077778"><ele>1027.0</ele><time>2026-05-01T07:56:33.41Z</time></trkpt><trkpt lat="45.0855771" lon="6.9076925"><ele>1027.0</ele><time>2026-05-01T07:56:34.41Z</time></trkpt><trkpt lat="45.0854992" lon="6.9076522"><ele>1027.0</ele><time>2026-05-01T07:56:35.41Z</time></trkpt><trkpt lat="45.0854017" lon="6.9076568"><ele>1027.0</ele><time>2026-05-01T07:56:36.411Z</time></trkpt><trkpt lat="45.0852815" lon="6.9076581"><ele>1027.0</ele><time>2026-05-01T07:56:37.41Z</time></trkpt><trkpt lat="45.0851519" lon="6.9076204"><ele>1027.0</ele><time>2026-05-01T07:56:38.409Z</time></trkpt><trkpt lat="45.085015" lon="6.9075265"><ele>1032.6666666666665</ele><time>2026-05-01T07:56:39.41Z</time></trkpt><trkpt lat="45.0848673" lon="6.9073923"><ele>1038.3333333333333</ele><time>2026-05-01T07:56:40.411Z</time></trkpt><trkpt lat="45.084706" lon="6.907276"><ele>1044.0</ele><time>2026-05-01T07:56:41.411Z</time></trkpt><trkpt lat="45.0845535" lon="6.9071656"><ele>1044.0</ele><time>2026-05-01T07:56:42.41Z</time></trkpt><trkpt lat="45.0844146" lon="6.9070355"><ele>1044.0</ele><time>2026-05-01T07:56:43.41Z</time></trkpt><trkpt lat="45.0842889" lon="6.906902"><ele>1044.0</ele><time>2026-05-01T07:56:44.41Z</time></trkpt><trkpt lat="45.0841698" lon="6.9067691"><ele>1041.3333333333333</ele><time>2026-05-01T07:56:45.41Z</time></trkpt><trkpt lat="45.0840526" lon="6.906637"><ele>1038.6666666666665</ele><time>2026-05-01T07:56:46.41Z</time></trkpt><trkpt lat="45.0839361" lon="6.906502"><ele>1036.0</ele><time>2026-05-01T07:56:47.409Z</time></trkpt><trkpt lat="45.0838262" lon="6.9063484"><ele>1036.0</ele><time>2026-05-01T07:56:48.409Z</time></trkpt><trkpt lat="45.0837243" lon="6.9061728"><ele>1036.0</ele><time>2026-05-01T07:56:49.41Z</time></trkpt><trkpt lat="45.0836327" lon="6.9059598"><ele>1036.0</ele><time>2026-05-01T07:56:50.411Z</time></trkpt><trkpt lat="45.0835496" lon="6.9057258"><ele>1043.3333333333333</ele><time>2026-05-01T07:56:51.41Z</time></trkpt><trkpt lat="45.0834676" lon="6.9054765"><ele>1050.6666666666667</ele><time>2026-05-01T07:56:52.409Z</time></trkpt><trkpt lat="45.0833825" lon="6.9052318"><ele>1058.0</ele><time>2026-05-01T07:56:53.409Z</time></trkpt><trkpt lat="45.0832996" lon="6.9050013"><ele>1056.3333333333335</ele><time>2026-05-01T07:56:54.41Z</time></trkpt><trkpt lat="45.0832181" lon="6.9047929"><ele>1054.6666666666667</ele><time>2026-05-01T07:56:55.409Z</time></trkpt><trkpt lat="45.0831353" lon="6.9046014"><ele>1053.0</ele><time>2026-05-01T07:56:56.41Z</time></trkpt><trkpt lat="45.0830483" lon="6.9044277"><ele>1053.0</ele><time>2026-05-01T07:56:57.411Z</time></trkpt><trkpt lat="45.0829542" lon="6.9042837"><ele>1053.0</ele><time>2026-05-01T07:56:58.409Z</time></trkpt><trkpt lat="45.0828582" lon="6.9041612"><ele>1053.0</ele><time>2026-05-01T07:56:59.41Z</time></trkpt><trkpt lat="45.082762" lon="6.9040627"><ele>1053.0</ele><time>2026-05-01T07:57:00.41Z</time></trkpt><trkpt lat="45.0826697" lon="6.903976"><ele>1056.5</ele><time>2026-05-01T07:57:01.41Z</time></trkpt><trkpt lat="45.0825782" lon="6.9038917"><ele>1060.0</ele><time>2026-05-01T07:57:02.41Z</time></trkpt><trkpt lat="45.0824794" lon="6.9038138"><ele>1063.5</ele><time>2026-05-01T07:57:03.41Z</time></trkpt><trkpt lat="45.0823678" lon="6.9037687"><ele>1067.0</ele><time>2026-05-01T07:57:04.411Z</time></trkpt><trkpt lat="45.082241" lon="6.9037548"><ele>1067.0</ele><time>2026-05-01T07:57:05.411Z</time></trkpt><trkpt lat="45.0821113" lon="6.9037684"><ele>1067.0</ele><time>2026-05-01T07:57:06.41Z</time></trkpt><trkpt lat="45.0819886" lon="6.9037922"><ele>1067.0</ele><time>2026-05-01T07:57:07.41Z</time></trkpt><trkpt lat="45.0818718" lon="6.9038209"><ele>1067.0</ele><time>2026-05-01T07:57:08.409Z</time></trkpt><trkpt lat="45.0817563" lon="6.903849"><ele>1067.0</ele><time>2026-05-01T07:57:09.411Z</time></trkpt><trkpt lat="45.0816371" lon="6.903867"><ele>1067.0</ele><time>2026-05-01T07:57:10.41Z</time></trkpt><trkpt lat="45.081516" lon="6.9038289"><ele>1067.0</ele><time>2026-05-01T07:57:11.41Z</time></trkpt><trkpt lat="45.0814036" lon="6.903755"><ele>1067.0</ele><time>2026-05-01T07:57:12.411Z</time></trkpt><trkpt lat="45.0813058" lon="6.9036457"><ele>1067.0</ele><time>2026-05-01T07:57:13.411Z</time></trkpt><trkpt lat="45.0812177" lon="6.9035097"><ele>1067.0</ele><time>2026-05-01T07:57:14.41Z</time></trkpt><trkpt lat="45.0811365" lon="6.9033717"><ele>1067.0</ele><time>2026-05-01T07:57:15.41Z</time></trkpt><trkpt lat="45.0810459" lon="6.9032228"><ele>1067.0</ele><time>2026-05-01T07:57:16.41Z</time></trkpt><trkpt lat="45.080938" lon="6.9030814"><ele>1067.0</ele><time>2026-05-01T07:57:17.41Z</time></trkpt><trkpt lat="45.0808171" lon="6.902957"><ele>1067.0</ele><time>2026-05-01T07:57:18.41Z</time></trkpt><trkpt lat="45.0806895" lon="6.9028454"><ele>1067.0</ele><time>2026-05-01T07:57:19.41Z</time></trkpt><trkpt lat="45.0805614" lon="6.9027435"><ele>1067.0</ele><time>2026-05-01T07:57:20.41Z</time></trkpt><trkpt lat="45.0804409" lon="6.9026427"><ele>1064.25</ele><time>2026-05-01T07:57:21.41Z</time></trkpt><trkpt lat="45.0803318" lon="6.9025468"><ele>1061.5</ele><time>2026-05-01T07:57:22.41Z</time></trkpt><trkpt lat="45.0802292" lon="6.9024595"><ele>1058.75</ele><time>2026-05-01T07:57:23.41Z</time></trkpt><trkpt lat="45.0801352" lon="6.9023786"><ele>1056.0</ele><time>2026-05-01T07:57:24.409Z</time></trkpt><trkpt lat="45.0800503" lon="6.9023033"><ele>1056.0</ele><time>2026-05-01T07:57:25.41Z</time></trkpt><trkpt lat="45.0799667" lon="6.9022284"><ele>1056.0</ele><time>2026-05-01T07:57:26.41Z</time></trkpt><trkpt lat="45.079887" lon="6.9021421"><ele>1056.0</ele><time>2026-05-01T07:57:27.409Z</time></trkpt><trkpt lat="45.0798164" lon="6.9020456"><ele>1056.0</ele><time>2026-05-01T07:57:28.41Z</time></trkpt><trkpt lat="45.0797558" lon="6.9019469"><ele>1056.0</ele><time>2026-05-01T07:57:29.411Z</time></trkpt><trkpt lat="45.079698" lon="6.9018359"><ele>1054.1666666666667</ele><time>2026-05-01T07:57:30.411Z</time></trkpt><trkpt lat="45.079655" lon="6.9017202"><ele>1052.3333333333333</ele><time>2026-05-01T07:57:31.411Z</time></trkpt><trkpt lat="45.0796201" lon="6.9016034"><ele>1050.5</ele><time>2026-05-01T07:57:32.409Z</time></trkpt><trkpt lat="45.0795993" lon="6.901485"><ele>1048.6666666666665</ele><time>2026-05-01T07:57:33.41Z</time></trkpt><trkpt lat="45.0795822" lon="6.9013694"><ele>1046.8333333333333</ele><time>2026-05-01T07:57:34.41Z</time></trkpt><trkpt lat="45.0795616" lon="6.901258"><ele>1045.0</ele><time>2026-05-01T07:57:35.411Z</time></trkpt><trkpt lat="45.0795294" lon="6.9011647"><ele>1045.0</ele><time>2026-05-01T07:57:36.41Z</time></trkpt><trkpt lat="45.0794843" lon="6.901097"><ele>1045.0</ele><time>2026-05-01T07:57:37.41Z</time></trkpt><trkpt lat="45.0794215" lon="6.9010565"><ele>1045.0</ele><time>2026-05-01T07:57:38.41Z</time></trkpt><trkpt lat="45.079356" lon="6.9010526"><ele>1045.0</ele><time>2026-05-01T07:57:39.411Z</time></trkpt><trkpt lat="45.0792859" lon="6.9010842"><ele>1045.0</ele><time>2026-05-01T07:57:40.409Z</time></trkpt><trkpt lat="45.0792262" lon="6.9011548"><ele>1045.0</ele><time>2026-05-01T07:57:41.41Z</time></trkpt><trkpt lat="45.0791883" lon="6.9012615"><ele>1045.0</ele><time>2026-05-01T07:57:42.41Z</time></trkpt><trkpt lat="45.0791769" lon="6.9013969"><ele>1045.0</ele><time>2026-05-01T07:57:43.41Z</time></trkpt><trkpt lat="45.0791971" lon="6.9015488"><ele>1045.0</ele><time>2026-05-01T07:57:44.411Z</time></trkpt><trkpt lat="45.0792507" lon="6.9017186"><ele>1045.0</ele><time>2026-05-01T07:57:45.411Z</time></trkpt><trkpt lat="45.0793347" lon="6.9019076"><ele>1045.0</ele><time>2026-05-01T07:57:46.411Z</time></trkpt><trkpt lat="45.0794305" lon="6.9020859"><ele>1041.3333333333333</ele><time>2026-05-01T07:57:47.41Z</time></trkpt><trkpt lat="45.0795367" lon="6.9022711"><ele>1037.6666666666667</ele><time>2026-05-01T07:57:48.41Z</time></trkpt><trkpt lat="45.0796549" lon="6.902469"><ele>1034.0</ele><time>2026-05-01T07:57:49.41Z</time></trkpt><trkpt lat="45.0797702" lon="6.902664"><ele>1031.6666666666667</ele><time>2026-05-01T07:57:50.409Z</time></trkpt><trkpt lat="45.0798796" lon="6.9028521"><ele>1029.3333333333333</ele><time>2026-05-01T07:57:51.409Z</time></trkpt><trkpt lat="45.0799749" lon="6.9030195"><ele>1027.0</ele><time>2026-05-01T07:57:52.409Z</time></trkpt><trkpt lat="45.0800588" lon="6.9031723"><ele>1028.0</ele><time>2026-05-01T07:57:53.411Z</time></trkpt><trkpt lat="45.0801183" lon="6.9032897"><ele>1029.0</ele><time>2026-05-01T07:57:54.411Z</time></trkpt><trkpt lat="45.0801635" lon="6.9033992"><ele>1030.0</ele><time>2026-05-01T07:57:55.41Z</time></trkpt><trkpt lat="45.080191" lon="6.9034977"><ele>1031.0</ele><time>2026-05-01T07:57:56.409Z</time></trkpt><trkpt lat="45.0801955" lon="6.9036517"><ele>1032.0</ele><time>2026-05-01T07:57:58.41Z</time></trkpt><trkpt lat="45.0801226" lon="6.9037597"><ele>1032.0</ele><time>2026-05-01T07:58:00.41Z</time></trkpt><trkpt lat="45.0800068" lon="6.903713"><ele>1032.0</ele><time>2026-05-01T07:58:02.41Z</time></trkpt><trkpt lat="45.0799479" lon="6.9036525"><ele>1032.0</ele><time>2026-05-01T07:58:03.409Z</time></trkpt><trkpt lat="45.0798831" lon="6.9035771"><ele>1032.0</ele><time>2026-05-01T07:58:04.41Z</time></trkpt><trkpt lat="45.07981" lon="6.9034921"><ele>1032.0</ele><time>2026-05-01T07:58:05.411Z</time></trkpt><trkpt lat="45.0797289" lon="6.9033826"><ele>1030.3333333333333</ele><time>2026-05-01T07:58:06.41Z</time></trkpt><trkpt lat="45.0796339" lon="6.9032357"><ele>1028.6666666666665</ele><time>2026-05-01T07:58:07.411Z</time></trkpt><trkpt lat="45.0795352" lon="6.9030622"><ele>1027.0</ele><time>2026-05-01T07:58:08.41Z</time></trkpt><trkpt lat="45.0794275" lon="6.9028875"><ele>1027.0</ele><time>2026-05-01T07:58:09.41Z</time></trkpt><trkpt lat="45.0793005" lon="6.9027319"><ele>1027.0</ele><time>2026-05-01T07:58:10.41Z</time></trkpt><trkpt lat="45.0791554" lon="6.902585"><ele>1027.0</ele><time>2026-05-01T07:58:11.41Z</time></trkpt><trkpt lat="45.079014" lon="6.9024302"><ele>1021.3333333333333</ele><time>2026-05-01T07:58:12.411Z</time></trkpt><trkpt lat="45.0788931" lon="6.9022572"><ele>1015.6666666666667</ele><time>2026-05-01T07:58:13.409Z</time></trkpt><trkpt lat="45.0788052" lon="6.9020565"><ele>1010.0</ele><time>2026-05-01T07:58:14.41Z</time></trkpt><trkpt lat="45.0787549" lon="6.9018257"><ele>1010.6666666666667</ele><time>2026-05-01T07:58:15.411Z</time></trkpt><trkpt lat="45.0787262" lon="6.9015708"><ele>1011.3333333333333</ele><time>2026-05-01T07:58:16.41Z</time></trkpt><trkpt lat="45.0786966" lon="6.9012946"><ele>1012.0</ele><time>2026-05-01T07:58:17.411Z</time></trkpt><trkpt lat="45.0786751" lon="6.9010118"><ele>1013.0</ele><time>2026-05-01T07:58:18.411Z</time></trkpt><trkpt lat="45.0786769" lon="6.9007292"><ele>1014.0</ele><time>2026-05-01T07:58:19.41Z</time></trkpt><trkpt lat="45.0787067" lon="6.9004638"><ele>1015.0</ele><time>2026-05-01T07:58:20.41Z</time></trkpt><trkpt lat="45.0787585" lon="6.9001972"><ele>1013.6666666666666</ele><time>2026-05-01T07:58:21.41Z</time></trkpt><trkpt lat="45.078873" lon="6.8999674"><ele>1012.3333333333333</ele><time>2026-05-01T07:58:22.41Z</time></trkpt><trkpt lat="45.0789819" lon="6.8997286"><ele>1011.0</ele><time>2026-05-01T07:58:23.41Z</time></trkpt><trkpt lat="45.0791056" lon="6.8994851"><ele>1016.6666666666667</ele><time>2026-05-01T07:58:24.409Z</time></trkpt><trkpt lat="45.0792168" lon="6.8992386"><ele>1022.3333333333334</ele><time>2026-05-01T07:58:25.411Z</time></trkpt><trkpt lat="45.0793217" lon="6.8990011"><ele>1028.0</ele><time>2026-05-01T07:58:26.41Z</time></trkpt><trkpt lat="45.079412" lon="6.8987734"><ele>1028.0</ele><time>2026-05-01T07:58:27.41Z</time></trkpt><trkpt lat="45.0794877" lon="6.8985519"><ele>1028.0</ele><time>2026-05-01T07:58:28.41Z</time></trkpt><trkpt lat="45.0794971" lon="6.898334"><ele>1028.0</ele><time>2026-05-01T07:58:29.41Z</time></trkpt><trkpt lat="45.0794861" lon="6.8981214"><ele>1027.0</ele><time>2026-05-01T07:58:30.41Z</time></trkpt><trkpt lat="45.0794408" lon="6.8979168"><ele>1026.0</ele><time>2026-05-01T07:58:31.41Z</time></trkpt><trkpt lat="45.0793693" lon="6.897717"><ele>1025.0</ele><time>2026-05-01T07:58:32.41Z</time></trkpt><trkpt lat="45.0793045" lon="6.8974975"><ele>1025.0</ele><time>2026-05-01T07:58:33.411Z</time></trkpt><trkpt lat="45.079269" lon="6.8972356"><ele>1025.0</ele><time>2026-05-01T07:58:34.409Z</time></trkpt><trkpt lat="45.0792429" lon="6.896956"><ele>1025.0</ele><time>2026-05-01T07:58:35.411Z</time></trkpt><trkpt lat="45.0792306" lon="6.8966641"><ele>1024.6666666666667</ele><time>2026-05-01T07:58:36.411Z</time></trkpt><trkpt lat="45.079241" lon="6.8963724"><ele>1024.3333333333333</ele><time>2026-05-01T07:58:37.41Z</time></trkpt><trkpt lat="45.0792816" lon="6.8960878"><ele>1024.0</ele><time>2026-05-01T07:58:38.409Z</time></trkpt><trkpt lat="45.0793269" lon="6.8958204"><ele>1026.3333333333333</ele><time>2026-05-01T07:58:39.411Z</time></trkpt><trkpt lat="45.0793476" lon="6.8955579"><ele>1028.6666666666667</ele><time>2026-05-01T07:58:40.41Z</time></trkpt><trkpt lat="45.0793413" lon="6.895291"><ele>1031.0</ele><time>2026-05-01T07:58:41.409Z</time></trkpt><trkpt lat="45.0792934" lon="6.8950287"><ele>1031.3333333333335</ele><time>2026-05-01T07:58:42.412Z</time></trkpt><trkpt lat="45.0792084" lon="6.8947728"><ele>1031.6666666666667</ele><time>2026-05-01T07:58:43.411Z</time></trkpt><trkpt lat="45.079089" lon="6.8945104"><ele>1032.0</ele><time>2026-05-01T07:58:44.41Z</time></trkpt><trkpt lat="45.0789657" lon="6.8942436"><ele>1026.0</ele><time>2026-05-01T07:58:45.41Z</time></trkpt><trkpt lat="45.0788464" lon="6.8939856"><ele>1020.0</ele><time>2026-05-01T07:58:46.411Z</time></trkpt><trkpt lat="45.078732" lon="6.8937323"><ele>1014.0</ele><time>2026-05-01T07:58:47.411Z</time></trkpt><trkpt lat="45.0786242" lon="6.8934897"><ele>1018.6666666666667</ele><time>2026-05-01T07:58:48.41Z</time></trkpt><trkpt lat="45.0785207" lon="6.8932685"><ele>1023.3333333333334</ele><time>2026-05-01T07:58:49.409Z</time></trkpt><trkpt lat="45.0784205" lon="6.8930626"><ele>1028.0</ele><time>2026-05-01T07:58:50.41Z</time></trkpt><trkpt lat="45.0783206" lon="6.8928881"><ele>1023.0</ele><time>2026-05-01T07:58:51.411Z</time></trkpt><trkpt lat="45.0782279" lon="6.8927201"><ele>1018.0</ele><time>2026-05-01T07:58:52.41Z</time></trkpt><trkpt lat="45.078139" lon="6.8925575"><ele>1013.0</ele><time>2026-05-01T07:58:53.409Z</time></trkpt><trkpt lat="45.0780565" lon="6.8923929"><ele>1008.0</ele><time>2026-05-01T07:58:54.41Z</time></trkpt><trkpt lat="45.0779918" lon="6.8922348"><ele>1008.0</ele><time>2026-05-01T07:58:55.41Z</time></trkpt><trkpt lat="45.0779492" lon="6.8921151"><ele>1008.0</ele><time>2026-05-01T07:58:56.41Z</time></trkpt><trkpt lat="45.0779168" lon="6.8920362"><ele>1008.0</ele><time>2026-05-01T07:58:57.41Z</time></trkpt><trkpt lat="45.077867" lon="6.891933"><ele>1008.0</ele><time>2026-05-01T07:58:59.41Z</time></trkpt><trkpt lat="45.0778162" lon="6.8918277"><ele>1008.0</ele><time>2026-05-01T07:59:01.41Z</time></trkpt><trkpt lat="45.0777364" lon="6.8916777"><ele>1006.5999999999999</ele><time>2026-05-01T07:59:03.411Z</time></trkpt><trkpt lat="45.0776811" lon="6.8915874"><ele>1005.1999999999999</ele><time>2026-05-01T07:59:04.41Z</time></trkpt><trkpt lat="45.0776185" lon="6.8914873"><ele>1003.8</ele><time>2026-05-01T07:59:05.41Z</time></trkpt><trkpt lat="45.0775486" lon="6.8913777"><ele>1002.4</ele><time>2026-05-01T07:59:06.41Z</time></trkpt><trkpt lat="45.0774714" lon="6.8912537"><ele>1001.0</ele><time>2026-05-01T07:59:07.41Z</time></trkpt><trkpt lat="45.0773871" lon="6.8911215"><ele>1001.0</ele><time>2026-05-01T07:59:08.41Z</time></trkpt><trkpt lat="45.0772959" lon="6.8909792"><ele>1001.0</ele><time>2026-05-01T07:59:09.41Z</time></trkpt><trkpt lat="45.0772081" lon="6.89083"><ele>1001.0</ele><time>2026-05-01T07:59:10.41Z</time></trkpt><trkpt lat="45.0771316" lon="6.8906593"><ele>1001.0</ele><time>2026-05-01T07:59:11.41Z</time></trkpt><trkpt lat="45.0770635" lon="6.8904708"><ele>1002.0</ele><time>2026-05-01T07:59:12.409Z</time></trkpt><trkpt lat="45.077004" lon="6.8902824"><ele>1003.0</ele><time>2026-05-01T07:59:13.409Z</time></trkpt><trkpt lat="45.0769309" lon="6.8901024"><ele>1004.0</ele><time>2026-05-01T07:59:14.41Z</time></trkpt><trkpt lat="45.076844" lon="6.8899294"><ele>1005.0</ele><time>2026-05-01T07:59:15.41Z</time></trkpt><trkpt lat="45.076746" lon="6.8897668"><ele>1005.6666666666667</ele><time>2026-05-01T07:59:16.41Z</time></trkpt><trkpt lat="45.0766463" lon="6.8896061"><ele>1006.3333333333334</ele><time>2026-05-01T07:59:17.411Z</time></trkpt><trkpt lat="45.0765489" lon="6.8894434"><ele>1007.0</ele><time>2026-05-01T07:59:18.41Z</time></trkpt><trkpt lat="45.0764522" lon="6.8892848"><ele>1008.0</ele><time>2026-05-01T07:59:19.409Z</time></trkpt><trkpt lat="45.0763523" lon="6.8891216"><ele>1009.0</ele><time>2026-05-01T07:59:20.411Z</time></trkpt><trkpt lat="45.0762501" lon="6.8889634"><ele>1010.0</ele><time>2026-05-01T07:59:21.41Z</time></trkpt><trkpt lat="45.0761421" lon="6.8888138"><ele>1010.0</ele><time>2026-05-01T07:59:22.41Z</time></trkpt><trkpt lat="45.0760333" lon="6.8886561"><ele>1010.0</ele><time>2026-05-01T07:59:23.41Z</time></trkpt><trkpt lat="45.0759404" lon="6.8884782"><ele>1010.0</ele><time>2026-05-01T07:59:24.411Z</time></trkpt><trkpt lat="45.0758551" lon="6.8882844"><ele>1008.0</ele><time>2026-05-01T07:59:25.411Z</time></trkpt><trkpt lat="45.0757675" lon="6.888088"><ele>1006.0</ele><time>2026-05-01T07:59:26.41Z</time></trkpt><trkpt lat="45.075676" lon="6.8878999"><ele>1004.0</ele><time>2026-05-01T07:59:27.41Z</time></trkpt><trkpt lat="45.0755791" lon="6.8877201"><ele>1007.3333333333334</ele><time>2026-05-01T07:59:28.41Z</time></trkpt><trkpt lat="45.0754749" lon="6.8875581"><ele>1010.6666666666667</ele><time>2026-05-01T07:59:29.41Z</time></trkpt><trkpt lat="45.0753555" lon="6.8874225"><ele>1014.0</ele><time>2026-05-01T07:59:30.411Z</time></trkpt><trkpt lat="45.0752345" lon="6.887292"><ele>1014.0</ele><time>2026-05-01T07:59:31.412Z</time></trkpt><trkpt lat="45.0751159" lon="6.8871721"><ele>1014.0</ele><time>2026-05-01T07:59:32.409Z</time></trkpt><trkpt lat="45.0750073" lon="6.8870344"><ele>1014.0</ele><time>2026-05-01T07:59:33.41Z</time></trkpt><trkpt lat="45.0749161" lon="6.8868662"><ele>1014.0</ele><time>2026-05-01T07:59:34.411Z</time></trkpt><trkpt lat="45.074833" lon="6.8866897"><ele>1012.0</ele><time>2026-05-01T07:59:35.41Z</time></trkpt><trkpt lat="45.074746" lon="6.8865073"><ele>1010.0</ele><time>2026-05-01T07:59:36.411Z</time></trkpt><trkpt lat="45.0746501" lon="6.8863401"><ele>1008.0</ele><time>2026-05-01T07:59:37.409Z</time></trkpt><trkpt lat="45.0745543" lon="6.8861822"><ele>1008.0</ele><time>2026-05-01T07:59:38.41Z</time></trkpt><trkpt lat="45.0744623" lon="6.8860375"><ele>1008.0</ele><time>2026-05-01T07:59:39.409Z</time></trkpt><trkpt lat="45.0743795" lon="6.8859135"><ele>1008.0</ele><time>2026-05-01T07:59:40.411Z</time></trkpt><trkpt lat="45.074299" lon="6.8857966"><ele>1008.0</ele><time>2026-05-01T07:59:41.41Z</time></trkpt><trkpt lat="45.0742238" lon="6.8856934"><ele>1009.0</ele><time>2026-05-01T07:59:42.41Z</time></trkpt><trkpt lat="45.0741506" lon="6.8855987"><ele>1010.0</ele><time>2026-05-01T07:59:43.41Z</time></trkpt><trkpt lat="45.0740771" lon="6.8855246"><ele>1011.0</ele><time>2026-05-01T07:59:44.41Z</time></trkpt><trkpt lat="45.0740106" lon="6.8854605"><ele>1012.0</ele><time>2026-05-01T07:59:45.41Z</time></trkpt><trkpt lat="45.0739515" lon="6.8854085"><ele>1013.0</ele><time>2026-05-01T07:59:46.41Z</time></trkpt><trkpt lat="45.0738544" lon="6.8853354"><ele>1014.0</ele><time>2026-05-01T07:59:48.41Z</time></trkpt><trkpt lat="45.0737709" lon="6.8852807"><ele>1014.0</ele><time>2026-05-01T07:59:50.41Z</time></trkpt><trkpt lat="45.0737093" lon="6.8852355"><ele>1014.0000000000001</ele><time>2026-05-01T07:59:52.411Z</time></trkpt><trkpt lat="45.0736212" lon="6.885191"><ele>1014.0000000000001</ele><time>2026-05-01T08:00:00.41Z</time></trkpt><trkpt lat="45.0735403" lon="6.8851498"><ele>1014.0</ele><time>2026-05-01T08:00:02.41Z</time></trkpt><trkpt lat="45.0734147" lon="6.8851042"><ele>1014.0</ele><time>2026-05-01T08:00:04.41Z</time></trkpt><trkpt lat="45.0733383" lon="6.8850678"><ele>1015.4000000000001</ele><time>2026-05-01T08:00:05.41Z</time></trkpt><trkpt lat="45.0732559" lon="6.8850339"><ele>1016.8000000000001</ele><time>2026-05-01T08:00:06.41Z</time></trkpt><trkpt lat="45.0731684" lon="6.8849955"><ele>1018.1999999999999</ele><time>2026-05-01T08:00:07.411Z</time></trkpt><trkpt lat="45.0730733" lon="6.8849599"><ele>1019.5999999999999</ele><time>2026-05-01T08:00:08.411Z</time></trkpt><trkpt lat="45.0729546" lon="6.8849128"><ele>1021.0</ele><time>2026-05-01T08:00:09.41Z</time></trkpt><trkpt lat="45.0728207" lon="6.8848636"><ele>1021.0</ele><time>2026-05-01T08:00:10.411Z</time></trkpt><trkpt lat="45.0726831" lon="6.8848122"><ele>1021.0</ele><time>2026-05-01T08:00:11.41Z</time></trkpt><trkpt lat="45.07255" lon="6.8847588"><ele>1021.0</ele><time>2026-05-01T08:00:12.411Z</time></trkpt><trkpt lat="45.0724269" lon="6.8847059"><ele>1021.0</ele><time>2026-05-01T08:00:13.41Z</time></trkpt><trkpt lat="45.0723145" lon="6.8846607"><ele>1019.5</ele><time>2026-05-01T08:00:14.41Z</time></trkpt><trkpt lat="45.0721946" lon="6.8846117"><ele>1018.0</ele><time>2026-05-01T08:00:15.41Z</time></trkpt><trkpt lat="45.0720694" lon="6.8845628"><ele>1016.5</ele><time>2026-05-01T08:00:16.41Z</time></trkpt><trkpt lat="45.0719377" lon="6.8845059"><ele>1015.0</ele><time>2026-05-01T08:00:17.41Z</time></trkpt><trkpt lat="45.0717987" lon="6.8844518"><ele>1015.0</ele><time>2026-05-01T08:00:18.41Z</time></trkpt><trkpt lat="45.0716617" lon="6.8843996"><ele>1015.0</ele><time>2026-05-01T08:00:19.41Z</time></trkpt><trkpt lat="45.0715275" lon="6.8843504"><ele>1015.0</ele><time>2026-05-01T08:00:20.41Z</time></trkpt><trkpt lat="45.0713928" lon="6.8842957"><ele>1015.0</ele><time>2026-05-01T08:00:21.411Z</time></trkpt><trkpt lat="45.071256" lon="6.8842325"><ele>1018.6666666666666</ele><time>2026-05-01T08:00:22.411Z</time></trkpt><trkpt lat="45.07112" lon="6.884156"><ele>1022.3333333333333</ele><time>2026-05-01T08:00:23.41Z</time></trkpt><trkpt lat="45.070984" lon="6.884044"><ele>1026.0</ele><time>2026-05-01T08:00:24.41Z</time></trkpt><trkpt lat="45.0708584" lon="6.8839112"><ele>1025.3333333333333</ele><time>2026-05-01T08:00:25.41Z</time></trkpt><trkpt lat="45.0707375" lon="6.883766"><ele>1024.6666666666665</ele><time>2026-05-01T08:00:26.41Z</time></trkpt><trkpt lat="45.0706336" lon="6.883601"><ele>1024.0</ele><time>2026-05-01T08:00:27.41Z</time></trkpt><trkpt lat="45.0705378" lon="6.8834178"><ele>1024.0</ele><time>2026-05-01T08:00:28.41Z</time></trkpt><trkpt lat="45.07044" lon="6.8832116"><ele>1024.0</ele><time>2026-05-01T08:00:29.411Z</time></trkpt><trkpt lat="45.0703385" lon="6.8829912"><ele>1024.0</ele><time>2026-05-01T08:00:30.41Z</time></trkpt><trkpt lat="45.0702357" lon="6.8827609"><ele>1023.0</ele><time>2026-05-01T08:00:31.41Z</time></trkpt><trkpt lat="45.0701276" lon="6.8825326"><ele>1022.0</ele><time>2026-05-01T08:00:32.411Z</time></trkpt><trkpt lat="45.0700232" lon="6.8823153"><ele>1021.0</ele><time>2026-05-01T08:00:33.41Z</time></trkpt><trkpt lat="45.0699241" lon="6.8821043"><ele>1021.0</ele><time>2026-05-01T08:00:34.411Z</time></trkpt><trkpt lat="45.0698445" lon="6.8818864"><ele>1021.0</ele><time>2026-05-01T08:00:35.411Z</time></trkpt><trkpt lat="45.069779" lon="6.8816562"><ele>1021.0</ele><time>2026-05-01T08:00:36.411Z</time></trkpt><trkpt lat="45.0697183" lon="6.8814267"><ele>1023.3333333333333</ele><time>2026-05-01T08:00:37.41Z</time></trkpt><trkpt lat="45.0696598" lon="6.881205"><ele>1025.6666666666667</ele><time>2026-05-01T08:00:38.411Z</time></trkpt><trkpt lat="45.0696049" lon="6.8809885"><ele>1028.0</ele><time>2026-05-01T08:00:39.41Z</time></trkpt><trkpt lat="45.0695516" lon="6.880779"><ele>1030.3333333333335</ele><time>2026-05-01T08:00:40.411Z</time></trkpt><trkpt lat="45.0694977" lon="6.880565"><ele>1032.6666666666667</ele><time>2026-05-01T08:00:41.41Z</time></trkpt><trkpt lat="45.0694444" lon="6.8803486"><ele>1035.0</ele><time>2026-05-01T08:00:42.411Z</time></trkpt><trkpt lat="45.0693875" lon="6.8801291"><ele>1035.6666666666667</ele><time>2026-05-01T08:00:43.41Z</time></trkpt><trkpt lat="45.0693315" lon="6.879921"><ele>1036.3333333333335</ele><time>2026-05-01T08:00:44.41Z</time></trkpt><trkpt lat="45.0692764" lon="6.8797069"><ele>1037.0</ele><time>2026-05-01T08:00:45.411Z</time></trkpt><trkpt lat="45.0692231" lon="6.879496"><ele>1037.0</ele><time>2026-05-01T08:00:46.411Z</time></trkpt><trkpt lat="45.0691683" lon="6.8792813"><ele>1037.0</ele><time>2026-05-01T08:00:47.41Z</time></trkpt><trkpt lat="45.0691065" lon="6.8790672"><ele>1037.0</ele><time>2026-05-01T08:00:48.411Z</time></trkpt><trkpt lat="45.0690319" lon="6.8788626"><ele>1035.3333333333335</ele><time>2026-05-01T08:00:49.409Z</time></trkpt><trkpt lat="45.0689451" lon="6.8786617"><ele>1033.6666666666667</ele><time>2026-05-01T08:00:50.41Z</time></trkpt><trkpt lat="45.0688419" lon="6.878463"><ele>1032.0</ele><time>2026-05-01T08:00:51.411Z</time></trkpt><trkpt lat="45.06872" lon="6.8782696"><ele>1032.0</ele><time>2026-05-01T08:00:52.411Z</time></trkpt><trkpt lat="45.0685804" lon="6.87808"><ele>1032.0</ele><time>2026-05-01T08:00:53.41Z</time></trkpt><trkpt lat="45.0684237" lon="6.8778933"><ele>1032.0</ele><time>2026-05-01T08:00:54.41Z</time></trkpt><trkpt lat="45.0682619" lon="6.8777088"><ele>1030.0</ele><time>2026-05-01T08:00:55.41Z</time></trkpt><trkpt lat="45.0681059" lon="6.8775264"><ele>1028.0</ele><time>2026-05-01T08:00:56.41Z</time></trkpt><trkpt lat="45.0679491" lon="6.877345"><ele>1026.0</ele><time>2026-05-01T08:00:57.41Z</time></trkpt><trkpt lat="45.0677946" lon="6.8771679"><ele>1026.0</ele><time>2026-05-01T08:00:58.411Z</time></trkpt><trkpt lat="45.0676457" lon="6.8769984"><ele>1026.0</ele><time>2026-05-01T08:00:59.41Z</time></trkpt><trkpt lat="45.0675029" lon="6.8768321"><ele>1026.0</ele><time>2026-05-01T08:01:00.41Z</time></trkpt><trkpt lat="45.0673613" lon="6.8766638"><ele>1026.6666666666667</ele><time>2026-05-01T08:01:01.411Z</time></trkpt><trkpt lat="45.067222" lon="6.8764947"><ele>1027.3333333333335</ele><time>2026-05-01T08:01:02.41Z</time></trkpt><trkpt lat="45.0670799" lon="6.876322"><ele>1028.0</ele><time>2026-05-01T08:01:03.411Z</time></trkpt><trkpt lat="45.0669381" lon="6.8761447"><ele>1028.0</ele><time>2026-05-01T08:01:04.41Z</time></trkpt><trkpt lat="45.0668034" lon="6.8759699"><ele>1028.0</ele><time>2026-05-01T08:01:05.41Z</time></trkpt><trkpt lat="45.0666672" lon="6.8757953"><ele>1028.0</ele><time>2026-05-01T08:01:06.41Z</time></trkpt><trkpt lat="45.0665232" lon="6.8756122"><ele>1028.0</ele><time>2026-05-01T08:01:07.41Z</time></trkpt><trkpt lat="45.0663738" lon="6.8754347"><ele>1028.0</ele><time>2026-05-01T08:01:08.41Z</time></trkpt><trkpt lat="45.0662269" lon="6.8752507"><ele>1028.0</ele><time>2026-05-01T08:01:09.41Z</time></trkpt><trkpt lat="45.0660862" lon="6.8750708"><ele>1027.6666666666667</ele><time>2026-05-01T08:01:10.409Z</time></trkpt><trkpt lat="45.065949" lon="6.8748965"><ele>1027.3333333333333</ele><time>2026-05-01T08:01:11.412Z</time></trkpt><trkpt lat="45.0658075" lon="6.8747197"><ele>1027.0</ele><time>2026-05-01T08:01:12.41Z</time></trkpt><trkpt lat="45.0656653" lon="6.8745417"><ele>1026.6666666666665</ele><time>2026-05-01T08:01:13.41Z</time></trkpt><trkpt lat="45.0655208" lon="6.8743621"><ele>1026.3333333333333</ele><time>2026-05-01T08:01:14.41Z</time></trkpt><trkpt lat="45.0653804" lon="6.87417"><ele>1026.0</ele><time>2026-05-01T08:01:15.41Z</time></trkpt><trkpt lat="45.0652367" lon="6.8739713"><ele>1026.0</ele><time>2026-05-01T08:01:16.411Z</time></trkpt><trkpt lat="45.0651036" lon="6.8737637"><ele>1026.0</ele><time>2026-05-01T08:01:17.41Z</time></trkpt><trkpt lat="45.064974" lon="6.8735444"><ele>1026.0</ele><time>2026-05-01T08:01:18.41Z</time></trkpt><trkpt lat="45.0648544" lon="6.8733298"><ele>1026.0</ele><time>2026-05-01T08:01:19.41Z</time></trkpt><trkpt lat="45.0647292" lon="6.8731203"><ele>1026.0</ele><time>2026-05-01T08:01:20.411Z</time></trkpt><trkpt lat="45.0646072" lon="6.8729133"><ele>1026.0</ele><time>2026-05-01T08:01:21.41Z</time></trkpt><trkpt lat="45.0644884" lon="6.8727049"><ele>1025.6666666666667</ele><time>2026-05-01T08:01:22.411Z</time></trkpt><trkpt lat="45.0643717" lon="6.8724882"><ele>1025.3333333333335</ele><time>2026-05-01T08:01:23.41Z</time></trkpt><trkpt lat="45.0642624" lon="6.8722608"><ele>1025.0</ele><time>2026-05-01T08:01:24.41Z</time></trkpt><trkpt lat="45.0641554" lon="6.8720208"><ele>1025.0</ele><time>2026-05-01T08:01:25.41Z</time></trkpt><trkpt lat="45.0640547" lon="6.8717618"><ele>1025.0</ele><time>2026-05-01T08:01:26.41Z</time></trkpt><trkpt lat="45.0639604" lon="6.8714934"><ele>1025.0</ele><time>2026-05-01T08:01:27.41Z</time></trkpt><trkpt lat="45.0638729" lon="6.8712147"><ele>1025.0</ele><time>2026-05-01T08:01:28.41Z</time></trkpt><trkpt lat="45.0637845" lon="6.8709444"><ele>1025.0</ele><time>2026-05-01T08:01:29.41Z</time></trkpt><trkpt lat="45.0636919" lon="6.8706865"><ele>1025.0</ele><time>2026-05-01T08:01:30.41Z</time></trkpt><trkpt lat="45.0635847" lon="6.8704386"><ele>1025.0</ele><time>2026-05-01T08:01:31.41Z</time></trkpt><trkpt lat="45.0634568" lon="6.8701999"><ele>1025.0</ele><time>2026-05-01T08:01:32.41Z</time></trkpt><trkpt lat="45.0633029" lon="6.8699644"><ele>1025.0</ele><time>2026-05-01T08:01:33.41Z</time></trkpt><trkpt lat="45.0631286" lon="6.8697461"><ele>1025.0</ele><time>2026-05-01T08:01:34.41Z</time></trkpt><trkpt lat="45.0629353" lon="6.8695339"><ele>1025.0</ele><time>2026-05-01T08:01:35.41Z</time></trkpt><trkpt lat="45.0627351" lon="6.8693259"><ele>1025.0</ele><time>2026-05-01T08:01:36.41Z</time></trkpt><trkpt lat="45.0625282" lon="6.8691162"><ele>1025.0</ele><time>2026-05-01T08:01:37.41Z</time></trkpt><trkpt lat="45.0623276" lon="6.8689067"><ele>1025.0</ele><time>2026-05-01T08:01:38.41Z</time></trkpt><trkpt lat="45.0621408" lon="6.8687065"><ele>1025.0</ele><time>2026-05-01T08:01:39.41Z</time></trkpt><trkpt lat="45.0619603" lon="6.8685217"><ele>1024.6666666666667</ele><time>2026-05-01T08:01:40.412Z</time></trkpt><trkpt lat="45.0617852" lon="6.8683436"><ele>1024.3333333333333</ele><time>2026-05-01T08:01:41.411Z</time></trkpt><trkpt lat="45.0616049" lon="6.8681722"><ele>1024.0</ele><time>2026-05-01T08:01:42.41Z</time></trkpt><trkpt lat="45.0614207" lon="6.8680006"><ele>1024.3333333333333</ele><time>2026-05-01T08:01:43.41Z</time></trkpt><trkpt lat="45.0612316" lon="6.8678307"><ele>1024.6666666666667</ele><time>2026-05-01T08:01:44.41Z</time></trkpt><trkpt lat="45.0610441" lon="6.8676686"><ele>1025.0</ele><time>2026-05-01T08:01:45.41Z</time></trkpt><trkpt lat="45.0608627" lon="6.8675164"><ele>1025.6666666666667</ele><time>2026-05-01T08:01:46.41Z</time></trkpt><trkpt lat="45.0606877" lon="6.8673671"><ele>1026.3333333333333</ele><time>2026-05-01T08:01:47.41Z</time></trkpt><trkpt lat="45.0605082" lon="6.8672118"><ele>1027.0</ele><time>2026-05-01T08:01:48.41Z</time></trkpt><trkpt lat="45.0603296" lon="6.8670556"><ele>1027.0</ele><time>2026-05-01T08:01:49.41Z</time></trkpt><trkpt lat="45.0601487" lon="6.8668887"><ele>1027.0</ele><time>2026-05-01T08:01:50.41Z</time></trkpt><trkpt lat="45.0599705" lon="6.8667068"><ele>1027.0</ele><time>2026-05-01T08:01:51.41Z</time></trkpt><trkpt lat="45.0597957" lon="6.866509"><ele>1027.0</ele><time>2026-05-01T08:01:52.41Z</time></trkpt><trkpt lat="45.0596213" lon="6.866306"><ele>1027.0</ele><time>2026-05-01T08:01:53.41Z</time></trkpt><trkpt lat="45.0594458" lon="6.8660931"><ele>1027.0</ele><time>2026-05-01T08:01:54.41Z</time></trkpt><trkpt lat="45.0592651" lon="6.8658813"><ele>1027.0</ele><time>2026-05-01T08:01:55.411Z</time></trkpt><trkpt lat="45.0590841" lon="6.8656593"><ele>1029.0</ele><time>2026-05-01T08:01:56.41Z</time></trkpt><trkpt lat="45.0589116" lon="6.8654351"><ele>1031.0</ele><time>2026-05-01T08:01:57.411Z</time></trkpt><trkpt lat="45.0587504" lon="6.8652072"><ele>1031.0</ele><time>2026-05-01T08:01:58.41Z</time></trkpt><trkpt lat="45.058599" lon="6.8649714"><ele>1031.0</ele><time>2026-05-01T08:01:59.41Z</time></trkpt><trkpt lat="45.0584537" lon="6.8647411"><ele>1031.0</ele><time>2026-05-01T08:02:00.41Z</time></trkpt><trkpt lat="45.0583097" lon="6.8645118"><ele>1031.3333333333335</ele><time>2026-05-01T08:02:01.41Z</time></trkpt><trkpt lat="45.0581693" lon="6.8642742"><ele>1031.6666666666667</ele><time>2026-05-01T08:02:02.41Z</time></trkpt><trkpt lat="45.0580434" lon="6.864026"><ele>1032.0</ele><time>2026-05-01T08:02:03.412Z</time></trkpt><trkpt lat="45.0579277" lon="6.8637758"><ele>1032.0</ele><time>2026-05-01T08:02:04.41Z</time></trkpt><trkpt lat="45.0578137" lon="6.8635348"><ele>1032.0</ele><time>2026-05-01T08:02:05.41Z</time></trkpt><trkpt lat="45.0576843" lon="6.8633026"><ele>1032.0</ele><time>2026-05-01T08:02:06.41Z</time></trkpt><trkpt lat="45.057539" lon="6.8630837"><ele>1031.6666666666667</ele><time>2026-05-01T08:02:07.41Z</time></trkpt><trkpt lat="45.057387" lon="6.8628621"><ele>1031.3333333333335</ele><time>2026-05-01T08:02:08.411Z</time></trkpt><trkpt lat="45.0572352" lon="6.8626408"><ele>1031.0</ele><time>2026-05-01T08:02:09.41Z</time></trkpt><trkpt lat="45.0570938" lon="6.862429"><ele>1031.0</ele><time>2026-05-01T08:02:10.41Z</time></trkpt><trkpt lat="45.0569543" lon="6.8622213"><ele>1031.0</ele><time>2026-05-01T08:02:11.41Z</time></trkpt><trkpt lat="45.0568187" lon="6.8620194"><ele>1031.0</ele><time>2026-05-01T08:02:12.41Z</time></trkpt><trkpt lat="45.0566835" lon="6.8618229"><ele>1031.3333333333335</ele><time>2026-05-01T08:02:13.41Z</time></trkpt><trkpt lat="45.0565444" lon="6.8616242"><ele>1031.6666666666667</ele><time>2026-05-01T08:02:14.41Z</time></trkpt><trkpt lat="45.0564071" lon="6.8614237"><ele>1032.0</ele><time>2026-05-01T08:02:15.41Z</time></trkpt><trkpt lat="45.0562713" lon="6.8612177"><ele>1032.0</ele><time>2026-05-01T08:02:16.41Z</time></trkpt><trkpt lat="45.0561339" lon="6.8610036"><ele>1032.0</ele><time>2026-05-01T08:02:17.411Z</time></trkpt><trkpt lat="45.0559958" lon="6.8607877"><ele>1032.0</ele><time>2026-05-01T08:02:18.41Z</time></trkpt><trkpt lat="45.0558689" lon="6.8605725"><ele>1033.0</ele><time>2026-05-01T08:02:19.411Z</time></trkpt><trkpt lat="45.0557513" lon="6.8603545"><ele>1034.0</ele><time>2026-05-01T08:02:20.41Z</time></trkpt><trkpt lat="45.0556409" lon="6.860137"><ele>1035.0</ele><time>2026-05-01T08:02:21.41Z</time></trkpt><trkpt lat="45.0555319" lon="6.8599139"><ele>1035.3333333333333</ele><time>2026-05-01T08:02:22.411Z</time></trkpt><trkpt lat="45.0554212" lon="6.859689"><ele>1035.6666666666665</ele><time>2026-05-01T08:02:23.411Z</time></trkpt><trkpt lat="45.0553114" lon="6.8594674"><ele>1036.0</ele><time>2026-05-01T08:02:24.411Z</time></trkpt><trkpt lat="45.0552044" lon="6.85925"><ele>1035.6666666666665</ele><time>2026-05-01T08:02:25.41Z</time></trkpt><trkpt lat="45.0550982" lon="6.8590324"><ele>1035.3333333333333</ele><time>2026-05-01T08:02:26.411Z</time></trkpt><trkpt lat="45.0549965" lon="6.858812"><ele>1035.0</ele><time>2026-05-01T08:02:27.41Z</time></trkpt><trkpt lat="45.054891" lon="6.858591"><ele>1036.3333333333333</ele><time>2026-05-01T08:02:28.41Z</time></trkpt><trkpt lat="45.0547891" lon="6.8583718"><ele>1037.6666666666665</ele><time>2026-05-01T08:02:29.412Z</time></trkpt><trkpt lat="45.0546896" lon="6.8581582"><ele>1039.0</ele><time>2026-05-01T08:02:30.41Z</time></trkpt><trkpt lat="45.0545914" lon="6.8579529"><ele>1039.0</ele><time>2026-05-01T08:02:31.41Z</time></trkpt><trkpt lat="45.05449" lon="6.8577478"><ele>1039.0</ele><time>2026-05-01T08:02:32.41Z</time></trkpt><trkpt lat="45.0543874" lon="6.8575365"><ele>1039.0</ele><time>2026-05-01T08:02:33.411Z</time></trkpt><trkpt lat="45.0542824" lon="6.8573216"><ele>1039.6666666666665</ele><time>2026-05-01T08:02:34.41Z</time></trkpt><trkpt lat="45.0541776" lon="6.8571016"><ele>1040.3333333333333</ele><time>2026-05-01T08:02:35.41Z</time></trkpt><trkpt lat="45.0540721" lon="6.8568711"><ele>1041.0</ele><time>2026-05-01T08:02:36.411Z</time></trkpt><trkpt lat="45.0539582" lon="6.8566373"><ele>1041.0</ele><time>2026-05-01T08:02:37.41Z</time></trkpt><trkpt lat="45.0538431" lon="6.856404"><ele>1041.0</ele><time>2026-05-01T08:02:38.41Z</time></trkpt><trkpt lat="45.0537213" lon="6.8561739"><ele>1041.0</ele><time>2026-05-01T08:02:39.41Z</time></trkpt><trkpt lat="45.0535945" lon="6.8559498"><ele>1040.3333333333333</ele><time>2026-05-01T08:02:40.41Z</time></trkpt><trkpt lat="45.0534609" lon="6.8557396"><ele>1039.6666666666665</ele><time>2026-05-01T08:02:41.411Z</time></trkpt><trkpt lat="45.053331" lon="6.8555393"><ele>1039.0</ele><time>2026-05-01T08:02:42.41Z</time></trkpt><trkpt lat="45.0532059" lon="6.8553509"><ele>1039.0</ele><time>2026-05-01T08:02:43.411Z</time></trkpt><trkpt lat="45.0530838" lon="6.8551718"><ele>1039.0</ele><time>2026-05-01T08:02:44.41Z</time></trkpt><trkpt lat="45.0529567" lon="6.8549994"><ele>1039.0</ele><time>2026-05-01T08:02:45.411Z</time></trkpt><trkpt lat="45.0528211" lon="6.8548267"><ele>1040.3333333333333</ele><time>2026-05-01T08:02:46.41Z</time></trkpt><trkpt lat="45.0526787" lon="6.8546515"><ele>1041.6666666666667</ele><time>2026-05-01T08:02:47.411Z</time></trkpt><trkpt lat="45.0525373" lon="6.8544796"><ele>1043.0</ele><time>2026-05-01T08:02:48.412Z</time></trkpt><trkpt lat="45.0523963" lon="6.8543082"><ele>1050.5</ele><time>2026-05-01T08:02:49.41Z</time></trkpt><trkpt lat="45.0522553" lon="6.8541373"><ele>1058.0</ele><time>2026-05-01T08:02:50.411Z</time></trkpt><trkpt lat="45.0509055" lon="6.8525946"><ele>1054.3333333333335</ele><time>2026-05-01T08:03:00.41Z</time></trkpt><trkpt lat="45.0507495" lon="6.8524424"><ele>1050.6666666666667</ele><time>2026-05-01T08:03:01.41Z</time></trkpt><trkpt lat="45.0506454" lon="6.8522639"><ele>1047.0</ele><time>2026-05-01T08:03:02.41Z</time></trkpt><trkpt lat="45.0505797" lon="6.8520767"><ele>1047.0</ele><time>2026-05-01T08:03:03.41Z</time></trkpt><trkpt lat="45.0505436" lon="6.8518806"><ele>1047.0</ele><time>2026-05-01T08:03:04.411Z</time></trkpt><trkpt lat="45.0505392" lon="6.8516691"><ele>1047.0</ele><time>2026-05-01T08:03:05.41Z</time></trkpt><trkpt lat="45.0505526" lon="6.8514512"><ele>1047.0</ele><time>2026-05-01T08:03:06.41Z</time></trkpt><trkpt lat="45.0505947" lon="6.8512249"><ele>1047.0</ele><time>2026-05-01T08:03:07.41Z</time></trkpt><trkpt lat="45.0506602" lon="6.8509939"><ele>1047.0</ele><time>2026-05-01T08:03:08.41Z</time></trkpt><trkpt lat="45.0506948" lon="6.8507749"><ele>1047.0</ele><time>2026-05-01T08:03:09.41Z</time></trkpt><trkpt lat="45.0507208" lon="6.8505511"><ele>1047.3333333333333</ele><time>2026-05-01T08:03:10.41Z</time></trkpt><trkpt lat="45.0506806" lon="6.8503249"><ele>1047.6666666666665</ele><time>2026-05-01T08:03:11.41Z</time></trkpt><trkpt lat="45.050624" lon="6.8501033"><ele>1048.0</ele><time>2026-05-01T08:03:12.41Z</time></trkpt><trkpt lat="45.05053" lon="6.8498903"><ele>1048.0</ele><time>2026-05-01T08:03:13.41Z</time></trkpt><trkpt lat="45.0504129" lon="6.8496908"><ele>1048.0</ele><time>2026-05-01T08:03:14.41Z</time></trkpt><trkpt lat="45.0503136" lon="6.8494839"><ele>1048.0</ele><time>2026-05-01T08:03:15.41Z</time></trkpt><trkpt lat="45.0502324" lon="6.8492595"><ele>1046.6666666666665</ele><time>2026-05-01T08:03:16.411Z</time></trkpt><trkpt lat="45.0501549" lon="6.8490394"><ele>1045.3333333333333</ele><time>2026-05-01T08:03:17.41Z</time></trkpt><trkpt lat="45.0500504" lon="6.848835"><ele>1044.0</ele><time>2026-05-01T08:03:18.41Z</time></trkpt><trkpt lat="45.0499377" lon="6.8486357"><ele>1044.0</ele><time>2026-05-01T08:03:19.411Z</time></trkpt><trkpt lat="45.0497675" lon="6.8484844"><ele>1044.0</ele><time>2026-05-01T08:03:20.41Z</time></trkpt><trkpt lat="45.049608" lon="6.8483257"><ele>1044.0</ele><time>2026-05-01T08:03:21.41Z</time></trkpt><trkpt lat="45.0494537" lon="6.8481765"><ele>1046.0</ele><time>2026-05-01T08:03:22.41Z</time></trkpt><trkpt lat="45.0493354" lon="6.8480296"><ele>1048.0</ele><time>2026-05-01T08:03:23.41Z</time></trkpt><trkpt lat="45.0492575" lon="6.8478386"><ele>1050.0</ele><time>2026-05-01T08:03:24.411Z</time></trkpt><trkpt lat="45.0491747" lon="6.84764"><ele>1048.0</ele><time>2026-05-01T08:03:25.411Z</time></trkpt><trkpt lat="45.0490941" lon="6.8474218"><ele>1046.0</ele><time>2026-05-01T08:03:26.41Z</time></trkpt><trkpt lat="45.0490028" lon="6.8472097"><ele>1044.0</ele><time>2026-05-01T08:03:27.41Z</time></trkpt><trkpt lat="45.0489039" lon="6.8469774"><ele>1045.6666666666667</ele><time>2026-05-01T08:03:28.41Z</time></trkpt><trkpt lat="45.0488033" lon="6.846746"><ele>1047.3333333333335</ele><time>2026-05-01T08:03:29.41Z</time></trkpt><trkpt lat="45.0486957" lon="6.8465036"><ele>1049.0</ele><time>2026-05-01T08:03:30.41Z</time></trkpt><trkpt lat="45.0485901" lon="6.8462585"><ele>1049.0</ele><time>2026-05-01T08:03:31.41Z</time></trkpt><trkpt lat="45.0484805" lon="6.846011"><ele>1049.0</ele><time>2026-05-01T08:03:32.41Z</time></trkpt><trkpt lat="45.0483722" lon="6.8457609"><ele>1049.0</ele><time>2026-05-01T08:03:33.41Z</time></trkpt><trkpt lat="45.0482613" lon="6.8455219"><ele>1049.0</ele><time>2026-05-01T08:03:34.41Z</time></trkpt><trkpt lat="45.0481534" lon="6.8452945"><ele>1049.0</ele><time>2026-05-01T08:03:35.411Z</time></trkpt><trkpt lat="45.0480553" lon="6.8450689"><ele>1049.0</ele><time>2026-05-01T08:03:36.41Z</time></trkpt><trkpt lat="45.0479859" lon="6.8448366"><ele>1050.3333333333335</ele><time>2026-05-01T08:03:37.411Z</time></trkpt><trkpt lat="45.0479185" lon="6.8445917"><ele>1051.6666666666667</ele><time>2026-05-01T08:03:38.41Z</time></trkpt><trkpt lat="45.0478738" lon="6.844322"><ele>1053.0</ele><time>2026-05-01T08:03:39.41Z</time></trkpt><trkpt lat="45.0478569" lon="6.8440195"><ele>1052.6666666666667</ele><time>2026-05-01T08:03:40.41Z</time></trkpt><trkpt lat="45.0478451" lon="6.8437124"><ele>1052.3333333333335</ele><time>2026-05-01T08:03:41.411Z</time></trkpt><trkpt lat="45.0478183" lon="6.8434156"><ele>1052.0</ele><time>2026-05-01T08:03:42.41Z</time></trkpt><trkpt lat="45.0477982" lon="6.8431244"><ele>1052.0</ele><time>2026-05-01T08:03:43.412Z</time></trkpt><trkpt lat="45.0477937" lon="6.8428219"><ele>1052.0</ele><time>2026-05-01T08:03:44.41Z</time></trkpt><trkpt lat="45.0477961" lon="6.8425223"><ele>1052.0</ele><time>2026-05-01T08:03:45.41Z</time></trkpt><trkpt lat="45.0478217" lon="6.842222"><ele>1052.3333333333335</ele><time>2026-05-01T08:03:46.411Z</time></trkpt><trkpt lat="45.047834" lon="6.8419299"><ele>1052.6666666666667</ele><time>2026-05-01T08:03:47.41Z</time></trkpt><trkpt lat="45.0478238" lon="6.8416385"><ele>1053.0</ele><time>2026-05-01T08:03:48.41Z</time></trkpt><trkpt lat="45.0478054" lon="6.8413564"><ele>1053.0</ele><time>2026-05-01T08:03:49.411Z</time></trkpt><trkpt lat="45.0478097" lon="6.8410805"><ele>1053.0</ele><time>2026-05-01T08:03:50.411Z</time></trkpt><trkpt lat="45.0478212" lon="6.8408159"><ele>1053.0</ele><time>2026-05-01T08:03:51.41Z</time></trkpt><trkpt lat="45.0478237" lon="6.8405481"><ele>1055.3333333333333</ele><time>2026-05-01T08:03:52.411Z</time></trkpt><trkpt lat="45.0478016" lon="6.8402804"><ele>1057.6666666666665</ele><time>2026-05-01T08:03:53.41Z</time></trkpt><trkpt lat="45.0477487" lon="6.8400138"><ele>1060.0</ele><time>2026-05-01T08:03:54.411Z</time></trkpt><trkpt lat="45.0476617" lon="6.8397493"><ele>1058.3333333333333</ele><time>2026-05-01T08:03:55.411Z</time></trkpt><trkpt lat="45.0475572" lon="6.8394872"><ele>1056.6666666666667</ele><time>2026-05-01T08:03:56.41Z</time></trkpt><trkpt lat="45.0474325" lon="6.8392124"><ele>1055.0</ele><time>2026-05-01T08:03:57.41Z</time></trkpt><trkpt lat="45.0473025" lon="6.8389224"><ele>1055.0</ele><time>2026-05-01T08:03:58.41Z</time></trkpt><trkpt lat="45.0471643" lon="6.8386344"><ele>1055.0</ele><time>2026-05-01T08:03:59.41Z</time></trkpt><trkpt lat="45.0470239" lon="6.8383344"><ele>1056.5</ele><time>2026-05-01T08:04:00.41Z</time></trkpt><trkpt lat="45.0468892" lon="6.8380336"><ele>1058.0</ele><time>2026-05-01T08:04:01.411Z</time></trkpt><trkpt lat="45.0467547" lon="6.8377409"><ele>1057.5</ele><time>2026-05-01T08:04:02.41Z</time></trkpt><trkpt lat="45.0466214" lon="6.8374583"><ele>1057.0</ele><time>2026-05-01T08:04:03.411Z</time></trkpt><trkpt lat="45.0464973" lon="6.8371961"><ele>1057.0</ele><time>2026-05-01T08:04:04.411Z</time></trkpt><trkpt lat="45.0463932" lon="6.8369622"><ele>1057.0</ele><time>2026-05-01T08:04:05.412Z</time></trkpt><trkpt lat="45.0462935" lon="6.8367436"><ele>1057.0</ele><time>2026-05-01T08:04:06.411Z</time></trkpt><trkpt lat="45.0461994" lon="6.8365413"><ele>1056.6666666666665</ele><time>2026-05-01T08:04:07.41Z</time></trkpt><trkpt lat="45.0461085" lon="6.8363495"><ele>1056.3333333333333</ele><time>2026-05-01T08:04:08.41Z</time></trkpt><trkpt lat="45.0460205" lon="6.8361594"><ele>1056.0</ele><time>2026-05-01T08:04:09.41Z</time></trkpt><trkpt lat="45.0459335" lon="6.8359727"><ele>1056.6666666666667</ele><time>2026-05-01T08:04:10.41Z</time></trkpt><trkpt lat="45.045849" lon="6.8357907"><ele>1057.3333333333335</ele><time>2026-05-01T08:04:11.41Z</time></trkpt><trkpt lat="45.0457608" lon="6.8355999"><ele>1058.0</ele><time>2026-05-01T08:04:12.41Z</time></trkpt><trkpt lat="45.045673" lon="6.8354077"><ele>1058.0</ele><time>2026-05-01T08:04:13.41Z</time></trkpt><trkpt lat="45.0455818" lon="6.8352137"><ele>1058.0</ele><time>2026-05-01T08:04:14.41Z</time></trkpt><trkpt lat="45.0454899" lon="6.8350167"><ele>1058.0</ele><time>2026-05-01T08:04:15.41Z</time></trkpt><trkpt lat="45.0453947" lon="6.83482"><ele>1059.3333333333335</ele><time>2026-05-01T08:04:16.41Z</time></trkpt><trkpt lat="45.0453008" lon="6.8346191"><ele>1060.6666666666667</ele><time>2026-05-01T08:04:17.412Z</time></trkpt><trkpt lat="45.0452058" lon="6.8344077"><ele>1062.0</ele><time>2026-05-01T08:04:18.411Z</time></trkpt><trkpt lat="45.0451057" lon="6.8341852"><ele>1062.0</ele><time>2026-05-01T08:04:19.41Z</time></trkpt><trkpt lat="45.044999" lon="6.8339556"><ele>1062.0</ele><time>2026-05-01T08:04:20.41Z</time></trkpt><trkpt lat="45.0448894" lon="6.8337159"><ele>1062.0</ele><time>2026-05-01T08:04:21.411Z</time></trkpt><trkpt lat="45.0447809" lon="6.8334767"><ele>1062.6666666666667</ele><time>2026-05-01T08:04:22.41Z</time></trkpt><trkpt lat="45.0446726" lon="6.8332424"><ele>1063.3333333333335</ele><time>2026-05-01T08:04:23.411Z</time></trkpt><trkpt lat="45.0445654" lon="6.8330113"><ele>1064.0</ele><time>2026-05-01T08:04:24.411Z</time></trkpt><trkpt lat="45.0444592" lon="6.8327832"><ele>1064.3333333333335</ele><time>2026-05-01T08:04:25.411Z</time></trkpt><trkpt lat="45.0443503" lon="6.8325504"><ele>1064.6666666666667</ele><time>2026-05-01T08:04:26.411Z</time></trkpt><trkpt lat="45.0442416" lon="6.8323112"><ele>1065.0</ele><time>2026-05-01T08:04:27.411Z</time></trkpt><trkpt lat="45.0441371" lon="6.8320743"><ele>1065.0</ele><time>2026-05-01T08:04:28.411Z</time></trkpt><trkpt lat="45.0440328" lon="6.8318371"><ele>1065.0</ele><time>2026-05-01T08:04:29.41Z</time></trkpt><trkpt lat="45.0439289" lon="6.8316075"><ele>1065.0</ele><time>2026-05-01T08:04:30.411Z</time></trkpt><trkpt lat="45.0438213" lon="6.8313771"><ele>1065.0</ele><time>2026-05-01T08:04:31.41Z</time></trkpt><trkpt lat="45.0437139" lon="6.8311552"><ele>1065.0</ele><time>2026-05-01T08:04:32.41Z</time></trkpt><trkpt lat="45.0436062" lon="6.8309236"><ele>1065.0</ele><time>2026-05-01T08:04:33.41Z</time></trkpt><trkpt lat="45.0434972" lon="6.8306945"><ele>1065.0</ele><time>2026-05-01T08:04:34.41Z</time></trkpt><trkpt lat="45.0433888" lon="6.8304655"><ele>1065.0</ele><time>2026-05-01T08:04:35.41Z</time></trkpt><trkpt lat="45.0432759" lon="6.8302317"><ele>1065.0</ele><time>2026-05-01T08:04:36.411Z</time></trkpt><trkpt lat="45.0431782" lon="6.8300121"><ele>1064.6666666666667</ele><time>2026-05-01T08:04:37.41Z</time></trkpt><trkpt lat="45.0430818" lon="6.829801"><ele>1064.3333333333335</ele><time>2026-05-01T08:04:38.411Z</time></trkpt><trkpt lat="45.0429862" lon="6.8296001"><ele>1064.0</ele><time>2026-05-01T08:04:39.41Z</time></trkpt><trkpt lat="45.042893" lon="6.8293989"><ele>1065.6666666666667</ele><time>2026-05-01T08:04:40.412Z</time></trkpt><trkpt lat="45.0427963" lon="6.8291972"><ele>1067.3333333333333</ele><time>2026-05-01T08:04:41.411Z</time></trkpt><trkpt lat="45.0427056" lon="6.829"><ele>1069.0</ele><time>2026-05-01T08:04:42.41Z</time></trkpt><trkpt lat="45.042621" lon="6.8287986"><ele>1069.0</ele><time>2026-05-01T08:04:43.41Z</time></trkpt><trkpt lat="45.0425537" lon="6.8285772"><ele>1069.0</ele><time>2026-05-01T08:04:44.41Z</time></trkpt><trkpt lat="45.0425079" lon="6.8283445"><ele>1069.0</ele><time>2026-05-01T08:04:45.411Z</time></trkpt><trkpt lat="45.042479" lon="6.8280994"><ele>1068.0</ele><time>2026-05-01T08:04:46.41Z</time></trkpt><trkpt lat="45.0424583" lon="6.827845"><ele>1067.0</ele><time>2026-05-01T08:04:47.412Z</time></trkpt><trkpt lat="45.0424345" lon="6.8276105"><ele>1066.0</ele><time>2026-05-01T08:04:48.411Z</time></trkpt><trkpt lat="45.0424099" lon="6.8273898"><ele>1066.0</ele><time>2026-05-01T08:04:49.411Z</time></trkpt><trkpt lat="45.0423837" lon="6.8271764"><ele>1066.0</ele><time>2026-05-01T08:04:50.41Z</time></trkpt><trkpt lat="45.0423535" lon="6.8269737"><ele>1066.0</ele><time>2026-05-01T08:04:51.41Z</time></trkpt><trkpt lat="45.0423146" lon="6.8267787"><ele>1066.0</ele><time>2026-05-01T08:04:52.41Z</time></trkpt><trkpt lat="45.0422672" lon="6.826597"><ele>1066.75</ele><time>2026-05-01T08:04:53.41Z</time></trkpt><trkpt lat="45.0422134" lon="6.8264267"><ele>1067.5</ele><time>2026-05-01T08:04:54.41Z</time></trkpt><trkpt lat="45.0421541" lon="6.8262678"><ele>1068.25</ele><time>2026-05-01T08:04:55.412Z</time></trkpt><trkpt lat="45.0420958" lon="6.8261126"><ele>1069.0</ele><time>2026-05-01T08:04:56.41Z</time></trkpt><trkpt lat="45.0420402" lon="6.8259664"><ele>1069.6666666666665</ele><time>2026-05-01T08:04:57.411Z</time></trkpt><trkpt lat="45.041991" lon="6.8258347"><ele>1070.3333333333333</ele><time>2026-05-01T08:04:58.41Z</time></trkpt><trkpt lat="45.0419474" lon="6.8257171"><ele>1071.0</ele><time>2026-05-01T08:04:59.411Z</time></trkpt><trkpt lat="45.0419093" lon="6.8256098"><ele>1071.6666666666667</ele><time>2026-05-01T08:05:00.41Z</time></trkpt><trkpt lat="45.0418742" lon="6.8255129"><ele>1072.3333333333335</ele><time>2026-05-01T08:05:01.41Z</time></trkpt><trkpt lat="45.0418426" lon="6.8254295"><ele>1073.0</ele><time>2026-05-01T08:05:02.411Z</time></trkpt><trkpt lat="45.0417898" lon="6.8252747"><ele>1072.6</ele><time>2026-05-01T08:05:04.411Z</time></trkpt><trkpt lat="45.0417431" lon="6.8251028"><ele>1072.1999999999998</ele><time>2026-05-01T08:05:06.411Z</time></trkpt><trkpt lat="45.041718" lon="6.8250141"><ele>1071.8</ele><time>2026-05-01T08:05:07.41Z</time></trkpt><trkpt lat="45.0416803" lon="6.8249362"><ele>1071.3999999999999</ele><time>2026-05-01T08:05:08.411Z</time></trkpt><trkpt lat="45.0415755" lon="6.8248676"><ele>1071.0</ele><time>2026-05-01T08:05:10.41Z</time></trkpt><trkpt lat="45.0414876" lon="6.8248821"><ele>1071.0</ele><time>2026-05-01T08:05:11.41Z</time></trkpt><trkpt lat="45.0414002" lon="6.8249028"><ele>1071.0</ele><time>2026-05-01T08:05:12.411Z</time></trkpt><trkpt lat="45.041301" lon="6.8249225"><ele>1071.0</ele><time>2026-05-01T08:05:13.411Z</time></trkpt><trkpt lat="45.0412048" lon="6.8249277"><ele>1071.0</ele><time>2026-05-01T08:05:14.411Z</time></trkpt><trkpt lat="45.0411236" lon="6.8249125"><ele>1071.0</ele><time>2026-05-01T08:05:15.41Z</time></trkpt><trkpt lat="45.0410509" lon="6.8248627"><ele>1071.0</ele><time>2026-05-01T08:05:16.41Z</time></trkpt><trkpt lat="45.0409929" lon="6.8247825"><ele>1071.0</ele><time>2026-05-01T08:05:17.41Z</time></trkpt><trkpt lat="45.0409533" lon="6.8246765"><ele>1071.0</ele><time>2026-05-01T08:05:18.411Z</time></trkpt><trkpt lat="45.0409239" lon="6.8245507"><ele>1071.0</ele><time>2026-05-01T08:05:19.41Z</time></trkpt><trkpt lat="45.040925" lon="6.8243999"><ele>1071.0</ele><time>2026-05-01T08:05:20.412Z</time></trkpt><trkpt lat="45.0409313" lon="6.8242399"><ele>1071.0</ele><time>2026-05-01T08:05:21.411Z</time></trkpt><trkpt lat="45.0409208" lon="6.824057"><ele>1071.0</ele><time>2026-05-01T08:05:22.41Z</time></trkpt><trkpt lat="45.0408958" lon="6.8238669"><ele>1071.0</ele><time>2026-05-01T08:05:23.41Z</time></trkpt><trkpt lat="45.0408253" lon="6.823652"><ele>1071.0</ele><time>2026-05-01T08:05:24.412Z</time></trkpt><trkpt lat="45.0407527" lon="6.8234311"><ele>1071.0</ele><time>2026-05-01T08:05:25.41Z</time></trkpt><trkpt lat="45.0406754" lon="6.8232095"><ele>1071.0</ele><time>2026-05-01T08:05:26.41Z</time></trkpt><trkpt lat="45.0406004" lon="6.823002"><ele>1071.0</ele><time>2026-05-01T08:05:27.41Z</time></trkpt><trkpt lat="45.0405282" lon="6.8228118"><ele>1071.5</ele><time>2026-05-01T08:05:28.411Z</time></trkpt><trkpt lat="45.0404662" lon="6.8226423"><ele>1072.0</ele><time>2026-05-01T08:05:29.41Z</time></trkpt><trkpt lat="45.0404078" lon="6.8224761"><ele>1072.5</ele><time>2026-05-01T08:05:30.412Z</time></trkpt><trkpt lat="45.0403528" lon="6.822306"><ele>1073.0</ele><time>2026-05-01T08:05:31.41Z</time></trkpt><trkpt lat="45.0403068" lon="6.8221269"><ele>1073.0</ele><time>2026-05-01T08:05:32.41Z</time></trkpt><trkpt lat="45.0402644" lon="6.8219419"><ele>1073.0</ele><time>2026-05-01T08:05:33.412Z</time></trkpt><trkpt lat="45.0402236" lon="6.8217452"><ele>1073.0</ele><time>2026-05-01T08:05:34.41Z</time></trkpt><trkpt lat="45.0401844" lon="6.8215303"><ele>1073.0</ele><time>2026-05-01T08:05:35.411Z</time></trkpt><trkpt lat="45.0401391" lon="6.8212916"><ele>1072.6666666666667</ele><time>2026-05-01T08:05:36.411Z</time></trkpt><trkpt lat="45.0400881" lon="6.8210334"><ele>1072.3333333333333</ele><time>2026-05-01T08:05:37.411Z</time></trkpt><trkpt lat="45.0400379" lon="6.8207701"><ele>1072.0</ele><time>2026-05-01T08:05:38.41Z</time></trkpt><trkpt lat="45.039987" lon="6.8204994"><ele>1072.3333333333333</ele><time>2026-05-01T08:05:39.41Z</time></trkpt><trkpt lat="45.0399332" lon="6.820224"><ele>1072.6666666666667</ele><time>2026-05-01T08:05:40.41Z</time></trkpt><trkpt lat="45.0398809" lon="6.8199497"><ele>1073.0</ele><time>2026-05-01T08:05:41.41Z</time></trkpt><trkpt lat="45.039833" lon="6.8196821"><ele>1073.3333333333335</ele><time>2026-05-01T08:05:42.41Z</time></trkpt><trkpt lat="45.0397845" lon="6.8194225"><ele>1073.6666666666667</ele><time>2026-05-01T08:05:43.41Z</time></trkpt><trkpt lat="45.0397354" lon="6.8191591"><ele>1074.0</ele><time>2026-05-01T08:05:44.411Z</time></trkpt><trkpt lat="45.0396874" lon="6.8188889"><ele>1074.3333333333333</ele><time>2026-05-01T08:05:45.41Z</time></trkpt><trkpt lat="45.0396378" lon="6.8186146"><ele>1074.6666666666665</ele><time>2026-05-01T08:05:46.41Z</time></trkpt><trkpt lat="45.0395891" lon="6.8183334"><ele>1075.0</ele><time>2026-05-01T08:05:47.412Z</time></trkpt><trkpt lat="45.0395384" lon="6.8180594"><ele>1075.3333333333333</ele><time>2026-05-01T08:05:48.41Z</time></trkpt><trkpt lat="45.0394902" lon="6.8177985"><ele>1075.6666666666667</ele><time>2026-05-01T08:05:49.41Z</time></trkpt><trkpt lat="45.0394436" lon="6.8175526"><ele>1076.0</ele><time>2026-05-01T08:05:50.41Z</time></trkpt><trkpt lat="45.0393998" lon="6.8173175"><ele>1076.6666666666667</ele><time>2026-05-01T08:05:51.41Z</time></trkpt><trkpt lat="45.0393583" lon="6.8170947"><ele>1077.3333333333333</ele><time>2026-05-01T08:05:52.41Z</time></trkpt><trkpt lat="45.0393182" lon="6.8168903"><ele>1078.0</ele><time>2026-05-01T08:05:53.41Z</time></trkpt><trkpt lat="45.039273" lon="6.8166899"><ele>1078.5</ele><time>2026-05-01T08:05:54.41Z</time></trkpt><trkpt lat="45.039211" lon="6.8164998"><ele>1079.0</ele><time>2026-05-01T08:05:55.41Z</time></trkpt><trkpt lat="45.0391339" lon="6.8163232"><ele>1079.5</ele><time>2026-05-01T08:05:56.41Z</time></trkpt><trkpt lat="45.0390328" lon="6.8161625"><ele>1080.0</ele><time>2026-05-01T08:05:57.41Z</time></trkpt><trkpt lat="45.0389131" lon="6.8160229"><ele>1081.0</ele><time>2026-05-01T08:05:58.41Z</time></trkpt><trkpt lat="45.0387687" lon="6.8159205"><ele>1082.0</ele><time>2026-05-01T08:05:59.411Z</time></trkpt><trkpt lat="45.0386179" lon="6.8158502"><ele>1083.0</ele><time>2026-05-01T08:06:00.411Z</time></trkpt><trkpt lat="45.0384532" lon="6.8158149"><ele>1085.0</ele><time>2026-05-01T08:06:01.411Z</time></trkpt><trkpt lat="45.0382953" lon="6.815811"><ele>1087.0</ele><time>2026-05-01T08:06:02.411Z</time></trkpt><trkpt lat="45.0381424" lon="6.8158658"><ele>1089.0</ele><time>2026-05-01T08:06:03.411Z</time></trkpt><trkpt lat="45.0379886" lon="6.8159383"><ele>1089.3333333333333</ele><time>2026-05-01T08:06:04.41Z</time></trkpt><trkpt lat="45.0378245" lon="6.816061"><ele>1089.6666666666665</ele><time>2026-05-01T08:06:05.41Z</time></trkpt><trkpt lat="45.0376487" lon="6.8162175"><ele>1090.0</ele><time>2026-05-01T08:06:06.41Z</time></trkpt><trkpt lat="45.0374684" lon="6.8163792"><ele>1090.0</ele><time>2026-05-01T08:06:07.41Z</time></trkpt><trkpt lat="45.0372801" lon="6.8165447"><ele>1090.0</ele><time>2026-05-01T08:06:08.411Z</time></trkpt><trkpt lat="45.0370962" lon="6.816705"><ele>1090.0</ele><time>2026-05-01T08:06:09.411Z</time></trkpt><trkpt lat="45.03692" lon="6.8168602"><ele>1089.3333333333333</ele><time>2026-05-01T08:06:10.411Z</time></trkpt><trkpt lat="45.0367465" lon="6.8170177"><ele>1088.6666666666667</ele><time>2026-05-01T08:06:11.411Z</time></trkpt><trkpt lat="45.036574" lon="6.8171743"><ele>1088.0</ele><time>2026-05-01T08:06:12.411Z</time></trkpt><trkpt lat="45.0363958" lon="6.8173297"><ele>1088.0</ele><time>2026-05-01T08:06:13.41Z</time></trkpt><trkpt lat="45.0362157" lon="6.8174873"><ele>1088.0</ele><time>2026-05-01T08:06:14.41Z</time></trkpt><trkpt lat="45.0360292" lon="6.8176531"><ele>1088.0</ele><time>2026-05-01T08:06:15.412Z</time></trkpt><trkpt lat="45.0358452" lon="6.8178182"><ele>1090.0</ele><time>2026-05-01T08:06:16.411Z</time></trkpt><trkpt lat="45.0356639" lon="6.8179775"><ele>1092.0</ele><time>2026-05-01T08:06:17.411Z</time></trkpt><trkpt lat="45.035484" lon="6.8181388"><ele>1094.0</ele><time>2026-05-01T08:06:18.41Z</time></trkpt><trkpt lat="45.03531" lon="6.8182915"><ele>1094.0</ele><time>2026-05-01T08:06:19.411Z</time></trkpt><trkpt lat="45.0351376" lon="6.8184414"><ele>1094.0</ele><time>2026-05-01T08:06:20.411Z</time></trkpt><trkpt lat="45.0349666" lon="6.8185986"><ele>1094.0</ele><time>2026-05-01T08:06:21.41Z</time></trkpt><trkpt lat="45.0347942" lon="6.8187507"><ele>1099.6666666666667</ele><time>2026-05-01T08:06:22.411Z</time></trkpt><trkpt lat="45.0346265" lon="6.8188984"><ele>1105.3333333333333</ele><time>2026-05-01T08:06:23.411Z</time></trkpt><trkpt lat="45.0344649" lon="6.819042"><ele>1111.0</ele><time>2026-05-01T08:06:24.411Z</time></trkpt><trkpt lat="45.0343055" lon="6.8191841"><ele>1104.0</ele><time>2026-05-01T08:06:25.411Z</time></trkpt><trkpt lat="45.034146" lon="6.8193262"><ele>1097.0</ele><time>2026-05-01T08:06:26.411Z</time></trkpt><trkpt lat="45.0266545" lon="6.8341943"><ele>1102.0</ele><time>2026-05-01T08:07:19.965Z</time></trkpt><trkpt lat="45.0246557" lon="6.8290533"><ele>1102.0</ele><time>2026-05-01T08:07:31.41Z</time></trkpt><trkpt lat="45.0245145" lon="6.8292408"><ele>1102.0</ele><time>2026-05-01T08:07:32.41Z</time></trkpt><trkpt lat="45.0243738" lon="6.8294054"><ele>1102.0</ele><time>2026-05-01T08:07:33.41Z</time></trkpt><trkpt lat="45.0242271" lon="6.8295426"><ele>1101.0</ele><time>2026-05-01T08:07:34.41Z</time></trkpt><trkpt lat="45.0240782" lon="6.8296781"><ele>1100.0</ele><time>2026-05-01T08:07:35.41Z</time></trkpt><trkpt lat="45.0239267" lon="6.8298062"><ele>1099.0</ele><time>2026-05-01T08:07:36.41Z</time></trkpt><trkpt lat="45.023775" lon="6.8299263"><ele>1099.0</ele><time>2026-05-01T08:07:37.41Z</time></trkpt><trkpt lat="45.0236249" lon="6.8300378"><ele>1099.0</ele><time>2026-05-01T08:07:38.411Z</time></trkpt><trkpt lat="45.0234769" lon="6.8301413"><ele>1099.0</ele><time>2026-05-01T08:07:39.41Z</time></trkpt><trkpt lat="45.0233291" lon="6.8302373"><ele>1099.3333333333333</ele><time>2026-05-01T08:07:40.41Z</time></trkpt><trkpt lat="45.0231788" lon="6.8303267"><ele>1099.6666666666667</ele><time>2026-05-01T08:07:41.41Z</time></trkpt><trkpt lat="45.0230296" lon="6.8304093"><ele>1100.0</ele><time>2026-05-01T08:07:42.41Z</time></trkpt><trkpt lat="45.0228772" lon="6.8304857"><ele>1100.0</ele><time>2026-05-01T08:07:43.41Z</time></trkpt><trkpt lat="45.0227217" lon="6.8305484"><ele>1100.0</ele><time>2026-05-01T08:07:44.411Z</time></trkpt><trkpt lat="45.0225599" lon="6.8306068"><ele>1100.0</ele><time>2026-05-01T08:07:45.41Z</time></trkpt><trkpt lat="45.0223965" lon="6.8306604"><ele>1101.75</ele><time>2026-05-01T08:07:46.41Z</time></trkpt><trkpt lat="45.022254" lon="6.830701"><ele>1103.5</ele><time>2026-05-01T08:07:47.41Z</time></trkpt><trkpt lat="45.0221117" lon="6.8307393"><ele>1105.25</ele><time>2026-05-01T08:07:48.41Z</time></trkpt><trkpt lat="45.0219589" lon="6.8307825"><ele>1107.0</ele><time>2026-05-01T08:07:49.41Z</time></trkpt><trkpt lat="45.021786" lon="6.8308369"><ele>1107.3333333333333</ele><time>2026-05-01T08:07:50.411Z</time></trkpt><trkpt lat="45.021609" lon="6.8308956"><ele>1107.6666666666665</ele><time>2026-05-01T08:07:51.411Z</time></trkpt><trkpt lat="45.0214376" lon="6.8309573"><ele>1108.0</ele><time>2026-05-01T08:07:52.41Z</time></trkpt><trkpt lat="45.0212736" lon="6.8310192"><ele>1112.0</ele><time>2026-05-01T08:07:53.41Z</time></trkpt><trkpt lat="45.0211176" lon="6.831077"><ele>1116.0</ele><time>2026-05-01T08:07:54.41Z</time></trkpt><trkpt lat="45.0209611" lon="6.8311324"><ele>1120.0</ele><time>2026-05-01T08:07:55.41Z</time></trkpt><trkpt lat="45.0208101" lon="6.8311892"><ele>1120.0</ele><time>2026-05-01T08:07:56.41Z</time></trkpt><trkpt lat="45.0206651" lon="6.8312432"><ele>1120.0</ele><time>2026-05-01T08:07:57.41Z</time></trkpt><trkpt lat="45.0205232" lon="6.8312934"><ele>1120.0</ele><time>2026-05-01T08:07:58.41Z</time></trkpt><trkpt lat="45.02038" lon="6.8313485"><ele>1120.0</ele><time>2026-05-01T08:07:59.41Z</time></trkpt><trkpt lat="45.0202322" lon="6.8314017"><ele>1120.0</ele><time>2026-05-01T08:08:00.411Z</time></trkpt><trkpt lat="45.0200742" lon="6.8314565"><ele>1120.0</ele><time>2026-05-01T08:08:01.41Z</time></trkpt><trkpt lat="45.0199118" lon="6.8315135"><ele>1120.0</ele><time>2026-05-01T08:08:02.41Z</time></trkpt><trkpt lat="45.0197483" lon="6.8315685"><ele>1116.3333333333333</ele><time>2026-05-01T08:08:03.41Z</time></trkpt><trkpt lat="45.0195784" lon="6.8316255"><ele>1112.6666666666667</ele><time>2026-05-01T08:08:04.41Z</time></trkpt><trkpt lat="45.019403" lon="6.8316708"><ele>1109.0</ele><time>2026-05-01T08:08:05.41Z</time></trkpt><trkpt lat="45.0192244" lon="6.8317063"><ele>1109.3333333333335</ele><time>2026-05-01T08:08:06.41Z</time></trkpt><trkpt lat="45.0190424" lon="6.8317279"><ele>1109.6666666666667</ele><time>2026-05-01T08:08:07.41Z</time></trkpt><trkpt lat="45.0188607" lon="6.8317398"><ele>1110.0</ele><time>2026-05-01T08:08:08.41Z</time></trkpt><trkpt lat="45.0186798" lon="6.8317385"><ele>1110.0</ele><time>2026-05-01T08:08:09.41Z</time></trkpt><trkpt lat="45.018501" lon="6.8317252"><ele>1110.0</ele><time>2026-05-01T08:08:10.41Z</time></trkpt><trkpt lat="45.018323" lon="6.8316953"><ele>1110.0</ele><time>2026-05-01T08:08:11.41Z</time></trkpt><trkpt lat="45.0181419" lon="6.8316549"><ele>1112.6666666666667</ele><time>2026-05-01T08:08:12.41Z</time></trkpt><trkpt lat="45.0179599" lon="6.8315988"><ele>1115.3333333333335</ele><time>2026-05-01T08:08:13.41Z</time></trkpt><trkpt lat="45.0177763" lon="6.831538"><ele>1118.0</ele><time>2026-05-01T08:08:14.411Z</time></trkpt><trkpt lat="45.0175918" lon="6.8314472"><ele>1120.0</ele><time>2026-05-01T08:08:15.41Z</time></trkpt><trkpt lat="45.0174158" lon="6.8313583"><ele>1122.0</ele><time>2026-05-01T08:08:16.41Z</time></trkpt><trkpt lat="45.0172464" lon="6.8312454"><ele>1124.0</ele><time>2026-05-01T08:08:17.411Z</time></trkpt><trkpt lat="45.0170375" lon="6.8311277"><ele>1124.0</ele><time>2026-05-01T08:08:18.411Z</time></trkpt><trkpt lat="45.0168515" lon="6.8310189"><ele>1124.0</ele><time>2026-05-01T08:08:19.41Z</time></trkpt><trkpt lat="45.0166624" lon="6.8309108"><ele>1124.0</ele><time>2026-05-01T08:08:20.41Z</time></trkpt><trkpt lat="45.0164736" lon="6.8308028"><ele>1126.0</ele><time>2026-05-01T08:08:21.41Z</time></trkpt><trkpt lat="45.016282" lon="6.8306921"><ele>1128.0</ele><time>2026-05-01T08:08:22.41Z</time></trkpt><trkpt lat="45.0160864" lon="6.8305766"><ele>1130.0</ele><time>2026-05-01T08:08:23.411Z</time></trkpt><trkpt lat="45.0158908" lon="6.8304552"><ele>1128.3333333333335</ele><time>2026-05-01T08:08:24.411Z</time></trkpt><trkpt lat="45.0157006" lon="6.8303242"><ele>1126.6666666666667</ele><time>2026-05-01T08:08:25.41Z</time></trkpt><trkpt lat="45.0155121" lon="6.8301801"><ele>1125.0</ele><time>2026-05-01T08:08:26.41Z</time></trkpt><trkpt lat="45.0153257" lon="6.830021"><ele>1125.0</ele><time>2026-05-01T08:08:27.41Z</time></trkpt><trkpt lat="45.015138" lon="6.8298501"><ele>1125.0</ele><time>2026-05-01T08:08:28.41Z</time></trkpt><trkpt lat="45.0149492" lon="6.8296725"><ele>1126.3333333333333</ele><time>2026-05-01T08:08:29.41Z</time></trkpt><trkpt lat="45.0147602" lon="6.8294965"><ele>1127.6666666666665</ele><time>2026-05-01T08:08:30.41Z</time></trkpt><trkpt lat="45.0145725" lon="6.8293258"><ele>1129.0</ele><time>2026-05-01T08:08:31.41Z</time></trkpt><trkpt lat="45.014394" lon="6.8291623"><ele>1129.0</ele><time>2026-05-01T08:08:32.41Z</time></trkpt><trkpt lat="45.0142221" lon="6.829006"><ele>1129.0</ele><time>2026-05-01T08:08:33.41Z</time></trkpt><trkpt lat="45.0140557" lon="6.828864"><ele>1129.0</ele><time>2026-05-01T08:08:34.41Z</time></trkpt><trkpt lat="45.0138926" lon="6.828733"><ele>1129.3333333333333</ele><time>2026-05-01T08:08:35.41Z</time></trkpt><trkpt lat="45.0137295" lon="6.8286038"><ele>1129.6666666666667</ele><time>2026-05-01T08:08:36.411Z</time></trkpt><trkpt lat="45.0135559" lon="6.8284742"><ele>1130.0</ele><time>2026-05-01T08:08:37.41Z</time></trkpt><trkpt lat="45.0133649" lon="6.8283388"><ele>1137.5</ele><time>2026-05-01T08:08:38.411Z</time></trkpt><trkpt lat="45.0131557" lon="6.8281917"><ele>1145.0</ele><time>2026-05-01T08:08:39.411Z</time></trkpt><trkpt lat="45.0129383" lon="6.8280327"><ele>1145.0</ele><time>2026-05-01T08:08:40.41Z</time></trkpt><trkpt lat="45.0127063" lon="6.8278701"><ele>1145.0</ele><time>2026-05-01T08:08:41.41Z</time></trkpt><trkpt lat="45.012466" lon="6.8277076"><ele>1150.5</ele><time>2026-05-01T08:08:42.41Z</time></trkpt><trkpt lat="45.0122342" lon="6.8275562"><ele>1156.0</ele><time>2026-05-01T08:08:43.41Z</time></trkpt><trkpt lat="45.0120124" lon="6.8274055"><ele>1156.0</ele><time>2026-05-01T08:08:44.412Z</time></trkpt><trkpt lat="45.0117998" lon="6.8272664"><ele>1156.0</ele><time>2026-05-01T08:08:45.41Z</time></trkpt><trkpt lat="45.0116029" lon="6.8271362"><ele>1152.3333333333333</ele><time>2026-05-01T08:08:46.41Z</time></trkpt><trkpt lat="45.0114295" lon="6.8270075"><ele>1148.6666666666667</ele><time>2026-05-01T08:08:47.412Z</time></trkpt><trkpt lat="45.0112667" lon="6.8268955"><ele>1145.0</ele><time>2026-05-01T08:08:48.41Z</time></trkpt><trkpt lat="45.0111194" lon="6.8267824"><ele>1145.0</ele><time>2026-05-01T08:08:49.411Z</time></trkpt><trkpt lat="45.0109843" lon="6.826655"><ele>1145.0</ele><time>2026-05-01T08:08:50.411Z</time></trkpt><trkpt lat="45.0108622" lon="6.8265216"><ele>1145.0</ele><time>2026-05-01T08:08:51.41Z</time></trkpt><trkpt lat="45.0107453" lon="6.8263897"><ele>1156.6666666666667</ele><time>2026-05-01T08:08:52.411Z</time></trkpt><trkpt lat="45.010624" lon="6.8262655"><ele>1168.3333333333333</ele><time>2026-05-01T08:08:53.412Z</time></trkpt><trkpt lat="45.0104942" lon="6.8261472"><ele>1180.0</ele><time>2026-05-01T08:08:54.411Z</time></trkpt><trkpt lat="45.0103497" lon="6.8260487"><ele>1172.0</ele><time>2026-05-01T08:08:55.412Z</time></trkpt><trkpt lat="45.0101972" lon="6.825963"><ele>1164.0</ele><time>2026-05-01T08:08:56.411Z</time></trkpt><trkpt lat="45.0100433" lon="6.8258829"><ele>1156.0</ele><time>2026-05-01T08:08:57.41Z</time></trkpt><trkpt lat="45.0098941" lon="6.8257915"><ele>1156.0</ele><time>2026-05-01T08:08:58.411Z</time></trkpt><trkpt lat="45.0097515" lon="6.8256913"><ele>1156.0</ele><time>2026-05-01T08:08:59.41Z</time></trkpt><trkpt lat="45.0096171" lon="6.8255715"><ele>1156.0</ele><time>2026-05-01T08:09:00.41Z</time></trkpt><trkpt lat="45.009486" lon="6.8254341"><ele>1156.0</ele><time>2026-05-01T08:09:01.411Z</time></trkpt><trkpt lat="45.0093549" lon="6.8252878"><ele>1156.0</ele><time>2026-05-01T08:09:02.411Z</time></trkpt><trkpt lat="45.0092262" lon="6.8251314"><ele>1156.0</ele><time>2026-05-01T08:09:03.411Z</time></trkpt><trkpt lat="45.0090937" lon="6.8249815"><ele>1159.0</ele><time>2026-05-01T08:09:04.41Z</time></trkpt><trkpt lat="45.0089649" lon="6.8248312"><ele>1162.0</ele><time>2026-05-01T08:09:05.412Z</time></trkpt><trkpt lat="45.008842" lon="6.8246897"><ele>1165.0</ele><time>2026-05-01T08:09:06.413Z</time></trkpt><trkpt lat="45.0087192" lon="6.8245653"><ele>1165.0</ele><time>2026-05-01T08:09:07.411Z</time></trkpt><trkpt lat="45.0085939" lon="6.8244703"><ele>1165.0</ele><time>2026-05-01T08:09:08.41Z</time></trkpt><trkpt lat="45.0084701" lon="6.8243991"><ele>1165.0</ele><time>2026-05-01T08:09:09.411Z</time></trkpt><trkpt lat="45.0083433" lon="6.8243435"><ele>1165.0</ele><time>2026-05-01T08:09:10.411Z</time></trkpt><trkpt lat="45.0082139" lon="6.8243024"><ele>1163.5</ele><time>2026-05-01T08:09:11.411Z</time></trkpt><trkpt lat="45.008078" lon="6.8242881"><ele>1162.0</ele><time>2026-05-01T08:09:12.41Z</time></trkpt><trkpt lat="45.0079369" lon="6.8242846"><ele>1160.5</ele><time>2026-05-01T08:09:13.411Z</time></trkpt><trkpt lat="45.0077935" lon="6.8242783"><ele>1159.0</ele><time>2026-05-01T08:09:14.411Z</time></trkpt><trkpt lat="45.0076424" lon="6.8242656"><ele>1168.6666666666665</ele><time>2026-05-01T08:09:15.41Z</time></trkpt><trkpt lat="45.0074916" lon="6.8242364"><ele>1178.3333333333333</ele><time>2026-05-01T08:09:16.41Z</time></trkpt><trkpt lat="45.0073424" lon="6.8241819"><ele>1188.0</ele><time>2026-05-01T08:09:17.41Z</time></trkpt><trkpt lat="45.0071958" lon="6.8240922"><ele>1188.0</ele><time>2026-05-01T08:09:18.41Z</time></trkpt><trkpt lat="45.0070569" lon="6.82396"><ele>1188.0</ele><time>2026-05-01T08:09:19.411Z</time></trkpt><trkpt lat="45.0069231" lon="6.8237903"><ele>1188.0</ele><time>2026-05-01T08:09:20.411Z</time></trkpt><trkpt lat="45.0067799" lon="6.8236111"><ele>1191.6666666666667</ele><time>2026-05-01T08:09:21.41Z</time></trkpt><trkpt lat="45.006626" lon="6.823419"><ele>1195.3333333333335</ele><time>2026-05-01T08:09:22.411Z</time></trkpt><trkpt lat="45.0064718" lon="6.8232209"><ele>1199.0</ele><time>2026-05-01T08:09:23.411Z</time></trkpt><trkpt lat="45.0063096" lon="6.8230194"><ele>1199.0</ele><time>2026-05-01T08:09:24.41Z</time></trkpt><trkpt lat="45.0061431" lon="6.8228122"><ele>1199.0</ele><time>2026-05-01T08:09:25.41Z</time></trkpt><trkpt lat="45.0059728" lon="6.8226085"><ele>1199.0</ele><time>2026-05-01T08:09:26.41Z</time></trkpt><trkpt lat="45.005809" lon="6.8224098"><ele>1201.6666666666667</ele><time>2026-05-01T08:09:27.411Z</time></trkpt><trkpt lat="45.0056599" lon="6.8222166"><ele>1204.3333333333333</ele><time>2026-05-01T08:09:28.411Z</time></trkpt><trkpt lat="45.0055169" lon="6.8220397"><ele>1207.0</ele><time>2026-05-01T08:09:29.412Z</time></trkpt><trkpt lat="45.0053714" lon="6.8218605"><ele>1200.0</ele><time>2026-05-01T08:09:30.41Z</time></trkpt><trkpt lat="45.0052268" lon="6.8216824"><ele>1193.0</ele><time>2026-05-01T08:09:31.411Z</time></trkpt><trkpt lat="45.004922" lon="6.8211597"><ele>1199.3333333333335</ele><time>2026-05-01T08:09:34.41Z</time></trkpt><trkpt lat="45.0048385" lon="6.8209539"><ele>1205.6666666666667</ele><time>2026-05-01T08:09:35.41Z</time></trkpt><trkpt lat="45.0047771" lon="6.820741"><ele>1212.0</ele><time>2026-05-01T08:09:36.41Z</time></trkpt><trkpt lat="45.0047243" lon="6.8205238"><ele>1212.0</ele><time>2026-05-01T08:09:37.41Z</time></trkpt><trkpt lat="45.004682" lon="6.8202969"><ele>1212.0</ele><time>2026-05-01T08:09:38.41Z</time></trkpt><trkpt lat="45.0046392" lon="6.8200701"><ele>1212.0</ele><time>2026-05-01T08:09:39.411Z</time></trkpt><trkpt lat="45.0046053" lon="6.8198488"><ele>1209.5</ele><time>2026-05-01T08:09:40.411Z</time></trkpt><trkpt lat="45.00457" lon="6.819644"><ele>1207.0</ele><time>2026-05-01T08:09:41.411Z</time></trkpt><trkpt lat="45.0045248" lon="6.8194472"><ele>1204.5</ele><time>2026-05-01T08:09:42.411Z</time></trkpt><trkpt lat="45.0044615" lon="6.8192537"><ele>1202.0</ele><time>2026-05-01T08:09:43.412Z</time></trkpt><trkpt lat="45.0043807" lon="6.8190629"><ele>1199.6666666666667</ele><time>2026-05-01T08:09:44.412Z</time></trkpt><trkpt lat="45.0042899" lon="6.8188735"><ele>1197.3333333333333</ele><time>2026-05-01T08:09:45.41Z</time></trkpt><trkpt lat="45.0041907" lon="6.8186792"><ele>1195.0</ele><time>2026-05-01T08:09:46.41Z</time></trkpt><trkpt lat="45.0040906" lon="6.8184756"><ele>1202.6666666666665</ele><time>2026-05-01T08:09:47.411Z</time></trkpt><trkpt lat="45.0039841" lon="6.8182686"><ele>1210.3333333333333</ele><time>2026-05-01T08:09:48.41Z</time></trkpt><trkpt lat="45.0038728" lon="6.8180543"><ele>1218.0</ele><time>2026-05-01T08:09:49.41Z</time></trkpt><trkpt lat="45.0037638" lon="6.8178396"><ele>1215.0</ele><time>2026-05-01T08:09:50.41Z</time></trkpt><trkpt lat="45.0036538" lon="6.8176232"><ele>1212.0</ele><time>2026-05-01T08:09:51.411Z</time></trkpt><trkpt lat="45.0035497" lon="6.8174147"><ele>1209.0</ele><time>2026-05-01T08:09:52.411Z</time></trkpt><trkpt lat="45.0034456" lon="6.8172061"><ele>1209.0</ele><time>2026-05-01T08:09:53.413Z</time></trkpt><trkpt lat="45.0033417" lon="6.8169979"><ele>1209.0</ele><time>2026-05-01T08:09:54.41Z</time></trkpt><trkpt lat="45.0025428" lon="6.8157661"><ele>1220.3333333333333</ele><time>2026-05-01T08:10:01.41Z</time></trkpt><trkpt lat="45.0024678" lon="6.8155504"><ele>1231.6666666666665</ele><time>2026-05-01T08:10:02.41Z</time></trkpt><trkpt lat="45.0023899" lon="6.8153393"><ele>1243.0</ele><time>2026-05-01T08:10:03.41Z</time></trkpt><trkpt lat="45.002309" lon="6.8151255"><ele>1243.0</ele><time>2026-05-01T08:10:04.411Z</time></trkpt><trkpt lat="45.0022296" lon="6.8149076"><ele>1243.0</ele><time>2026-05-01T08:10:05.41Z</time></trkpt><trkpt lat="45.0021494" lon="6.8146781"><ele>1243.0</ele><time>2026-05-01T08:10:06.41Z</time></trkpt><trkpt lat="45.0020649" lon="6.8144433"><ele>1239.3333333333333</ele><time>2026-05-01T08:10:07.411Z</time></trkpt><trkpt lat="45.0019798" lon="6.8142066"><ele>1235.6666666666667</ele><time>2026-05-01T08:10:08.411Z</time></trkpt><trkpt lat="45.0018943" lon="6.8139742"><ele>1232.0</ele><time>2026-05-01T08:10:09.411Z</time></trkpt><trkpt lat="45.0018128" lon="6.8137568"><ele>1232.0</ele><time>2026-05-01T08:10:10.411Z</time></trkpt><trkpt lat="45.0017269" lon="6.8135562"><ele>1232.0</ele><time>2026-05-01T08:10:11.411Z</time></trkpt><trkpt lat="45.0016283" lon="6.8133798"><ele>1232.0</ele><time>2026-05-01T08:10:12.41Z</time></trkpt><trkpt lat="45.0015078" lon="6.8132249"><ele>1235.0</ele><time>2026-05-01T08:10:13.411Z</time></trkpt><trkpt lat="45.0013671" lon="6.8130899"><ele>1238.0</ele><time>2026-05-01T08:10:14.411Z</time></trkpt><trkpt lat="45.0012082" lon="6.8129694"><ele>1241.0</ele><time>2026-05-01T08:10:15.411Z</time></trkpt><trkpt lat="45.0010413" lon="6.8128577"><ele>1241.0</ele><time>2026-05-01T08:10:16.411Z</time></trkpt><trkpt lat="45.0008703" lon="6.8127476"><ele>1241.0</ele><time>2026-05-01T08:10:17.411Z</time></trkpt><trkpt lat="45.0007015" lon="6.8126413"><ele>1241.0</ele><time>2026-05-01T08:10:18.411Z</time></trkpt><trkpt lat="45.0005387" lon="6.8125378"><ele>1237.6666666666667</ele><time>2026-05-01T08:10:19.41Z</time></trkpt><trkpt lat="45.0003811" lon="6.8124419"><ele>1234.3333333333333</ele><time>2026-05-01T08:10:20.41Z</time></trkpt><trkpt lat="45.0002308" lon="6.8123531"><ele>1231.0</ele><time>2026-05-01T08:10:21.412Z</time></trkpt><trkpt lat="45.0000848" lon="6.8122669"><ele>1231.0</ele><time>2026-05-01T08:10:22.41Z</time></trkpt><trkpt lat="44.9999351" lon="6.8121931"><ele>1231.0</ele><time>2026-05-01T08:10:23.412Z</time></trkpt><trkpt lat="44.9997806" lon="6.812135"><ele>1231.0</ele><time>2026-05-01T08:10:24.411Z</time></trkpt><trkpt lat="44.9996117" lon="6.8120868"><ele>1231.0</ele><time>2026-05-01T08:10:25.41Z</time></trkpt><trkpt lat="44.9994234" lon="6.8120421"><ele>1231.0</ele><time>2026-05-01T08:10:26.411Z</time></trkpt><trkpt lat="44.9992228" lon="6.8119916"><ele>1231.0</ele><time>2026-05-01T08:10:27.412Z</time></trkpt><trkpt lat="44.9990294" lon="6.8119274"><ele>1225.6666666666665</ele><time>2026-05-01T08:10:28.41Z</time></trkpt><trkpt lat="44.9988497" lon="6.8118574"><ele>1220.3333333333333</ele><time>2026-05-01T08:10:29.411Z</time></trkpt><trkpt lat="44.9986848" lon="6.8117819"><ele>1215.0</ele><time>2026-05-01T08:10:30.41Z</time></trkpt><trkpt lat="44.9985276" lon="6.8116927"><ele>1215.0</ele><time>2026-05-01T08:10:31.411Z</time></trkpt><trkpt lat="44.9983789" lon="6.811584"><ele>1215.0</ele><time>2026-05-01T08:10:32.412Z</time></trkpt><trkpt lat="44.9982377" lon="6.8114532"><ele>1215.0</ele><time>2026-05-01T08:10:33.41Z</time></trkpt><trkpt lat="44.998101" lon="6.8113127"><ele>1213.3333333333333</ele><time>2026-05-01T08:10:34.41Z</time></trkpt><trkpt lat="44.9979683" lon="6.811158"><ele>1211.6666666666665</ele><time>2026-05-01T08:10:35.411Z</time></trkpt><trkpt lat="44.9978278" lon="6.8109883"><ele>1210.0</ele><time>2026-05-01T08:10:36.411Z</time></trkpt><trkpt lat="44.997682" lon="6.8108116"><ele>1210.0</ele><time>2026-05-01T08:10:37.412Z</time></trkpt><trkpt lat="44.9975265" lon="6.8106266"><ele>1210.0</ele><time>2026-05-01T08:10:38.412Z</time></trkpt><trkpt lat="44.9973642" lon="6.8104372"><ele>1210.0</ele><time>2026-05-01T08:10:39.411Z</time></trkpt><trkpt lat="44.9971977" lon="6.8102425"><ele>1214.6666666666665</ele><time>2026-05-01T08:10:40.41Z</time></trkpt><trkpt lat="44.9970298" lon="6.8100483"><ele>1219.3333333333333</ele><time>2026-05-01T08:10:41.411Z</time></trkpt><trkpt lat="44.9968608" lon="6.8098518"><ele>1224.0</ele><time>2026-05-01T08:10:42.411Z</time></trkpt><trkpt lat="44.9966977" lon="6.8096629"><ele>1228.0</ele><time>2026-05-01T08:10:43.413Z</time></trkpt><trkpt lat="44.9965347" lon="6.80947"><ele>1232.0</ele><time>2026-05-01T08:10:44.41Z</time></trkpt><trkpt lat="44.9963698" lon="6.8092827"><ele>1236.0</ele><time>2026-05-01T08:10:45.41Z</time></trkpt><trkpt lat="44.9962062" lon="6.8090966"><ele>1236.0</ele><time>2026-05-01T08:10:46.411Z</time></trkpt><trkpt lat="44.9960282" lon="6.808926"><ele>1236.0</ele><time>2026-05-01T08:10:47.41Z</time></trkpt><trkpt lat="44.9958397" lon="6.8087721"><ele>1236.0</ele><time>2026-05-01T08:10:48.411Z</time></trkpt><trkpt lat="44.9956438" lon="6.8086317"><ele>1232.3333333333333</ele><time>2026-05-01T08:10:49.41Z</time></trkpt><trkpt lat="44.9954484" lon="6.8084924"><ele>1228.6666666666665</ele><time>2026-05-01T08:10:50.41Z</time></trkpt><trkpt lat="44.995256" lon="6.8083663"><ele>1225.0</ele><time>2026-05-01T08:10:51.41Z</time></trkpt><trkpt lat="44.9950687" lon="6.8082475"><ele>1232.0</ele><time>2026-05-01T08:10:52.41Z</time></trkpt><trkpt lat="44.994878" lon="6.8081338"><ele>1239.0</ele><time>2026-05-01T08:10:53.411Z</time></trkpt><trkpt lat="44.9946894" lon="6.8080291"><ele>1246.0</ele><time>2026-05-01T08:10:54.411Z</time></trkpt><trkpt lat="44.9945063" lon="6.8079259"><ele>1246.0</ele><time>2026-05-01T08:10:55.41Z</time></trkpt><trkpt lat="44.9943313" lon="6.8078244"><ele>1246.0</ele><time>2026-05-01T08:10:56.411Z</time></trkpt><trkpt lat="44.9941569" lon="6.8077295"><ele>1246.0</ele><time>2026-05-01T08:10:57.411Z</time></trkpt><trkpt lat="44.9939806" lon="6.8076556"><ele>1238.3333333333333</ele><time>2026-05-01T08:10:58.412Z</time></trkpt><trkpt lat="44.9937968" lon="6.8076046"><ele>1230.6666666666667</ele><time>2026-05-01T08:10:59.412Z</time></trkpt><trkpt lat="44.9935999" lon="6.807592"><ele>1223.0</ele><time>2026-05-01T08:11:00.411Z</time></trkpt><trkpt lat="44.9933874" lon="6.807612"><ele>1226.5</ele><time>2026-05-01T08:11:01.41Z</time></trkpt><trkpt lat="44.9931564" lon="6.8076573"><ele>1230.0</ele><time>2026-05-01T08:11:02.412Z</time></trkpt><trkpt lat="44.992915" lon="6.8076869"><ele>1249.0</ele><time>2026-05-01T08:11:03.411Z</time></trkpt><trkpt lat="44.9926736" lon="6.8077157"><ele>1268.0</ele><time>2026-05-01T08:11:04.411Z</time></trkpt><trkpt lat="44.9924419" lon="6.8077184"><ele>1268.0</ele><time>2026-05-01T08:11:05.411Z</time></trkpt><trkpt lat="44.9922199" lon="6.8077318"><ele>1268.0</ele><time>2026-05-01T08:11:06.411Z</time></trkpt><trkpt lat="44.9920091" lon="6.8077496"><ele>1268.0</ele><time>2026-05-01T08:11:07.411Z</time></trkpt><trkpt lat="44.9918046" lon="6.807789"><ele>1264.6666666666667</ele><time>2026-05-01T08:11:08.411Z</time></trkpt><trkpt lat="44.9916025" lon="6.807862"><ele>1261.3333333333333</ele><time>2026-05-01T08:11:09.41Z</time></trkpt><trkpt lat="44.9914063" lon="6.8079806"><ele>1258.0</ele><time>2026-05-01T08:11:10.411Z</time></trkpt><trkpt lat="44.9912213" lon="6.8081228"><ele>1258.0</ele><time>2026-05-01T08:11:11.41Z</time></trkpt><trkpt lat="44.9910347" lon="6.8082613"><ele>1258.0</ele><time>2026-05-01T08:11:12.411Z</time></trkpt><trkpt lat="44.990838" lon="6.8083785"><ele>1258.0</ele><time>2026-05-01T08:11:13.411Z</time></trkpt><trkpt lat="44.9906284" lon="6.8084619"><ele>1253.0</ele><time>2026-05-01T08:11:14.411Z</time></trkpt><trkpt lat="44.9904096" lon="6.8085089"><ele>1248.0</ele><time>2026-05-01T08:11:15.411Z</time></trkpt><trkpt lat="44.990186" lon="6.8085118"><ele>1243.0</ele><time>2026-05-01T08:11:16.411Z</time></trkpt><trkpt lat="44.9899573" lon="6.8084718"><ele>1243.0</ele><time>2026-05-01T08:11:17.411Z</time></trkpt><trkpt lat="44.9897268" lon="6.8084165"><ele>1243.0</ele><time>2026-05-01T08:11:18.411Z</time></trkpt><trkpt lat="44.9894906" lon="6.8083611"><ele>1243.0</ele><time>2026-05-01T08:11:19.411Z</time></trkpt><trkpt lat="44.989248" lon="6.8083038"><ele>1243.0</ele><time>2026-05-01T08:11:20.411Z</time></trkpt><trkpt lat="44.9890048" lon="6.8082435"><ele>1248.0</ele><time>2026-05-01T08:11:21.41Z</time></trkpt><trkpt lat="44.9887702" lon="6.8081865"><ele>1253.0</ele><time>2026-05-01T08:11:22.411Z</time></trkpt><trkpt lat="44.9885444" lon="6.8081294"><ele>1256.6666666666667</ele><time>2026-05-01T08:11:23.411Z</time></trkpt><trkpt lat="44.9883296" lon="6.8080718"><ele>1260.3333333333333</ele><time>2026-05-01T08:11:24.411Z</time></trkpt><trkpt lat="44.9881179" lon="6.8080185"><ele>1264.0</ele><time>2026-05-01T08:11:25.41Z</time></trkpt><trkpt lat="44.9879093" lon="6.8079659"><ele>1264.0</ele><time>2026-05-01T08:11:26.411Z</time></trkpt><trkpt lat="44.9877025" lon="6.807917"><ele>1264.0</ele><time>2026-05-01T08:11:27.41Z</time></trkpt><trkpt lat="44.9875024" lon="6.8078678"><ele>1264.0</ele><time>2026-05-01T08:11:28.412Z</time></trkpt><trkpt lat="44.9873081" lon="6.8078178"><ele>1265.0</ele><time>2026-05-01T08:11:29.412Z</time></trkpt><trkpt lat="44.9871196" lon="6.8077652"><ele>1266.0</ele><time>2026-05-01T08:11:30.411Z</time></trkpt><trkpt lat="44.9869343" lon="6.8077138"><ele>1267.0</ele><time>2026-05-01T08:11:31.411Z</time></trkpt><trkpt lat="44.9867542" lon="6.8076555"><ele>1259.3333333333333</ele><time>2026-05-01T08:11:32.411Z</time></trkpt><trkpt lat="44.9865759" lon="6.807588"><ele>1251.6666666666667</ele><time>2026-05-01T08:11:33.411Z</time></trkpt><trkpt lat="44.9864015" lon="6.8075106"><ele>1244.0</ele><time>2026-05-01T08:11:34.411Z</time></trkpt><trkpt lat="44.9862259" lon="6.8074229"><ele>1244.0</ele><time>2026-05-01T08:11:35.411Z</time></trkpt><trkpt lat="44.9860501" lon="6.8073334"><ele>1244.0</ele><time>2026-05-01T08:11:36.411Z</time></trkpt><trkpt lat="44.9858782" lon="6.8072475"><ele>1244.0</ele><time>2026-05-01T08:11:37.41Z</time></trkpt><trkpt lat="44.985707" lon="6.8071779"><ele>1246.3333333333335</ele><time>2026-05-01T08:11:38.411Z</time></trkpt><trkpt lat="44.9855308" lon="6.8071114"><ele>1248.6666666666667</ele><time>2026-05-01T08:11:39.411Z</time></trkpt><trkpt lat="44.9853571" lon="6.8070539"><ele>1251.0</ele><time>2026-05-01T08:11:40.41Z</time></trkpt><trkpt lat="44.9851851" lon="6.8069998"><ele>1251.0</ele><time>2026-05-01T08:11:41.412Z</time></trkpt><trkpt lat="44.9850212" lon="6.8069542"><ele>1251.0</ele><time>2026-05-01T08:11:42.41Z</time></trkpt><trkpt lat="44.9848735" lon="6.8069156"><ele>1251.0</ele><time>2026-05-01T08:11:43.41Z</time></trkpt><trkpt lat="44.9847329" lon="6.806884"><ele>1253.25</ele><time>2026-05-01T08:11:44.411Z</time></trkpt><trkpt lat="44.9845932" lon="6.8068577"><ele>1255.5</ele><time>2026-05-01T08:11:45.411Z</time></trkpt><trkpt lat="44.9844511" lon="6.8068393"><ele>1257.75</ele><time>2026-05-01T08:11:46.411Z</time></trkpt><trkpt lat="44.9843058" lon="6.8068386"><ele>1260.0</ele><time>2026-05-01T08:11:47.41Z</time></trkpt><trkpt lat="44.9841555" lon="6.8068575"><ele>1263.3333333333333</ele><time>2026-05-01T08:11:48.41Z</time></trkpt><trkpt lat="44.983999" lon="6.8068856"><ele>1266.6666666666665</ele><time>2026-05-01T08:11:49.412Z</time></trkpt><trkpt lat="44.9838358" lon="6.8068937"><ele>1270.0</ele><time>2026-05-01T08:11:50.411Z</time></trkpt><trkpt lat="44.9836699" lon="6.806871"><ele>1262.6666666666665</ele><time>2026-05-01T08:11:51.412Z</time></trkpt><trkpt lat="44.9835014" lon="6.806812"><ele>1255.3333333333333</ele><time>2026-05-01T08:11:52.411Z</time></trkpt><trkpt lat="44.9833272" lon="6.8067471"><ele>1248.0</ele><time>2026-05-01T08:11:53.411Z</time></trkpt><trkpt lat="44.9831396" lon="6.8067085"><ele>1248.0</ele><time>2026-05-01T08:11:54.411Z</time></trkpt><trkpt lat="44.9829498" lon="6.8066927"><ele>1248.0</ele><time>2026-05-01T08:11:55.411Z</time></trkpt><trkpt lat="44.9827657" lon="6.8066851"><ele>1248.0</ele><time>2026-05-01T08:11:56.411Z</time></trkpt><trkpt lat="44.9825911" lon="6.8066789"><ele>1248.6666666666667</ele><time>2026-05-01T08:11:57.411Z</time></trkpt><trkpt lat="44.9824299" lon="6.8066637"><ele>1249.3333333333335</ele><time>2026-05-01T08:11:58.41Z</time></trkpt><trkpt lat="44.9822778" lon="6.8066252"><ele>1250.0</ele><time>2026-05-01T08:11:59.411Z</time></trkpt><trkpt lat="44.9821319" lon="6.8065779"><ele>1250.0</ele><time>2026-05-01T08:12:00.41Z</time></trkpt><trkpt lat="44.9819881" lon="6.8065257"><ele>1250.0</ele><time>2026-05-01T08:12:01.412Z</time></trkpt><trkpt lat="44.9818396" lon="6.8064671"><ele>1250.0</ele><time>2026-05-01T08:12:02.411Z</time></trkpt><trkpt lat="44.9816922" lon="6.8063907"><ele>1256.3333333333335</ele><time>2026-05-01T08:12:03.411Z</time></trkpt><trkpt lat="44.981555" lon="6.806286"><ele>1262.6666666666667</ele><time>2026-05-01T08:12:04.411Z</time></trkpt><trkpt lat="44.9814242" lon="6.8061615"><ele>1269.0</ele><time>2026-05-01T08:12:05.411Z</time></trkpt><trkpt lat="44.9812878" lon="6.806047"><ele>1266.0</ele><time>2026-05-01T08:12:06.411Z</time></trkpt><trkpt lat="44.9811348" lon="6.80596"><ele>1263.0</ele><time>2026-05-01T08:12:07.41Z</time></trkpt><trkpt lat="44.9809742" lon="6.8058954"><ele>1260.0</ele><time>2026-05-01T08:12:08.411Z</time></trkpt><trkpt lat="44.9808042" lon="6.8058486"><ele>1260.0</ele><time>2026-05-01T08:12:09.411Z</time></trkpt><trkpt lat="44.9806361" lon="6.8058046"><ele>1260.0</ele><time>2026-05-01T08:12:10.411Z</time></trkpt><trkpt lat="44.980472" lon="6.8057627"><ele>1260.0</ele><time>2026-05-01T08:12:11.411Z</time></trkpt><trkpt lat="44.9803047" lon="6.8057211"><ele>1260.0</ele><time>2026-05-01T08:12:12.411Z</time></trkpt><trkpt lat="44.98014" lon="6.8056834"><ele>1260.0</ele><time>2026-05-01T08:12:13.411Z</time></trkpt><trkpt lat="44.9799728" lon="6.805647"><ele>1260.0</ele><time>2026-05-01T08:12:14.41Z</time></trkpt><trkpt lat="44.9798023" lon="6.8056141"><ele>1263.0</ele><time>2026-05-01T08:12:15.41Z</time></trkpt><trkpt lat="44.9796287" lon="6.8055788"><ele>1266.0</ele><time>2026-05-01T08:12:16.412Z</time></trkpt><trkpt lat="44.9794529" lon="6.8055209"><ele>1269.0</ele><time>2026-05-01T08:12:17.411Z</time></trkpt><trkpt lat="44.9792812" lon="6.8054282"><ele>1272.6666666666667</ele><time>2026-05-01T08:12:18.412Z</time></trkpt><trkpt lat="44.9791109" lon="6.8053049"><ele>1276.3333333333335</ele><time>2026-05-01T08:12:19.412Z</time></trkpt><trkpt lat="44.978949" lon="6.8051466"><ele>1280.0</ele><time>2026-05-01T08:12:20.41Z</time></trkpt><trkpt lat="44.9787952" lon="6.8049618"><ele>1283.6666666666667</ele><time>2026-05-01T08:12:21.411Z</time></trkpt><trkpt lat="44.9786392" lon="6.8047588"><ele>1287.3333333333333</ele><time>2026-05-01T08:12:22.412Z</time></trkpt><trkpt lat="44.9784782" lon="6.8045479"><ele>1291.0</ele><time>2026-05-01T08:12:23.411Z</time></trkpt><trkpt lat="44.9783162" lon="6.8043322"><ele>1284.0</ele><time>2026-05-01T08:12:24.411Z</time></trkpt><trkpt lat="44.978152" lon="6.8041182"><ele>1277.0</ele><time>2026-05-01T08:12:25.41Z</time></trkpt><trkpt lat="44.9779889" lon="6.8039101"><ele>1270.0</ele><time>2026-05-01T08:12:26.41Z</time></trkpt><trkpt lat="44.977832" lon="6.8037116"><ele>1270.0</ele><time>2026-05-01T08:12:27.41Z</time></trkpt><trkpt lat="44.9776769" lon="6.803514"><ele>1270.0</ele><time>2026-05-01T08:12:28.41Z</time></trkpt><trkpt lat="44.9775264" lon="6.8033223"><ele>1270.0</ele><time>2026-05-01T08:12:29.411Z</time></trkpt><trkpt lat="44.9773851" lon="6.8031301"><ele>1269.0</ele><time>2026-05-01T08:12:30.411Z</time></trkpt><trkpt lat="44.9772547" lon="6.8029421"><ele>1268.0</ele><time>2026-05-01T08:12:31.411Z</time></trkpt><trkpt lat="44.9771382" lon="6.8027414"><ele>1267.0</ele><time>2026-05-01T08:12:32.411Z</time></trkpt><trkpt lat="44.9770423" lon="6.8025143"><ele>1267.0</ele><time>2026-05-01T08:12:33.41Z</time></trkpt><trkpt lat="44.9769648" lon="6.8022728"><ele>1267.0</ele><time>2026-05-01T08:12:34.411Z</time></trkpt><trkpt lat="44.9768941" lon="6.8020297"><ele>1267.0</ele><time>2026-05-01T08:12:35.411Z</time></trkpt><trkpt lat="44.9768283" lon="6.8017875"><ele>1265.0</ele><time>2026-05-01T08:12:36.412Z</time></trkpt><trkpt lat="44.9767671" lon="6.801555"><ele>1263.0</ele><time>2026-05-01T08:12:37.411Z</time></trkpt><trkpt lat="44.9767076" lon="6.8013303"><ele>1261.0</ele><time>2026-05-01T08:12:38.411Z</time></trkpt><trkpt lat="44.9766487" lon="6.8011081"><ele>1267.3333333333333</ele><time>2026-05-01T08:12:39.41Z</time></trkpt><trkpt lat="44.9765878" lon="6.8008904"><ele>1273.6666666666667</ele><time>2026-05-01T08:12:40.411Z</time></trkpt><trkpt lat="44.9765156" lon="6.8006795"><ele>1280.0</ele><time>2026-05-01T08:12:41.411Z</time></trkpt><trkpt lat="44.9764298" lon="6.8004904"><ele>1280.0</ele><time>2026-05-01T08:12:42.412Z</time></trkpt><trkpt lat="44.9763322" lon="6.8003205"><ele>1280.0</ele><time>2026-05-01T08:12:43.411Z</time></trkpt><trkpt lat="44.9762295" lon="6.800177"><ele>1280.0</ele><time>2026-05-01T08:12:44.41Z</time></trkpt><trkpt lat="44.97612" lon="6.8000514"><ele>1280.0</ele><time>2026-05-01T08:12:45.411Z</time></trkpt><trkpt lat="44.9759989" lon="6.7999472"><ele>1282.0</ele><time>2026-05-01T08:12:46.411Z</time></trkpt><trkpt lat="44.9758657" lon="6.7998583"><ele>1284.0</ele><time>2026-05-01T08:12:47.411Z</time></trkpt><trkpt lat="44.9757139" lon="6.7997914"><ele>1286.0</ele><time>2026-05-01T08:12:48.411Z</time></trkpt><trkpt lat="44.9755375" lon="6.7997424"><ele>1286.0</ele><time>2026-05-01T08:12:49.412Z</time></trkpt><trkpt lat="44.9753422" lon="6.7996815"><ele>1286.0</ele><time>2026-05-01T08:12:50.41Z</time></trkpt><trkpt lat="44.975136" lon="6.7996088"><ele>1286.0</ele><time>2026-05-01T08:12:51.41Z</time></trkpt><trkpt lat="44.9749157" lon="6.7995294"><ele>1295.0</ele><time>2026-05-01T08:12:52.411Z</time></trkpt><trkpt lat="44.9746933" lon="6.7994596"><ele>1304.0</ele><time>2026-05-01T08:12:53.411Z</time></trkpt><trkpt lat="44.9744707" lon="6.7993912"><ele>1298.3333333333335</ele><time>2026-05-01T08:12:54.411Z</time></trkpt><trkpt lat="44.9742602" lon="6.7993282"><ele>1292.6666666666667</ele><time>2026-05-01T08:12:55.411Z</time></trkpt><trkpt lat="44.9740617" lon="6.7992637"><ele>1287.0</ele><time>2026-05-01T08:12:56.412Z</time></trkpt><trkpt lat="44.9738719" lon="6.7991964"><ele>1287.0</ele><time>2026-05-01T08:12:57.411Z</time></trkpt><trkpt lat="44.9736927" lon="6.7991281"><ele>1287.0</ele><time>2026-05-01T08:12:58.412Z</time></trkpt><trkpt lat="44.9735214" lon="6.7990577"><ele>1287.0</ele><time>2026-05-01T08:12:59.411Z</time></trkpt><trkpt lat="44.9733566" lon="6.7989997"><ele>1288.3333333333333</ele><time>2026-05-01T08:13:00.412Z</time></trkpt><trkpt lat="44.9731978" lon="6.7989374"><ele>1289.6666666666665</ele><time>2026-05-01T08:13:01.41Z</time></trkpt><trkpt lat="44.9730458" lon="6.7988799"><ele>1291.0</ele><time>2026-05-01T08:13:02.411Z</time></trkpt><trkpt lat="44.9729023" lon="6.798826"><ele>1291.0</ele><time>2026-05-01T08:13:03.41Z</time></trkpt><trkpt lat="44.9727668" lon="6.7987703"><ele>1291.0</ele><time>2026-05-01T08:13:04.411Z</time></trkpt><trkpt lat="44.9726357" lon="6.7987177"><ele>1291.0</ele><time>2026-05-01T08:13:05.411Z</time></trkpt><trkpt lat="44.9725033" lon="6.7986654"><ele>1291.0</ele><time>2026-05-01T08:13:06.411Z</time></trkpt><trkpt lat="44.9723684" lon="6.7986144"><ele>1293.25</ele><time>2026-05-01T08:13:07.411Z</time></trkpt><trkpt lat="44.9722329" lon="6.7985627"><ele>1295.5</ele><time>2026-05-01T08:13:08.41Z</time></trkpt><trkpt lat="44.9721005" lon="6.7985047"><ele>1297.75</ele><time>2026-05-01T08:13:09.41Z</time></trkpt><trkpt lat="44.9719659" lon="6.7984398"><ele>1300.0</ele><time>2026-05-01T08:13:10.41Z</time></trkpt><trkpt lat="44.9718294" lon="6.7983715"><ele>1298.75</ele><time>2026-05-01T08:13:11.411Z</time></trkpt><trkpt lat="44.9716879" lon="6.7982997"><ele>1297.5</ele><time>2026-05-01T08:13:12.41Z</time></trkpt><trkpt lat="44.9715478" lon="6.7982265"><ele>1296.25</ele><time>2026-05-01T08:13:13.411Z</time></trkpt><trkpt lat="44.9714139" lon="6.7981547"><ele>1295.0</ele><time>2026-05-01T08:13:14.411Z</time></trkpt><trkpt lat="44.9712807" lon="6.7980817"><ele>1295.0</ele><time>2026-05-01T08:13:15.411Z</time></trkpt><trkpt lat="44.9711432" lon="6.7980223"><ele>1295.0</ele><time>2026-05-01T08:13:16.412Z</time></trkpt><trkpt lat="44.9710049" lon="6.7979956"><ele>1295.0</ele><time>2026-05-01T08:13:17.411Z</time></trkpt><trkpt lat="44.9708637" lon="6.7980075"><ele>1295.0</ele><time>2026-05-01T08:13:18.41Z</time></trkpt><trkpt lat="44.9707188" lon="6.7980631"><ele>1298.3333333333335</ele><time>2026-05-01T08:13:19.41Z</time></trkpt><trkpt lat="44.9705652" lon="6.7981677"><ele>1301.6666666666667</ele><time>2026-05-01T08:13:20.411Z</time></trkpt><trkpt lat="44.9703957" lon="6.7983029"><ele>1305.0</ele><time>2026-05-01T08:13:21.411Z</time></trkpt><trkpt lat="44.9702099" lon="6.798428"><ele>1311.0</ele><time>2026-05-01T08:13:22.411Z</time></trkpt><trkpt lat="44.9700147" lon="6.7985109"><ele>1317.0</ele><time>2026-05-01T08:13:23.411Z</time></trkpt><trkpt lat="44.9698046" lon="6.7985556"><ele>1323.0</ele><time>2026-05-01T08:13:24.411Z</time></trkpt><trkpt lat="44.9695836" lon="6.7985635"><ele>1323.0</ele><time>2026-05-01T08:13:25.41Z</time></trkpt><trkpt lat="44.9693519" lon="6.7985584"><ele>1323.0</ele><time>2026-05-01T08:13:26.411Z</time></trkpt><trkpt lat="44.9691109" lon="6.7985573"><ele>1323.0</ele><time>2026-05-01T08:13:27.411Z</time></trkpt><trkpt lat="44.9688662" lon="6.798564"><ele>1323.0</ele><time>2026-05-01T08:13:28.412Z</time></trkpt><trkpt lat="44.9686218" lon="6.7985742"><ele>1323.0</ele><time>2026-05-01T08:13:29.411Z</time></trkpt><trkpt lat="44.9683871" lon="6.7985813"><ele>1323.0</ele><time>2026-05-01T08:13:30.411Z</time></trkpt><trkpt lat="44.9681666" lon="6.7985734"><ele>1322.3333333333333</ele><time>2026-05-01T08:13:31.411Z</time></trkpt><trkpt lat="44.9679543" lon="6.7985341"><ele>1321.6666666666665</ele><time>2026-05-01T08:13:32.411Z</time></trkpt><trkpt lat="44.9677486" lon="6.7984607"><ele>1321.0</ele><time>2026-05-01T08:13:33.41Z</time></trkpt><trkpt lat="44.9675525" lon="6.7983488"><ele>1317.3333333333333</ele><time>2026-05-01T08:13:34.41Z</time></trkpt><trkpt lat="44.9673748" lon="6.7981979"><ele>1313.6666666666667</ele><time>2026-05-01T08:13:35.41Z</time></trkpt><trkpt lat="44.967213" lon="6.7980331"><ele>1310.0</ele><time>2026-05-01T08:13:36.412Z</time></trkpt><trkpt lat="44.96705" lon="6.7978875"><ele>1310.0</ele><time>2026-05-01T08:13:37.412Z</time></trkpt><trkpt lat="44.9668762" lon="6.7977672"><ele>1310.0</ele><time>2026-05-01T08:13:38.411Z</time></trkpt><trkpt lat="44.9666954" lon="6.7976555"><ele>1310.0</ele><time>2026-05-01T08:13:39.411Z</time></trkpt><trkpt lat="44.9665128" lon="6.7975421"><ele>1310.3333333333335</ele><time>2026-05-01T08:13:40.411Z</time></trkpt><trkpt lat="44.9663419" lon="6.7974273"><ele>1310.6666666666667</ele><time>2026-05-01T08:13:41.411Z</time></trkpt><trkpt lat="44.9661779" lon="6.7973166"><ele>1311.0</ele><time>2026-05-01T08:13:42.411Z</time></trkpt><trkpt lat="44.9660168" lon="6.797209"><ele>1312.3333333333333</ele><time>2026-05-01T08:13:43.411Z</time></trkpt><trkpt lat="44.9658559" lon="6.7971039"><ele>1313.6666666666665</ele><time>2026-05-01T08:13:44.411Z</time></trkpt><trkpt lat="44.9656888" lon="6.796992"><ele>1315.0</ele><time>2026-05-01T08:13:45.411Z</time></trkpt><trkpt lat="44.9655161" lon="6.7968746"><ele>1314.6666666666665</ele><time>2026-05-01T08:13:46.411Z</time></trkpt><trkpt lat="44.9653372" lon="6.7967556"><ele>1314.3333333333333</ele><time>2026-05-01T08:13:47.411Z</time></trkpt><trkpt lat="44.9651568" lon="6.7966452"><ele>1314.0</ele><time>2026-05-01T08:13:48.412Z</time></trkpt><trkpt lat="44.9649816" lon="6.796536"><ele>1314.0</ele><time>2026-05-01T08:13:49.411Z</time></trkpt><trkpt lat="44.9648154" lon="6.7964289"><ele>1314.0</ele><time>2026-05-01T08:13:50.411Z</time></trkpt><trkpt lat="44.9646573" lon="6.796321"><ele>1314.0</ele><time>2026-05-01T08:13:51.411Z</time></trkpt><trkpt lat="44.9645076" lon="6.7962191"><ele>1314.0</ele><time>2026-05-01T08:13:52.411Z</time></trkpt><trkpt lat="44.9643547" lon="6.7961288"><ele>1314.0</ele><time>2026-05-01T08:13:53.412Z</time></trkpt><trkpt lat="44.9641956" lon="6.7960488"><ele>1314.0</ele><time>2026-05-01T08:13:54.412Z</time></trkpt><trkpt lat="44.9640221" lon="6.7959984"><ele>1315.0</ele><time>2026-05-01T08:13:55.41Z</time></trkpt><trkpt lat="44.9638351" lon="6.7959809"><ele>1316.0</ele><time>2026-05-01T08:13:56.41Z</time></trkpt><trkpt lat="44.9636338" lon="6.7959962"><ele>1317.0</ele><time>2026-05-01T08:13:57.41Z</time></trkpt><trkpt lat="44.9634247" lon="6.7960233"><ele>1325.0</ele><time>2026-05-01T08:13:58.411Z</time></trkpt><trkpt lat="44.9632132" lon="6.796052"><ele>1333.0</ele><time>2026-05-01T08:13:59.41Z</time></trkpt><trkpt lat="44.9630067" lon="6.7960803"><ele>1341.0</ele><time>2026-05-01T08:14:00.411Z</time></trkpt><trkpt lat="44.9628063" lon="6.7960998"><ele>1341.0</ele><time>2026-05-01T08:14:01.411Z</time></trkpt><trkpt lat="44.9626102" lon="6.7961113"><ele>1341.0</ele><time>2026-05-01T08:14:02.41Z</time></trkpt><trkpt lat="44.9624271" lon="6.7961061"><ele>1341.0</ele><time>2026-05-01T08:14:03.41Z</time></trkpt><trkpt lat="44.9622527" lon="6.7960759"><ele>1343.3333333333333</ele><time>2026-05-01T08:14:04.41Z</time></trkpt><trkpt lat="44.9620907" lon="6.7960252"><ele>1345.6666666666665</ele><time>2026-05-01T08:14:05.411Z</time></trkpt><trkpt lat="44.9619408" lon="6.7959508"><ele>1348.0</ele><time>2026-05-01T08:14:06.411Z</time></trkpt><trkpt lat="44.9618047" lon="6.7958577"><ele>1348.0</ele><time>2026-05-01T08:14:07.411Z</time></trkpt><trkpt lat="44.9616787" lon="6.795751"><ele>1348.0</ele><time>2026-05-01T08:14:08.41Z</time></trkpt><trkpt lat="44.9615646" lon="6.7956335"><ele>1348.0</ele><time>2026-05-01T08:14:09.411Z</time></trkpt><trkpt lat="44.9614575" lon="6.7955124"><ele>1348.0</ele><time>2026-05-01T08:14:10.41Z</time></trkpt><trkpt lat="44.9613479" lon="6.7953898"><ele>1348.0</ele><time>2026-05-01T08:14:11.411Z</time></trkpt><trkpt lat="44.961233" lon="6.7952789"><ele>1348.0</ele><time>2026-05-01T08:14:12.41Z</time></trkpt><trkpt lat="44.9611042" lon="6.7951849"><ele>1348.0</ele><time>2026-05-01T08:14:13.411Z</time></trkpt><trkpt lat="44.9609713" lon="6.7951203"><ele>1348.0</ele><time>2026-05-01T08:14:14.41Z</time></trkpt><trkpt lat="44.9608292" lon="6.7950854"><ele>1343.3333333333333</ele><time>2026-05-01T08:14:15.411Z</time></trkpt><trkpt lat="44.9606838" lon="6.7950857"><ele>1338.6666666666667</ele><time>2026-05-01T08:14:16.41Z</time></trkpt><trkpt lat="44.9605262" lon="6.7951368"><ele>1334.0</ele><time>2026-05-01T08:14:17.411Z</time></trkpt><trkpt lat="44.960372" lon="6.7951934"><ele>1344.0</ele><time>2026-05-01T08:14:18.41Z</time></trkpt><trkpt lat="44.9602213" lon="6.7952476"><ele>1354.0</ele><time>2026-05-01T08:14:19.411Z</time></trkpt><trkpt lat="44.9600743" lon="6.7952937"><ele>1364.0</ele><time>2026-05-01T08:14:20.411Z</time></trkpt><trkpt lat="44.9599237" lon="6.7953222"><ele>1364.0</ele><time>2026-05-01T08:14:21.411Z</time></trkpt><trkpt lat="44.9597709" lon="6.7953366"><ele>1364.0</ele><time>2026-05-01T08:14:22.41Z</time></trkpt><trkpt lat="44.9596122" lon="6.7953332"><ele>1364.0</ele><time>2026-05-01T08:14:23.411Z</time></trkpt><trkpt lat="44.9594528" lon="6.7953103"><ele>1364.0</ele><time>2026-05-01T08:14:24.41Z</time></trkpt><trkpt lat="44.9592931" lon="6.7952859"><ele>1364.0</ele><time>2026-05-01T08:14:25.411Z</time></trkpt><trkpt lat="44.9591309" lon="6.7952578"><ele>1364.0</ele><time>2026-05-01T08:14:26.41Z</time></trkpt><trkpt lat="44.9589685" lon="6.7952249"><ele>1363.0</ele><time>2026-05-01T08:14:27.411Z</time></trkpt><trkpt lat="44.9588099" lon="6.795178"><ele>1362.0</ele><time>2026-05-01T08:14:28.412Z</time></trkpt><trkpt lat="44.9586534" lon="6.7951151"><ele>1361.0</ele><time>2026-05-01T08:14:29.411Z</time></trkpt><trkpt lat="44.9585002" lon="6.7950387"><ele>1354.0</ele><time>2026-05-01T08:14:30.411Z</time></trkpt><trkpt lat="44.9583527" lon="6.7949525"><ele>1347.0</ele><time>2026-05-01T08:14:31.41Z</time></trkpt><trkpt lat="44.9582141" lon="6.7948571"><ele>1340.0</ele><time>2026-05-01T08:14:32.411Z</time></trkpt><trkpt lat="44.9580853" lon="6.7947653"><ele>1340.0</ele><time>2026-05-01T08:14:33.411Z</time></trkpt><trkpt lat="44.9579614" lon="6.794679"><ele>1340.0</ele><time>2026-05-01T08:14:34.411Z</time></trkpt><trkpt lat="44.9578446" lon="6.7945963"><ele>1340.0</ele><time>2026-05-01T08:14:35.412Z</time></trkpt><trkpt lat="44.9577367" lon="6.7945185"><ele>1340.0</ele><time>2026-05-01T08:14:36.411Z</time></trkpt><trkpt lat="44.9576293" lon="6.7944445"><ele>1340.4</ele><time>2026-05-01T08:14:37.411Z</time></trkpt><trkpt lat="44.9575277" lon="6.7943672"><ele>1340.8</ele><time>2026-05-01T08:14:38.412Z</time></trkpt><trkpt lat="44.9574297" lon="6.7942919"><ele>1341.1999999999998</ele><time>2026-05-01T08:14:39.411Z</time></trkpt><trkpt lat="44.957335" lon="6.7942123"><ele>1341.6</ele><time>2026-05-01T08:14:40.411Z</time></trkpt><trkpt lat="44.95724" lon="6.7941354"><ele>1342.0</ele><time>2026-05-01T08:14:41.412Z</time></trkpt><trkpt lat="44.9571509" lon="6.7940574"><ele>1342.0</ele><time>2026-05-01T08:14:42.411Z</time></trkpt><trkpt lat="44.9570634" lon="6.7939722"><ele>1342.0</ele><time>2026-05-01T08:14:43.411Z</time></trkpt><trkpt lat="44.9569793" lon="6.7938781"><ele>1342.0</ele><time>2026-05-01T08:14:44.411Z</time></trkpt><trkpt lat="44.9569007" lon="6.7937762"><ele>1342.0</ele><time>2026-05-01T08:14:45.411Z</time></trkpt><trkpt lat="44.9568208" lon="6.7936637"><ele>1342.0</ele><time>2026-05-01T08:14:46.411Z</time></trkpt><trkpt lat="44.9567393" lon="6.7935428"><ele>1342.5</ele><time>2026-05-01T08:14:47.411Z</time></trkpt><trkpt lat="44.9566561" lon="6.7934107"><ele>1343.0</ele><time>2026-05-01T08:14:48.411Z</time></trkpt><trkpt lat="44.9565691" lon="6.793283"><ele>1343.5</ele><time>2026-05-01T08:14:49.411Z</time></trkpt><trkpt lat="44.9564704" lon="6.7931619"><ele>1344.0</ele><time>2026-05-01T08:14:50.412Z</time></trkpt><trkpt lat="44.9563599" lon="6.7930723"><ele>1344.0</ele><time>2026-05-01T08:14:51.41Z</time></trkpt><trkpt lat="44.95624" lon="6.7930126"><ele>1344.0</ele><time>2026-05-01T08:14:52.411Z</time></trkpt><trkpt lat="44.9561184" lon="6.7929877"><ele>1344.0</ele><time>2026-05-01T08:14:53.412Z</time></trkpt><trkpt lat="44.9559997" lon="6.7929758"><ele>1344.0</ele><time>2026-05-01T08:14:54.411Z</time></trkpt><trkpt lat="44.955883" lon="6.7929665"><ele>1345.4</ele><time>2026-05-01T08:14:55.411Z</time></trkpt><trkpt lat="44.9557699" lon="6.7929523"><ele>1346.8000000000002</ele><time>2026-05-01T08:14:56.411Z</time></trkpt><trkpt lat="44.9556666" lon="6.7929302"><ele>1348.1999999999998</ele><time>2026-05-01T08:14:57.41Z</time></trkpt><trkpt lat="44.9555776" lon="6.7929034"><ele>1349.6</ele><time>2026-05-01T08:14:58.411Z</time></trkpt><trkpt lat="44.9554953" lon="6.7928702"><ele>1351.0</ele><time>2026-05-01T08:14:59.41Z</time></trkpt><trkpt lat="44.9554188" lon="6.7928359"><ele>1351.0</ele><time>2026-05-01T08:15:00.41Z</time></trkpt><trkpt lat="44.9553417" lon="6.7928032"><ele>1351.0</ele><time>2026-05-01T08:15:01.411Z</time></trkpt><trkpt lat="44.9552606" lon="6.7927578"><ele>1351.0</ele><time>2026-05-01T08:15:02.411Z</time></trkpt><trkpt lat="44.9551745" lon="6.7926967"><ele>1351.0</ele><time>2026-05-01T08:15:03.411Z</time></trkpt><trkpt lat="44.9550749" lon="6.7926058"><ele>1351.0</ele><time>2026-05-01T08:15:04.411Z</time></trkpt><trkpt lat="44.954961" lon="6.7924821"><ele>1348.0</ele><time>2026-05-01T08:15:05.41Z</time></trkpt><trkpt lat="44.9548362" lon="6.7923219"><ele>1345.0</ele><time>2026-05-01T08:15:06.412Z</time></trkpt><trkpt lat="44.9547175" lon="6.7921582"><ele>1342.0</ele><time>2026-05-01T08:15:07.411Z</time></trkpt><trkpt lat="44.9546073" lon="6.7919975"><ele>1342.0</ele><time>2026-05-01T08:15:08.412Z</time></trkpt><trkpt lat="44.9545049" lon="6.7918501"><ele>1342.0</ele><time>2026-05-01T08:15:09.411Z</time></trkpt><trkpt lat="44.9544184" lon="6.7917101"><ele>1342.0</ele><time>2026-05-01T08:15:10.411Z</time></trkpt><trkpt lat="44.9543576" lon="6.7915735"><ele>1342.0</ele><time>2026-05-01T08:15:11.411Z</time></trkpt><trkpt lat="44.9543149" lon="6.7914272"><ele>1342.1999999999998</ele><time>2026-05-01T08:15:12.41Z</time></trkpt><trkpt lat="44.9542842" lon="6.7912736"><ele>1342.4</ele><time>2026-05-01T08:15:13.411Z</time></trkpt><trkpt lat="44.9542823" lon="6.7911265"><ele>1342.6</ele><time>2026-05-01T08:15:14.411Z</time></trkpt><trkpt lat="44.9542896" lon="6.7909897"><ele>1342.8000000000002</ele><time>2026-05-01T08:15:15.411Z</time></trkpt><trkpt lat="44.9542974" lon="6.7908583"><ele>1343.0</ele><time>2026-05-01T08:15:16.411Z</time></trkpt><trkpt lat="44.9542928" lon="6.7907243"><ele>1343.0</ele><time>2026-05-01T08:15:17.411Z</time></trkpt><trkpt lat="44.9542737" lon="6.7906007"><ele>1343.0</ele><time>2026-05-01T08:15:18.412Z</time></trkpt><trkpt lat="44.9542506" lon="6.7904895"><ele>1343.0</ele><time>2026-05-01T08:15:19.411Z</time></trkpt><trkpt lat="44.9542301" lon="6.7903906"><ele>1343.0</ele><time>2026-05-01T08:15:20.411Z</time></trkpt><trkpt lat="44.9542027" lon="6.7902947"><ele>1343.0</ele><time>2026-05-01T08:15:21.411Z</time></trkpt><trkpt lat="44.9541553" lon="6.7902089"><ele>1343.0</ele><time>2026-05-01T08:15:22.411Z</time></trkpt><trkpt lat="44.9540796" lon="6.7901371"><ele>1343.5</ele><time>2026-05-01T08:15:23.411Z</time></trkpt><trkpt lat="44.9539775" lon="6.7900773"><ele>1344.0</ele><time>2026-05-01T08:15:24.411Z</time></trkpt><trkpt lat="44.9538618" lon="6.7900062"><ele>1344.5</ele><time>2026-05-01T08:15:25.411Z</time></trkpt><trkpt lat="44.953713" lon="6.7898858"><ele>1345.0</ele><time>2026-05-01T08:15:26.411Z</time></trkpt><trkpt lat="44.953575" lon="6.7897416"><ele>1345.0</ele><time>2026-05-01T08:15:27.412Z</time></trkpt><trkpt lat="44.9534352" lon="6.789596"><ele>1345.0</ele><time>2026-05-01T08:15:28.41Z</time></trkpt><trkpt lat="44.9532927" lon="6.7894478"><ele>1345.0</ele><time>2026-05-01T08:15:29.411Z</time></trkpt><trkpt lat="44.9531544" lon="6.7893112"><ele>1346.3333333333333</ele><time>2026-05-01T08:15:30.411Z</time></trkpt><trkpt lat="44.9530271" lon="6.7891669"><ele>1347.6666666666667</ele><time>2026-05-01T08:15:31.411Z</time></trkpt><trkpt lat="44.9529189" lon="6.7890122"><ele>1349.0</ele><time>2026-05-01T08:15:32.411Z</time></trkpt><trkpt lat="44.9528221" lon="6.788844"><ele>1349.0</ele><time>2026-05-01T08:15:33.411Z</time></trkpt><trkpt lat="44.9527353" lon="6.7886706"><ele>1349.0</ele><time>2026-05-01T08:15:34.411Z</time></trkpt><trkpt lat="44.95265" lon="6.7884892"><ele>1349.0</ele><time>2026-05-01T08:15:35.411Z</time></trkpt><trkpt lat="44.9525625" lon="6.7883066"><ele>1350.6666666666667</ele><time>2026-05-01T08:15:36.41Z</time></trkpt><trkpt lat="44.9524749" lon="6.7881206"><ele>1352.3333333333333</ele><time>2026-05-01T08:15:37.411Z</time></trkpt><trkpt lat="44.9523821" lon="6.7879266"><ele>1354.0</ele><time>2026-05-01T08:15:38.411Z</time></trkpt><trkpt lat="44.9522843" lon="6.7877243"><ele>1355.3333333333333</ele><time>2026-05-01T08:15:39.41Z</time></trkpt><trkpt lat="44.9521837" lon="6.7875112"><ele>1356.6666666666667</ele><time>2026-05-01T08:15:40.411Z</time></trkpt><trkpt lat="44.9520899" lon="6.7872823"><ele>1358.0</ele><time>2026-05-01T08:15:41.411Z</time></trkpt><trkpt lat="44.9520032" lon="6.7870305"><ele>1364.0</ele><time>2026-05-01T08:15:42.411Z</time></trkpt><trkpt lat="44.9519339" lon="6.7867645"><ele>1370.0</ele><time>2026-05-01T08:15:43.41Z</time></trkpt><trkpt lat="44.9518672" lon="6.7864976"><ele>1376.0</ele><time>2026-05-01T08:15:44.411Z</time></trkpt><trkpt lat="44.95181" lon="6.7862525"><ele>1376.0</ele><time>2026-05-01T08:15:45.412Z</time></trkpt><trkpt lat="44.9517447" lon="6.7860267"><ele>1376.0</ele><time>2026-05-01T08:15:46.412Z</time></trkpt><trkpt lat="44.9516563" lon="6.7858194"><ele>1376.0</ele><time>2026-05-01T08:15:47.412Z</time></trkpt><trkpt lat="44.9515459" lon="6.7856413"><ele>1375.0</ele><time>2026-05-01T08:15:48.411Z</time></trkpt><trkpt lat="44.9514204" lon="6.7854881"><ele>1374.0</ele><time>2026-05-01T08:15:49.412Z</time></trkpt><trkpt lat="44.9512752" lon="6.7853737"><ele>1373.0</ele><time>2026-05-01T08:15:50.411Z</time></trkpt><trkpt lat="44.9511224" lon="6.7852997"><ele>1373.0</ele><time>2026-05-01T08:15:51.411Z</time></trkpt><trkpt lat="44.9509685" lon="6.7852455"><ele>1373.0</ele><time>2026-05-01T08:15:52.411Z</time></trkpt><trkpt lat="44.9508055" lon="6.7852732"><ele>1373.0</ele><time>2026-05-01T08:15:53.411Z</time></trkpt><trkpt lat="44.9506435" lon="6.7853301"><ele>1372.0</ele><time>2026-05-01T08:15:54.411Z</time></trkpt><trkpt lat="44.9504954" lon="6.7854276"><ele>1371.0</ele><time>2026-05-01T08:15:55.411Z</time></trkpt><trkpt lat="44.9503767" lon="6.7855587"><ele>1370.0</ele><time>2026-05-01T08:15:56.41Z</time></trkpt><trkpt lat="44.9502828" lon="6.7857133"><ele>1370.0</ele><time>2026-05-01T08:15:57.411Z</time></trkpt><trkpt lat="44.9502127" lon="6.7858966"><ele>1370.0</ele><time>2026-05-01T08:15:58.411Z</time></trkpt><trkpt lat="44.9501702" lon="6.786113"><ele>1370.0</ele><time>2026-05-01T08:15:59.411Z</time></trkpt><trkpt lat="44.9501588" lon="6.7863438"><ele>1368.3333333333335</ele><time>2026-05-01T08:16:00.411Z</time></trkpt><trkpt lat="44.9501855" lon="6.7865898"><ele>1366.6666666666667</ele><time>2026-05-01T08:16:01.412Z</time></trkpt><trkpt lat="44.9502307" lon="6.7868466"><ele>1365.0</ele><time>2026-05-01T08:16:02.411Z</time></trkpt><trkpt lat="44.9502871" lon="6.7871096"><ele>1365.0</ele><time>2026-05-01T08:16:03.411Z</time></trkpt><trkpt lat="44.9503391" lon="6.7873646"><ele>1365.0</ele><time>2026-05-01T08:16:04.411Z</time></trkpt><trkpt lat="44.9503852" lon="6.7876064"><ele>1365.0</ele><time>2026-05-01T08:16:05.412Z</time></trkpt><trkpt lat="44.9504198" lon="6.787844"><ele>1365.6666666666667</ele><time>2026-05-01T08:16:06.411Z</time></trkpt><trkpt lat="44.9504212" lon="6.7880711"><ele>1366.3333333333335</ele><time>2026-05-01T08:16:07.411Z</time></trkpt><trkpt lat="44.9503872" lon="6.7882808"><ele>1367.0</ele><time>2026-05-01T08:16:08.41Z</time></trkpt><trkpt lat="44.9503256" lon="6.7884652"><ele>1368.25</ele><time>2026-05-01T08:16:09.411Z</time></trkpt><trkpt lat="44.9502288" lon="6.7886151"><ele>1369.5</ele><time>2026-05-01T08:16:10.41Z</time></trkpt><trkpt lat="44.950113" lon="6.7887217"><ele>1370.75</ele><time>2026-05-01T08:16:11.411Z</time></trkpt><trkpt lat="44.9500029" lon="6.7887831"><ele>1372.0</ele><time>2026-05-01T08:16:12.411Z</time></trkpt><trkpt lat="44.9499101" lon="6.7888141"><ele>1374.6666666666665</ele><time>2026-05-01T08:16:13.411Z</time></trkpt><trkpt lat="44.9498304" lon="6.7888199"><ele>1377.3333333333333</ele><time>2026-05-01T08:16:14.411Z</time></trkpt><trkpt lat="44.9497541" lon="6.7888076"><ele>1380.0</ele><time>2026-05-01T08:16:15.413Z</time></trkpt><trkpt lat="44.9496827" lon="6.7887735"><ele>1382.6666666666667</ele><time>2026-05-01T08:16:16.41Z</time></trkpt><trkpt lat="44.949618" lon="6.7887103"><ele>1385.3333333333335</ele><time>2026-05-01T08:16:17.412Z</time></trkpt><trkpt lat="44.9495668" lon="6.7886217"><ele>1388.0</ele><time>2026-05-01T08:16:18.411Z</time></trkpt><trkpt lat="44.9495346" lon="6.7885148"><ele>1386.8000000000002</ele><time>2026-05-01T08:16:19.411Z</time></trkpt><trkpt lat="44.9495325" lon="6.7883847"><ele>1385.6</ele><time>2026-05-01T08:16:20.411Z</time></trkpt><trkpt lat="44.9495572" lon="6.7882396"><ele>1384.4</ele><time>2026-05-01T08:16:21.41Z</time></trkpt><trkpt lat="44.9496051" lon="6.7880888"><ele>1383.1999999999998</ele><time>2026-05-01T08:16:22.411Z</time></trkpt><trkpt lat="44.9496555" lon="6.7879297"><ele>1382.0</ele><time>2026-05-01T08:16:23.411Z</time></trkpt><trkpt lat="44.9496973" lon="6.7877651"><ele>1383.6</ele><time>2026-05-01T08:16:24.413Z</time></trkpt><trkpt lat="44.9497255" lon="6.7875976"><ele>1385.1999999999998</ele><time>2026-05-01T08:16:25.411Z</time></trkpt><trkpt lat="44.9497396" lon="6.7874379"><ele>1386.8</ele><time>2026-05-01T08:16:26.411Z</time></trkpt><trkpt lat="44.9497408" lon="6.7872837"><ele>1388.4</ele><time>2026-05-01T08:16:27.411Z</time></trkpt><trkpt lat="44.9497269" lon="6.7871419"><ele>1390.0</ele><time>2026-05-01T08:16:28.41Z</time></trkpt><trkpt lat="44.9497049" lon="6.7870098"><ele>1390.0</ele><time>2026-05-01T08:16:29.411Z</time></trkpt><trkpt lat="44.949672" lon="6.786877"><ele>1390.0</ele><time>2026-05-01T08:16:30.411Z</time></trkpt><trkpt lat="44.9496278" lon="6.786739"><ele>1390.0</ele><time>2026-05-01T08:16:31.411Z</time></trkpt><trkpt lat="44.9495672" lon="6.7866111"><ele>1390.0</ele><time>2026-05-01T08:16:32.41Z</time></trkpt><trkpt lat="44.9494775" lon="6.7864816"><ele>1390.0</ele><time>2026-05-01T08:16:33.411Z</time></trkpt><trkpt lat="44.9493543" lon="6.7863545"><ele>1388.6666666666665</ele><time>2026-05-01T08:16:34.412Z</time></trkpt><trkpt lat="44.949209" lon="6.7862297"><ele>1387.3333333333333</ele><time>2026-05-01T08:16:35.411Z</time></trkpt><trkpt lat="44.9490532" lon="6.7861198"><ele>1386.0</ele><time>2026-05-01T08:16:36.411Z</time></trkpt><trkpt lat="44.9489032" lon="6.7860099"><ele>1392.0</ele><time>2026-05-01T08:16:37.41Z</time></trkpt><trkpt lat="44.9487668" lon="6.7859143"><ele>1398.0</ele><time>2026-05-01T08:16:38.411Z</time></trkpt><trkpt lat="44.948648" lon="6.7858272"><ele>1404.0</ele><time>2026-05-01T08:16:39.411Z</time></trkpt><trkpt lat="44.948545" lon="6.7857425"><ele>1410.0</ele><time>2026-05-01T08:16:40.41Z</time></trkpt><trkpt lat="44.9484649" lon="6.7856518"><ele>1410.0</ele><time>2026-05-01T08:16:41.411Z</time></trkpt><trkpt lat="44.9484096" lon="6.7855501"><ele>1410.0</ele><time>2026-05-01T08:16:42.41Z</time></trkpt><trkpt lat="44.948374" lon="6.7854378"><ele>1410.0</ele><time>2026-05-01T08:16:43.412Z</time></trkpt><trkpt lat="44.9483616" lon="6.7853174"><ele>1410.0</ele><time>2026-05-01T08:16:44.411Z</time></trkpt><trkpt lat="44.9483712" lon="6.7851954"><ele>1410.0</ele><time>2026-05-01T08:16:45.411Z</time></trkpt><trkpt lat="44.9484016" lon="6.7850889"><ele>1410.0</ele><time>2026-05-01T08:16:46.411Z</time></trkpt><trkpt lat="44.9484487" lon="6.7850074"><ele>1411.8333333333333</ele><time>2026-05-01T08:16:47.41Z</time></trkpt><trkpt lat="44.9485007" lon="6.7849366"><ele>1413.6666666666667</ele><time>2026-05-01T08:16:48.413Z</time></trkpt><trkpt lat="44.9485579" lon="6.7848675"><ele>1415.5</ele><time>2026-05-01T08:16:49.411Z</time></trkpt><trkpt lat="44.9486234" lon="6.7847989"><ele>1417.3333333333335</ele><time>2026-05-01T08:16:50.41Z</time></trkpt><trkpt lat="44.9486883" lon="6.784731"><ele>1419.1666666666667</ele><time>2026-05-01T08:16:51.413Z</time></trkpt><trkpt lat="44.9487547" lon="6.7846563"><ele>1421.0</ele><time>2026-05-01T08:16:52.411Z</time></trkpt><trkpt lat="44.9488278" lon="6.7845835"><ele>1421.0</ele><time>2026-05-01T08:16:53.411Z</time></trkpt><trkpt lat="44.9489087" lon="6.784506"><ele>1421.0</ele><time>2026-05-01T08:16:54.411Z</time></trkpt><trkpt lat="44.9490008" lon="6.7844415"><ele>1421.0</ele><time>2026-05-01T08:16:55.411Z</time></trkpt><trkpt lat="44.9491007" lon="6.7843858"><ele>1421.0</ele><time>2026-05-01T08:16:56.411Z</time></trkpt><trkpt lat="44.9491991" lon="6.7843351"><ele>1421.0</ele><time>2026-05-01T08:16:57.411Z</time></trkpt><trkpt lat="44.9493013" lon="6.7842798"><ele>1422.0</ele><time>2026-05-01T08:16:58.412Z</time></trkpt><trkpt lat="44.9494123" lon="6.784219"><ele>1423.0</ele><time>2026-05-01T08:16:59.411Z</time></trkpt><trkpt lat="44.9495205" lon="6.784135"><ele>1424.0</ele><time>2026-05-01T08:17:00.411Z</time></trkpt><trkpt lat="44.9496202" lon="6.7840251"><ele>1425.0</ele><time>2026-05-01T08:17:01.41Z</time></trkpt><trkpt lat="44.9497048" lon="6.7838918"><ele>1425.0</ele><time>2026-05-01T08:17:02.41Z</time></trkpt><trkpt lat="44.9497763" lon="6.7837423"><ele>1425.0</ele><time>2026-05-01T08:17:03.411Z</time></trkpt><trkpt lat="44.9498306" lon="6.7835755"><ele>1425.0</ele><time>2026-05-01T08:17:04.411Z</time></trkpt><trkpt lat="44.9498681" lon="6.7833952"><ele>1425.0</ele><time>2026-05-01T08:17:05.411Z</time></trkpt><trkpt lat="44.9498847" lon="6.7831995"><ele>1427.0</ele><time>2026-05-01T08:17:06.411Z</time></trkpt><trkpt lat="44.9498809" lon="6.7829981"><ele>1429.0</ele><time>2026-05-01T08:17:07.41Z</time></trkpt><trkpt lat="44.9498607" lon="6.7827894"><ele>1431.0</ele><time>2026-05-01T08:17:08.411Z</time></trkpt><trkpt lat="44.9498202" lon="6.7825738"><ele>1431.0</ele><time>2026-05-01T08:17:09.41Z</time></trkpt><trkpt lat="44.9497538" lon="6.7823638"><ele>1431.0</ele><time>2026-05-01T08:17:10.41Z</time></trkpt><trkpt lat="44.9496743" lon="6.7821576"><ele>1431.0</ele><time>2026-05-01T08:17:11.411Z</time></trkpt><trkpt lat="44.9495773" lon="6.7819512"><ele>1431.6666666666667</ele><time>2026-05-01T08:17:12.411Z</time></trkpt><trkpt lat="44.9494777" lon="6.7817323"><ele>1432.3333333333335</ele><time>2026-05-01T08:17:13.411Z</time></trkpt><trkpt lat="44.9493872" lon="6.7815095"><ele>1433.0</ele><time>2026-05-01T08:17:14.411Z</time></trkpt><trkpt lat="44.9493176" lon="6.7812996"><ele>1433.0</ele><time>2026-05-01T08:17:15.411Z</time></trkpt><trkpt lat="44.9492596" lon="6.7811025"><ele>1433.0</ele><time>2026-05-01T08:17:16.411Z</time></trkpt><trkpt lat="44.949204" lon="6.7809112"><ele>1433.0</ele><time>2026-05-01T08:17:17.412Z</time></trkpt><trkpt lat="44.9491496" lon="6.7807189"><ele>1433.0</ele><time>2026-05-01T08:17:18.411Z</time></trkpt><trkpt lat="44.9490982" lon="6.780518"><ele>1441.3333333333335</ele><time>2026-05-01T08:17:19.411Z</time></trkpt><trkpt lat="44.949048" lon="6.7803252"><ele>1449.6666666666667</ele><time>2026-05-01T08:17:20.41Z</time></trkpt><trkpt lat="44.9489916" lon="6.7801272"><ele>1458.0</ele><time>2026-05-01T08:17:21.412Z</time></trkpt><trkpt lat="44.9489227" lon="6.7799276"><ele>1459.3333333333333</ele><time>2026-05-01T08:17:22.41Z</time></trkpt><trkpt lat="44.9488288" lon="6.7797128"><ele>1460.6666666666665</ele><time>2026-05-01T08:17:23.411Z</time></trkpt><trkpt lat="44.9487176" lon="6.7794839"><ele>1462.0</ele><time>2026-05-01T08:17:24.411Z</time></trkpt><trkpt lat="44.9486067" lon="6.7792564"><ele>1466.0</ele><time>2026-05-01T08:17:25.411Z</time></trkpt><trkpt lat="44.9485103" lon="6.7790409"><ele>1470.0</ele><time>2026-05-01T08:17:26.411Z</time></trkpt><trkpt lat="44.9484263" lon="6.7788437"><ele>1474.0</ele><time>2026-05-01T08:17:27.411Z</time></trkpt><trkpt lat="44.9483474" lon="6.7786649"><ele>1476.0</ele><time>2026-05-01T08:17:28.41Z</time></trkpt><trkpt lat="44.9482657" lon="6.7784967"><ele>1478.0</ele><time>2026-05-01T08:17:29.411Z</time></trkpt><trkpt lat="44.9481759" lon="6.7783483"><ele>1480.0</ele><time>2026-05-01T08:17:30.411Z</time></trkpt><trkpt lat="44.9480726" lon="6.7782233"><ele>1482.0</ele><time>2026-05-01T08:17:31.411Z</time></trkpt><trkpt lat="44.9479692" lon="6.7781249"><ele>1482.0</ele><time>2026-05-01T08:17:32.411Z</time></trkpt><trkpt lat="44.9478667" lon="6.7780386"><ele>1482.0</ele><time>2026-05-01T08:17:33.411Z</time></trkpt><trkpt lat="44.9477679" lon="6.7779556"><ele>1482.0</ele><time>2026-05-01T08:17:34.412Z</time></trkpt><trkpt lat="44.9476714" lon="6.7778697"><ele>1482.0</ele><time>2026-05-01T08:17:35.412Z</time></trkpt><trkpt lat="44.9475792" lon="6.7777884"><ele>1484.1999999999998</ele><time>2026-05-01T08:17:36.41Z</time></trkpt><trkpt lat="44.9474923" lon="6.7777091"><ele>1486.4</ele><time>2026-05-01T08:17:37.411Z</time></trkpt><trkpt lat="44.9474052" lon="6.7776315"><ele>1488.6</ele><time>2026-05-01T08:17:38.411Z</time></trkpt><trkpt lat="44.9473251" lon="6.7775562"><ele>1490.8000000000002</ele><time>2026-05-01T08:17:39.41Z</time></trkpt><trkpt lat="44.9472513" lon="6.7774827"><ele>1493.0</ele><time>2026-05-01T08:17:40.411Z</time></trkpt><trkpt lat="44.9471842" lon="6.777392"><ele>1493.0</ele><time>2026-05-01T08:17:41.411Z</time></trkpt><trkpt lat="44.9471276" lon="6.7772824"><ele>1493.0</ele><time>2026-05-01T08:17:42.411Z</time></trkpt><trkpt lat="44.9470827" lon="6.7771511"><ele>1493.0</ele><time>2026-05-01T08:17:43.411Z</time></trkpt><trkpt lat="44.9470495" lon="6.7769994"><ele>1493.0</ele><time>2026-05-01T08:17:44.411Z</time></trkpt><trkpt lat="44.9470296" lon="6.7768242"><ele>1493.0</ele><time>2026-05-01T08:17:45.411Z</time></trkpt><trkpt lat="44.9470234" lon="6.7766208"><ele>1496.3333333333335</ele><time>2026-05-01T08:17:46.41Z</time></trkpt><trkpt lat="44.9470299" lon="6.7763878"><ele>1499.6666666666667</ele><time>2026-05-01T08:17:47.411Z</time></trkpt><trkpt lat="44.9470439" lon="6.7761164"><ele>1503.0</ele><time>2026-05-01T08:17:48.412Z</time></trkpt><trkpt lat="44.9470583" lon="6.7758007"><ele>1503.5</ele><time>2026-05-01T08:17:49.412Z</time></trkpt><trkpt lat="44.947074" lon="6.775439"><ele>1504.0</ele><time>2026-05-01T08:17:50.41Z</time></trkpt><trkpt lat="44.9470894" lon="6.7750755"><ele>1504.0</ele><time>2026-05-01T08:17:51.411Z</time></trkpt><trkpt lat="44.9471055" lon="6.7747138"><ele>1504.0</ele><time>2026-05-01T08:17:52.411Z</time></trkpt><trkpt lat="44.9471298" lon="6.7743451"><ele>1502.5</ele><time>2026-05-01T08:17:53.411Z</time></trkpt><trkpt lat="44.9471529" lon="6.773974"><ele>1501.0</ele><time>2026-05-01T08:17:54.411Z</time></trkpt><trkpt lat="44.9471722" lon="6.7736232"><ele>1501.0</ele><time>2026-05-01T08:17:55.412Z</time></trkpt><trkpt lat="44.9471868" lon="6.7732942"><ele>1501.0</ele><time>2026-05-01T08:17:56.412Z</time></trkpt><trkpt lat="44.9471984" lon="6.7729898"><ele>1501.0</ele><time>2026-05-01T08:17:57.412Z</time></trkpt><trkpt lat="44.9472085" lon="6.7727106"><ele>1502.6666666666665</ele><time>2026-05-01T08:17:58.412Z</time></trkpt><trkpt lat="44.9472255" lon="6.7724663"><ele>1504.3333333333333</ele><time>2026-05-01T08:17:59.41Z</time></trkpt><trkpt lat="44.9472588" lon="6.7722501"><ele>1506.0</ele><time>2026-05-01T08:18:00.411Z</time></trkpt><trkpt lat="44.9473237" lon="6.7720726"><ele>1506.0</ele><time>2026-05-01T08:18:01.41Z</time></trkpt><trkpt lat="44.9474194" lon="6.7719337"><ele>1506.0</ele><time>2026-05-01T08:18:02.412Z</time></trkpt><trkpt lat="44.9475297" lon="6.7718273"><ele>1506.0</ele><time>2026-05-01T08:18:03.411Z</time></trkpt><trkpt lat="44.9476572" lon="6.7718137"><ele>1506.0</ele><time>2026-05-01T08:18:04.411Z</time></trkpt><trkpt lat="44.9477826" lon="6.7718431"><ele>1512.6666666666667</ele><time>2026-05-01T08:18:05.412Z</time></trkpt><trkpt lat="44.9479092" lon="6.7719297"><ele>1519.3333333333335</ele><time>2026-05-01T08:18:06.41Z</time></trkpt><trkpt lat="44.9480323" lon="6.7720709"><ele>1526.0</ele><time>2026-05-01T08:18:07.411Z</time></trkpt><trkpt lat="44.9481547" lon="6.77224"><ele>1526.0</ele><time>2026-05-01T08:18:08.411Z</time></trkpt><trkpt lat="44.9482757" lon="6.7724169"><ele>1526.0</ele><time>2026-05-01T08:18:09.411Z</time></trkpt><trkpt lat="44.9483977" lon="6.7725913"><ele>1526.0</ele><time>2026-05-01T08:18:10.412Z</time></trkpt><trkpt lat="44.9493606" lon="6.7761929"><ele>1532.0</ele><time>2026-05-01T08:18:22.412Z</time></trkpt><trkpt lat="44.949499" lon="6.7764586"><ele>1538.0</ele><time>2026-05-01T08:18:23.412Z</time></trkpt><trkpt lat="44.9496261" lon="6.7766997"><ele>1544.0</ele><time>2026-05-01T08:18:24.411Z</time></trkpt><trkpt lat="44.9497421" lon="6.7769222"><ele>1544.0</ele><time>2026-05-01T08:18:25.411Z</time></trkpt><trkpt lat="44.9498607" lon="6.7771159"><ele>1544.0</ele><time>2026-05-01T08:18:26.412Z</time></trkpt><trkpt lat="44.9499892" lon="6.7772704"><ele>1544.0</ele><time>2026-05-01T08:18:27.411Z</time></trkpt><trkpt lat="44.9501349" lon="6.7773898"><ele>1552.0</ele><time>2026-05-01T08:18:28.411Z</time></trkpt><trkpt lat="44.9502922" lon="6.7774639"><ele>1560.0</ele><time>2026-05-01T08:18:29.411Z</time></trkpt><trkpt lat="44.9504658" lon="6.7774955"><ele>1568.0</ele><time>2026-05-01T08:18:30.412Z</time></trkpt><trkpt lat="44.9506443" lon="6.7775262"><ele>1568.0</ele><time>2026-05-01T08:18:31.411Z</time></trkpt><trkpt lat="44.9508302" lon="6.7775991"><ele>1568.0</ele><time>2026-05-01T08:18:32.411Z</time></trkpt><trkpt lat="44.9510088" lon="6.7777248"><ele>1568.0</ele><time>2026-05-01T08:18:33.411Z</time></trkpt><trkpt lat="44.9511883" lon="6.7778834"><ele>1567.6666666666665</ele><time>2026-05-01T08:18:34.411Z</time></trkpt><trkpt lat="44.9513567" lon="6.7780622"><ele>1567.3333333333335</ele><time>2026-05-01T08:18:35.412Z</time></trkpt><trkpt lat="44.9515084" lon="6.7782615"><ele>1567.0</ele><time>2026-05-01T08:18:36.411Z</time></trkpt><trkpt lat="44.9516236" lon="6.7784817"><ele>1563.0</ele><time>2026-05-01T08:18:37.411Z</time></trkpt><trkpt lat="44.9517" lon="6.7787081"><ele>1559.0</ele><time>2026-05-01T08:18:38.412Z</time></trkpt><trkpt lat="44.9517452" lon="6.778903"><ele>1555.0</ele><time>2026-05-01T08:18:39.411Z</time></trkpt><trkpt lat="44.951788" lon="6.779048"><ele>1551.0</ele><time>2026-05-01T08:18:40.411Z</time></trkpt><trkpt lat="44.9518543" lon="6.7791449"><ele>1558.1666666666667</ele><time>2026-05-01T08:18:41.411Z</time></trkpt><trkpt lat="44.9519303" lon="6.7791843"><ele>1565.3333333333335</ele><time>2026-05-01T08:18:42.412Z</time></trkpt><trkpt lat="44.9520028" lon="6.7791575"><ele>1572.5</ele><time>2026-05-01T08:18:43.412Z</time></trkpt><trkpt lat="44.9520549" lon="6.7790731"><ele>1579.6666666666667</ele><time>2026-05-01T08:18:44.411Z</time></trkpt><trkpt lat="44.952077" lon="6.7789429"><ele>1586.8333333333335</ele><time>2026-05-01T08:18:45.411Z</time></trkpt><trkpt lat="44.9520682" lon="6.7787773"><ele>1594.0</ele><time>2026-05-01T08:18:46.411Z</time></trkpt><trkpt lat="44.9520378" lon="6.7785916"><ele>1597.6666666666667</ele><time>2026-05-01T08:18:47.411Z</time></trkpt><trkpt lat="44.9519829" lon="6.7783888"><ele>1601.3333333333335</ele><time>2026-05-01T08:18:48.411Z</time></trkpt><trkpt lat="44.9518939" lon="6.7781827"><ele>1605.0</ele><time>2026-05-01T08:18:49.411Z</time></trkpt><trkpt lat="44.9517709" lon="6.7779801"><ele>1602.6666666666665</ele><time>2026-05-01T08:18:50.412Z</time></trkpt><trkpt lat="44.9516206" lon="6.7777811"><ele>1600.3333333333333</ele><time>2026-05-01T08:18:51.411Z</time></trkpt><trkpt lat="44.9514544" lon="6.7775797"><ele>1598.0</ele><time>2026-05-01T08:18:52.412Z</time></trkpt><trkpt lat="44.9512928" lon="6.7773806"><ele>1598.0</ele><time>2026-05-01T08:18:53.411Z</time></trkpt><trkpt lat="44.9511407" lon="6.7771703"><ele>1598.0</ele><time>2026-05-01T08:18:54.411Z</time></trkpt><trkpt lat="44.9510097" lon="6.7769416"><ele>1598.0</ele><time>2026-05-01T08:18:55.411Z</time></trkpt><trkpt lat="44.9509095" lon="6.7766982"><ele>1597.3333333333333</ele><time>2026-05-01T08:18:56.411Z</time></trkpt><trkpt lat="44.950837" lon="6.7764322"><ele>1596.6666666666665</ele><time>2026-05-01T08:18:57.411Z</time></trkpt><trkpt lat="44.9507862" lon="6.776146"><ele>1596.0</ele><time>2026-05-01T08:18:58.411Z</time></trkpt><trkpt lat="44.9507699" lon="6.7758496"><ele>1599.0</ele><time>2026-05-01T08:18:59.411Z</time></trkpt><trkpt lat="44.9507909" lon="6.7755541"><ele>1602.0</ele><time>2026-05-01T08:19:00.411Z</time></trkpt><trkpt lat="44.9508464" lon="6.7752754"><ele>1605.0</ele><time>2026-05-01T08:19:01.411Z</time></trkpt><trkpt lat="44.9508958" lon="6.774992"><ele>1620.0</ele><time>2026-05-01T08:19:02.411Z</time></trkpt><trkpt lat="44.9509519" lon="6.7747106"><ele>1635.0</ele><time>2026-05-01T08:19:03.411Z</time></trkpt><trkpt lat="44.9510074" lon="6.7744294"><ele>1650.0</ele><time>2026-05-01T08:19:04.411Z</time></trkpt><trkpt lat="44.9422418" lon="6.7582574"><ele>1692.0</ele><time>2026-05-01T08:20:05.625Z</time></trkpt><trkpt lat="44.9422617" lon="6.7579214"><ele>1734.0</ele><time>2026-05-01T08:20:10.93Z</time></trkpt><trkpt lat="44.94336" lon="6.759369"><ele>1736.6666666666665</ele><time>2026-05-01T08:20:15.411Z</time></trkpt><trkpt lat="44.9431999" lon="6.7592251"><ele>1739.3333333333333</ele><time>2026-05-01T08:20:16.411Z</time></trkpt><trkpt lat="44.9430742" lon="6.7591146"><ele>1742.0</ele><time>2026-05-01T08:20:17.411Z</time></trkpt><trkpt lat="44.9429701" lon="6.7590177"><ele>1742.0</ele><time>2026-05-01T08:20:18.411Z</time></trkpt><trkpt lat="44.9428681" lon="6.7589242"><ele>1742.0</ele><time>2026-05-01T08:20:19.411Z</time></trkpt><trkpt lat="44.9427689" lon="6.7588315"><ele>1742.0</ele><time>2026-05-01T08:20:20.411Z</time></trkpt><trkpt lat="44.9426726" lon="6.758741"><ele>1742.0</ele><time>2026-05-01T08:20:21.412Z</time></trkpt><trkpt lat="44.9425793" lon="6.7586543"><ele>1742.3333333333333</ele><time>2026-05-01T08:20:22.411Z</time></trkpt><trkpt lat="44.9424953" lon="6.758577"><ele>1742.6666666666665</ele><time>2026-05-01T08:20:23.411Z</time></trkpt><trkpt lat="44.9424198" lon="6.7585078"><ele>1743.0</ele><time>2026-05-01T08:20:24.411Z</time></trkpt><trkpt lat="44.9423514" lon="6.7584397"><ele>1743.3333333333335</ele><time>2026-05-01T08:20:25.412Z</time></trkpt><trkpt lat="44.9422888" lon="6.7583712"><ele>1743.6666666666667</ele><time>2026-05-01T08:20:26.411Z</time></trkpt><trkpt lat="44.9422345" lon="6.7583006"><ele>1744.0</ele><time>2026-05-01T08:20:27.411Z</time></trkpt><trkpt lat="44.9421858" lon="6.7582181"><ele>1745.0</ele><time>2026-05-01T08:20:28.412Z</time></trkpt><trkpt lat="44.9421395" lon="6.7581308"><ele>1746.0</ele><time>2026-05-01T08:20:29.412Z</time></trkpt><trkpt lat="44.9420837" lon="6.7580486"><ele>1747.0</ele><time>2026-05-01T08:20:30.411Z</time></trkpt><trkpt lat="44.9420069" lon="6.7579835"><ele>1748.0</ele><time>2026-05-01T08:20:31.411Z</time></trkpt><trkpt lat="44.9419067" lon="6.7579432"><ele>1749.0</ele><time>2026-05-01T08:20:32.412Z</time></trkpt><trkpt lat="44.9417941" lon="6.7579005"><ele>1749.0</ele><time>2026-05-01T08:20:33.411Z</time></trkpt><trkpt lat="44.9416845" lon="6.7578281"><ele>1749.0</ele><time>2026-05-01T08:20:34.411Z</time></trkpt><trkpt lat="44.9415859" lon="6.7577106"><ele>1749.0</ele><time>2026-05-01T08:20:35.411Z</time></trkpt><trkpt lat="44.941491" lon="6.7575704"><ele>1749.0</ele><time>2026-05-01T08:20:36.411Z</time></trkpt><trkpt lat="44.9413982" lon="6.7574216"><ele>1749.0</ele><time>2026-05-01T08:20:37.411Z</time></trkpt><trkpt lat="44.9413108" lon="6.7572716"><ele>1749.0</ele><time>2026-05-01T08:20:38.411Z</time></trkpt><trkpt lat="44.941232" lon="6.7571172"><ele>1749.0</ele><time>2026-05-01T08:20:39.412Z</time></trkpt><trkpt lat="44.9411724" lon="6.7569481"><ele>1749.0</ele><time>2026-05-01T08:20:40.411Z</time></trkpt><trkpt lat="44.9411439" lon="6.7567578"><ele>1751.5</ele><time>2026-05-01T08:20:41.412Z</time></trkpt><trkpt lat="44.9411417" lon="6.7565583"><ele>1754.0</ele><time>2026-05-01T08:20:42.411Z</time></trkpt><trkpt lat="44.9411619" lon="6.7563648"><ele>1756.5</ele><time>2026-05-01T08:20:43.411Z</time></trkpt><trkpt lat="44.9411806" lon="6.7561918"><ele>1759.0</ele><time>2026-05-01T08:20:44.411Z</time></trkpt><trkpt lat="44.9411819" lon="6.7560387"><ele>1760.8000000000002</ele><time>2026-05-01T08:20:45.411Z</time></trkpt><trkpt lat="44.9411674" lon="6.755893"><ele>1762.6000000000001</ele><time>2026-05-01T08:20:46.411Z</time></trkpt><trkpt lat="44.9411418" lon="6.7557558"><ele>1764.4</ele><time>2026-05-01T08:20:47.412Z</time></trkpt><trkpt lat="44.9411074" lon="6.7556187"><ele>1766.2</ele><time>2026-05-01T08:20:48.412Z</time></trkpt><trkpt lat="44.9410629" lon="6.7554819"><ele>1768.0</ele><time>2026-05-01T08:20:49.411Z</time></trkpt><trkpt lat="44.9410136" lon="6.7553464"><ele>1768.0</ele><time>2026-05-01T08:20:50.411Z</time></trkpt><trkpt lat="44.9409639" lon="6.7552058"><ele>1768.0</ele><time>2026-05-01T08:20:51.411Z</time></trkpt><trkpt lat="44.9409121" lon="6.7550599"><ele>1768.0</ele><time>2026-05-01T08:20:52.411Z</time></trkpt><trkpt lat="44.9408606" lon="6.7549108"><ele>1768.0</ele><time>2026-05-01T08:20:53.411Z</time></trkpt><trkpt lat="44.9408049" lon="6.7547601"><ele>1768.25</ele><time>2026-05-01T08:20:54.411Z</time></trkpt><trkpt lat="44.9407493" lon="6.7546088"><ele>1768.5</ele><time>2026-05-01T08:20:55.412Z</time></trkpt><trkpt lat="44.940697" lon="6.7544696"><ele>1768.75</ele><time>2026-05-01T08:20:56.411Z</time></trkpt><trkpt lat="44.9406449" lon="6.7543296"><ele>1769.0</ele><time>2026-05-01T08:20:57.411Z</time></trkpt><trkpt lat="44.9405943" lon="6.7541907"><ele>1769.0</ele><time>2026-05-01T08:20:58.411Z</time></trkpt><trkpt lat="44.940545" lon="6.7540541"><ele>1769.0</ele><time>2026-05-01T08:20:59.412Z</time></trkpt><trkpt lat="44.9404969" lon="6.7539195"><ele>1769.0</ele><time>2026-05-01T08:21:00.411Z</time></trkpt><trkpt lat="44.940451" lon="6.7537879"><ele>1769.0</ele><time>2026-05-01T08:21:01.411Z</time></trkpt><trkpt lat="44.9404131" lon="6.7536601"><ele>1769.0</ele><time>2026-05-01T08:21:02.411Z</time></trkpt><trkpt lat="44.9403799" lon="6.7535312"><ele>1770.6</ele><time>2026-05-01T08:21:03.412Z</time></trkpt><trkpt lat="44.9403537" lon="6.7534011"><ele>1772.2</ele><time>2026-05-01T08:21:04.411Z</time></trkpt><trkpt lat="44.9403324" lon="6.7532659"><ele>1773.7999999999997</ele><time>2026-05-01T08:21:05.411Z</time></trkpt><trkpt lat="44.9403097" lon="6.7531299"><ele>1775.3999999999999</ele><time>2026-05-01T08:21:06.412Z</time></trkpt><trkpt lat="44.9402868" lon="6.7529916"><ele>1777.0</ele><time>2026-05-01T08:21:07.411Z</time></trkpt><trkpt lat="44.940265" lon="6.7528495"><ele>1778.3999999999999</ele><time>2026-05-01T08:21:08.411Z</time></trkpt><trkpt lat="44.9402436" lon="6.7527021"><ele>1779.7999999999997</ele><time>2026-05-01T08:21:09.411Z</time></trkpt><trkpt lat="44.9402136" lon="6.7525544"><ele>1781.2</ele><time>2026-05-01T08:21:10.411Z</time></trkpt><trkpt lat="44.9401781" lon="6.7524129"><ele>1782.6</ele><time>2026-05-01T08:21:11.411Z</time></trkpt><trkpt lat="44.9401375" lon="6.7522721"><ele>1784.0</ele><time>2026-05-01T08:21:12.412Z</time></trkpt><trkpt lat="44.9400916" lon="6.7521337"><ele>1779.6</ele><time>2026-05-01T08:21:13.411Z</time></trkpt><trkpt lat="44.9400382" lon="6.7520003"><ele>1775.2</ele><time>2026-05-01T08:21:14.412Z</time></trkpt><trkpt lat="44.9399774" lon="6.7518714"><ele>1770.7999999999997</ele><time>2026-05-01T08:21:15.411Z</time></trkpt><trkpt lat="44.9399155" lon="6.7517467"><ele>1766.3999999999999</ele><time>2026-05-01T08:21:16.411Z</time></trkpt><trkpt lat="44.9398518" lon="6.7516237"><ele>1762.0</ele><time>2026-05-01T08:21:17.411Z</time></trkpt><trkpt lat="44.9397884" lon="6.7515088"><ele>1762.0000000000002</ele><time>2026-05-01T08:21:18.413Z</time></trkpt><trkpt lat="44.9397247" lon="6.7514023"><ele>1762.0</ele><time>2026-05-01T08:21:19.411Z</time></trkpt><trkpt lat="44.9396634" lon="6.7513042"><ele>1762.0</ele><time>2026-05-01T08:21:20.412Z</time></trkpt><trkpt lat="44.9396038" lon="6.7512136"><ele>1762.0</ele><time>2026-05-01T08:21:21.411Z</time></trkpt><trkpt lat="44.9395471" lon="6.7511303"><ele>1762.0000000000002</ele><time>2026-05-01T08:21:22.411Z</time></trkpt><trkpt lat="44.9394917" lon="6.7510465"><ele>1762.0</ele><time>2026-05-01T08:21:23.411Z</time></trkpt><trkpt lat="44.939436" lon="6.7509618"><ele>1762.0000000000002</ele><time>2026-05-01T08:21:24.411Z</time></trkpt><trkpt lat="44.9393833" lon="6.7508827"><ele>1762.0</ele><time>2026-05-01T08:21:25.411Z</time></trkpt><trkpt lat="44.9393335" lon="6.7508107"><ele>1762.0</ele><time>2026-05-01T08:21:26.411Z</time></trkpt><trkpt lat="44.9392813" lon="6.7507373"><ele>1762.0</ele><time>2026-05-01T08:21:27.411Z</time></trkpt><trkpt lat="44.9392275" lon="6.7506628"><ele>1762.0000000000002</ele><time>2026-05-01T08:21:28.411Z</time></trkpt><trkpt lat="44.9391699" lon="6.7505824"><ele>1762.0</ele><time>2026-05-01T08:21:29.411Z</time></trkpt><trkpt lat="44.9391082" lon="6.7505112"><ele>1762.0000000000002</ele><time>2026-05-01T08:21:30.411Z</time></trkpt><trkpt lat="44.9390511" lon="6.7504391"><ele>1762.0</ele><time>2026-05-01T08:21:31.411Z</time></trkpt><trkpt lat="44.9389991" lon="6.7503692"><ele>1762.0</ele><time>2026-05-01T08:21:32.411Z</time></trkpt><trkpt lat="44.9389553" lon="6.7502993"><ele>1762.0</ele><time>2026-05-01T08:21:33.412Z</time></trkpt><trkpt lat="44.9388878" lon="6.7501857"><ele>1762.0000000000002</ele><time>2026-05-01T08:21:35.411Z</time></trkpt><trkpt lat="44.9388339" lon="6.7500954"><ele>1762.0</ele><time>2026-05-01T08:21:38.41Z</time></trkpt><trkpt lat="44.9387911" lon="6.7500287"><ele>1763.3333333333335</ele><time>2026-05-01T08:21:41.411Z</time></trkpt><trkpt lat="44.9387349" lon="6.7499516"><ele>1764.6666666666667</ele><time>2026-05-01T08:21:45.411Z</time></trkpt><trkpt lat="44.9386706" lon="6.7498712"><ele>1766.0</ele><time>2026-05-01T08:22:11.411Z</time></trkpt><trkpt lat="44.9386056" lon="6.7499197"><ele>1767.3333333333335</ele><time>2026-05-01T08:22:22.412Z</time></trkpt><trkpt lat="44.9386722" lon="6.7500039"><ele>1768.6666666666667</ele><time>2026-05-01T08:22:24.411Z</time></trkpt><trkpt lat="44.9387455" lon="6.7500914"><ele>1770.0</ele><time>2026-05-01T08:22:26.411Z</time></trkpt><trkpt lat="44.9388078" lon="6.7501855"><ele>1768.857142857143</ele><time>2026-05-01T08:22:29.411Z</time></trkpt><trkpt lat="44.9388528" lon="6.7502517"><ele>1767.7142857142858</ele><time>2026-05-01T08:22:32.411Z</time></trkpt><trkpt lat="44.9388978" lon="6.7503308"><ele>1766.5714285714284</ele><time>2026-05-01T08:22:39.411Z</time></trkpt><trkpt lat="44.938876" lon="6.7504289"><ele>1765.4285714285716</ele><time>2026-05-01T08:25:26.41Z</time></trkpt><trkpt lat="44.9388101" lon="6.7504613"><ele>1764.2857142857144</ele><time>2026-05-01T08:25:31.411Z</time></trkpt><trkpt lat="44.9387534" lon="6.7505209"><ele>1763.142857142857</ele><time>2026-05-01T08:25:36.411Z</time></trkpt><trkpt lat="44.9386934" lon="6.7505627"><ele>1762.0</ele><time>2026-05-01T08:25:41.412Z</time></trkpt><trkpt lat="44.9386396" lon="6.750622"><ele>1762.0</ele><time>2026-05-01T08:25:47.358Z</time></trkpt><trkpt lat="44.9386991" lon="6.7506601"><ele>1762.0</ele><time>2026-05-01T08:26:01.412Z</time></trkpt><trkpt lat="44.9387684" lon="6.7506206"><ele>1762.0</ele><time>2026-05-01T08:26:07.439Z</time></trkpt><trkpt lat="44.9388054" lon="6.7505442"><ele>1762.0</ele><time>2026-05-01T08:26:10.411Z</time></trkpt><trkpt lat="44.9388509" lon="6.7504609"><ele>1762.0</ele><time>2026-05-01T08:26:15.411Z</time></trkpt><trkpt lat="44.9388936" lon="6.7503813"><ele>1762.0</ele><time>2026-05-01T08:26:21.411Z</time></trkpt><trkpt lat="44.9389563" lon="6.7503709"><ele>1762.0</ele><time>2026-05-01T08:26:28.411Z</time></trkpt><trkpt lat="44.9390014" lon="6.7504382"><ele>1762.0</ele><time>2026-05-01T08:26:34.411Z</time></trkpt><trkpt lat="44.9390478" lon="6.7505058"><ele>1762.0</ele><time>2026-05-01T08:26:41.411Z</time></trkpt><trkpt lat="44.9390455" lon="6.7505951"><ele>1762.0</ele><time>2026-05-01T08:26:51.412Z</time></trkpt><trkpt lat="44.9389854" lon="6.75068"><ele>1762.0</ele><time>2026-05-01T08:43:27.252Z</time></trkpt><trkpt lat="44.9389774" lon="6.7505641"><ele>1762.0</ele><time>2026-05-01T08:43:38.332Z</time></trkpt><trkpt lat="44.9389305" lon="6.750485"><ele>1762.0</ele><time>2026-05-01T08:43:46.41Z</time></trkpt><trkpt lat="44.9388895" lon="6.7504175"><ele>1762.0</ele><time>2026-05-01T08:43:50.41Z</time></trkpt><trkpt lat="44.9389151" lon="6.7503361"><ele>1762.0000000000002</ele><time>2026-05-01T08:47:35.41Z</time></trkpt><trkpt lat="44.9389034" lon="6.750238"><ele>1762.0</ele><time>2026-05-01T08:47:51.41Z</time></trkpt><trkpt lat="44.9388768" lon="6.7501571"><ele>1762.0</ele><time>2026-05-01T08:47:56.41Z</time></trkpt><trkpt lat="44.938911" lon="6.7500791"><ele>1762.0</ele><time>2026-05-01T08:51:48.409Z</time></trkpt><trkpt lat="44.9388488" lon="6.7500002"><ele>1762.0000000000002</ele><time>2026-05-01T08:51:50.409Z</time></trkpt><trkpt lat="44.9387391" lon="6.7499227"><ele>1762.0</ele><time>2026-05-01T08:51:51.409Z</time></trkpt><trkpt lat="44.9386602" lon="6.7498444"><ele>1762.0</ele><time>2026-05-01T08:51:52.409Z</time></trkpt><trkpt lat="44.9385977" lon="6.7497673"><ele>1761.9999999999998</ele><time>2026-05-01T08:51:53.409Z</time></trkpt><trkpt lat="44.9385321" lon="6.749676"><ele>1761.9999999999998</ele><time>2026-05-01T08:51:54.409Z</time></trkpt><trkpt lat="44.9384595" lon="6.7495731"><ele>1762.0</ele><time>2026-05-01T08:51:55.41Z</time></trkpt><trkpt lat="44.9383788" lon="6.7494591"><ele>1762.0</ele><time>2026-05-01T08:51:56.409Z</time></trkpt><trkpt lat="44.9382974" lon="6.7493419"><ele>1763.8</ele><time>2026-05-01T08:51:57.41Z</time></trkpt><trkpt lat="44.938222" lon="6.7492317"><ele>1765.6</ele><time>2026-05-01T08:51:58.409Z</time></trkpt><trkpt lat="44.9381491" lon="6.7491235"><ele>1767.3999999999999</ele><time>2026-05-01T08:51:59.409Z</time></trkpt><trkpt lat="44.938074" lon="6.7490144"><ele>1769.1999999999998</ele><time>2026-05-01T08:52:00.409Z</time></trkpt><trkpt lat="44.9379997" lon="6.7489095"><ele>1771.0</ele><time>2026-05-01T08:52:01.409Z</time></trkpt><trkpt lat="44.9379272" lon="6.7488045"><ele>1771.0</ele><time>2026-05-01T08:52:02.409Z</time></trkpt><trkpt lat="44.9378562" lon="6.7486985"><ele>1771.0</ele><time>2026-05-01T08:52:03.409Z</time></trkpt><trkpt lat="44.937784" lon="6.7485905"><ele>1771.0</ele><time>2026-05-01T08:52:04.409Z</time></trkpt><trkpt lat="44.9377103" lon="6.7484844"><ele>1771.0</ele><time>2026-05-01T08:52:05.41Z</time></trkpt><trkpt lat="44.9376416" lon="6.7483865"><ele>1771.0</ele><time>2026-05-01T08:52:06.409Z</time></trkpt><trkpt lat="44.9375813" lon="6.7482967"><ele>1771.1999999999998</ele><time>2026-05-01T08:52:07.409Z</time></trkpt><trkpt lat="44.9375229" lon="6.748208"><ele>1771.3999999999999</ele><time>2026-05-01T08:52:08.409Z</time></trkpt><trkpt lat="44.9374592" lon="6.7481095"><ele>1771.6</ele><time>2026-05-01T08:52:09.409Z</time></trkpt><trkpt lat="44.9373858" lon="6.7480062"><ele>1771.8</ele><time>2026-05-01T08:52:10.41Z</time></trkpt><trkpt lat="44.9373081" lon="6.7478972"><ele>1772.0</ele><time>2026-05-01T08:52:11.409Z</time></trkpt><trkpt lat="44.9372299" lon="6.7477818"><ele>1772.8</ele><time>2026-05-01T08:52:12.409Z</time></trkpt><trkpt lat="44.9371541" lon="6.7476638"><ele>1773.6</ele><time>2026-05-01T08:52:13.409Z</time></trkpt><trkpt lat="44.9370829" lon="6.747548"><ele>1774.3999999999999</ele><time>2026-05-01T08:52:14.409Z</time></trkpt><trkpt lat="44.9370209" lon="6.7474349"><ele>1775.1999999999998</ele><time>2026-05-01T08:52:15.409Z</time></trkpt><trkpt lat="44.9369648" lon="6.7473235"><ele>1776.0</ele><time>2026-05-01T08:52:16.409Z</time></trkpt><trkpt lat="44.9369137" lon="6.7472164"><ele>1776.0</ele><time>2026-05-01T08:52:17.41Z</time></trkpt><trkpt lat="44.9368647" lon="6.747107"><ele>1776.0</ele><time>2026-05-01T08:52:18.409Z</time></trkpt><trkpt lat="44.9368149" lon="6.7469883"><ele>1776.0</ele><time>2026-05-01T08:52:19.409Z</time></trkpt><trkpt lat="44.9367664" lon="6.746863"><ele>1776.0</ele><time>2026-05-01T08:52:20.409Z</time></trkpt><trkpt lat="44.936719" lon="6.7467296"><ele>1776.0</ele><time>2026-05-01T08:52:21.409Z</time></trkpt><trkpt lat="44.936675" lon="6.7465947"><ele>1777.0</ele><time>2026-05-01T08:52:22.409Z</time></trkpt><trkpt lat="44.9366304" lon="6.7464607"><ele>1778.0</ele><time>2026-05-01T08:52:23.409Z</time></trkpt><trkpt lat="44.9365864" lon="6.746328"><ele>1779.0</ele><time>2026-05-01T08:52:24.409Z</time></trkpt><trkpt lat="44.9365418" lon="6.7461984"><ele>1780.0</ele><time>2026-05-01T08:52:25.409Z</time></trkpt><trkpt lat="44.9364979" lon="6.7460776"><ele>1781.0</ele><time>2026-05-01T08:52:26.409Z</time></trkpt><trkpt lat="44.93645" lon="6.7459694"><ele>1782.9999999999998</ele><time>2026-05-01T08:52:27.409Z</time></trkpt><trkpt lat="44.9363977" lon="6.7458729"><ele>1785.0</ele><time>2026-05-01T08:52:28.409Z</time></trkpt><trkpt lat="44.9363458" lon="6.7457904"><ele>1787.0</ele><time>2026-05-01T08:52:29.41Z</time></trkpt><trkpt lat="44.9363045" lon="6.7457178"><ele>1789.0</ele><time>2026-05-01T08:52:30.409Z</time></trkpt><trkpt lat="44.9362605" lon="6.7456179"><ele>1790.9999999999998</ele><time>2026-05-01T08:52:32.409Z</time></trkpt><trkpt lat="44.9362238" lon="6.7454964"><ele>1793.0</ele><time>2026-05-01T08:52:35.409Z</time></trkpt><trkpt lat="44.9361913" lon="6.7453976"><ele>1793.0</ele><time>2026-05-01T08:52:36.409Z</time></trkpt><trkpt lat="44.9361442" lon="6.7452902"><ele>1793.0000000000002</ele><time>2026-05-01T08:52:37.409Z</time></trkpt><trkpt lat="44.9360889" lon="6.7451781"><ele>1793.0000000000002</ele><time>2026-05-01T08:52:38.409Z</time></trkpt><trkpt lat="44.9360245" lon="6.74506"><ele>1793.0</ele><time>2026-05-01T08:52:39.409Z</time></trkpt><trkpt lat="44.9359511" lon="6.7449351"><ele>1793.0</ele><time>2026-05-01T08:52:40.409Z</time></trkpt><trkpt lat="44.9358748" lon="6.7448013"><ele>1793.75</ele><time>2026-05-01T08:52:41.409Z</time></trkpt><trkpt lat="44.9357962" lon="6.7446637"><ele>1794.5</ele><time>2026-05-01T08:52:42.409Z</time></trkpt><trkpt lat="44.9357229" lon="6.7445347"><ele>1795.25</ele><time>2026-05-01T08:52:43.409Z</time></trkpt><trkpt lat="44.9356546" lon="6.7444116"><ele>1796.0</ele><time>2026-05-01T08:52:44.409Z</time></trkpt><trkpt lat="44.9355861" lon="6.7442851"><ele>1796.0</ele><time>2026-05-01T08:52:45.409Z</time></trkpt><trkpt lat="44.9355206" lon="6.7441464"><ele>1796.0</ele><time>2026-05-01T08:52:46.409Z</time></trkpt><trkpt lat="44.9354628" lon="6.7439913"><ele>1796.0</ele><time>2026-05-01T08:52:47.409Z</time></trkpt><trkpt lat="44.9354168" lon="6.7438133"><ele>1796.0</ele><time>2026-05-01T08:52:48.409Z</time></trkpt><trkpt lat="44.9353977" lon="6.7436197"><ele>1797.5</ele><time>2026-05-01T08:52:49.41Z</time></trkpt><trkpt lat="44.935395" lon="6.7434142"><ele>1799.0</ele><time>2026-05-01T08:52:50.409Z</time></trkpt><trkpt lat="44.9353984" lon="6.7432091"><ele>1800.5</ele><time>2026-05-01T08:52:51.409Z</time></trkpt><trkpt lat="44.9353876" lon="6.7430142"><ele>1802.0</ele><time>2026-05-01T08:52:52.409Z</time></trkpt><trkpt lat="44.9353481" lon="6.7428418"><ele>1801.75</ele><time>2026-05-01T08:52:53.409Z</time></trkpt><trkpt lat="44.9352824" lon="6.7426874"><ele>1801.5</ele><time>2026-05-01T08:52:54.409Z</time></trkpt><trkpt lat="44.9351875" lon="6.7425644"><ele>1801.25</ele><time>2026-05-01T08:52:55.409Z</time></trkpt><trkpt lat="44.9350628" lon="6.7424741"><ele>1801.0</ele><time>2026-05-01T08:52:56.409Z</time></trkpt><trkpt lat="44.9349125" lon="6.7424022"><ele>1801.0</ele><time>2026-05-01T08:52:57.409Z</time></trkpt><trkpt lat="44.9347501" lon="6.7423341"><ele>1801.0</ele><time>2026-05-01T08:52:58.409Z</time></trkpt><trkpt lat="44.9345864" lon="6.7422636"><ele>1801.0</ele><time>2026-05-01T08:52:59.409Z</time></trkpt><trkpt lat="44.9344297" lon="6.7421862"><ele>1801.0</ele><time>2026-05-01T08:53:00.409Z</time></trkpt><trkpt lat="44.9342997" lon="6.7420883"><ele>1801.0</ele><time>2026-05-01T08:53:01.409Z</time></trkpt><trkpt lat="44.9341989" lon="6.7419564"><ele>1801.0</ele><time>2026-05-01T08:53:02.409Z</time></trkpt><trkpt lat="44.934126" lon="6.7417954"><ele>1801.0</ele><time>2026-05-01T08:53:03.409Z</time></trkpt><trkpt lat="44.9340738" lon="6.7416104"><ele>1803.6666666666667</ele><time>2026-05-01T08:53:04.409Z</time></trkpt><trkpt lat="44.9340296" lon="6.7414108"><ele>1806.3333333333335</ele><time>2026-05-01T08:53:05.41Z</time></trkpt><trkpt lat="44.9339892" lon="6.7411999"><ele>1809.0</ele><time>2026-05-01T08:53:06.409Z</time></trkpt><trkpt lat="44.9339379" lon="6.7409829"><ele>1812.3333333333335</ele><time>2026-05-01T08:53:07.409Z</time></trkpt><trkpt lat="44.9338741" lon="6.740756"><ele>1815.6666666666667</ele><time>2026-05-01T08:53:08.409Z</time></trkpt><trkpt lat="44.9338054" lon="6.7405177"><ele>1819.0</ele><time>2026-05-01T08:53:09.41Z</time></trkpt><trkpt lat="44.9337324" lon="6.7402719"><ele>1822.0</ele><time>2026-05-01T08:53:10.409Z</time></trkpt><trkpt lat="44.9336655" lon="6.7400292"><ele>1825.0</ele><time>2026-05-01T08:53:11.409Z</time></trkpt><trkpt lat="44.9336091" lon="6.7397772"><ele>1828.0</ele><time>2026-05-01T08:53:12.409Z</time></trkpt><trkpt lat="44.9335727" lon="6.7395172"><ele>1830.3333333333335</ele><time>2026-05-01T08:53:13.409Z</time></trkpt><trkpt lat="44.9335484" lon="6.7392574"><ele>1832.6666666666665</ele><time>2026-05-01T08:53:14.409Z</time></trkpt><trkpt lat="44.933529" lon="6.7389979"><ele>1835.0</ele><time>2026-05-01T08:53:15.409Z</time></trkpt><trkpt lat="44.9335055" lon="6.7387421"><ele>1838.6666666666665</ele><time>2026-05-01T08:53:16.409Z</time></trkpt><trkpt lat="44.9334738" lon="6.7384901"><ele>1842.3333333333335</ele><time>2026-05-01T08:53:17.409Z</time></trkpt><trkpt lat="44.9334325" lon="6.7382423"><ele>1846.0</ele><time>2026-05-01T08:53:18.409Z</time></trkpt><trkpt lat="44.9333856" lon="6.7379979"><ele>1839.0</ele><time>2026-05-01T08:53:19.41Z</time></trkpt><trkpt lat="44.9333362" lon="6.7377535"><ele>1832.0</ele><time>2026-05-01T08:53:20.409Z</time></trkpt><trkpt lat="44.9332854" lon="6.7375033"><ele>1825.0</ele><time>2026-05-01T08:53:21.409Z</time></trkpt><trkpt lat="44.9332334" lon="6.7372541"><ele>1825.0</ele><time>2026-05-01T08:53:22.409Z</time></trkpt><trkpt lat="44.9331803" lon="6.737015"><ele>1825.0</ele><time>2026-05-01T08:53:23.409Z</time></trkpt><trkpt lat="44.9331343" lon="6.7367881"><ele>1825.0</ele><time>2026-05-01T08:53:24.41Z</time></trkpt><trkpt lat="44.933098" lon="6.7365599"><ele>1828.3333333333335</ele><time>2026-05-01T08:53:25.409Z</time></trkpt><trkpt lat="44.933079" lon="6.7363312"><ele>1831.6666666666665</ele><time>2026-05-01T08:53:26.409Z</time></trkpt><trkpt lat="44.933082" lon="6.7361052"><ele>1835.0</ele><time>2026-05-01T08:53:27.409Z</time></trkpt><trkpt lat="44.933096" lon="6.7358829"><ele>1836.6666666666665</ele><time>2026-05-01T08:53:28.409Z</time></trkpt><trkpt lat="44.9331114" lon="6.7356647"><ele>1838.3333333333335</ele><time>2026-05-01T08:53:29.409Z</time></trkpt><trkpt lat="44.9331287" lon="6.7354505"><ele>1840.0</ele><time>2026-05-01T08:53:30.409Z</time></trkpt><trkpt lat="44.9331485" lon="6.7352415"><ele>1840.25</ele><time>2026-05-01T08:53:31.409Z</time></trkpt><trkpt lat="44.9331703" lon="6.7350411"><ele>1840.5</ele><time>2026-05-01T08:53:32.41Z</time></trkpt><trkpt lat="44.9332013" lon="6.7348581"><ele>1840.75</ele><time>2026-05-01T08:53:33.409Z</time></trkpt><trkpt lat="44.9332452" lon="6.7346986"><ele>1841.0</ele><time>2026-05-01T08:53:34.409Z</time></trkpt><trkpt lat="44.9332995" lon="6.7345617"><ele>1841.0</ele><time>2026-05-01T08:53:35.41Z</time></trkpt><trkpt lat="44.9333601" lon="6.7344397"><ele>1841.0</ele><time>2026-05-01T08:53:36.41Z</time></trkpt><trkpt lat="44.9334173" lon="6.7343392"><ele>1841.0</ele><time>2026-05-01T08:53:37.409Z</time></trkpt><trkpt lat="44.9334648" lon="6.7342598"><ele>1841.0</ele><time>2026-05-01T08:53:38.409Z</time></trkpt><trkpt lat="44.9335403" lon="6.734139"><ele>1841.0</ele><time>2026-05-01T08:53:40.409Z</time></trkpt><trkpt lat="44.9336098" lon="6.7340404"><ele>1842.1666666666665</ele><time>2026-05-01T08:53:42.409Z</time></trkpt><trkpt lat="44.9336975" lon="6.7339089"><ele>1843.3333333333333</ele><time>2026-05-01T08:53:44.409Z</time></trkpt><trkpt lat="44.9337369" lon="6.7338365"><ele>1844.5</ele><time>2026-05-01T08:53:45.41Z</time></trkpt><trkpt lat="44.9337759" lon="6.7337607"><ele>1845.6666666666665</ele><time>2026-05-01T08:53:46.409Z</time></trkpt><trkpt lat="44.9338092" lon="6.7336787"><ele>1846.8333333333333</ele><time>2026-05-01T08:53:47.409Z</time></trkpt><trkpt lat="44.9338431" lon="6.7335858"><ele>1848.0</ele><time>2026-05-01T08:53:48.409Z</time></trkpt><trkpt lat="44.9338717" lon="6.7334682"><ele>1848.0</ele><time>2026-05-01T08:53:49.409Z</time></trkpt><trkpt lat="44.9339034" lon="6.73333"><ele>1848.0000000000002</ele><time>2026-05-01T08:53:50.41Z</time></trkpt><trkpt lat="44.9339353" lon="6.7331776"><ele>1848.0000000000002</ele><time>2026-05-01T08:53:51.409Z</time></trkpt><trkpt lat="44.933971" lon="6.7330279"><ele>1848.0</ele><time>2026-05-01T08:53:52.409Z</time></trkpt><trkpt lat="44.9340108" lon="6.732879"><ele>1848.0</ele><time>2026-05-01T08:53:53.41Z</time></trkpt><trkpt lat="44.9340514" lon="6.7327298"><ele>1847.6000000000001</ele><time>2026-05-01T08:53:54.409Z</time></trkpt><trkpt lat="44.9340894" lon="6.7325835"><ele>1847.2000000000003</ele><time>2026-05-01T08:53:55.409Z</time></trkpt><trkpt lat="44.9341269" lon="6.7324401"><ele>1846.8</ele><time>2026-05-01T08:53:56.409Z</time></trkpt><trkpt lat="44.934161" lon="6.7322901"><ele>1846.4</ele><time>2026-05-01T08:53:57.409Z</time></trkpt><trkpt lat="44.9341941" lon="6.7321328"><ele>1846.0</ele><time>2026-05-01T08:53:58.41Z</time></trkpt><trkpt lat="44.9342241" lon="6.7319552"><ele>1846.0</ele><time>2026-05-01T08:53:59.409Z</time></trkpt><trkpt lat="44.9342417" lon="6.7317635"><ele>1846.0</ele><time>2026-05-01T08:54:00.409Z</time></trkpt><trkpt lat="44.9342344" lon="6.7315712"><ele>1846.0</ele><time>2026-05-01T08:54:01.409Z</time></trkpt><trkpt lat="44.9342168" lon="6.7313789"><ele>1846.0</ele><time>2026-05-01T08:54:02.409Z</time></trkpt><trkpt lat="44.9341472" lon="6.7312009"><ele>1846.5</ele><time>2026-05-01T08:54:03.409Z</time></trkpt><trkpt lat="44.9340867" lon="6.7310198"><ele>1847.0</ele><time>2026-05-01T08:54:04.409Z</time></trkpt><trkpt lat="44.9340247" lon="6.7308408"><ele>1847.5</ele><time>2026-05-01T08:54:05.409Z</time></trkpt><trkpt lat="44.9339637" lon="6.7306679"><ele>1848.0</ele><time>2026-05-01T08:54:06.409Z</time></trkpt><trkpt lat="44.9339065" lon="6.7305049"><ele>1848.0</ele><time>2026-05-01T08:54:07.409Z</time></trkpt><trkpt lat="44.9338511" lon="6.7303467"><ele>1848.0</ele><time>2026-05-01T08:54:08.409Z</time></trkpt><trkpt lat="44.9337955" lon="6.7301841"><ele>1848.0</ele><time>2026-05-01T08:54:09.41Z</time></trkpt><trkpt lat="44.9337413" lon="6.7300172"><ele>1848.0</ele><time>2026-05-01T08:54:10.409Z</time></trkpt><trkpt lat="44.9336861" lon="6.7298501"><ele>1849.5</ele><time>2026-05-01T08:54:11.409Z</time></trkpt><trkpt lat="44.9336329" lon="6.729688"><ele>1851.0</ele><time>2026-05-01T08:54:12.409Z</time></trkpt><trkpt lat="44.9335794" lon="6.7295307"><ele>1852.5</ele><time>2026-05-01T08:54:13.41Z</time></trkpt><trkpt lat="44.9335243" lon="6.7293744"><ele>1854.0</ele><time>2026-05-01T08:54:14.409Z</time></trkpt><trkpt lat="44.9334685" lon="6.729215"><ele>1854.75</ele><time>2026-05-01T08:54:15.409Z</time></trkpt><trkpt lat="44.9334073" lon="6.7290577"><ele>1855.5</ele><time>2026-05-01T08:54:16.409Z</time></trkpt><trkpt lat="44.9333402" lon="6.7289138"><ele>1856.25</ele><time>2026-05-01T08:54:17.409Z</time></trkpt><trkpt lat="44.9332665" lon="6.728785"><ele>1857.0</ele><time>2026-05-01T08:54:18.41Z</time></trkpt><trkpt lat="44.9331944" lon="6.7286705"><ele>1856.1666666666667</ele><time>2026-05-01T08:54:19.41Z</time></trkpt><trkpt lat="44.9331272" lon="6.7285656"><ele>1855.3333333333335</ele><time>2026-05-01T08:54:20.409Z</time></trkpt><trkpt lat="44.9330681" lon="6.7284687"><ele>1854.5</ele><time>2026-05-01T08:54:21.409Z</time></trkpt><trkpt lat="44.9330176" lon="6.7283734"><ele>1853.6666666666667</ele><time>2026-05-01T08:54:22.409Z</time></trkpt><trkpt lat="44.9329812" lon="6.7282704"><ele>1852.8333333333335</ele><time>2026-05-01T08:54:23.409Z</time></trkpt><trkpt lat="44.9329584" lon="6.7281701"><ele>1852.0</ele><time>2026-05-01T08:54:24.41Z</time></trkpt><trkpt lat="44.9329372" lon="6.7280786"><ele>1852.0000000000002</ele><time>2026-05-01T08:54:25.409Z</time></trkpt><trkpt lat="44.932892" lon="6.7280009"><ele>1852.0</ele><time>2026-05-01T08:54:26.409Z</time></trkpt><trkpt lat="44.9328297" lon="6.7279416"><ele>1852.0</ele><time>2026-05-01T08:54:27.409Z</time></trkpt><trkpt lat="44.9327506" lon="6.7278906"><ele>1852.0</ele><time>2026-05-01T08:54:28.41Z</time></trkpt><trkpt lat="44.932662" lon="6.7278293"><ele>1852.0000000000002</ele><time>2026-05-01T08:54:29.409Z</time></trkpt><trkpt lat="44.9325738" lon="6.7277441"><ele>1852.0</ele><time>2026-05-01T08:54:30.409Z</time></trkpt><trkpt lat="44.9324879" lon="6.7276396"><ele>1851.5</ele><time>2026-05-01T08:54:31.409Z</time></trkpt><trkpt lat="44.9323989" lon="6.7275273"><ele>1851.0</ele><time>2026-05-01T08:54:32.41Z</time></trkpt><trkpt lat="44.9323045" lon="6.7274093"><ele>1850.5</ele><time>2026-05-01T08:54:33.409Z</time></trkpt><trkpt lat="44.9322053" lon="6.7272774"><ele>1850.0</ele><time>2026-05-01T08:54:34.409Z</time></trkpt><trkpt lat="44.9321022" lon="6.7271298"><ele>1850.0</ele><time>2026-05-01T08:54:35.409Z</time></trkpt><trkpt lat="44.9319947" lon="6.7269674"><ele>1850.0</ele><time>2026-05-01T08:54:36.409Z</time></trkpt><trkpt lat="44.9318838" lon="6.7267957"><ele>1850.0</ele><time>2026-05-01T08:54:37.409Z</time></trkpt><trkpt lat="44.9317761" lon="6.7266204"><ele>1850.3333333333333</ele><time>2026-05-01T08:54:38.409Z</time></trkpt><trkpt lat="44.9316721" lon="6.7264371"><ele>1850.6666666666665</ele><time>2026-05-01T08:54:39.409Z</time></trkpt><trkpt lat="44.9315728" lon="6.7262508"><ele>1851.0</ele><time>2026-05-01T08:54:40.411Z</time></trkpt><trkpt lat="44.9314782" lon="6.7260613"><ele>1851.3333333333335</ele><time>2026-05-01T08:54:41.409Z</time></trkpt><trkpt lat="44.9313893" lon="6.7258695"><ele>1851.6666666666667</ele><time>2026-05-01T08:54:42.409Z</time></trkpt><trkpt lat="44.9313044" lon="6.7256802"><ele>1852.0</ele><time>2026-05-01T08:54:43.409Z</time></trkpt><trkpt lat="44.9312193" lon="6.7254915"><ele>1852.0</ele><time>2026-05-01T08:54:44.409Z</time></trkpt><trkpt lat="44.931135" lon="6.7253033"><ele>1852.0</ele><time>2026-05-01T08:54:45.409Z</time></trkpt><trkpt lat="44.9310508" lon="6.725115"><ele>1852.0</ele><time>2026-05-01T08:54:46.409Z</time></trkpt><trkpt lat="44.9309682" lon="6.7249311"><ele>1852.0</ele><time>2026-05-01T08:54:47.409Z</time></trkpt><trkpt lat="44.9308841" lon="6.7247434"><ele>1852.0</ele><time>2026-05-01T08:54:48.409Z</time></trkpt><trkpt lat="44.9308025" lon="6.7245621"><ele>1852.0</ele><time>2026-05-01T08:54:49.409Z</time></trkpt><trkpt lat="44.930725" lon="6.7243587"><ele>1852.0</ele><time>2026-05-01T08:54:50.409Z</time></trkpt><trkpt lat="44.9306419" lon="6.7241699"><ele>1852.0</ele><time>2026-05-01T08:54:51.409Z</time></trkpt><trkpt lat="44.9305615" lon="6.723987"><ele>1852.0</ele><time>2026-05-01T08:54:52.409Z</time></trkpt><trkpt lat="44.9298571" lon="6.7204679"><ele>1850.0</ele><time>2026-05-01T08:55:10.409Z</time></trkpt><trkpt lat="44.9298064" lon="6.7203047"><ele>1848.0</ele><time>2026-05-01T08:55:11.41Z</time></trkpt><trkpt lat="44.9297476" lon="6.7201499"><ele>1846.0</ele><time>2026-05-01T08:55:12.409Z</time></trkpt><trkpt lat="44.9296892" lon="6.7200047"><ele>1844.0</ele><time>2026-05-01T08:55:13.409Z</time></trkpt><trkpt lat="44.9296345" lon="6.7198631"><ele>1843.8000000000002</ele><time>2026-05-01T08:55:14.409Z</time></trkpt><trkpt lat="44.9295779" lon="6.7197262"><ele>1843.6000000000001</ele><time>2026-05-01T08:55:15.409Z</time></trkpt><trkpt lat="44.9295264" lon="6.719591"><ele>1843.4</ele><time>2026-05-01T08:55:16.41Z</time></trkpt><trkpt lat="44.9294761" lon="6.7194592"><ele>1843.2</ele><time>2026-05-01T08:55:17.41Z</time></trkpt><trkpt lat="44.9294263" lon="6.7193296"><ele>1843.0</ele><time>2026-05-01T08:55:18.409Z</time></trkpt><trkpt lat="44.9293784" lon="6.7192039"><ele>1842.8000000000002</ele><time>2026-05-01T08:55:19.409Z</time></trkpt><trkpt lat="44.929342" lon="6.7190747"><ele>1842.6000000000001</ele><time>2026-05-01T08:55:20.409Z</time></trkpt><trkpt lat="44.9293183" lon="6.7189438"><ele>1842.3999999999999</ele><time>2026-05-01T08:55:21.409Z</time></trkpt><trkpt lat="44.9292871" lon="6.718815"><ele>1842.1999999999998</ele><time>2026-05-01T08:55:22.409Z</time></trkpt><trkpt lat="44.9292406" lon="6.7186736"><ele>1842.0</ele><time>2026-05-01T08:55:23.409Z</time></trkpt><trkpt lat="44.9292017" lon="6.7185112"><ele>1839.0</ele><time>2026-05-01T08:55:24.409Z</time></trkpt><trkpt lat="44.9291762" lon="6.7183211"><ele>1836.0</ele><time>2026-05-01T08:55:25.41Z</time></trkpt><trkpt lat="44.9291699" lon="6.7181127"><ele>1833.0</ele><time>2026-05-01T08:55:26.41Z</time></trkpt><trkpt lat="44.9291832" lon="6.7178982"><ele>1830.0</ele><time>2026-05-01T08:55:27.409Z</time></trkpt><trkpt lat="44.9292034" lon="6.7176891"><ele>1828.75</ele><time>2026-05-01T08:55:28.41Z</time></trkpt><trkpt lat="44.9292191" lon="6.7174897"><ele>1827.5</ele><time>2026-05-01T08:55:29.409Z</time></trkpt><trkpt lat="44.9292233" lon="6.7172905"><ele>1826.25</ele><time>2026-05-01T08:55:30.41Z</time></trkpt><trkpt lat="44.9292121" lon="6.7170928"><ele>1825.0</ele><time>2026-05-01T08:55:31.409Z</time></trkpt><trkpt lat="44.92919" lon="6.7168973"><ele>1824.0</ele><time>2026-05-01T08:55:32.409Z</time></trkpt><trkpt lat="44.929162" lon="6.7167031"><ele>1823.0</ele><time>2026-05-01T08:55:33.41Z</time></trkpt><trkpt lat="44.9291343" lon="6.7165093"><ele>1822.0</ele><time>2026-05-01T08:55:34.409Z</time></trkpt><trkpt lat="44.9291062" lon="6.7163161"><ele>1821.0</ele><time>2026-05-01T08:55:35.409Z</time></trkpt><trkpt lat="44.9290765" lon="6.7161227"><ele>1820.25</ele><time>2026-05-01T08:55:36.409Z</time></trkpt><trkpt lat="44.9290502" lon="6.7159353"><ele>1819.5</ele><time>2026-05-01T08:55:37.41Z</time></trkpt><trkpt lat="44.9290235" lon="6.7157528"><ele>1818.75</ele><time>2026-05-01T08:55:38.409Z</time></trkpt><trkpt lat="44.9289958" lon="6.7155745"><ele>1818.0</ele><time>2026-05-01T08:55:39.41Z</time></trkpt><trkpt lat="44.9289683" lon="6.7153991"><ele>1816.5</ele><time>2026-05-01T08:55:40.41Z</time></trkpt><trkpt lat="44.9289426" lon="6.715225"><ele>1815.0</ele><time>2026-05-01T08:55:41.409Z</time></trkpt><trkpt lat="44.9289157" lon="6.7150483"><ele>1813.5</ele><time>2026-05-01T08:55:42.409Z</time></trkpt><trkpt lat="44.9288864" lon="6.7148731"><ele>1812.0</ele><time>2026-05-01T08:55:43.409Z</time></trkpt><trkpt lat="44.9288576" lon="6.7146964"><ele>1812.0</ele><time>2026-05-01T08:55:44.409Z</time></trkpt><trkpt lat="44.9288313" lon="6.7145198"><ele>1812.0</ele><time>2026-05-01T08:55:45.41Z</time></trkpt><trkpt lat="44.9288036" lon="6.7143439"><ele>1812.0</ele><time>2026-05-01T08:55:46.409Z</time></trkpt><trkpt lat="44.9287722" lon="6.7141703"><ele>1812.0</ele><time>2026-05-01T08:55:47.41Z</time></trkpt><trkpt lat="44.9287363" lon="6.7139941"><ele>1811.5</ele><time>2026-05-01T08:55:48.409Z</time></trkpt><trkpt lat="44.9286946" lon="6.7138041"><ele>1811.0</ele><time>2026-05-01T08:55:49.409Z</time></trkpt><trkpt lat="44.9286459" lon="6.7136058"><ele>1810.5</ele><time>2026-05-01T08:55:50.409Z</time></trkpt><trkpt lat="44.9285901" lon="6.7133996"><ele>1810.0</ele><time>2026-05-01T08:55:51.409Z</time></trkpt><trkpt lat="44.9285293" lon="6.7131857"><ele>1809.6666666666667</ele><time>2026-05-01T08:55:52.409Z</time></trkpt><trkpt lat="44.9284654" lon="6.712973"><ele>1809.3333333333335</ele><time>2026-05-01T08:55:53.409Z</time></trkpt><trkpt lat="44.9283988" lon="6.7127648"><ele>1809.0</ele><time>2026-05-01T08:55:54.409Z</time></trkpt><trkpt lat="44.9283308" lon="6.7125589"><ele>1805.0</ele><time>2026-05-01T08:55:55.409Z</time></trkpt><trkpt lat="44.9282619" lon="6.7123525"><ele>1801.0</ele><time>2026-05-01T08:55:56.41Z</time></trkpt><trkpt lat="44.9281919" lon="6.7121441"><ele>1797.0</ele><time>2026-05-01T08:55:57.409Z</time></trkpt><trkpt lat="44.9281207" lon="6.7119298"><ele>1796.6666666666665</ele><time>2026-05-01T08:55:58.409Z</time></trkpt><trkpt lat="44.9280497" lon="6.7117087"><ele>1796.3333333333333</ele><time>2026-05-01T08:55:59.409Z</time></trkpt><trkpt lat="44.9279771" lon="6.7114841"><ele>1796.0</ele><time>2026-05-01T08:56:00.409Z</time></trkpt><trkpt lat="44.9279057" lon="6.7112577"><ele>1796.3333333333333</ele><time>2026-05-01T08:56:01.41Z</time></trkpt><trkpt lat="44.9278375" lon="6.711025"><ele>1796.6666666666665</ele><time>2026-05-01T08:56:02.409Z</time></trkpt><trkpt lat="44.9277752" lon="6.7107882"><ele>1797.0</ele><time>2026-05-01T08:56:03.409Z</time></trkpt><trkpt lat="44.9277207" lon="6.7105491"><ele>1797.0</ele><time>2026-05-01T08:56:04.409Z</time></trkpt><trkpt lat="44.9276653" lon="6.7103153"><ele>1797.0</ele><time>2026-05-01T08:56:05.409Z</time></trkpt><trkpt lat="44.9276026" lon="6.7100888"><ele>1797.0</ele><time>2026-05-01T08:56:06.409Z</time></trkpt><trkpt lat="44.9275286" lon="6.7098721"><ele>1791.6666666666665</ele><time>2026-05-01T08:56:07.409Z</time></trkpt><trkpt lat="44.9274421" lon="6.7096636"><ele>1786.3333333333333</ele><time>2026-05-01T08:56:08.409Z</time></trkpt><trkpt lat="44.9273499" lon="6.7094654"><ele>1781.0</ele><time>2026-05-01T08:56:09.409Z</time></trkpt><trkpt lat="44.927263" lon="6.7092636"><ele>1781.0</ele><time>2026-05-01T08:56:10.409Z</time></trkpt><trkpt lat="44.9272001" lon="6.709051"><ele>1781.0</ele><time>2026-05-01T08:56:11.409Z</time></trkpt><trkpt lat="44.9271648" lon="6.7088293"><ele>1781.0</ele><time>2026-05-01T08:56:12.41Z</time></trkpt><trkpt lat="44.9271553" lon="6.7086062"><ele>1782.3333333333333</ele><time>2026-05-01T08:56:13.409Z</time></trkpt><trkpt lat="44.9271359" lon="6.7083884"><ele>1783.6666666666665</ele><time>2026-05-01T08:56:14.409Z</time></trkpt><trkpt lat="44.9270872" lon="6.7081808"><ele>1785.0</ele><time>2026-05-01T08:56:15.409Z</time></trkpt><trkpt lat="44.9270223" lon="6.707975"><ele>1785.0</ele><time>2026-05-01T08:56:16.409Z</time></trkpt><trkpt lat="44.926948" lon="6.7077631"><ele>1785.0</ele><time>2026-05-01T08:56:17.409Z</time></trkpt><trkpt lat="44.9268782" lon="6.707553"><ele>1785.0</ele><time>2026-05-01T08:56:18.409Z</time></trkpt><trkpt lat="44.9268245" lon="6.7073363"><ele>1784.3333333333335</ele><time>2026-05-01T08:56:19.41Z</time></trkpt><trkpt lat="44.9268016" lon="6.7071102"><ele>1783.6666666666667</ele><time>2026-05-01T08:56:20.41Z</time></trkpt><trkpt lat="44.9268015" lon="6.7068835"><ele>1783.0</ele><time>2026-05-01T08:56:21.41Z</time></trkpt><trkpt lat="44.9268167" lon="6.7066602"><ele>1783.0</ele><time>2026-05-01T08:56:22.409Z</time></trkpt><trkpt lat="44.9268513" lon="6.7064364"><ele>1783.0</ele><time>2026-05-01T08:56:23.409Z</time></trkpt><trkpt lat="44.9268981" lon="6.7062099"><ele>1783.0</ele><time>2026-05-01T08:56:24.409Z</time></trkpt><trkpt lat="44.9269482" lon="6.7059791"><ele>1781.6666666666667</ele><time>2026-05-01T08:56:25.41Z</time></trkpt><trkpt lat="44.9269994" lon="6.7057442"><ele>1780.3333333333335</ele><time>2026-05-01T08:56:26.409Z</time></trkpt><trkpt lat="44.9270517" lon="6.7055116"><ele>1779.0</ele><time>2026-05-01T08:56:27.409Z</time></trkpt><trkpt lat="44.9271036" lon="6.7052839"><ele>1774.3333333333335</ele><time>2026-05-01T08:56:28.409Z</time></trkpt><trkpt lat="44.9271552" lon="6.70506"><ele>1769.6666666666667</ele><time>2026-05-01T08:56:29.409Z</time></trkpt><trkpt lat="44.9272056" lon="6.7048395"><ele>1765.0</ele><time>2026-05-01T08:56:30.409Z</time></trkpt><trkpt lat="44.9272606" lon="6.7046321"><ele>1765.0</ele><time>2026-05-01T08:56:31.409Z</time></trkpt><trkpt lat="44.9273171" lon="6.7044462"><ele>1765.0</ele><time>2026-05-01T08:56:32.409Z</time></trkpt><trkpt lat="44.9273673" lon="6.7042822"><ele>1765.0</ele><time>2026-05-01T08:56:33.409Z</time></trkpt><trkpt lat="44.9273908" lon="6.7041161"><ele>1765.0</ele><time>2026-05-01T08:56:34.41Z</time></trkpt><trkpt lat="44.9273831" lon="6.7039452"><ele>1763.75</ele><time>2026-05-01T08:56:35.409Z</time></trkpt><trkpt lat="44.9273377" lon="6.7037785"><ele>1762.5</ele><time>2026-05-01T08:56:36.409Z</time></trkpt><trkpt lat="44.9272572" lon="6.7036229"><ele>1761.25</ele><time>2026-05-01T08:56:37.409Z</time></trkpt><trkpt lat="44.9271498" lon="6.7034624"><ele>1760.0</ele><time>2026-05-01T08:56:38.409Z</time></trkpt><trkpt lat="44.9270463" lon="6.7032816"><ele>1760.0</ele><time>2026-05-01T08:56:39.41Z</time></trkpt><trkpt lat="44.9269685" lon="6.703074"><ele>1760.0</ele><time>2026-05-01T08:56:40.409Z</time></trkpt><trkpt lat="44.9269178" lon="6.702848"><ele>1760.0</ele><time>2026-05-01T08:56:41.409Z</time></trkpt><trkpt lat="44.9268964" lon="6.7026204"><ele>1762.5</ele><time>2026-05-01T08:56:42.409Z</time></trkpt><trkpt lat="44.926871" lon="6.7024103"><ele>1765.0</ele><time>2026-05-01T08:56:43.409Z</time></trkpt><trkpt lat="44.9268097" lon="6.7022234"><ele>1767.5</ele><time>2026-05-01T08:56:44.409Z</time></trkpt><trkpt lat="44.9267306" lon="6.7020565"><ele>1770.0</ele><time>2026-05-01T08:56:45.409Z</time></trkpt><trkpt lat="44.9266697" lon="6.7018781"><ele>1759.25</ele><time>2026-05-01T08:56:46.409Z</time></trkpt><trkpt lat="44.9266549" lon="6.7016806"><ele>1748.5</ele><time>2026-05-01T08:56:47.409Z</time></trkpt><trkpt lat="44.9266661" lon="6.7014731"><ele>1737.75</ele><time>2026-05-01T08:56:48.409Z</time></trkpt><trkpt lat="44.9266782" lon="6.7012462"><ele>1727.0</ele><time>2026-05-01T08:56:49.409Z</time></trkpt><trkpt lat="44.9266686" lon="6.701013"><ele>1726.0</ele><time>2026-05-01T08:56:50.409Z</time></trkpt><trkpt lat="44.9266394" lon="6.7007894"><ele>1725.0</ele><time>2026-05-01T08:56:51.409Z</time></trkpt><trkpt lat="44.9266137" lon="6.7005664"><ele>1724.0</ele><time>2026-05-01T08:56:52.41Z</time></trkpt><trkpt lat="44.9266214" lon="6.7003426"><ele>1723.0</ele><time>2026-05-01T08:56:53.409Z</time></trkpt><trkpt lat="44.926653" lon="6.7001259"><ele>1722.0</ele><time>2026-05-01T08:56:54.409Z</time></trkpt><trkpt lat="44.926695" lon="6.6999157"><ele>1721.0</ele><time>2026-05-01T08:56:55.409Z</time></trkpt><trkpt lat="44.9267305" lon="6.6996958"><ele>1718.6666666666665</ele><time>2026-05-01T08:56:56.409Z</time></trkpt><trkpt lat="44.9267418" lon="6.6994631"><ele>1716.3333333333335</ele><time>2026-05-01T08:56:57.409Z</time></trkpt><trkpt lat="44.9267327" lon="6.6992368"><ele>1714.0</ele><time>2026-05-01T08:56:58.409Z</time></trkpt><trkpt lat="44.9267104" lon="6.6990184"><ele>1714.0</ele><time>2026-05-01T08:56:59.409Z</time></trkpt><trkpt lat="44.9266832" lon="6.6988225"><ele>1714.0</ele><time>2026-05-01T08:57:00.409Z</time></trkpt><trkpt lat="44.9266689" lon="6.6986442"><ele>1714.0</ele><time>2026-05-01T08:57:01.409Z</time></trkpt><trkpt lat="44.926682" lon="6.6984734"><ele>1714.0</ele><time>2026-05-01T08:57:02.41Z</time></trkpt><trkpt lat="44.9267343" lon="6.6983186"><ele>1722.0</ele><time>2026-05-01T08:57:03.409Z</time></trkpt><trkpt lat="44.9268227" lon="6.6982059"><ele>1730.0</ele><time>2026-05-01T08:57:04.409Z</time></trkpt><trkpt lat="44.9269266" lon="6.6981244"><ele>1738.0</ele><time>2026-05-01T08:57:05.409Z</time></trkpt><trkpt lat="44.9270194" lon="6.6980148"><ele>1746.0</ele><time>2026-05-01T08:57:06.409Z</time></trkpt><trkpt lat="44.9270787" lon="6.6978705"><ele>1743.5</ele><time>2026-05-01T08:57:07.41Z</time></trkpt><trkpt lat="44.9270998" lon="6.6977121"><ele>1741.0</ele><time>2026-05-01T08:57:08.409Z</time></trkpt><trkpt lat="44.927081" lon="6.6975359"><ele>1738.5</ele><time>2026-05-01T08:57:09.409Z</time></trkpt><trkpt lat="44.9270421" lon="6.6973494"><ele>1736.0</ele><time>2026-05-01T08:57:10.409Z</time></trkpt><trkpt lat="44.9269914" lon="6.6971604"><ele>1736.0</ele><time>2026-05-01T08:57:11.41Z</time></trkpt><trkpt lat="44.926949" lon="6.6969724"><ele>1736.0</ele><time>2026-05-01T08:57:12.409Z</time></trkpt><trkpt lat="44.9269392" lon="6.6967793"><ele>1736.0</ele><time>2026-05-01T08:57:13.409Z</time></trkpt><trkpt lat="44.9269672" lon="6.6965903"><ele>1736.0</ele><time>2026-05-01T08:57:14.409Z</time></trkpt><trkpt lat="44.92701" lon="6.6964053"><ele>1734.5</ele><time>2026-05-01T08:57:15.409Z</time></trkpt><trkpt lat="44.9270462" lon="6.696209"><ele>1733.0</ele><time>2026-05-01T08:57:16.409Z</time></trkpt><trkpt lat="44.9270754" lon="6.6960133"><ele>1731.5</ele><time>2026-05-01T08:57:17.409Z</time></trkpt><trkpt lat="44.9271033" lon="6.6958194"><ele>1730.0</ele><time>2026-05-01T08:57:18.409Z</time></trkpt><trkpt lat="44.9271251" lon="6.6956372"><ele>1726.4</ele><time>2026-05-01T08:57:19.41Z</time></trkpt><trkpt lat="44.9271475" lon="6.6954809"><ele>1722.8</ele><time>2026-05-01T08:57:20.41Z</time></trkpt><trkpt lat="44.9271935" lon="6.6953597"><ele>1719.1999999999998</ele><time>2026-05-01T08:57:21.409Z</time></trkpt><trkpt lat="44.9272653" lon="6.6952746"><ele>1715.6</ele><time>2026-05-01T08:57:22.409Z</time></trkpt><trkpt lat="44.9273551" lon="6.6952286"><ele>1712.0</ele><time>2026-05-01T08:57:23.409Z</time></trkpt><trkpt lat="44.9274553" lon="6.6951902"><ele>1707.25</ele><time>2026-05-01T08:57:24.409Z</time></trkpt><trkpt lat="44.9275621" lon="6.6951191"><ele>1702.5</ele><time>2026-05-01T08:57:25.409Z</time></trkpt><trkpt lat="44.9276585" lon="6.6950248"><ele>1697.75</ele><time>2026-05-01T08:57:26.409Z</time></trkpt><trkpt lat="44.9277564" lon="6.6949417"><ele>1693.0</ele><time>2026-05-01T08:57:27.409Z</time></trkpt><trkpt lat="44.9278641" lon="6.6948932"><ele>1693.0</ele><time>2026-05-01T08:57:28.409Z</time></trkpt><trkpt lat="44.9279795" lon="6.6948832"><ele>1693.0</ele><time>2026-05-01T08:57:29.409Z</time></trkpt><trkpt lat="44.9281072" lon="6.6949032"><ele>1693.0</ele><time>2026-05-01T08:57:30.409Z</time></trkpt><trkpt lat="44.9282333" lon="6.6949407"><ele>1693.0</ele><time>2026-05-01T08:57:31.41Z</time></trkpt><trkpt lat="44.9283577" lon="6.6949645"><ele>1692.5</ele><time>2026-05-01T08:57:32.409Z</time></trkpt><trkpt lat="44.9284885" lon="6.6949718"><ele>1692.0</ele><time>2026-05-01T08:57:33.41Z</time></trkpt><trkpt lat="44.9286343" lon="6.694953"><ele>1691.5</ele><time>2026-05-01T08:57:34.409Z</time></trkpt><trkpt lat="44.9287894" lon="6.6949078"><ele>1691.0</ele><time>2026-05-01T08:57:35.409Z</time></trkpt><trkpt lat="44.9289491" lon="6.6948453"><ele>1691.0</ele><time>2026-05-01T08:57:36.41Z</time></trkpt><trkpt lat="44.9291133" lon="6.6947785"><ele>1691.0</ele><time>2026-05-01T08:57:37.409Z</time></trkpt><trkpt lat="44.9292831" lon="6.6947175"><ele>1691.0</ele><time>2026-05-01T08:57:38.41Z</time></trkpt><trkpt lat="44.929456" lon="6.6946686"><ele>1691.0</ele><time>2026-05-01T08:57:39.409Z</time></trkpt><trkpt lat="44.9296292" lon="6.6946326"><ele>1691.0</ele><time>2026-05-01T08:57:40.409Z</time></trkpt><trkpt lat="44.9298001" lon="6.694614"><ele>1691.0</ele><time>2026-05-01T08:57:41.41Z</time></trkpt><trkpt lat="44.9299663" lon="6.6946077"><ele>1690.6</ele><time>2026-05-01T08:57:42.409Z</time></trkpt><trkpt lat="44.9301097" lon="6.6946108"><ele>1690.1999999999998</ele><time>2026-05-01T08:57:43.41Z</time></trkpt><trkpt lat="44.9302294" lon="6.6946205"><ele>1689.8000000000002</ele><time>2026-05-01T08:57:44.409Z</time></trkpt><trkpt lat="44.930325" lon="6.6946371"><ele>1689.4</ele><time>2026-05-01T08:57:45.409Z</time></trkpt><trkpt lat="44.9303977" lon="6.6946277"><ele>1689.0</ele><time>2026-05-01T08:57:46.409Z</time></trkpt><trkpt lat="44.9304636" lon="6.6945825"><ele>1689.0</ele><time>2026-05-01T08:57:47.409Z</time></trkpt><trkpt lat="44.9304983" lon="6.6945053"><ele>1689.0</ele><time>2026-05-01T08:57:48.409Z</time></trkpt><trkpt lat="44.9304466" lon="6.6943637"><ele>1689.0</ele><time>2026-05-01T08:57:50.409Z</time></trkpt><trkpt lat="44.9303731" lon="6.6943379"><ele>1689.0</ele><time>2026-05-01T08:57:51.409Z</time></trkpt><trkpt lat="44.9302695" lon="6.6943364"><ele>1689.0</ele><time>2026-05-01T08:57:52.41Z</time></trkpt><trkpt lat="44.9301413" lon="6.6943368"><ele>1678.0</ele><time>2026-05-01T08:57:53.409Z</time></trkpt><trkpt lat="44.9299968" lon="6.6943264"><ele>1667.0</ele><time>2026-05-01T08:57:54.409Z</time></trkpt><trkpt lat="44.9298439" lon="6.6942958"><ele>1656.0</ele><time>2026-05-01T08:57:55.409Z</time></trkpt><trkpt lat="44.9296918" lon="6.6942562"><ele>1656.0</ele><time>2026-05-01T08:57:56.409Z</time></trkpt><trkpt lat="44.9295402" lon="6.694228"><ele>1656.0</ele><time>2026-05-01T08:57:57.409Z</time></trkpt><trkpt lat="44.9293909" lon="6.6942329"><ele>1656.0</ele><time>2026-05-01T08:57:58.409Z</time></trkpt><trkpt lat="44.9292469" lon="6.6942619"><ele>1656.0</ele><time>2026-05-01T08:57:59.409Z</time></trkpt><trkpt lat="44.9291099" lon="6.6943051"><ele>1656.25</ele><time>2026-05-01T08:58:00.409Z</time></trkpt><trkpt lat="44.9289795" lon="6.694352"><ele>1656.5</ele><time>2026-05-01T08:58:01.41Z</time></trkpt><trkpt lat="44.9288505" lon="6.6943699"><ele>1656.75</ele><time>2026-05-01T08:58:02.409Z</time></trkpt><trkpt lat="44.9287298" lon="6.6943322"><ele>1657.0</ele><time>2026-05-01T08:58:03.409Z</time></trkpt><trkpt lat="44.9286335" lon="6.6942414"><ele>1657.0</ele><time>2026-05-01T08:58:04.409Z</time></trkpt><trkpt lat="44.9285702" lon="6.6941165"><ele>1657.0</ele><time>2026-05-01T08:58:05.409Z</time></trkpt><trkpt lat="44.9285304" lon="6.6939476"><ele>1657.0</ele><time>2026-05-01T08:58:06.409Z</time></trkpt><trkpt lat="44.9284626" lon="6.6937836"><ele>1657.0</ele><time>2026-05-01T08:58:07.409Z</time></trkpt><trkpt lat="44.928351" lon="6.6936497"><ele>1651.0</ele><time>2026-05-01T08:58:08.409Z</time></trkpt><trkpt lat="44.9282074" lon="6.6935336"><ele>1645.0</ele><time>2026-05-01T08:58:09.409Z</time></trkpt><trkpt lat="44.9280499" lon="6.6934101"><ele>1639.0</ele><time>2026-05-01T08:58:10.409Z</time></trkpt><trkpt lat="44.9279026" lon="6.6932478"><ele>1639.0</ele><time>2026-05-01T08:58:11.409Z</time></trkpt><trkpt lat="44.9277617" lon="6.6930775"><ele>1639.0</ele><time>2026-05-01T08:58:12.409Z</time></trkpt><trkpt lat="44.9276216" lon="6.6929241"><ele>1639.0</ele><time>2026-05-01T08:58:13.409Z</time></trkpt><trkpt lat="44.9274889" lon="6.6927834"><ele>1636.0</ele><time>2026-05-01T08:58:14.409Z</time></trkpt><trkpt lat="44.9273753" lon="6.6926697"><ele>1633.0</ele><time>2026-05-01T08:58:15.408Z</time></trkpt><trkpt lat="44.9272602" lon="6.6925958"><ele>1630.0</ele><time>2026-05-01T08:58:16.408Z</time></trkpt><trkpt lat="44.9271383" lon="6.6925756"><ele>1627.0</ele><time>2026-05-01T08:58:17.408Z</time></trkpt><trkpt lat="44.927028" lon="6.6926206"><ele>1627.0</ele><time>2026-05-01T08:58:18.408Z</time></trkpt><trkpt lat="44.9269376" lon="6.6927206"><ele>1627.0</ele><time>2026-05-01T08:58:19.409Z</time></trkpt><trkpt lat="44.9268672" lon="6.692875"><ele>1627.0</ele><time>2026-05-01T08:58:20.408Z</time></trkpt><trkpt lat="44.9268308" lon="6.69307"><ele>1627.0</ele><time>2026-05-01T08:58:21.408Z</time></trkpt><trkpt lat="44.9268288" lon="6.6932903"><ele>1634.25</ele><time>2026-05-01T08:58:22.409Z</time></trkpt><trkpt lat="44.9268532" lon="6.6935018"><ele>1641.5</ele><time>2026-05-01T08:58:23.408Z</time></trkpt><trkpt lat="44.9268698" lon="6.6937043"><ele>1648.75</ele><time>2026-05-01T08:58:24.408Z</time></trkpt><trkpt lat="44.9268507" lon="6.6938847"><ele>1656.0</ele><time>2026-05-01T08:58:25.408Z</time></trkpt><trkpt lat="44.9267869" lon="6.6940282"><ele>1656.75</ele><time>2026-05-01T08:58:26.409Z</time></trkpt><trkpt lat="44.9266889" lon="6.6941357"><ele>1657.5</ele><time>2026-05-01T08:58:27.408Z</time></trkpt><trkpt lat="44.9265629" lon="6.6942433"><ele>1658.25</ele><time>2026-05-01T08:58:28.408Z</time></trkpt><trkpt lat="44.9264233" lon="6.6943614"><ele>1659.0</ele><time>2026-05-01T08:58:29.408Z</time></trkpt><trkpt lat="44.9262777" lon="6.6944671"><ele>1659.0</ele><time>2026-05-01T08:58:30.409Z</time></trkpt><trkpt lat="44.9261363" lon="6.6945536"><ele>1659.0</ele><time>2026-05-01T08:58:31.408Z</time></trkpt><trkpt lat="44.9260062" lon="6.6946331"><ele>1659.0</ele><time>2026-05-01T08:58:32.408Z</time></trkpt><trkpt lat="44.9259091" lon="6.6947367"><ele>1659.0</ele><time>2026-05-01T08:58:33.408Z</time></trkpt><trkpt lat="44.9258342" lon="6.6948835"><ele>1651.25</ele><time>2026-05-01T08:58:34.409Z</time></trkpt><trkpt lat="44.9257885" lon="6.6950695"><ele>1643.5</ele><time>2026-05-01T08:58:35.408Z</time></trkpt><trkpt lat="44.9257723" lon="6.695281"><ele>1635.75</ele><time>2026-05-01T08:58:36.408Z</time></trkpt><trkpt lat="44.925748" lon="6.6954947"><ele>1628.0</ele><time>2026-05-01T08:58:37.408Z</time></trkpt><trkpt lat="44.9256856" lon="6.6956883"><ele>1628.0</ele><time>2026-05-01T08:58:38.408Z</time></trkpt><trkpt lat="44.925628" lon="6.6958706"><ele>1628.0</ele><time>2026-05-01T08:58:39.408Z</time></trkpt><trkpt lat="44.9256044" lon="6.6960587"><ele>1628.0</ele><time>2026-05-01T08:58:40.408Z</time></trkpt><trkpt lat="44.9255962" lon="6.6962357"><ele>1628.0</ele><time>2026-05-01T08:58:41.408Z</time></trkpt><trkpt lat="44.9255689" lon="6.6963679"><ele>1627.9999999999998</ele><time>2026-05-01T08:58:42.408Z</time></trkpt><trkpt lat="44.9255218" lon="6.6964547"><ele>1628.0</ele><time>2026-05-01T08:58:43.408Z</time></trkpt><trkpt lat="44.9254617" lon="6.6964918"><ele>1628.0</ele><time>2026-05-01T08:58:44.408Z</time></trkpt><trkpt lat="44.9253716" lon="6.6964026"><ele>1628.0</ele><time>2026-05-01T08:58:46.41Z</time></trkpt><trkpt lat="44.925369" lon="6.6962891"><ele>1627.9999999999998</ele><time>2026-05-01T08:58:47.408Z</time></trkpt><trkpt lat="44.9253917" lon="6.6961333"><ele>1628.0</ele><time>2026-05-01T08:58:48.408Z</time></trkpt><trkpt lat="44.9254268" lon="6.6959499"><ele>1628.0</ele><time>2026-05-01T08:58:49.409Z</time></trkpt><trkpt lat="44.9254695" lon="6.6957462"><ele>1628.0</ele><time>2026-05-01T08:58:50.408Z</time></trkpt><trkpt lat="44.9255155" lon="6.6955435"><ele>1628.0</ele><time>2026-05-01T08:58:51.408Z</time></trkpt><trkpt lat="44.9255454" lon="6.695337"><ele>1625.75</ele><time>2026-05-01T08:58:52.409Z</time></trkpt><trkpt lat="44.9255472" lon="6.6951253"><ele>1623.5</ele><time>2026-05-01T08:58:53.409Z</time></trkpt><trkpt lat="44.9255212" lon="6.6949281"><ele>1621.25</ele><time>2026-05-01T08:58:54.408Z</time></trkpt><trkpt lat="44.925495" lon="6.6947541"><ele>1619.0</ele><time>2026-05-01T08:58:55.408Z</time></trkpt><trkpt lat="44.925503" lon="6.6946012"><ele>1619.0</ele><time>2026-05-01T08:58:56.409Z</time></trkpt><trkpt lat="44.9255493" lon="6.6944662"><ele>1619.0</ele><time>2026-05-01T08:58:57.408Z</time></trkpt><trkpt lat="44.9256297" lon="6.6943825"><ele>1619.0</ele><time>2026-05-01T08:58:58.408Z</time></trkpt><trkpt lat="44.9257326" lon="6.6943271"><ele>1619.0</ele><time>2026-05-01T08:58:59.409Z</time></trkpt><trkpt lat="44.9258473" lon="6.6942543"><ele>1619.0</ele><time>2026-05-01T08:59:00.408Z</time></trkpt><trkpt lat="44.9259588" lon="6.6941659"><ele>1622.4</ele><time>2026-05-01T08:59:01.408Z</time></trkpt><trkpt lat="44.926061" lon="6.6940816"><ele>1625.8000000000002</ele><time>2026-05-01T08:59:02.408Z</time></trkpt><trkpt lat="44.9261573" lon="6.6939981"><ele>1629.1999999999998</ele><time>2026-05-01T08:59:03.409Z</time></trkpt><trkpt lat="44.926235" lon="6.6938931"><ele>1632.6</ele><time>2026-05-01T08:59:04.408Z</time></trkpt><trkpt lat="44.9262831" lon="6.6937615"><ele>1636.0</ele><time>2026-05-01T08:59:05.41Z</time></trkpt><trkpt lat="44.9263081" lon="6.6936118"><ele>1632.25</ele><time>2026-05-01T08:59:06.408Z</time></trkpt><trkpt lat="44.9263151" lon="6.6934447"><ele>1628.5</ele><time>2026-05-01T08:59:07.408Z</time></trkpt><trkpt lat="44.926313" lon="6.6932674"><ele>1624.75</ele><time>2026-05-01T08:59:08.408Z</time></trkpt><trkpt lat="44.9263095" lon="6.6930851"><ele>1621.0</ele><time>2026-05-01T08:59:09.408Z</time></trkpt><trkpt lat="44.9263064" lon="6.6929105"><ele>1619.1999999999998</ele><time>2026-05-01T08:59:10.408Z</time></trkpt><trkpt lat="44.9262983" lon="6.692755"><ele>1617.3999999999999</ele><time>2026-05-01T08:59:11.408Z</time></trkpt><trkpt lat="44.9262805" lon="6.6926253"><ele>1615.6</ele><time>2026-05-01T08:59:12.408Z</time></trkpt><trkpt lat="44.9262532" lon="6.692501"><ele>1613.8</ele><time>2026-05-01T08:59:13.408Z</time></trkpt><trkpt lat="44.9262285" lon="6.6923808"><ele>1612.0</ele><time>2026-05-01T08:59:14.408Z</time></trkpt><trkpt lat="44.9262277" lon="6.6922576"><ele>1612.0</ele><time>2026-05-01T08:59:15.408Z</time></trkpt><trkpt lat="44.9262623" lon="6.692148"><ele>1612.0</ele><time>2026-05-01T08:59:16.408Z</time></trkpt><trkpt lat="44.926326" lon="6.6920531"><ele>1612.0</ele><time>2026-05-01T08:59:17.408Z</time></trkpt><trkpt lat="44.9263963" lon="6.6919346"><ele>1612.0</ele><time>2026-05-01T08:59:18.408Z</time></trkpt><trkpt lat="44.9264649" lon="6.6917925"><ele>1612.0</ele><time>2026-05-01T08:59:19.408Z</time></trkpt><trkpt lat="44.9265425" lon="6.6916462"><ele>1607.1999999999998</ele><time>2026-05-01T08:59:20.409Z</time></trkpt><trkpt lat="44.9266353" lon="6.6915288"><ele>1602.4</ele><time>2026-05-01T08:59:21.409Z</time></trkpt><trkpt lat="44.9267368" lon="6.6914607"><ele>1597.6</ele><time>2026-05-01T08:59:22.408Z</time></trkpt><trkpt lat="44.9268411" lon="6.6914412"><ele>1592.8000000000002</ele><time>2026-05-01T08:59:23.408Z</time></trkpt><trkpt lat="44.926941" lon="6.6914726"><ele>1588.0</ele><time>2026-05-01T08:59:24.408Z</time></trkpt><trkpt lat="44.9270354" lon="6.6915471"><ele>1584.5</ele><time>2026-05-01T08:59:25.408Z</time></trkpt><trkpt lat="44.9271413" lon="6.6916356"><ele>1581.0</ele><time>2026-05-01T08:59:26.409Z</time></trkpt><trkpt lat="44.9272675" lon="6.6917048"><ele>1577.5</ele><time>2026-05-01T08:59:27.408Z</time></trkpt><trkpt lat="44.9274071" lon="6.6917632"><ele>1574.0</ele><time>2026-05-01T08:59:28.408Z</time></trkpt><trkpt lat="44.9275529" lon="6.6918327"><ele>1572.25</ele><time>2026-05-01T08:59:29.408Z</time></trkpt><trkpt lat="44.9276945" lon="6.6919043"><ele>1570.5</ele><time>2026-05-01T08:59:30.409Z</time></trkpt><trkpt lat="44.9278306" lon="6.691972"><ele>1568.75</ele><time>2026-05-01T08:59:31.408Z</time></trkpt><trkpt lat="44.9279605" lon="6.6920391"><ele>1567.0</ele><time>2026-05-01T08:59:32.408Z</time></trkpt><trkpt lat="44.9280851" lon="6.6921016"><ele>1576.0</ele><time>2026-05-01T08:59:33.408Z</time></trkpt><trkpt lat="44.9282083" lon="6.6921498"><ele>1585.0</ele><time>2026-05-01T08:59:34.408Z</time></trkpt><trkpt lat="44.9283263" lon="6.6921734"><ele>1594.0</ele><time>2026-05-01T08:59:35.408Z</time></trkpt><trkpt lat="44.9284379" lon="6.6921641"><ele>1603.0</ele><time>2026-05-01T08:59:36.409Z</time></trkpt><trkpt lat="44.928542" lon="6.6921173"><ele>1600.25</ele><time>2026-05-01T08:59:37.408Z</time></trkpt><trkpt lat="44.9286325" lon="6.6920293"><ele>1597.5</ele><time>2026-05-01T08:59:38.409Z</time></trkpt><trkpt lat="44.9287135" lon="6.6919074"><ele>1594.75</ele><time>2026-05-01T08:59:39.409Z</time></trkpt><trkpt lat="44.9287747" lon="6.6917601"><ele>1592.0</ele><time>2026-05-01T08:59:40.408Z</time></trkpt><trkpt lat="44.9288186" lon="6.6915973"><ele>1592.0</ele><time>2026-05-01T08:59:41.409Z</time></trkpt><trkpt lat="44.9288448" lon="6.6914377"><ele>1592.0</ele><time>2026-05-01T08:59:42.408Z</time></trkpt><trkpt lat="44.9288538" lon="6.6912789"><ele>1592.0</ele><time>2026-05-01T08:59:43.408Z</time></trkpt><trkpt lat="44.9288584" lon="6.6911227"><ele>1592.0</ele><time>2026-05-01T08:59:44.408Z</time></trkpt><trkpt lat="44.9288599" lon="6.6909717"><ele>1592.0</ele><time>2026-05-01T08:59:45.408Z</time></trkpt><trkpt lat="44.9288664" lon="6.6908235"><ele>1587.3999999999999</ele><time>2026-05-01T08:59:46.408Z</time></trkpt><trkpt lat="44.9288936" lon="6.6906821"><ele>1582.8</ele><time>2026-05-01T08:59:47.408Z</time></trkpt><trkpt lat="44.9289481" lon="6.6905624"><ele>1578.2</ele><time>2026-05-01T08:59:48.409Z</time></trkpt><trkpt lat="44.9290251" lon="6.6904823"><ele>1573.6</ele><time>2026-05-01T08:59:49.408Z</time></trkpt><trkpt lat="44.9290921" lon="6.6904392"><ele>1569.0</ele><time>2026-05-01T08:59:50.409Z</time></trkpt><trkpt lat="44.9291959" lon="6.6903926"><ele>1569.4</ele><time>2026-05-01T08:59:52.408Z</time></trkpt><trkpt lat="44.9292487" lon="6.6902682"><ele>1569.8000000000002</ele><time>2026-05-01T08:59:54.408Z</time></trkpt><trkpt lat="44.92918" lon="6.6901592"><ele>1570.1999999999998</ele><time>2026-05-01T08:59:56.408Z</time></trkpt><trkpt lat="44.9290996" lon="6.6901287"><ele>1570.6</ele><time>2026-05-01T08:59:57.408Z</time></trkpt><trkpt lat="44.9290047" lon="6.690106"><ele>1571.0</ele><time>2026-05-01T08:59:58.409Z</time></trkpt><trkpt lat="44.9289077" lon="6.6901036"><ele>1570.6</ele><time>2026-05-01T08:59:59.408Z</time></trkpt><trkpt lat="44.9288153" lon="6.6901458"><ele>1570.1999999999998</ele><time>2026-05-01T09:00:00.408Z</time></trkpt><trkpt lat="44.9287428" lon="6.690231"><ele>1569.8000000000002</ele><time>2026-05-01T09:00:01.408Z</time></trkpt><trkpt lat="44.928691" lon="6.6903614"><ele>1569.4</ele><time>2026-05-01T09:00:02.408Z</time></trkpt><trkpt lat="44.9286696" lon="6.6905272"><ele>1569.0</ele><time>2026-05-01T09:00:03.409Z</time></trkpt><trkpt lat="44.9286677" lon="6.6907059"><ele>1569.0</ele><time>2026-05-01T09:00:04.408Z</time></trkpt><trkpt lat="44.9286617" lon="6.6908883"><ele>1569.0</ele><time>2026-05-01T09:00:05.408Z</time></trkpt><trkpt lat="44.9286298" lon="6.6910561"><ele>1569.0</ele><time>2026-05-01T09:00:06.409Z</time></trkpt><trkpt lat="44.9285888" lon="6.6912139"><ele>1569.0</ele><time>2026-05-01T09:00:07.408Z</time></trkpt><trkpt lat="44.9285369" lon="6.6913507"><ele>1568.6</ele><time>2026-05-01T09:00:08.408Z</time></trkpt><trkpt lat="44.92846" lon="6.6914542"><ele>1568.2</ele><time>2026-05-01T09:00:09.408Z</time></trkpt><trkpt lat="44.9283639" lon="6.691509"><ele>1567.8</ele><time>2026-05-01T09:00:10.408Z</time></trkpt><trkpt lat="44.9282608" lon="6.6915115"><ele>1567.3999999999999</ele><time>2026-05-01T09:00:11.408Z</time></trkpt><trkpt lat="44.9281528" lon="6.6914672"><ele>1567.0</ele><time>2026-05-01T09:00:12.408Z</time></trkpt><trkpt lat="44.9280413" lon="6.6913861"><ele>1567.0</ele><time>2026-05-01T09:00:13.408Z</time></trkpt><trkpt lat="44.9279211" lon="6.6912855"><ele>1567.0</ele><time>2026-05-01T09:00:14.408Z</time></trkpt><trkpt lat="44.9277946" lon="6.6911714"><ele>1567.0</ele><time>2026-05-01T09:00:15.408Z</time></trkpt><trkpt lat="44.9276666" lon="6.691052"><ele>1567.0</ele><time>2026-05-01T09:00:16.408Z</time></trkpt><trkpt lat="44.92754" lon="6.6909427"><ele>1560.25</ele><time>2026-05-01T09:00:17.408Z</time></trkpt><trkpt lat="44.9274106" lon="6.6908515"><ele>1553.5</ele><time>2026-05-01T09:00:18.408Z</time></trkpt><trkpt lat="44.9272799" lon="6.6907714"><ele>1546.75</ele><time>2026-05-01T09:00:19.408Z</time></trkpt><trkpt lat="44.9271556" lon="6.6906834"><ele>1540.0</ele><time>2026-05-01T09:00:20.408Z</time></trkpt><trkpt lat="44.9270462" lon="6.6905729"><ele>1540.0</ele><time>2026-05-01T09:00:21.408Z</time></trkpt><trkpt lat="44.9269424" lon="6.6904588"><ele>1540.0</ele><time>2026-05-01T09:00:22.408Z</time></trkpt><trkpt lat="44.9268217" lon="6.6903774"><ele>1540.0</ele><time>2026-05-01T09:00:23.408Z</time></trkpt><trkpt lat="44.9266873" lon="6.6903194"><ele>1540.0</ele><time>2026-05-01T09:00:24.409Z</time></trkpt><trkpt lat="44.9265559" lon="6.6902821"><ele>1544.0</ele><time>2026-05-01T09:00:25.408Z</time></trkpt><trkpt lat="44.9264218" lon="6.690278"><ele>1548.0</ele><time>2026-05-01T09:00:26.408Z</time></trkpt><trkpt lat="44.9262875" lon="6.6903048"><ele>1552.0</ele><time>2026-05-01T09:00:27.409Z</time></trkpt><trkpt lat="44.9261549" lon="6.6903307"><ele>1556.0</ele><time>2026-05-01T09:00:28.408Z</time></trkpt><trkpt lat="44.926024" lon="6.6903247"><ele>1556.0</ele><time>2026-05-01T09:00:29.408Z</time></trkpt><trkpt lat="44.9259077" lon="6.6903016"><ele>1556.0</ele><time>2026-05-01T09:00:30.408Z</time></trkpt><trkpt lat="44.9258145" lon="6.6902713"><ele>1556.0</ele><time>2026-05-01T09:00:31.408Z</time></trkpt><trkpt lat="44.9257352" lon="6.6902368"><ele>1556.0</ele><time>2026-05-01T09:00:32.408Z</time></trkpt><trkpt lat="44.9256585" lon="6.6901849"><ele>1556.0</ele><time>2026-05-01T09:00:33.408Z</time></trkpt><trkpt lat="44.9255827" lon="6.6901345"><ele>1553.5714285714287</ele><time>2026-05-01T09:00:34.408Z</time></trkpt><trkpt lat="44.9255064" lon="6.6901118"><ele>1551.142857142857</ele><time>2026-05-01T09:00:35.408Z</time></trkpt><trkpt lat="44.9254311" lon="6.6901307"><ele>1548.7142857142858</ele><time>2026-05-01T09:00:36.408Z</time></trkpt><trkpt lat="44.9253688" lon="6.6901858"><ele>1546.2857142857142</ele><time>2026-05-01T09:00:37.408Z</time></trkpt><trkpt lat="44.9253242" lon="6.6902653"><ele>1543.8571428571427</ele><time>2026-05-01T09:00:38.408Z</time></trkpt><trkpt lat="44.9252945" lon="6.6903527"><ele>1541.4285714285713</ele><time>2026-05-01T09:00:39.408Z</time></trkpt><trkpt lat="44.9252761" lon="6.6904427"><ele>1539.0</ele><time>2026-05-01T09:00:40.408Z</time></trkpt><trkpt lat="44.9252448" lon="6.6905972"><ele>1539.0</ele><time>2026-05-01T09:00:42.409Z</time></trkpt><trkpt lat="44.925221" lon="6.6907121"><ele>1539.0</ele><time>2026-05-01T09:00:44.408Z</time></trkpt><trkpt lat="44.9251993" lon="6.6908213"><ele>1539.0</ele><time>2026-05-01T09:00:46.408Z</time></trkpt><trkpt lat="44.9251732" lon="6.6909362"><ele>1539.0</ele><time>2026-05-01T09:00:48.41Z</time></trkpt><trkpt lat="44.9250895" lon="6.690976"><ele>1539.0</ele><time>2026-05-01T09:00:50.409Z</time></trkpt><trkpt lat="44.9250372" lon="6.6908528"><ele>1539.0</ele><time>2026-05-01T09:00:52.408Z</time></trkpt><trkpt lat="44.925054" lon="6.6907595"><ele>1539.0</ele><time>2026-05-01T09:00:53.408Z</time></trkpt><trkpt lat="44.9250862" lon="6.6906427"><ele>1539.0</ele><time>2026-05-01T09:00:54.408Z</time></trkpt><trkpt lat="44.9251214" lon="6.6904989"><ele>1539.0</ele><time>2026-05-01T09:00:55.409Z</time></trkpt><trkpt lat="44.9251517" lon="6.6903381"><ele>1539.0</ele><time>2026-05-01T09:00:56.408Z</time></trkpt><trkpt lat="44.9251779" lon="6.6901797"><ele>1539.0</ele><time>2026-05-01T09:00:57.408Z</time></trkpt><trkpt lat="44.925221" lon="6.6900342"><ele>1532.0</ele><time>2026-05-01T09:00:58.408Z</time></trkpt><trkpt lat="44.9252934" lon="6.6899203"><ele>1525.0</ele><time>2026-05-01T09:00:59.408Z</time></trkpt><trkpt lat="44.9253912" lon="6.6898517"><ele>1518.0</ele><time>2026-05-01T09:01:00.408Z</time></trkpt><trkpt lat="44.9255105" lon="6.6898338"><ele>1511.0</ele><time>2026-05-01T09:01:01.408Z</time></trkpt><trkpt lat="44.9256495" lon="6.689864"><ele>1511.0</ele><time>2026-05-01T09:01:02.408Z</time></trkpt><trkpt lat="44.9257901" lon="6.689897"><ele>1511.0</ele><time>2026-05-01T09:01:03.408Z</time></trkpt><trkpt lat="44.925925" lon="6.6898982"><ele>1511.0</ele><time>2026-05-01T09:01:04.408Z</time></trkpt><trkpt lat="44.9260545" lon="6.689859"><ele>1511.0</ele><time>2026-05-01T09:01:05.408Z</time></trkpt><trkpt lat="44.926176" lon="6.6897795"><ele>1513.5</ele><time>2026-05-01T09:01:06.408Z</time></trkpt><trkpt lat="44.9262912" lon="6.6896757"><ele>1516.0</ele><time>2026-05-01T09:01:07.408Z</time></trkpt><trkpt lat="44.9264024" lon="6.6895931"><ele>1518.5</ele><time>2026-05-01T09:01:08.408Z</time></trkpt><trkpt lat="44.9265223" lon="6.6895585"><ele>1521.0</ele><time>2026-05-01T09:01:09.409Z</time></trkpt><trkpt lat="44.9266443" lon="6.6895659"><ele>1518.5</ele><time>2026-05-01T09:01:10.408Z</time></trkpt><trkpt lat="44.9267646" lon="6.6895789"><ele>1516.0</ele><time>2026-05-01T09:01:11.408Z</time></trkpt><trkpt lat="44.9268827" lon="6.6895578"><ele>1513.5</ele><time>2026-05-01T09:01:12.409Z</time></trkpt><trkpt lat="44.9269959" lon="6.6895553"><ele>1511.0</ele><time>2026-05-01T09:01:13.408Z</time></trkpt><trkpt lat="44.9271041" lon="6.6895857"><ele>1511.0</ele><time>2026-05-01T09:01:14.408Z</time></trkpt><trkpt lat="44.9272" lon="6.6896339"><ele>1511.0</ele><time>2026-05-01T09:01:15.409Z</time></trkpt><trkpt lat="44.9272851" lon="6.6896844"><ele>1511.0</ele><time>2026-05-01T09:01:16.408Z</time></trkpt><trkpt lat="44.9273609" lon="6.6897397"><ele>1511.0</ele><time>2026-05-01T09:01:17.408Z</time></trkpt><trkpt lat="44.9274344" lon="6.689795"><ele>1511.0</ele><time>2026-05-01T09:01:18.408Z</time></trkpt><trkpt lat="44.9275046" lon="6.6898491"><ele>1511.0</ele><time>2026-05-01T09:01:19.408Z</time></trkpt><trkpt lat="44.9275695" lon="6.6899043"><ele>1513.0</ele><time>2026-05-01T09:01:20.408Z</time></trkpt><trkpt lat="44.9276329" lon="6.6899533"><ele>1515.0</ele><time>2026-05-01T09:01:21.409Z</time></trkpt><trkpt lat="44.9277005" lon="6.6899811"><ele>1517.0</ele><time>2026-05-01T09:01:22.408Z</time></trkpt><trkpt lat="44.9277682" lon="6.6899744"><ele>1519.0</ele><time>2026-05-01T09:01:23.408Z</time></trkpt><trkpt lat="44.9278227" lon="6.6899287"><ele>1521.0</ele><time>2026-05-01T09:01:24.408Z</time></trkpt><trkpt lat="44.9278403" lon="6.6897632"><ele>1523.0</ele><time>2026-05-01T09:01:26.408Z</time></trkpt><trkpt lat="44.9277978" lon="6.6896721"><ele>1523.0</ele><time>2026-05-01T09:01:27.408Z</time></trkpt><trkpt lat="44.9277216" lon="6.6896012"><ele>1523.0</ele><time>2026-05-01T09:01:28.408Z</time></trkpt><trkpt lat="44.9276236" lon="6.6895557"><ele>1523.0</ele><time>2026-05-01T09:01:29.408Z</time></trkpt><trkpt lat="44.9275141" lon="6.6895207"><ele>1523.0</ele><time>2026-05-01T09:01:30.409Z</time></trkpt><trkpt lat="44.9274073" lon="6.6894656"><ele>1523.0</ele><time>2026-05-01T09:01:31.408Z</time></trkpt><trkpt lat="44.9273033" lon="6.6893871"><ele>1511.25</ele><time>2026-05-01T09:01:32.408Z</time></trkpt><trkpt lat="44.9272068" lon="6.6892995"><ele>1499.5</ele><time>2026-05-01T09:01:33.408Z</time></trkpt><trkpt lat="44.9271088" lon="6.6892269"><ele>1487.75</ele><time>2026-05-01T09:01:34.408Z</time></trkpt><trkpt lat="44.9269967" lon="6.689193"><ele>1476.0</ele><time>2026-05-01T09:01:35.408Z</time></trkpt><trkpt lat="44.926874" lon="6.6891857"><ele>1476.0</ele><time>2026-05-01T09:01:36.408Z</time></trkpt><trkpt lat="44.9267492" lon="6.6891677"><ele>1476.0</ele><time>2026-05-01T09:01:37.408Z</time></trkpt><trkpt lat="44.9266365" lon="6.6891085"><ele>1476.0</ele><time>2026-05-01T09:01:38.408Z</time></trkpt><trkpt lat="44.926525" lon="6.6890524"><ele>1476.0</ele><time>2026-05-01T09:01:39.408Z</time></trkpt><trkpt lat="44.9264108" lon="6.6890341"><ele>1477.75</ele><time>2026-05-01T09:01:40.408Z</time></trkpt><trkpt lat="44.9263001" lon="6.6890605"><ele>1479.5</ele><time>2026-05-01T09:01:41.408Z</time></trkpt><trkpt lat="44.9261939" lon="6.689117"><ele>1481.25</ele><time>2026-05-01T09:01:42.408Z</time></trkpt><trkpt lat="44.9260914" lon="6.689185"><ele>1483.0</ele><time>2026-05-01T09:01:43.408Z</time></trkpt><trkpt lat="44.9259855" lon="6.6892338"><ele>1481.6000000000001</ele><time>2026-05-01T09:01:44.408Z</time></trkpt><trkpt lat="44.9258756" lon="6.6892308"><ele>1480.2</ele><time>2026-05-01T09:01:45.408Z</time></trkpt><trkpt lat="44.9257718" lon="6.6891913"><ele>1478.8</ele><time>2026-05-01T09:01:46.408Z</time></trkpt><trkpt lat="44.9256699" lon="6.6891221"><ele>1477.4</ele><time>2026-05-01T09:01:47.408Z</time></trkpt><trkpt lat="44.9255752" lon="6.6890277"><ele>1476.0</ele><time>2026-05-01T09:01:48.408Z</time></trkpt><trkpt lat="44.9255207" lon="6.6889686"><ele>1476.0</ele><time>2026-05-01T09:01:49.408Z</time></trkpt><trkpt lat="44.925455" lon="6.688899"><ele>1476.0</ele><time>2026-05-01T09:01:51.409Z</time></trkpt><trkpt lat="44.9254059" lon="6.6888382"><ele>1476.0</ele><time>2026-05-01T09:02:03.408Z</time></trkpt><trkpt lat="44.9253556" lon="6.6887738"><ele>1476.0</ele><time>2026-05-01T09:02:08.408Z</time></trkpt><trkpt lat="44.9252692" lon="6.6887414"><ele>1476.0</ele><time>2026-05-01T09:02:15.408Z</time></trkpt><trkpt lat="44.9251914" lon="6.6887036"><ele>1476.0</ele><time>2026-05-01T09:02:17.408Z</time></trkpt><trkpt lat="44.9250984" lon="6.6886696"><ele>1475.6666666666667</ele><time>2026-05-01T09:02:19.408Z</time></trkpt><trkpt lat="44.9250353" lon="6.6886594"><ele>1475.3333333333333</ele><time>2026-05-01T09:02:21.408Z</time></trkpt><trkpt lat="44.924942" lon="6.6886706"><ele>1475.0</ele><time>2026-05-01T09:02:24.408Z</time></trkpt><trkpt lat="44.9248334" lon="6.6886688"><ele>1474.6666666666665</ele><time>2026-05-01T09:02:26.408Z</time></trkpt><trkpt lat="44.9247642" lon="6.688681"><ele>1474.3333333333333</ele><time>2026-05-01T09:02:27.408Z</time></trkpt><trkpt lat="44.924698" lon="6.6887057"><ele>1474.0</ele><time>2026-05-01T09:02:28.408Z</time></trkpt><trkpt lat="44.9246425" lon="6.6887574"><ele>1474.0</ele><time>2026-05-01T09:02:29.408Z</time></trkpt><trkpt lat="44.9245945" lon="6.688843"><ele>1474.0</ele><time>2026-05-01T09:02:30.408Z</time></trkpt><trkpt lat="44.9245664" lon="6.6889642"><ele>1474.0</ele><time>2026-05-01T09:02:31.408Z</time></trkpt><trkpt lat="44.924549" lon="6.6891199"><ele>1474.0</ele><time>2026-05-01T09:02:32.408Z</time></trkpt><trkpt lat="44.9245346" lon="6.6892776"><ele>1474.0</ele><time>2026-05-01T09:02:33.408Z</time></trkpt><trkpt lat="44.9245244" lon="6.6894277"><ele>1476.5</ele><time>2026-05-01T09:02:34.408Z</time></trkpt><trkpt lat="44.9245126" lon="6.689551"><ele>1479.0</ele><time>2026-05-01T09:02:35.408Z</time></trkpt><trkpt lat="44.9245029" lon="6.6896442"><ele>1481.5</ele><time>2026-05-01T09:02:36.408Z</time></trkpt><trkpt lat="44.9244927" lon="6.689793"><ele>1484.0</ele><time>2026-05-01T09:02:38.408Z</time></trkpt><trkpt lat="44.9244836" lon="6.6899085"><ele>1486.5</ele><time>2026-05-01T09:02:40.408Z</time></trkpt><trkpt lat="44.924472" lon="6.6900372"><ele>1489.0</ele><time>2026-05-01T09:02:43.408Z</time></trkpt><trkpt lat="44.9244669" lon="6.6901661"><ele>1491.1666666666665</ele><time>2026-05-01T09:02:46.408Z</time></trkpt><trkpt lat="44.9244553" lon="6.6902676"><ele>1493.3333333333333</ele><time>2026-05-01T09:02:48.408Z</time></trkpt><trkpt lat="44.9244404" lon="6.6903751"><ele>1495.5</ele><time>2026-05-01T09:02:50.408Z</time></trkpt><trkpt lat="44.9244214" lon="6.690485"><ele>1497.6666666666667</ele><time>2026-05-01T09:02:52.409Z</time></trkpt><trkpt lat="44.9243934" lon="6.6906109"><ele>1499.8333333333335</ele><time>2026-05-01T09:02:54.408Z</time></trkpt><trkpt lat="44.9243385" lon="6.6907524"><ele>1502.0</ele><time>2026-05-01T09:02:56.409Z</time></trkpt><trkpt lat="44.9242424" lon="6.6908502"><ele>1496.5</ele><time>2026-05-01T09:02:58.408Z</time></trkpt><trkpt lat="44.9241759" lon="6.6908629"><ele>1491.0</ele><time>2026-05-01T09:02:59.409Z</time></trkpt><trkpt lat="44.9241045" lon="6.6908547"><ele>1485.5</ele><time>2026-05-01T09:03:00.408Z</time></trkpt><trkpt lat="44.9240342" lon="6.6908315"><ele>1480.0</ele><time>2026-05-01T09:03:01.408Z</time></trkpt><trkpt lat="44.9239584" lon="6.6907932"><ele>1474.5</ele><time>2026-05-01T09:03:02.408Z</time></trkpt><trkpt lat="44.9238811" lon="6.6907296"><ele>1469.0</ele><time>2026-05-01T09:03:03.408Z</time></trkpt><trkpt lat="44.9238054" lon="6.6906356"><ele>1469.0</ele><time>2026-05-01T09:03:04.41Z</time></trkpt><trkpt lat="44.9237371" lon="6.6905113"><ele>1469.0</ele><time>2026-05-01T09:03:05.408Z</time></trkpt><trkpt lat="44.9236721" lon="6.6903674"><ele>1469.0</ele><time>2026-05-01T09:03:06.408Z</time></trkpt><trkpt lat="44.9236077" lon="6.6902227"><ele>1469.0</ele><time>2026-05-01T09:03:07.408Z</time></trkpt><trkpt lat="44.923538" lon="6.6900758"><ele>1467.5</ele><time>2026-05-01T09:03:08.41Z</time></trkpt><trkpt lat="44.9234574" lon="6.6899262"><ele>1466.0</ele><time>2026-05-01T09:03:09.408Z</time></trkpt><trkpt lat="44.9233701" lon="6.6897768"><ele>1464.5</ele><time>2026-05-01T09:03:10.408Z</time></trkpt><trkpt lat="44.9232783" lon="6.6896203"><ele>1463.0</ele><time>2026-05-01T09:03:11.409Z</time></trkpt><trkpt lat="44.9231744" lon="6.689448"><ele>1455.3333333333335</ele><time>2026-05-01T09:03:12.408Z</time></trkpt><trkpt lat="44.923062" lon="6.6892472"><ele>1447.6666666666667</ele><time>2026-05-01T09:03:13.408Z</time></trkpt><trkpt lat="44.9229589" lon="6.6890185"><ele>1440.0</ele><time>2026-05-01T09:03:14.408Z</time></trkpt><trkpt lat="44.9228737" lon="6.6887746"><ele>1435.0</ele><time>2026-05-01T09:03:15.408Z</time></trkpt><trkpt lat="44.9228046" lon="6.6885227"><ele>1430.0</ele><time>2026-05-01T09:03:16.409Z</time></trkpt><trkpt lat="44.9227392" lon="6.6882775"><ele>1425.0</ele><time>2026-05-01T09:03:17.408Z</time></trkpt><trkpt lat="44.9226799" lon="6.6880398"><ele>1425.0</ele><time>2026-05-01T09:03:18.41Z</time></trkpt><trkpt lat="44.9226262" lon="6.687816"><ele>1425.0</ele><time>2026-05-01T09:03:19.408Z</time></trkpt><trkpt lat="44.9225792" lon="6.687611"><ele>1425.0</ele><time>2026-05-01T09:03:20.409Z</time></trkpt><trkpt lat="44.9225336" lon="6.6874359"><ele>1428.75</ele><time>2026-05-01T09:03:21.408Z</time></trkpt><trkpt lat="44.9224755" lon="6.6872752"><ele>1432.5</ele><time>2026-05-01T09:03:22.408Z</time></trkpt><trkpt lat="44.9223951" lon="6.6871379"><ele>1436.25</ele><time>2026-05-01T09:03:23.408Z</time></trkpt><trkpt lat="44.9222961" lon="6.6870352"><ele>1440.0</ele><time>2026-05-01T09:03:24.408Z</time></trkpt><trkpt lat="44.9221822" lon="6.6869761"><ele>1440.0</ele><time>2026-05-01T09:03:25.408Z</time></trkpt><trkpt lat="44.9220697" lon="6.6869604"><ele>1440.0</ele><time>2026-05-01T09:03:26.408Z</time></trkpt><trkpt lat="44.9219699" lon="6.686958"><ele>1440.0</ele><time>2026-05-01T09:03:27.409Z</time></trkpt><trkpt lat="44.9218734" lon="6.686941"><ele>1440.0</ele><time>2026-05-01T09:03:28.408Z</time></trkpt><trkpt lat="44.9217824" lon="6.6868658"><ele>1440.0</ele><time>2026-05-01T09:03:29.408Z</time></trkpt><trkpt lat="44.9217049" lon="6.6867571"><ele>1439.0</ele><time>2026-05-01T09:03:30.408Z</time></trkpt><trkpt lat="44.9216498" lon="6.6866278"><ele>1438.0</ele><time>2026-05-01T09:03:31.408Z</time></trkpt><trkpt lat="44.9216124" lon="6.6864805"><ele>1437.0</ele><time>2026-05-01T09:03:32.408Z</time></trkpt><trkpt lat="44.9215689" lon="6.6863329"><ele>1436.0</ele><time>2026-05-01T09:03:33.408Z</time></trkpt><trkpt lat="44.9215029" lon="6.6861955"><ele>1435.0</ele><time>2026-05-01T09:03:34.409Z</time></trkpt><trkpt lat="44.9214168" lon="6.6860664"><ele>1430.25</ele><time>2026-05-01T09:03:35.408Z</time></trkpt><trkpt lat="44.9213196" lon="6.6859474"><ele>1425.5</ele><time>2026-05-01T09:03:36.408Z</time></trkpt><trkpt lat="44.9212245" lon="6.6858181"><ele>1420.75</ele><time>2026-05-01T09:03:37.409Z</time></trkpt><trkpt lat="44.9211405" lon="6.6856693"><ele>1416.0</ele><time>2026-05-01T09:03:38.408Z</time></trkpt><trkpt lat="44.9210768" lon="6.6855041"><ele>1416.0</ele><time>2026-05-01T09:03:39.408Z</time></trkpt><trkpt lat="44.9210364" lon="6.6853302"><ele>1416.0</ele><time>2026-05-01T09:03:40.408Z</time></trkpt><trkpt lat="44.9210185" lon="6.6851514"><ele>1416.0</ele><time>2026-05-01T09:03:41.408Z</time></trkpt><trkpt lat="44.9210294" lon="6.6849759"><ele>1416.0</ele><time>2026-05-01T09:03:42.408Z</time></trkpt><trkpt lat="44.9210657" lon="6.6847988"><ele>1413.3333333333333</ele><time>2026-05-01T09:03:43.408Z</time></trkpt><trkpt lat="44.921115" lon="6.6846048"><ele>1410.6666666666665</ele><time>2026-05-01T09:03:44.408Z</time></trkpt><trkpt lat="44.9211659" lon="6.6843917"><ele>1408.0</ele><time>2026-05-01T09:03:45.408Z</time></trkpt><trkpt lat="44.9212106" lon="6.6841738"><ele>1406.6666666666665</ele><time>2026-05-01T09:03:46.408Z</time></trkpt><trkpt lat="44.9212415" lon="6.6839545"><ele>1405.3333333333333</ele><time>2026-05-01T09:03:47.408Z</time></trkpt><trkpt lat="44.9212588" lon="6.6837399"><ele>1404.0</ele><time>2026-05-01T09:03:48.41Z</time></trkpt><trkpt lat="44.9212637" lon="6.6835253"><ele>1402.6666666666667</ele><time>2026-05-01T09:03:49.409Z</time></trkpt><trkpt lat="44.9212501" lon="6.683307"><ele>1401.3333333333335</ele><time>2026-05-01T09:03:50.408Z</time></trkpt><trkpt lat="44.9212253" lon="6.6830856"><ele>1400.0</ele><time>2026-05-01T09:03:51.408Z</time></trkpt><trkpt lat="44.9211914" lon="6.6828707"><ele>1398.3333333333335</ele><time>2026-05-01T09:03:52.408Z</time></trkpt><trkpt lat="44.9211552" lon="6.6826492"><ele>1396.6666666666667</ele><time>2026-05-01T09:03:53.408Z</time></trkpt><trkpt lat="44.9211188" lon="6.6824141"><ele>1395.0</ele><time>2026-05-01T09:03:54.408Z</time></trkpt><trkpt lat="44.9210802" lon="6.6821735"><ele>1393.6666666666667</ele><time>2026-05-01T09:03:55.408Z</time></trkpt><trkpt lat="44.9210298" lon="6.6819214"><ele>1392.3333333333335</ele><time>2026-05-01T09:03:56.409Z</time></trkpt><trkpt lat="44.9209585" lon="6.6816342"><ele>1391.0</ele><time>2026-05-01T09:03:57.408Z</time></trkpt><trkpt lat="44.9208854" lon="6.6813289"><ele>1392.3333333333335</ele><time>2026-05-01T09:03:58.408Z</time></trkpt><trkpt lat="44.920815" lon="6.6810346"><ele>1393.6666666666667</ele><time>2026-05-01T09:03:59.408Z</time></trkpt><trkpt lat="44.9207446" lon="6.6807464"><ele>1395.0</ele><time>2026-05-01T09:04:00.409Z</time></trkpt><trkpt lat="44.9206745" lon="6.680465"><ele>1393.0</ele><time>2026-05-01T09:04:01.409Z</time></trkpt><trkpt lat="44.9205964" lon="6.6801953"><ele>1391.0</ele><time>2026-05-01T09:04:02.408Z</time></trkpt><trkpt lat="44.9205004" lon="6.6799489"><ele>1389.0</ele><time>2026-05-01T09:04:03.408Z</time></trkpt><trkpt lat="44.9203942" lon="6.6797261"><ele>1389.0</ele><time>2026-05-01T09:04:04.409Z</time></trkpt><trkpt lat="44.92029" lon="6.6795154"><ele>1389.0</ele><time>2026-05-01T09:04:05.408Z</time></trkpt><trkpt lat="44.9201859" lon="6.6793066"><ele>1389.0</ele><time>2026-05-01T09:04:06.408Z</time></trkpt><trkpt lat="44.9200811" lon="6.6791031"><ele>1388.0</ele><time>2026-05-01T09:04:07.409Z</time></trkpt><trkpt lat="44.9199708" lon="6.6789063"><ele>1387.0</ele><time>2026-05-01T09:04:08.408Z</time></trkpt><trkpt lat="44.9198471" lon="6.6787097"><ele>1386.0</ele><time>2026-05-01T09:04:09.409Z</time></trkpt><trkpt lat="44.9197103" lon="6.6785115"><ele>1383.0</ele><time>2026-05-01T09:04:10.408Z</time></trkpt><trkpt lat="44.9195595" lon="6.6783155"><ele>1380.0</ele><time>2026-05-01T09:04:11.409Z</time></trkpt><trkpt lat="44.919402" lon="6.6781335"><ele>1377.0</ele><time>2026-05-01T09:04:12.408Z</time></trkpt><trkpt lat="44.9192404" lon="6.6779684"><ele>1376.0</ele><time>2026-05-01T09:04:13.409Z</time></trkpt><trkpt lat="44.9190762" lon="6.6778191"><ele>1375.0</ele><time>2026-05-01T09:04:14.408Z</time></trkpt><trkpt lat="44.9189068" lon="6.6776864"><ele>1374.0</ele><time>2026-05-01T09:04:15.409Z</time></trkpt><trkpt lat="44.9187371" lon="6.6775635"><ele>1374.0</ele><time>2026-05-01T09:04:16.408Z</time></trkpt><trkpt lat="44.9185671" lon="6.6774447"><ele>1374.0</ele><time>2026-05-01T09:04:17.409Z</time></trkpt><trkpt lat="44.9183967" lon="6.6773327"><ele>1374.0</ele><time>2026-05-01T09:04:18.408Z</time></trkpt><trkpt lat="44.9182278" lon="6.6772283"><ele>1375.3333333333333</ele><time>2026-05-01T09:04:19.408Z</time></trkpt><trkpt lat="44.9180508" lon="6.6771214"><ele>1376.6666666666665</ele><time>2026-05-01T09:04:20.408Z</time></trkpt><trkpt lat="44.9178556" lon="6.6770084"><ele>1378.0</ele><time>2026-05-01T09:04:21.408Z</time></trkpt><trkpt lat="44.9176511" lon="6.6768888"><ele>1375.6666666666665</ele><time>2026-05-01T09:04:22.408Z</time></trkpt><trkpt lat="44.9174523" lon="6.6767623"><ele>1373.3333333333333</ele><time>2026-05-01T09:04:23.409Z</time></trkpt><trkpt lat="44.9172567" lon="6.6766263"><ele>1371.0</ele><time>2026-05-01T09:04:24.408Z</time></trkpt><trkpt lat="44.9170679" lon="6.676491"><ele>1371.0</ele><time>2026-05-01T09:04:25.408Z</time></trkpt><trkpt lat="44.9168814" lon="6.6763564"><ele>1371.0</ele><time>2026-05-01T09:04:26.408Z</time></trkpt><trkpt lat="44.9166973" lon="6.6762213"><ele>1371.0</ele><time>2026-05-01T09:04:27.408Z</time></trkpt><trkpt lat="44.9165292" lon="6.6760885"><ele>1369.6666666666667</ele><time>2026-05-01T09:04:28.408Z</time></trkpt><trkpt lat="44.9163717" lon="6.675957"><ele>1368.3333333333335</ele><time>2026-05-01T09:04:29.409Z</time></trkpt><trkpt lat="44.9162253" lon="6.6758378"><ele>1367.0</ele><time>2026-05-01T09:04:30.408Z</time></trkpt><trkpt lat="44.9160823" lon="6.6757309"><ele>1367.0</ele><time>2026-05-01T09:04:31.41Z</time></trkpt><trkpt lat="44.9159153" lon="6.6756179"><ele>1367.0</ele><time>2026-05-01T09:04:32.408Z</time></trkpt><trkpt lat="44.9157462" lon="6.6754936"><ele>1367.0</ele><time>2026-05-01T09:04:33.408Z</time></trkpt><trkpt lat="44.9155902" lon="6.6753611"><ele>1365.6666666666667</ele><time>2026-05-01T09:04:34.408Z</time></trkpt><trkpt lat="44.9154379" lon="6.675227"><ele>1364.3333333333333</ele><time>2026-05-01T09:04:35.408Z</time></trkpt><trkpt lat="44.9152878" lon="6.6750963"><ele>1363.0</ele><time>2026-05-01T09:04:36.408Z</time></trkpt><trkpt lat="44.9151423" lon="6.674977"><ele>1363.75</ele><time>2026-05-01T09:04:37.408Z</time></trkpt><trkpt lat="44.9150061" lon="6.6748705"><ele>1364.5</ele><time>2026-05-01T09:04:38.408Z</time></trkpt><trkpt lat="44.9148839" lon="6.6747743"><ele>1365.25</ele><time>2026-05-01T09:04:39.408Z</time></trkpt><trkpt lat="44.9147644" lon="6.6746804"><ele>1366.0</ele><time>2026-05-01T09:04:40.408Z</time></trkpt><trkpt lat="44.9146423" lon="6.6745807"><ele>1366.0</ele><time>2026-05-01T09:04:41.408Z</time></trkpt><trkpt lat="44.9145156" lon="6.6744757"><ele>1366.0</ele><time>2026-05-01T09:04:42.408Z</time></trkpt><trkpt lat="44.9143846" lon="6.6743669"><ele>1366.0</ele><time>2026-05-01T09:04:43.408Z</time></trkpt><trkpt lat="44.9142517" lon="6.6742503"><ele>1361.6666666666665</ele><time>2026-05-01T09:04:44.408Z</time></trkpt><trkpt lat="44.9141219" lon="6.6741219"><ele>1357.3333333333333</ele><time>2026-05-01T09:04:45.408Z</time></trkpt><trkpt lat="44.9139953" lon="6.6739786"><ele>1353.0</ele><time>2026-05-01T09:04:46.408Z</time></trkpt><trkpt lat="44.9138747" lon="6.6738292"><ele>1353.0</ele><time>2026-05-01T09:04:47.408Z</time></trkpt><trkpt lat="44.9137656" lon="6.6736811"><ele>1353.0</ele><time>2026-05-01T09:04:48.408Z</time></trkpt><trkpt lat="44.913669" lon="6.6735364"><ele>1353.0</ele><time>2026-05-01T09:04:49.408Z</time></trkpt><trkpt lat="44.9135811" lon="6.6733964"><ele>1353.0</ele><time>2026-05-01T09:04:50.408Z</time></trkpt><trkpt lat="44.9134927" lon="6.67325"><ele>1354.0</ele><time>2026-05-01T09:04:51.408Z</time></trkpt><trkpt lat="44.9134054" lon="6.6731017"><ele>1355.0</ele><time>2026-05-01T09:04:52.409Z</time></trkpt><trkpt lat="44.9133169" lon="6.6729527"><ele>1356.0</ele><time>2026-05-01T09:04:53.408Z</time></trkpt><trkpt lat="44.913228" lon="6.6728029"><ele>1357.0</ele><time>2026-05-01T09:04:54.408Z</time></trkpt><trkpt lat="44.9131375" lon="6.6726509"><ele>1358.0</ele><time>2026-05-01T09:04:55.409Z</time></trkpt><trkpt lat="44.9130474" lon="6.6725008"><ele>1359.0</ele><time>2026-05-01T09:04:56.408Z</time></trkpt><trkpt lat="44.9129581" lon="6.6723498"><ele>1360.0</ele><time>2026-05-01T09:04:57.408Z</time></trkpt><trkpt lat="44.9128671" lon="6.6721936"><ele>1361.0</ele><time>2026-05-01T09:04:58.409Z</time></trkpt><trkpt lat="44.912774" lon="6.6720351"><ele>1361.6666666666667</ele><time>2026-05-01T09:04:59.408Z</time></trkpt><trkpt lat="44.9126772" lon="6.6718697"><ele>1362.3333333333333</ele><time>2026-05-01T09:05:00.408Z</time></trkpt><trkpt lat="44.9125789" lon="6.6717017"><ele>1363.0</ele><time>2026-05-01T09:05:01.408Z</time></trkpt><trkpt lat="44.9124808" lon="6.671532"><ele>1363.0</ele><time>2026-05-01T09:05:02.408Z</time></trkpt><trkpt lat="44.9123836" lon="6.6713647"><ele>1363.0</ele><time>2026-05-01T09:05:03.409Z</time></trkpt><trkpt lat="44.9122843" lon="6.6711923"><ele>1363.0</ele><time>2026-05-01T09:05:04.409Z</time></trkpt><trkpt lat="44.912183" lon="6.6710169"><ele>1365.6666666666665</ele><time>2026-05-01T09:05:05.408Z</time></trkpt><trkpt lat="44.9120802" lon="6.6708415"><ele>1368.3333333333333</ele><time>2026-05-01T09:05:06.408Z</time></trkpt><trkpt lat="44.9119784" lon="6.6706598"><ele>1371.0</ele><time>2026-05-01T09:05:07.409Z</time></trkpt><trkpt lat="44.9118765" lon="6.6704667"><ele>1369.3333333333333</ele><time>2026-05-01T09:05:08.409Z</time></trkpt><trkpt lat="44.9117768" lon="6.6702636"><ele>1367.6666666666665</ele><time>2026-05-01T09:05:09.408Z</time></trkpt><trkpt lat="44.9116781" lon="6.6700522"><ele>1366.0</ele><time>2026-05-01T09:05:10.408Z</time></trkpt><trkpt lat="44.9115795" lon="6.6698352"><ele>1366.0</ele><time>2026-05-01T09:05:11.408Z</time></trkpt><trkpt lat="44.9114802" lon="6.6696182"><ele>1366.0</ele><time>2026-05-01T09:05:12.408Z</time></trkpt><trkpt lat="44.9113773" lon="6.669402"><ele>1366.0</ele><time>2026-05-01T09:05:13.408Z</time></trkpt><trkpt lat="44.9112723" lon="6.6691835"><ele>1367.0</ele><time>2026-05-01T09:05:14.408Z</time></trkpt><trkpt lat="44.9111672" lon="6.6689623"><ele>1368.0</ele><time>2026-05-01T09:05:15.408Z</time></trkpt><trkpt lat="44.9110608" lon="6.668739"><ele>1369.0</ele><time>2026-05-01T09:05:16.408Z</time></trkpt><trkpt lat="44.9109525" lon="6.6685125"><ele>1365.3333333333333</ele><time>2026-05-01T09:05:17.408Z</time></trkpt><trkpt lat="44.910839" lon="6.6682776"><ele>1361.6666666666667</ele><time>2026-05-01T09:05:18.41Z</time></trkpt><trkpt lat="44.9107236" lon="6.6680385"><ele>1358.0</ele><time>2026-05-01T09:05:19.408Z</time></trkpt><trkpt lat="44.9106097" lon="6.667798"><ele>1359.6666666666667</ele><time>2026-05-01T09:05:20.408Z</time></trkpt><trkpt lat="44.9104961" lon="6.6675538"><ele>1361.3333333333333</ele><time>2026-05-01T09:05:21.408Z</time></trkpt><trkpt lat="44.9103815" lon="6.6673187"><ele>1363.0</ele><time>2026-05-01T09:05:22.408Z</time></trkpt><trkpt lat="44.9102677" lon="6.667089"><ele>1363.3333333333333</ele><time>2026-05-01T09:05:23.408Z</time></trkpt><trkpt lat="44.9101587" lon="6.666862"><ele>1363.6666666666667</ele><time>2026-05-01T09:05:24.408Z</time></trkpt><trkpt lat="44.9100589" lon="6.6666395"><ele>1364.0</ele><time>2026-05-01T09:05:25.408Z</time></trkpt><trkpt lat="44.9099747" lon="6.666413"><ele>1359.6666666666667</ele><time>2026-05-01T09:05:26.408Z</time></trkpt><trkpt lat="44.9099084" lon="6.6661805"><ele>1355.3333333333333</ele><time>2026-05-01T09:05:27.408Z</time></trkpt><trkpt lat="44.909859" lon="6.6659412"><ele>1351.0</ele><time>2026-05-01T09:05:28.409Z</time></trkpt><trkpt lat="44.9098199" lon="6.6656793"><ele>1351.0</ele><time>2026-05-01T09:05:29.408Z</time></trkpt><trkpt lat="44.9097897" lon="6.6653844"><ele>1351.0</ele><time>2026-05-01T09:05:30.408Z</time></trkpt><trkpt lat="44.9097782" lon="6.6650562"><ele>1351.0</ele><time>2026-05-01T09:05:31.408Z</time></trkpt><trkpt lat="44.9097853" lon="6.6647165"><ele>1348.0</ele><time>2026-05-01T09:05:32.408Z</time></trkpt><trkpt lat="44.9097881" lon="6.6643851"><ele>1345.0</ele><time>2026-05-01T09:05:33.408Z</time></trkpt><trkpt lat="44.9097736" lon="6.6640618"><ele>1345.0</ele><time>2026-05-01T09:05:34.409Z</time></trkpt><trkpt lat="44.9097412" lon="6.6637511"><ele>1345.0</ele><time>2026-05-01T09:05:35.408Z</time></trkpt><trkpt lat="44.9097058" lon="6.6634605"><ele>1345.0</ele><time>2026-05-01T09:05:36.408Z</time></trkpt><trkpt lat="44.9096626" lon="6.6631996"><ele>1345.3333333333333</ele><time>2026-05-01T09:05:37.409Z</time></trkpt><trkpt lat="44.9095982" lon="6.6629724"><ele>1345.6666666666667</ele><time>2026-05-01T09:05:38.408Z</time></trkpt><trkpt lat="44.9095071" lon="6.6627751"><ele>1346.0</ele><time>2026-05-01T09:05:39.408Z</time></trkpt><trkpt lat="44.9093889" lon="6.6626052"><ele>1345.3333333333335</ele><time>2026-05-01T09:05:40.409Z</time></trkpt><trkpt lat="44.90925" lon="6.6624576"><ele>1344.6666666666667</ele><time>2026-05-01T09:05:41.408Z</time></trkpt><trkpt lat="44.9090956" lon="6.6623338"><ele>1344.0</ele><time>2026-05-01T09:05:42.408Z</time></trkpt><trkpt lat="44.9089362" lon="6.6622467"><ele>1344.0</ele><time>2026-05-01T09:05:43.408Z</time></trkpt><trkpt lat="44.9087736" lon="6.6622011"><ele>1344.0</ele><time>2026-05-01T09:05:44.408Z</time></trkpt><trkpt lat="44.9086172" lon="6.6621895"><ele>1344.0</ele><time>2026-05-01T09:05:45.409Z</time></trkpt><trkpt lat="44.9084669" lon="6.6621827"><ele>1340.5</ele><time>2026-05-01T09:05:46.408Z</time></trkpt><trkpt lat="44.9083214" lon="6.6621638"><ele>1337.0</ele><time>2026-05-01T09:05:47.408Z</time></trkpt><trkpt lat="44.9081761" lon="6.6621287"><ele>1333.5</ele><time>2026-05-01T09:05:48.409Z</time></trkpt><trkpt lat="44.9080398" lon="6.6620767"><ele>1330.0</ele><time>2026-05-01T09:05:49.409Z</time></trkpt><trkpt lat="44.9079095" lon="6.6620174"><ele>1330.0</ele><time>2026-05-01T09:05:50.41Z</time></trkpt><trkpt lat="44.907786" lon="6.6619503"><ele>1330.0</ele><time>2026-05-01T09:05:51.408Z</time></trkpt><trkpt lat="44.9076767" lon="6.6618611"><ele>1330.0</ele><time>2026-05-01T09:05:52.408Z</time></trkpt><trkpt lat="44.9075919" lon="6.6617575"><ele>1330.0</ele><time>2026-05-01T09:05:53.407Z</time></trkpt><trkpt lat="44.9075279" lon="6.6616337"><ele>1331.25</ele><time>2026-05-01T09:05:54.408Z</time></trkpt><trkpt lat="44.9074771" lon="6.6614944"><ele>1332.5</ele><time>2026-05-01T09:05:55.407Z</time></trkpt><trkpt lat="44.9074425" lon="6.6613427"><ele>1333.75</ele><time>2026-05-01T09:05:56.407Z</time></trkpt><trkpt lat="44.9074336" lon="6.6611798"><ele>1335.0</ele><time>2026-05-01T09:05:57.408Z</time></trkpt><trkpt lat="44.9074487" lon="6.6610113"><ele>1337.75</ele><time>2026-05-01T09:05:58.407Z</time></trkpt><trkpt lat="44.9074616" lon="6.6608399"><ele>1340.5</ele><time>2026-05-01T09:05:59.407Z</time></trkpt><trkpt lat="44.9074555" lon="6.6606645"><ele>1343.25</ele><time>2026-05-01T09:06:00.408Z</time></trkpt><trkpt lat="44.907429" lon="6.6604906"><ele>1346.0</ele><time>2026-05-01T09:06:01.407Z</time></trkpt><trkpt lat="44.9073885" lon="6.6603248"><ele>1349.75</ele><time>2026-05-01T09:06:02.407Z</time></trkpt><trkpt lat="44.9073299" lon="6.6601609"><ele>1353.5</ele><time>2026-05-01T09:06:03.407Z</time></trkpt><trkpt lat="44.9072558" lon="6.6600064"><ele>1357.25</ele><time>2026-05-01T09:06:04.407Z</time></trkpt><trkpt lat="44.9071558" lon="6.6598716"><ele>1361.0</ele><time>2026-05-01T09:06:05.408Z</time></trkpt><trkpt lat="44.9070197" lon="6.6597612"><ele>1361.0</ele><time>2026-05-01T09:06:06.407Z</time></trkpt><trkpt lat="44.906854" lon="6.6596595"><ele>1361.0</ele><time>2026-05-01T09:06:07.407Z</time></trkpt><trkpt lat="44.9066792" lon="6.6595378"><ele>1361.0</ele><time>2026-05-01T09:06:08.407Z</time></trkpt><trkpt lat="44.9065113" lon="6.6594085"><ele>1362.0</ele><time>2026-05-01T09:06:09.407Z</time></trkpt><trkpt lat="44.9063516" lon="6.6592812"><ele>1363.0</ele><time>2026-05-01T09:06:10.407Z</time></trkpt><trkpt lat="44.9062001" lon="6.6591524"><ele>1364.0</ele><time>2026-05-01T09:06:11.408Z</time></trkpt><trkpt lat="44.9060528" lon="6.6590215"><ele>1359.0</ele><time>2026-05-01T09:06:12.407Z</time></trkpt><trkpt lat="44.9059081" lon="6.6588721"><ele>1354.0</ele><time>2026-05-01T09:06:13.407Z</time></trkpt><trkpt lat="44.9057693" lon="6.6587042"><ele>1349.0</ele><time>2026-05-01T09:06:14.407Z</time></trkpt><trkpt lat="44.9056389" lon="6.6585217"><ele>1349.0</ele><time>2026-05-01T09:06:15.407Z</time></trkpt><trkpt lat="44.9055216" lon="6.658333"><ele>1349.0</ele><time>2026-05-01T09:06:16.407Z</time></trkpt><trkpt lat="44.9054141" lon="6.6581467"><ele>1349.0</ele><time>2026-05-01T09:06:17.408Z</time></trkpt><trkpt lat="44.9053104" lon="6.657971"><ele>1349.0</ele><time>2026-05-01T09:06:18.408Z</time></trkpt><trkpt lat="44.9052118" lon="6.6578029"><ele>1349.0</ele><time>2026-05-01T09:06:19.407Z</time></trkpt><trkpt lat="44.9051195" lon="6.657638"><ele>1349.0</ele><time>2026-05-01T09:06:20.408Z</time></trkpt><trkpt lat="44.9050393" lon="6.6574741"><ele>1349.0</ele><time>2026-05-01T09:06:21.408Z</time></trkpt><trkpt lat="44.9049701" lon="6.65731"><ele>1346.25</ele><time>2026-05-01T09:06:22.407Z</time></trkpt><trkpt lat="44.904922" lon="6.6571356"><ele>1343.5</ele><time>2026-05-01T09:06:23.407Z</time></trkpt><trkpt lat="44.9048976" lon="6.6569528"><ele>1340.75</ele><time>2026-05-01T09:06:24.408Z</time></trkpt><trkpt lat="44.9048894" lon="6.6567657"><ele>1338.0</ele><time>2026-05-01T09:06:25.407Z</time></trkpt><trkpt lat="44.904887" lon="6.6565807"><ele>1338.0</ele><time>2026-05-01T09:06:26.407Z</time></trkpt><trkpt lat="44.9048838" lon="6.6563974"><ele>1338.0</ele><time>2026-05-01T09:06:27.407Z</time></trkpt><trkpt lat="44.9048818" lon="6.6562151"><ele>1338.0</ele><time>2026-05-01T09:06:28.407Z</time></trkpt><trkpt lat="44.9048744" lon="6.6560296"><ele>1338.0</ele><time>2026-05-01T09:06:29.407Z</time></trkpt><trkpt lat="44.9048593" lon="6.6558374"><ele>1341.3333333333333</ele><time>2026-05-01T09:06:30.407Z</time></trkpt><trkpt lat="44.9048345" lon="6.655638"><ele>1344.6666666666665</ele><time>2026-05-01T09:06:31.408Z</time></trkpt><trkpt lat="44.904798" lon="6.6554287"><ele>1348.0</ele><time>2026-05-01T09:06:32.407Z</time></trkpt><trkpt lat="44.9047451" lon="6.6552157"><ele>1351.0</ele><time>2026-05-01T09:06:33.407Z</time></trkpt><trkpt lat="44.9046832" lon="6.6549935"><ele>1354.0</ele><time>2026-05-01T09:06:34.408Z</time></trkpt><trkpt lat="44.9046172" lon="6.6547637"><ele>1357.0</ele><time>2026-05-01T09:06:35.407Z</time></trkpt><trkpt lat="44.9045452" lon="6.6545301"><ele>1362.3333333333333</ele><time>2026-05-01T09:06:36.407Z</time></trkpt><trkpt lat="44.9044713" lon="6.6542918"><ele>1367.6666666666667</ele><time>2026-05-01T09:06:37.407Z</time></trkpt><trkpt lat="44.9043957" lon="6.6540507"><ele>1373.0</ele><time>2026-05-01T09:06:38.407Z</time></trkpt><trkpt lat="44.9043202" lon="6.6538159"><ele>1363.3333333333335</ele><time>2026-05-01T09:06:39.409Z</time></trkpt><trkpt lat="44.9042399" lon="6.6535891"><ele>1353.6666666666667</ele><time>2026-05-01T09:06:40.407Z</time></trkpt><trkpt lat="44.9041488" lon="6.6533776"><ele>1344.0</ele><time>2026-05-01T09:06:41.407Z</time></trkpt><trkpt lat="44.904054" lon="6.6531696"><ele>1344.0</ele><time>2026-05-01T09:06:42.408Z</time></trkpt><trkpt lat="44.9039579" lon="6.6529654"><ele>1344.0</ele><time>2026-05-01T09:06:43.408Z</time></trkpt><trkpt lat="44.9038653" lon="6.6527685"><ele>1344.0</ele><time>2026-05-01T09:06:44.407Z</time></trkpt><trkpt lat="44.9037716" lon="6.6525824"><ele>1350.25</ele><time>2026-05-01T09:06:45.407Z</time></trkpt><trkpt lat="44.9036771" lon="6.6524124"><ele>1356.5</ele><time>2026-05-01T09:06:46.407Z</time></trkpt><trkpt lat="44.9035858" lon="6.6522503"><ele>1362.75</ele><time>2026-05-01T09:06:47.407Z</time></trkpt><trkpt lat="44.9035029" lon="6.6520892"><ele>1369.0</ele><time>2026-05-01T09:06:48.409Z</time></trkpt><trkpt lat="44.9034216" lon="6.6519259"><ele>1362.75</ele><time>2026-05-01T09:06:49.407Z</time></trkpt><trkpt lat="44.9033406" lon="6.6517612"><ele>1356.5</ele><time>2026-05-01T09:06:50.408Z</time></trkpt><trkpt lat="44.9032608" lon="6.651594"><ele>1350.25</ele><time>2026-05-01T09:06:51.407Z</time></trkpt><trkpt lat="44.9031828" lon="6.651425"><ele>1344.0</ele><time>2026-05-01T09:06:52.408Z</time></trkpt><trkpt lat="44.9031086" lon="6.6512649"><ele>1351.25</ele><time>2026-05-01T09:06:53.407Z</time></trkpt><trkpt lat="44.9030394" lon="6.6511125"><ele>1358.5</ele><time>2026-05-01T09:06:54.407Z</time></trkpt><trkpt lat="44.9029717" lon="6.6509621"><ele>1365.75</ele><time>2026-05-01T09:06:55.407Z</time></trkpt><trkpt lat="44.9029098" lon="6.65082"><ele>1373.0</ele><time>2026-05-01T09:06:56.408Z</time></trkpt><trkpt lat="44.9028566" lon="6.6506819"><ele>1373.0</ele><time>2026-05-01T09:06:57.407Z</time></trkpt><trkpt lat="44.9028181" lon="6.6505497"><ele>1373.0</ele><time>2026-05-01T09:06:58.408Z</time></trkpt><trkpt lat="44.9027981" lon="6.6504179"><ele>1373.0</ele><time>2026-05-01T09:06:59.407Z</time></trkpt><trkpt lat="44.9028053" lon="6.6502863"><ele>1373.0</ele><time>2026-05-01T09:07:00.407Z</time></trkpt><trkpt lat="44.9028383" lon="6.6501694"><ele>1373.0</ele><time>2026-05-01T09:07:01.407Z</time></trkpt><trkpt lat="44.9028869" lon="6.6500541"><ele>1369.5</ele><time>2026-05-01T09:07:02.407Z</time></trkpt><trkpt lat="44.9029436" lon="6.6499316"><ele>1366.0</ele><time>2026-05-01T09:07:03.407Z</time></trkpt><trkpt lat="44.9030075" lon="6.6497973"><ele>1362.5</ele><time>2026-05-01T09:07:04.408Z</time></trkpt><trkpt lat="44.9030681" lon="6.6496558"><ele>1359.0</ele><time>2026-05-01T09:07:05.407Z</time></trkpt><trkpt lat="44.9031162" lon="6.6495026"><ele>1355.75</ele><time>2026-05-01T09:07:06.408Z</time></trkpt><trkpt lat="44.9031468" lon="6.6493381"><ele>1352.5</ele><time>2026-05-01T09:07:07.407Z</time></trkpt><trkpt lat="44.9031569" lon="6.6491646"><ele>1349.25</ele><time>2026-05-01T09:07:08.408Z</time></trkpt><trkpt lat="44.9031494" lon="6.6489824"><ele>1346.0</ele><time>2026-05-01T09:07:09.407Z</time></trkpt><trkpt lat="44.9031345" lon="6.6487977"><ele>1346.75</ele><time>2026-05-01T09:07:10.408Z</time></trkpt><trkpt lat="44.9031123" lon="6.6486168"><ele>1347.5</ele><time>2026-05-01T09:07:11.407Z</time></trkpt><trkpt lat="44.9030868" lon="6.648439"><ele>1348.25</ele><time>2026-05-01T09:07:12.408Z</time></trkpt><trkpt lat="44.9030541" lon="6.6482665"><ele>1349.0</ele><time>2026-05-01T09:07:13.408Z</time></trkpt><trkpt lat="44.9030117" lon="6.6481038"><ele>1349.0</ele><time>2026-05-01T09:07:14.407Z</time></trkpt><trkpt lat="44.9029572" lon="6.6479605"><ele>1349.0</ele><time>2026-05-01T09:07:15.407Z</time></trkpt><trkpt lat="44.9028965" lon="6.6478303"><ele>1349.0</ele><time>2026-05-01T09:07:16.407Z</time></trkpt><trkpt lat="44.9028323" lon="6.6477162"><ele>1349.0</ele><time>2026-05-01T09:07:17.407Z</time></trkpt><trkpt lat="44.9027641" lon="6.6476048"><ele>1349.0</ele><time>2026-05-01T09:07:18.407Z</time></trkpt><trkpt lat="44.9026959" lon="6.6474944"><ele>1349.2</ele><time>2026-05-01T09:07:19.407Z</time></trkpt><trkpt lat="44.9026285" lon="6.6473858"><ele>1349.4</ele><time>2026-05-01T09:07:20.407Z</time></trkpt><trkpt lat="44.9025636" lon="6.6472838"><ele>1349.6</ele><time>2026-05-01T09:07:21.407Z</time></trkpt><trkpt lat="44.9025" lon="6.6471827"><ele>1349.8</ele><time>2026-05-01T09:07:22.407Z</time></trkpt><trkpt lat="44.9024357" lon="6.6470775"><ele>1350.0</ele><time>2026-05-01T09:07:23.407Z</time></trkpt><trkpt lat="44.9023694" lon="6.6469667"><ele>1348.0</ele><time>2026-05-01T09:07:24.407Z</time></trkpt><trkpt lat="44.9023049" lon="6.6468499"><ele>1346.0</ele><time>2026-05-01T09:07:25.407Z</time></trkpt><trkpt lat="44.9022401" lon="6.6467306"><ele>1344.0</ele><time>2026-05-01T09:07:26.407Z</time></trkpt><trkpt lat="44.9021731" lon="6.6466185"><ele>1342.0</ele><time>2026-05-01T09:07:27.408Z</time></trkpt><trkpt lat="44.9021092" lon="6.6465122"><ele>1340.0</ele><time>2026-05-01T09:07:28.407Z</time></trkpt><trkpt lat="44.9020495" lon="6.6464113"><ele>1340.0</ele><time>2026-05-01T09:07:29.407Z</time></trkpt><trkpt lat="44.9019947" lon="6.6463177"><ele>1340.0</ele><time>2026-05-01T09:07:30.407Z</time></trkpt><trkpt lat="44.9019451" lon="6.6462307"><ele>1340.0</ele><time>2026-05-01T09:07:31.407Z</time></trkpt><trkpt lat="44.9019018" lon="6.6461521"><ele>1340.0</ele><time>2026-05-01T09:07:32.407Z</time></trkpt><trkpt lat="44.901861" lon="6.6460762"><ele>1340.0</ele><time>2026-05-01T09:07:33.407Z</time></trkpt><trkpt lat="44.9017868" lon="6.6459291"><ele>1340.0</ele><time>2026-05-01T09:07:35.407Z</time></trkpt><trkpt lat="44.9017499" lon="6.6458375"><ele>1339.3333333333335</ele><time>2026-05-01T09:07:36.407Z</time></trkpt><trkpt lat="44.9017113" lon="6.645735"><ele>1338.6666666666667</ele><time>2026-05-01T09:07:37.407Z</time></trkpt><trkpt lat="44.901674" lon="6.6456278"><ele>1338.0</ele><time>2026-05-01T09:07:38.407Z</time></trkpt><trkpt lat="44.9016398" lon="6.6455239"><ele>1337.3333333333333</ele><time>2026-05-01T09:07:39.407Z</time></trkpt><trkpt lat="44.9016106" lon="6.645424"><ele>1336.6666666666665</ele><time>2026-05-01T09:07:40.408Z</time></trkpt><trkpt lat="44.9015855" lon="6.6453232"><ele>1336.0</ele><time>2026-05-01T09:07:41.407Z</time></trkpt><trkpt lat="44.9015679" lon="6.6452254"><ele>1336.0</ele><time>2026-05-01T09:07:42.407Z</time></trkpt><trkpt lat="44.9015541" lon="6.6451357"><ele>1336.0</ele><time>2026-05-01T09:07:43.407Z</time></trkpt><trkpt lat="44.9015366" lon="6.6449668"><ele>1336.0</ele><time>2026-05-01T09:07:45.408Z</time></trkpt><trkpt lat="44.9015309" lon="6.6448025"><ele>1336.0</ele><time>2026-05-01T09:07:47.408Z</time></trkpt><trkpt lat="44.901533" lon="6.6446476"><ele>1336.0</ele><time>2026-05-01T09:07:49.407Z</time></trkpt><trkpt lat="44.9015364" lon="6.6445293"><ele>1335.8</ele><time>2026-05-01T09:07:51.407Z</time></trkpt><trkpt lat="44.901541" lon="6.6444153"><ele>1335.6</ele><time>2026-05-01T09:07:53.407Z</time></trkpt><trkpt lat="44.9015459" lon="6.6442941"><ele>1335.4</ele><time>2026-05-01T09:07:55.407Z</time></trkpt><trkpt lat="44.9015435" lon="6.6441338"><ele>1335.2</ele><time>2026-05-01T09:07:57.407Z</time></trkpt><trkpt lat="44.9015449" lon="6.6439632"><ele>1335.0</ele><time>2026-05-01T09:07:59.407Z</time></trkpt><trkpt lat="44.901543" lon="6.643871"><ele>1335.0</ele><time>2026-05-01T09:08:00.407Z</time></trkpt><trkpt lat="44.9015356" lon="6.6437774"><ele>1335.0</ele><time>2026-05-01T09:08:01.407Z</time></trkpt><trkpt lat="44.9014968" lon="6.643621"><ele>1335.0</ele><time>2026-05-01T09:08:03.407Z</time></trkpt><trkpt lat="44.9014948" lon="6.6434496"><ele>1335.0</ele><time>2026-05-01T09:08:05.408Z</time></trkpt><trkpt lat="44.9015128" lon="6.6433611"><ele>1335.0</ele><time>2026-05-01T09:08:06.407Z</time></trkpt><trkpt lat="44.9015389" lon="6.6432548"><ele>1334.0</ele><time>2026-05-01T09:08:07.407Z</time></trkpt><trkpt lat="44.9015743" lon="6.6431357"><ele>1333.0</ele><time>2026-05-01T09:08:08.407Z</time></trkpt><trkpt lat="44.9016085" lon="6.643004"><ele>1332.0</ele><time>2026-05-01T09:08:09.408Z</time></trkpt><trkpt lat="44.9016416" lon="6.6428764"><ele>1331.0</ele><time>2026-05-01T09:08:10.407Z</time></trkpt><trkpt lat="44.9016685" lon="6.6427454"><ele>1330.0</ele><time>2026-05-01T09:08:11.407Z</time></trkpt><trkpt lat="44.901695" lon="6.6425866"><ele>1331.0</ele><time>2026-05-01T09:08:12.407Z</time></trkpt><trkpt lat="44.901731" lon="6.6423856"><ele>1332.0</ele><time>2026-05-01T09:08:13.407Z</time></trkpt><trkpt lat="44.9017753" lon="6.6421479"><ele>1333.0</ele><time>2026-05-01T09:08:14.407Z</time></trkpt><trkpt lat="44.9018222" lon="6.6418964"><ele>1333.0</ele><time>2026-05-01T09:08:15.407Z</time></trkpt><trkpt lat="44.9018714" lon="6.6416883"><ele>1333.0</ele><time>2026-05-01T09:08:16.408Z</time></trkpt><trkpt lat="44.9019079" lon="6.6415139"><ele>1333.0</ele><time>2026-05-01T09:08:17.407Z</time></trkpt><trkpt lat="44.9019358" lon="6.641347"><ele>1333.0</ele><time>2026-05-01T09:08:18.407Z</time></trkpt><trkpt lat="44.9019638" lon="6.6411942"><ele>1332.0</ele><time>2026-05-01T09:08:19.407Z</time></trkpt><trkpt lat="44.9019913" lon="6.6410575"><ele>1331.0</ele><time>2026-05-01T09:08:20.407Z</time></trkpt><trkpt lat="44.9020124" lon="6.6409322"><ele>1330.0</ele><time>2026-05-01T09:08:21.408Z</time></trkpt><trkpt lat="44.9020309" lon="6.6408189"><ele>1329.0</ele><time>2026-05-01T09:08:22.407Z</time></trkpt><trkpt lat="44.9020545" lon="6.6407035"><ele>1328.0</ele><time>2026-05-01T09:08:23.407Z</time></trkpt><trkpt lat="44.9020771" lon="6.6405891"><ele>1327.0</ele><time>2026-05-01T09:08:24.407Z</time></trkpt><trkpt lat="44.9020956" lon="6.640468"><ele>1327.0</ele><time>2026-05-01T09:08:25.407Z</time></trkpt><trkpt lat="44.902118" lon="6.6403375"><ele>1327.0</ele><time>2026-05-01T09:08:26.407Z</time></trkpt><trkpt lat="44.9021474" lon="6.6401971"><ele>1327.0</ele><time>2026-05-01T09:08:27.407Z</time></trkpt><trkpt lat="44.9021737" lon="6.6400597"><ele>1327.0</ele><time>2026-05-01T09:08:28.407Z</time></trkpt><trkpt lat="44.9021986" lon="6.6399254"><ele>1327.0</ele><time>2026-05-01T09:08:29.407Z</time></trkpt><trkpt lat="44.9022235" lon="6.6398014"><ele>1326.6666666666665</ele><time>2026-05-01T09:08:30.407Z</time></trkpt><trkpt lat="44.9022446" lon="6.6396946"><ele>1326.3333333333333</ele><time>2026-05-01T09:08:31.407Z</time></trkpt><trkpt lat="44.9022641" lon="6.6395924"><ele>1326.0</ele><time>2026-05-01T09:08:32.407Z</time></trkpt><trkpt lat="44.9022863" lon="6.6394895"><ele>1325.6666666666667</ele><time>2026-05-01T09:08:33.407Z</time></trkpt><trkpt lat="44.9023079" lon="6.6393855"><ele>1325.3333333333335</ele><time>2026-05-01T09:08:34.407Z</time></trkpt><trkpt lat="44.9023288" lon="6.6392828"><ele>1325.0</ele><time>2026-05-01T09:08:35.407Z</time></trkpt><trkpt lat="44.9023516" lon="6.639181"><ele>1323.6666666666667</ele><time>2026-05-01T09:08:36.407Z</time></trkpt><trkpt lat="44.9023719" lon="6.6390785"><ele>1322.3333333333335</ele><time>2026-05-01T09:08:37.408Z</time></trkpt><trkpt lat="44.9023948" lon="6.6389707"><ele>1321.0</ele><time>2026-05-01T09:08:38.407Z</time></trkpt><trkpt lat="44.9024241" lon="6.6388619"><ele>1319.6666666666667</ele><time>2026-05-01T09:08:39.407Z</time></trkpt><trkpt lat="44.9024626" lon="6.6387439"><ele>1318.3333333333333</ele><time>2026-05-01T09:08:40.407Z</time></trkpt><trkpt lat="44.9025125" lon="6.6386207"><ele>1317.0</ele><time>2026-05-01T09:08:41.407Z</time></trkpt><trkpt lat="44.9025699" lon="6.6384938"><ele>1318.3999999999999</ele><time>2026-05-01T09:08:42.407Z</time></trkpt><trkpt lat="44.9026308" lon="6.6383651"><ele>1319.8</ele><time>2026-05-01T09:08:43.407Z</time></trkpt><trkpt lat="44.9026953" lon="6.6382358"><ele>1321.2</ele><time>2026-05-01T09:08:44.407Z</time></trkpt><trkpt lat="44.902759" lon="6.6381082"><ele>1322.6</ele><time>2026-05-01T09:08:45.407Z</time></trkpt><trkpt lat="44.9028237" lon="6.6379852"><ele>1324.0</ele><time>2026-05-01T09:08:46.408Z</time></trkpt><trkpt lat="44.9028923" lon="6.6378699"><ele>1321.4</ele><time>2026-05-01T09:08:47.407Z</time></trkpt><trkpt lat="44.9029669" lon="6.637768"><ele>1318.8000000000002</ele><time>2026-05-01T09:08:48.407Z</time></trkpt><trkpt lat="44.9030414" lon="6.6376757"><ele>1316.1999999999998</ele><time>2026-05-01T09:08:49.407Z</time></trkpt><trkpt lat="44.9031057" lon="6.6375776"><ele>1313.6</ele><time>2026-05-01T09:08:50.407Z</time></trkpt><trkpt lat="44.903155" lon="6.63746"><ele>1311.0</ele><time>2026-05-01T09:08:51.407Z</time></trkpt><trkpt lat="44.9031928" lon="6.6373271"><ele>1311.0</ele><time>2026-05-01T09:08:52.408Z</time></trkpt><trkpt lat="44.9032201" lon="6.6371782"><ele>1311.0</ele><time>2026-05-01T09:08:53.407Z</time></trkpt><trkpt lat="44.9032446" lon="6.6370155"><ele>1311.0</ele><time>2026-05-01T09:08:54.407Z</time></trkpt><trkpt lat="44.9032733" lon="6.6368579"><ele>1311.0</ele><time>2026-05-01T09:08:55.407Z</time></trkpt><trkpt lat="44.903313" lon="6.6367104"><ele>1309.0</ele><time>2026-05-01T09:08:56.407Z</time></trkpt><trkpt lat="44.9033678" lon="6.6365733"><ele>1307.0</ele><time>2026-05-01T09:08:57.408Z</time></trkpt><trkpt lat="44.9034415" lon="6.6364499"><ele>1305.0</ele><time>2026-05-01T09:08:58.407Z</time></trkpt><trkpt lat="44.9035254" lon="6.6363306"><ele>1303.0</ele><time>2026-05-01T09:08:59.407Z</time></trkpt><trkpt lat="44.9036158" lon="6.6362137"><ele>1303.8000000000002</ele><time>2026-05-01T09:09:00.408Z</time></trkpt><trkpt lat="44.9037033" lon="6.6361002"><ele>1304.6</ele><time>2026-05-01T09:09:01.407Z</time></trkpt><trkpt lat="44.9037868" lon="6.6359916"><ele>1305.4</ele><time>2026-05-01T09:09:02.407Z</time></trkpt><trkpt lat="44.9038669" lon="6.6358888"><ele>1306.1999999999998</ele><time>2026-05-01T09:09:03.407Z</time></trkpt><trkpt lat="44.9039467" lon="6.6357895"><ele>1307.0</ele><time>2026-05-01T09:09:04.408Z</time></trkpt><trkpt lat="44.9040251" lon="6.635697"><ele>1307.0</ele><time>2026-05-01T09:09:05.407Z</time></trkpt><trkpt lat="44.9041022" lon="6.6356127"><ele>1307.0</ele><time>2026-05-01T09:09:06.407Z</time></trkpt><trkpt lat="44.9041795" lon="6.6355385"><ele>1307.0</ele><time>2026-05-01T09:09:07.407Z</time></trkpt><trkpt lat="44.9042516" lon="6.6354817"><ele>1307.0</ele><time>2026-05-01T09:09:08.407Z</time></trkpt><trkpt lat="44.9043167" lon="6.6354394"><ele>1307.0</ele><time>2026-05-01T09:09:09.407Z</time></trkpt><trkpt lat="44.90438" lon="6.6354018"><ele>1307.0</ele><time>2026-05-01T09:09:10.407Z</time></trkpt><trkpt lat="44.9044413" lon="6.635365"><ele>1306.5714285714284</ele><time>2026-05-01T09:09:11.407Z</time></trkpt><trkpt lat="44.9045036" lon="6.6353217"><ele>1306.1428571428573</ele><time>2026-05-01T09:09:12.407Z</time></trkpt><trkpt lat="44.9045689" lon="6.6352641"><ele>1305.7142857142858</ele><time>2026-05-01T09:09:13.407Z</time></trkpt><trkpt lat="44.9046303" lon="6.6352009"><ele>1305.2857142857142</ele><time>2026-05-01T09:09:14.407Z</time></trkpt><trkpt lat="44.9046874" lon="6.6351328"><ele>1304.8571428571427</ele><time>2026-05-01T09:09:15.407Z</time></trkpt><trkpt lat="44.9047421" lon="6.6350603"><ele>1304.4285714285716</ele><time>2026-05-01T09:09:16.407Z</time></trkpt><trkpt lat="44.9047932" lon="6.6349803"><ele>1304.0</ele><time>2026-05-01T09:09:17.407Z</time></trkpt><trkpt lat="44.9048425" lon="6.6348796"><ele>1304.0</ele><time>2026-05-01T09:09:18.407Z</time></trkpt><trkpt lat="44.9048892" lon="6.634756"><ele>1304.0</ele><time>2026-05-01T09:09:19.407Z</time></trkpt><trkpt lat="44.904922" lon="6.6346171"><ele>1304.0</ele><time>2026-05-01T09:09:20.407Z</time></trkpt><trkpt lat="44.904938" lon="6.634465"><ele>1304.0</ele><time>2026-05-01T09:09:21.407Z</time></trkpt><trkpt lat="44.9049331" lon="6.6343099"><ele>1304.0</ele><time>2026-05-01T09:09:22.408Z</time></trkpt><trkpt lat="44.9049056" lon="6.6341578"><ele>1301.5</ele><time>2026-05-01T09:09:23.407Z</time></trkpt><trkpt lat="44.9048675" lon="6.6340035"><ele>1299.0</ele><time>2026-05-01T09:09:24.408Z</time></trkpt><trkpt lat="44.9048356" lon="6.6338377"><ele>1296.5</ele><time>2026-05-01T09:09:25.408Z</time></trkpt><trkpt lat="44.9048171" lon="6.6336598"><ele>1294.0</ele><time>2026-05-01T09:09:26.407Z</time></trkpt><trkpt lat="44.9048061" lon="6.6334778"><ele>1292.75</ele><time>2026-05-01T09:09:27.407Z</time></trkpt><trkpt lat="44.9048095" lon="6.6332976"><ele>1291.5</ele><time>2026-05-01T09:09:28.408Z</time></trkpt><trkpt lat="44.9048198" lon="6.6331275"><ele>1290.25</ele><time>2026-05-01T09:09:29.407Z</time></trkpt><trkpt lat="44.9048382" lon="6.6329628"><ele>1289.0</ele><time>2026-05-01T09:09:30.407Z</time></trkpt><trkpt lat="44.9048669" lon="6.6328095"><ele>1286.75</ele><time>2026-05-01T09:09:31.407Z</time></trkpt><trkpt lat="44.9049057" lon="6.6326625"><ele>1284.5</ele><time>2026-05-01T09:09:32.407Z</time></trkpt><trkpt lat="44.9049563" lon="6.6325169"><ele>1282.25</ele><time>2026-05-01T09:09:33.407Z</time></trkpt><trkpt lat="44.9050138" lon="6.6323724"><ele>1280.0</ele><time>2026-05-01T09:09:34.408Z</time></trkpt><trkpt lat="44.9050727" lon="6.6322278"><ele>1281.4</ele><time>2026-05-01T09:09:35.407Z</time></trkpt><trkpt lat="44.9051318" lon="6.63209"><ele>1282.8</ele><time>2026-05-01T09:09:36.407Z</time></trkpt><trkpt lat="44.9051908" lon="6.6319569"><ele>1284.1999999999998</ele><time>2026-05-01T09:09:37.407Z</time></trkpt><trkpt lat="44.9052465" lon="6.631829"><ele>1285.6</ele><time>2026-05-01T09:09:38.407Z</time></trkpt><trkpt lat="44.9052937" lon="6.6317038"><ele>1287.0</ele><time>2026-05-01T09:09:39.408Z</time></trkpt><trkpt lat="44.9053287" lon="6.6315753"><ele>1287.0</ele><time>2026-05-01T09:09:40.407Z</time></trkpt><trkpt lat="44.9053541" lon="6.6314393"><ele>1287.0</ele><time>2026-05-01T09:09:41.407Z</time></trkpt><trkpt lat="44.9053775" lon="6.6313"><ele>1287.0</ele><time>2026-05-01T09:09:42.408Z</time></trkpt><trkpt lat="44.9054004" lon="6.6311664"><ele>1287.0</ele><time>2026-05-01T09:09:43.407Z</time></trkpt><trkpt lat="44.9054223" lon="6.6310405"><ele>1287.0</ele><time>2026-05-01T09:09:44.407Z</time></trkpt><trkpt lat="44.9054428" lon="6.6309393"><ele>1286.0</ele><time>2026-05-01T09:09:45.407Z</time></trkpt><trkpt lat="44.9054717" lon="6.6307969"><ele>1285.0</ele><time>2026-05-01T09:09:47.407Z</time></trkpt><trkpt lat="44.9054853" lon="6.63069"><ele>1284.0</ele><time>2026-05-01T09:09:50.407Z</time></trkpt><trkpt lat="44.9054998" lon="6.6306019"><ele>1283.0</ele><time>2026-05-01T09:09:52.407Z</time></trkpt><trkpt lat="44.9055205" lon="6.6305039"><ele>1282.0</ele><time>2026-05-01T09:09:54.407Z</time></trkpt><trkpt lat="44.9055413" lon="6.6303938"><ele>1281.0</ele><time>2026-05-01T09:09:56.407Z</time></trkpt><trkpt lat="44.905564" lon="6.6302645"><ele>1279.8333333333333</ele><time>2026-05-01T09:09:58.407Z</time></trkpt><trkpt lat="44.9055908" lon="6.6301157"><ele>1278.6666666666667</ele><time>2026-05-01T09:10:00.408Z</time></trkpt><trkpt lat="44.9056059" lon="6.6300152"><ele>1277.5</ele><time>2026-05-01T09:10:01.407Z</time></trkpt><trkpt lat="44.9056185" lon="6.6299032"><ele>1276.3333333333335</ele><time>2026-05-01T09:10:02.407Z</time></trkpt><trkpt lat="44.9056289" lon="6.6297812"><ele>1275.1666666666667</ele><time>2026-05-01T09:10:03.407Z</time></trkpt><trkpt lat="44.905635" lon="6.629649"><ele>1274.0</ele><time>2026-05-01T09:10:04.407Z</time></trkpt><trkpt lat="44.9056346" lon="6.6295189"><ele>1273.0</ele><time>2026-05-01T09:10:05.407Z</time></trkpt><trkpt lat="44.9056246" lon="6.6293915"><ele>1272.0</ele><time>2026-05-01T09:10:06.407Z</time></trkpt><trkpt lat="44.9056157" lon="6.6292669"><ele>1271.0</ele><time>2026-05-01T09:10:07.409Z</time></trkpt><trkpt lat="44.9056066" lon="6.6291492"><ele>1270.0</ele><time>2026-05-01T09:10:08.407Z</time></trkpt><trkpt lat="44.9055998" lon="6.6290535"><ele>1269.0</ele><time>2026-05-01T09:10:09.407Z</time></trkpt><trkpt lat="44.9055919" lon="6.6288967"><ele>1268.0</ele><time>2026-05-01T09:10:11.407Z</time></trkpt><trkpt lat="44.9055914" lon="6.6287744"><ele>1268.0</ele><time>2026-05-01T09:10:13.407Z</time></trkpt><trkpt lat="44.9055914" lon="6.6286787"><ele>1268.0</ele><time>2026-05-01T09:10:15.407Z</time></trkpt><trkpt lat="44.9056204" lon="6.6285202"><ele>1268.0</ele><time>2026-05-01T09:10:17.407Z</time></trkpt><trkpt lat="44.9056237" lon="6.6284192"><ele>1268.0</ele><time>2026-05-01T09:10:18.407Z</time></trkpt><trkpt lat="44.9056042" lon="6.6283331"><ele>1268.0</ele><time>2026-05-01T09:10:19.407Z</time></trkpt><trkpt lat="44.9054909" lon="6.6282384"><ele>1267.0</ele><time>2026-05-01T09:10:21.407Z</time></trkpt><trkpt lat="44.9053968" lon="6.6282227"><ele>1266.0</ele><time>2026-05-01T09:10:22.407Z</time></trkpt><trkpt lat="44.9052783" lon="6.6282065"><ele>1265.0</ele><time>2026-05-01T09:10:23.408Z</time></trkpt><trkpt lat="44.9051457" lon="6.6281584"><ele>1264.0</ele><time>2026-05-01T09:10:24.407Z</time></trkpt><trkpt lat="44.9050222" lon="6.628095"><ele>1261.75</ele><time>2026-05-01T09:10:25.407Z</time></trkpt><trkpt lat="44.9049046" lon="6.6280375"><ele>1259.5</ele><time>2026-05-01T09:10:26.407Z</time></trkpt><trkpt lat="44.9047884" lon="6.6280002"><ele>1257.25</ele><time>2026-05-01T09:10:27.407Z</time></trkpt><trkpt lat="44.9046751" lon="6.6279775"><ele>1255.0</ele><time>2026-05-01T09:10:28.407Z</time></trkpt><trkpt lat="44.9045651" lon="6.6279665"><ele>1255.0</ele><time>2026-05-01T09:10:29.407Z</time></trkpt><trkpt lat="44.9044592" lon="6.6279691"><ele>1255.0</ele><time>2026-05-01T09:10:30.407Z</time></trkpt><trkpt lat="44.9043588" lon="6.6279861"><ele>1255.0</ele><time>2026-05-01T09:10:31.407Z</time></trkpt><trkpt lat="44.9042668" lon="6.6280114"><ele>1255.0</ele><time>2026-05-01T09:10:32.409Z</time></trkpt><trkpt lat="44.9041862" lon="6.6280392"><ele>1255.0</ele><time>2026-05-01T09:10:33.407Z</time></trkpt><trkpt lat="44.9041104" lon="6.6280756"><ele>1254.5714285714287</ele><time>2026-05-01T09:10:34.408Z</time></trkpt><trkpt lat="44.9040441" lon="6.6281174"><ele>1254.142857142857</ele><time>2026-05-01T09:10:35.407Z</time></trkpt><trkpt lat="44.9039846" lon="6.6281629"><ele>1253.7142857142858</ele><time>2026-05-01T09:10:36.407Z</time></trkpt><trkpt lat="44.903929" lon="6.6282109"><ele>1253.2857142857142</ele><time>2026-05-01T09:10:37.407Z</time></trkpt><trkpt lat="44.9038755" lon="6.6282638"><ele>1252.857142857143</ele><time>2026-05-01T09:10:38.407Z</time></trkpt><trkpt lat="44.9038253" lon="6.6283212"><ele>1252.4285714285713</ele><time>2026-05-01T09:10:39.407Z</time></trkpt><trkpt lat="44.9037765" lon="6.6283794"><ele>1252.0</ele><time>2026-05-01T09:10:40.407Z</time></trkpt><trkpt lat="44.9037252" lon="6.6284408"><ele>1252.0</ele><time>2026-05-01T09:10:41.407Z</time></trkpt><trkpt lat="44.9036722" lon="6.628513"><ele>1252.0</ele><time>2026-05-01T09:10:42.407Z</time></trkpt><trkpt lat="44.903622" lon="6.6285967"><ele>1252.0</ele><time>2026-05-01T09:10:43.407Z</time></trkpt><trkpt lat="44.9035721" lon="6.6286895"><ele>1252.0</ele><time>2026-05-01T09:10:44.407Z</time></trkpt><trkpt lat="44.9035277" lon="6.6287888"><ele>1252.0</ele><time>2026-05-01T09:10:45.407Z</time></trkpt><trkpt lat="44.9034894" lon="6.6288865"><ele>1252.0</ele><time>2026-05-01T09:10:46.408Z</time></trkpt><trkpt lat="44.903459" lon="6.6289847"><ele>1252.1666666666665</ele><time>2026-05-01T09:10:47.407Z</time></trkpt><trkpt lat="44.9034353" lon="6.6290855"><ele>1252.3333333333333</ele><time>2026-05-01T09:10:48.407Z</time></trkpt><trkpt lat="44.9034183" lon="6.6291788"><ele>1252.5</ele><time>2026-05-01T09:10:49.408Z</time></trkpt><trkpt lat="44.9034023" lon="6.6292708"><ele>1252.6666666666667</ele><time>2026-05-01T09:10:50.408Z</time></trkpt><trkpt lat="44.9033879" lon="6.6294438"><ele>1252.8333333333335</ele><time>2026-05-01T09:10:52.407Z</time></trkpt><trkpt lat="44.9033866" lon="6.6296008"><ele>1253.0</ele><time>2026-05-01T09:10:54.407Z</time></trkpt><trkpt lat="44.9033878" lon="6.6297272"><ele>1252.6</ele><time>2026-05-01T09:10:56.407Z</time></trkpt><trkpt lat="44.9033943" lon="6.6298692"><ele>1252.1999999999998</ele><time>2026-05-01T09:10:58.407Z</time></trkpt><trkpt lat="44.9033887" lon="6.6300389"><ele>1251.8</ele><time>2026-05-01T09:11:00.407Z</time></trkpt><trkpt lat="44.9033713" lon="6.6301411"><ele>1251.3999999999999</ele><time>2026-05-01T09:11:01.407Z</time></trkpt><trkpt lat="44.903344" lon="6.6302435"><ele>1251.0</ele><time>2026-05-01T09:11:02.408Z</time></trkpt><trkpt lat="44.9033046" lon="6.6303375"><ele>1250.5</ele><time>2026-05-01T09:11:03.408Z</time></trkpt><trkpt lat="44.9032582" lon="6.6304189"><ele>1250.0</ele><time>2026-05-01T09:11:04.407Z</time></trkpt><trkpt lat="44.9032094" lon="6.6304913"><ele>1249.5</ele><time>2026-05-01T09:11:05.408Z</time></trkpt><trkpt lat="44.9031619" lon="6.6305528"><ele>1249.0</ele><time>2026-05-01T09:11:06.407Z</time></trkpt><trkpt lat="44.9030741" lon="6.6306591"><ele>1248.5</ele><time>2026-05-01T09:11:08.407Z</time></trkpt><trkpt lat="44.9029924" lon="6.6307714"><ele>1248.0</ele><time>2026-05-01T09:11:10.407Z</time></trkpt><trkpt lat="44.9028978" lon="6.6308926"><ele>1248.0</ele><time>2026-05-01T09:11:12.407Z</time></trkpt><trkpt lat="44.9028414" lon="6.6309655"><ele>1248.0</ele><time>2026-05-01T09:11:13.408Z</time></trkpt><trkpt lat="44.9027821" lon="6.6310492"><ele>1248.0</ele><time>2026-05-01T09:11:14.407Z</time></trkpt><trkpt lat="44.9027171" lon="6.6311341"><ele>1248.0</ele><time>2026-05-01T09:11:15.408Z</time></trkpt><trkpt lat="44.9026478" lon="6.6312161"><ele>1248.0</ele><time>2026-05-01T09:11:16.407Z</time></trkpt><trkpt lat="44.9025746" lon="6.6312921"><ele>1248.0</ele><time>2026-05-01T09:11:17.408Z</time></trkpt><trkpt lat="44.9024972" lon="6.6313548"><ele>1246.8333333333333</ele><time>2026-05-01T09:11:18.407Z</time></trkpt><trkpt lat="44.9024153" lon="6.6313975"><ele>1245.6666666666667</ele><time>2026-05-01T09:11:19.407Z</time></trkpt><trkpt lat="44.9023341" lon="6.6314239"><ele>1244.5</ele><time>2026-05-01T09:11:20.407Z</time></trkpt><trkpt lat="44.9022549" lon="6.6314328"><ele>1243.3333333333335</ele><time>2026-05-01T09:11:21.407Z</time></trkpt><trkpt lat="44.9021774" lon="6.6314294"><ele>1242.1666666666667</ele><time>2026-05-01T09:11:22.407Z</time></trkpt><trkpt lat="44.9020983" lon="6.6314207"><ele>1241.0</ele><time>2026-05-01T09:11:23.409Z</time></trkpt><trkpt lat="44.9020183" lon="6.6314087"><ele>1241.0</ele><time>2026-05-01T09:11:24.408Z</time></trkpt><trkpt lat="44.9019388" lon="6.6313979"><ele>1241.0</ele><time>2026-05-01T09:11:25.407Z</time></trkpt><trkpt lat="44.9018638" lon="6.6313793"><ele>1241.0</ele><time>2026-05-01T09:11:26.408Z</time></trkpt><trkpt lat="44.9017925" lon="6.63135"><ele>1241.0</ele><time>2026-05-01T09:11:27.407Z</time></trkpt><trkpt lat="44.901724" lon="6.631319"><ele>1241.0</ele><time>2026-05-01T09:11:28.408Z</time></trkpt><trkpt lat="44.9016564" lon="6.6312863"><ele>1241.0</ele><time>2026-05-01T09:11:29.407Z</time></trkpt><trkpt lat="44.9015894" lon="6.6312561"><ele>1241.0</ele><time>2026-05-01T09:11:30.408Z</time></trkpt><trkpt lat="44.901519" lon="6.6312336"><ele>1239.8333333333335</ele><time>2026-05-01T09:11:31.407Z</time></trkpt><trkpt lat="44.9014462" lon="6.6312219"><ele>1238.6666666666667</ele><time>2026-05-01T09:11:32.407Z</time></trkpt><trkpt lat="44.9013745" lon="6.6312152"><ele>1237.5</ele><time>2026-05-01T09:11:33.408Z</time></trkpt><trkpt lat="44.9013052" lon="6.6312133"><ele>1236.3333333333333</ele><time>2026-05-01T09:11:34.407Z</time></trkpt><trkpt lat="44.9012365" lon="6.6312178"><ele>1235.1666666666665</ele><time>2026-05-01T09:11:35.408Z</time></trkpt><trkpt lat="44.9011586" lon="6.6312273"><ele>1234.0</ele><time>2026-05-01T09:11:36.407Z</time></trkpt><trkpt lat="44.9010663" lon="6.6312397"><ele>1234.0</ele><time>2026-05-01T09:11:37.407Z</time></trkpt><trkpt lat="44.9009608" lon="6.6312542"><ele>1234.0</ele><time>2026-05-01T09:11:38.409Z</time></trkpt><trkpt lat="44.9008458" lon="6.6312716"><ele>1234.0</ele><time>2026-05-01T09:11:39.407Z</time></trkpt><trkpt lat="44.9007227" lon="6.6312857"><ele>1234.0</ele><time>2026-05-01T09:11:40.407Z</time></trkpt><trkpt lat="44.9005906" lon="6.6312951"><ele>1232.0</ele><time>2026-05-01T09:11:41.407Z</time></trkpt><trkpt lat="44.9004547" lon="6.6313029"><ele>1230.0</ele><time>2026-05-01T09:11:42.408Z</time></trkpt><trkpt lat="44.9003151" lon="6.631312"><ele>1228.0</ele><time>2026-05-01T09:11:43.407Z</time></trkpt><trkpt lat="44.900174" lon="6.6313196"><ele>1226.0</ele><time>2026-05-01T09:11:44.408Z</time></trkpt><trkpt lat="44.9000369" lon="6.6313332"><ele>1226.0</ele><time>2026-05-01T09:11:45.407Z</time></trkpt><trkpt lat="44.8999061" lon="6.6313487"><ele>1226.0</ele><time>2026-05-01T09:11:46.408Z</time></trkpt><trkpt lat="44.899778" lon="6.6313477"><ele>1226.0</ele><time>2026-05-01T09:11:47.408Z</time></trkpt><trkpt lat="44.899662" lon="6.6313196"><ele>1226.0</ele><time>2026-05-01T09:11:48.407Z</time></trkpt><trkpt lat="44.8995752" lon="6.6312572"><ele>1226.0</ele><time>2026-05-01T09:11:49.407Z</time></trkpt><trkpt lat="44.8995132" lon="6.6311674"><ele>1226.0</ele><time>2026-05-01T09:11:50.407Z</time></trkpt><trkpt lat="44.8994828" lon="6.6310549"><ele>1226.0</ele><time>2026-05-01T09:11:51.408Z</time></trkpt><trkpt lat="44.8994837" lon="6.6309215"><ele>1226.0</ele><time>2026-05-01T09:11:52.407Z</time></trkpt><trkpt lat="44.8995105" lon="6.6307866"><ele>1226.0</ele><time>2026-05-01T09:11:53.407Z</time></trkpt><trkpt lat="44.8995424" lon="6.6306558"><ele>1228.0</ele><time>2026-05-01T09:11:54.407Z</time></trkpt><trkpt lat="44.8995707" lon="6.6305254"><ele>1230.0</ele><time>2026-05-01T09:11:55.407Z</time></trkpt><trkpt lat="44.8995938" lon="6.6303951"><ele>1232.0</ele><time>2026-05-01T09:11:56.407Z</time></trkpt><trkpt lat="44.8996056" lon="6.6302625"><ele>1234.0</ele><time>2026-05-01T09:11:57.408Z</time></trkpt><trkpt lat="44.8996032" lon="6.6301267"><ele>1236.0</ele><time>2026-05-01T09:11:58.408Z</time></trkpt><trkpt lat="44.8995769" lon="6.6299827"><ele>1238.0</ele><time>2026-05-01T09:11:59.407Z</time></trkpt><trkpt lat="44.8995295" lon="6.6298376"><ele>1240.0</ele><time>2026-05-01T09:12:00.407Z</time></trkpt><trkpt lat="44.8994615" lon="6.6297054"><ele>1242.0</ele><time>2026-05-01T09:12:01.408Z</time></trkpt><trkpt lat="44.8993719" lon="6.6295907"><ele>1244.0</ele><time>2026-05-01T09:12:02.407Z</time></trkpt><trkpt lat="44.8992797" lon="6.6294875"><ele>1238.6000000000001</ele><time>2026-05-01T09:12:03.407Z</time></trkpt><trkpt lat="44.8991916" lon="6.629386"><ele>1233.2</ele><time>2026-05-01T09:12:04.408Z</time></trkpt><trkpt lat="44.8991103" lon="6.629284"><ele>1227.8000000000002</ele><time>2026-05-01T09:12:05.407Z</time></trkpt><trkpt lat="44.8990346" lon="6.6291878"><ele>1222.4</ele><time>2026-05-01T09:12:06.407Z</time></trkpt><trkpt lat="44.8989613" lon="6.6291008"><ele>1217.0</ele><time>2026-05-01T09:12:07.407Z</time></trkpt><trkpt lat="44.8988885" lon="6.6290227"><ele>1217.0</ele><time>2026-05-01T09:12:08.407Z</time></trkpt><trkpt lat="44.8988189" lon="6.6289561"><ele>1217.0</ele><time>2026-05-01T09:12:09.407Z</time></trkpt><trkpt lat="44.8987517" lon="6.6288984"><ele>1217.0</ele><time>2026-05-01T09:12:10.407Z</time></trkpt><trkpt lat="44.8986866" lon="6.6288472"><ele>1217.0</ele><time>2026-05-01T09:12:11.407Z</time></trkpt><trkpt lat="44.898629" lon="6.6287964"><ele>1217.0</ele><time>2026-05-01T09:12:12.407Z</time></trkpt><trkpt lat="44.8985775" lon="6.628742"><ele>1217.0</ele><time>2026-05-01T09:12:13.407Z</time></trkpt><trkpt lat="44.8985291" lon="6.6286818"><ele>1217.0</ele><time>2026-05-01T09:12:14.407Z</time></trkpt><trkpt lat="44.8984799" lon="6.6286245"><ele>1216.6</ele><time>2026-05-01T09:12:15.407Z</time></trkpt><trkpt lat="44.8983616" lon="6.6285616"><ele>1216.2</ele><time>2026-05-01T09:12:17.408Z</time></trkpt><trkpt lat="44.8982913" lon="6.6285792"><ele>1215.8</ele><time>2026-05-01T09:12:18.407Z</time></trkpt><trkpt lat="44.8982205" lon="6.628629"><ele>1215.4</ele><time>2026-05-01T09:12:19.407Z</time></trkpt><trkpt lat="44.8981527" lon="6.628701"><ele>1215.0</ele><time>2026-05-01T09:12:20.407Z</time></trkpt><trkpt lat="44.8980867" lon="6.6287883"><ele>1215.0</ele><time>2026-05-01T09:12:21.406Z</time></trkpt><trkpt lat="44.8980163" lon="6.628882"><ele>1215.0</ele><time>2026-05-01T09:12:22.406Z</time></trkpt><trkpt lat="44.8979407" lon="6.6289787"><ele>1215.0</ele><time>2026-05-01T09:12:23.406Z</time></trkpt><trkpt lat="44.8978524" lon="6.6290678"><ele>1215.0</ele><time>2026-05-01T09:12:24.406Z</time></trkpt><trkpt lat="44.8977455" lon="6.6291417"><ele>1215.0</ele><time>2026-05-01T09:12:25.406Z</time></trkpt><trkpt lat="44.8976285" lon="6.6292075"><ele>1216.5</ele><time>2026-05-01T09:12:26.406Z</time></trkpt><trkpt lat="44.8975065" lon="6.6292581"><ele>1218.0</ele><time>2026-05-01T09:12:27.406Z</time></trkpt><trkpt lat="44.8973827" lon="6.6292991"><ele>1219.5</ele><time>2026-05-01T09:12:28.407Z</time></trkpt><trkpt lat="44.8972614" lon="6.6293333"><ele>1221.0</ele><time>2026-05-01T09:12:29.406Z</time></trkpt><trkpt lat="44.8971517" lon="6.6293567"><ele>1221.0</ele><time>2026-05-01T09:12:30.407Z</time></trkpt><trkpt lat="44.8970513" lon="6.6293741"><ele>1221.0</ele><time>2026-05-01T09:12:31.407Z</time></trkpt><trkpt lat="44.8969555" lon="6.6293876"><ele>1221.0</ele><time>2026-05-01T09:12:32.406Z</time></trkpt><trkpt lat="44.896864" lon="6.6294014"><ele>1221.0</ele><time>2026-05-01T09:12:33.407Z</time></trkpt><trkpt lat="44.8967727" lon="6.629411"><ele>1221.0</ele><time>2026-05-01T09:12:34.406Z</time></trkpt><trkpt lat="44.896675" lon="6.6294209"><ele>1221.5</ele><time>2026-05-01T09:12:35.406Z</time></trkpt><trkpt lat="44.8965709" lon="6.6294334"><ele>1222.0</ele><time>2026-05-01T09:12:36.407Z</time></trkpt><trkpt lat="44.8964584" lon="6.6294469"><ele>1222.5</ele><time>2026-05-01T09:12:37.406Z</time></trkpt><trkpt lat="44.8963385" lon="6.629463"><ele>1223.0</ele><time>2026-05-01T09:12:38.406Z</time></trkpt><trkpt lat="44.896217" lon="6.6294866"><ele>1220.0</ele><time>2026-05-01T09:12:39.406Z</time></trkpt><trkpt lat="44.896097" lon="6.629511"><ele>1217.0</ele><time>2026-05-01T09:12:40.406Z</time></trkpt><trkpt lat="44.8959832" lon="6.6295354"><ele>1214.0</ele><time>2026-05-01T09:12:41.406Z</time></trkpt><trkpt lat="44.8958868" lon="6.6295553"><ele>1211.0</ele><time>2026-05-01T09:12:42.406Z</time></trkpt><trkpt lat="44.8958115" lon="6.6295669"><ele>1208.0</ele><time>2026-05-01T09:12:43.406Z</time></trkpt><trkpt lat="44.8956934" lon="6.6295918"><ele>1208.0</ele><time>2026-05-01T09:12:45.406Z</time></trkpt><trkpt lat="44.8955813" lon="6.6296282"><ele>1208.0</ele><time>2026-05-01T09:12:47.406Z</time></trkpt><trkpt lat="44.8954988" lon="6.6296669"><ele>1208.0</ele><time>2026-05-01T09:12:49.406Z</time></trkpt><trkpt lat="44.8954223" lon="6.6297094"><ele>1208.0</ele><time>2026-05-01T09:12:52.406Z</time></trkpt><trkpt lat="44.8953565" lon="6.62976"><ele>1208.0</ele><time>2026-05-01T09:12:57.406Z</time></trkpt><trkpt lat="44.8952921" lon="6.6298038"><ele>1208.0</ele><time>2026-05-01T09:12:58.406Z</time></trkpt><trkpt lat="44.895218" lon="6.6298531"><ele>1208.0</ele><time>2026-05-01T09:12:59.407Z</time></trkpt><trkpt lat="44.8951454" lon="6.6298997"><ele>1208.0</ele><time>2026-05-01T09:13:00.406Z</time></trkpt><trkpt lat="44.895073" lon="6.6299431"><ele>1208.0</ele><time>2026-05-01T09:13:01.407Z</time></trkpt><trkpt lat="44.8950108" lon="6.6299819"><ele>1208.0</ele><time>2026-05-01T09:13:02.407Z</time></trkpt><trkpt lat="44.8949093" lon="6.6300471"><ele>1208.0</ele><time>2026-05-01T09:13:04.406Z</time></trkpt><trkpt lat="44.8947998" lon="6.6301093"><ele>1208.5</ele><time>2026-05-01T09:13:06.406Z</time></trkpt><trkpt lat="44.894738" lon="6.6301336"><ele>1209.0</ele><time>2026-05-01T09:13:07.406Z</time></trkpt><trkpt lat="44.8946642" lon="6.6301486"><ele>1209.5</ele><time>2026-05-01T09:13:08.406Z</time></trkpt><trkpt lat="44.8945839" lon="6.6301502"><ele>1210.0</ele><time>2026-05-01T09:13:09.407Z</time></trkpt><trkpt lat="44.8944977" lon="6.6301417"><ele>1210.5</ele><time>2026-05-01T09:13:10.406Z</time></trkpt><trkpt lat="44.8944148" lon="6.630121"><ele>1211.0</ele><time>2026-05-01T09:13:11.406Z</time></trkpt><trkpt lat="44.8943239" lon="6.6300915"><ele>1210.25</ele><time>2026-05-01T09:13:12.406Z</time></trkpt><trkpt lat="44.8942217" lon="6.6300537"><ele>1209.5</ele><time>2026-05-01T09:13:13.406Z</time></trkpt><trkpt lat="44.8941112" lon="6.6300117"><ele>1208.75</ele><time>2026-05-01T09:13:14.406Z</time></trkpt><trkpt lat="44.8939946" lon="6.6299702"><ele>1208.0</ele><time>2026-05-01T09:13:15.406Z</time></trkpt><trkpt lat="44.8938853" lon="6.6299301"><ele>1208.0</ele><time>2026-05-01T09:13:16.406Z</time></trkpt><trkpt lat="44.8937776" lon="6.6298864"><ele>1208.0</ele><time>2026-05-01T09:13:17.407Z</time></trkpt><trkpt lat="44.893675" lon="6.6298427"><ele>1208.0</ele><time>2026-05-01T09:13:18.407Z</time></trkpt><trkpt lat="44.8935729" lon="6.6298031"><ele>1208.0</ele><time>2026-05-01T09:13:19.406Z</time></trkpt><trkpt lat="44.8934656" lon="6.6297634"><ele>1208.0</ele><time>2026-05-01T09:13:20.407Z</time></trkpt><trkpt lat="44.8933543" lon="6.6297199"><ele>1206.5</ele><time>2026-05-01T09:13:21.406Z</time></trkpt><trkpt lat="44.8932342" lon="6.6296715"><ele>1205.0</ele><time>2026-05-01T09:13:22.406Z</time></trkpt><trkpt lat="44.893108" lon="6.6296224"><ele>1203.5</ele><time>2026-05-01T09:13:23.407Z</time></trkpt><trkpt lat="44.8929727" lon="6.6295759"><ele>1202.0</ele><time>2026-05-01T09:13:24.406Z</time></trkpt><trkpt lat="44.8928342" lon="6.6295273"><ele>1202.0</ele><time>2026-05-01T09:13:25.406Z</time></trkpt><trkpt lat="44.8926977" lon="6.6294766"><ele>1202.0</ele><time>2026-05-01T09:13:26.406Z</time></trkpt><trkpt lat="44.8925625" lon="6.6294268"><ele>1202.0</ele><time>2026-05-01T09:13:27.407Z</time></trkpt><trkpt lat="44.8924264" lon="6.6293737"><ele>1202.0</ele><time>2026-05-01T09:13:28.406Z</time></trkpt><trkpt lat="44.8922861" lon="6.6293162"><ele>1203.75</ele><time>2026-05-01T09:13:29.406Z</time></trkpt><trkpt lat="44.8921493" lon="6.6292535"><ele>1205.5</ele><time>2026-05-01T09:13:30.406Z</time></trkpt><trkpt lat="44.8920186" lon="6.6291777"><ele>1207.25</ele><time>2026-05-01T09:13:31.406Z</time></trkpt><trkpt lat="44.8918933" lon="6.6290916"><ele>1209.0</ele><time>2026-05-01T09:13:32.407Z</time></trkpt><trkpt lat="44.8917668" lon="6.6289989"><ele>1206.3333333333333</ele><time>2026-05-01T09:13:33.407Z</time></trkpt><trkpt lat="44.8916328" lon="6.628897"><ele>1203.6666666666665</ele><time>2026-05-01T09:13:34.406Z</time></trkpt><trkpt lat="44.8914911" lon="6.62879"><ele>1201.0</ele><time>2026-05-01T09:13:35.406Z</time></trkpt><trkpt lat="44.8913504" lon="6.6286763"><ele>1204.3333333333333</ele><time>2026-05-01T09:13:36.406Z</time></trkpt><trkpt lat="44.8912135" lon="6.6285555"><ele>1207.6666666666667</ele><time>2026-05-01T09:13:37.407Z</time></trkpt><trkpt lat="44.891082" lon="6.6284333"><ele>1211.0</ele><time>2026-05-01T09:13:38.406Z</time></trkpt><trkpt lat="44.8909546" lon="6.6283068"><ele>1207.0</ele><time>2026-05-01T09:13:39.406Z</time></trkpt><trkpt lat="44.8908263" lon="6.6281729"><ele>1203.0</ele><time>2026-05-01T09:13:40.406Z</time></trkpt><trkpt lat="44.8906961" lon="6.6280329"><ele>1199.0</ele><time>2026-05-01T09:13:41.406Z</time></trkpt><trkpt lat="44.8905605" lon="6.6278883"><ele>1203.3333333333335</ele><time>2026-05-01T09:13:42.406Z</time></trkpt><trkpt lat="44.8904204" lon="6.6277438"><ele>1207.6666666666667</ele><time>2026-05-01T09:13:43.407Z</time></trkpt><trkpt lat="44.8902771" lon="6.6275992"><ele>1212.0</ele><time>2026-05-01T09:13:44.406Z</time></trkpt><trkpt lat="44.8901349" lon="6.6274555"><ele>1207.3333333333333</ele><time>2026-05-01T09:13:45.407Z</time></trkpt><trkpt lat="44.8899927" lon="6.6273146"><ele>1202.6666666666665</ele><time>2026-05-01T09:13:46.407Z</time></trkpt><trkpt lat="44.889852" lon="6.6271787"><ele>1198.0</ele><time>2026-05-01T09:13:47.407Z</time></trkpt><trkpt lat="44.8897122" lon="6.627055"><ele>1199.0</ele><time>2026-05-01T09:13:48.406Z</time></trkpt><trkpt lat="44.8895764" lon="6.6269491"><ele>1200.0</ele><time>2026-05-01T09:13:49.406Z</time></trkpt><trkpt lat="44.88944" lon="6.6268589"><ele>1201.0</ele><time>2026-05-01T09:13:50.406Z</time></trkpt><trkpt lat="44.8893091" lon="6.6267799"><ele>1202.0</ele><time>2026-05-01T09:13:51.406Z</time></trkpt><trkpt lat="44.8891802" lon="6.6266995"><ele>1202.0</ele><time>2026-05-01T09:13:52.406Z</time></trkpt><trkpt lat="44.8890437" lon="6.6266113"><ele>1202.0</ele><time>2026-05-01T09:13:53.406Z</time></trkpt><trkpt lat="44.8888915" lon="6.6265191"><ele>1202.0</ele><time>2026-05-01T09:13:54.406Z</time></trkpt><trkpt lat="44.8887274" lon="6.6264245"><ele>1202.0</ele><time>2026-05-01T09:13:55.406Z</time></trkpt><trkpt lat="44.8885563" lon="6.6263256"><ele>1202.0</ele><time>2026-05-01T09:13:56.406Z</time></trkpt><trkpt lat="44.8883809" lon="6.6262249"><ele>1202.0</ele><time>2026-05-01T09:13:57.406Z</time></trkpt><trkpt lat="44.888208" lon="6.626131"><ele>1203.3333333333335</ele><time>2026-05-01T09:13:58.406Z</time></trkpt><trkpt lat="44.8880428" lon="6.6260356"><ele>1204.6666666666667</ele><time>2026-05-01T09:13:59.406Z</time></trkpt><trkpt lat="44.8878846" lon="6.625936"><ele>1206.0</ele><time>2026-05-01T09:14:00.407Z</time></trkpt><trkpt lat="44.8877312" lon="6.6258291"><ele>1202.0</ele><time>2026-05-01T09:14:01.406Z</time></trkpt><trkpt lat="44.8875842" lon="6.6257166"><ele>1198.0</ele><time>2026-05-01T09:14:02.406Z</time></trkpt><trkpt lat="44.8874438" lon="6.6255965"><ele>1194.0</ele><time>2026-05-01T09:14:03.408Z</time></trkpt><trkpt lat="44.887306" lon="6.6254716"><ele>1194.0</ele><time>2026-05-01T09:14:04.406Z</time></trkpt><trkpt lat="44.8871689" lon="6.6253386"><ele>1194.0</ele><time>2026-05-01T09:14:05.407Z</time></trkpt><trkpt lat="44.8870341" lon="6.6252045"><ele>1194.0</ele><time>2026-05-01T09:14:06.407Z</time></trkpt><trkpt lat="44.886899" lon="6.6250807"><ele>1194.3333333333333</ele><time>2026-05-01T09:14:07.406Z</time></trkpt><trkpt lat="44.8867632" lon="6.6249619"><ele>1194.6666666666665</ele><time>2026-05-01T09:14:08.406Z</time></trkpt><trkpt lat="44.8866263" lon="6.6248431"><ele>1195.0</ele><time>2026-05-01T09:14:09.407Z</time></trkpt><trkpt lat="44.8864861" lon="6.6247205"><ele>1195.0</ele><time>2026-05-01T09:14:10.406Z</time></trkpt><trkpt lat="44.8863367" lon="6.6245992"><ele>1195.0</ele><time>2026-05-01T09:14:11.407Z</time></trkpt><trkpt lat="44.8861648" lon="6.6244706"><ele>1195.0</ele><time>2026-05-01T09:14:12.406Z</time></trkpt><trkpt lat="44.8859719" lon="6.6243104"><ele>1196.5</ele><time>2026-05-01T09:14:13.406Z</time></trkpt><trkpt lat="44.8857686" lon="6.6241148"><ele>1198.0</ele><time>2026-05-01T09:14:14.406Z</time></trkpt><trkpt lat="44.8855574" lon="6.6239227"><ele>1198.0</ele><time>2026-05-01T09:14:15.407Z</time></trkpt><trkpt lat="44.8853422" lon="6.623741"><ele>1198.0</ele><time>2026-05-01T09:14:16.406Z</time></trkpt><trkpt lat="44.8851313" lon="6.6235656"><ele>1198.5</ele><time>2026-05-01T09:14:17.407Z</time></trkpt><trkpt lat="44.8849289" lon="6.6233933"><ele>1199.0</ele><time>2026-05-01T09:14:18.407Z</time></trkpt><trkpt lat="44.8847292" lon="6.6232323"><ele>1199.0</ele><time>2026-05-01T09:14:19.406Z</time></trkpt><trkpt lat="44.8845231" lon="6.6230779"><ele>1199.0</ele><time>2026-05-01T09:14:20.406Z</time></trkpt><trkpt lat="44.8843105" lon="6.62292"><ele>1198.0</ele><time>2026-05-01T09:14:21.406Z</time></trkpt><trkpt lat="44.8840933" lon="6.6227582"><ele>1197.0</ele><time>2026-05-01T09:14:22.406Z</time></trkpt><trkpt lat="44.883869" lon="6.622595"><ele>1197.0</ele><time>2026-05-01T09:14:23.406Z</time></trkpt><trkpt lat="44.8836396" lon="6.6224279"><ele>1197.0</ele><time>2026-05-01T09:14:24.406Z</time></trkpt><trkpt lat="44.8834047" lon="6.6222567"><ele>1199.5</ele><time>2026-05-01T09:14:25.406Z</time></trkpt><trkpt lat="44.8831651" lon="6.6220813"><ele>1202.0</ele><time>2026-05-01T09:14:26.406Z</time></trkpt><trkpt lat="44.8829274" lon="6.6219078"><ele>1202.0</ele><time>2026-05-01T09:14:27.406Z</time></trkpt><trkpt lat="44.8826986" lon="6.6217446"><ele>1202.0</ele><time>2026-05-01T09:14:28.406Z</time></trkpt><trkpt lat="44.8824754" lon="6.6215906"><ele>1198.0</ele><time>2026-05-01T09:14:29.406Z</time></trkpt><trkpt lat="44.8822648" lon="6.6214504"><ele>1194.0</ele><time>2026-05-01T09:14:30.406Z</time></trkpt><trkpt lat="44.8820771" lon="6.6213311"><ele>1190.0</ele><time>2026-05-01T09:14:31.407Z</time></trkpt><trkpt lat="44.8819153" lon="6.621235"><ele>1190.0</ele><time>2026-05-01T09:14:32.406Z</time></trkpt><trkpt lat="44.8817746" lon="6.621157"><ele>1190.0</ele><time>2026-05-01T09:14:33.406Z</time></trkpt><trkpt lat="44.8816547" lon="6.6210889"><ele>1190.0</ele><time>2026-05-01T09:14:34.406Z</time></trkpt><trkpt lat="44.881553" lon="6.621019"><ele>1190.0</ele><time>2026-05-01T09:14:35.406Z</time></trkpt><trkpt lat="44.8814723" lon="6.6209329"><ele>1189.8</ele><time>2026-05-01T09:14:36.406Z</time></trkpt><trkpt lat="44.8814062" lon="6.6208299"><ele>1189.6</ele><time>2026-05-01T09:14:37.406Z</time></trkpt><trkpt lat="44.8813351" lon="6.6207366"><ele>1189.4</ele><time>2026-05-01T09:14:38.406Z</time></trkpt><trkpt lat="44.8812468" lon="6.6206735"><ele>1189.2</ele><time>2026-05-01T09:14:39.406Z</time></trkpt><trkpt lat="44.8811398" lon="6.6206442"><ele>1189.0</ele><time>2026-05-01T09:14:40.406Z</time></trkpt><trkpt lat="44.8810177" lon="6.62061"><ele>1187.3333333333333</ele><time>2026-05-01T09:14:41.407Z</time></trkpt><trkpt lat="44.8808842" lon="6.6205161"><ele>1185.6666666666667</ele><time>2026-05-01T09:14:42.407Z</time></trkpt><trkpt lat="44.8807419" lon="6.6203842"><ele>1184.0</ele><time>2026-05-01T09:14:43.407Z</time></trkpt><trkpt lat="44.8805849" lon="6.6202274"><ele>1184.0</ele><time>2026-05-01T09:14:44.406Z</time></trkpt><trkpt lat="44.8804052" lon="6.6200563"><ele>1184.0</ele><time>2026-05-01T09:14:45.406Z</time></trkpt><trkpt lat="44.8802086" lon="6.6198685"><ele>1182.5</ele><time>2026-05-01T09:14:46.406Z</time></trkpt><trkpt lat="44.880007" lon="6.6196728"><ele>1181.0</ele><time>2026-05-01T09:14:47.406Z</time></trkpt><trkpt lat="44.8798032" lon="6.6194757"><ele>1181.0</ele><time>2026-05-01T09:14:48.406Z</time></trkpt><trkpt lat="44.8795919" lon="6.6192746"><ele>1181.0</ele><time>2026-05-01T09:14:49.407Z</time></trkpt><trkpt lat="44.8793731" lon="6.6190785"><ele>1181.0</ele><time>2026-05-01T09:14:50.407Z</time></trkpt><trkpt lat="44.8791453" lon="6.6188948"><ele>1181.0</ele><time>2026-05-01T09:14:51.406Z</time></trkpt><trkpt lat="44.878909" lon="6.6187236"><ele>1181.0</ele><time>2026-05-01T09:14:52.406Z</time></trkpt><trkpt lat="44.8786675" lon="6.6185637"><ele>1181.0</ele><time>2026-05-01T09:14:53.406Z</time></trkpt><trkpt lat="44.8784247" lon="6.6184172"><ele>1181.0</ele><time>2026-05-01T09:14:54.408Z</time></trkpt><trkpt lat="44.8781804" lon="6.6182846"><ele>1181.0</ele><time>2026-05-01T09:14:55.406Z</time></trkpt><trkpt lat="44.8779353" lon="6.6181687"><ele>1181.0</ele><time>2026-05-01T09:14:56.406Z</time></trkpt><trkpt lat="44.8776947" lon="6.6180732"><ele>1181.0</ele><time>2026-05-01T09:14:57.406Z</time></trkpt><trkpt lat="44.8774596" lon="6.6179948"><ele>1180.0</ele><time>2026-05-01T09:14:58.406Z</time></trkpt><trkpt lat="44.8772342" lon="6.6179218"><ele>1179.0</ele><time>2026-05-01T09:14:59.407Z</time></trkpt><trkpt lat="44.8770153" lon="6.6178475"><ele>1179.6666666666667</ele><time>2026-05-01T09:15:00.406Z</time></trkpt><trkpt lat="44.876804" lon="6.6177764"><ele>1180.3333333333335</ele><time>2026-05-01T09:15:01.406Z</time></trkpt><trkpt lat="44.8765987" lon="6.6177109"><ele>1181.0</ele><time>2026-05-01T09:15:02.406Z</time></trkpt><trkpt lat="44.8763945" lon="6.6176461"><ele>1181.0</ele><time>2026-05-01T09:15:03.408Z</time></trkpt><trkpt lat="44.876188" lon="6.617575"><ele>1181.0</ele><time>2026-05-01T09:15:04.407Z</time></trkpt><trkpt lat="44.875983" lon="6.6174867"><ele>1181.0</ele><time>2026-05-01T09:15:05.406Z</time></trkpt><trkpt lat="44.8757835" lon="6.6173696"><ele>1181.0</ele><time>2026-05-01T09:15:06.406Z</time></trkpt><trkpt lat="44.875591" lon="6.6172433"><ele>1181.0</ele><time>2026-05-01T09:15:07.407Z</time></trkpt><trkpt lat="44.8754058" lon="6.6171105"><ele>1181.0</ele><time>2026-05-01T09:15:08.406Z</time></trkpt><trkpt lat="44.875231" lon="6.6169645"><ele>1179.3333333333335</ele><time>2026-05-01T09:15:09.406Z</time></trkpt><trkpt lat="44.8750651" lon="6.6168116"><ele>1177.6666666666667</ele><time>2026-05-01T09:15:10.406Z</time></trkpt><trkpt lat="44.8749114" lon="6.6166565"><ele>1176.0</ele><time>2026-05-01T09:15:11.407Z</time></trkpt><trkpt lat="44.8747705" lon="6.6164936"><ele>1176.0</ele><time>2026-05-01T09:15:12.406Z</time></trkpt><trkpt lat="44.8746397" lon="6.6163244"><ele>1176.0</ele><time>2026-05-01T09:15:13.406Z</time></trkpt><trkpt lat="44.8745145" lon="6.6161541"><ele>1176.0</ele><time>2026-05-01T09:15:14.406Z</time></trkpt><trkpt lat="44.8743994" lon="6.6159799"><ele>1175.6666666666667</ele><time>2026-05-01T09:15:15.406Z</time></trkpt><trkpt lat="44.8742894" lon="6.6157967"><ele>1175.3333333333335</ele><time>2026-05-01T09:15:16.406Z</time></trkpt><trkpt lat="44.8741825" lon="6.6156047"><ele>1175.0</ele><time>2026-05-01T09:15:17.406Z</time></trkpt><trkpt lat="44.87408" lon="6.6154031"><ele>1175.3333333333335</ele><time>2026-05-01T09:15:18.406Z</time></trkpt><trkpt lat="44.873984" lon="6.6151909"><ele>1175.6666666666667</ele><time>2026-05-01T09:15:19.406Z</time></trkpt><trkpt lat="44.873893" lon="6.6149669"><ele>1176.0</ele><time>2026-05-01T09:15:20.407Z</time></trkpt><trkpt lat="44.8738113" lon="6.6147288"><ele>1175.6666666666667</ele><time>2026-05-01T09:15:21.406Z</time></trkpt><trkpt lat="44.8737347" lon="6.6144862"><ele>1175.3333333333335</ele><time>2026-05-01T09:15:22.406Z</time></trkpt><trkpt lat="44.873658" lon="6.614239"><ele>1175.0</ele><time>2026-05-01T09:15:23.406Z</time></trkpt><trkpt lat="44.8735815" lon="6.6139952"><ele>1175.0</ele><time>2026-05-01T09:15:24.406Z</time></trkpt><trkpt lat="44.8735068" lon="6.6137563"><ele>1175.0</ele><time>2026-05-01T09:15:25.407Z</time></trkpt><trkpt lat="44.8734328" lon="6.6135195"><ele>1175.0</ele><time>2026-05-01T09:15:26.406Z</time></trkpt><trkpt lat="44.8733608" lon="6.6132816"><ele>1174.6666666666667</ele><time>2026-05-01T09:15:27.406Z</time></trkpt><trkpt lat="44.8732863" lon="6.6130403"><ele>1174.3333333333333</ele><time>2026-05-01T09:15:28.408Z</time></trkpt><trkpt lat="44.8732119" lon="6.612799"><ele>1174.0</ele><time>2026-05-01T09:15:29.407Z</time></trkpt><trkpt lat="44.8731388" lon="6.6125565"><ele>1174.0</ele><time>2026-05-01T09:15:30.406Z</time></trkpt><trkpt lat="44.8730635" lon="6.6123096"><ele>1174.0</ele><time>2026-05-01T09:15:31.407Z</time></trkpt><trkpt lat="44.8729852" lon="6.6120595"><ele>1174.0</ele><time>2026-05-01T09:15:32.406Z</time></trkpt><trkpt lat="44.8729061" lon="6.6118043"><ele>1173.6666666666665</ele><time>2026-05-01T09:15:33.406Z</time></trkpt><trkpt lat="44.8728279" lon="6.6115464"><ele>1173.3333333333333</ele><time>2026-05-01T09:15:34.406Z</time></trkpt><trkpt lat="44.8727502" lon="6.6112837"><ele>1173.0</ele><time>2026-05-01T09:15:35.408Z</time></trkpt><trkpt lat="44.8726746" lon="6.611023"><ele>1172.6666666666667</ele><time>2026-05-01T09:15:36.406Z</time></trkpt><trkpt lat="44.8726027" lon="6.610772"><ele>1172.3333333333335</ele><time>2026-05-01T09:15:37.406Z</time></trkpt><trkpt lat="44.8725333" lon="6.610529"><ele>1172.0</ele><time>2026-05-01T09:15:38.406Z</time></trkpt><trkpt lat="44.8724645" lon="6.6102917"><ele>1172.0</ele><time>2026-05-01T09:15:39.406Z</time></trkpt><trkpt lat="44.8723958" lon="6.6100557"><ele>1172.0</ele><time>2026-05-01T09:15:40.406Z</time></trkpt><trkpt lat="44.8723266" lon="6.6098181"><ele>1172.0</ele><time>2026-05-01T09:15:41.406Z</time></trkpt><trkpt lat="44.8722573" lon="6.6095787"><ele>1172.3333333333335</ele><time>2026-05-01T09:15:42.406Z</time></trkpt><trkpt lat="44.8721868" lon="6.6093372"><ele>1172.6666666666667</ele><time>2026-05-01T09:15:43.406Z</time></trkpt><trkpt lat="44.8721161" lon="6.6090934"><ele>1173.0</ele><time>2026-05-01T09:15:44.406Z</time></trkpt><trkpt lat="44.8720438" lon="6.6088543"><ele>1172.3333333333333</ele><time>2026-05-01T09:15:45.406Z</time></trkpt><trkpt lat="44.8719686" lon="6.6086195"><ele>1171.6666666666665</ele><time>2026-05-01T09:15:46.406Z</time></trkpt><trkpt lat="44.8718901" lon="6.6083794"><ele>1171.0</ele><time>2026-05-01T09:15:47.406Z</time></trkpt><trkpt lat="44.8718053" lon="6.6081377"><ele>1171.3333333333333</ele><time>2026-05-01T09:15:48.407Z</time></trkpt><trkpt lat="44.8717151" lon="6.6078941"><ele>1171.6666666666667</ele><time>2026-05-01T09:15:49.406Z</time></trkpt><trkpt lat="44.8716162" lon="6.6076515"><ele>1172.0</ele><time>2026-05-01T09:15:50.407Z</time></trkpt><trkpt lat="44.8715095" lon="6.6074095"><ele>1171.0</ele><time>2026-05-01T09:15:51.406Z</time></trkpt><trkpt lat="44.8713951" lon="6.6071682"><ele>1170.0</ele><time>2026-05-01T09:15:52.407Z</time></trkpt><trkpt lat="44.8712766" lon="6.6069264"><ele>1169.0</ele><time>2026-05-01T09:15:53.406Z</time></trkpt><trkpt lat="44.8711561" lon="6.6066906"><ele>1169.3333333333335</ele><time>2026-05-01T09:15:54.407Z</time></trkpt><trkpt lat="44.8710372" lon="6.6064679"><ele>1169.6666666666667</ele><time>2026-05-01T09:15:55.406Z</time></trkpt><trkpt lat="44.8709182" lon="6.6062561"><ele>1170.0</ele><time>2026-05-01T09:15:56.406Z</time></trkpt><trkpt lat="44.8708008" lon="6.6060514"><ele>1170.0</ele><time>2026-05-01T09:15:57.406Z</time></trkpt><trkpt lat="44.8706867" lon="6.6058475"><ele>1170.0</ele><time>2026-05-01T09:15:58.406Z</time></trkpt><trkpt lat="44.870575" lon="6.6056445"><ele>1170.0</ele><time>2026-05-01T09:15:59.406Z</time></trkpt><trkpt lat="44.8704641" lon="6.6054409"><ele>1170.3333333333333</ele><time>2026-05-01T09:16:00.406Z</time></trkpt><trkpt lat="44.8703532" lon="6.6052366"><ele>1170.6666666666665</ele><time>2026-05-01T09:16:01.406Z</time></trkpt><trkpt lat="44.8702415" lon="6.6050303"><ele>1171.0</ele><time>2026-05-01T09:16:02.407Z</time></trkpt><trkpt lat="44.8701315" lon="6.6048216"><ele>1170.3333333333333</ele><time>2026-05-01T09:16:03.406Z</time></trkpt><trkpt lat="44.8700246" lon="6.604613"><ele>1169.6666666666667</ele><time>2026-05-01T09:16:04.407Z</time></trkpt><trkpt lat="44.869918" lon="6.6044093"><ele>1169.0</ele><time>2026-05-01T09:16:05.406Z</time></trkpt><trkpt lat="44.869813" lon="6.6042058"><ele>1170.3333333333335</ele><time>2026-05-01T09:16:06.406Z</time></trkpt><trkpt lat="44.8697109" lon="6.6040044"><ele>1171.6666666666667</ele><time>2026-05-01T09:16:07.406Z</time></trkpt><trkpt lat="44.8696116" lon="6.6038089"><ele>1173.0</ele><time>2026-05-01T09:16:08.406Z</time></trkpt><trkpt lat="44.8695142" lon="6.6036207"><ele>1174.3333333333333</ele><time>2026-05-01T09:16:09.406Z</time></trkpt><trkpt lat="44.8694196" lon="6.6034424"><ele>1175.6666666666665</ele><time>2026-05-01T09:16:10.406Z</time></trkpt><trkpt lat="44.8693268" lon="6.6032737"><ele>1177.0</ele><time>2026-05-01T09:16:11.406Z</time></trkpt><trkpt lat="44.8692328" lon="6.6031109"><ele>1176.3333333333333</ele><time>2026-05-01T09:16:12.406Z</time></trkpt><trkpt lat="44.869132" lon="6.6029484"><ele>1175.6666666666667</ele><time>2026-05-01T09:16:13.406Z</time></trkpt><trkpt lat="44.8690251" lon="6.6027871"><ele>1175.0</ele><time>2026-05-01T09:16:14.406Z</time></trkpt><trkpt lat="44.8689102" lon="6.6026255"><ele>1175.0</ele><time>2026-05-01T09:16:15.406Z</time></trkpt><trkpt lat="44.8687862" lon="6.60246"><ele>1175.0</ele><time>2026-05-01T09:16:16.406Z</time></trkpt><trkpt lat="44.868654" lon="6.6022934"><ele>1175.0</ele><time>2026-05-01T09:16:17.406Z</time></trkpt><trkpt lat="44.8685142" lon="6.6021324"><ele>1175.3333333333335</ele><time>2026-05-01T09:16:18.406Z</time></trkpt><trkpt lat="44.8683713" lon="6.6019752"><ele>1175.6666666666667</ele><time>2026-05-01T09:16:19.406Z</time></trkpt><trkpt lat="44.8682241" lon="6.6018256"><ele>1176.0</ele><time>2026-05-01T09:16:20.407Z</time></trkpt><trkpt lat="44.868072" lon="6.6016834"><ele>1176.0</ele><time>2026-05-01T09:16:21.406Z</time></trkpt><trkpt lat="44.8679246" lon="6.601553"><ele>1176.0</ele><time>2026-05-01T09:16:22.406Z</time></trkpt><trkpt lat="44.8677811" lon="6.6014313"><ele>1176.0</ele><time>2026-05-01T09:16:23.407Z</time></trkpt><trkpt lat="44.8676423" lon="6.6013188"><ele>1175.6666666666667</ele><time>2026-05-01T09:16:24.406Z</time></trkpt><trkpt lat="44.8675054" lon="6.6012112"><ele>1175.3333333333335</ele><time>2026-05-01T09:16:25.406Z</time></trkpt><trkpt lat="44.8673727" lon="6.6011123"><ele>1175.0</ele><time>2026-05-01T09:16:26.406Z</time></trkpt><trkpt lat="44.8672423" lon="6.6010161"><ele>1175.0</ele><time>2026-05-01T09:16:27.406Z</time></trkpt><trkpt lat="44.867107" lon="6.600919"><ele>1175.0</ele><time>2026-05-01T09:16:28.406Z</time></trkpt><trkpt lat="44.8669654" lon="6.6008213"><ele>1175.0</ele><time>2026-05-01T09:16:29.407Z</time></trkpt><trkpt lat="44.8668207" lon="6.6007202"><ele>1174.3333333333335</ele><time>2026-05-01T09:16:30.407Z</time></trkpt><trkpt lat="44.8666727" lon="6.6006167"><ele>1173.6666666666667</ele><time>2026-05-01T09:16:31.406Z</time></trkpt><trkpt lat="44.866523" lon="6.6005103"><ele>1173.0</ele><time>2026-05-01T09:16:32.406Z</time></trkpt><trkpt lat="44.8663742" lon="6.600402"><ele>1174.3333333333333</ele><time>2026-05-01T09:16:33.407Z</time></trkpt><trkpt lat="44.8662243" lon="6.6002914"><ele>1175.6666666666665</ele><time>2026-05-01T09:16:34.406Z</time></trkpt><trkpt lat="44.866073" lon="6.60018"><ele>1177.0</ele><time>2026-05-01T09:16:35.407Z</time></trkpt><trkpt lat="44.8659225" lon="6.6000701"><ele>1177.0</ele><time>2026-05-01T09:16:36.406Z</time></trkpt><trkpt lat="44.8657767" lon="6.5999577"><ele>1177.0</ele><time>2026-05-01T09:16:37.406Z</time></trkpt><trkpt lat="44.865633" lon="6.5998351"><ele>1177.0</ele><time>2026-05-01T09:16:38.406Z</time></trkpt><trkpt lat="44.8654928" lon="6.5997028"><ele>1177.0</ele><time>2026-05-01T09:16:39.406Z</time></trkpt><trkpt lat="44.865356" lon="6.5995631"><ele>1177.0</ele><time>2026-05-01T09:16:40.406Z</time></trkpt><trkpt lat="44.8652263" lon="6.5994243"><ele>1177.0</ele><time>2026-05-01T09:16:41.406Z</time></trkpt><trkpt lat="44.8651031" lon="6.5992866"><ele>1176.75</ele><time>2026-05-01T09:16:42.406Z</time></trkpt><trkpt lat="44.8649904" lon="6.5991495"><ele>1176.5</ele><time>2026-05-01T09:16:43.406Z</time></trkpt><trkpt lat="44.8648882" lon="6.5990142"><ele>1176.25</ele><time>2026-05-01T09:16:44.406Z</time></trkpt><trkpt lat="44.8647912" lon="6.5988786"><ele>1176.0</ele><time>2026-05-01T09:16:45.406Z</time></trkpt><trkpt lat="44.8646966" lon="6.5987386"><ele>1177.25</ele><time>2026-05-01T09:16:46.407Z</time></trkpt><trkpt lat="44.8646046" lon="6.5985913"><ele>1178.5</ele><time>2026-05-01T09:16:47.406Z</time></trkpt><trkpt lat="44.8645145" lon="6.5984376"><ele>1179.75</ele><time>2026-05-01T09:16:48.406Z</time></trkpt><trkpt lat="44.8644242" lon="6.5982721"><ele>1181.0</ele><time>2026-05-01T09:16:49.406Z</time></trkpt><trkpt lat="44.8643333" lon="6.5981031"><ele>1179.75</ele><time>2026-05-01T09:16:50.407Z</time></trkpt><trkpt lat="44.8642458" lon="6.5979321"><ele>1178.5</ele><time>2026-05-01T09:16:51.406Z</time></trkpt><trkpt lat="44.864163" lon="6.5977586"><ele>1177.25</ele><time>2026-05-01T09:16:52.406Z</time></trkpt><trkpt lat="44.8640833" lon="6.5975894"><ele>1176.0</ele><time>2026-05-01T09:16:53.406Z</time></trkpt><trkpt lat="44.8640075" lon="6.597422"><ele>1176.0</ele><time>2026-05-01T09:16:54.407Z</time></trkpt><trkpt lat="44.8639335" lon="6.5972593"><ele>1176.0</ele><time>2026-05-01T09:16:55.407Z</time></trkpt><trkpt lat="44.8638562" lon="6.5970961"><ele>1176.0</ele><time>2026-05-01T09:16:56.406Z</time></trkpt><trkpt lat="44.863771" lon="6.5969216"><ele>1176.0</ele><time>2026-05-01T09:16:57.406Z</time></trkpt><trkpt lat="44.8636854" lon="6.5967554"><ele>1176.5</ele><time>2026-05-01T09:16:58.406Z</time></trkpt><trkpt lat="44.8636026" lon="6.5965929"><ele>1177.0</ele><time>2026-05-01T09:16:59.406Z</time></trkpt><trkpt lat="44.8635239" lon="6.5964378"><ele>1177.5</ele><time>2026-05-01T09:17:00.406Z</time></trkpt><trkpt lat="44.8634519" lon="6.5962986"><ele>1178.0</ele><time>2026-05-01T09:17:01.406Z</time></trkpt><trkpt lat="44.8633831" lon="6.5961667"><ele>1176.25</ele><time>2026-05-01T09:17:02.406Z</time></trkpt><trkpt lat="44.8633165" lon="6.5960378"><ele>1174.5</ele><time>2026-05-01T09:17:03.407Z</time></trkpt><trkpt lat="44.863251" lon="6.595909"><ele>1172.75</ele><time>2026-05-01T09:17:04.406Z</time></trkpt><trkpt lat="44.8631845" lon="6.5957803"><ele>1171.0</ele><time>2026-05-01T09:17:05.407Z</time></trkpt><trkpt lat="44.8631173" lon="6.5956536"><ele>1171.0</ele><time>2026-05-01T09:17:06.406Z</time></trkpt><trkpt lat="44.8630487" lon="6.5955268"><ele>1171.0</ele><time>2026-05-01T09:17:07.406Z</time></trkpt><trkpt lat="44.8629796" lon="6.5953989"><ele>1171.0</ele><time>2026-05-01T09:17:08.406Z</time></trkpt><trkpt lat="44.8629074" lon="6.5952645"><ele>1171.0</ele><time>2026-05-01T09:17:09.408Z</time></trkpt><trkpt lat="44.8628301" lon="6.5951266"><ele>1171.5</ele><time>2026-05-01T09:17:10.406Z</time></trkpt><trkpt lat="44.8627519" lon="6.5949832"><ele>1172.0</ele><time>2026-05-01T09:17:11.406Z</time></trkpt><trkpt lat="44.8626691" lon="6.5948252"><ele>1172.5</ele><time>2026-05-01T09:17:12.406Z</time></trkpt><trkpt lat="44.8625831" lon="6.5946549"><ele>1173.0</ele><time>2026-05-01T09:17:13.406Z</time></trkpt><trkpt lat="44.8624904" lon="6.5944749"><ele>1170.0</ele><time>2026-05-01T09:17:14.406Z</time></trkpt><trkpt lat="44.8623911" lon="6.5942835"><ele>1167.0</ele><time>2026-05-01T09:17:15.406Z</time></trkpt><trkpt lat="44.8622863" lon="6.5940848"><ele>1164.0</ele><time>2026-05-01T09:17:16.406Z</time></trkpt><trkpt lat="44.8621795" lon="6.5938765"><ele>1164.0</ele><time>2026-05-01T09:17:17.406Z</time></trkpt><trkpt lat="44.8620778" lon="6.5936734"><ele>1164.0</ele><time>2026-05-01T09:17:18.406Z</time></trkpt><trkpt lat="44.8619743" lon="6.5934716"><ele>1164.0</ele><time>2026-05-01T09:17:19.406Z</time></trkpt><trkpt lat="44.8618696" lon="6.5932656"><ele>1162.3333333333333</ele><time>2026-05-01T09:17:20.407Z</time></trkpt><trkpt lat="44.8617635" lon="6.5930588"><ele>1160.6666666666665</ele><time>2026-05-01T09:17:21.407Z</time></trkpt><trkpt lat="44.8616538" lon="6.5928489"><ele>1159.0</ele><time>2026-05-01T09:17:22.406Z</time></trkpt><trkpt lat="44.8615454" lon="6.5926351"><ele>1159.0</ele><time>2026-05-01T09:17:23.406Z</time></trkpt><trkpt lat="44.8614345" lon="6.5924196"><ele>1159.0</ele><time>2026-05-01T09:17:24.406Z</time></trkpt><trkpt lat="44.8613246" lon="6.5922012"><ele>1159.0</ele><time>2026-05-01T09:17:25.407Z</time></trkpt><trkpt lat="44.8612125" lon="6.5919785"><ele>1158.0</ele><time>2026-05-01T09:17:26.406Z</time></trkpt><trkpt lat="44.8611006" lon="6.5917507"><ele>1157.0</ele><time>2026-05-01T09:17:27.406Z</time></trkpt><trkpt lat="44.860988" lon="6.5915255"><ele>1156.0</ele><time>2026-05-01T09:17:28.406Z</time></trkpt><trkpt lat="44.860873" lon="6.5913028"><ele>1155.6666666666665</ele><time>2026-05-01T09:17:29.406Z</time></trkpt><trkpt lat="44.8607584" lon="6.5910834"><ele>1155.3333333333333</ele><time>2026-05-01T09:17:30.406Z</time></trkpt><trkpt lat="44.8606419" lon="6.5908711"><ele>1155.0</ele><time>2026-05-01T09:17:31.406Z</time></trkpt><trkpt lat="44.8605175" lon="6.5906673"><ele>1155.0</ele><time>2026-05-01T09:17:32.406Z</time></trkpt><trkpt lat="44.8603826" lon="6.5904776"><ele>1155.0</ele><time>2026-05-01T09:17:33.406Z</time></trkpt><trkpt lat="44.8602398" lon="6.5902994"><ele>1155.0</ele><time>2026-05-01T09:17:34.407Z</time></trkpt><trkpt lat="44.860092" lon="6.5901295"><ele>1153.3333333333333</ele><time>2026-05-01T09:17:35.406Z</time></trkpt><trkpt lat="44.8599473" lon="6.5899655"><ele>1151.6666666666665</ele><time>2026-05-01T09:17:36.406Z</time></trkpt><trkpt lat="44.8598067" lon="6.5898074"><ele>1150.0</ele><time>2026-05-01T09:17:37.407Z</time></trkpt><trkpt lat="44.8596696" lon="6.5896566"><ele>1150.0</ele><time>2026-05-01T09:17:38.406Z</time></trkpt><trkpt lat="44.8595355" lon="6.5895118"><ele>1150.0</ele><time>2026-05-01T09:17:39.407Z</time></trkpt><trkpt lat="44.8594057" lon="6.5893726"><ele>1150.0</ele><time>2026-05-01T09:17:40.407Z</time></trkpt><trkpt lat="44.8592793" lon="6.5892376"><ele>1149.6666666666665</ele><time>2026-05-01T09:17:41.406Z</time></trkpt><trkpt lat="44.8591581" lon="6.5891054"><ele>1149.3333333333333</ele><time>2026-05-01T09:17:42.406Z</time></trkpt><trkpt lat="44.8590396" lon="6.5889757"><ele>1149.0</ele><time>2026-05-01T09:17:43.406Z</time></trkpt><trkpt lat="44.8589184" lon="6.5888433"><ele>1149.0</ele><time>2026-05-01T09:17:44.407Z</time></trkpt><trkpt lat="44.8587956" lon="6.5887098"><ele>1149.0</ele><time>2026-05-01T09:17:45.406Z</time></trkpt><trkpt lat="44.8586704" lon="6.5885746"><ele>1149.0</ele><time>2026-05-01T09:17:46.406Z</time></trkpt><trkpt lat="44.8585432" lon="6.588436"><ele>1150.3333333333333</ele><time>2026-05-01T09:17:47.408Z</time></trkpt><trkpt lat="44.8584136" lon="6.5882926"><ele>1151.6666666666665</ele><time>2026-05-01T09:17:48.406Z</time></trkpt><trkpt lat="44.8582784" lon="6.5881441"><ele>1153.0</ele><time>2026-05-01T09:17:49.406Z</time></trkpt><trkpt lat="44.8581375" lon="6.5879906"><ele>1152.6666666666665</ele><time>2026-05-01T09:17:50.406Z</time></trkpt><trkpt lat="44.8579938" lon="6.5878331"><ele>1152.3333333333333</ele><time>2026-05-01T09:17:51.406Z</time></trkpt><trkpt lat="44.8578492" lon="6.5876759"><ele>1152.0</ele><time>2026-05-01T09:17:52.406Z</time></trkpt><trkpt lat="44.8577055" lon="6.5875221"><ele>1152.3333333333333</ele><time>2026-05-01T09:17:53.406Z</time></trkpt><trkpt lat="44.8575659" lon="6.5873703"><ele>1152.6666666666665</ele><time>2026-05-01T09:17:54.406Z</time></trkpt><trkpt lat="44.8574309" lon="6.587223"><ele>1153.0</ele><time>2026-05-01T09:17:55.406Z</time></trkpt><trkpt lat="44.857299" lon="6.5870827"><ele>1154.0</ele><time>2026-05-01T09:17:56.406Z</time></trkpt><trkpt lat="44.857171" lon="6.5869465"><ele>1155.0</ele><time>2026-05-01T09:17:57.407Z</time></trkpt><trkpt lat="44.8570457" lon="6.5868159"><ele>1156.0</ele><time>2026-05-01T09:17:58.406Z</time></trkpt><trkpt lat="44.8569209" lon="6.5866874"><ele>1156.0</ele><time>2026-05-01T09:17:59.406Z</time></trkpt><trkpt lat="44.8567959" lon="6.5865549"><ele>1156.0</ele><time>2026-05-01T09:18:00.407Z</time></trkpt><trkpt lat="44.8566676" lon="6.586412"><ele>1156.0</ele><time>2026-05-01T09:18:01.406Z</time></trkpt><trkpt lat="44.8565296" lon="6.5862587"><ele>1159.0</ele><time>2026-05-01T09:18:02.406Z</time></trkpt><trkpt lat="44.8563837" lon="6.5860997"><ele>1162.0</ele><time>2026-05-01T09:18:03.406Z</time></trkpt><trkpt lat="44.856235" lon="6.5859376"><ele>1165.0</ele><time>2026-05-01T09:18:04.406Z</time></trkpt><trkpt lat="44.8560825" lon="6.5857745"><ele>1165.6666666666665</ele><time>2026-05-01T09:18:05.407Z</time></trkpt><trkpt lat="44.8559253" lon="6.5856076"><ele>1166.3333333333333</ele><time>2026-05-01T09:18:06.407Z</time></trkpt><trkpt lat="44.8557635" lon="6.5854361"><ele>1167.0</ele><time>2026-05-01T09:18:07.406Z</time></trkpt><trkpt lat="44.8556053" lon="6.5852681"><ele>1167.0</ele><time>2026-05-01T09:18:08.406Z</time></trkpt><trkpt lat="44.8554534" lon="6.5851081"><ele>1167.0</ele><time>2026-05-01T09:18:09.407Z</time></trkpt><trkpt lat="44.8553064" lon="6.5849539"><ele>1167.0</ele><time>2026-05-01T09:18:10.406Z</time></trkpt><trkpt lat="44.855164" lon="6.5847998"><ele>1167.6666666666667</ele><time>2026-05-01T09:18:11.406Z</time></trkpt><trkpt lat="44.8550262" lon="6.5846495"><ele>1168.3333333333335</ele><time>2026-05-01T09:18:12.406Z</time></trkpt><trkpt lat="44.8548967" lon="6.5845131"><ele>1169.0</ele><time>2026-05-01T09:18:13.406Z</time></trkpt><trkpt lat="44.8547761" lon="6.5843892"><ele>1169.0</ele><time>2026-05-01T09:18:14.406Z</time></trkpt><trkpt lat="44.8546725" lon="6.5842884"><ele>1169.0</ele><time>2026-05-01T09:18:15.406Z</time></trkpt><trkpt lat="44.8545764" lon="6.5841973"><ele>1169.0</ele><time>2026-05-01T09:18:16.406Z</time></trkpt><trkpt lat="44.8544846" lon="6.5841079"><ele>1169.0</ele><time>2026-05-01T09:18:17.406Z</time></trkpt><trkpt lat="44.8544062" lon="6.5840199"><ele>1169.0</ele><time>2026-05-01T09:18:18.406Z</time></trkpt><trkpt lat="44.8543469" lon="6.583948"><ele>1169.0</ele><time>2026-05-01T09:18:19.406Z</time></trkpt><trkpt lat="44.8542911" lon="6.5838803"><ele>1169.0</ele><time>2026-05-01T09:18:20.406Z</time></trkpt><trkpt lat="44.8542344" lon="6.583811"><ele>1169.0</ele><time>2026-05-01T09:18:21.406Z</time></trkpt><trkpt lat="44.8541755" lon="6.5837423"><ele>1169.0</ele><time>2026-05-01T09:18:22.406Z</time></trkpt><trkpt lat="44.8541126" lon="6.5836725"><ele>1169.0</ele><time>2026-05-01T09:18:23.407Z</time></trkpt><trkpt lat="44.8540456" lon="6.5835991"><ele>1169.6000000000001</ele><time>2026-05-01T09:18:24.406Z</time></trkpt><trkpt lat="44.8539699" lon="6.5835164"><ele>1170.2</ele><time>2026-05-01T09:18:25.406Z</time></trkpt><trkpt lat="44.8538931" lon="6.5834308"><ele>1170.8000000000002</ele><time>2026-05-01T09:18:26.408Z</time></trkpt><trkpt lat="44.8538127" lon="6.5833453"><ele>1171.4</ele><time>2026-05-01T09:18:27.406Z</time></trkpt><trkpt lat="44.8537276" lon="6.5832556"><ele>1172.0</ele><time>2026-05-01T09:18:28.406Z</time></trkpt><trkpt lat="44.8536345" lon="6.5831563"><ele>1172.0</ele><time>2026-05-01T09:18:29.406Z</time></trkpt><trkpt lat="44.8535371" lon="6.583055"><ele>1172.0</ele><time>2026-05-01T09:18:30.406Z</time></trkpt><trkpt lat="44.8534407" lon="6.5829532"><ele>1172.0</ele><time>2026-05-01T09:18:31.407Z</time></trkpt><trkpt lat="44.8533448" lon="6.5828531"><ele>1172.0</ele><time>2026-05-01T09:18:32.406Z</time></trkpt><trkpt lat="44.8532457" lon="6.582754"><ele>1171.5</ele><time>2026-05-01T09:18:33.406Z</time></trkpt><trkpt lat="44.8531452" lon="6.5826621"><ele>1171.0</ele><time>2026-05-01T09:18:34.406Z</time></trkpt><trkpt lat="44.8530446" lon="6.5825758"><ele>1170.5</ele><time>2026-05-01T09:18:35.406Z</time></trkpt><trkpt lat="44.8529467" lon="6.5824972"><ele>1170.0</ele><time>2026-05-01T09:18:36.407Z</time></trkpt><trkpt lat="44.8528512" lon="6.5824251"><ele>1170.0</ele><time>2026-05-01T09:18:37.406Z</time></trkpt><trkpt lat="44.85276" lon="6.5823644"><ele>1170.0</ele><time>2026-05-01T09:18:38.406Z</time></trkpt><trkpt lat="44.8526696" lon="6.5823067"><ele>1170.0</ele><time>2026-05-01T09:18:39.406Z</time></trkpt><trkpt lat="44.8525805" lon="6.5822531"><ele>1170.0</ele><time>2026-05-01T09:18:40.406Z</time></trkpt><trkpt lat="44.8524865" lon="6.5821972"><ele>1170.0</ele><time>2026-05-01T09:18:41.406Z</time></trkpt><trkpt lat="44.8523892" lon="6.5821417"><ele>1169.8</ele><time>2026-05-01T09:18:42.406Z</time></trkpt><trkpt lat="44.8522893" lon="6.5820946"><ele>1169.6</ele><time>2026-05-01T09:18:43.406Z</time></trkpt><trkpt lat="44.8521885" lon="6.5820493"><ele>1169.4</ele><time>2026-05-01T09:18:44.406Z</time></trkpt><trkpt lat="44.8520776" lon="6.5820056"><ele>1169.2</ele><time>2026-05-01T09:18:45.406Z</time></trkpt><trkpt lat="44.8519584" lon="6.5819707"><ele>1169.0</ele><time>2026-05-01T09:18:46.406Z</time></trkpt><trkpt lat="44.8518268" lon="6.5819606"><ele>1165.3333333333335</ele><time>2026-05-01T09:18:47.406Z</time></trkpt><trkpt lat="44.851679" lon="6.5819783"><ele>1161.6666666666667</ele><time>2026-05-01T09:18:48.406Z</time></trkpt><trkpt lat="44.8515095" lon="6.5820138"><ele>1158.0</ele><time>2026-05-01T09:18:49.406Z</time></trkpt><trkpt lat="44.8513224" lon="6.5820729"><ele>1155.0</ele><time>2026-05-01T09:18:50.407Z</time></trkpt><trkpt lat="44.8511231" lon="6.5821546"><ele>1152.0</ele><time>2026-05-01T09:18:51.406Z</time></trkpt><trkpt lat="44.8509106" lon="6.5822491"><ele>1149.0</ele><time>2026-05-01T09:18:52.406Z</time></trkpt><trkpt lat="44.8507052" lon="6.5823436"><ele>1148.0</ele><time>2026-05-01T09:18:53.407Z</time></trkpt><trkpt lat="44.8504979" lon="6.5824329"><ele>1147.0</ele><time>2026-05-01T09:18:54.406Z</time></trkpt><trkpt lat="44.8502926" lon="6.5825035"><ele>1146.0</ele><time>2026-05-01T09:18:55.406Z</time></trkpt><trkpt lat="44.850087" lon="6.5825601"><ele>1149.0</ele><time>2026-05-01T09:18:56.407Z</time></trkpt><trkpt lat="44.8498818" lon="6.5826062"><ele>1152.0</ele><time>2026-05-01T09:18:57.406Z</time></trkpt><trkpt lat="44.8496811" lon="6.5826424"><ele>1155.0</ele><time>2026-05-01T09:18:58.406Z</time></trkpt><trkpt lat="44.8494838" lon="6.5826766"><ele>1154.0</ele><time>2026-05-01T09:18:59.406Z</time></trkpt><trkpt lat="44.8492906" lon="6.5827137"><ele>1153.0</ele><time>2026-05-01T09:19:00.406Z</time></trkpt><trkpt lat="44.8491006" lon="6.5827489"><ele>1152.0</ele><time>2026-05-01T09:19:01.406Z</time></trkpt><trkpt lat="44.8489147" lon="6.5827812"><ele>1152.0</ele><time>2026-05-01T09:19:02.406Z</time></trkpt><trkpt lat="44.8487316" lon="6.5828156"><ele>1152.0</ele><time>2026-05-01T09:19:03.406Z</time></trkpt><trkpt lat="44.8485472" lon="6.5828557"><ele>1152.0</ele><time>2026-05-01T09:19:04.406Z</time></trkpt><trkpt lat="44.8483593" lon="6.5828962"><ele>1162.6666666666667</ele><time>2026-05-01T09:19:05.406Z</time></trkpt><trkpt lat="44.8481672" lon="6.582937"><ele>1173.3333333333335</ele><time>2026-05-01T09:19:06.406Z</time></trkpt><trkpt lat="44.847971" lon="6.5829771"><ele>1184.0</ele><time>2026-05-01T09:19:07.407Z</time></trkpt><trkpt lat="44.8477707" lon="6.5830171"><ele>1179.0</ele><time>2026-05-01T09:19:08.407Z</time></trkpt><trkpt lat="44.8475674" lon="6.5830565"><ele>1174.0</ele><time>2026-05-01T09:19:09.407Z</time></trkpt><trkpt lat="44.847363" lon="6.5830947"><ele>1169.0</ele><time>2026-05-01T09:19:10.407Z</time></trkpt><trkpt lat="44.8471595" lon="6.5831306"><ele>1169.0</ele><time>2026-05-01T09:19:11.406Z</time></trkpt><trkpt lat="44.8469606" lon="6.5831663"><ele>1169.0</ele><time>2026-05-01T09:19:12.406Z</time></trkpt><trkpt lat="44.8467673" lon="6.5831997"><ele>1169.0</ele><time>2026-05-01T09:19:13.406Z</time></trkpt><trkpt lat="44.8465775" lon="6.5832278"><ele>1165.6666666666667</ele><time>2026-05-01T09:19:14.406Z</time></trkpt><trkpt lat="44.8463849" lon="6.5832481"><ele>1162.3333333333333</ele><time>2026-05-01T09:19:15.406Z</time></trkpt><trkpt lat="44.8461864" lon="6.5832543"><ele>1159.0</ele><time>2026-05-01T09:19:16.406Z</time></trkpt><trkpt lat="44.845985" lon="6.5832394"><ele>1156.6666666666665</ele><time>2026-05-01T09:19:17.407Z</time></trkpt><trkpt lat="44.8457831" lon="6.5831975"><ele>1154.3333333333333</ele><time>2026-05-01T09:19:18.407Z</time></trkpt><trkpt lat="44.8455823" lon="6.5831334"><ele>1152.0</ele><time>2026-05-01T09:19:19.406Z</time></trkpt><trkpt lat="44.8453846" lon="6.5830514"><ele>1152.0</ele><time>2026-05-01T09:19:20.406Z</time></trkpt><trkpt lat="44.8451911" lon="6.5829564"><ele>1152.0</ele><time>2026-05-01T09:19:21.406Z</time></trkpt><trkpt lat="44.8449976" lon="6.5828606"><ele>1152.0</ele><time>2026-05-01T09:19:22.407Z</time></trkpt><trkpt lat="44.8448017" lon="6.5827703"><ele>1152.3333333333333</ele><time>2026-05-01T09:19:23.406Z</time></trkpt><trkpt lat="44.844602" lon="6.582686"><ele>1152.6666666666665</ele><time>2026-05-01T09:19:24.407Z</time></trkpt><trkpt lat="44.8443979" lon="6.5826131"><ele>1153.0</ele><time>2026-05-01T09:19:25.406Z</time></trkpt><trkpt lat="44.8441882" lon="6.5825562"><ele>1153.0</ele><time>2026-05-01T09:19:26.407Z</time></trkpt><trkpt lat="44.843974" lon="6.5825225"><ele>1153.0</ele><time>2026-05-01T09:19:27.406Z</time></trkpt><trkpt lat="44.8437562" lon="6.5825155"><ele>1153.0</ele><time>2026-05-01T09:19:28.406Z</time></trkpt><trkpt lat="44.8435319" lon="6.5825168"><ele>1153.0</ele><time>2026-05-01T09:19:29.406Z</time></trkpt><trkpt lat="44.8433143" lon="6.5825954"><ele>1153.0</ele><time>2026-05-01T09:19:30.406Z</time></trkpt><trkpt lat="44.8430977" lon="6.5826731"><ele>1153.0</ele><time>2026-05-01T09:19:31.406Z</time></trkpt><trkpt lat="44.8428822" lon="6.5827852"><ele>1153.0</ele><time>2026-05-01T09:19:32.407Z</time></trkpt><trkpt lat="44.8426691" lon="6.5829193"><ele>1153.0</ele><time>2026-05-01T09:19:33.406Z</time></trkpt><trkpt lat="44.8424622" lon="6.5830731"><ele>1153.0</ele><time>2026-05-01T09:19:34.406Z</time></trkpt><trkpt lat="44.8422615" lon="6.5832374"><ele>1153.0</ele><time>2026-05-01T09:19:35.407Z</time></trkpt><trkpt lat="44.8420587" lon="6.5834039"><ele>1153.0</ele><time>2026-05-01T09:19:36.406Z</time></trkpt><trkpt lat="44.8418512" lon="6.58356"><ele>1153.0</ele><time>2026-05-01T09:19:37.406Z</time></trkpt><trkpt lat="44.8416361" lon="6.5837063"><ele>1157.5</ele><time>2026-05-01T09:19:38.406Z</time></trkpt><trkpt lat="44.8414176" lon="6.5838448"><ele>1162.0</ele><time>2026-05-01T09:19:39.407Z</time></trkpt><trkpt lat="44.8411898" lon="6.5839682"><ele>1154.0</ele><time>2026-05-01T09:19:40.406Z</time></trkpt><trkpt lat="44.8409527" lon="6.5840732"><ele>1146.0</ele><time>2026-05-01T09:19:41.406Z</time></trkpt><trkpt lat="44.8407014" lon="6.5841552"><ele>1146.0</ele><time>2026-05-01T09:19:42.407Z</time></trkpt><trkpt lat="44.8404394" lon="6.5842166"><ele>1146.0</ele><time>2026-05-01T09:19:43.407Z</time></trkpt><trkpt lat="44.8401728" lon="6.5842577"><ele>1144.0</ele><time>2026-05-01T09:19:44.406Z</time></trkpt><trkpt lat="44.8399049" lon="6.584287"><ele>1142.0</ele><time>2026-05-01T09:19:45.406Z</time></trkpt><trkpt lat="44.8396331" lon="6.5842965"><ele>1142.0</ele><time>2026-05-01T09:19:46.406Z</time></trkpt><trkpt lat="44.8393611" lon="6.5842855"><ele>1142.0</ele><time>2026-05-01T09:19:47.405Z</time></trkpt><trkpt lat="44.8390956" lon="6.584265"><ele>1141.5</ele><time>2026-05-01T09:19:48.405Z</time></trkpt><trkpt lat="44.8388457" lon="6.5842478"><ele>1141.0</ele><time>2026-05-01T09:19:49.406Z</time></trkpt><trkpt lat="44.8386059" lon="6.5842423"><ele>1142.5</ele><time>2026-05-01T09:19:50.405Z</time></trkpt><trkpt lat="44.8383663" lon="6.5842568"><ele>1144.0</ele><time>2026-05-01T09:19:51.405Z</time></trkpt><trkpt lat="44.8381145" lon="6.584278"><ele>1144.0</ele><time>2026-05-01T09:19:52.406Z</time></trkpt><trkpt lat="44.837853" lon="6.5842951"><ele>1144.0</ele><time>2026-05-01T09:19:53.405Z</time></trkpt><trkpt lat="44.8375827" lon="6.5843074"><ele>1148.5</ele><time>2026-05-01T09:19:54.405Z</time></trkpt><trkpt lat="44.8373059" lon="6.584318"><ele>1153.0</ele><time>2026-05-01T09:19:55.405Z</time></trkpt><trkpt lat="44.8370316" lon="6.584328"><ele>1156.0</ele><time>2026-05-01T09:19:56.405Z</time></trkpt><trkpt lat="44.8367704" lon="6.584334"><ele>1159.0</ele><time>2026-05-01T09:19:57.405Z</time></trkpt><trkpt lat="44.8365253" lon="6.5843353"><ele>1159.0</ele><time>2026-05-01T09:19:58.405Z</time></trkpt><trkpt lat="44.8362931" lon="6.5843169"><ele>1159.0</ele><time>2026-05-01T09:19:59.406Z</time></trkpt><trkpt lat="44.8360674" lon="6.5842791"><ele>1165.0</ele><time>2026-05-01T09:20:00.405Z</time></trkpt><trkpt lat="44.8358428" lon="6.5842304"><ele>1171.0</ele><time>2026-05-01T09:20:01.406Z</time></trkpt><trkpt lat="44.8356233" lon="6.5841703"><ele>1171.0</ele><time>2026-05-01T09:20:02.405Z</time></trkpt><trkpt lat="44.8354124" lon="6.5841033"><ele>1171.0</ele><time>2026-05-01T09:20:03.406Z</time></trkpt><trkpt lat="44.8352223" lon="6.5840341"><ele>1171.0</ele><time>2026-05-01T09:20:04.405Z</time></trkpt><trkpt lat="44.835052" lon="6.5839634"><ele>1174.3333333333333</ele><time>2026-05-01T09:20:05.405Z</time></trkpt><trkpt lat="44.8348876" lon="6.5838921"><ele>1177.6666666666667</ele><time>2026-05-01T09:20:06.406Z</time></trkpt><trkpt lat="44.8347196" lon="6.5838189"><ele>1181.0</ele><time>2026-05-01T09:20:07.406Z</time></trkpt><trkpt lat="44.8345492" lon="6.5837509"><ele>1181.0</ele><time>2026-05-01T09:20:08.405Z</time></trkpt><trkpt lat="44.8343799" lon="6.5836847"><ele>1181.0</ele><time>2026-05-01T09:20:09.405Z</time></trkpt><trkpt lat="44.8342115" lon="6.5836197"><ele>1181.0</ele><time>2026-05-01T09:20:10.405Z</time></trkpt><trkpt lat="44.8340447" lon="6.5835519"><ele>1178.3333333333335</ele><time>2026-05-01T09:20:11.405Z</time></trkpt><trkpt lat="44.8338743" lon="6.5834808"><ele>1175.6666666666667</ele><time>2026-05-01T09:20:12.405Z</time></trkpt><trkpt lat="44.8337019" lon="6.5834079"><ele>1173.0</ele><time>2026-05-01T09:20:13.405Z</time></trkpt><trkpt lat="44.8335275" lon="6.5833384"><ele>1175.6666666666667</ele><time>2026-05-01T09:20:14.405Z</time></trkpt><trkpt lat="44.8333495" lon="6.5832776"><ele>1178.3333333333335</ele><time>2026-05-01T09:20:15.406Z</time></trkpt><trkpt lat="44.8331693" lon="6.583228"><ele>1181.0</ele><time>2026-05-01T09:20:16.406Z</time></trkpt><trkpt lat="44.8329899" lon="6.5831877"><ele>1181.0</ele><time>2026-05-01T09:20:17.405Z</time></trkpt><trkpt lat="44.8328177" lon="6.5831581"><ele>1181.0</ele><time>2026-05-01T09:20:18.405Z</time></trkpt><trkpt lat="44.8326496" lon="6.5831402"><ele>1181.0</ele><time>2026-05-01T09:20:19.405Z</time></trkpt><trkpt lat="44.8324788" lon="6.5831253"><ele>1185.0</ele><time>2026-05-01T09:20:20.405Z</time></trkpt><trkpt lat="44.8323027" lon="6.5831227"><ele>1189.0</ele><time>2026-05-01T09:20:21.405Z</time></trkpt><trkpt lat="44.8321209" lon="6.5831259"><ele>1193.0</ele><time>2026-05-01T09:20:22.405Z</time></trkpt><trkpt lat="44.8319343" lon="6.5831341"><ele>1195.6666666666667</ele><time>2026-05-01T09:20:23.405Z</time></trkpt><trkpt lat="44.8317507" lon="6.5831406"><ele>1198.3333333333333</ele><time>2026-05-01T09:20:24.405Z</time></trkpt><trkpt lat="44.8315676" lon="6.5831451"><ele>1201.0</ele><time>2026-05-01T09:20:25.405Z</time></trkpt><trkpt lat="44.8313915" lon="6.5831504"><ele>1201.0</ele><time>2026-05-01T09:20:26.405Z</time></trkpt><trkpt lat="44.8312241" lon="6.5831536"><ele>1201.0</ele><time>2026-05-01T09:20:27.405Z</time></trkpt><trkpt lat="44.8310569" lon="6.583142"><ele>1201.0</ele><time>2026-05-01T09:20:28.406Z</time></trkpt><trkpt lat="44.8308944" lon="6.5831044"><ele>1203.6666666666665</ele><time>2026-05-01T09:20:29.405Z</time></trkpt><trkpt lat="44.8307353" lon="6.5830337"><ele>1206.3333333333333</ele><time>2026-05-01T09:20:30.405Z</time></trkpt><trkpt lat="44.830582" lon="6.5829292"><ele>1209.0</ele><time>2026-05-01T09:20:31.406Z</time></trkpt><trkpt lat="44.8304413" lon="6.5827879"><ele>1208.0</ele><time>2026-05-01T09:20:32.405Z</time></trkpt><trkpt lat="44.8303174" lon="6.582617"><ele>1207.0</ele><time>2026-05-01T09:20:33.405Z</time></trkpt><trkpt lat="44.8302127" lon="6.5824188"><ele>1206.0</ele><time>2026-05-01T09:20:34.405Z</time></trkpt><trkpt lat="44.8301292" lon="6.5821985"><ele>1207.0</ele><time>2026-05-01T09:20:35.405Z</time></trkpt><trkpt lat="44.8300655" lon="6.581967"><ele>1208.0</ele><time>2026-05-01T09:20:36.405Z</time></trkpt><trkpt lat="44.830012" lon="6.5817329"><ele>1209.0</ele><time>2026-05-01T09:20:37.405Z</time></trkpt><trkpt lat="44.8299495" lon="6.5815085"><ele>1209.0</ele><time>2026-05-01T09:20:38.405Z</time></trkpt><trkpt lat="44.8298588" lon="6.5812908"><ele>1209.0</ele><time>2026-05-01T09:20:39.405Z</time></trkpt><trkpt lat="44.8297496" lon="6.5810878"><ele>1209.0</ele><time>2026-05-01T09:20:40.405Z</time></trkpt><trkpt lat="44.8296138" lon="6.5809054"><ele>1210.6666666666667</ele><time>2026-05-01T09:20:41.405Z</time></trkpt><trkpt lat="44.8294532" lon="6.5807456"><ele>1212.3333333333335</ele><time>2026-05-01T09:20:42.405Z</time></trkpt><trkpt lat="44.8292725" lon="6.5806141"><ele>1214.0</ele><time>2026-05-01T09:20:43.405Z</time></trkpt><trkpt lat="44.8290813" lon="6.5805047"><ele>1214.0</ele><time>2026-05-01T09:20:44.406Z</time></trkpt><trkpt lat="44.8288847" lon="6.5804036"><ele>1214.0</ele><time>2026-05-01T09:20:45.405Z</time></trkpt><trkpt lat="44.8286841" lon="6.5803079"><ele>1214.0</ele><time>2026-05-01T09:20:46.405Z</time></trkpt><trkpt lat="44.8284822" lon="6.5802147"><ele>1214.3333333333335</ele><time>2026-05-01T09:20:47.405Z</time></trkpt><trkpt lat="44.8282806" lon="6.5801234"><ele>1214.6666666666667</ele><time>2026-05-01T09:20:48.405Z</time></trkpt><trkpt lat="44.8280854" lon="6.5800318"><ele>1215.0</ele><time>2026-05-01T09:20:49.405Z</time></trkpt><trkpt lat="44.8278981" lon="6.5799439"><ele>1215.0</ele><time>2026-05-01T09:20:50.406Z</time></trkpt><trkpt lat="44.8277186" lon="6.5798627"><ele>1215.0</ele><time>2026-05-01T09:20:51.405Z</time></trkpt><trkpt lat="44.8275439" lon="6.57979"><ele>1215.0</ele><time>2026-05-01T09:20:52.405Z</time></trkpt><trkpt lat="44.8273745" lon="6.5797321"><ele>1217.3333333333333</ele><time>2026-05-01T09:20:53.405Z</time></trkpt><trkpt lat="44.8272007" lon="6.5796941"><ele>1219.6666666666665</ele><time>2026-05-01T09:20:54.405Z</time></trkpt><trkpt lat="44.8270233" lon="6.5796912"><ele>1222.0</ele><time>2026-05-01T09:20:55.405Z</time></trkpt><trkpt lat="44.8268452" lon="6.5797205"><ele>1223.6666666666665</ele><time>2026-05-01T09:20:56.405Z</time></trkpt><trkpt lat="44.8266644" lon="6.5797616"><ele>1225.3333333333333</ele><time>2026-05-01T09:20:57.405Z</time></trkpt><trkpt lat="44.8264806" lon="6.5798028"><ele>1227.0</ele><time>2026-05-01T09:20:58.405Z</time></trkpt><trkpt lat="44.8262971" lon="6.5798456"><ele>1227.0</ele><time>2026-05-01T09:20:59.405Z</time></trkpt><trkpt lat="44.82611" lon="6.5798908"><ele>1227.0</ele><time>2026-05-01T09:21:00.405Z</time></trkpt><trkpt lat="44.8259252" lon="6.5799329"><ele>1227.0</ele><time>2026-05-01T09:21:01.405Z</time></trkpt><trkpt lat="44.8257507" lon="6.5799695"><ele>1226.6666666666667</ele><time>2026-05-01T09:21:02.405Z</time></trkpt><trkpt lat="44.8255799" lon="6.5800042"><ele>1226.3333333333335</ele><time>2026-05-01T09:21:03.405Z</time></trkpt><trkpt lat="44.8254113" lon="6.5800336"><ele>1226.0</ele><time>2026-05-01T09:21:04.405Z</time></trkpt><trkpt lat="44.8252433" lon="6.5800522"><ele>1226.3333333333335</ele><time>2026-05-01T09:21:05.406Z</time></trkpt><trkpt lat="44.8250748" lon="6.5800479"><ele>1226.6666666666667</ele><time>2026-05-01T09:21:06.405Z</time></trkpt><trkpt lat="44.8249161" lon="6.5800089"><ele>1227.0</ele><time>2026-05-01T09:21:07.405Z</time></trkpt><trkpt lat="44.8247636" lon="6.5799489"><ele>1227.0</ele><time>2026-05-01T09:21:08.405Z</time></trkpt><trkpt lat="44.8246137" lon="6.5798784"><ele>1227.0</ele><time>2026-05-01T09:21:09.405Z</time></trkpt><trkpt lat="44.824464" lon="6.5798032"><ele>1227.0</ele><time>2026-05-01T09:21:10.405Z</time></trkpt><trkpt lat="44.8243133" lon="6.5797237"><ele>1225.3333333333333</ele><time>2026-05-01T09:21:11.405Z</time></trkpt><trkpt lat="44.8241595" lon="6.5796413"><ele>1223.6666666666665</ele><time>2026-05-01T09:21:12.405Z</time></trkpt><trkpt lat="44.8240113" lon="6.5795607"><ele>1222.0</ele><time>2026-05-01T09:21:13.405Z</time></trkpt><trkpt lat="44.82387" lon="6.5794829"><ele>1222.5</ele><time>2026-05-01T09:21:14.405Z</time></trkpt><trkpt lat="44.8237418" lon="6.5794108"><ele>1223.0</ele><time>2026-05-01T09:21:15.405Z</time></trkpt><trkpt lat="44.8236233" lon="6.5793461"><ele>1223.5</ele><time>2026-05-01T09:21:16.406Z</time></trkpt><trkpt lat="44.8235122" lon="6.579284"><ele>1224.0</ele><time>2026-05-01T09:21:17.405Z</time></trkpt><trkpt lat="44.8234063" lon="6.5792236"><ele>1224.0</ele><time>2026-05-01T09:21:18.406Z</time></trkpt><trkpt lat="44.8233052" lon="6.5791622"><ele>1224.0</ele><time>2026-05-01T09:21:19.405Z</time></trkpt><trkpt lat="44.8232065" lon="6.5791016"><ele>1224.0</ele><time>2026-05-01T09:21:20.405Z</time></trkpt><trkpt lat="44.8231033" lon="6.5790414"><ele>1224.0</ele><time>2026-05-01T09:21:21.405Z</time></trkpt><trkpt lat="44.8229863" lon="6.5789818"><ele>1224.0</ele><time>2026-05-01T09:21:22.405Z</time></trkpt><trkpt lat="44.8228615" lon="6.5789273"><ele>1224.0</ele><time>2026-05-01T09:21:23.405Z</time></trkpt><trkpt lat="44.822727" lon="6.5788869"><ele>1224.0</ele><time>2026-05-01T09:21:24.406Z</time></trkpt><trkpt lat="44.8225856" lon="6.5788694"><ele>1224.0</ele><time>2026-05-01T09:21:25.405Z</time></trkpt><trkpt lat="44.8224494" lon="6.5788702"><ele>1223.25</ele><time>2026-05-01T09:21:26.405Z</time></trkpt><trkpt lat="44.8223133" lon="6.5788686"><ele>1222.5</ele><time>2026-05-01T09:21:27.405Z</time></trkpt><trkpt lat="44.8221748" lon="6.5788677"><ele>1221.75</ele><time>2026-05-01T09:21:28.406Z</time></trkpt><trkpt lat="44.8220302" lon="6.5788748"><ele>1221.0</ele><time>2026-05-01T09:21:29.405Z</time></trkpt><trkpt lat="44.8218801" lon="6.5788859"><ele>1220.3333333333333</ele><time>2026-05-01T09:21:30.405Z</time></trkpt><trkpt lat="44.8217219" lon="6.5788983"><ele>1219.6666666666665</ele><time>2026-05-01T09:21:31.405Z</time></trkpt><trkpt lat="44.8215559" lon="6.5789086"><ele>1219.0</ele><time>2026-05-01T09:21:32.405Z</time></trkpt><trkpt lat="44.8213795" lon="6.5788975"><ele>1219.0</ele><time>2026-05-01T09:21:33.405Z</time></trkpt><trkpt lat="44.8212006" lon="6.5788694"><ele>1219.0</ele><time>2026-05-01T09:21:34.405Z</time></trkpt><trkpt lat="44.8210165" lon="6.5788476"><ele>1219.0</ele><time>2026-05-01T09:21:35.405Z</time></trkpt><trkpt lat="44.8208346" lon="6.5788522"><ele>1220.6666666666665</ele><time>2026-05-01T09:21:36.406Z</time></trkpt><trkpt lat="44.820658" lon="6.578873"><ele>1222.3333333333333</ele><time>2026-05-01T09:21:37.405Z</time></trkpt><trkpt lat="44.8204853" lon="6.5788833"><ele>1224.0</ele><time>2026-05-01T09:21:38.406Z</time></trkpt><trkpt lat="44.8203193" lon="6.5788588"><ele>1224.0</ele><time>2026-05-01T09:21:39.405Z</time></trkpt><trkpt lat="44.8201661" lon="6.5787892"><ele>1224.0</ele><time>2026-05-01T09:21:40.405Z</time></trkpt><trkpt lat="44.8200259" lon="6.578675"><ele>1224.0</ele><time>2026-05-01T09:21:41.405Z</time></trkpt><trkpt lat="44.8198893" lon="6.5785651"><ele>1217.6666666666667</ele><time>2026-05-01T09:21:42.405Z</time></trkpt><trkpt lat="44.8197461" lon="6.5784883"><ele>1211.3333333333335</ele><time>2026-05-01T09:21:43.405Z</time></trkpt><trkpt lat="44.8195936" lon="6.5784413"><ele>1205.0</ele><time>2026-05-01T09:21:44.405Z</time></trkpt><trkpt lat="44.8194359" lon="6.5784246"><ele>1208.0</ele><time>2026-05-01T09:21:45.405Z</time></trkpt><trkpt lat="44.8192726" lon="6.5783989"><ele>1211.0</ele><time>2026-05-01T09:21:46.405Z</time></trkpt><trkpt lat="44.8191105" lon="6.5783303"><ele>1214.0</ele><time>2026-05-01T09:21:47.406Z</time></trkpt><trkpt lat="44.8189569" lon="6.5782158"><ele>1214.0</ele><time>2026-05-01T09:21:48.405Z</time></trkpt><trkpt lat="44.8188162" lon="6.5780873"><ele>1214.0</ele><time>2026-05-01T09:21:49.405Z</time></trkpt><trkpt lat="44.8186798" lon="6.5779625"><ele>1214.0</ele><time>2026-05-01T09:21:50.405Z</time></trkpt><trkpt lat="44.8185397" lon="6.5778486"><ele>1205.6666666666667</ele><time>2026-05-01T09:21:51.405Z</time></trkpt><trkpt lat="44.8183829" lon="6.5777561"><ele>1197.3333333333333</ele><time>2026-05-01T09:21:52.407Z</time></trkpt><trkpt lat="44.8182099" lon="6.5776967"><ele>1189.0</ele><time>2026-05-01T09:21:53.406Z</time></trkpt><trkpt lat="44.8180247" lon="6.5776475"><ele>1189.0</ele><time>2026-05-01T09:21:54.405Z</time></trkpt><trkpt lat="44.8178368" lon="6.577593"><ele>1189.0</ele><time>2026-05-01T09:21:55.405Z</time></trkpt><trkpt lat="44.8176494" lon="6.5775222"><ele>1189.0</ele><time>2026-05-01T09:21:56.406Z</time></trkpt><trkpt lat="44.8174613" lon="6.5774391"><ele>1194.6666666666665</ele><time>2026-05-01T09:21:57.405Z</time></trkpt><trkpt lat="44.8172663" lon="6.5773625"><ele>1200.3333333333333</ele><time>2026-05-01T09:21:58.405Z</time></trkpt><trkpt lat="44.817061" lon="6.577303"><ele>1206.0</ele><time>2026-05-01T09:21:59.405Z</time></trkpt><trkpt lat="44.8168451" lon="6.5772655"><ele>1211.6666666666667</ele><time>2026-05-01T09:22:00.405Z</time></trkpt><trkpt lat="44.8166283" lon="6.5772265"><ele>1217.3333333333335</ele><time>2026-05-01T09:22:01.405Z</time></trkpt><trkpt lat="44.8164227" lon="6.5771675"><ele>1223.0</ele><time>2026-05-01T09:22:02.405Z</time></trkpt><trkpt lat="44.8162272" lon="6.5771232"><ele>1223.0</ele><time>2026-05-01T09:22:03.405Z</time></trkpt><trkpt lat="44.8160359" lon="6.5771128"><ele>1223.0</ele><time>2026-05-01T09:22:04.405Z</time></trkpt><trkpt lat="44.8158457" lon="6.5771003"><ele>1223.0</ele><time>2026-05-01T09:22:05.405Z</time></trkpt><trkpt lat="44.8156624" lon="6.5770701"><ele>1225.6666666666667</ele><time>2026-05-01T09:22:06.405Z</time></trkpt><trkpt lat="44.8154927" lon="6.5770355"><ele>1228.3333333333333</ele><time>2026-05-01T09:22:07.406Z</time></trkpt><trkpt lat="44.8153407" lon="6.5770043"><ele>1231.0</ele><time>2026-05-01T09:22:08.405Z</time></trkpt><trkpt lat="44.815198" lon="6.5769683"><ele>1225.75</ele><time>2026-05-01T09:22:09.405Z</time></trkpt><trkpt lat="44.8150651" lon="6.576916"><ele>1220.5</ele><time>2026-05-01T09:22:10.406Z</time></trkpt><trkpt lat="44.8149456" lon="6.5768342"><ele>1215.25</ele><time>2026-05-01T09:22:11.405Z</time></trkpt><trkpt lat="44.8148456" lon="6.5767169"><ele>1210.0</ele><time>2026-05-01T09:22:12.405Z</time></trkpt><trkpt lat="44.8147666" lon="6.5765763"><ele>1210.0</ele><time>2026-05-01T09:22:13.405Z</time></trkpt><trkpt lat="44.8146914" lon="6.5764275"><ele>1210.0</ele><time>2026-05-01T09:22:14.405Z</time></trkpt><trkpt lat="44.814612" lon="6.5762839"><ele>1210.0</ele><time>2026-05-01T09:22:15.405Z</time></trkpt><trkpt lat="44.8145265" lon="6.5761356"><ele>1210.0</ele><time>2026-05-01T09:22:16.406Z</time></trkpt><trkpt lat="44.8144396" lon="6.5759853"><ele>1210.25</ele><time>2026-05-01T09:22:17.405Z</time></trkpt><trkpt lat="44.8143473" lon="6.5758434"><ele>1210.5</ele><time>2026-05-01T09:22:18.405Z</time></trkpt><trkpt lat="44.8142375" lon="6.5757199"><ele>1210.75</ele><time>2026-05-01T09:22:19.405Z</time></trkpt><trkpt lat="44.8141063" lon="6.5756274"><ele>1211.0</ele><time>2026-05-01T09:22:20.405Z</time></trkpt><trkpt lat="44.8139563" lon="6.5755773"><ele>1211.0</ele><time>2026-05-01T09:22:21.405Z</time></trkpt><trkpt lat="44.8137941" lon="6.5755594"><ele>1211.0</ele><time>2026-05-01T09:22:22.405Z</time></trkpt><trkpt lat="44.8136263" lon="6.5755529"><ele>1211.0</ele><time>2026-05-01T09:22:23.406Z</time></trkpt><trkpt lat="44.8134592" lon="6.5755457"><ele>1213.0</ele><time>2026-05-01T09:22:24.405Z</time></trkpt><trkpt lat="44.8132949" lon="6.5755328"><ele>1215.0</ele><time>2026-05-01T09:22:25.405Z</time></trkpt><trkpt lat="44.8131368" lon="6.5755117"><ele>1217.0</ele><time>2026-05-01T09:22:26.405Z</time></trkpt><trkpt lat="44.8129804" lon="6.575485"><ele>1217.0</ele><time>2026-05-01T09:22:27.405Z</time></trkpt><trkpt lat="44.8128211" lon="6.5754524"><ele>1217.0</ele><time>2026-05-01T09:22:28.405Z</time></trkpt><trkpt lat="44.8126628" lon="6.5754028"><ele>1217.0</ele><time>2026-05-01T09:22:29.405Z</time></trkpt><trkpt lat="44.8125079" lon="6.575336"><ele>1209.0</ele><time>2026-05-01T09:22:30.405Z</time></trkpt><trkpt lat="44.8123554" lon="6.5752515"><ele>1201.0</ele><time>2026-05-01T09:22:31.405Z</time></trkpt><trkpt lat="44.8122122" lon="6.5751402"><ele>1193.0</ele><time>2026-05-01T09:22:32.405Z</time></trkpt><trkpt lat="44.8120868" lon="6.5750049"><ele>1193.0</ele><time>2026-05-01T09:22:33.405Z</time></trkpt><trkpt lat="44.8119752" lon="6.5748547"><ele>1193.0</ele><time>2026-05-01T09:22:34.406Z</time></trkpt><trkpt lat="44.8118727" lon="6.5747079"><ele>1193.0</ele><time>2026-05-01T09:22:35.405Z</time></trkpt><trkpt lat="44.8117641" lon="6.5745854"><ele>1193.0</ele><time>2026-05-01T09:22:36.405Z</time></trkpt><trkpt lat="44.8116329" lon="6.5745013"><ele>1189.6666666666667</ele><time>2026-05-01T09:22:37.405Z</time></trkpt><trkpt lat="44.811487" lon="6.5744406"><ele>1186.3333333333333</ele><time>2026-05-01T09:22:38.405Z</time></trkpt><trkpt lat="44.8113377" lon="6.5743912"><ele>1183.0</ele><time>2026-05-01T09:22:39.405Z</time></trkpt><trkpt lat="44.8111924" lon="6.5743479"><ele>1183.0</ele><time>2026-05-01T09:22:40.405Z</time></trkpt><trkpt lat="44.8110524" lon="6.5743031"><ele>1183.0</ele><time>2026-05-01T09:22:41.405Z</time></trkpt><trkpt lat="44.8109158" lon="6.5742567"><ele>1183.0</ele><time>2026-05-01T09:22:42.405Z</time></trkpt><trkpt lat="44.8107793" lon="6.5742104"><ele>1183.0</ele><time>2026-05-01T09:22:43.405Z</time></trkpt><trkpt lat="44.8106336" lon="6.5741617"><ele>1187.0</ele><time>2026-05-01T09:22:44.406Z</time></trkpt><trkpt lat="44.8104827" lon="6.574102"><ele>1191.0</ele><time>2026-05-01T09:22:45.405Z</time></trkpt><trkpt lat="44.8103301" lon="6.5740419"><ele>1195.0</ele><time>2026-05-01T09:22:46.405Z</time></trkpt><trkpt lat="44.810173" lon="6.5740002"><ele>1196.6666666666665</ele><time>2026-05-01T09:22:47.405Z</time></trkpt><trkpt lat="44.8100103" lon="6.5739939"><ele>1198.3333333333333</ele><time>2026-05-01T09:22:48.405Z</time></trkpt><trkpt lat="44.8098474" lon="6.574016"><ele>1200.0</ele><time>2026-05-01T09:22:49.405Z</time></trkpt><trkpt lat="44.8096876" lon="6.5740547"><ele>1200.0</ele><time>2026-05-01T09:22:50.406Z</time></trkpt><trkpt lat="44.8095271" lon="6.5740962"><ele>1200.0</ele><time>2026-05-01T09:22:51.405Z</time></trkpt><trkpt lat="44.8093716" lon="6.5741343"><ele>1200.0</ele><time>2026-05-01T09:22:52.406Z</time></trkpt><trkpt lat="44.8092197" lon="6.574157"><ele>1199.25</ele><time>2026-05-01T09:22:53.405Z</time></trkpt><trkpt lat="44.8090715" lon="6.5741632"><ele>1198.5</ele><time>2026-05-01T09:22:54.405Z</time></trkpt><trkpt lat="44.8089272" lon="6.5741537"><ele>1197.75</ele><time>2026-05-01T09:22:55.405Z</time></trkpt><trkpt lat="44.8087852" lon="6.5741207"><ele>1197.0</ele><time>2026-05-01T09:22:56.405Z</time></trkpt><trkpt lat="44.808648" lon="6.574056"><ele>1197.0</ele><time>2026-05-01T09:22:57.405Z</time></trkpt><trkpt lat="44.8085185" lon="6.5739516"><ele>1197.0</ele><time>2026-05-01T09:22:58.405Z</time></trkpt><trkpt lat="44.8083959" lon="6.5738118"><ele>1197.0</ele><time>2026-05-01T09:22:59.405Z</time></trkpt><trkpt lat="44.8082805" lon="6.5736388"><ele>1192.6666666666667</ele><time>2026-05-01T09:23:00.405Z</time></trkpt><trkpt lat="44.8081722" lon="6.5734373"><ele>1188.3333333333335</ele><time>2026-05-01T09:23:01.405Z</time></trkpt><trkpt lat="44.8080716" lon="6.5732119"><ele>1184.0</ele><time>2026-05-01T09:23:02.405Z</time></trkpt><trkpt lat="44.8079792" lon="6.5729707"><ele>1181.3333333333335</ele><time>2026-05-01T09:23:03.406Z</time></trkpt><trkpt lat="44.8078897" lon="6.5727249"><ele>1178.6666666666667</ele><time>2026-05-01T09:23:04.406Z</time></trkpt><trkpt lat="44.8077998" lon="6.5724829"><ele>1176.0</ele><time>2026-05-01T09:23:05.405Z</time></trkpt><trkpt lat="44.8077094" lon="6.5722425"><ele>1174.6666666666667</ele><time>2026-05-01T09:23:06.405Z</time></trkpt><trkpt lat="44.8076158" lon="6.5719933"><ele>1173.3333333333335</ele><time>2026-05-01T09:23:07.406Z</time></trkpt><trkpt lat="44.8075219" lon="6.5717351"><ele>1172.0</ele><time>2026-05-01T09:23:08.405Z</time></trkpt><trkpt lat="44.8074266" lon="6.5714714"><ele>1172.0</ele><time>2026-05-01T09:23:09.406Z</time></trkpt><trkpt lat="44.807326" lon="6.571207"><ele>1172.0</ele><time>2026-05-01T09:23:10.405Z</time></trkpt><trkpt lat="44.8072238" lon="6.5709434"><ele>1172.0</ele><time>2026-05-01T09:23:11.406Z</time></trkpt><trkpt lat="44.8071244" lon="6.5706862"><ele>1170.0</ele><time>2026-05-01T09:23:12.405Z</time></trkpt><trkpt lat="44.8070261" lon="6.5704302"><ele>1168.0</ele><time>2026-05-01T09:23:13.405Z</time></trkpt><trkpt lat="44.8069294" lon="6.5701778"><ele>1166.0</ele><time>2026-05-01T09:23:14.405Z</time></trkpt><trkpt lat="44.8068337" lon="6.5699308"><ele>1164.0</ele><time>2026-05-01T09:23:15.405Z</time></trkpt><trkpt lat="44.8067337" lon="6.5696926"><ele>1162.0</ele><time>2026-05-01T09:23:16.405Z</time></trkpt><trkpt lat="44.8066255" lon="6.5694647"><ele>1160.0</ele><time>2026-05-01T09:23:17.405Z</time></trkpt><trkpt lat="44.8065077" lon="6.5692411"><ele>1159.6666666666667</ele><time>2026-05-01T09:23:18.405Z</time></trkpt><trkpt lat="44.8063788" lon="6.5690165"><ele>1159.3333333333333</ele><time>2026-05-01T09:23:19.405Z</time></trkpt><trkpt lat="44.8062406" lon="6.5687993"><ele>1159.0</ele><time>2026-05-01T09:23:20.405Z</time></trkpt><trkpt lat="44.8060973" lon="6.5685927"><ele>1156.0</ele><time>2026-05-01T09:23:21.405Z</time></trkpt><trkpt lat="44.8059538" lon="6.5683972"><ele>1153.0</ele><time>2026-05-01T09:23:22.405Z</time></trkpt><trkpt lat="44.8058136" lon="6.5682185"><ele>1150.0</ele><time>2026-05-01T09:23:23.405Z</time></trkpt><trkpt lat="44.8056732" lon="6.5680586"><ele>1150.0</ele><time>2026-05-01T09:23:24.406Z</time></trkpt><trkpt lat="44.8055247" lon="6.5679269"><ele>1150.0</ele><time>2026-05-01T09:23:25.405Z</time></trkpt><trkpt lat="44.8053687" lon="6.5678283"><ele>1150.0</ele><time>2026-05-01T09:23:26.405Z</time></trkpt><trkpt lat="44.8052067" lon="6.5677589"><ele>1146.75</ele><time>2026-05-01T09:23:27.405Z</time></trkpt><trkpt lat="44.8050465" lon="6.5677192"><ele>1143.5</ele><time>2026-05-01T09:23:28.405Z</time></trkpt><trkpt lat="44.8049076" lon="6.5677024"><ele>1140.25</ele><time>2026-05-01T09:23:29.406Z</time></trkpt><trkpt lat="44.8047802" lon="6.5676964"><ele>1137.0</ele><time>2026-05-01T09:23:30.405Z</time></trkpt><trkpt lat="44.804655" lon="6.5677022"><ele>1137.0</ele><time>2026-05-01T09:23:31.405Z</time></trkpt><trkpt lat="44.8045289" lon="6.5677247"><ele>1137.0</ele><time>2026-05-01T09:23:32.405Z</time></trkpt><trkpt lat="44.8044038" lon="6.5677614"><ele>1137.0</ele><time>2026-05-01T09:23:33.406Z</time></trkpt><trkpt lat="44.8042806" lon="6.5677996"><ele>1137.0</ele><time>2026-05-01T09:23:34.405Z</time></trkpt><trkpt lat="44.8041594" lon="6.5678391"><ele>1138.4</ele><time>2026-05-01T09:23:35.405Z</time></trkpt><trkpt lat="44.8040486" lon="6.5678882"><ele>1139.8000000000002</ele><time>2026-05-01T09:23:36.405Z</time></trkpt><trkpt lat="44.8039554" lon="6.5679449"><ele>1141.2</ele><time>2026-05-01T09:23:37.405Z</time></trkpt><trkpt lat="44.803879" lon="6.5680072"><ele>1142.6000000000001</ele><time>2026-05-01T09:23:38.405Z</time></trkpt><trkpt lat="44.8038175" lon="6.5680601"><ele>1144.0</ele><time>2026-05-01T09:23:39.405Z</time></trkpt><trkpt lat="44.8037219" lon="6.568132"><ele>1144.0</ele><time>2026-05-01T09:23:41.406Z</time></trkpt><trkpt lat="44.8036236" lon="6.5681743"><ele>1144.0</ele><time>2026-05-01T09:23:43.405Z</time></trkpt><trkpt lat="44.8035134" lon="6.5681612"><ele>1144.0</ele><time>2026-05-01T09:23:45.405Z</time></trkpt><trkpt lat="44.8034606" lon="6.5681061"><ele>1144.0</ele><time>2026-05-01T09:23:46.405Z</time></trkpt><trkpt lat="44.803427" lon="6.568023"><ele>1144.0</ele><time>2026-05-01T09:23:47.406Z</time></trkpt><trkpt lat="44.8034299" lon="6.5679267"><ele>1144.0</ele><time>2026-05-01T09:23:48.405Z</time></trkpt><trkpt lat="44.8034645" lon="6.567841"><ele>1140.6000000000001</ele><time>2026-05-01T09:23:49.405Z</time></trkpt><trkpt lat="44.8035289" lon="6.5677727"><ele>1137.2</ele><time>2026-05-01T09:23:50.405Z</time></trkpt><trkpt lat="44.8036161" lon="6.5677264"><ele>1133.8000000000002</ele><time>2026-05-01T09:23:51.405Z</time></trkpt><trkpt lat="44.8037229" lon="6.5676968"><ele>1130.4</ele><time>2026-05-01T09:23:52.405Z</time></trkpt><trkpt lat="44.8038426" lon="6.567669"><ele>1127.0</ele><time>2026-05-01T09:23:53.405Z</time></trkpt><trkpt lat="44.8039807" lon="6.5676356"><ele>1127.0</ele><time>2026-05-01T09:23:54.405Z</time></trkpt><trkpt lat="44.8041357" lon="6.5676038"><ele>1127.0</ele><time>2026-05-01T09:23:55.406Z</time></trkpt><trkpt lat="44.8042939" lon="6.5675726"><ele>1127.0</ele><time>2026-05-01T09:23:56.405Z</time></trkpt><trkpt lat="44.8044494" lon="6.5675385"><ele>1130.3333333333335</ele><time>2026-05-01T09:23:57.406Z</time></trkpt><trkpt lat="44.8046032" lon="6.5675055"><ele>1133.6666666666667</ele><time>2026-05-01T09:23:58.405Z</time></trkpt><trkpt lat="44.8047544" lon="6.5674735"><ele>1137.0</ele><time>2026-05-01T09:23:59.405Z</time></trkpt><trkpt lat="44.8049019" lon="6.567419"><ele>1137.0</ele><time>2026-05-01T09:24:00.406Z</time></trkpt><trkpt lat="44.805047" lon="6.5673265"><ele>1137.0</ele><time>2026-05-01T09:24:01.405Z</time></trkpt><trkpt lat="44.8051779" lon="6.5671954"><ele>1137.0</ele><time>2026-05-01T09:24:02.405Z</time></trkpt><trkpt lat="44.8052916" lon="6.5670374"><ele>1133.0</ele><time>2026-05-01T09:24:03.405Z</time></trkpt><trkpt lat="44.8053936" lon="6.5668698"><ele>1129.0</ele><time>2026-05-01T09:24:04.405Z</time></trkpt><trkpt lat="44.8054868" lon="6.5667074"><ele>1125.0</ele><time>2026-05-01T09:24:05.406Z</time></trkpt><trkpt lat="44.8055713" lon="6.566572"><ele>1121.0</ele><time>2026-05-01T09:24:06.406Z</time></trkpt><trkpt lat="44.805663" lon="6.5664585"><ele>1121.0</ele><time>2026-05-01T09:24:07.406Z</time></trkpt><trkpt lat="44.8057685" lon="6.5663723"><ele>1121.0</ele><time>2026-05-01T09:24:08.405Z</time></trkpt><trkpt lat="44.8058797" lon="6.5663117"><ele>1121.0</ele><time>2026-05-01T09:24:09.405Z</time></trkpt><trkpt lat="44.8059843" lon="6.5662706"><ele>1121.0</ele><time>2026-05-01T09:24:10.405Z</time></trkpt><trkpt lat="44.8060801" lon="6.5662441"><ele>1121.0</ele><time>2026-05-01T09:24:11.406Z</time></trkpt><trkpt lat="44.8061676" lon="6.566227"><ele>1119.5714285714287</ele><time>2026-05-01T09:24:12.406Z</time></trkpt><trkpt lat="44.8062521" lon="6.5662089"><ele>1118.142857142857</ele><time>2026-05-01T09:24:13.405Z</time></trkpt><trkpt lat="44.8063299" lon="6.5662004"><ele>1116.7142857142858</ele><time>2026-05-01T09:24:14.405Z</time></trkpt><trkpt lat="44.8064058" lon="6.5661948"><ele>1115.2857142857142</ele><time>2026-05-01T09:24:15.406Z</time></trkpt><trkpt lat="44.8064794" lon="6.5661876"><ele>1113.857142857143</ele><time>2026-05-01T09:24:16.405Z</time></trkpt><trkpt lat="44.8065494" lon="6.5661783"><ele>1112.4285714285716</ele><time>2026-05-01T09:24:17.405Z</time></trkpt><trkpt lat="44.8066138" lon="6.56616"><ele>1111.0</ele><time>2026-05-01T09:24:18.406Z</time></trkpt><trkpt lat="44.8066721" lon="6.5661222"><ele>1111.0</ele><time>2026-05-01T09:24:19.405Z</time></trkpt><trkpt lat="44.8067212" lon="6.5660592"><ele>1111.0</ele><time>2026-05-01T09:24:20.405Z</time></trkpt><trkpt lat="44.8067508" lon="6.5659659"><ele>1111.0</ele><time>2026-05-01T09:24:21.405Z</time></trkpt><trkpt lat="44.8067532" lon="6.5658561"><ele>1111.0</ele><time>2026-05-01T09:24:22.405Z</time></trkpt><trkpt lat="44.8067214" lon="6.5657497"><ele>1111.0</ele><time>2026-05-01T09:24:23.405Z</time></trkpt><trkpt lat="44.8066578" lon="6.5656743"><ele>1111.0</ele><time>2026-05-01T09:24:24.406Z</time></trkpt><trkpt lat="44.8065701" lon="6.5656405"><ele>1111.0</ele><time>2026-05-01T09:24:25.405Z</time></trkpt><trkpt lat="44.8064666" lon="6.5656533"><ele>1111.0</ele><time>2026-05-01T09:24:26.405Z</time></trkpt><trkpt lat="44.8063552" lon="6.5656911"><ele>1111.0</ele><time>2026-05-01T09:24:27.405Z</time></trkpt><trkpt lat="44.8062373" lon="6.5657335"><ele>1111.0</ele><time>2026-05-01T09:24:28.406Z</time></trkpt><trkpt lat="44.8061158" lon="6.5657421"><ele>1108.5</ele><time>2026-05-01T09:24:29.405Z</time></trkpt><trkpt lat="44.8059843" lon="6.565735"><ele>1106.0</ele><time>2026-05-01T09:24:30.405Z</time></trkpt><trkpt lat="44.8058463" lon="6.5657155"><ele>1103.5</ele><time>2026-05-01T09:24:31.405Z</time></trkpt><trkpt lat="44.8057047" lon="6.5656789"><ele>1101.0</ele><time>2026-05-01T09:24:32.405Z</time></trkpt><trkpt lat="44.8055635" lon="6.5656238"><ele>1101.0</ele><time>2026-05-01T09:24:33.405Z</time></trkpt><trkpt lat="44.8054184" lon="6.5655503"><ele>1101.0</ele><time>2026-05-01T09:24:34.406Z</time></trkpt><trkpt lat="44.8052652" lon="6.5654833"><ele>1101.0</ele><time>2026-05-01T09:24:35.405Z</time></trkpt><trkpt lat="44.8050973" lon="6.5654335"><ele>1100.3333333333333</ele><time>2026-05-01T09:24:36.406Z</time></trkpt><trkpt lat="44.8049241" lon="6.5653933"><ele>1099.6666666666665</ele><time>2026-05-01T09:24:37.405Z</time></trkpt><trkpt lat="44.8047563" lon="6.565352"><ele>1099.0</ele><time>2026-05-01T09:24:38.405Z</time></trkpt><trkpt lat="44.8045977" lon="6.565314"><ele>1093.75</ele><time>2026-05-01T09:24:39.405Z</time></trkpt><trkpt lat="44.8044525" lon="6.5652843"><ele>1088.5</ele><time>2026-05-01T09:24:40.405Z</time></trkpt><trkpt lat="44.8043135" lon="6.5652718"><ele>1083.25</ele><time>2026-05-01T09:24:41.405Z</time></trkpt><trkpt lat="44.8041748" lon="6.5652855"><ele>1078.0</ele><time>2026-05-01T09:24:42.405Z</time></trkpt><trkpt lat="44.8040398" lon="6.5653146"><ele>1083.0</ele><time>2026-05-01T09:24:43.405Z</time></trkpt><trkpt lat="44.8039075" lon="6.5653662"><ele>1088.0</ele><time>2026-05-01T09:24:44.405Z</time></trkpt><trkpt lat="44.8037777" lon="6.5654302"><ele>1093.0</ele><time>2026-05-01T09:24:45.405Z</time></trkpt><trkpt lat="44.8036458" lon="6.5655021"><ele>1098.0</ele><time>2026-05-01T09:24:46.405Z</time></trkpt><trkpt lat="44.8035126" lon="6.5655771"><ele>1094.5</ele><time>2026-05-01T09:24:47.405Z</time></trkpt><trkpt lat="44.8033819" lon="6.5656587"><ele>1091.0</ele><time>2026-05-01T09:24:48.405Z</time></trkpt><trkpt lat="44.8032509" lon="6.5657356"><ele>1087.5</ele><time>2026-05-01T09:24:49.405Z</time></trkpt><trkpt lat="44.8031216" lon="6.5658106"><ele>1084.0</ele><time>2026-05-01T09:24:50.406Z</time></trkpt><trkpt lat="44.8029992" lon="6.5658737"><ele>1084.0</ele><time>2026-05-01T09:24:51.405Z</time></trkpt><trkpt lat="44.8028766" lon="6.5659238"><ele>1084.0</ele><time>2026-05-01T09:24:52.405Z</time></trkpt><trkpt lat="44.8027503" lon="6.5659612"><ele>1084.0</ele><time>2026-05-01T09:24:53.405Z</time></trkpt><trkpt lat="44.8026252" lon="6.5659884"><ele>1084.0</ele><time>2026-05-01T09:24:54.406Z</time></trkpt><trkpt lat="44.8025071" lon="6.5660049"><ele>1080.5</ele><time>2026-05-01T09:24:55.406Z</time></trkpt><trkpt lat="44.8023941" lon="6.5660145"><ele>1077.0</ele><time>2026-05-01T09:24:56.405Z</time></trkpt><trkpt lat="44.8022795" lon="6.5660221"><ele>1073.5</ele><time>2026-05-01T09:24:57.405Z</time></trkpt><trkpt lat="44.8021657" lon="6.566029"><ele>1070.0</ele><time>2026-05-01T09:24:58.405Z</time></trkpt><trkpt lat="44.802052" lon="6.5660327"><ele>1070.0</ele><time>2026-05-01T09:24:59.406Z</time></trkpt><trkpt lat="44.8019357" lon="6.5660313"><ele>1070.0</ele><time>2026-05-01T09:25:00.405Z</time></trkpt><trkpt lat="44.801815" lon="6.5660249"><ele>1070.0</ele><time>2026-05-01T09:25:01.405Z</time></trkpt><trkpt lat="44.8016849" lon="6.5660197"><ele>1070.0</ele><time>2026-05-01T09:25:02.405Z</time></trkpt><trkpt lat="44.8015529" lon="6.5660193"><ele>1068.25</ele><time>2026-05-01T09:25:03.406Z</time></trkpt><trkpt lat="44.8014163" lon="6.5660255"><ele>1066.5</ele><time>2026-05-01T09:25:04.405Z</time></trkpt><trkpt lat="44.8012736" lon="6.5660324"><ele>1064.75</ele><time>2026-05-01T09:25:05.405Z</time></trkpt><trkpt lat="44.8011333" lon="6.5660389"><ele>1063.0</ele><time>2026-05-01T09:25:06.405Z</time></trkpt><trkpt lat="44.8009936" lon="6.5660427"><ele>1061.75</ele><time>2026-05-01T09:25:07.405Z</time></trkpt><trkpt lat="44.8008567" lon="6.5660425"><ele>1060.5</ele><time>2026-05-01T09:25:08.405Z</time></trkpt><trkpt lat="44.8007317" lon="6.566038"><ele>1059.25</ele><time>2026-05-01T09:25:09.405Z</time></trkpt><trkpt lat="44.8006202" lon="6.5660314"><ele>1058.0</ele><time>2026-05-01T09:25:10.406Z</time></trkpt><trkpt lat="44.8005093" lon="6.5660236"><ele>1058.0</ele><time>2026-05-01T09:25:11.405Z</time></trkpt><trkpt lat="44.8004015" lon="6.566015"><ele>1058.0</ele><time>2026-05-01T09:25:12.405Z</time></trkpt><trkpt lat="44.8002947" lon="6.5660066"><ele>1058.0</ele><time>2026-05-01T09:25:13.406Z</time></trkpt><trkpt lat="44.8001864" lon="6.5659925"><ele>1058.0</ele><time>2026-05-01T09:25:14.405Z</time></trkpt><trkpt lat="44.8000741" lon="6.5659731"><ele>1058.0</ele><time>2026-05-01T09:25:15.406Z</time></trkpt><trkpt lat="44.7999568" lon="6.5659498"><ele>1056.5</ele><time>2026-05-01T09:25:16.405Z</time></trkpt><trkpt lat="44.7998369" lon="6.5659281"><ele>1055.0</ele><time>2026-05-01T09:25:17.405Z</time></trkpt><trkpt lat="44.7997215" lon="6.5659014"><ele>1053.5</ele><time>2026-05-01T09:25:18.405Z</time></trkpt><trkpt lat="44.7996084" lon="6.565864"><ele>1052.0</ele><time>2026-05-01T09:25:19.406Z</time></trkpt><trkpt lat="44.7994998" lon="6.5658197"><ele>1052.0</ele><time>2026-05-01T09:25:20.406Z</time></trkpt><trkpt lat="44.7993936" lon="6.5657685"><ele>1052.0</ele><time>2026-05-01T09:25:21.405Z</time></trkpt><trkpt lat="44.7992941" lon="6.5657104"><ele>1052.0</ele><time>2026-05-01T09:25:22.405Z</time></trkpt><trkpt lat="44.799198" lon="6.5656455"><ele>1052.0</ele><time>2026-05-01T09:25:23.405Z</time></trkpt><trkpt lat="44.7991058" lon="6.5655748"><ele>1052.0</ele><time>2026-05-01T09:25:24.405Z</time></trkpt><trkpt lat="44.7990154" lon="6.5654943"><ele>1052.0</ele><time>2026-05-01T09:25:25.405Z</time></trkpt><trkpt lat="44.7989259" lon="6.5654058"><ele>1052.0</ele><time>2026-05-01T09:25:26.406Z</time></trkpt><trkpt lat="44.7988403" lon="6.5653082"><ele>1052.0</ele><time>2026-05-01T09:25:27.405Z</time></trkpt><trkpt lat="44.7987586" lon="6.5652054"><ele>1052.0</ele><time>2026-05-01T09:25:28.405Z</time></trkpt><trkpt lat="44.7986823" lon="6.5651052"><ele>1052.0</ele><time>2026-05-01T09:25:29.405Z</time></trkpt><trkpt lat="44.7986115" lon="6.5650003"><ele>1051.2</ele><time>2026-05-01T09:25:30.406Z</time></trkpt><trkpt lat="44.7985433" lon="6.5648967"><ele>1050.4</ele><time>2026-05-01T09:25:31.405Z</time></trkpt><trkpt lat="44.7984781" lon="6.5647913"><ele>1049.6</ele><time>2026-05-01T09:25:32.405Z</time></trkpt><trkpt lat="44.79841" lon="6.564686"><ele>1048.8</ele><time>2026-05-01T09:25:33.405Z</time></trkpt><trkpt lat="44.7983433" lon="6.5645831"><ele>1048.0</ele><time>2026-05-01T09:25:34.406Z</time></trkpt><trkpt lat="44.7982749" lon="6.5644867"><ele>1045.6</ele><time>2026-05-01T09:25:35.405Z</time></trkpt><trkpt lat="44.7982088" lon="6.564389"><ele>1043.1999999999998</ele><time>2026-05-01T09:25:36.405Z</time></trkpt><trkpt lat="44.7981416" lon="6.5642881"><ele>1040.8</ele><time>2026-05-01T09:25:37.405Z</time></trkpt><trkpt lat="44.7980707" lon="6.564185"><ele>1038.3999999999999</ele><time>2026-05-01T09:25:38.405Z</time></trkpt><trkpt lat="44.7980006" lon="6.5640824"><ele>1036.0</ele><time>2026-05-01T09:25:39.405Z</time></trkpt><trkpt lat="44.7979282" lon="6.5639876"><ele>1036.0</ele><time>2026-05-01T09:25:40.405Z</time></trkpt><trkpt lat="44.7978534" lon="6.5639013"><ele>1036.0</ele><time>2026-05-01T09:25:41.405Z</time></trkpt><trkpt lat="44.7977732" lon="6.5638152"><ele>1036.0</ele><time>2026-05-01T09:25:42.406Z</time></trkpt><trkpt lat="44.7976869" lon="6.5637346"><ele>1036.0</ele><time>2026-05-01T09:25:43.405Z</time></trkpt><trkpt lat="44.7975969" lon="6.5636616"><ele>1036.0</ele><time>2026-05-01T09:25:44.405Z</time></trkpt><trkpt lat="44.7975067" lon="6.56359"><ele>1034.2</ele><time>2026-05-01T09:25:45.405Z</time></trkpt><trkpt lat="44.7974186" lon="6.5635202"><ele>1032.3999999999999</ele><time>2026-05-01T09:25:46.405Z</time></trkpt><trkpt lat="44.7973322" lon="6.5634488"><ele>1030.6</ele><time>2026-05-01T09:25:47.405Z</time></trkpt><trkpt lat="44.7972447" lon="6.5633759"><ele>1028.8</ele><time>2026-05-01T09:25:48.406Z</time></trkpt><trkpt lat="44.7971566" lon="6.563312"><ele>1027.0</ele><time>2026-05-01T09:25:49.405Z</time></trkpt><trkpt lat="44.79707" lon="6.5632506"><ele>1027.0</ele><time>2026-05-01T09:25:50.405Z</time></trkpt><trkpt lat="44.7969819" lon="6.5631882"><ele>1027.0</ele><time>2026-05-01T09:25:51.405Z</time></trkpt><trkpt lat="44.7968939" lon="6.5631291"><ele>1027.0</ele><time>2026-05-01T09:25:52.405Z</time></trkpt><trkpt lat="44.7968069" lon="6.5630744"><ele>1027.0</ele><time>2026-05-01T09:25:53.405Z</time></trkpt><trkpt lat="44.7967189" lon="6.5630213"><ele>1027.0</ele><time>2026-05-01T09:25:54.405Z</time></trkpt><trkpt lat="44.7966326" lon="6.5629706"><ele>1027.2</ele><time>2026-05-01T09:25:55.405Z</time></trkpt><trkpt lat="44.7965468" lon="6.5629238"><ele>1027.4</ele><time>2026-05-01T09:25:56.405Z</time></trkpt><trkpt lat="44.7964591" lon="6.5628858"><ele>1027.6</ele><time>2026-05-01T09:25:57.405Z</time></trkpt><trkpt lat="44.7963693" lon="6.5628466"><ele>1027.8</ele><time>2026-05-01T09:25:58.405Z</time></trkpt><trkpt lat="44.7962808" lon="6.5628088"><ele>1028.0</ele><time>2026-05-01T09:25:59.406Z</time></trkpt><trkpt lat="44.7961957" lon="6.5627809"><ele>1026.0</ele><time>2026-05-01T09:26:00.405Z</time></trkpt><trkpt lat="44.7961122" lon="6.562752"><ele>1024.0</ele><time>2026-05-01T09:26:01.405Z</time></trkpt><trkpt lat="44.7960295" lon="6.5627259"><ele>1022.0</ele><time>2026-05-01T09:26:02.405Z</time></trkpt><trkpt lat="44.7959462" lon="6.5627032"><ele>1020.0</ele><time>2026-05-01T09:26:03.405Z</time></trkpt><trkpt lat="44.7958616" lon="6.5626851"><ele>1018.0000000000001</ele><time>2026-05-01T09:26:04.405Z</time></trkpt><trkpt lat="44.7957709" lon="6.5626688"><ele>1016.0</ele><time>2026-05-01T09:26:05.405Z</time></trkpt><trkpt lat="44.7956725" lon="6.5626558"><ele>1015.5999999999999</ele><time>2026-05-01T09:26:06.405Z</time></trkpt><trkpt lat="44.7955656" lon="6.5626507"><ele>1015.1999999999999</ele><time>2026-05-01T09:26:07.405Z</time></trkpt><trkpt lat="44.7954583" lon="6.5626363"><ele>1014.8000000000001</ele><time>2026-05-01T09:26:08.406Z</time></trkpt><trkpt lat="44.7953549" lon="6.5626149"><ele>1014.4000000000001</ele><time>2026-05-01T09:26:09.405Z</time></trkpt><trkpt lat="44.7952555" lon="6.5625979"><ele>1014.0</ele><time>2026-05-01T09:26:10.406Z</time></trkpt><trkpt lat="44.7951579" lon="6.5625846"><ele>1012.8333333333334</ele><time>2026-05-01T09:26:11.405Z</time></trkpt><trkpt lat="44.7950596" lon="6.5625691"><ele>1011.6666666666667</ele><time>2026-05-01T09:26:12.405Z</time></trkpt><trkpt lat="44.7949659" lon="6.5625611"><ele>1010.5</ele><time>2026-05-01T09:26:13.405Z</time></trkpt><trkpt lat="44.7948782" lon="6.5625522"><ele>1009.3333333333334</ele><time>2026-05-01T09:26:14.406Z</time></trkpt><trkpt lat="44.7947971" lon="6.5625469"><ele>1008.1666666666667</ele><time>2026-05-01T09:26:15.405Z</time></trkpt><trkpt lat="44.7947199" lon="6.5625456"><ele>1007.0</ele><time>2026-05-01T09:26:16.405Z</time></trkpt><trkpt lat="44.7946389" lon="6.5625448"><ele>1007.0</ele><time>2026-05-01T09:26:17.405Z</time></trkpt><trkpt lat="44.7945479" lon="6.5625429"><ele>1007.0</ele><time>2026-05-01T09:26:18.405Z</time></trkpt><trkpt lat="44.7944526" lon="6.562544"><ele>1007.0</ele><time>2026-05-01T09:26:19.405Z</time></trkpt><trkpt lat="44.7943558" lon="6.562545"><ele>1007.0</ele><time>2026-05-01T09:26:20.405Z</time></trkpt><trkpt lat="44.794254" lon="6.5625359"><ele>1007.0</ele><time>2026-05-01T09:26:21.405Z</time></trkpt><trkpt lat="44.7941494" lon="6.5625177"><ele>1005.5</ele><time>2026-05-01T09:26:22.405Z</time></trkpt><trkpt lat="44.7940375" lon="6.5624988"><ele>1004.0</ele><time>2026-05-01T09:26:23.405Z</time></trkpt><trkpt lat="44.7939226" lon="6.5624777"><ele>1002.5</ele><time>2026-05-01T09:26:24.405Z</time></trkpt><trkpt lat="44.7938013" lon="6.56246"><ele>1001.0</ele><time>2026-05-01T09:26:25.405Z</time></trkpt><trkpt lat="44.7936735" lon="6.5624339"><ele>1001.0</ele><time>2026-05-01T09:26:26.405Z</time></trkpt><trkpt lat="44.7935392" lon="6.562404"><ele>1001.0</ele><time>2026-05-01T09:26:27.405Z</time></trkpt><trkpt lat="44.7934048" lon="6.5623789"><ele>1001.0</ele><time>2026-05-01T09:26:28.406Z</time></trkpt><trkpt lat="44.7932689" lon="6.5623556"><ele>1001.0</ele><time>2026-05-01T09:26:29.406Z</time></trkpt><trkpt lat="44.7931343" lon="6.5623306"><ele>1001.0</ele><time>2026-05-01T09:26:30.405Z</time></trkpt><trkpt lat="44.7930011" lon="6.5623017"><ele>1001.0</ele><time>2026-05-01T09:26:31.405Z</time></trkpt><trkpt lat="44.7928692" lon="6.5622739"><ele>1001.0</ele><time>2026-05-01T09:26:32.405Z</time></trkpt><trkpt lat="44.7927363" lon="6.5622507"><ele>1001.0</ele><time>2026-05-01T09:26:33.406Z</time></trkpt><trkpt lat="44.7926008" lon="6.562224"><ele>1000.75</ele><time>2026-05-01T09:26:34.405Z</time></trkpt><trkpt lat="44.7924642" lon="6.5621973"><ele>1000.5</ele><time>2026-05-01T09:26:35.405Z</time></trkpt><trkpt lat="44.7923244" lon="6.5621731"><ele>1000.25</ele><time>2026-05-01T09:26:36.405Z</time></trkpt><trkpt lat="44.7921814" lon="6.562143"><ele>1000.0</ele><time>2026-05-01T09:26:37.405Z</time></trkpt><trkpt lat="44.7920372" lon="6.5621111"><ele>1000.0</ele><time>2026-05-01T09:26:38.405Z</time></trkpt><trkpt lat="44.7918922" lon="6.5620813"><ele>1000.0</ele><time>2026-05-01T09:26:39.406Z</time></trkpt><trkpt lat="44.7917445" lon="6.5620587"><ele>1000.0</ele><time>2026-05-01T09:26:40.405Z</time></trkpt><trkpt lat="44.7915964" lon="6.5620322"><ele>1000.0</ele><time>2026-05-01T09:26:41.405Z</time></trkpt><trkpt lat="44.7914495" lon="6.562003"><ele>996.25</ele><time>2026-05-01T09:26:42.405Z</time></trkpt><trkpt lat="44.7913036" lon="6.561976"><ele>992.5</ele><time>2026-05-01T09:26:43.405Z</time></trkpt><trkpt lat="44.7911581" lon="6.5619496"><ele>988.75</ele><time>2026-05-01T09:26:44.405Z</time></trkpt><trkpt lat="44.7910149" lon="6.5619205"><ele>985.0</ele><time>2026-05-01T09:26:45.405Z</time></trkpt><trkpt lat="44.7908735" lon="6.5618913"><ele>983.75</ele><time>2026-05-01T09:26:46.405Z</time></trkpt><trkpt lat="44.7907319" lon="6.5618642"><ele>982.5</ele><time>2026-05-01T09:26:47.405Z</time></trkpt><trkpt lat="44.7905872" lon="6.5618333"><ele>981.25</ele><time>2026-05-01T09:26:48.405Z</time></trkpt><trkpt lat="44.7904407" lon="6.5617945"><ele>980.0</ele><time>2026-05-01T09:26:49.405Z</time></trkpt><trkpt lat="44.7902922" lon="6.5617508"><ele>979.0</ele><time>2026-05-01T09:26:50.405Z</time></trkpt><trkpt lat="44.7901412" lon="6.5617124"><ele>978.0</ele><time>2026-05-01T09:26:51.405Z</time></trkpt><trkpt lat="44.7899851" lon="6.5616769"><ele>977.0</ele><time>2026-05-01T09:26:52.405Z</time></trkpt><trkpt lat="44.7898236" lon="6.56164"><ele>977.0</ele><time>2026-05-01T09:26:53.405Z</time></trkpt><trkpt lat="44.7896589" lon="6.561602"><ele>977.0</ele><time>2026-05-01T09:26:54.405Z</time></trkpt><trkpt lat="44.7894938" lon="6.5615643"><ele>977.0</ele><time>2026-05-01T09:26:55.405Z</time></trkpt><trkpt lat="44.7893309" lon="6.5615304"><ele>977.3333333333334</ele><time>2026-05-01T09:26:56.405Z</time></trkpt><trkpt lat="44.7891709" lon="6.5614992"><ele>977.6666666666667</ele><time>2026-05-01T09:26:57.406Z</time></trkpt><trkpt lat="44.7890176" lon="6.5614671"><ele>978.0</ele><time>2026-05-01T09:26:58.405Z</time></trkpt><trkpt lat="44.788869" lon="6.5614345"><ele>978.0</ele><time>2026-05-01T09:26:59.406Z</time></trkpt><trkpt lat="44.7887254" lon="6.5614025"><ele>978.0</ele><time>2026-05-01T09:27:00.405Z</time></trkpt><trkpt lat="44.7885808" lon="6.5613723"><ele>978.0</ele><time>2026-05-01T09:27:01.406Z</time></trkpt><trkpt lat="44.7884197" lon="6.5613393"><ele>978.6666666666667</ele><time>2026-05-01T09:27:02.406Z</time></trkpt><trkpt lat="44.7882459" lon="6.5613041"><ele>979.3333333333334</ele><time>2026-05-01T09:27:03.405Z</time></trkpt><trkpt lat="44.788055" lon="6.56127"><ele>980.0</ele><time>2026-05-01T09:27:04.405Z</time></trkpt><trkpt lat="44.7878478" lon="6.5612375"><ele>981.5</ele><time>2026-05-01T09:27:05.405Z</time></trkpt><trkpt lat="44.787627" lon="6.5612043"><ele>983.0</ele><time>2026-05-01T09:27:06.405Z</time></trkpt><trkpt lat="44.7873972" lon="6.5611731"><ele>980.0</ele><time>2026-05-01T09:27:07.405Z</time></trkpt><trkpt lat="44.787166" lon="6.5611401"><ele>977.0</ele><time>2026-05-01T09:27:08.405Z</time></trkpt><trkpt lat="44.786946" lon="6.5611039"><ele>978.0</ele><time>2026-05-01T09:27:09.405Z</time></trkpt><trkpt lat="44.7867301" lon="6.5610648"><ele>979.0</ele><time>2026-05-01T09:27:10.405Z</time></trkpt><trkpt lat="44.7865215" lon="6.5610261"><ele>980.0</ele><time>2026-05-01T09:27:11.405Z</time></trkpt><trkpt lat="44.7863178" lon="6.5609894"><ele>980.0</ele><time>2026-05-01T09:27:12.405Z</time></trkpt><trkpt lat="44.7861196" lon="6.5609508"><ele>980.0</ele><time>2026-05-01T09:27:13.405Z</time></trkpt><trkpt lat="44.7859227" lon="6.5609111"><ele>980.0</ele><time>2026-05-01T09:27:14.404Z</time></trkpt><trkpt lat="44.7857283" lon="6.5608723"><ele>983.3333333333334</ele><time>2026-05-01T09:27:15.404Z</time></trkpt><trkpt lat="44.7855387" lon="6.5608329"><ele>986.6666666666667</ele><time>2026-05-01T09:27:16.405Z</time></trkpt><trkpt lat="44.7853589" lon="6.5607964"><ele>990.0</ele><time>2026-05-01T09:27:17.405Z</time></trkpt><trkpt lat="44.7851858" lon="6.5607636"><ele>991.3333333333333</ele><time>2026-05-01T09:27:18.404Z</time></trkpt><trkpt lat="44.7850177" lon="6.5607296"><ele>992.6666666666666</ele><time>2026-05-01T09:27:19.405Z</time></trkpt><trkpt lat="44.784853" lon="6.5606959"><ele>994.0</ele><time>2026-05-01T09:27:20.404Z</time></trkpt><trkpt lat="44.7846956" lon="6.5606642"><ele>994.0</ele><time>2026-05-01T09:27:21.404Z</time></trkpt><trkpt lat="44.7845407" lon="6.5606364"><ele>994.0</ele><time>2026-05-01T09:27:22.404Z</time></trkpt><trkpt lat="44.7843804" lon="6.5606102"><ele>994.0</ele><time>2026-05-01T09:27:23.404Z</time></trkpt><trkpt lat="44.7842161" lon="6.560589"><ele>995.0</ele><time>2026-05-01T09:27:24.406Z</time></trkpt><trkpt lat="44.7840476" lon="6.5605707"><ele>996.0</ele><time>2026-05-01T09:27:25.404Z</time></trkpt><trkpt lat="44.7838724" lon="6.560555"><ele>997.0</ele><time>2026-05-01T09:27:26.404Z</time></trkpt><trkpt lat="44.7836934" lon="6.5605443"><ele>996.0</ele><time>2026-05-01T09:27:27.404Z</time></trkpt><trkpt lat="44.7835117" lon="6.5605411"><ele>995.0</ele><time>2026-05-01T09:27:28.404Z</time></trkpt><trkpt lat="44.7833255" lon="6.560548"><ele>994.0</ele><time>2026-05-01T09:27:29.404Z</time></trkpt><trkpt lat="44.783135" lon="6.5605668"><ele>994.0</ele><time>2026-05-01T09:27:30.404Z</time></trkpt><trkpt lat="44.7829423" lon="6.5605961"><ele>994.0</ele><time>2026-05-01T09:27:31.404Z</time></trkpt><trkpt lat="44.7827432" lon="6.5606346"><ele>994.0</ele><time>2026-05-01T09:27:32.404Z</time></trkpt><trkpt lat="44.7825393" lon="6.5606808"><ele>992.0</ele><time>2026-05-01T09:27:33.404Z</time></trkpt><trkpt lat="44.7823368" lon="6.5607329"><ele>990.0</ele><time>2026-05-01T09:27:34.404Z</time></trkpt><trkpt lat="44.7821337" lon="6.5607968"><ele>988.0</ele><time>2026-05-01T09:27:35.404Z</time></trkpt><trkpt lat="44.7819329" lon="6.5608729"><ele>984.6666666666666</ele><time>2026-05-01T09:27:36.404Z</time></trkpt><trkpt lat="44.7817368" lon="6.5609511"><ele>981.3333333333333</ele><time>2026-05-01T09:27:37.404Z</time></trkpt><trkpt lat="44.7815406" lon="6.5610247"><ele>978.0</ele><time>2026-05-01T09:27:38.405Z</time></trkpt><trkpt lat="44.7813347" lon="6.5610815"><ele>978.0</ele><time>2026-05-01T09:27:39.404Z</time></trkpt><trkpt lat="44.7811225" lon="6.5611126"><ele>978.0</ele><time>2026-05-01T09:27:40.404Z</time></trkpt><trkpt lat="44.7809101" lon="6.5611176"><ele>978.0</ele><time>2026-05-01T09:27:41.404Z</time></trkpt><trkpt lat="44.7807033" lon="6.5611079"><ele>977.0</ele><time>2026-05-01T09:27:42.405Z</time></trkpt><trkpt lat="44.7805007" lon="6.561085"><ele>976.0</ele><time>2026-05-01T09:27:43.405Z</time></trkpt><trkpt lat="44.7803009" lon="6.5610414"><ele>975.0</ele><time>2026-05-01T09:27:44.404Z</time></trkpt><trkpt lat="44.7801046" lon="6.5609816"><ele>975.0</ele><time>2026-05-01T09:27:45.404Z</time></trkpt><trkpt lat="44.7799098" lon="6.5609186"><ele>975.0</ele><time>2026-05-01T09:27:46.405Z</time></trkpt><trkpt lat="44.7797104" lon="6.5608516"><ele>975.0</ele><time>2026-05-01T09:27:47.404Z</time></trkpt><trkpt lat="44.7795063" lon="6.5607757"><ele>976.6666666666667</ele><time>2026-05-01T09:27:48.404Z</time></trkpt><trkpt lat="44.7793003" lon="6.5606969"><ele>978.3333333333334</ele><time>2026-05-01T09:27:49.405Z</time></trkpt><trkpt lat="44.7790976" lon="6.5606159"><ele>980.0</ele><time>2026-05-01T09:27:50.404Z</time></trkpt><trkpt lat="44.7789009" lon="6.560535"><ele>980.0</ele><time>2026-05-01T09:27:51.404Z</time></trkpt><trkpt lat="44.7787105" lon="6.5604536"><ele>980.0</ele><time>2026-05-01T09:27:52.405Z</time></trkpt><trkpt lat="44.7785267" lon="6.5603745"><ele>980.0</ele><time>2026-05-01T09:27:53.404Z</time></trkpt><trkpt lat="44.7783444" lon="6.5602991"><ele>974.0</ele><time>2026-05-01T09:27:54.404Z</time></trkpt><trkpt lat="44.7781632" lon="6.5602275"><ele>968.0</ele><time>2026-05-01T09:27:55.405Z</time></trkpt><trkpt lat="44.7779828" lon="6.5601594"><ele>962.0</ele><time>2026-05-01T09:27:56.404Z</time></trkpt><trkpt lat="44.7778012" lon="6.5600995"><ele>962.6666666666667</ele><time>2026-05-01T09:27:57.404Z</time></trkpt><trkpt lat="44.7776152" lon="6.5600585"><ele>963.3333333333333</ele><time>2026-05-01T09:27:58.405Z</time></trkpt><trkpt lat="44.7774158" lon="6.5600338"><ele>964.0</ele><time>2026-05-01T09:27:59.404Z</time></trkpt><trkpt lat="44.7771987" lon="6.5600106"><ele>964.0</ele><time>2026-05-01T09:28:00.404Z</time></trkpt><trkpt lat="44.7769802" lon="6.5599724"><ele>964.0</ele><time>2026-05-01T09:28:01.404Z</time></trkpt><trkpt lat="44.7767672" lon="6.5599296"><ele>964.0</ele><time>2026-05-01T09:28:02.404Z</time></trkpt><trkpt lat="44.7765577" lon="6.5598889"><ele>963.0</ele><time>2026-05-01T09:28:03.404Z</time></trkpt><trkpt lat="44.7763532" lon="6.5598567"><ele>962.0</ele><time>2026-05-01T09:28:04.405Z</time></trkpt><trkpt lat="44.7761532" lon="6.5598321"><ele>961.0</ele><time>2026-05-01T09:28:05.404Z</time></trkpt><trkpt lat="44.7759584" lon="6.5598094"><ele>964.6666666666666</ele><time>2026-05-01T09:28:06.404Z</time></trkpt><trkpt lat="44.775771" lon="6.5597873"><ele>968.3333333333333</ele><time>2026-05-01T09:28:07.405Z</time></trkpt><trkpt lat="44.7755895" lon="6.5597698"><ele>972.0</ele><time>2026-05-01T09:28:08.404Z</time></trkpt><trkpt lat="44.7754088" lon="6.5597621"><ele>972.0</ele><time>2026-05-01T09:28:09.404Z</time></trkpt><trkpt lat="44.7752211" lon="6.5597688"><ele>972.0</ele><time>2026-05-01T09:28:10.405Z</time></trkpt><trkpt lat="44.7750298" lon="6.5597926"><ele>972.0</ele><time>2026-05-01T09:28:11.404Z</time></trkpt><trkpt lat="44.7748363" lon="6.559826"><ele>971.0</ele><time>2026-05-01T09:28:12.405Z</time></trkpt><trkpt lat="44.7746381" lon="6.5598627"><ele>970.0</ele><time>2026-05-01T09:28:13.404Z</time></trkpt><trkpt lat="44.7744344" lon="6.5599003"><ele>969.0</ele><time>2026-05-01T09:28:14.404Z</time></trkpt><trkpt lat="44.7742256" lon="6.5599459"><ele>969.0</ele><time>2026-05-01T09:28:15.404Z</time></trkpt><trkpt lat="44.7740103" lon="6.5599984"><ele>969.0</ele><time>2026-05-01T09:28:16.404Z</time></trkpt><trkpt lat="44.7737961" lon="6.5600413"><ele>969.0</ele><time>2026-05-01T09:28:17.405Z</time></trkpt><trkpt lat="44.7735879" lon="6.5600731"><ele>966.0</ele><time>2026-05-01T09:28:18.404Z</time></trkpt><trkpt lat="44.773386" lon="6.5601007"><ele>963.0</ele><time>2026-05-01T09:28:19.404Z</time></trkpt><trkpt lat="44.7731911" lon="6.5601315"><ele>960.0</ele><time>2026-05-01T09:28:20.406Z</time></trkpt><trkpt lat="44.7730031" lon="6.5601713"><ele>960.0</ele><time>2026-05-01T09:28:21.404Z</time></trkpt><trkpt lat="44.7728195" lon="6.5602192"><ele>960.0</ele><time>2026-05-01T09:28:22.404Z</time></trkpt><trkpt lat="44.7726382" lon="6.5602807"><ele>960.0</ele><time>2026-05-01T09:28:23.404Z</time></trkpt><trkpt lat="44.7724554" lon="6.5603587"><ele>965.0</ele><time>2026-05-01T09:28:24.405Z</time></trkpt><trkpt lat="44.7722746" lon="6.5604527"><ele>970.0</ele><time>2026-05-01T09:28:25.404Z</time></trkpt><trkpt lat="44.7721031" lon="6.5605668"><ele>975.0</ele><time>2026-05-01T09:28:26.404Z</time></trkpt><trkpt lat="44.7719369" lon="6.5606957"><ele>969.0</ele><time>2026-05-01T09:28:27.404Z</time></trkpt><trkpt lat="44.7717739" lon="6.560835"><ele>963.0</ele><time>2026-05-01T09:28:28.404Z</time></trkpt><trkpt lat="44.7716122" lon="6.5609762"><ele>957.0</ele><time>2026-05-01T09:28:29.404Z</time></trkpt><trkpt lat="44.771446" lon="6.5611149"><ele>960.0</ele><time>2026-05-01T09:28:30.405Z</time></trkpt><trkpt lat="44.7712746" lon="6.5612532"><ele>963.0</ele><time>2026-05-01T09:28:31.404Z</time></trkpt><trkpt lat="44.7710983" lon="6.5613873"><ele>966.0</ele><time>2026-05-01T09:28:32.404Z</time></trkpt><trkpt lat="44.7709168" lon="6.561517"><ele>966.0</ele><time>2026-05-01T09:28:33.405Z</time></trkpt><trkpt lat="44.7707321" lon="6.5616455"><ele>966.0</ele><time>2026-05-01T09:28:34.404Z</time></trkpt><trkpt lat="44.7705451" lon="6.5617747"><ele>966.0</ele><time>2026-05-01T09:28:35.404Z</time></trkpt><trkpt lat="44.7703551" lon="6.5619058"><ele>966.6666666666667</ele><time>2026-05-01T09:28:36.405Z</time></trkpt><trkpt lat="44.7701603" lon="6.5620401"><ele>967.3333333333334</ele><time>2026-05-01T09:28:37.405Z</time></trkpt><trkpt lat="44.7699603" lon="6.5621799"><ele>968.0</ele><time>2026-05-01T09:28:38.404Z</time></trkpt><trkpt lat="44.7697538" lon="6.5623249"><ele>968.0</ele><time>2026-05-01T09:28:39.404Z</time></trkpt><trkpt lat="44.7695482" lon="6.5624679"><ele>968.0</ele><time>2026-05-01T09:28:40.404Z</time></trkpt><trkpt lat="44.769343" lon="6.5626118"><ele>969.3333333333334</ele><time>2026-05-01T09:28:41.404Z</time></trkpt><trkpt lat="44.7691433" lon="6.5627545"><ele>970.6666666666667</ele><time>2026-05-01T09:28:42.404Z</time></trkpt><trkpt lat="44.7689502" lon="6.5628943"><ele>972.0</ele><time>2026-05-01T09:28:43.404Z</time></trkpt><trkpt lat="44.7687623" lon="6.5630292"><ele>972.0</ele><time>2026-05-01T09:28:44.404Z</time></trkpt><trkpt lat="44.7685767" lon="6.563162"><ele>972.0</ele><time>2026-05-01T09:28:45.404Z</time></trkpt><trkpt lat="44.7683919" lon="6.5633035"><ele>972.0</ele><time>2026-05-01T09:28:46.404Z</time></trkpt><trkpt lat="44.7682078" lon="6.5634539"><ele>969.6666666666667</ele><time>2026-05-01T09:28:47.404Z</time></trkpt><trkpt lat="44.7680257" lon="6.5636149"><ele>967.3333333333334</ele><time>2026-05-01T09:28:48.404Z</time></trkpt><trkpt lat="44.7678443" lon="6.5637853"><ele>965.0</ele><time>2026-05-01T09:28:49.404Z</time></trkpt><trkpt lat="44.7676627" lon="6.5639654"><ele>961.3333333333334</ele><time>2026-05-01T09:28:50.404Z</time></trkpt><trkpt lat="44.7674836" lon="6.5641472"><ele>957.6666666666667</ele><time>2026-05-01T09:28:51.404Z</time></trkpt><trkpt lat="44.7673114" lon="6.5643283"><ele>954.0</ele><time>2026-05-01T09:28:52.404Z</time></trkpt><trkpt lat="44.7671406" lon="6.5645095"><ele>954.0</ele><time>2026-05-01T09:28:53.404Z</time></trkpt><trkpt lat="44.7669675" lon="6.5646911"><ele>954.0</ele><time>2026-05-01T09:28:54.404Z</time></trkpt><trkpt lat="44.766794" lon="6.5648734"><ele>954.0</ele><time>2026-05-01T09:28:55.404Z</time></trkpt><trkpt lat="44.766622" lon="6.5650579"><ele>954.0</ele><time>2026-05-01T09:28:56.404Z</time></trkpt><trkpt lat="44.7664485" lon="6.5652435"><ele>954.0</ele><time>2026-05-01T09:28:57.404Z</time></trkpt><trkpt lat="44.7662757" lon="6.5654255"><ele>954.0</ele><time>2026-05-01T09:28:58.404Z</time></trkpt><trkpt lat="44.7661069" lon="6.5656029"><ele>953.6666666666667</ele><time>2026-05-01T09:28:59.404Z</time></trkpt><trkpt lat="44.7659404" lon="6.5657786"><ele>953.3333333333334</ele><time>2026-05-01T09:29:00.405Z</time></trkpt><trkpt lat="44.7657753" lon="6.5659557"><ele>953.0</ele><time>2026-05-01T09:29:01.404Z</time></trkpt><trkpt lat="44.7656116" lon="6.5661341"><ele>952.6666666666667</ele><time>2026-05-01T09:29:02.405Z</time></trkpt><trkpt lat="44.7654468" lon="6.5663111"><ele>952.3333333333333</ele><time>2026-05-01T09:29:03.404Z</time></trkpt><trkpt lat="44.7652822" lon="6.5664892"><ele>952.0</ele><time>2026-05-01T09:29:04.404Z</time></trkpt><trkpt lat="44.7651181" lon="6.5666638"><ele>952.0</ele><time>2026-05-01T09:29:05.404Z</time></trkpt><trkpt lat="44.7649533" lon="6.5668354"><ele>952.0</ele><time>2026-05-01T09:29:06.405Z</time></trkpt><trkpt lat="44.7647896" lon="6.567005"><ele>952.0</ele><time>2026-05-01T09:29:07.404Z</time></trkpt><trkpt lat="44.7646265" lon="6.5671724"><ele>951.0</ele><time>2026-05-01T09:29:08.405Z</time></trkpt><trkpt lat="44.7644632" lon="6.5673421"><ele>950.0</ele><time>2026-05-01T09:29:09.404Z</time></trkpt><trkpt lat="44.7643017" lon="6.5675138"><ele>949.0</ele><time>2026-05-01T09:29:10.404Z</time></trkpt><trkpt lat="44.7641418" lon="6.5676865"><ele>949.0</ele><time>2026-05-01T09:29:11.404Z</time></trkpt><trkpt lat="44.7639807" lon="6.5678597"><ele>949.0</ele><time>2026-05-01T09:29:12.404Z</time></trkpt><trkpt lat="44.7638224" lon="6.5680257"><ele>949.0</ele><time>2026-05-01T09:29:13.405Z</time></trkpt><trkpt lat="44.763674" lon="6.5681777"><ele>949.0</ele><time>2026-05-01T09:29:14.405Z</time></trkpt><trkpt lat="44.7635342" lon="6.5683205"><ele>949.0</ele><time>2026-05-01T09:29:15.404Z</time></trkpt><trkpt lat="44.7634029" lon="6.5684584"><ele>949.0</ele><time>2026-05-01T09:29:16.406Z</time></trkpt><trkpt lat="44.7632753" lon="6.5685935"><ele>948.3333333333333</ele><time>2026-05-01T09:29:17.404Z</time></trkpt><trkpt lat="44.7631437" lon="6.5687347"><ele>947.6666666666667</ele><time>2026-05-01T09:29:18.404Z</time></trkpt><trkpt lat="44.7630036" lon="6.5688817"><ele>947.0</ele><time>2026-05-01T09:29:19.404Z</time></trkpt><trkpt lat="44.7628582" lon="6.5690281"><ele>947.0</ele><time>2026-05-01T09:29:20.404Z</time></trkpt><trkpt lat="44.7627088" lon="6.5691791"><ele>947.0</ele><time>2026-05-01T09:29:21.404Z</time></trkpt><trkpt lat="44.7625626" lon="6.5693316"><ele>947.0</ele><time>2026-05-01T09:29:22.404Z</time></trkpt><trkpt lat="44.7624214" lon="6.5694796"><ele>946.3333333333334</ele><time>2026-05-01T09:29:23.404Z</time></trkpt><trkpt lat="44.7622761" lon="6.5696301"><ele>945.6666666666667</ele><time>2026-05-01T09:29:24.404Z</time></trkpt><trkpt lat="44.7621248" lon="6.5697863"><ele>945.0</ele><time>2026-05-01T09:29:25.404Z</time></trkpt><trkpt lat="44.7619678" lon="6.569955"><ele>945.0</ele><time>2026-05-01T09:29:26.404Z</time></trkpt><trkpt lat="44.7618026" lon="6.5701355"><ele>945.0</ele><time>2026-05-01T09:29:27.404Z</time></trkpt><trkpt lat="44.7616293" lon="6.570319"><ele>945.0</ele><time>2026-05-01T09:29:28.404Z</time></trkpt><trkpt lat="44.7614509" lon="6.5705009"><ele>945.0</ele><time>2026-05-01T09:29:29.405Z</time></trkpt><trkpt lat="44.7612695" lon="6.5706821"><ele>945.0</ele><time>2026-05-01T09:29:30.404Z</time></trkpt><trkpt lat="44.7610836" lon="6.5708682"><ele>945.5</ele><time>2026-05-01T09:29:31.404Z</time></trkpt><trkpt lat="44.7608955" lon="6.5710588"><ele>946.0</ele><time>2026-05-01T09:29:32.404Z</time></trkpt><trkpt lat="44.7607119" lon="6.5712453"><ele>946.3333333333333</ele><time>2026-05-01T09:29:33.404Z</time></trkpt><trkpt lat="44.760536" lon="6.5714209"><ele>946.6666666666667</ele><time>2026-05-01T09:29:34.405Z</time></trkpt><trkpt lat="44.7603643" lon="6.5715891"><ele>947.0</ele><time>2026-05-01T09:29:35.404Z</time></trkpt><trkpt lat="44.7602001" lon="6.5717518"><ele>946.3333333333334</ele><time>2026-05-01T09:29:36.404Z</time></trkpt><trkpt lat="44.7600379" lon="6.5719098"><ele>945.6666666666667</ele><time>2026-05-01T09:29:37.405Z</time></trkpt><trkpt lat="44.759875" lon="6.5720628"><ele>945.0</ele><time>2026-05-01T09:29:38.405Z</time></trkpt><trkpt lat="44.7597068" lon="6.5722103"><ele>946.0</ele><time>2026-05-01T09:29:39.404Z</time></trkpt><trkpt lat="44.759531" lon="6.5723492"><ele>947.0</ele><time>2026-05-01T09:29:40.404Z</time></trkpt><trkpt lat="44.7593469" lon="6.5724774"><ele>948.0</ele><time>2026-05-01T09:29:41.404Z</time></trkpt><trkpt lat="44.7591561" lon="6.572598"><ele>948.0</ele><time>2026-05-01T09:29:42.404Z</time></trkpt><trkpt lat="44.7589653" lon="6.5727226"><ele>948.0</ele><time>2026-05-01T09:29:43.404Z</time></trkpt><trkpt lat="44.758778" lon="6.5728455"><ele>948.0</ele><time>2026-05-01T09:29:44.404Z</time></trkpt><trkpt lat="44.7585937" lon="6.5729648"><ele>946.6666666666667</ele><time>2026-05-01T09:29:45.404Z</time></trkpt><trkpt lat="44.7584123" lon="6.5730833"><ele>945.3333333333334</ele><time>2026-05-01T09:29:46.404Z</time></trkpt><trkpt lat="44.7582337" lon="6.5732011"><ele>944.0</ele><time>2026-05-01T09:29:47.404Z</time></trkpt><trkpt lat="44.7580565" lon="6.5733133"><ele>944.0</ele><time>2026-05-01T09:29:48.405Z</time></trkpt><trkpt lat="44.7578792" lon="6.5734276"><ele>944.0</ele><time>2026-05-01T09:29:49.404Z</time></trkpt><trkpt lat="44.7576959" lon="6.5735454"><ele>944.0</ele><time>2026-05-01T09:29:50.405Z</time></trkpt><trkpt lat="44.7575113" lon="6.5736645"><ele>944.3333333333334</ele><time>2026-05-01T09:29:51.404Z</time></trkpt><trkpt lat="44.7573238" lon="6.5737848"><ele>944.6666666666667</ele><time>2026-05-01T09:29:52.406Z</time></trkpt><trkpt lat="44.7571328" lon="6.5739062"><ele>945.0</ele><time>2026-05-01T09:29:53.404Z</time></trkpt><trkpt lat="44.7569395" lon="6.5740318"><ele>943.6666666666667</ele><time>2026-05-01T09:29:54.404Z</time></trkpt><trkpt lat="44.7567477" lon="6.5741541"><ele>942.3333333333334</ele><time>2026-05-01T09:29:55.404Z</time></trkpt><trkpt lat="44.7565562" lon="6.5742753"><ele>941.0</ele><time>2026-05-01T09:29:56.404Z</time></trkpt><trkpt lat="44.7563727" lon="6.5743914"><ele>941.0</ele><time>2026-05-01T09:29:57.404Z</time></trkpt><trkpt lat="44.756196" lon="6.5745069"><ele>941.0</ele><time>2026-05-01T09:29:58.404Z</time></trkpt><trkpt lat="44.7560229" lon="6.5746174"><ele>941.0</ele><time>2026-05-01T09:29:59.405Z</time></trkpt><trkpt lat="44.755855" lon="6.5747215"><ele>941.0</ele><time>2026-05-01T09:30:00.405Z</time></trkpt><trkpt lat="44.7556895" lon="6.5748204"><ele>941.0</ele><time>2026-05-01T09:30:01.404Z</time></trkpt><trkpt lat="44.7555258" lon="6.5749194"><ele>941.0</ele><time>2026-05-01T09:30:02.404Z</time></trkpt><trkpt lat="44.7553621" lon="6.575017"><ele>940.6666666666667</ele><time>2026-05-01T09:30:03.404Z</time></trkpt><trkpt lat="44.755196" lon="6.5751154"><ele>940.3333333333333</ele><time>2026-05-01T09:30:04.405Z</time></trkpt><trkpt lat="44.7550283" lon="6.5752189"><ele>940.0</ele><time>2026-05-01T09:30:05.404Z</time></trkpt><trkpt lat="44.7548583" lon="6.5753307"><ele>939.6666666666666</ele><time>2026-05-01T09:30:06.405Z</time></trkpt><trkpt lat="44.7546806" lon="6.5754569"><ele>939.3333333333333</ele><time>2026-05-01T09:30:07.405Z</time></trkpt><trkpt lat="44.7544973" lon="6.5755884"><ele>939.0</ele><time>2026-05-01T09:30:08.404Z</time></trkpt><trkpt lat="44.7543061" lon="6.5757263"><ele>939.0</ele><time>2026-05-01T09:30:09.405Z</time></trkpt><trkpt lat="44.7541111" lon="6.5758669"><ele>939.0</ele><time>2026-05-01T09:30:10.405Z</time></trkpt><trkpt lat="44.7539142" lon="6.5760076"><ele>939.0</ele><time>2026-05-01T09:30:11.404Z</time></trkpt><trkpt lat="44.7537234" lon="6.5761377"><ele>938.6666666666667</ele><time>2026-05-01T09:30:12.404Z</time></trkpt><trkpt lat="44.7535343" lon="6.5762585"><ele>938.3333333333334</ele><time>2026-05-01T09:30:13.404Z</time></trkpt><trkpt lat="44.7533484" lon="6.576372"><ele>938.0</ele><time>2026-05-01T09:30:14.404Z</time></trkpt><trkpt lat="44.7531694" lon="6.5764803"><ele>938.0</ele><time>2026-05-01T09:30:15.404Z</time></trkpt><trkpt lat="44.7530038" lon="6.5765831"><ele>938.0</ele><time>2026-05-01T09:30:16.404Z</time></trkpt><trkpt lat="44.7528521" lon="6.576681"><ele>938.0</ele><time>2026-05-01T09:30:17.404Z</time></trkpt><trkpt lat="44.7527069" lon="6.5767747"><ele>937.6666666666667</ele><time>2026-05-01T09:30:18.404Z</time></trkpt><trkpt lat="44.7525664" lon="6.5768674"><ele>937.3333333333333</ele><time>2026-05-01T09:30:19.405Z</time></trkpt><trkpt lat="44.7524252" lon="6.5769634"><ele>937.0</ele><time>2026-05-01T09:30:20.404Z</time></trkpt><trkpt lat="44.7522822" lon="6.5770612"><ele>936.6666666666666</ele><time>2026-05-01T09:30:21.404Z</time></trkpt><trkpt lat="44.7521398" lon="6.5771547"><ele>936.3333333333333</ele><time>2026-05-01T09:30:22.405Z</time></trkpt><trkpt lat="44.7519974" lon="6.577246"><ele>936.0</ele><time>2026-05-01T09:30:23.404Z</time></trkpt><trkpt lat="44.7518607" lon="6.5773331"><ele>936.5</ele><time>2026-05-01T09:30:24.404Z</time></trkpt><trkpt lat="44.7517288" lon="6.5774187"><ele>937.0</ele><time>2026-05-01T09:30:25.404Z</time></trkpt><trkpt lat="44.7516035" lon="6.5775044"><ele>937.5</ele><time>2026-05-01T09:30:26.405Z</time></trkpt><trkpt lat="44.7514857" lon="6.577584"><ele>938.0</ele><time>2026-05-01T09:30:27.405Z</time></trkpt><trkpt lat="44.7513774" lon="6.5776547"><ele>938.0000000000001</ele><time>2026-05-01T09:30:28.404Z</time></trkpt><trkpt lat="44.7512936" lon="6.5777095"><ele>938.0</ele><time>2026-05-01T09:30:29.404Z</time></trkpt><trkpt lat="44.7512195" lon="6.5777576"><ele>938.0</ele><time>2026-05-01T09:30:30.405Z</time></trkpt><trkpt lat="44.7511481" lon="6.5778062"><ele>938.0</ele><time>2026-05-01T09:30:31.404Z</time></trkpt><trkpt lat="44.7510824" lon="6.5778533"><ele>938.0000000000001</ele><time>2026-05-01T09:30:32.405Z</time></trkpt><trkpt lat="44.7510198" lon="6.5778929"><ele>938.0</ele><time>2026-05-01T09:30:33.404Z</time></trkpt><trkpt lat="44.7509555" lon="6.5779334"><ele>939.5999999999999</ele><time>2026-05-01T09:30:34.404Z</time></trkpt><trkpt lat="44.7508886" lon="6.577976"><ele>941.1999999999999</ele><time>2026-05-01T09:30:35.405Z</time></trkpt><trkpt lat="44.7508128" lon="6.5780256"><ele>942.8</ele><time>2026-05-01T09:30:36.404Z</time></trkpt><trkpt lat="44.7507261" lon="6.5780815"><ele>944.4</ele><time>2026-05-01T09:30:37.404Z</time></trkpt><trkpt lat="44.7506352" lon="6.5781413"><ele>946.0</ele><time>2026-05-01T09:30:38.404Z</time></trkpt><trkpt lat="44.750544" lon="6.5782036"><ele>946.0</ele><time>2026-05-01T09:30:39.405Z</time></trkpt><trkpt lat="44.7504525" lon="6.5782647"><ele>945.9999999999999</ele><time>2026-05-01T09:30:40.404Z</time></trkpt><trkpt lat="44.750366" lon="6.5783218"><ele>945.9999999999999</ele><time>2026-05-01T09:30:41.404Z</time></trkpt><trkpt lat="44.7502814" lon="6.5783789"><ele>946.0</ele><time>2026-05-01T09:30:42.405Z</time></trkpt><trkpt lat="44.7501983" lon="6.578434"><ele>946.0</ele><time>2026-05-01T09:30:43.405Z</time></trkpt><trkpt lat="44.7501116" lon="6.5784889"><ele>946.1999999999999</ele><time>2026-05-01T09:30:44.404Z</time></trkpt><trkpt lat="44.7500203" lon="6.578546"><ele>946.3999999999999</ele><time>2026-05-01T09:30:45.404Z</time></trkpt><trkpt lat="44.749924" lon="6.5786042"><ele>946.6</ele><time>2026-05-01T09:30:46.404Z</time></trkpt><trkpt lat="44.749821" lon="6.5786688"><ele>946.8</ele><time>2026-05-01T09:30:47.404Z</time></trkpt><trkpt lat="44.7497139" lon="6.5787418"><ele>947.0</ele><time>2026-05-01T09:30:48.404Z</time></trkpt><trkpt lat="44.7496022" lon="6.5788178"><ele>947.0</ele><time>2026-05-01T09:30:49.404Z</time></trkpt><trkpt lat="44.7494853" lon="6.5788937"><ele>947.0</ele><time>2026-05-01T09:30:50.404Z</time></trkpt><trkpt lat="44.7493714" lon="6.5789676"><ele>947.0</ele><time>2026-05-01T09:30:51.404Z</time></trkpt><trkpt lat="44.7492627" lon="6.5790363"><ele>947.0</ele><time>2026-05-01T09:30:52.405Z</time></trkpt><trkpt lat="44.7491589" lon="6.5791"><ele>946.6666666666667</ele><time>2026-05-01T09:30:53.404Z</time></trkpt><trkpt lat="44.7490605" lon="6.5791589"><ele>946.3333333333334</ele><time>2026-05-01T09:30:54.404Z</time></trkpt><trkpt lat="44.7489767" lon="6.5792138"><ele>946.0</ele><time>2026-05-01T09:30:55.404Z</time></trkpt><trkpt lat="44.7489029" lon="6.5792618"><ele>945.6666666666667</ele><time>2026-05-01T09:30:56.405Z</time></trkpt><trkpt lat="44.7488335" lon="6.5793051"><ele>945.3333333333334</ele><time>2026-05-01T09:30:57.404Z</time></trkpt><trkpt lat="44.7487655" lon="6.5793486"><ele>945.0</ele><time>2026-05-01T09:30:58.404Z</time></trkpt><trkpt lat="44.7487" lon="6.5793909"><ele>945.0</ele><time>2026-05-01T09:30:59.404Z</time></trkpt><trkpt lat="44.7486053" lon="6.5794551"><ele>945.0</ele><time>2026-05-01T09:31:01.404Z</time></trkpt><trkpt lat="44.7485125" lon="6.5795132"><ele>945.0</ele><time>2026-05-01T09:31:03.404Z</time></trkpt><trkpt lat="44.748409" lon="6.5795581"><ele>945.0</ele><time>2026-05-01T09:31:05.404Z</time></trkpt><trkpt lat="44.7482903" lon="6.5795913"><ele>945.0</ele><time>2026-05-01T09:31:07.404Z</time></trkpt><trkpt lat="44.7482266" lon="6.579604"><ele>945.6</ele><time>2026-05-01T09:31:08.404Z</time></trkpt><trkpt lat="44.7481083" lon="6.5796285"><ele>946.2</ele><time>2026-05-01T09:31:10.404Z</time></trkpt><trkpt lat="44.7479834" lon="6.5796736"><ele>946.8</ele><time>2026-05-01T09:31:12.404Z</time></trkpt><trkpt lat="44.747913" lon="6.5797336"><ele>947.4</ele><time>2026-05-01T09:31:13.404Z</time></trkpt><trkpt lat="44.7478346" lon="6.5798078"><ele>948.0</ele><time>2026-05-01T09:31:14.404Z</time></trkpt><trkpt lat="44.7477494" lon="6.5798803"><ele>947.3333333333334</ele><time>2026-05-01T09:31:15.404Z</time></trkpt><trkpt lat="44.7476657" lon="6.5799539"><ele>946.6666666666667</ele><time>2026-05-01T09:31:16.405Z</time></trkpt><trkpt lat="44.7475943" lon="6.5800144"><ele>946.0</ele><time>2026-05-01T09:31:17.404Z</time></trkpt><trkpt lat="44.7475316" lon="6.5800644"><ele>945.3333333333334</ele><time>2026-05-01T09:31:18.404Z</time></trkpt><trkpt lat="44.7474272" lon="6.5801471"><ele>944.6666666666667</ele><time>2026-05-01T09:31:20.405Z</time></trkpt><trkpt lat="44.7473704" lon="6.5801859"><ele>944.0</ele><time>2026-05-01T09:31:21.405Z</time></trkpt><trkpt lat="44.7473075" lon="6.5802209"><ele>944.0</ele><time>2026-05-01T09:31:22.404Z</time></trkpt><trkpt lat="44.7472377" lon="6.5802558"><ele>944.0000000000001</ele><time>2026-05-01T09:31:23.404Z</time></trkpt><trkpt lat="44.7471577" lon="6.5802953"><ele>944.0000000000001</ele><time>2026-05-01T09:31:24.405Z</time></trkpt><trkpt lat="44.747072" lon="6.5803383"><ele>944.0</ele><time>2026-05-01T09:31:25.404Z</time></trkpt><trkpt lat="44.7469773" lon="6.5803903"><ele>944.0</ele><time>2026-05-01T09:31:26.404Z</time></trkpt><trkpt lat="44.7468709" lon="6.5804448"><ele>944.25</ele><time>2026-05-01T09:31:27.404Z</time></trkpt><trkpt lat="44.7467636" lon="6.5804985"><ele>944.5</ele><time>2026-05-01T09:31:28.405Z</time></trkpt><trkpt lat="44.7466553" lon="6.5805523"><ele>944.75</ele><time>2026-05-01T09:31:29.405Z</time></trkpt><trkpt lat="44.7465489" lon="6.5806031"><ele>945.0</ele><time>2026-05-01T09:31:30.404Z</time></trkpt><trkpt lat="44.7464445" lon="6.5806575"><ele>945.0</ele><time>2026-05-01T09:31:31.404Z</time></trkpt><trkpt lat="44.7463408" lon="6.5807117"><ele>945.0</ele><time>2026-05-01T09:31:32.405Z</time></trkpt><trkpt lat="44.7462442" lon="6.580769"><ele>945.0</ele><time>2026-05-01T09:31:33.404Z</time></trkpt><trkpt lat="44.7461608" lon="6.580831"><ele>945.0</ele><time>2026-05-01T09:31:34.404Z</time></trkpt><trkpt lat="44.7460871" lon="6.5808967"><ele>945.0</ele><time>2026-05-01T09:31:35.404Z</time></trkpt><trkpt lat="44.74602" lon="6.580958"><ele>945.3333333333334</ele><time>2026-05-01T09:31:36.405Z</time></trkpt><trkpt lat="44.7459594" lon="6.5810173"><ele>945.6666666666667</ele><time>2026-05-01T09:31:37.404Z</time></trkpt><trkpt lat="44.7458999" lon="6.5810764"><ele>946.0</ele><time>2026-05-01T09:31:38.404Z</time></trkpt><trkpt lat="44.7458325" lon="6.5811355"><ele>946.3333333333334</ele><time>2026-05-01T09:31:39.404Z</time></trkpt><trkpt lat="44.7457584" lon="6.5811918"><ele>946.6666666666667</ele><time>2026-05-01T09:31:40.405Z</time></trkpt><trkpt lat="44.7456789" lon="6.5812544"><ele>947.0</ele><time>2026-05-01T09:31:41.404Z</time></trkpt><trkpt lat="44.7455859" lon="6.581317"><ele>947.0</ele><time>2026-05-01T09:31:42.404Z</time></trkpt><trkpt lat="44.7454836" lon="6.5813771"><ele>947.0</ele><time>2026-05-01T09:31:43.404Z</time></trkpt><trkpt lat="44.7453813" lon="6.5814366"><ele>947.0</ele><time>2026-05-01T09:31:44.404Z</time></trkpt><trkpt lat="44.7452795" lon="6.5814982"><ele>947.0</ele><time>2026-05-01T09:31:45.404Z</time></trkpt><trkpt lat="44.745181" lon="6.5815608"><ele>947.0</ele><time>2026-05-01T09:31:46.404Z</time></trkpt><trkpt lat="44.7450841" lon="6.5816266"><ele>947.6</ele><time>2026-05-01T09:31:47.405Z</time></trkpt><trkpt lat="44.7449934" lon="6.5816914"><ele>948.2</ele><time>2026-05-01T09:31:48.404Z</time></trkpt><trkpt lat="44.7449069" lon="6.5817554"><ele>948.8</ele><time>2026-05-01T09:31:49.404Z</time></trkpt><trkpt lat="44.7448241" lon="6.5818175"><ele>949.4</ele><time>2026-05-01T09:31:50.405Z</time></trkpt><trkpt lat="44.7447386" lon="6.5818835"><ele>950.0</ele><time>2026-05-01T09:31:51.404Z</time></trkpt><trkpt lat="44.7446498" lon="6.581954"><ele>949.6666666666667</ele><time>2026-05-01T09:31:52.404Z</time></trkpt><trkpt lat="44.7445636" lon="6.5820232"><ele>949.3333333333334</ele><time>2026-05-01T09:31:53.404Z</time></trkpt><trkpt lat="44.7444939" lon="6.5820799"><ele>949.0</ele><time>2026-05-01T09:31:54.404Z</time></trkpt><trkpt lat="44.7444368" lon="6.5821236"><ele>948.6666666666667</ele><time>2026-05-01T09:31:55.404Z</time></trkpt><trkpt lat="44.7443433" lon="6.5821903"><ele>948.3333333333334</ele><time>2026-05-01T09:31:57.405Z</time></trkpt><trkpt lat="44.7442602" lon="6.5822365"><ele>948.0</ele><time>2026-05-01T09:31:59.404Z</time></trkpt><trkpt lat="44.7441867" lon="6.5822688"><ele>949.5999999999999</ele><time>2026-05-01T09:32:01.404Z</time></trkpt><trkpt lat="44.7440935" lon="6.5822853"><ele>951.1999999999999</ele><time>2026-05-01T09:32:03.405Z</time></trkpt><trkpt lat="44.7439801" lon="6.5823078"><ele>952.8</ele><time>2026-05-01T09:32:05.404Z</time></trkpt><trkpt lat="44.7439053" lon="6.5823211"><ele>954.4</ele><time>2026-05-01T09:32:06.404Z</time></trkpt><trkpt lat="44.7438183" lon="6.5823352"><ele>956.0</ele><time>2026-05-01T09:32:07.404Z</time></trkpt><trkpt lat="44.7437276" lon="6.5823493"><ele>956.0</ele><time>2026-05-01T09:32:08.405Z</time></trkpt><trkpt lat="44.7436326" lon="6.5823614"><ele>955.9999999999999</ele><time>2026-05-01T09:32:09.404Z</time></trkpt><trkpt lat="44.7435275" lon="6.5823753"><ele>955.9999999999999</ele><time>2026-05-01T09:32:10.405Z</time></trkpt><trkpt lat="44.7434224" lon="6.5823921"><ele>956.0</ele><time>2026-05-01T09:32:11.404Z</time></trkpt><trkpt lat="44.7433158" lon="6.5824087"><ele>956.0</ele><time>2026-05-01T09:32:12.404Z</time></trkpt><trkpt lat="44.7432053" lon="6.5824252"><ele>955.5999999999999</ele><time>2026-05-01T09:32:13.405Z</time></trkpt><trkpt lat="44.7430949" lon="6.5824445"><ele>955.1999999999999</ele><time>2026-05-01T09:32:14.404Z</time></trkpt><trkpt lat="44.7429906" lon="6.5824631"><ele>954.8000000000001</ele><time>2026-05-01T09:32:15.404Z</time></trkpt><trkpt lat="44.7428884" lon="6.5824835"><ele>954.4000000000001</ele><time>2026-05-01T09:32:16.404Z</time></trkpt><trkpt lat="44.7427879" lon="6.5825022"><ele>954.0</ele><time>2026-05-01T09:32:17.404Z</time></trkpt><trkpt lat="44.7426816" lon="6.582524"><ele>952.25</ele><time>2026-05-01T09:32:18.404Z</time></trkpt><trkpt lat="44.7425665" lon="6.5825498"><ele>950.5</ele><time>2026-05-01T09:32:19.405Z</time></trkpt><trkpt lat="44.7424438" lon="6.5825805"><ele>948.75</ele><time>2026-05-01T09:32:20.404Z</time></trkpt><trkpt lat="44.7423136" lon="6.5826211"><ele>947.0</ele><time>2026-05-01T09:32:21.406Z</time></trkpt><trkpt lat="44.7421761" lon="6.5826668"><ele>947.0</ele><time>2026-05-01T09:32:22.404Z</time></trkpt><trkpt lat="44.7420309" lon="6.5827155"><ele>947.0</ele><time>2026-05-01T09:32:23.405Z</time></trkpt><trkpt lat="44.7418757" lon="6.5827595"><ele>947.0</ele><time>2026-05-01T09:32:24.404Z</time></trkpt><trkpt lat="44.7417093" lon="6.582797"><ele>943.0</ele><time>2026-05-01T09:32:25.404Z</time></trkpt><trkpt lat="44.7415362" lon="6.582833"><ele>939.0</ele><time>2026-05-01T09:32:26.404Z</time></trkpt><trkpt lat="44.7413589" lon="6.5828831"><ele>935.0</ele><time>2026-05-01T09:32:27.404Z</time></trkpt><trkpt lat="44.7411719" lon="6.58295"><ele>940.6666666666667</ele><time>2026-05-01T09:32:28.404Z</time></trkpt><trkpt lat="44.7409797" lon="6.5830159"><ele>946.3333333333333</ele><time>2026-05-01T09:32:29.404Z</time></trkpt><trkpt lat="44.7407804" lon="6.5830835"><ele>952.0</ele><time>2026-05-01T09:32:30.404Z</time></trkpt><trkpt lat="44.7405844" lon="6.5831497"><ele>952.0</ele><time>2026-05-01T09:32:31.405Z</time></trkpt><trkpt lat="44.7403828" lon="6.5832169"><ele>952.0</ele><time>2026-05-01T09:32:32.404Z</time></trkpt><trkpt lat="44.7401759" lon="6.5832814"><ele>952.0</ele><time>2026-05-01T09:32:33.404Z</time></trkpt><trkpt lat="44.7399662" lon="6.5833426"><ele>947.6666666666666</ele><time>2026-05-01T09:32:34.404Z</time></trkpt><trkpt lat="44.7397521" lon="6.5833982"><ele>943.3333333333333</ele><time>2026-05-01T09:32:35.404Z</time></trkpt><trkpt lat="44.7395344" lon="6.5834507"><ele>939.0</ele><time>2026-05-01T09:32:36.404Z</time></trkpt><trkpt lat="44.7393138" lon="6.5834895"><ele>935.6666666666667</ele><time>2026-05-01T09:32:37.404Z</time></trkpt><trkpt lat="44.7390929" lon="6.5835198"><ele>932.3333333333334</ele><time>2026-05-01T09:32:38.405Z</time></trkpt><trkpt lat="44.7388727" lon="6.5835445"><ele>929.0</ele><time>2026-05-01T09:32:39.404Z</time></trkpt><trkpt lat="44.7386554" lon="6.5835713"><ele>929.0</ele><time>2026-05-01T09:32:40.404Z</time></trkpt><trkpt lat="44.7384399" lon="6.5835982"><ele>929.0</ele><time>2026-05-01T09:32:41.404Z</time></trkpt><trkpt lat="44.7382246" lon="6.5836241"><ele>929.0</ele><time>2026-05-01T09:32:42.404Z</time></trkpt><trkpt lat="44.7380099" lon="6.5836528"><ele>929.0</ele><time>2026-05-01T09:32:43.404Z</time></trkpt><trkpt lat="44.737795" lon="6.5836783"><ele>929.0</ele><time>2026-05-01T09:32:44.405Z</time></trkpt><trkpt lat="44.737579" lon="6.5837008"><ele>929.0</ele><time>2026-05-01T09:32:45.404Z</time></trkpt><trkpt lat="44.7373644" lon="6.5837228"><ele>929.0</ele><time>2026-05-01T09:32:46.404Z</time></trkpt><trkpt lat="44.7371551" lon="6.5837471"><ele>929.0</ele><time>2026-05-01T09:32:47.404Z</time></trkpt><trkpt lat="44.7369481" lon="6.5837727"><ele>929.0</ele><time>2026-05-01T09:32:48.405Z</time></trkpt><trkpt lat="44.7367389" lon="6.5837973"><ele>929.0</ele><time>2026-05-01T09:32:49.405Z</time></trkpt><trkpt lat="44.7365296" lon="6.5838217"><ele>929.0</ele><time>2026-05-01T09:32:50.404Z</time></trkpt><trkpt lat="44.7363191" lon="6.5838462"><ele>929.0</ele><time>2026-05-01T09:32:51.404Z</time></trkpt><trkpt lat="44.7361115" lon="6.5838713"><ele>928.3333333333334</ele><time>2026-05-01T09:32:52.404Z</time></trkpt><trkpt lat="44.7359025" lon="6.5838961"><ele>927.6666666666667</ele><time>2026-05-01T09:32:53.404Z</time></trkpt><trkpt lat="44.7356926" lon="6.583921"><ele>927.0</ele><time>2026-05-01T09:32:54.404Z</time></trkpt><trkpt lat="44.7354796" lon="6.5839467"><ele>927.0</ele><time>2026-05-01T09:32:55.404Z</time></trkpt><trkpt lat="44.7352632" lon="6.5839724"><ele>927.0</ele><time>2026-05-01T09:32:56.404Z</time></trkpt><trkpt lat="44.7350432" lon="6.583999"><ele>927.0</ele><time>2026-05-01T09:32:57.404Z</time></trkpt><trkpt lat="44.7348179" lon="6.5840252"><ele>927.5</ele><time>2026-05-01T09:32:58.404Z</time></trkpt><trkpt lat="44.7345894" lon="6.5840542"><ele>928.0</ele><time>2026-05-01T09:32:59.405Z</time></trkpt><trkpt lat="44.7343605" lon="6.5840843"><ele>928.0</ele><time>2026-05-01T09:33:00.404Z</time></trkpt><trkpt lat="44.7341268" lon="6.5841146"><ele>928.0</ele><time>2026-05-01T09:33:01.404Z</time></trkpt><trkpt lat="44.7338893" lon="6.5841443"><ele>928.0</ele><time>2026-05-01T09:33:02.404Z</time></trkpt><trkpt lat="44.7336519" lon="6.5841755"><ele>928.0</ele><time>2026-05-01T09:33:03.404Z</time></trkpt><trkpt lat="44.7334182" lon="6.5842126"><ele>927.0</ele><time>2026-05-01T09:33:04.404Z</time></trkpt><trkpt lat="44.7331894" lon="6.58426"><ele>926.0</ele><time>2026-05-01T09:33:05.405Z</time></trkpt><trkpt lat="44.7329652" lon="6.5843181"><ele>926.0</ele><time>2026-05-01T09:33:06.405Z</time></trkpt><trkpt lat="44.7327465" lon="6.5843846"><ele>926.0</ele><time>2026-05-01T09:33:07.404Z</time></trkpt><trkpt lat="44.7325306" lon="6.584454"><ele>926.0</ele><time>2026-05-01T09:33:08.404Z</time></trkpt><trkpt lat="44.7323184" lon="6.5845227"><ele>929.0</ele><time>2026-05-01T09:33:09.404Z</time></trkpt><trkpt lat="44.7321084" lon="6.5845879"><ele>932.0</ele><time>2026-05-01T09:33:10.404Z</time></trkpt><trkpt lat="44.7318958" lon="6.5846509"><ele>935.0</ele><time>2026-05-01T09:33:11.405Z</time></trkpt><trkpt lat="44.7316789" lon="6.5847155"><ele>935.0</ele><time>2026-05-01T09:33:12.404Z</time></trkpt><trkpt lat="44.7314585" lon="6.5847873"><ele>935.0</ele><time>2026-05-01T09:33:13.404Z</time></trkpt><trkpt lat="44.7312351" lon="6.5848611"><ele>931.0</ele><time>2026-05-01T09:33:14.404Z</time></trkpt><trkpt lat="44.7310078" lon="6.5849371"><ele>927.0</ele><time>2026-05-01T09:33:15.404Z</time></trkpt><trkpt lat="44.730776" lon="6.5850146"><ele>927.0</ele><time>2026-05-01T09:33:16.404Z</time></trkpt><trkpt lat="44.730544" lon="6.5850902"><ele>927.0</ele><time>2026-05-01T09:33:17.404Z</time></trkpt><trkpt lat="44.730313" lon="6.585165"><ele>926.5</ele><time>2026-05-01T09:33:18.404Z</time></trkpt><trkpt lat="44.7300838" lon="6.5852404"><ele>926.0</ele><time>2026-05-01T09:33:19.404Z</time></trkpt><trkpt lat="44.7298522" lon="6.5853163"><ele>938.0</ele><time>2026-05-01T09:33:20.405Z</time></trkpt><trkpt lat="44.7296203" lon="6.5853906"><ele>950.0</ele><time>2026-05-01T09:33:21.404Z</time></trkpt><trkpt lat="44.7293928" lon="6.5854625"><ele>945.3333333333334</ele><time>2026-05-01T09:33:22.404Z</time></trkpt><trkpt lat="44.7291723" lon="6.585533"><ele>940.6666666666667</ele><time>2026-05-01T09:33:23.404Z</time></trkpt><trkpt lat="44.7289554" lon="6.5856035"><ele>936.0</ele><time>2026-05-01T09:33:24.404Z</time></trkpt><trkpt lat="44.728734" lon="6.5856729"><ele>930.5</ele><time>2026-05-01T09:33:25.405Z</time></trkpt><trkpt lat="44.7285106" lon="6.5857422"><ele>925.0</ele><time>2026-05-01T09:33:26.405Z</time></trkpt><trkpt lat="44.7282873" lon="6.5858139"><ele>925.0</ele><time>2026-05-01T09:33:27.404Z</time></trkpt><trkpt lat="44.7280665" lon="6.585895"><ele>925.0</ele><time>2026-05-01T09:33:28.404Z</time></trkpt><trkpt lat="44.7278469" lon="6.5859875"><ele>924.0</ele><time>2026-05-01T09:33:29.405Z</time></trkpt><trkpt lat="44.7276286" lon="6.5860931"><ele>923.0</ele><time>2026-05-01T09:33:30.404Z</time></trkpt><trkpt lat="44.7274119" lon="6.5862144"><ele>923.0</ele><time>2026-05-01T09:33:31.404Z</time></trkpt><trkpt lat="44.7272032" lon="6.5863486"><ele>923.0</ele><time>2026-05-01T09:33:32.404Z</time></trkpt><trkpt lat="44.7269963" lon="6.5864961"><ele>921.0</ele><time>2026-05-01T09:33:33.404Z</time></trkpt><trkpt lat="44.726793" lon="6.5866571"><ele>919.0</ele><time>2026-05-01T09:33:34.404Z</time></trkpt><trkpt lat="44.726595" lon="6.5868333"><ele>921.5</ele><time>2026-05-01T09:33:35.404Z</time></trkpt><trkpt lat="44.7264019" lon="6.5870196"><ele>924.0</ele><time>2026-05-01T09:33:36.405Z</time></trkpt><trkpt lat="44.7262116" lon="6.5872099"><ele>922.5</ele><time>2026-05-01T09:33:37.404Z</time></trkpt><trkpt lat="44.7260261" lon="6.5874011"><ele>921.0</ele><time>2026-05-01T09:33:38.404Z</time></trkpt><trkpt lat="44.7258436" lon="6.5875892"><ele>921.0</ele><time>2026-05-01T09:33:39.405Z</time></trkpt><trkpt lat="44.7256608" lon="6.5877772"><ele>921.0</ele><time>2026-05-01T09:33:40.404Z</time></trkpt><trkpt lat="44.7254768" lon="6.5879625"><ele>920.6666666666667</ele><time>2026-05-01T09:33:41.404Z</time></trkpt><trkpt lat="44.7252962" lon="6.5881473"><ele>920.3333333333334</ele><time>2026-05-01T09:33:42.404Z</time></trkpt><trkpt lat="44.7251204" lon="6.5883348"><ele>920.0</ele><time>2026-05-01T09:33:43.404Z</time></trkpt><trkpt lat="44.7249458" lon="6.5885193"><ele>922.0</ele><time>2026-05-01T09:33:44.404Z</time></trkpt><trkpt lat="44.7247721" lon="6.5887016"><ele>924.0</ele><time>2026-05-01T09:33:45.404Z</time></trkpt><trkpt lat="44.7245997" lon="6.5888806"><ele>926.0</ele><time>2026-05-01T09:33:46.404Z</time></trkpt><trkpt lat="44.7244259" lon="6.5890578"><ele>924.3333333333334</ele><time>2026-05-01T09:33:47.404Z</time></trkpt><trkpt lat="44.7242468" lon="6.5892387"><ele>922.6666666666667</ele><time>2026-05-01T09:33:48.404Z</time></trkpt><trkpt lat="44.7240638" lon="6.5894224"><ele>921.0</ele><time>2026-05-01T09:33:49.404Z</time></trkpt><trkpt lat="44.7238797" lon="6.5896072"><ele>921.0</ele><time>2026-05-01T09:33:50.404Z</time></trkpt><trkpt lat="44.7236935" lon="6.589793"><ele>921.0</ele><time>2026-05-01T09:33:51.405Z</time></trkpt><trkpt lat="44.7235063" lon="6.5899817"><ele>920.0</ele><time>2026-05-01T09:33:52.405Z</time></trkpt><trkpt lat="44.7233223" lon="6.5901686"><ele>919.0</ele><time>2026-05-01T09:33:53.404Z</time></trkpt><trkpt lat="44.7231409" lon="6.5903555"><ele>919.0</ele><time>2026-05-01T09:33:54.406Z</time></trkpt><trkpt lat="44.7229581" lon="6.5905453"><ele>919.0</ele><time>2026-05-01T09:33:55.404Z</time></trkpt><trkpt lat="44.7227716" lon="6.5907363"><ele>919.0</ele><time>2026-05-01T09:33:56.404Z</time></trkpt><trkpt lat="44.7225821" lon="6.590931"><ele>919.0</ele><time>2026-05-01T09:33:57.405Z</time></trkpt><trkpt lat="44.7223908" lon="6.5911249"><ele>919.0</ele><time>2026-05-01T09:33:58.404Z</time></trkpt><trkpt lat="44.7221976" lon="6.591319"><ele>919.0</ele><time>2026-05-01T09:33:59.404Z</time></trkpt><trkpt lat="44.7220046" lon="6.5915132"><ele>918.0</ele><time>2026-05-01T09:34:00.404Z</time></trkpt><trkpt lat="44.7218105" lon="6.5917078"><ele>917.0</ele><time>2026-05-01T09:34:01.404Z</time></trkpt><trkpt lat="44.7216146" lon="6.5919026"><ele>917.0</ele><time>2026-05-01T09:34:02.404Z</time></trkpt><trkpt lat="44.7214173" lon="6.592099"><ele>917.0</ele><time>2026-05-01T09:34:03.404Z</time></trkpt><trkpt lat="44.7212175" lon="6.5922968"><ele>918.0</ele><time>2026-05-01T09:34:04.404Z</time></trkpt><trkpt lat="44.7210182" lon="6.5924973"><ele>919.0</ele><time>2026-05-01T09:34:05.404Z</time></trkpt><trkpt lat="44.720819" lon="6.5927012"><ele>919.5</ele><time>2026-05-01T09:34:06.404Z</time></trkpt><trkpt lat="44.7206245" lon="6.5929004"><ele>920.0</ele><time>2026-05-01T09:34:07.404Z</time></trkpt><trkpt lat="44.7204374" lon="6.5930946"><ele>920.0</ele><time>2026-05-01T09:34:08.404Z</time></trkpt><trkpt lat="44.720254" lon="6.5932839"><ele>920.0</ele><time>2026-05-01T09:34:09.404Z</time></trkpt><trkpt lat="44.7200725" lon="6.593468"><ele>920.0</ele><time>2026-05-01T09:34:10.404Z</time></trkpt><trkpt lat="44.7198955" lon="6.5936467"><ele>920.0</ele><time>2026-05-01T09:34:11.405Z</time></trkpt><trkpt lat="44.7197262" lon="6.5938184"><ele>920.0</ele><time>2026-05-01T09:34:12.404Z</time></trkpt><trkpt lat="44.7195632" lon="6.5939838"><ele>920.6666666666667</ele><time>2026-05-01T09:34:13.404Z</time></trkpt><trkpt lat="44.7194061" lon="6.5941432"><ele>921.3333333333333</ele><time>2026-05-01T09:34:14.404Z</time></trkpt><trkpt lat="44.7192539" lon="6.5942986"><ele>922.0</ele><time>2026-05-01T09:34:15.404Z</time></trkpt><trkpt lat="44.7191049" lon="6.5944493"><ele>923.0</ele><time>2026-05-01T09:34:16.404Z</time></trkpt><trkpt lat="44.7189588" lon="6.5945961"><ele>924.0</ele><time>2026-05-01T09:34:17.404Z</time></trkpt><trkpt lat="44.7188118" lon="6.5947488"><ele>925.0</ele><time>2026-05-01T09:34:18.404Z</time></trkpt><trkpt lat="44.7186616" lon="6.5949054"><ele>924.0</ele><time>2026-05-01T09:34:19.404Z</time></trkpt><trkpt lat="44.7185102" lon="6.5950639"><ele>923.0</ele><time>2026-05-01T09:34:20.404Z</time></trkpt><trkpt lat="44.7183567" lon="6.5952204"><ele>922.0</ele><time>2026-05-01T09:34:21.404Z</time></trkpt><trkpt lat="44.7182061" lon="6.5953701"><ele>922.0</ele><time>2026-05-01T09:34:22.404Z</time></trkpt><trkpt lat="44.7180577" lon="6.5955176"><ele>922.0</ele><time>2026-05-01T09:34:23.405Z</time></trkpt><trkpt lat="44.7179099" lon="6.5956675"><ele>922.0</ele><time>2026-05-01T09:34:24.405Z</time></trkpt><trkpt lat="44.717753" lon="6.5958251"><ele>920.3333333333333</ele><time>2026-05-01T09:34:25.404Z</time></trkpt><trkpt lat="44.7175933" lon="6.5959846"><ele>918.6666666666667</ele><time>2026-05-01T09:34:26.404Z</time></trkpt><trkpt lat="44.717438" lon="6.5961415"><ele>917.0</ele><time>2026-05-01T09:34:27.404Z</time></trkpt><trkpt lat="44.7172835" lon="6.5962974"><ele>917.0</ele><time>2026-05-01T09:34:28.404Z</time></trkpt><trkpt lat="44.7171317" lon="6.5964514"><ele>917.0</ele><time>2026-05-01T09:34:29.405Z</time></trkpt><trkpt lat="44.7169822" lon="6.5966013"><ele>917.0</ele><time>2026-05-01T09:34:30.404Z</time></trkpt><trkpt lat="44.7168356" lon="6.596748"><ele>916.0</ele><time>2026-05-01T09:34:31.404Z</time></trkpt><trkpt lat="44.7166932" lon="6.5968936"><ele>915.0</ele><time>2026-05-01T09:34:32.405Z</time></trkpt><trkpt lat="44.7165542" lon="6.5970385"><ele>914.0</ele><time>2026-05-01T09:34:33.404Z</time></trkpt><trkpt lat="44.7164168" lon="6.5971802"><ele>914.0</ele><time>2026-05-01T09:34:34.404Z</time></trkpt><trkpt lat="44.7162812" lon="6.5973181"><ele>914.0</ele><time>2026-05-01T09:34:35.405Z</time></trkpt><trkpt lat="44.716148" lon="6.5974526"><ele>914.0</ele><time>2026-05-01T09:34:36.404Z</time></trkpt><trkpt lat="44.7160184" lon="6.5975862"><ele>913.3333333333334</ele><time>2026-05-01T09:34:37.404Z</time></trkpt><trkpt lat="44.7158919" lon="6.5977181"><ele>912.6666666666667</ele><time>2026-05-01T09:34:38.404Z</time></trkpt><trkpt lat="44.7157673" lon="6.5978467"><ele>912.0</ele><time>2026-05-01T09:34:39.404Z</time></trkpt><trkpt lat="44.7156397" lon="6.5979742"><ele>912.0</ele><time>2026-05-01T09:34:40.405Z</time></trkpt><trkpt lat="44.7155095" lon="6.5981047"><ele>912.0</ele><time>2026-05-01T09:34:41.405Z</time></trkpt><trkpt lat="44.7153751" lon="6.5982382"><ele>912.0</ele><time>2026-05-01T09:34:42.405Z</time></trkpt><trkpt lat="44.715238" lon="6.5983747"><ele>911.0</ele><time>2026-05-01T09:34:43.404Z</time></trkpt><trkpt lat="44.7150984" lon="6.5985149"><ele>910.0</ele><time>2026-05-01T09:34:44.404Z</time></trkpt><trkpt lat="44.7149562" lon="6.5986583"><ele>909.0</ele><time>2026-05-01T09:34:45.404Z</time></trkpt><trkpt lat="44.7148136" lon="6.5988069"><ele>909.0</ele><time>2026-05-01T09:34:46.404Z</time></trkpt><trkpt lat="44.7146694" lon="6.5989583"><ele>909.0</ele><time>2026-05-01T09:34:47.404Z</time></trkpt><trkpt lat="44.7145221" lon="6.5991105"><ele>909.0</ele><time>2026-05-01T09:34:48.404Z</time></trkpt><trkpt lat="44.7143741" lon="6.599266"><ele>908.0</ele><time>2026-05-01T09:34:49.404Z</time></trkpt><trkpt lat="44.7142238" lon="6.5994217"><ele>907.0</ele><time>2026-05-01T09:34:50.404Z</time></trkpt><trkpt lat="44.7140702" lon="6.5995768"><ele>906.0</ele><time>2026-05-01T09:34:51.404Z</time></trkpt><trkpt lat="44.7139149" lon="6.5997335"><ele>905.6666666666667</ele><time>2026-05-01T09:34:52.405Z</time></trkpt><trkpt lat="44.7137586" lon="6.5998908"><ele>905.3333333333334</ele><time>2026-05-01T09:34:53.404Z</time></trkpt><trkpt lat="44.7135999" lon="6.60005"><ele>905.0</ele><time>2026-05-01T09:34:54.404Z</time></trkpt><trkpt lat="44.7134393" lon="6.6002131"><ele>907.3333333333334</ele><time>2026-05-01T09:34:55.405Z</time></trkpt><trkpt lat="44.7132774" lon="6.6003808"><ele>909.6666666666667</ele><time>2026-05-01T09:34:56.404Z</time></trkpt><trkpt lat="44.7131155" lon="6.6005527"><ele>912.0</ele><time>2026-05-01T09:34:57.404Z</time></trkpt><trkpt lat="44.7129535" lon="6.6007211"><ele>912.0</ele><time>2026-05-01T09:34:58.404Z</time></trkpt><trkpt lat="44.7127938" lon="6.6008844"><ele>912.0</ele><time>2026-05-01T09:34:59.404Z</time></trkpt><trkpt lat="44.7126369" lon="6.6010415"><ele>912.0</ele><time>2026-05-01T09:35:00.404Z</time></trkpt><trkpt lat="44.712482" lon="6.6011938"><ele>915.0</ele><time>2026-05-01T09:35:01.404Z</time></trkpt><trkpt lat="44.7123292" lon="6.6013471"><ele>918.0</ele><time>2026-05-01T09:35:02.404Z</time></trkpt><trkpt lat="44.7121807" lon="6.6014982"><ele>921.0</ele><time>2026-05-01T09:35:03.404Z</time></trkpt><trkpt lat="44.7120361" lon="6.6016434"><ele>920.6666666666667</ele><time>2026-05-01T09:35:04.404Z</time></trkpt><trkpt lat="44.7118891" lon="6.6017803"><ele>920.3333333333334</ele><time>2026-05-01T09:35:05.405Z</time></trkpt><trkpt lat="44.7117362" lon="6.6019139"><ele>920.0</ele><time>2026-05-01T09:35:06.406Z</time></trkpt><trkpt lat="44.7115794" lon="6.6020503"><ele>920.0</ele><time>2026-05-01T09:35:07.404Z</time></trkpt><trkpt lat="44.7114157" lon="6.6021839"><ele>920.0</ele><time>2026-05-01T09:35:08.403Z</time></trkpt><trkpt lat="44.7112371" lon="6.6023001"><ele>920.0</ele><time>2026-05-01T09:35:09.403Z</time></trkpt><trkpt lat="44.7110456" lon="6.6023973"><ele>916.6666666666667</ele><time>2026-05-01T09:35:10.404Z</time></trkpt><trkpt lat="44.7108469" lon="6.6024853"><ele>913.3333333333333</ele><time>2026-05-01T09:35:11.403Z</time></trkpt><trkpt lat="44.7106454" lon="6.6025661"><ele>910.0</ele><time>2026-05-01T09:35:12.403Z</time></trkpt><trkpt lat="44.7104428" lon="6.6026409"><ele>910.0</ele><time>2026-05-01T09:35:13.403Z</time></trkpt><trkpt lat="44.7102478" lon="6.6027143"><ele>910.0</ele><time>2026-05-01T09:35:14.403Z</time></trkpt><trkpt lat="44.7100574" lon="6.6027879"><ele>910.0</ele><time>2026-05-01T09:35:15.403Z</time></trkpt><trkpt lat="44.7098724" lon="6.6028575"><ele>911.0</ele><time>2026-05-01T09:35:16.403Z</time></trkpt><trkpt lat="44.7096926" lon="6.6029266"><ele>912.0</ele><time>2026-05-01T09:35:17.403Z</time></trkpt><trkpt lat="44.7095175" lon="6.6029939"><ele>913.0</ele><time>2026-05-01T09:35:18.403Z</time></trkpt><trkpt lat="44.7093468" lon="6.6030593"><ele>910.6666666666666</ele><time>2026-05-01T09:35:19.403Z</time></trkpt><trkpt lat="44.7091814" lon="6.6031232"><ele>908.3333333333333</ele><time>2026-05-01T09:35:20.403Z</time></trkpt><trkpt lat="44.7090207" lon="6.6031826"><ele>906.0</ele><time>2026-05-01T09:35:21.403Z</time></trkpt><trkpt lat="44.7088641" lon="6.6032401"><ele>906.0</ele><time>2026-05-01T09:35:22.403Z</time></trkpt><trkpt lat="44.7087124" lon="6.6033013"><ele>906.0</ele><time>2026-05-01T09:35:23.403Z</time></trkpt><trkpt lat="44.7085663" lon="6.6033647"><ele>906.0</ele><time>2026-05-01T09:35:24.403Z</time></trkpt><trkpt lat="44.708423" lon="6.6034297"><ele>905.0</ele><time>2026-05-01T09:35:25.404Z</time></trkpt><trkpt lat="44.7082818" lon="6.6034956"><ele>904.0</ele><time>2026-05-01T09:35:26.403Z</time></trkpt><trkpt lat="44.7081409" lon="6.6035654"><ele>903.0</ele><time>2026-05-01T09:35:27.403Z</time></trkpt><trkpt lat="44.7079969" lon="6.6036416"><ele>903.0</ele><time>2026-05-01T09:35:28.403Z</time></trkpt><trkpt lat="44.7078547" lon="6.6037192"><ele>903.0</ele><time>2026-05-01T09:35:29.403Z</time></trkpt><trkpt lat="44.7077187" lon="6.6037993"><ele>903.0</ele><time>2026-05-01T09:35:30.403Z</time></trkpt><trkpt lat="44.7075882" lon="6.6038807"><ele>903.0</ele><time>2026-05-01T09:35:31.403Z</time></trkpt><trkpt lat="44.7074692" lon="6.6039596"><ele>903.0</ele><time>2026-05-01T09:35:32.403Z</time></trkpt><trkpt lat="44.7073596" lon="6.6040312"><ele>903.0</ele><time>2026-05-01T09:35:33.403Z</time></trkpt><trkpt lat="44.7072631" lon="6.6040938"><ele>903.0</ele><time>2026-05-01T09:35:34.403Z</time></trkpt><trkpt lat="44.7071781" lon="6.6041514"><ele>903.0</ele><time>2026-05-01T09:35:35.403Z</time></trkpt><trkpt lat="44.7070985" lon="6.6042077"><ele>903.0</ele><time>2026-05-01T09:35:36.403Z</time></trkpt><trkpt lat="44.707018" lon="6.6042508"><ele>903.0</ele><time>2026-05-01T09:35:37.403Z</time></trkpt><trkpt lat="44.7069366" lon="6.6042693"><ele>903.0</ele><time>2026-05-01T09:35:38.403Z</time></trkpt><trkpt lat="44.7068568" lon="6.6042677"><ele>903.0</ele><time>2026-05-01T09:35:39.404Z</time></trkpt><trkpt lat="44.7067801" lon="6.6042783"><ele>903.0</ele><time>2026-05-01T09:35:40.403Z</time></trkpt><trkpt lat="44.706707" lon="6.604334"><ele>903.0</ele><time>2026-05-01T09:35:41.404Z</time></trkpt><trkpt lat="44.7066356" lon="6.6044184"><ele>903.0</ele><time>2026-05-01T09:35:42.403Z</time></trkpt><trkpt lat="44.706551" lon="6.6045125"><ele>903.25</ele><time>2026-05-01T09:35:43.403Z</time></trkpt><trkpt lat="44.7064372" lon="6.6045904"><ele>903.5</ele><time>2026-05-01T09:35:44.403Z</time></trkpt><trkpt lat="44.7063011" lon="6.6046574"><ele>903.75</ele><time>2026-05-01T09:35:45.403Z</time></trkpt><trkpt lat="44.7061491" lon="6.6047361"><ele>904.0</ele><time>2026-05-01T09:35:46.404Z</time></trkpt><trkpt lat="44.7059817" lon="6.604828"><ele>903.0</ele><time>2026-05-01T09:35:47.404Z</time></trkpt><trkpt lat="44.7058085" lon="6.6049311"><ele>902.0</ele><time>2026-05-01T09:35:48.403Z</time></trkpt><trkpt lat="44.7056294" lon="6.6050437"><ele>901.0</ele><time>2026-05-01T09:35:49.403Z</time></trkpt><trkpt lat="44.7054461" lon="6.6051629"><ele>901.0</ele><time>2026-05-01T09:35:50.404Z</time></trkpt><trkpt lat="44.7052665" lon="6.6052887"><ele>901.0</ele><time>2026-05-01T09:35:51.403Z</time></trkpt><trkpt lat="44.7050929" lon="6.6054197"><ele>901.0</ele><time>2026-05-01T09:35:52.404Z</time></trkpt><trkpt lat="44.7049232" lon="6.6055534"><ele>902.3333333333333</ele><time>2026-05-01T09:35:53.403Z</time></trkpt><trkpt lat="44.7047582" lon="6.6056885"><ele>903.6666666666667</ele><time>2026-05-01T09:35:54.403Z</time></trkpt><trkpt lat="44.7045969" lon="6.6058218"><ele>905.0</ele><time>2026-05-01T09:35:55.403Z</time></trkpt><trkpt lat="44.7044409" lon="6.6059542"><ele>905.0</ele><time>2026-05-01T09:35:56.404Z</time></trkpt><trkpt lat="44.7042901" lon="6.6060809"><ele>905.0</ele><time>2026-05-01T09:35:57.404Z</time></trkpt><trkpt lat="44.7041432" lon="6.6062078"><ele>905.0</ele><time>2026-05-01T09:35:58.403Z</time></trkpt><trkpt lat="44.7039982" lon="6.6063356"><ele>904.6666666666667</ele><time>2026-05-01T09:35:59.403Z</time></trkpt><trkpt lat="44.7038524" lon="6.6064599"><ele>904.3333333333333</ele><time>2026-05-01T09:36:00.403Z</time></trkpt><trkpt lat="44.7037086" lon="6.6065869"><ele>904.0</ele><time>2026-05-01T09:36:01.403Z</time></trkpt><trkpt lat="44.7035692" lon="6.6067115"><ele>904.0</ele><time>2026-05-01T09:36:02.403Z</time></trkpt><trkpt lat="44.7034251" lon="6.6068366"><ele>904.0</ele><time>2026-05-01T09:36:03.404Z</time></trkpt><trkpt lat="44.7032748" lon="6.6069649"><ele>904.0</ele><time>2026-05-01T09:36:04.403Z</time></trkpt><trkpt lat="44.7031195" lon="6.6070984"><ele>904.3333333333333</ele><time>2026-05-01T09:36:05.403Z</time></trkpt><trkpt lat="44.7029604" lon="6.6072365"><ele>904.6666666666667</ele><time>2026-05-01T09:36:06.403Z</time></trkpt><trkpt lat="44.7027967" lon="6.6073777"><ele>905.0</ele><time>2026-05-01T09:36:07.403Z</time></trkpt><trkpt lat="44.7026365" lon="6.607516"><ele>905.0</ele><time>2026-05-01T09:36:08.403Z</time></trkpt><trkpt lat="44.7024824" lon="6.6076527"><ele>905.0</ele><time>2026-05-01T09:36:09.403Z</time></trkpt><trkpt lat="44.7023247" lon="6.6077902"><ele>905.0</ele><time>2026-05-01T09:36:10.403Z</time></trkpt><trkpt lat="44.7021594" lon="6.6079323"><ele>905.3333333333334</ele><time>2026-05-01T09:36:11.404Z</time></trkpt><trkpt lat="44.7019898" lon="6.608077"><ele>905.6666666666667</ele><time>2026-05-01T09:36:12.403Z</time></trkpt><trkpt lat="44.7018198" lon="6.6082223"><ele>906.0</ele><time>2026-05-01T09:36:13.404Z</time></trkpt><trkpt lat="44.701654" lon="6.6083641"><ele>906.3333333333333</ele><time>2026-05-01T09:36:14.403Z</time></trkpt><trkpt lat="44.7014918" lon="6.6085073"><ele>906.6666666666666</ele><time>2026-05-01T09:36:15.403Z</time></trkpt><trkpt lat="44.7013314" lon="6.6086488"><ele>907.0</ele><time>2026-05-01T09:36:16.403Z</time></trkpt><trkpt lat="44.7011689" lon="6.6087914"><ele>905.3333333333333</ele><time>2026-05-01T09:36:17.403Z</time></trkpt><trkpt lat="44.7010048" lon="6.6089331"><ele>903.6666666666667</ele><time>2026-05-01T09:36:18.403Z</time></trkpt><trkpt lat="44.7008384" lon="6.6090717"><ele>902.0</ele><time>2026-05-01T09:36:19.403Z</time></trkpt><trkpt lat="44.7006693" lon="6.6092113"><ele>902.0</ele><time>2026-05-01T09:36:20.404Z</time></trkpt><trkpt lat="44.7004933" lon="6.609346"><ele>902.0</ele><time>2026-05-01T09:36:21.403Z</time></trkpt><trkpt lat="44.7003113" lon="6.6094739"><ele>902.0</ele><time>2026-05-01T09:36:22.403Z</time></trkpt><trkpt lat="44.7001242" lon="6.6095962"><ele>902.0</ele><time>2026-05-01T09:36:23.403Z</time></trkpt><trkpt lat="44.699932" lon="6.6097133"><ele>902.0</ele><time>2026-05-01T09:36:24.403Z</time></trkpt><trkpt lat="44.6997357" lon="6.6098247"><ele>902.0</ele><time>2026-05-01T09:36:25.403Z</time></trkpt><trkpt lat="44.6995341" lon="6.609924"><ele>901.6666666666667</ele><time>2026-05-01T09:36:26.403Z</time></trkpt><trkpt lat="44.6993296" lon="6.6100136"><ele>901.3333333333333</ele><time>2026-05-01T09:36:27.403Z</time></trkpt><trkpt lat="44.6991245" lon="6.6100916"><ele>901.0</ele><time>2026-05-01T09:36:28.404Z</time></trkpt><trkpt lat="44.6989242" lon="6.6101625"><ele>901.0</ele><time>2026-05-01T09:36:29.403Z</time></trkpt><trkpt lat="44.6987221" lon="6.6102287"><ele>901.0</ele><time>2026-05-01T09:36:30.403Z</time></trkpt><trkpt lat="44.6985194" lon="6.6102919"><ele>901.0</ele><time>2026-05-01T09:36:31.403Z</time></trkpt><trkpt lat="44.6983166" lon="6.6103538"><ele>902.3333333333333</ele><time>2026-05-01T09:36:32.403Z</time></trkpt><trkpt lat="44.6981124" lon="6.6104142"><ele>903.6666666666667</ele><time>2026-05-01T09:36:33.403Z</time></trkpt><trkpt lat="44.6979075" lon="6.6104735"><ele>905.0</ele><time>2026-05-01T09:36:34.403Z</time></trkpt><trkpt lat="44.6977067" lon="6.6105306"><ele>905.0</ele><time>2026-05-01T09:36:35.404Z</time></trkpt><trkpt lat="44.6975096" lon="6.610587"><ele>905.0</ele><time>2026-05-01T09:36:36.404Z</time></trkpt><trkpt lat="44.6973156" lon="6.6106434"><ele>905.0</ele><time>2026-05-01T09:36:37.403Z</time></trkpt><trkpt lat="44.6971219" lon="6.610697"><ele>905.0</ele><time>2026-05-01T09:36:38.403Z</time></trkpt><trkpt lat="44.696926" lon="6.6107519"><ele>905.0</ele><time>2026-05-01T09:36:39.403Z</time></trkpt><trkpt lat="44.6967325" lon="6.6108095"><ele>905.0</ele><time>2026-05-01T09:36:40.404Z</time></trkpt><trkpt lat="44.6965406" lon="6.6108665"><ele>905.3333333333334</ele><time>2026-05-01T09:36:41.403Z</time></trkpt><trkpt lat="44.6963501" lon="6.6109213"><ele>905.6666666666667</ele><time>2026-05-01T09:36:42.403Z</time></trkpt><trkpt lat="44.6961624" lon="6.6109718"><ele>906.0</ele><time>2026-05-01T09:36:43.403Z</time></trkpt><trkpt lat="44.6959723" lon="6.6110283"><ele>906.6666666666667</ele><time>2026-05-01T09:36:44.403Z</time></trkpt><trkpt lat="44.6957834" lon="6.6110814"><ele>907.3333333333334</ele><time>2026-05-01T09:36:45.403Z</time></trkpt><trkpt lat="44.6955964" lon="6.6111349"><ele>908.0</ele><time>2026-05-01T09:36:46.404Z</time></trkpt><trkpt lat="44.6954128" lon="6.6111874"><ele>911.3333333333334</ele><time>2026-05-01T09:36:47.403Z</time></trkpt><trkpt lat="44.6952298" lon="6.6112374"><ele>914.6666666666667</ele><time>2026-05-01T09:36:48.403Z</time></trkpt><trkpt lat="44.6950484" lon="6.6112891"><ele>918.0</ele><time>2026-05-01T09:36:49.404Z</time></trkpt><trkpt lat="44.6948665" lon="6.6113415"><ele>918.0</ele><time>2026-05-01T09:36:50.403Z</time></trkpt><trkpt lat="44.6946856" lon="6.6113948"><ele>918.0</ele><time>2026-05-01T09:36:51.403Z</time></trkpt><trkpt lat="44.6945017" lon="6.6114495"><ele>918.0</ele><time>2026-05-01T09:36:52.404Z</time></trkpt><trkpt lat="44.694315" lon="6.6115045"><ele>918.3333333333333</ele><time>2026-05-01T09:36:53.403Z</time></trkpt><trkpt lat="44.6941261" lon="6.6115586"><ele>918.6666666666666</ele><time>2026-05-01T09:36:54.403Z</time></trkpt><trkpt lat="44.6939351" lon="6.6116112"><ele>919.0</ele><time>2026-05-01T09:36:55.403Z</time></trkpt><trkpt lat="44.6937415" lon="6.6116662"><ele>919.6666666666666</ele><time>2026-05-01T09:36:56.403Z</time></trkpt><trkpt lat="44.6935429" lon="6.6117243"><ele>920.3333333333333</ele><time>2026-05-01T09:36:57.403Z</time></trkpt><trkpt lat="44.6933371" lon="6.6117842"><ele>921.0</ele><time>2026-05-01T09:36:58.403Z</time></trkpt><trkpt lat="44.6931255" lon="6.6118452"><ele>921.0</ele><time>2026-05-01T09:36:59.403Z</time></trkpt><trkpt lat="44.6929145" lon="6.6119057"><ele>921.0</ele><time>2026-05-01T09:37:00.403Z</time></trkpt><trkpt lat="44.6927088" lon="6.6119639"><ele>921.0</ele><time>2026-05-01T09:37:01.403Z</time></trkpt><trkpt lat="44.6925077" lon="6.6120185"><ele>923.0</ele><time>2026-05-01T09:37:02.404Z</time></trkpt><trkpt lat="44.6923101" lon="6.6120733"><ele>925.0</ele><time>2026-05-01T09:37:03.403Z</time></trkpt><trkpt lat="44.6921129" lon="6.6121328"><ele>927.0</ele><time>2026-05-01T09:37:04.403Z</time></trkpt><trkpt lat="44.6919138" lon="6.6121938"><ele>927.0</ele><time>2026-05-01T09:37:05.403Z</time></trkpt><trkpt lat="44.6917203" lon="6.612255"><ele>927.0</ele><time>2026-05-01T09:37:06.403Z</time></trkpt><trkpt lat="44.6915315" lon="6.6123118"><ele>927.0</ele><time>2026-05-01T09:37:07.403Z</time></trkpt><trkpt lat="44.691344" lon="6.6123664"><ele>927.0</ele><time>2026-05-01T09:37:08.404Z</time></trkpt><trkpt lat="44.6911542" lon="6.6124208"><ele>927.0</ele><time>2026-05-01T09:37:09.404Z</time></trkpt><trkpt lat="44.6909606" lon="6.6124757"><ele>927.0</ele><time>2026-05-01T09:37:10.405Z</time></trkpt><trkpt lat="44.6907642" lon="6.6125323"><ele>927.0</ele><time>2026-05-01T09:37:11.403Z</time></trkpt><trkpt lat="44.690568" lon="6.6125866"><ele>927.0</ele><time>2026-05-01T09:37:12.403Z</time></trkpt><trkpt lat="44.6903732" lon="6.6126423"><ele>927.0</ele><time>2026-05-01T09:37:13.403Z</time></trkpt><trkpt lat="44.6901828" lon="6.612699"><ele>927.0</ele><time>2026-05-01T09:37:14.403Z</time></trkpt><trkpt lat="44.6899968" lon="6.6127531"><ele>927.0</ele><time>2026-05-01T09:37:15.403Z</time></trkpt><trkpt lat="44.6898146" lon="6.6128078"><ele>927.0</ele><time>2026-05-01T09:37:16.403Z</time></trkpt><trkpt lat="44.6896319" lon="6.6128618"><ele>926.6666666666667</ele><time>2026-05-01T09:37:17.403Z</time></trkpt><trkpt lat="44.6894478" lon="6.6129159"><ele>926.3333333333334</ele><time>2026-05-01T09:37:18.403Z</time></trkpt><trkpt lat="44.6892623" lon="6.61297"><ele>926.0</ele><time>2026-05-01T09:37:19.403Z</time></trkpt><trkpt lat="44.6890743" lon="6.6130239"><ele>926.0</ele><time>2026-05-01T09:37:20.403Z</time></trkpt><trkpt lat="44.6888829" lon="6.6130796"><ele>926.0</ele><time>2026-05-01T09:37:21.403Z</time></trkpt><trkpt lat="44.6886922" lon="6.6131367"><ele>926.0</ele><time>2026-05-01T09:37:22.403Z</time></trkpt><trkpt lat="44.6885014" lon="6.6131933"><ele>923.0</ele><time>2026-05-01T09:37:23.404Z</time></trkpt><trkpt lat="44.6883111" lon="6.6132462"><ele>920.0</ele><time>2026-05-01T09:37:24.403Z</time></trkpt><trkpt lat="44.6881157" lon="6.6132995"><ele>917.0</ele><time>2026-05-01T09:37:25.403Z</time></trkpt><trkpt lat="44.6879137" lon="6.6133543"><ele>917.0</ele><time>2026-05-01T09:37:26.403Z</time></trkpt><trkpt lat="44.687715" lon="6.6134111"><ele>917.0</ele><time>2026-05-01T09:37:27.403Z</time></trkpt><trkpt lat="44.6875192" lon="6.613467"><ele>917.0</ele><time>2026-05-01T09:37:28.403Z</time></trkpt><trkpt lat="44.6873264" lon="6.6135214"><ele>917.0</ele><time>2026-05-01T09:37:29.403Z</time></trkpt><trkpt lat="44.6871381" lon="6.6135764"><ele>917.0</ele><time>2026-05-01T09:37:30.403Z</time></trkpt><trkpt lat="44.6869545" lon="6.6136321"><ele>917.0</ele><time>2026-05-01T09:37:31.403Z</time></trkpt><trkpt lat="44.6867746" lon="6.6136848"><ele>916.0</ele><time>2026-05-01T09:37:32.404Z</time></trkpt><trkpt lat="44.6865983" lon="6.613737"><ele>915.0</ele><time>2026-05-01T09:37:33.403Z</time></trkpt><trkpt lat="44.6864228" lon="6.6137899"><ele>914.0</ele><time>2026-05-01T09:37:34.403Z</time></trkpt><trkpt lat="44.6862395" lon="6.6138423"><ele>911.6666666666667</ele><time>2026-05-01T09:37:35.404Z</time></trkpt><trkpt lat="44.6860523" lon="6.6138962"><ele>909.3333333333333</ele><time>2026-05-01T09:37:36.403Z</time></trkpt><trkpt lat="44.6858621" lon="6.6139527"><ele>907.0</ele><time>2026-05-01T09:37:37.403Z</time></trkpt><trkpt lat="44.6856675" lon="6.6140104"><ele>907.0</ele><time>2026-05-01T09:37:38.403Z</time></trkpt><trkpt lat="44.6854665" lon="6.6140715"><ele>907.0</ele><time>2026-05-01T09:37:39.404Z</time></trkpt><trkpt lat="44.6852615" lon="6.6141328"><ele>907.0</ele><time>2026-05-01T09:37:40.404Z</time></trkpt><trkpt lat="44.6850541" lon="6.614192"><ele>906.0</ele><time>2026-05-01T09:37:41.403Z</time></trkpt><trkpt lat="44.6848502" lon="6.6142526"><ele>905.0</ele><time>2026-05-01T09:37:42.403Z</time></trkpt><trkpt lat="44.6846493" lon="6.6143124"><ele>904.0</ele><time>2026-05-01T09:37:43.403Z</time></trkpt><trkpt lat="44.6844488" lon="6.6143698"><ele>903.6666666666666</ele><time>2026-05-01T09:37:44.403Z</time></trkpt><trkpt lat="44.6842531" lon="6.6144247"><ele>903.3333333333333</ele><time>2026-05-01T09:37:45.404Z</time></trkpt><trkpt lat="44.6840587" lon="6.6144827"><ele>903.0</ele><time>2026-05-01T09:37:46.403Z</time></trkpt><trkpt lat="44.6838717" lon="6.6145376"><ele>903.6666666666667</ele><time>2026-05-01T09:37:47.403Z</time></trkpt><trkpt lat="44.6836899" lon="6.6145902"><ele>904.3333333333334</ele><time>2026-05-01T09:37:48.403Z</time></trkpt><trkpt lat="44.6835107" lon="6.6146384"><ele>905.0</ele><time>2026-05-01T09:37:49.403Z</time></trkpt><trkpt lat="44.6833304" lon="6.6146877"><ele>903.3333333333334</ele><time>2026-05-01T09:37:50.403Z</time></trkpt><trkpt lat="44.683145" lon="6.6147406"><ele>901.6666666666667</ele><time>2026-05-01T09:37:51.404Z</time></trkpt><trkpt lat="44.6829557" lon="6.6147941"><ele>900.0</ele><time>2026-05-01T09:37:52.403Z</time></trkpt><trkpt lat="44.6827551" lon="6.6148531"><ele>899.3333333333333</ele><time>2026-05-01T09:37:53.403Z</time></trkpt><trkpt lat="44.6825454" lon="6.6149135"><ele>898.6666666666666</ele><time>2026-05-01T09:37:54.403Z</time></trkpt><trkpt lat="44.6823306" lon="6.6149757"><ele>898.0</ele><time>2026-05-01T09:37:55.404Z</time></trkpt><trkpt lat="44.6821094" lon="6.6150379"><ele>893.5</ele><time>2026-05-01T09:37:56.404Z</time></trkpt><trkpt lat="44.6818868" lon="6.6151024"><ele>889.0</ele><time>2026-05-01T09:37:57.403Z</time></trkpt><trkpt lat="44.6816627" lon="6.6151698"><ele>889.0</ele><time>2026-05-01T09:37:58.403Z</time></trkpt><trkpt lat="44.6814438" lon="6.6152346"><ele>889.0</ele><time>2026-05-01T09:37:59.404Z</time></trkpt><trkpt lat="44.6812272" lon="6.6152978"><ele>889.0</ele><time>2026-05-01T09:38:00.403Z</time></trkpt><trkpt lat="44.6810175" lon="6.615355"><ele>888.6666666666666</ele><time>2026-05-01T09:38:01.403Z</time></trkpt><trkpt lat="44.6808148" lon="6.6154125"><ele>888.3333333333333</ele><time>2026-05-01T09:38:02.403Z</time></trkpt><trkpt lat="44.6806198" lon="6.6154716"><ele>888.0</ele><time>2026-05-01T09:38:03.403Z</time></trkpt><trkpt lat="44.6804253" lon="6.6155286"><ele>888.0</ele><time>2026-05-01T09:38:04.403Z</time></trkpt><trkpt lat="44.6802274" lon="6.6155849"><ele>888.0</ele><time>2026-05-01T09:38:05.404Z</time></trkpt><trkpt lat="44.6800252" lon="6.6156427"><ele>888.0</ele><time>2026-05-01T09:38:06.404Z</time></trkpt><trkpt lat="44.6798232" lon="6.6157025"><ele>888.0</ele><time>2026-05-01T09:38:07.403Z</time></trkpt><trkpt lat="44.6796214" lon="6.6157608"><ele>888.0</ele><time>2026-05-01T09:38:08.404Z</time></trkpt><trkpt lat="44.6794208" lon="6.6158197"><ele>888.0</ele><time>2026-05-01T09:38:09.403Z</time></trkpt><trkpt lat="44.6792237" lon="6.6158806"><ele>888.3333333333333</ele><time>2026-05-01T09:38:10.403Z</time></trkpt><trkpt lat="44.6790285" lon="6.6159382"><ele>888.6666666666666</ele><time>2026-05-01T09:38:11.404Z</time></trkpt><trkpt lat="44.6788335" lon="6.6159943"><ele>889.0</ele><time>2026-05-01T09:38:12.403Z</time></trkpt><trkpt lat="44.6786399" lon="6.616047"><ele>888.6666666666666</ele><time>2026-05-01T09:38:13.403Z</time></trkpt><trkpt lat="44.6784465" lon="6.616101"><ele>888.3333333333333</ele><time>2026-05-01T09:38:14.403Z</time></trkpt><trkpt lat="44.6782543" lon="6.6161559"><ele>888.0</ele><time>2026-05-01T09:38:15.404Z</time></trkpt><trkpt lat="44.6780669" lon="6.6162093"><ele>888.3333333333333</ele><time>2026-05-01T09:38:16.403Z</time></trkpt><trkpt lat="44.677886" lon="6.61626"><ele>888.6666666666666</ele><time>2026-05-01T09:38:17.403Z</time></trkpt><trkpt lat="44.6777114" lon="6.6163091"><ele>889.0</ele><time>2026-05-01T09:38:18.404Z</time></trkpt><trkpt lat="44.6775441" lon="6.6163591"><ele>889.0</ele><time>2026-05-01T09:38:19.403Z</time></trkpt><trkpt lat="44.677381" lon="6.6164092"><ele>889.0</ele><time>2026-05-01T09:38:20.403Z</time></trkpt><trkpt lat="44.6772276" lon="6.6164558"><ele>889.0</ele><time>2026-05-01T09:38:21.403Z</time></trkpt><trkpt lat="44.6770811" lon="6.6164994"><ele>889.0</ele><time>2026-05-01T09:38:22.403Z</time></trkpt><trkpt lat="44.6769419" lon="6.6165413"><ele>889.0</ele><time>2026-05-01T09:38:23.403Z</time></trkpt><trkpt lat="44.6768086" lon="6.6165777"><ele>889.0</ele><time>2026-05-01T09:38:24.403Z</time></trkpt><trkpt lat="44.6766798" lon="6.6166074"><ele>889.0</ele><time>2026-05-01T09:38:25.404Z</time></trkpt><trkpt lat="44.6765586" lon="6.6166318"><ele>888.8000000000001</ele><time>2026-05-01T09:38:26.403Z</time></trkpt><trkpt lat="44.6764427" lon="6.6166504"><ele>888.6000000000001</ele><time>2026-05-01T09:38:27.404Z</time></trkpt><trkpt lat="44.6763326" lon="6.6166696"><ele>888.4</ele><time>2026-05-01T09:38:28.404Z</time></trkpt><trkpt lat="44.6762272" lon="6.6166883"><ele>888.2</ele><time>2026-05-01T09:38:29.404Z</time></trkpt><trkpt lat="44.6761235" lon="6.6167068"><ele>888.0</ele><time>2026-05-01T09:38:30.403Z</time></trkpt><trkpt lat="44.6760185" lon="6.6167357"><ele>887.75</ele><time>2026-05-01T09:38:31.403Z</time></trkpt><trkpt lat="44.6759088" lon="6.6167739"><ele>887.5</ele><time>2026-05-01T09:38:32.403Z</time></trkpt><trkpt lat="44.6757932" lon="6.6168191"><ele>887.25</ele><time>2026-05-01T09:38:33.403Z</time></trkpt><trkpt lat="44.6756766" lon="6.6168745"><ele>887.0</ele><time>2026-05-01T09:38:34.403Z</time></trkpt><trkpt lat="44.6755602" lon="6.6169269"><ele>887.0</ele><time>2026-05-01T09:38:35.403Z</time></trkpt><trkpt lat="44.675448" lon="6.6169714"><ele>887.0</ele><time>2026-05-01T09:38:36.403Z</time></trkpt><trkpt lat="44.6753401" lon="6.617007"><ele>887.0</ele><time>2026-05-01T09:38:37.403Z</time></trkpt><trkpt lat="44.6752359" lon="6.6170376"><ele>887.0</ele><time>2026-05-01T09:38:38.403Z</time></trkpt><trkpt lat="44.6751358" lon="6.6170668"><ele>887.0</ele><time>2026-05-01T09:38:39.403Z</time></trkpt><trkpt lat="44.6750387" lon="6.6170977"><ele>887.25</ele><time>2026-05-01T09:38:40.403Z</time></trkpt><trkpt lat="44.6749376" lon="6.6171281"><ele>887.5</ele><time>2026-05-01T09:38:41.404Z</time></trkpt><trkpt lat="44.6748296" lon="6.617158"><ele>887.75</ele><time>2026-05-01T09:38:42.403Z</time></trkpt><trkpt lat="44.6747133" lon="6.6171912"><ele>888.0</ele><time>2026-05-01T09:38:43.403Z</time></trkpt><trkpt lat="44.6745916" lon="6.6172243"><ele>888.0</ele><time>2026-05-01T09:38:44.403Z</time></trkpt><trkpt lat="44.6744626" lon="6.6172533"><ele>888.0</ele><time>2026-05-01T09:38:45.403Z</time></trkpt><trkpt lat="44.6743338" lon="6.6172846"><ele>888.0</ele><time>2026-05-01T09:38:46.405Z</time></trkpt><trkpt lat="44.6742084" lon="6.6173166"><ele>888.0</ele><time>2026-05-01T09:38:47.403Z</time></trkpt><trkpt lat="44.674088" lon="6.6173516"><ele>888.0</ele><time>2026-05-01T09:38:48.403Z</time></trkpt><trkpt lat="44.6739614" lon="6.6173897"><ele>888.0</ele><time>2026-05-01T09:38:49.403Z</time></trkpt><trkpt lat="44.6738309" lon="6.6174289"><ele>888.0</ele><time>2026-05-01T09:38:50.403Z</time></trkpt><trkpt lat="44.6736964" lon="6.6174715"><ele>888.0</ele><time>2026-05-01T09:38:51.403Z</time></trkpt><trkpt lat="44.67356" lon="6.6175084"><ele>888.0</ele><time>2026-05-01T09:38:52.403Z</time></trkpt><trkpt lat="44.6734279" lon="6.6175424"><ele>888.0</ele><time>2026-05-01T09:38:53.404Z</time></trkpt><trkpt lat="44.6732949" lon="6.6175781"><ele>888.0</ele><time>2026-05-01T09:38:54.403Z</time></trkpt><trkpt lat="44.6731604" lon="6.6176178"><ele>888.0</ele><time>2026-05-01T09:38:55.403Z</time></trkpt><trkpt lat="44.673027" lon="6.6176577"><ele>888.0</ele><time>2026-05-01T09:38:56.403Z</time></trkpt><trkpt lat="44.6728972" lon="6.6176962"><ele>888.0</ele><time>2026-05-01T09:38:57.403Z</time></trkpt><trkpt lat="44.6727737" lon="6.6177313"><ele>888.0</ele><time>2026-05-01T09:38:58.403Z</time></trkpt><trkpt lat="44.6726576" lon="6.6177622"><ele>888.0</ele><time>2026-05-01T09:38:59.404Z</time></trkpt><trkpt lat="44.6725494" lon="6.6177963"><ele>888.0</ele><time>2026-05-01T09:39:00.403Z</time></trkpt><trkpt lat="44.6724472" lon="6.6178256"><ele>888.0</ele><time>2026-05-01T09:39:01.403Z</time></trkpt><trkpt lat="44.6723506" lon="6.6178513"><ele>888.0</ele><time>2026-05-01T09:39:02.403Z</time></trkpt><trkpt lat="44.6722605" lon="6.617879"><ele>888.0</ele><time>2026-05-01T09:39:03.403Z</time></trkpt><trkpt lat="44.6721679" lon="6.6179061"><ele>888.0</ele><time>2026-05-01T09:39:04.404Z</time></trkpt><trkpt lat="44.6720656" lon="6.6179341"><ele>888.0</ele><time>2026-05-01T09:39:05.403Z</time></trkpt><trkpt lat="44.6719601" lon="6.6179671"><ele>888.0</ele><time>2026-05-01T09:39:06.403Z</time></trkpt><trkpt lat="44.6718486" lon="6.6180098"><ele>888.0</ele><time>2026-05-01T09:39:07.404Z</time></trkpt><trkpt lat="44.671728" lon="6.6180661"><ele>888.0</ele><time>2026-05-01T09:39:08.403Z</time></trkpt><trkpt lat="44.6716018" lon="6.6181298"><ele>888.5</ele><time>2026-05-01T09:39:09.403Z</time></trkpt><trkpt lat="44.6714692" lon="6.61818"><ele>889.0</ele><time>2026-05-01T09:39:10.403Z</time></trkpt><trkpt lat="44.6713244" lon="6.6182105"><ele>889.5</ele><time>2026-05-01T09:39:11.403Z</time></trkpt><trkpt lat="44.6711742" lon="6.6182311"><ele>890.0</ele><time>2026-05-01T09:39:12.403Z</time></trkpt><trkpt lat="44.6710158" lon="6.6182512"><ele>890.0</ele><time>2026-05-01T09:39:13.403Z</time></trkpt><trkpt lat="44.6708537" lon="6.618288"><ele>890.0</ele><time>2026-05-01T09:39:14.403Z</time></trkpt><trkpt lat="44.6706869" lon="6.6183352"><ele>890.0</ele><time>2026-05-01T09:39:15.403Z</time></trkpt><trkpt lat="44.6705145" lon="6.6183771"><ele>890.0</ele><time>2026-05-01T09:39:16.403Z</time></trkpt><trkpt lat="44.6703348" lon="6.6184161"><ele>890.0</ele><time>2026-05-01T09:39:17.403Z</time></trkpt><trkpt lat="44.6701514" lon="6.6184496"><ele>890.0</ele><time>2026-05-01T09:39:18.403Z</time></trkpt><trkpt lat="44.669968" lon="6.6184695"><ele>889.3333333333334</ele><time>2026-05-01T09:39:19.403Z</time></trkpt><trkpt lat="44.6697875" lon="6.6184786"><ele>888.6666666666667</ele><time>2026-05-01T09:39:20.403Z</time></trkpt><trkpt lat="44.6696055" lon="6.6184806"><ele>888.0</ele><time>2026-05-01T09:39:21.403Z</time></trkpt><trkpt lat="44.6694221" lon="6.6184675"><ele>888.0</ele><time>2026-05-01T09:39:22.403Z</time></trkpt><trkpt lat="44.6692363" lon="6.6184383"><ele>888.0</ele><time>2026-05-01T09:39:23.403Z</time></trkpt><trkpt lat="44.6690484" lon="6.618396"><ele>888.0</ele><time>2026-05-01T09:39:24.404Z</time></trkpt><trkpt lat="44.6688603" lon="6.6183439"><ele>888.0</ele><time>2026-05-01T09:39:25.403Z</time></trkpt><trkpt lat="44.6686722" lon="6.6182777"><ele>888.0</ele><time>2026-05-01T09:39:26.403Z</time></trkpt><trkpt lat="44.6684864" lon="6.6181974"><ele>888.0</ele><time>2026-05-01T09:39:27.403Z</time></trkpt><trkpt lat="44.6683047" lon="6.6181061"><ele>888.0</ele><time>2026-05-01T09:39:28.404Z</time></trkpt><trkpt lat="44.6681312" lon="6.6180077"><ele>888.0</ele><time>2026-05-01T09:39:29.403Z</time></trkpt><trkpt lat="44.6679624" lon="6.6179005"><ele>888.0</ele><time>2026-05-01T09:39:30.404Z</time></trkpt><trkpt lat="44.6677971" lon="6.617781"><ele>888.6666666666667</ele><time>2026-05-01T09:39:31.404Z</time></trkpt><trkpt lat="44.667635" lon="6.6176532"><ele>889.3333333333334</ele><time>2026-05-01T09:39:32.404Z</time></trkpt><trkpt lat="44.6674772" lon="6.6175174"><ele>890.0</ele><time>2026-05-01T09:39:33.403Z</time></trkpt><trkpt lat="44.6673264" lon="6.6173768"><ele>890.0</ele><time>2026-05-01T09:39:34.403Z</time></trkpt><trkpt lat="44.6671858" lon="6.6172317"><ele>890.0</ele><time>2026-05-01T09:39:35.404Z</time></trkpt><trkpt lat="44.6670576" lon="6.6170794"><ele>890.0</ele><time>2026-05-01T09:39:36.403Z</time></trkpt><trkpt lat="44.6669395" lon="6.6169178"><ele>890.3333333333334</ele><time>2026-05-01T09:39:37.404Z</time></trkpt><trkpt lat="44.6668261" lon="6.6167524"><ele>890.6666666666667</ele><time>2026-05-01T09:39:38.403Z</time></trkpt><trkpt lat="44.6667141" lon="6.6165788"><ele>891.0</ele><time>2026-05-01T09:39:39.403Z</time></trkpt><trkpt lat="44.6666093" lon="6.6164022"><ele>891.0</ele><time>2026-05-01T09:39:40.405Z</time></trkpt><trkpt lat="44.6665151" lon="6.6162316"><ele>891.0</ele><time>2026-05-01T09:39:41.403Z</time></trkpt><trkpt lat="44.6664308" lon="6.6160759"><ele>891.0</ele><time>2026-05-01T09:39:42.404Z</time></trkpt><trkpt lat="44.6663579" lon="6.6159345"><ele>891.0</ele><time>2026-05-01T09:39:43.403Z</time></trkpt><trkpt lat="44.6662892" lon="6.6157999"><ele>891.0</ele><time>2026-05-01T09:39:44.404Z</time></trkpt><trkpt lat="44.6662235" lon="6.6156707"><ele>890.9999999999999</ele><time>2026-05-01T09:39:45.404Z</time></trkpt><trkpt lat="44.6661642" lon="6.6155501"><ele>890.9999999999999</ele><time>2026-05-01T09:39:46.403Z</time></trkpt><trkpt lat="44.6661117" lon="6.6154409"><ele>891.0</ele><time>2026-05-01T09:39:47.403Z</time></trkpt><trkpt lat="44.6660623" lon="6.6153387"><ele>891.0</ele><time>2026-05-01T09:39:48.405Z</time></trkpt><trkpt lat="44.6660138" lon="6.6152399"><ele>891.0</ele><time>2026-05-01T09:39:49.403Z</time></trkpt><trkpt lat="44.6659678" lon="6.615144"><ele>891.0</ele><time>2026-05-01T09:39:50.403Z</time></trkpt><trkpt lat="44.665927" lon="6.6150425"><ele>891.0</ele><time>2026-05-01T09:39:51.403Z</time></trkpt><trkpt lat="44.6658964" lon="6.6149272"><ele>891.0</ele><time>2026-05-01T09:39:52.404Z</time></trkpt><trkpt lat="44.6658793" lon="6.6147998"><ele>891.0</ele><time>2026-05-01T09:39:53.403Z</time></trkpt><trkpt lat="44.665866" lon="6.6146754"><ele>891.0</ele><time>2026-05-01T09:39:54.403Z</time></trkpt><trkpt lat="44.6658339" lon="6.614555"><ele>891.0</ele><time>2026-05-01T09:39:55.403Z</time></trkpt><trkpt lat="44.6657774" lon="6.6144429"><ele>890.9999999999999</ele><time>2026-05-01T09:39:56.403Z</time></trkpt><trkpt lat="44.6656986" lon="6.6143533"><ele>890.9999999999999</ele><time>2026-05-01T09:39:57.404Z</time></trkpt><trkpt lat="44.6656038" lon="6.6142734"><ele>891.0</ele><time>2026-05-01T09:39:58.403Z</time></trkpt><trkpt lat="44.6655077" lon="6.6141663"><ele>891.0</ele><time>2026-05-01T09:39:59.404Z</time></trkpt><trkpt lat="44.6654217" lon="6.6140175"><ele>891.0</ele><time>2026-05-01T09:40:00.403Z</time></trkpt><trkpt lat="44.6653346" lon="6.6138489"><ele>891.0</ele><time>2026-05-01T09:40:01.403Z</time></trkpt><trkpt lat="44.6652342" lon="6.6136741"><ele>891.0</ele><time>2026-05-01T09:40:02.405Z</time></trkpt><trkpt lat="44.6651268" lon="6.6134838"><ele>890.6666666666667</ele><time>2026-05-01T09:40:03.404Z</time></trkpt><trkpt lat="44.6650174" lon="6.61328"><ele>890.3333333333334</ele><time>2026-05-01T09:40:04.403Z</time></trkpt><trkpt lat="44.6649085" lon="6.6130694"><ele>890.0</ele><time>2026-05-01T09:40:05.404Z</time></trkpt><trkpt lat="44.6648002" lon="6.6128573"><ele>890.0</ele><time>2026-05-01T09:40:06.403Z</time></trkpt><trkpt lat="44.6646926" lon="6.612641"><ele>890.0</ele><time>2026-05-01T09:40:07.404Z</time></trkpt><trkpt lat="44.6645846" lon="6.6124268"><ele>890.0</ele><time>2026-05-01T09:40:08.403Z</time></trkpt><trkpt lat="44.6644792" lon="6.61222"><ele>890.6666666666667</ele><time>2026-05-01T09:40:09.403Z</time></trkpt><trkpt lat="44.6643815" lon="6.6120287"><ele>891.3333333333333</ele><time>2026-05-01T09:40:10.404Z</time></trkpt><trkpt lat="44.6642865" lon="6.6118437"><ele>892.0</ele><time>2026-05-01T09:40:11.404Z</time></trkpt><trkpt lat="44.664194" lon="6.6116654"><ele>892.0</ele><time>2026-05-01T09:40:12.404Z</time></trkpt><trkpt lat="44.6641019" lon="6.6114864"><ele>892.0</ele><time>2026-05-01T09:40:13.403Z</time></trkpt><trkpt lat="44.6640077" lon="6.6113002"><ele>892.0</ele><time>2026-05-01T09:40:14.403Z</time></trkpt><trkpt lat="44.66391" lon="6.6111067"><ele>891.3333333333333</ele><time>2026-05-01T09:40:15.403Z</time></trkpt><trkpt lat="44.6638068" lon="6.6109076"><ele>890.6666666666667</ele><time>2026-05-01T09:40:16.403Z</time></trkpt><trkpt lat="44.6637" lon="6.6107025"><ele>890.0</ele><time>2026-05-01T09:40:17.403Z</time></trkpt><trkpt lat="44.6635938" lon="6.6104966"><ele>889.6666666666667</ele><time>2026-05-01T09:40:18.403Z</time></trkpt><trkpt lat="44.663491" lon="6.6102945"><ele>889.3333333333333</ele><time>2026-05-01T09:40:19.404Z</time></trkpt><trkpt lat="44.6633905" lon="6.610095"><ele>889.0</ele><time>2026-05-01T09:40:20.403Z</time></trkpt><trkpt lat="44.6632883" lon="6.6098942"><ele>889.0</ele><time>2026-05-01T09:40:21.404Z</time></trkpt><trkpt lat="44.6631845" lon="6.6096923"><ele>889.0</ele><time>2026-05-01T09:40:22.403Z</time></trkpt><trkpt lat="44.6630814" lon="6.6094936"><ele>889.0</ele><time>2026-05-01T09:40:23.403Z</time></trkpt><trkpt lat="44.6629776" lon="6.6092952"><ele>888.0</ele><time>2026-05-01T09:40:24.404Z</time></trkpt><trkpt lat="44.6628758" lon="6.6090958"><ele>887.0</ele><time>2026-05-01T09:40:25.404Z</time></trkpt><trkpt lat="44.6627744" lon="6.6088956"><ele>886.0</ele><time>2026-05-01T09:40:26.403Z</time></trkpt><trkpt lat="44.6626734" lon="6.6086961"><ele>886.3333333333333</ele><time>2026-05-01T09:40:27.403Z</time></trkpt><trkpt lat="44.6625711" lon="6.6084989"><ele>886.6666666666667</ele><time>2026-05-01T09:40:28.403Z</time></trkpt><trkpt lat="44.6624688" lon="6.6083025"><ele>887.0</ele><time>2026-05-01T09:40:29.403Z</time></trkpt><trkpt lat="44.6623665" lon="6.6081067"><ele>887.0</ele><time>2026-05-01T09:40:30.403Z</time></trkpt><trkpt lat="44.6622646" lon="6.607911"><ele>887.0</ele><time>2026-05-01T09:40:31.403Z</time></trkpt><trkpt lat="44.6621657" lon="6.6077155"><ele>887.0</ele><time>2026-05-01T09:40:32.403Z</time></trkpt><trkpt lat="44.6620674" lon="6.6075173"><ele>886.6666666666667</ele><time>2026-05-01T09:40:33.403Z</time></trkpt><trkpt lat="44.661969" lon="6.6073168"><ele>886.3333333333333</ele><time>2026-05-01T09:40:34.403Z</time></trkpt><trkpt lat="44.6618688" lon="6.6071169"><ele>886.0</ele><time>2026-05-01T09:40:35.403Z</time></trkpt><trkpt lat="44.6617682" lon="6.606917"><ele>885.3333333333333</ele><time>2026-05-01T09:40:36.403Z</time></trkpt><trkpt lat="44.6616671" lon="6.6067262"><ele>884.6666666666667</ele><time>2026-05-01T09:40:37.403Z</time></trkpt><trkpt lat="44.6615734" lon="6.6065426"><ele>884.0</ele><time>2026-05-01T09:40:38.403Z</time></trkpt><trkpt lat="44.661483" lon="6.6063667"><ele>884.0</ele><time>2026-05-01T09:40:39.403Z</time></trkpt><trkpt lat="44.6614008" lon="6.6062044"><ele>884.0</ele><time>2026-05-01T09:40:40.403Z</time></trkpt><trkpt lat="44.6613208" lon="6.6060467"><ele>884.0</ele><time>2026-05-01T09:40:41.403Z</time></trkpt><trkpt lat="44.6612453" lon="6.6058942"><ele>884.0</ele><time>2026-05-01T09:40:42.404Z</time></trkpt><trkpt lat="44.6611709" lon="6.6057476"><ele>883.25</ele><time>2026-05-01T09:40:43.403Z</time></trkpt><trkpt lat="44.6610985" lon="6.605603"><ele>882.5</ele><time>2026-05-01T09:40:44.403Z</time></trkpt><trkpt lat="44.6610257" lon="6.6054635"><ele>881.75</ele><time>2026-05-01T09:40:45.403Z</time></trkpt><trkpt lat="44.6609523" lon="6.6053213"><ele>881.0</ele><time>2026-05-01T09:40:46.403Z</time></trkpt><trkpt lat="44.6608785" lon="6.6051759"><ele>881.0</ele><time>2026-05-01T09:40:47.403Z</time></trkpt><trkpt lat="44.6608049" lon="6.6050279"><ele>881.0</ele><time>2026-05-01T09:40:48.403Z</time></trkpt><trkpt lat="44.6607307" lon="6.6048839"><ele>881.0</ele><time>2026-05-01T09:40:49.403Z</time></trkpt><trkpt lat="44.6606548" lon="6.6047413"><ele>881.0</ele><time>2026-05-01T09:40:50.403Z</time></trkpt><trkpt lat="44.6605808" lon="6.6045969"><ele>881.5</ele><time>2026-05-01T09:40:51.403Z</time></trkpt><trkpt lat="44.6605067" lon="6.6044528"><ele>882.0</ele><time>2026-05-01T09:40:52.403Z</time></trkpt><trkpt lat="44.6604368" lon="6.604314"><ele>882.5</ele><time>2026-05-01T09:40:53.404Z</time></trkpt><trkpt lat="44.6603681" lon="6.6041774"><ele>883.0</ele><time>2026-05-01T09:40:54.404Z</time></trkpt><trkpt lat="44.6602992" lon="6.604037"><ele>883.0</ele><time>2026-05-01T09:40:55.403Z</time></trkpt><trkpt lat="44.660223" lon="6.6038819"><ele>883.0</ele><time>2026-05-01T09:40:56.404Z</time></trkpt><trkpt lat="44.6601411" lon="6.6037164"><ele>883.0</ele><time>2026-05-01T09:40:57.403Z</time></trkpt><trkpt lat="44.6600539" lon="6.6035414"><ele>883.0</ele><time>2026-05-01T09:40:58.403Z</time></trkpt><trkpt lat="44.6599631" lon="6.6033656"><ele>883.3333333333333</ele><time>2026-05-01T09:40:59.403Z</time></trkpt><trkpt lat="44.6598688" lon="6.6031852"><ele>883.6666666666667</ele><time>2026-05-01T09:41:00.403Z</time></trkpt><trkpt lat="44.6597724" lon="6.6029972"><ele>884.0</ele><time>2026-05-01T09:41:01.403Z</time></trkpt><trkpt lat="44.6596737" lon="6.6028055"><ele>883.3333333333334</ele><time>2026-05-01T09:41:02.404Z</time></trkpt><trkpt lat="44.6595752" lon="6.6026109"><ele>882.6666666666667</ele><time>2026-05-01T09:41:03.403Z</time></trkpt><trkpt lat="44.6594761" lon="6.6024127"><ele>882.0</ele><time>2026-05-01T09:41:04.403Z</time></trkpt><trkpt lat="44.6593765" lon="6.6022136"><ele>881.6666666666667</ele><time>2026-05-01T09:41:05.403Z</time></trkpt><trkpt lat="44.6592762" lon="6.6020158"><ele>881.3333333333334</ele><time>2026-05-01T09:41:06.403Z</time></trkpt><trkpt lat="44.6591772" lon="6.6018196"><ele>881.0</ele><time>2026-05-01T09:41:07.403Z</time></trkpt><trkpt lat="44.6590767" lon="6.6016209"><ele>881.0</ele><time>2026-05-01T09:41:08.403Z</time></trkpt><trkpt lat="44.658973" lon="6.6014177"><ele>881.0</ele><time>2026-05-01T09:41:09.403Z</time></trkpt><trkpt lat="44.6588663" lon="6.6012105"><ele>881.0</ele><time>2026-05-01T09:41:10.403Z</time></trkpt><trkpt lat="44.658759" lon="6.6010037"><ele>880.6666666666667</ele><time>2026-05-01T09:41:11.403Z</time></trkpt><trkpt lat="44.6586532" lon="6.6007918"><ele>880.3333333333333</ele><time>2026-05-01T09:41:12.403Z</time></trkpt><trkpt lat="44.6585445" lon="6.6005766"><ele>880.0</ele><time>2026-05-01T09:41:13.405Z</time></trkpt><trkpt lat="44.6584323" lon="6.6003583"><ele>878.3333333333333</ele><time>2026-05-01T09:41:14.403Z</time></trkpt><trkpt lat="44.6583183" lon="6.6001366"><ele>876.6666666666667</ele><time>2026-05-01T09:41:15.403Z</time></trkpt><trkpt lat="44.6582034" lon="6.5999104"><ele>875.0</ele><time>2026-05-01T09:41:16.403Z</time></trkpt><trkpt lat="44.6580875" lon="6.5996808"><ele>875.3333333333334</ele><time>2026-05-01T09:41:17.403Z</time></trkpt><trkpt lat="44.6579699" lon="6.5994498"><ele>875.6666666666667</ele><time>2026-05-01T09:41:18.403Z</time></trkpt><trkpt lat="44.6578499" lon="6.5992175"><ele>876.0</ele><time>2026-05-01T09:41:19.403Z</time></trkpt><trkpt lat="44.6577259" lon="6.5989787"><ele>877.0</ele><time>2026-05-01T09:41:20.403Z</time></trkpt><trkpt lat="44.6576004" lon="6.5987376"><ele>878.0</ele><time>2026-05-01T09:41:21.403Z</time></trkpt><trkpt lat="44.6574739" lon="6.5984928"><ele>879.0</ele><time>2026-05-01T09:41:22.404Z</time></trkpt><trkpt lat="44.6573469" lon="6.5982464"><ele>879.0</ele><time>2026-05-01T09:41:23.403Z</time></trkpt><trkpt lat="44.6572173" lon="6.5979943"><ele>879.0</ele><time>2026-05-01T09:41:24.404Z</time></trkpt><trkpt lat="44.6570845" lon="6.5977374"><ele>879.0</ele><time>2026-05-01T09:41:25.403Z</time></trkpt><trkpt lat="44.6569495" lon="6.5974756"><ele>878.0</ele><time>2026-05-01T09:41:26.403Z</time></trkpt><trkpt lat="44.6568159" lon="6.5972161"><ele>877.0</ele><time>2026-05-01T09:41:27.403Z</time></trkpt><trkpt lat="44.6566845" lon="6.5969588"><ele>877.0</ele><time>2026-05-01T09:41:28.403Z</time></trkpt><trkpt lat="44.6565546" lon="6.5967071"><ele>877.0</ele><time>2026-05-01T09:41:29.403Z</time></trkpt><trkpt lat="44.656429" lon="6.596467"><ele>877.0</ele><time>2026-05-01T09:41:30.403Z</time></trkpt><trkpt lat="44.6563072" lon="6.5962346"><ele>877.6666666666666</ele><time>2026-05-01T09:41:31.403Z</time></trkpt><trkpt lat="44.6561905" lon="6.5960014"><ele>878.3333333333333</ele><time>2026-05-01T09:41:32.403Z</time></trkpt><trkpt lat="44.6560748" lon="6.5957675"><ele>879.0</ele><time>2026-05-01T09:41:33.403Z</time></trkpt><trkpt lat="44.6559559" lon="6.5955274"><ele>879.3333333333333</ele><time>2026-05-01T09:41:34.403Z</time></trkpt><trkpt lat="44.6558331" lon="6.595282"><ele>879.6666666666666</ele><time>2026-05-01T09:41:35.403Z</time></trkpt><trkpt lat="44.6557059" lon="6.5950312"><ele>880.0</ele><time>2026-05-01T09:41:36.403Z</time></trkpt><trkpt lat="44.6555733" lon="6.5947756"><ele>880.0</ele><time>2026-05-01T09:41:37.403Z</time></trkpt><trkpt lat="44.6554379" lon="6.5945131"><ele>880.0</ele><time>2026-05-01T09:41:38.405Z</time></trkpt><trkpt lat="44.6553011" lon="6.5942472"><ele>880.5</ele><time>2026-05-01T09:41:39.403Z</time></trkpt><trkpt lat="44.6551686" lon="6.5939793"><ele>881.0</ele><time>2026-05-01T09:41:40.403Z</time></trkpt><trkpt lat="44.6550378" lon="6.5937202"><ele>880.0</ele><time>2026-05-01T09:41:41.403Z</time></trkpt><trkpt lat="44.6549073" lon="6.5934647"><ele>879.0</ele><time>2026-05-01T09:41:42.403Z</time></trkpt><trkpt lat="44.6547774" lon="6.593215"><ele>878.0</ele><time>2026-05-01T09:41:43.403Z</time></trkpt><trkpt lat="44.65465" lon="6.5929694"><ele>877.6666666666667</ele><time>2026-05-01T09:41:44.403Z</time></trkpt><trkpt lat="44.6545261" lon="6.5927219"><ele>877.3333333333333</ele><time>2026-05-01T09:41:45.403Z</time></trkpt><trkpt lat="44.6544027" lon="6.5924737"><ele>877.0</ele><time>2026-05-01T09:41:46.403Z</time></trkpt><trkpt lat="44.6542774" lon="6.5922237"><ele>877.6666666666666</ele><time>2026-05-01T09:41:47.404Z</time></trkpt><trkpt lat="44.6541492" lon="6.5919727"><ele>878.3333333333333</ele><time>2026-05-01T09:41:48.403Z</time></trkpt><trkpt lat="44.654021" lon="6.5917255"><ele>879.0</ele><time>2026-05-01T09:41:49.403Z</time></trkpt><trkpt lat="44.6538959" lon="6.5914806"><ele>879.0</ele><time>2026-05-01T09:41:50.404Z</time></trkpt><trkpt lat="44.6537706" lon="6.5912346"><ele>879.0</ele><time>2026-05-01T09:41:51.403Z</time></trkpt><trkpt lat="44.6536454" lon="6.5909904"><ele>879.0</ele><time>2026-05-01T09:41:52.403Z</time></trkpt><trkpt lat="44.6535237" lon="6.5907494"><ele>878.6666666666667</ele><time>2026-05-01T09:41:53.403Z</time></trkpt><trkpt lat="44.6534051" lon="6.5905143"><ele>878.3333333333334</ele><time>2026-05-01T09:41:54.403Z</time></trkpt><trkpt lat="44.653289" lon="6.5902853"><ele>878.0</ele><time>2026-05-01T09:41:55.403Z</time></trkpt><trkpt lat="44.6531764" lon="6.5900669"><ele>878.0</ele><time>2026-05-01T09:41:56.403Z</time></trkpt><trkpt lat="44.6530675" lon="6.5898564"><ele>878.0</ele><time>2026-05-01T09:41:57.403Z</time></trkpt><trkpt lat="44.6529613" lon="6.5896509"><ele>878.0</ele><time>2026-05-01T09:41:58.403Z</time></trkpt><trkpt lat="44.6528537" lon="6.5894406"><ele>880.0</ele><time>2026-05-01T09:41:59.403Z</time></trkpt><trkpt lat="44.6527454" lon="6.5892224"><ele>882.0</ele><time>2026-05-01T09:42:00.403Z</time></trkpt><trkpt lat="44.6526351" lon="6.5889984"><ele>884.0</ele><time>2026-05-01T09:42:01.403Z</time></trkpt><trkpt lat="44.6525238" lon="6.5887709"><ele>882.3333333333334</ele><time>2026-05-01T09:42:02.403Z</time></trkpt><trkpt lat="44.652414" lon="6.5885464"><ele>880.6666666666667</ele><time>2026-05-01T09:42:03.404Z</time></trkpt><trkpt lat="44.6523053" lon="6.5883324"><ele>879.0</ele><time>2026-05-01T09:42:04.403Z</time></trkpt><trkpt lat="44.6521982" lon="6.5881291"><ele>879.0</ele><time>2026-05-01T09:42:05.403Z</time></trkpt><trkpt lat="44.6520947" lon="6.5879337"><ele>879.0</ele><time>2026-05-01T09:42:06.403Z</time></trkpt><trkpt lat="44.6519919" lon="6.5877387"><ele>879.0</ele><time>2026-05-01T09:42:07.404Z</time></trkpt><trkpt lat="44.6518888" lon="6.587539"><ele>879.6666666666667</ele><time>2026-05-01T09:42:08.404Z</time></trkpt><trkpt lat="44.6517843" lon="6.5873331"><ele>880.3333333333334</ele><time>2026-05-01T09:42:09.403Z</time></trkpt><trkpt lat="44.6516853" lon="6.5871374"><ele>881.0</ele><time>2026-05-01T09:42:10.403Z</time></trkpt><trkpt lat="44.6515885" lon="6.5869509"><ele>879.3333333333334</ele><time>2026-05-01T09:42:11.404Z</time></trkpt><trkpt lat="44.6514943" lon="6.5867736"><ele>877.6666666666667</ele><time>2026-05-01T09:42:12.403Z</time></trkpt><trkpt lat="44.6513992" lon="6.5865999"><ele>876.0</ele><time>2026-05-01T09:42:13.403Z</time></trkpt><trkpt lat="44.6513016" lon="6.586427"><ele>876.0</ele><time>2026-05-01T09:42:14.404Z</time></trkpt><trkpt lat="44.6511967" lon="6.5862576"><ele>876.0</ele><time>2026-05-01T09:42:15.403Z</time></trkpt><trkpt lat="44.6510841" lon="6.5860885"><ele>876.0</ele><time>2026-05-01T09:42:16.403Z</time></trkpt><trkpt lat="44.6509676" lon="6.5859207"><ele>877.3333333333333</ele><time>2026-05-01T09:42:17.403Z</time></trkpt><trkpt lat="44.6508534" lon="6.5857552"><ele>878.6666666666666</ele><time>2026-05-01T09:42:18.403Z</time></trkpt><trkpt lat="44.6507469" lon="6.585584"><ele>880.0</ele><time>2026-05-01T09:42:19.403Z</time></trkpt><trkpt lat="44.65066" lon="6.5853975"><ele>878.3333333333333</ele><time>2026-05-01T09:42:20.403Z</time></trkpt><trkpt lat="44.6505947" lon="6.5851945"><ele>876.6666666666667</ele><time>2026-05-01T09:42:21.403Z</time></trkpt><trkpt lat="44.6505448" lon="6.5849713"><ele>875.0</ele><time>2026-05-01T09:42:22.403Z</time></trkpt><trkpt lat="44.6505036" lon="6.5847343"><ele>874.6666666666667</ele><time>2026-05-01T09:42:23.403Z</time></trkpt><trkpt lat="44.6504796" lon="6.5844821"><ele>874.3333333333333</ele><time>2026-05-01T09:42:24.403Z</time></trkpt><trkpt lat="44.6504726" lon="6.5842214"><ele>874.0</ele><time>2026-05-01T09:42:25.403Z</time></trkpt><trkpt lat="44.6504792" lon="6.5839586"><ele>874.0</ele><time>2026-05-01T09:42:26.403Z</time></trkpt><trkpt lat="44.6504899" lon="6.5837089"><ele>874.0</ele><time>2026-05-01T09:42:27.403Z</time></trkpt><trkpt lat="44.6504993" lon="6.5834666"><ele>874.0</ele><time>2026-05-01T09:42:28.403Z</time></trkpt><trkpt lat="44.6505076" lon="6.5832351"><ele>874.25</ele><time>2026-05-01T09:42:29.403Z</time></trkpt><trkpt lat="44.650506" lon="6.5830188"><ele>874.5</ele><time>2026-05-01T09:42:30.403Z</time></trkpt><trkpt lat="44.6504871" lon="6.5828176"><ele>874.75</ele><time>2026-05-01T09:42:31.403Z</time></trkpt><trkpt lat="44.6504506" lon="6.5826255"><ele>875.0</ele><time>2026-05-01T09:42:32.404Z</time></trkpt><trkpt lat="44.6504091" lon="6.5824413"><ele>874.75</ele><time>2026-05-01T09:42:33.403Z</time></trkpt><trkpt lat="44.6503703" lon="6.5822573"><ele>874.5</ele><time>2026-05-01T09:42:34.403Z</time></trkpt><trkpt lat="44.6503347" lon="6.5820715"><ele>874.25</ele><time>2026-05-01T09:42:35.403Z</time></trkpt><trkpt lat="44.6502995" lon="6.5818829"><ele>874.0</ele><time>2026-05-01T09:42:36.403Z</time></trkpt><trkpt lat="44.6502699" lon="6.5816922"><ele>873.75</ele><time>2026-05-01T09:42:37.404Z</time></trkpt><trkpt lat="44.6502466" lon="6.5814988"><ele>873.5</ele><time>2026-05-01T09:42:38.403Z</time></trkpt><trkpt lat="44.6502192" lon="6.5813195"><ele>873.25</ele><time>2026-05-01T09:42:39.403Z</time></trkpt><trkpt lat="44.6501857" lon="6.5811469"><ele>873.0</ele><time>2026-05-01T09:42:40.403Z</time></trkpt><trkpt lat="44.6501351" lon="6.5809938"><ele>872.8</ele><time>2026-05-01T09:42:41.403Z</time></trkpt><trkpt lat="44.6500771" lon="6.58087"><ele>872.5999999999999</ele><time>2026-05-01T09:42:42.403Z</time></trkpt><trkpt lat="44.6500138" lon="6.580778"><ele>872.4000000000001</ele><time>2026-05-01T09:42:43.403Z</time></trkpt><trkpt lat="44.6499488" lon="6.580693"><ele>872.2</ele><time>2026-05-01T09:42:44.404Z</time></trkpt><trkpt lat="44.6498825" lon="6.5806101"><ele>872.0</ele><time>2026-05-01T09:42:45.403Z</time></trkpt><trkpt lat="44.649814" lon="6.5805288"><ele>872.0</ele><time>2026-05-01T09:42:46.402Z</time></trkpt><trkpt lat="44.6497445" lon="6.5804478"><ele>872.0</ele><time>2026-05-01T09:42:47.402Z</time></trkpt><trkpt lat="44.6496693" lon="6.5803716"><ele>872.0</ele><time>2026-05-01T09:42:48.402Z</time></trkpt><trkpt lat="44.6495929" lon="6.5802943"><ele>872.0</ele><time>2026-05-01T09:42:49.402Z</time></trkpt><trkpt lat="44.6495196" lon="6.5802153"><ele>872.0</ele><time>2026-05-01T09:42:50.402Z</time></trkpt><trkpt lat="44.6494483" lon="6.5801353"><ele>872.6</ele><time>2026-05-01T09:42:51.402Z</time></trkpt><trkpt lat="44.6493789" lon="6.580058"><ele>873.2</ele><time>2026-05-01T09:42:52.402Z</time></trkpt><trkpt lat="44.6493102" lon="6.5799739"><ele>873.8</ele><time>2026-05-01T09:42:53.402Z</time></trkpt><trkpt lat="44.6492403" lon="6.5798753"><ele>874.4</ele><time>2026-05-01T09:42:54.402Z</time></trkpt><trkpt lat="44.6491746" lon="6.5797618"><ele>875.0</ele><time>2026-05-01T09:42:55.402Z</time></trkpt><trkpt lat="44.6491173" lon="6.5796362"><ele>875.0000000000001</ele><time>2026-05-01T09:42:56.402Z</time></trkpt><trkpt lat="44.6490657" lon="6.5795185"><ele>875.0</ele><time>2026-05-01T09:42:57.402Z</time></trkpt><trkpt lat="44.6490188" lon="6.5794125"><ele>875.0</ele><time>2026-05-01T09:42:58.403Z</time></trkpt><trkpt lat="44.6489732" lon="6.5793072"><ele>875.0</ele><time>2026-05-01T09:42:59.402Z</time></trkpt><trkpt lat="44.6489269" lon="6.5792079"><ele>875.0000000000001</ele><time>2026-05-01T09:43:00.403Z</time></trkpt><trkpt lat="44.648882" lon="6.5791088"><ele>875.0</ele><time>2026-05-01T09:43:01.403Z</time></trkpt><trkpt lat="44.6488346" lon="6.5790075"><ele>875.2</ele><time>2026-05-01T09:43:02.402Z</time></trkpt><trkpt lat="44.6487852" lon="6.5789037"><ele>875.4</ele><time>2026-05-01T09:43:03.402Z</time></trkpt><trkpt lat="44.6487241" lon="6.5787951"><ele>875.5999999999999</ele><time>2026-05-01T09:43:04.402Z</time></trkpt><trkpt lat="44.6486537" lon="6.5786922"><ele>875.8</ele><time>2026-05-01T09:43:05.402Z</time></trkpt><trkpt lat="44.648576" lon="6.5785928"><ele>876.0</ele><time>2026-05-01T09:43:06.402Z</time></trkpt><trkpt lat="44.6484956" lon="6.5785025"><ele>875.5999999999999</ele><time>2026-05-01T09:43:07.402Z</time></trkpt><trkpt lat="44.6484158" lon="6.578412"><ele>875.1999999999999</ele><time>2026-05-01T09:43:08.402Z</time></trkpt><trkpt lat="44.6483412" lon="6.5783251"><ele>874.8000000000001</ele><time>2026-05-01T09:43:09.403Z</time></trkpt><trkpt lat="44.6482692" lon="6.5782417"><ele>874.4000000000001</ele><time>2026-05-01T09:43:10.402Z</time></trkpt><trkpt lat="44.6481996" lon="6.5781652"><ele>874.0</ele><time>2026-05-01T09:43:11.402Z</time></trkpt><trkpt lat="44.6481346" lon="6.5780945"><ele>873.9999999999999</ele><time>2026-05-01T09:43:12.402Z</time></trkpt><trkpt lat="44.6480719" lon="6.5780308"><ele>874.0</ele><time>2026-05-01T09:43:13.402Z</time></trkpt><trkpt lat="44.6480106" lon="6.5779664"><ele>874.0</ele><time>2026-05-01T09:43:14.402Z</time></trkpt><trkpt lat="44.6479511" lon="6.5778919"><ele>874.0</ele><time>2026-05-01T09:43:15.402Z</time></trkpt><trkpt lat="44.6478902" lon="6.5778157"><ele>873.9999999999999</ele><time>2026-05-01T09:43:16.402Z</time></trkpt><trkpt lat="44.6478212" lon="6.5777357"><ele>874.0</ele><time>2026-05-01T09:43:17.402Z</time></trkpt><trkpt lat="44.6477465" lon="6.5776556"><ele>873.4000000000001</ele><time>2026-05-01T09:43:18.404Z</time></trkpt><trkpt lat="44.647667" lon="6.5775722"><ele>872.8000000000001</ele><time>2026-05-01T09:43:19.402Z</time></trkpt><trkpt lat="44.6475843" lon="6.5774845"><ele>872.1999999999999</ele><time>2026-05-01T09:43:20.402Z</time></trkpt><trkpt lat="44.6474978" lon="6.5773939"><ele>871.5999999999999</ele><time>2026-05-01T09:43:21.402Z</time></trkpt><trkpt lat="44.6474128" lon="6.5772937"><ele>871.0</ele><time>2026-05-01T09:43:22.402Z</time></trkpt><trkpt lat="44.6473252" lon="6.5771914"><ele>871.0</ele><time>2026-05-01T09:43:23.403Z</time></trkpt><trkpt lat="44.6472356" lon="6.5770923"><ele>871.0</ele><time>2026-05-01T09:43:24.402Z</time></trkpt><trkpt lat="44.647147" lon="6.5769924"><ele>871.0</ele><time>2026-05-01T09:43:25.402Z</time></trkpt><trkpt lat="44.6470553" lon="6.5768923"><ele>871.0</ele><time>2026-05-01T09:43:26.403Z</time></trkpt><trkpt lat="44.6469598" lon="6.5767855"><ele>870.75</ele><time>2026-05-01T09:43:27.402Z</time></trkpt><trkpt lat="44.6468618" lon="6.5766731"><ele>870.5</ele><time>2026-05-01T09:43:28.402Z</time></trkpt><trkpt lat="44.6467619" lon="6.5765595"><ele>870.25</ele><time>2026-05-01T09:43:29.402Z</time></trkpt><trkpt lat="44.6466631" lon="6.5764467"><ele>870.0</ele><time>2026-05-01T09:43:30.402Z</time></trkpt><trkpt lat="44.6465627" lon="6.5763334"><ele>870.0</ele><time>2026-05-01T09:43:31.402Z</time></trkpt><trkpt lat="44.6464559" lon="6.5762195"><ele>870.0</ele><time>2026-05-01T09:43:32.402Z</time></trkpt><trkpt lat="44.6463459" lon="6.5761011"><ele>870.0</ele><time>2026-05-01T09:43:33.402Z</time></trkpt><trkpt lat="44.6462341" lon="6.5759785"><ele>870.0</ele><time>2026-05-01T09:43:34.402Z</time></trkpt><trkpt lat="44.6461247" lon="6.575854"><ele>870.0</ele><time>2026-05-01T09:43:35.402Z</time></trkpt><trkpt lat="44.646021" lon="6.575736"><ele>870.0</ele><time>2026-05-01T09:43:36.403Z</time></trkpt><trkpt lat="44.6459225" lon="6.5756242"><ele>870.0</ele><time>2026-05-01T09:43:37.403Z</time></trkpt><trkpt lat="44.6458282" lon="6.5755174"><ele>870.0</ele><time>2026-05-01T09:43:38.402Z</time></trkpt><trkpt lat="44.6457374" lon="6.5754191"><ele>870.0</ele><time>2026-05-01T09:43:39.403Z</time></trkpt><trkpt lat="44.6456476" lon="6.5753185"><ele>870.0</ele><time>2026-05-01T09:43:40.402Z</time></trkpt><trkpt lat="44.6455564" lon="6.5752179"><ele>870.0</ele><time>2026-05-01T09:43:41.402Z</time></trkpt><trkpt lat="44.6454629" lon="6.5751124"><ele>870.0</ele><time>2026-05-01T09:43:42.403Z</time></trkpt><trkpt lat="44.6453651" lon="6.5749996"><ele>869.75</ele><time>2026-05-01T09:43:43.402Z</time></trkpt><trkpt lat="44.645259" lon="6.5748811"><ele>869.5</ele><time>2026-05-01T09:43:44.402Z</time></trkpt><trkpt lat="44.6451451" lon="6.5747519"><ele>869.25</ele><time>2026-05-01T09:43:45.402Z</time></trkpt><trkpt lat="44.645025" lon="6.5746187"><ele>869.0</ele><time>2026-05-01T09:43:46.402Z</time></trkpt><trkpt lat="44.6449066" lon="6.5744861"><ele>868.75</ele><time>2026-05-01T09:43:47.403Z</time></trkpt><trkpt lat="44.6447922" lon="6.5743605"><ele>868.5</ele><time>2026-05-01T09:43:48.402Z</time></trkpt><trkpt lat="44.6446793" lon="6.5742358"><ele>868.25</ele><time>2026-05-01T09:43:49.402Z</time></trkpt><trkpt lat="44.6445623" lon="6.5741023"><ele>868.0</ele><time>2026-05-01T09:43:50.402Z</time></trkpt><trkpt lat="44.6444385" lon="6.5739641"><ele>869.3333333333333</ele><time>2026-05-01T09:43:51.402Z</time></trkpt><trkpt lat="44.6443115" lon="6.5738201"><ele>870.6666666666667</ele><time>2026-05-01T09:43:52.402Z</time></trkpt><trkpt lat="44.6441806" lon="6.5736744"><ele>872.0</ele><time>2026-05-01T09:43:53.403Z</time></trkpt><trkpt lat="44.6440513" lon="6.5735286"><ele>873.0</ele><time>2026-05-01T09:43:54.402Z</time></trkpt><trkpt lat="44.6439251" lon="6.5733869"><ele>874.0</ele><time>2026-05-01T09:43:55.402Z</time></trkpt><trkpt lat="44.6438028" lon="6.5732501"><ele>875.0</ele><time>2026-05-01T09:43:56.403Z</time></trkpt><trkpt lat="44.6436829" lon="6.5731149"><ele>875.3333333333334</ele><time>2026-05-01T09:43:57.402Z</time></trkpt><trkpt lat="44.6435636" lon="6.572978"><ele>875.6666666666667</ele><time>2026-05-01T09:43:58.402Z</time></trkpt><trkpt lat="44.6434402" lon="6.5728384"><ele>876.0</ele><time>2026-05-01T09:43:59.402Z</time></trkpt><trkpt lat="44.6433114" lon="6.5726917"><ele>876.3333333333333</ele><time>2026-05-01T09:44:00.402Z</time></trkpt><trkpt lat="44.6431796" lon="6.5725421"><ele>876.6666666666666</ele><time>2026-05-01T09:44:01.402Z</time></trkpt><trkpt lat="44.6430473" lon="6.5723861"><ele>877.0</ele><time>2026-05-01T09:44:02.402Z</time></trkpt><trkpt lat="44.6429156" lon="6.572236"><ele>876.6666666666666</ele><time>2026-05-01T09:44:03.403Z</time></trkpt><trkpt lat="44.6427796" lon="6.5720828"><ele>876.3333333333333</ele><time>2026-05-01T09:44:04.402Z</time></trkpt><trkpt lat="44.6426398" lon="6.5719292"><ele>876.0</ele><time>2026-05-01T09:44:05.403Z</time></trkpt><trkpt lat="44.6424959" lon="6.5717706"><ele>876.6666666666667</ele><time>2026-05-01T09:44:06.402Z</time></trkpt><trkpt lat="44.6423477" lon="6.5716025"><ele>877.3333333333334</ele><time>2026-05-01T09:44:07.402Z</time></trkpt><trkpt lat="44.6421963" lon="6.5714295"><ele>878.0</ele><time>2026-05-01T09:44:08.402Z</time></trkpt><trkpt lat="44.6420406" lon="6.571252"><ele>878.6666666666667</ele><time>2026-05-01T09:44:09.402Z</time></trkpt><trkpt lat="44.64188" lon="6.5710735"><ele>879.3333333333333</ele><time>2026-05-01T09:44:10.402Z</time></trkpt><trkpt lat="44.6417201" lon="6.5708992"><ele>880.0</ele><time>2026-05-01T09:44:11.402Z</time></trkpt><trkpt lat="44.6415666" lon="6.5707315"><ele>880.0</ele><time>2026-05-01T09:44:12.403Z</time></trkpt><trkpt lat="44.6414197" lon="6.5705684"><ele>880.0</ele><time>2026-05-01T09:44:13.402Z</time></trkpt><trkpt lat="44.6412787" lon="6.5704069"><ele>880.0</ele><time>2026-05-01T09:44:14.402Z</time></trkpt><trkpt lat="44.6411411" lon="6.5702516"><ele>882.6666666666666</ele><time>2026-05-01T09:44:15.402Z</time></trkpt><trkpt lat="44.641006" lon="6.5700974"><ele>885.3333333333333</ele><time>2026-05-01T09:44:16.403Z</time></trkpt><trkpt lat="44.6408731" lon="6.5699439"><ele>888.0</ele><time>2026-05-01T09:44:17.402Z</time></trkpt><trkpt lat="44.6407395" lon="6.5697938"><ele>888.0</ele><time>2026-05-01T09:44:18.402Z</time></trkpt><trkpt lat="44.6406037" lon="6.5696419"><ele>888.0</ele><time>2026-05-01T09:44:19.402Z</time></trkpt><trkpt lat="44.6404657" lon="6.5694863"><ele>888.0</ele><time>2026-05-01T09:44:20.402Z</time></trkpt><trkpt lat="44.6403233" lon="6.5693282"><ele>890.0</ele><time>2026-05-01T09:44:21.402Z</time></trkpt><trkpt lat="44.640179" lon="6.569166"><ele>892.0</ele><time>2026-05-01T09:44:22.402Z</time></trkpt><trkpt lat="44.6400309" lon="6.5690002"><ele>894.0</ele><time>2026-05-01T09:44:23.402Z</time></trkpt><trkpt lat="44.6398791" lon="6.5688311"><ele>894.0</ele><time>2026-05-01T09:44:24.403Z</time></trkpt><trkpt lat="44.6397262" lon="6.5686574"><ele>894.0</ele><time>2026-05-01T09:44:25.402Z</time></trkpt><trkpt lat="44.6395714" lon="6.5684796"><ele>894.0</ele><time>2026-05-01T09:44:26.402Z</time></trkpt><trkpt lat="44.6394208" lon="6.5683071"><ele>894.0</ele><time>2026-05-01T09:44:27.402Z</time></trkpt><trkpt lat="44.6392808" lon="6.5681469"><ele>894.0</ele><time>2026-05-01T09:44:28.403Z</time></trkpt><trkpt lat="44.6391554" lon="6.5680026"><ele>894.0</ele><time>2026-05-01T09:44:29.402Z</time></trkpt><trkpt lat="44.6390356" lon="6.5678637"><ele>894.5</ele><time>2026-05-01T09:44:30.402Z</time></trkpt><trkpt lat="44.6389209" lon="6.5677301"><ele>895.0</ele><time>2026-05-01T09:44:31.402Z</time></trkpt><trkpt lat="44.6388128" lon="6.5676017"><ele>895.5</ele><time>2026-05-01T09:44:32.402Z</time></trkpt><trkpt lat="44.6387037" lon="6.5674714"><ele>896.0</ele><time>2026-05-01T09:44:33.402Z</time></trkpt><trkpt lat="44.6385894" lon="6.5673322"><ele>896.0</ele><time>2026-05-01T09:44:34.402Z</time></trkpt><trkpt lat="44.6384695" lon="6.5671824"><ele>896.0</ele><time>2026-05-01T09:44:35.403Z</time></trkpt><trkpt lat="44.6383443" lon="6.5670292"><ele>896.0</ele><time>2026-05-01T09:44:36.403Z</time></trkpt><trkpt lat="44.6382219" lon="6.5668832"><ele>896.0</ele><time>2026-05-01T09:44:37.403Z</time></trkpt><trkpt lat="44.6380989" lon="6.5667413"><ele>896.0</ele><time>2026-05-01T09:44:38.402Z</time></trkpt><trkpt lat="44.637973" lon="6.566591"><ele>896.0</ele><time>2026-05-01T09:44:39.402Z</time></trkpt><trkpt lat="44.6378438" lon="6.5664342"><ele>894.0</ele><time>2026-05-01T09:44:40.402Z</time></trkpt><trkpt lat="44.6377106" lon="6.5662745"><ele>892.0</ele><time>2026-05-01T09:44:41.402Z</time></trkpt><trkpt lat="44.6375687" lon="6.5661313"><ele>890.0</ele><time>2026-05-01T09:44:42.402Z</time></trkpt><trkpt lat="44.6374081" lon="6.5660153"><ele>895.0</ele><time>2026-05-01T09:44:43.403Z</time></trkpt><trkpt lat="44.6372223" lon="6.5659288"><ele>900.0</ele><time>2026-05-01T09:44:44.402Z</time></trkpt><trkpt lat="44.637026" lon="6.5658495"><ele>905.0</ele><time>2026-05-01T09:44:45.402Z</time></trkpt><trkpt lat="44.6368251" lon="6.5657669"><ele>905.0</ele><time>2026-05-01T09:44:46.402Z</time></trkpt><trkpt lat="44.6366332" lon="6.5656841"><ele>905.0</ele><time>2026-05-01T09:44:47.402Z</time></trkpt><trkpt lat="44.6364545" lon="6.5656056"><ele>905.0</ele><time>2026-05-01T09:44:48.402Z</time></trkpt><trkpt lat="44.6362835" lon="6.5655343"><ele>901.0</ele><time>2026-05-01T09:44:49.402Z</time></trkpt><trkpt lat="44.6361117" lon="6.5654661"><ele>897.0</ele><time>2026-05-01T09:44:50.402Z</time></trkpt><trkpt lat="44.635938" lon="6.565394"><ele>893.0</ele><time>2026-05-01T09:44:51.402Z</time></trkpt><trkpt lat="44.635765" lon="6.5653203"><ele>898.6666666666667</ele><time>2026-05-01T09:44:52.402Z</time></trkpt><trkpt lat="44.6355933" lon="6.5652567"><ele>904.3333333333333</ele><time>2026-05-01T09:44:53.402Z</time></trkpt><trkpt lat="44.6354208" lon="6.5651852"><ele>910.0</ele><time>2026-05-01T09:44:54.402Z</time></trkpt><trkpt lat="44.6352555" lon="6.5650837"><ele>910.0</ele><time>2026-05-01T09:44:55.402Z</time></trkpt><trkpt lat="44.635106" lon="6.5649493"><ele>910.0</ele><time>2026-05-01T09:44:56.402Z</time></trkpt><trkpt lat="44.6349819" lon="6.564788"><ele>910.0</ele><time>2026-05-01T09:44:57.402Z</time></trkpt><trkpt lat="44.6348579" lon="6.5646431"><ele>910.0</ele><time>2026-05-01T09:44:58.403Z</time></trkpt><trkpt lat="44.6347145" lon="6.5645375"><ele>910.0</ele><time>2026-05-01T09:44:59.403Z</time></trkpt><trkpt lat="44.6345542" lon="6.5644729"><ele>910.0</ele><time>2026-05-01T09:45:00.402Z</time></trkpt><trkpt lat="44.634385" lon="6.5644545"><ele>914.0</ele><time>2026-05-01T09:45:01.402Z</time></trkpt><trkpt lat="44.6342082" lon="6.5644439"><ele>918.0</ele><time>2026-05-01T09:45:02.402Z</time></trkpt><trkpt lat="44.6340319" lon="6.5643963"><ele>922.0</ele><time>2026-05-01T09:45:03.403Z</time></trkpt><trkpt lat="44.6338597" lon="6.5643178"><ele>922.0</ele><time>2026-05-01T09:45:04.402Z</time></trkpt><trkpt lat="44.6336983" lon="6.5642076"><ele>922.0</ele><time>2026-05-01T09:45:05.402Z</time></trkpt><trkpt lat="44.6335522" lon="6.5640582"><ele>922.0</ele><time>2026-05-01T09:45:06.402Z</time></trkpt><trkpt lat="44.6334297" lon="6.5638719"><ele>925.3333333333333</ele><time>2026-05-01T09:45:07.402Z</time></trkpt><trkpt lat="44.6333285" lon="6.5636613"><ele>928.6666666666667</ele><time>2026-05-01T09:45:08.402Z</time></trkpt><trkpt lat="44.6332272" lon="6.5634509"><ele>932.0</ele><time>2026-05-01T09:45:09.403Z</time></trkpt><trkpt lat="44.6331212" lon="6.5632388"><ele>932.0</ele><time>2026-05-01T09:45:10.402Z</time></trkpt><trkpt lat="44.6330152" lon="6.5630217"><ele>932.0</ele><time>2026-05-01T09:45:11.402Z</time></trkpt><trkpt lat="44.6329109" lon="6.5628031"><ele>932.0</ele><time>2026-05-01T09:45:12.402Z</time></trkpt><trkpt lat="44.6328068" lon="6.5625852"><ele>931.0</ele><time>2026-05-01T09:45:13.403Z</time></trkpt><trkpt lat="44.6327094" lon="6.5623821"><ele>930.0</ele><time>2026-05-01T09:45:14.402Z</time></trkpt><trkpt lat="44.632615" lon="6.5621915"><ele>929.0</ele><time>2026-05-01T09:45:15.402Z</time></trkpt><trkpt lat="44.6325327" lon="6.5620049"><ele>929.0</ele><time>2026-05-01T09:45:16.402Z</time></trkpt><trkpt lat="44.6324758" lon="6.5618131"><ele>929.0</ele><time>2026-05-01T09:45:17.403Z</time></trkpt><trkpt lat="44.6324519" lon="6.5616115"><ele>929.0</ele><time>2026-05-01T09:45:18.402Z</time></trkpt><trkpt lat="44.6324574" lon="6.5614005"><ele>929.0</ele><time>2026-05-01T09:45:19.403Z</time></trkpt><trkpt lat="44.6324815" lon="6.5611869"><ele>931.3333333333334</ele><time>2026-05-01T09:45:20.403Z</time></trkpt><trkpt lat="44.6324951" lon="6.5609727"><ele>933.6666666666667</ele><time>2026-05-01T09:45:21.402Z</time></trkpt><trkpt lat="44.6324686" lon="6.5607546"><ele>936.0</ele><time>2026-05-01T09:45:22.402Z</time></trkpt><trkpt lat="44.6324167" lon="6.560532"><ele>938.6666666666667</ele><time>2026-05-01T09:45:23.403Z</time></trkpt><trkpt lat="44.6323622" lon="6.5603057"><ele>941.3333333333334</ele><time>2026-05-01T09:45:24.402Z</time></trkpt><trkpt lat="44.632317" lon="6.5600854"><ele>944.0</ele><time>2026-05-01T09:45:25.403Z</time></trkpt><trkpt lat="44.6322688" lon="6.5598696"><ele>944.0</ele><time>2026-05-01T09:45:26.402Z</time></trkpt><trkpt lat="44.6322252" lon="6.5596585"><ele>944.0</ele><time>2026-05-01T09:45:27.402Z</time></trkpt><trkpt lat="44.6321962" lon="6.5594472"><ele>944.0</ele><time>2026-05-01T09:45:28.403Z</time></trkpt><trkpt lat="44.6321877" lon="6.5592365"><ele>944.3333333333334</ele><time>2026-05-01T09:45:29.402Z</time></trkpt><trkpt lat="44.6321947" lon="6.5590255"><ele>944.6666666666667</ele><time>2026-05-01T09:45:30.402Z</time></trkpt><trkpt lat="44.6322172" lon="6.5588129"><ele>945.0</ele><time>2026-05-01T09:45:31.402Z</time></trkpt><trkpt lat="44.632257" lon="6.5586015"><ele>941.6666666666667</ele><time>2026-05-01T09:45:32.402Z</time></trkpt><trkpt lat="44.6323164" lon="6.5583956"><ele>938.3333333333334</ele><time>2026-05-01T09:45:33.403Z</time></trkpt><trkpt lat="44.6323979" lon="6.5582043"><ele>935.0</ele><time>2026-05-01T09:45:34.403Z</time></trkpt><trkpt lat="44.6324896" lon="6.5580324"><ele>931.5</ele><time>2026-05-01T09:45:35.403Z</time></trkpt><trkpt lat="44.6325778" lon="6.5578623"><ele>928.0</ele><time>2026-05-01T09:45:36.402Z</time></trkpt><trkpt lat="44.6326556" lon="6.5576882"><ele>924.5</ele><time>2026-05-01T09:45:37.403Z</time></trkpt><trkpt lat="44.63272" lon="6.5575075"><ele>921.0</ele><time>2026-05-01T09:45:38.402Z</time></trkpt><trkpt lat="44.6327748" lon="6.5573109"><ele>931.6666666666667</ele><time>2026-05-01T09:45:39.402Z</time></trkpt><trkpt lat="44.632826" lon="6.5570913"><ele>942.3333333333334</ele><time>2026-05-01T09:45:40.402Z</time></trkpt><trkpt lat="44.6328754" lon="6.5568592"><ele>953.0</ele><time>2026-05-01T09:45:41.402Z</time></trkpt><trkpt lat="44.6329182" lon="6.5566171"><ele>953.0</ele><time>2026-05-01T09:45:42.402Z</time></trkpt><trkpt lat="44.6329444" lon="6.55637"><ele>953.0</ele><time>2026-05-01T09:45:43.402Z</time></trkpt><trkpt lat="44.6329563" lon="6.5561233"><ele>953.0</ele><time>2026-05-01T09:45:44.402Z</time></trkpt><trkpt lat="44.6329649" lon="6.555877"><ele>952.3333333333334</ele><time>2026-05-01T09:45:45.402Z</time></trkpt><trkpt lat="44.6329734" lon="6.5556313"><ele>951.6666666666667</ele><time>2026-05-01T09:45:46.403Z</time></trkpt><trkpt lat="44.6329813" lon="6.5553878"><ele>951.0</ele><time>2026-05-01T09:45:47.403Z</time></trkpt><trkpt lat="44.632988" lon="6.5551453"><ele>951.0</ele><time>2026-05-01T09:45:48.402Z</time></trkpt><trkpt lat="44.6329924" lon="6.554907"><ele>951.0</ele><time>2026-05-01T09:45:49.402Z</time></trkpt><trkpt lat="44.6329916" lon="6.5546751"><ele>951.0</ele><time>2026-05-01T09:45:50.402Z</time></trkpt><trkpt lat="44.6329769" lon="6.5544503"><ele>952.6666666666667</ele><time>2026-05-01T09:45:51.403Z</time></trkpt><trkpt lat="44.6329474" lon="6.5542332"><ele>954.3333333333334</ele><time>2026-05-01T09:45:52.402Z</time></trkpt><trkpt lat="44.6329107" lon="6.554022"><ele>956.0</ele><time>2026-05-01T09:45:53.402Z</time></trkpt><trkpt lat="44.6328743" lon="6.5538115"><ele>961.3333333333334</ele><time>2026-05-01T09:45:54.402Z</time></trkpt><trkpt lat="44.6328365" lon="6.5535856"><ele>966.6666666666667</ele><time>2026-05-01T09:45:55.403Z</time></trkpt><trkpt lat="44.632799" lon="6.5533499"><ele>972.0</ele><time>2026-05-01T09:45:56.402Z</time></trkpt><trkpt lat="44.632763" lon="6.5531043"><ele>952.6666666666667</ele><time>2026-05-01T09:45:57.402Z</time></trkpt><trkpt lat="44.6327331" lon="6.5528501"><ele>933.3333333333334</ele><time>2026-05-01T09:45:58.403Z</time></trkpt><trkpt lat="44.6327176" lon="6.5525968"><ele>914.0</ele><time>2026-05-01T09:45:59.402Z</time></trkpt><trkpt lat="44.6327112" lon="6.5523487"><ele>914.0</ele><time>2026-05-01T09:46:00.402Z</time></trkpt><trkpt lat="44.6327031" lon="6.5521045"><ele>914.0</ele><time>2026-05-01T09:46:01.402Z</time></trkpt><trkpt lat="44.6326839" lon="6.5518486"><ele>914.0</ele><time>2026-05-01T09:46:02.402Z</time></trkpt><trkpt lat="44.6326495" lon="6.5515816"><ele>914.6666666666667</ele><time>2026-05-01T09:46:03.402Z</time></trkpt><trkpt lat="44.6325957" lon="6.5513138"><ele>915.3333333333333</ele><time>2026-05-01T09:46:04.403Z</time></trkpt><trkpt lat="44.6325305" lon="6.5510447"><ele>916.0</ele><time>2026-05-01T09:46:05.402Z</time></trkpt><trkpt lat="44.6324718" lon="6.5507675"><ele>917.3333333333333</ele><time>2026-05-01T09:46:06.404Z</time></trkpt><trkpt lat="44.6324304" lon="6.5504812"><ele>918.6666666666667</ele><time>2026-05-01T09:46:07.402Z</time></trkpt><trkpt lat="44.6323932" lon="6.5501982"><ele>920.0</ele><time>2026-05-01T09:46:08.402Z</time></trkpt><trkpt lat="44.6323533" lon="6.5499259"><ele>923.0</ele><time>2026-05-01T09:46:09.402Z</time></trkpt><trkpt lat="44.6323041" lon="6.5496714"><ele>926.0</ele><time>2026-05-01T09:46:10.402Z</time></trkpt><trkpt lat="44.6322387" lon="6.5494335"><ele>929.0</ele><time>2026-05-01T09:46:11.402Z</time></trkpt><trkpt lat="44.6321504" lon="6.5492045"><ele>930.3333333333334</ele><time>2026-05-01T09:46:12.402Z</time></trkpt><trkpt lat="44.6320403" lon="6.5489898"><ele>931.6666666666667</ele><time>2026-05-01T09:46:13.402Z</time></trkpt><trkpt lat="44.63191" lon="6.548803"><ele>933.0</ele><time>2026-05-01T09:46:14.403Z</time></trkpt><trkpt lat="44.6317707" lon="6.5486483"><ele>933.0</ele><time>2026-05-01T09:46:15.402Z</time></trkpt><trkpt lat="44.6316363" lon="6.5485009"><ele>933.0</ele><time>2026-05-01T09:46:16.402Z</time></trkpt><trkpt lat="44.6315135" lon="6.5483594"><ele>933.0</ele><time>2026-05-01T09:46:17.402Z</time></trkpt><trkpt lat="44.6314002" lon="6.5482282"><ele>933.0</ele><time>2026-05-01T09:46:18.402Z</time></trkpt><trkpt lat="44.631289" lon="6.5481023"><ele>933.0</ele><time>2026-05-01T09:46:19.402Z</time></trkpt><trkpt lat="44.6311752" lon="6.5479796"><ele>933.0</ele><time>2026-05-01T09:46:20.403Z</time></trkpt><trkpt lat="44.6310523" lon="6.5478598"><ele>933.0</ele><time>2026-05-01T09:46:21.402Z</time></trkpt><trkpt lat="44.6309139" lon="6.5477476"><ele>929.0</ele><time>2026-05-01T09:46:22.403Z</time></trkpt><trkpt lat="44.6305883" lon="6.547622"><ele>925.0</ele><time>2026-05-01T09:46:24.402Z</time></trkpt><trkpt lat="44.6304186" lon="6.5475947"><ele>923.0</ele><time>2026-05-01T09:46:25.402Z</time></trkpt><trkpt lat="44.6302556" lon="6.5475747"><ele>921.0</ele><time>2026-05-01T09:46:26.402Z</time></trkpt><trkpt lat="44.6300977" lon="6.547538"><ele>919.0</ele><time>2026-05-01T09:46:27.402Z</time></trkpt><trkpt lat="44.6299476" lon="6.5474848"><ele>919.0</ele><time>2026-05-01T09:46:28.404Z</time></trkpt><trkpt lat="44.6298043" lon="6.5474152"><ele>919.0</ele><time>2026-05-01T09:46:29.402Z</time></trkpt><trkpt lat="44.6296687" lon="6.547324"><ele>919.0</ele><time>2026-05-01T09:46:30.402Z</time></trkpt><trkpt lat="44.6295313" lon="6.5472128"><ele>918.0</ele><time>2026-05-01T09:46:31.404Z</time></trkpt><trkpt lat="44.6293888" lon="6.5470976"><ele>917.0</ele><time>2026-05-01T09:46:32.402Z</time></trkpt><trkpt lat="44.6292428" lon="6.5469762"><ele>916.0</ele><time>2026-05-01T09:46:33.402Z</time></trkpt><trkpt lat="44.6290963" lon="6.5468481"><ele>916.0</ele><time>2026-05-01T09:46:34.402Z</time></trkpt><trkpt lat="44.6289491" lon="6.5467179"><ele>916.0</ele><time>2026-05-01T09:46:35.402Z</time></trkpt><trkpt lat="44.6288012" lon="6.5465846"><ele>916.0</ele><time>2026-05-01T09:46:36.402Z</time></trkpt><trkpt lat="44.6286509" lon="6.546448"><ele>915.6666666666666</ele><time>2026-05-01T09:46:37.402Z</time></trkpt><trkpt lat="44.6284977" lon="6.546309"><ele>915.3333333333333</ele><time>2026-05-01T09:46:38.402Z</time></trkpt><trkpt lat="44.6283394" lon="6.5461635"><ele>915.0</ele><time>2026-05-01T09:46:39.403Z</time></trkpt><trkpt lat="44.6281732" lon="6.5460103"><ele>915.0</ele><time>2026-05-01T09:46:40.402Z</time></trkpt><trkpt lat="44.6279993" lon="6.5458547"><ele>915.0</ele><time>2026-05-01T09:46:41.402Z</time></trkpt><trkpt lat="44.6278212" lon="6.5456978"><ele>915.0</ele><time>2026-05-01T09:46:42.402Z</time></trkpt><trkpt lat="44.6276419" lon="6.5455391"><ele>914.0</ele><time>2026-05-01T09:46:43.402Z</time></trkpt><trkpt lat="44.6274644" lon="6.5453802"><ele>913.0</ele><time>2026-05-01T09:46:44.403Z</time></trkpt><trkpt lat="44.6272965" lon="6.545232"><ele>912.0</ele><time>2026-05-01T09:46:45.402Z</time></trkpt><trkpt lat="44.6271379" lon="6.5450942"><ele>914.3333333333333</ele><time>2026-05-01T09:46:46.402Z</time></trkpt><trkpt lat="44.6269903" lon="6.5449627"><ele>916.6666666666666</ele><time>2026-05-01T09:46:47.403Z</time></trkpt><trkpt lat="44.6268563" lon="6.5448407"><ele>919.0</ele><time>2026-05-01T09:46:48.402Z</time></trkpt><trkpt lat="44.6267355" lon="6.5447327"><ele>919.0</ele><time>2026-05-01T09:46:49.403Z</time></trkpt><trkpt lat="44.6266231" lon="6.5446297"><ele>919.0</ele><time>2026-05-01T09:46:50.402Z</time></trkpt><trkpt lat="44.6265123" lon="6.5445259"><ele>919.0</ele><time>2026-05-01T09:46:51.402Z</time></trkpt><trkpt lat="44.6264001" lon="6.5444223"><ele>919.0</ele><time>2026-05-01T09:46:52.402Z</time></trkpt><trkpt lat="44.6262868" lon="6.5443165"><ele>920.5</ele><time>2026-05-01T09:46:53.402Z</time></trkpt><trkpt lat="44.6261749" lon="6.5442038"><ele>922.0</ele><time>2026-05-01T09:46:54.402Z</time></trkpt><trkpt lat="44.6260649" lon="6.5440775"><ele>923.5</ele><time>2026-05-01T09:46:55.402Z</time></trkpt><trkpt lat="44.6259604" lon="6.54394"><ele>925.0</ele><time>2026-05-01T09:46:56.402Z</time></trkpt><trkpt lat="44.6258587" lon="6.5437942"><ele>928.0</ele><time>2026-05-01T09:46:57.402Z</time></trkpt><trkpt lat="44.6257619" lon="6.5436379"><ele>931.0</ele><time>2026-05-01T09:46:58.402Z</time></trkpt><trkpt lat="44.6256709" lon="6.5434706"><ele>934.0</ele><time>2026-05-01T09:46:59.403Z</time></trkpt><trkpt lat="44.6255829" lon="6.5432934"><ele>934.0</ele><time>2026-05-01T09:47:00.402Z</time></trkpt><trkpt lat="44.6254962" lon="6.5431037"><ele>934.0</ele><time>2026-05-01T09:47:01.402Z</time></trkpt><trkpt lat="44.6254101" lon="6.5428966"><ele>934.0</ele><time>2026-05-01T09:47:02.403Z</time></trkpt><trkpt lat="44.6253223" lon="6.5426684"><ele>934.6666666666666</ele><time>2026-05-01T09:47:03.402Z</time></trkpt><trkpt lat="44.6252313" lon="6.5424271"><ele>935.3333333333333</ele><time>2026-05-01T09:47:04.402Z</time></trkpt><trkpt lat="44.6251383" lon="6.5421726"><ele>936.0</ele><time>2026-05-01T09:47:05.402Z</time></trkpt><trkpt lat="44.6250463" lon="6.5419067"><ele>936.0</ele><time>2026-05-01T09:47:06.403Z</time></trkpt><trkpt lat="44.6249534" lon="6.5416353"><ele>936.0</ele><time>2026-05-01T09:47:07.402Z</time></trkpt><trkpt lat="44.624858" lon="6.5413636"><ele>936.0</ele><time>2026-05-01T09:47:08.402Z</time></trkpt><trkpt lat="44.624763" lon="6.541098"><ele>940.3333333333333</ele><time>2026-05-01T09:47:09.403Z</time></trkpt><trkpt lat="44.6246695" lon="6.5408428"><ele>944.6666666666666</ele><time>2026-05-01T09:47:10.402Z</time></trkpt><trkpt lat="44.6245798" lon="6.5406002"><ele>949.0</ele><time>2026-05-01T09:47:11.402Z</time></trkpt><trkpt lat="44.6244943" lon="6.5403615"><ele>943.0</ele><time>2026-05-01T09:47:12.402Z</time></trkpt><trkpt lat="44.6244081" lon="6.5401186"><ele>937.0</ele><time>2026-05-01T09:47:13.402Z</time></trkpt><trkpt lat="44.6243245" lon="6.5398803"><ele>931.0</ele><time>2026-05-01T09:47:14.403Z</time></trkpt><trkpt lat="44.6242422" lon="6.539649"><ele>933.6666666666666</ele><time>2026-05-01T09:47:15.402Z</time></trkpt><trkpt lat="44.6241579" lon="6.5394132"><ele>936.3333333333333</ele><time>2026-05-01T09:47:16.402Z</time></trkpt><trkpt lat="44.6240718" lon="6.5391738"><ele>939.0</ele><time>2026-05-01T09:47:17.402Z</time></trkpt><trkpt lat="44.6239835" lon="6.5389311"><ele>940.6666666666667</ele><time>2026-05-01T09:47:18.402Z</time></trkpt><trkpt lat="44.6238964" lon="6.5386875"><ele>942.3333333333334</ele><time>2026-05-01T09:47:19.403Z</time></trkpt><trkpt lat="44.6238103" lon="6.5384537"><ele>944.0</ele><time>2026-05-01T09:47:20.402Z</time></trkpt><trkpt lat="44.6237256" lon="6.5382372"><ele>941.0</ele><time>2026-05-01T09:47:21.402Z</time></trkpt><trkpt lat="44.6236368" lon="6.5380288"><ele>938.0</ele><time>2026-05-01T09:47:22.402Z</time></trkpt><trkpt lat="44.6235419" lon="6.5378215"><ele>935.0</ele><time>2026-05-01T09:47:23.402Z</time></trkpt><trkpt lat="44.6234355" lon="6.5376153"><ele>935.0</ele><time>2026-05-01T09:47:24.402Z</time></trkpt><trkpt lat="44.6233169" lon="6.5374105"><ele>935.0</ele><time>2026-05-01T09:47:25.402Z</time></trkpt><trkpt lat="44.6231874" lon="6.5372153"><ele>935.0</ele><time>2026-05-01T09:47:26.402Z</time></trkpt><trkpt lat="44.6230553" lon="6.5370315"><ele>931.3333333333334</ele><time>2026-05-01T09:47:27.402Z</time></trkpt><trkpt lat="44.6229213" lon="6.5368505"><ele>927.6666666666667</ele><time>2026-05-01T09:47:28.402Z</time></trkpt><trkpt lat="44.6227798" lon="6.5366718"><ele>924.0</ele><time>2026-05-01T09:47:29.403Z</time></trkpt><trkpt lat="44.6226264" lon="6.5364959"><ele>924.0</ele><time>2026-05-01T09:47:30.402Z</time></trkpt><trkpt lat="44.6224594" lon="6.5363241"><ele>924.0</ele><time>2026-05-01T09:47:31.402Z</time></trkpt><trkpt lat="44.6222712" lon="6.5361482"><ele>924.0</ele><time>2026-05-01T09:47:32.402Z</time></trkpt><trkpt lat="44.6220644" lon="6.535955"><ele>921.5</ele><time>2026-05-01T09:47:33.402Z</time></trkpt><trkpt lat="44.6218419" lon="6.5357273"><ele>919.0</ele><time>2026-05-01T09:47:34.402Z</time></trkpt><trkpt lat="44.6216032" lon="6.535474"><ele>915.5</ele><time>2026-05-01T09:47:35.402Z</time></trkpt><trkpt lat="44.6213438" lon="6.5352024"><ele>912.0</ele><time>2026-05-01T09:47:36.402Z</time></trkpt><trkpt lat="44.6210784" lon="6.5349304"><ele>912.0</ele><time>2026-05-01T09:47:37.402Z</time></trkpt><trkpt lat="44.6208307" lon="6.5346687"><ele>912.0</ele><time>2026-05-01T09:47:38.404Z</time></trkpt><trkpt lat="44.6206038" lon="6.5344215"><ele>910.5</ele><time>2026-05-01T09:47:39.402Z</time></trkpt><trkpt lat="44.620381" lon="6.5341938"><ele>909.0</ele><time>2026-05-01T09:47:40.403Z</time></trkpt><trkpt lat="44.6201725" lon="6.5340131"><ele>909.0</ele><time>2026-05-01T09:47:41.402Z</time></trkpt><trkpt lat="44.6199627" lon="6.5338491"><ele>909.0</ele><time>2026-05-01T09:47:42.402Z</time></trkpt><trkpt lat="44.6197553" lon="6.5337039"><ele>909.3333333333333</ele><time>2026-05-01T09:47:43.402Z</time></trkpt><trkpt lat="44.6195531" lon="6.5335747"><ele>909.6666666666666</ele><time>2026-05-01T09:47:44.402Z</time></trkpt><trkpt lat="44.619354" lon="6.5334608"><ele>910.0</ele><time>2026-05-01T09:47:45.402Z</time></trkpt><trkpt lat="44.6191535" lon="6.5333606"><ele>910.3333333333333</ele><time>2026-05-01T09:47:46.402Z</time></trkpt><trkpt lat="44.6189527" lon="6.5332731"><ele>910.6666666666667</ele><time>2026-05-01T09:47:47.402Z</time></trkpt><trkpt lat="44.6187547" lon="6.5331968"><ele>911.0</ele><time>2026-05-01T09:47:48.402Z</time></trkpt><trkpt lat="44.6185596" lon="6.5331357"><ele>912.6666666666667</ele><time>2026-05-01T09:47:49.402Z</time></trkpt><trkpt lat="44.6183724" lon="6.5330889"><ele>914.3333333333333</ele><time>2026-05-01T09:47:50.402Z</time></trkpt><trkpt lat="44.618193" lon="6.5330536"><ele>916.0</ele><time>2026-05-01T09:47:51.402Z</time></trkpt><trkpt lat="44.6180165" lon="6.5330291"><ele>916.0</ele><time>2026-05-01T09:47:52.402Z</time></trkpt><trkpt lat="44.617846" lon="6.5330152"><ele>916.0</ele><time>2026-05-01T09:47:53.402Z</time></trkpt><trkpt lat="44.6176801" lon="6.533008"><ele>916.0</ele><time>2026-05-01T09:47:54.403Z</time></trkpt><trkpt lat="44.6175116" lon="6.5330008"><ele>916.6666666666666</ele><time>2026-05-01T09:47:55.402Z</time></trkpt><trkpt lat="44.617341" lon="6.5329996"><ele>917.3333333333333</ele><time>2026-05-01T09:47:56.403Z</time></trkpt><trkpt lat="44.6171715" lon="6.5330007"><ele>918.0</ele><time>2026-05-01T09:47:57.402Z</time></trkpt><trkpt lat="44.6170062" lon="6.5329959"><ele>917.6666666666667</ele><time>2026-05-01T09:47:58.402Z</time></trkpt><trkpt lat="44.6168437" lon="6.5329869"><ele>917.3333333333334</ele><time>2026-05-01T09:47:59.402Z</time></trkpt><trkpt lat="44.6166819" lon="6.5329717"><ele>917.0</ele><time>2026-05-01T09:48:00.402Z</time></trkpt><trkpt lat="44.6165177" lon="6.5329491"><ele>917.0</ele><time>2026-05-01T09:48:01.402Z</time></trkpt><trkpt lat="44.6163549" lon="6.5329227"><ele>917.0</ele><time>2026-05-01T09:48:02.403Z</time></trkpt><trkpt lat="44.6161905" lon="6.532888"><ele>917.0</ele><time>2026-05-01T09:48:03.402Z</time></trkpt><trkpt lat="44.6160186" lon="6.532844"><ele>920.3333333333334</ele><time>2026-05-01T09:48:04.402Z</time></trkpt><trkpt lat="44.615844" lon="6.5327904"><ele>923.6666666666667</ele><time>2026-05-01T09:48:05.402Z</time></trkpt><trkpt lat="44.6156694" lon="6.5327265"><ele>927.0</ele><time>2026-05-01T09:48:06.402Z</time></trkpt><trkpt lat="44.6154952" lon="6.5326554"><ele>927.0</ele><time>2026-05-01T09:48:07.402Z</time></trkpt><trkpt lat="44.6153256" lon="6.5325797"><ele>927.0</ele><time>2026-05-01T09:48:08.402Z</time></trkpt><trkpt lat="44.6151543" lon="6.5324951"><ele>927.0</ele><time>2026-05-01T09:48:09.402Z</time></trkpt><trkpt lat="44.6149837" lon="6.5323983"><ele>927.3333333333333</ele><time>2026-05-01T09:48:10.402Z</time></trkpt><trkpt lat="44.6148099" lon="6.5322885"><ele>927.6666666666666</ele><time>2026-05-01T09:48:11.402Z</time></trkpt><trkpt lat="44.6146305" lon="6.5321724"><ele>928.0</ele><time>2026-05-01T09:48:12.402Z</time></trkpt><trkpt lat="44.6144494" lon="6.5320556"><ele>928.0</ele><time>2026-05-01T09:48:13.402Z</time></trkpt><trkpt lat="44.6142712" lon="6.5319418"><ele>928.0</ele><time>2026-05-01T09:48:14.402Z</time></trkpt><trkpt lat="44.6140986" lon="6.5318286"><ele>928.0</ele><time>2026-05-01T09:48:15.402Z</time></trkpt><trkpt lat="44.6139254" lon="6.5317128"><ele>928.0</ele><time>2026-05-01T09:48:16.403Z</time></trkpt><trkpt lat="44.61376" lon="6.5316004"><ele>928.0</ele><time>2026-05-01T09:48:17.402Z</time></trkpt><trkpt lat="44.6135966" lon="6.5314906"><ele>928.0</ele><time>2026-05-01T09:48:18.402Z</time></trkpt><trkpt lat="44.61343" lon="6.5313817"><ele>928.0</ele><time>2026-05-01T09:48:19.402Z</time></trkpt><trkpt lat="44.6132613" lon="6.5312726"><ele>928.0</ele><time>2026-05-01T09:48:20.403Z</time></trkpt><trkpt lat="44.6130891" lon="6.5311602"><ele>928.0</ele><time>2026-05-01T09:48:21.402Z</time></trkpt><trkpt lat="44.6129143" lon="6.5310446"><ele>929.0</ele><time>2026-05-01T09:48:22.402Z</time></trkpt><trkpt lat="44.6127445" lon="6.5309327"><ele>930.0</ele><time>2026-05-01T09:48:23.403Z</time></trkpt><trkpt lat="44.6125822" lon="6.5308264"><ele>931.0</ele><time>2026-05-01T09:48:24.403Z</time></trkpt><trkpt lat="44.6124239" lon="6.5307239"><ele>931.0</ele><time>2026-05-01T09:48:25.402Z</time></trkpt><trkpt lat="44.6122666" lon="6.5306215"><ele>931.0</ele><time>2026-05-01T09:48:26.402Z</time></trkpt><trkpt lat="44.6121066" lon="6.5305155"><ele>931.0</ele><time>2026-05-01T09:48:27.402Z</time></trkpt><trkpt lat="44.6119432" lon="6.5304062"><ele>931.6666666666666</ele><time>2026-05-01T09:48:28.402Z</time></trkpt><trkpt lat="44.6117763" lon="6.5302953"><ele>932.3333333333333</ele><time>2026-05-01T09:48:29.402Z</time></trkpt><trkpt lat="44.6116078" lon="6.5301838"><ele>933.0</ele><time>2026-05-01T09:48:30.402Z</time></trkpt><trkpt lat="44.6114423" lon="6.5300732"><ele>933.0</ele><time>2026-05-01T09:48:31.402Z</time></trkpt><trkpt lat="44.6112785" lon="6.529966"><ele>933.0</ele><time>2026-05-01T09:48:32.402Z</time></trkpt><trkpt lat="44.6111128" lon="6.529858"><ele>933.0</ele><time>2026-05-01T09:48:33.402Z</time></trkpt><trkpt lat="44.6109472" lon="6.5297509"><ele>933.6666666666667</ele><time>2026-05-01T09:48:34.402Z</time></trkpt><trkpt lat="44.6107838" lon="6.5296518"><ele>934.3333333333334</ele><time>2026-05-01T09:48:35.402Z</time></trkpt><trkpt lat="44.6106219" lon="6.5295618"><ele>935.0</ele><time>2026-05-01T09:48:36.402Z</time></trkpt><trkpt lat="44.6104584" lon="6.5294806"><ele>933.6666666666667</ele><time>2026-05-01T09:48:37.402Z</time></trkpt><trkpt lat="44.6102928" lon="6.5294057"><ele>932.3333333333333</ele><time>2026-05-01T09:48:38.403Z</time></trkpt><trkpt lat="44.6101207" lon="6.5293337"><ele>931.0</ele><time>2026-05-01T09:48:39.402Z</time></trkpt><trkpt lat="44.6099452" lon="6.5292665"><ele>931.0</ele><time>2026-05-01T09:48:40.402Z</time></trkpt><trkpt lat="44.6097623" lon="6.5292061"><ele>931.0</ele><time>2026-05-01T09:48:41.402Z</time></trkpt><trkpt lat="44.6095714" lon="6.5291583"><ele>931.0</ele><time>2026-05-01T09:48:42.402Z</time></trkpt><trkpt lat="44.609374" lon="6.5291203"><ele>930.6666666666666</ele><time>2026-05-01T09:48:43.402Z</time></trkpt><trkpt lat="44.6091685" lon="6.5290937"><ele>930.3333333333333</ele><time>2026-05-01T09:48:44.402Z</time></trkpt><trkpt lat="44.608957" lon="6.529075"><ele>930.0</ele><time>2026-05-01T09:48:45.402Z</time></trkpt><trkpt lat="44.6087407" lon="6.5290653"><ele>929.3333333333333</ele><time>2026-05-01T09:48:46.402Z</time></trkpt><trkpt lat="44.60852" lon="6.529063"><ele>928.6666666666666</ele><time>2026-05-01T09:48:47.402Z</time></trkpt><trkpt lat="44.6082949" lon="6.529064"><ele>928.0</ele><time>2026-05-01T09:48:48.402Z</time></trkpt><trkpt lat="44.6080722" lon="6.5290691"><ele>928.0</ele><time>2026-05-01T09:48:49.402Z</time></trkpt><trkpt lat="44.60785" lon="6.5290776"><ele>928.0</ele><time>2026-05-01T09:48:50.402Z</time></trkpt><trkpt lat="44.6076289" lon="6.5290897"><ele>928.0</ele><time>2026-05-01T09:48:51.402Z</time></trkpt><trkpt lat="44.6074092" lon="6.5291042"><ele>928.0</ele><time>2026-05-01T09:48:52.402Z</time></trkpt><trkpt lat="44.6071912" lon="6.5291175"><ele>928.0</ele><time>2026-05-01T09:48:53.402Z</time></trkpt><trkpt lat="44.6069705" lon="6.5291285"><ele>928.0</ele><time>2026-05-01T09:48:54.403Z</time></trkpt><trkpt lat="44.6067459" lon="6.5291373"><ele>928.5</ele><time>2026-05-01T09:48:55.402Z</time></trkpt><trkpt lat="44.6065197" lon="6.5291313"><ele>929.0</ele><time>2026-05-01T09:48:56.403Z</time></trkpt><trkpt lat="44.6062896" lon="6.5291106"><ele>928.0</ele><time>2026-05-01T09:48:57.402Z</time></trkpt><trkpt lat="44.6060578" lon="6.5290795"><ele>927.0</ele><time>2026-05-01T09:48:58.402Z</time></trkpt><trkpt lat="44.6058262" lon="6.5290373"><ele>927.0</ele><time>2026-05-01T09:48:59.402Z</time></trkpt><trkpt lat="44.6055958" lon="6.5289819"><ele>927.0</ele><time>2026-05-01T09:49:00.402Z</time></trkpt><trkpt lat="44.6053641" lon="6.528911"><ele>925.0</ele><time>2026-05-01T09:49:01.402Z</time></trkpt><trkpt lat="44.6051331" lon="6.5288248"><ele>923.0</ele><time>2026-05-01T09:49:02.404Z</time></trkpt><trkpt lat="44.6049035" lon="6.5287223"><ele>923.5</ele><time>2026-05-01T09:49:03.402Z</time></trkpt><trkpt lat="44.6046758" lon="6.5286021"><ele>924.0</ele><time>2026-05-01T09:49:04.402Z</time></trkpt><trkpt lat="44.6044509" lon="6.5284682"><ele>924.0</ele><time>2026-05-01T09:49:05.402Z</time></trkpt><trkpt lat="44.6042289" lon="6.5283194"><ele>924.0</ele><time>2026-05-01T09:49:06.402Z</time></trkpt><trkpt lat="44.6040123" lon="6.5281587"><ele>924.0</ele><time>2026-05-01T09:49:07.402Z</time></trkpt><trkpt lat="44.6038007" lon="6.5279874"><ele>924.0</ele><time>2026-05-01T09:49:08.403Z</time></trkpt><trkpt lat="44.6035929" lon="6.5278126"><ele>921.5</ele><time>2026-05-01T09:49:09.402Z</time></trkpt><trkpt lat="44.6033891" lon="6.5276408"><ele>919.0</ele><time>2026-05-01T09:49:10.402Z</time></trkpt><trkpt lat="44.6031897" lon="6.5274707"><ele>919.0</ele><time>2026-05-01T09:49:11.402Z</time></trkpt><trkpt lat="44.6029909" lon="6.527299"><ele>919.0</ele><time>2026-05-01T09:49:12.402Z</time></trkpt><trkpt lat="44.6027939" lon="6.5271241"><ele>919.5</ele><time>2026-05-01T09:49:13.402Z</time></trkpt><trkpt lat="44.6025964" lon="6.5269515"><ele>920.0</ele><time>2026-05-01T09:49:14.402Z</time></trkpt><trkpt lat="44.602397" lon="6.5267773"><ele>920.0</ele><time>2026-05-01T09:49:15.402Z</time></trkpt><trkpt lat="44.6021958" lon="6.5266023"><ele>920.0</ele><time>2026-05-01T09:49:16.402Z</time></trkpt><trkpt lat="44.6019904" lon="6.5264287"><ele>921.5</ele><time>2026-05-01T09:49:17.402Z</time></trkpt><trkpt lat="44.6017792" lon="6.5262587"><ele>923.0</ele><time>2026-05-01T09:49:18.403Z</time></trkpt><trkpt lat="44.6015607" lon="6.5260985"><ele>923.0</ele><time>2026-05-01T09:49:19.402Z</time></trkpt><trkpt lat="44.6013357" lon="6.5259485"><ele>923.0</ele><time>2026-05-01T09:49:20.403Z</time></trkpt><trkpt lat="44.6011017" lon="6.5258089"><ele>921.0</ele><time>2026-05-01T09:49:21.402Z</time></trkpt><trkpt lat="44.6008602" lon="6.5256797"><ele>919.0</ele><time>2026-05-01T09:49:22.402Z</time></trkpt><trkpt lat="44.6006139" lon="6.5255635"><ele>919.0</ele><time>2026-05-01T09:49:23.402Z</time></trkpt><trkpt lat="44.6003704" lon="6.5254629"><ele>919.0</ele><time>2026-05-01T09:49:24.402Z</time></trkpt><trkpt lat="44.6001309" lon="6.5253802"><ele>921.5</ele><time>2026-05-01T09:49:25.402Z</time></trkpt><trkpt lat="44.5998915" lon="6.5253097"><ele>924.0</ele><time>2026-05-01T09:49:26.402Z</time></trkpt><trkpt lat="44.599654" lon="6.5252459"><ele>922.0</ele><time>2026-05-01T09:49:27.402Z</time></trkpt><trkpt lat="44.5994239" lon="6.5251855"><ele>920.0</ele><time>2026-05-01T09:49:28.402Z</time></trkpt><trkpt lat="44.5992043" lon="6.5251207"><ele>920.0</ele><time>2026-05-01T09:49:29.402Z</time></trkpt><trkpt lat="44.5989943" lon="6.5250457"><ele>920.0</ele><time>2026-05-01T09:49:30.402Z</time></trkpt><trkpt lat="44.5987945" lon="6.5249568"><ele>920.0</ele><time>2026-05-01T09:49:31.403Z</time></trkpt><trkpt lat="44.5986053" lon="6.5248563"><ele>921.3333333333334</ele><time>2026-05-01T09:49:32.402Z</time></trkpt><trkpt lat="44.5984197" lon="6.5247467"><ele>922.6666666666667</ele><time>2026-05-01T09:49:33.402Z</time></trkpt><trkpt lat="44.598232" lon="6.5246269"><ele>924.0</ele><time>2026-05-01T09:49:34.402Z</time></trkpt><trkpt lat="44.5980487" lon="6.5244956"><ele>924.0</ele><time>2026-05-01T09:49:35.402Z</time></trkpt><trkpt lat="44.5978747" lon="6.5243506"><ele>924.0</ele><time>2026-05-01T09:49:36.402Z</time></trkpt><trkpt lat="44.5977083" lon="6.5241955"><ele>924.0</ele><time>2026-05-01T09:49:37.401Z</time></trkpt><trkpt lat="44.5975466" lon="6.5240345"><ele>923.6666666666667</ele><time>2026-05-01T09:49:38.401Z</time></trkpt><trkpt lat="44.5973893" lon="6.5238625"><ele>923.3333333333334</ele><time>2026-05-01T09:49:39.401Z</time></trkpt><trkpt lat="44.5972266" lon="6.5236783"><ele>923.0</ele><time>2026-05-01T09:49:40.401Z</time></trkpt><trkpt lat="44.5970572" lon="6.5234845"><ele>918.5</ele><time>2026-05-01T09:49:41.402Z</time></trkpt><trkpt lat="44.5968785" lon="6.5232817"><ele>914.0</ele><time>2026-05-01T09:49:42.402Z</time></trkpt><trkpt lat="44.5966932" lon="6.5230725"><ele>915.0</ele><time>2026-05-01T09:49:43.402Z</time></trkpt><trkpt lat="44.5965077" lon="6.5228602"><ele>916.0</ele><time>2026-05-01T09:49:44.401Z</time></trkpt><trkpt lat="44.5963206" lon="6.5226495"><ele>913.0</ele><time>2026-05-01T09:49:45.401Z</time></trkpt><trkpt lat="44.596133" lon="6.5224392"><ele>910.0</ele><time>2026-05-01T09:49:46.401Z</time></trkpt><trkpt lat="44.5959488" lon="6.5222248"><ele>912.0</ele><time>2026-05-01T09:49:47.401Z</time></trkpt><trkpt lat="44.5957679" lon="6.522008"><ele>914.0</ele><time>2026-05-01T09:49:48.401Z</time></trkpt><trkpt lat="44.5955875" lon="6.5217896"><ele>914.0</ele><time>2026-05-01T09:49:49.401Z</time></trkpt><trkpt lat="44.5953999" lon="6.5215655"><ele>914.0</ele><time>2026-05-01T09:49:50.402Z</time></trkpt><trkpt lat="44.5951993" lon="6.5213273"><ele>912.5</ele><time>2026-05-01T09:49:51.402Z</time></trkpt><trkpt lat="44.5949989" lon="6.5210919"><ele>911.0</ele><time>2026-05-01T09:49:52.401Z</time></trkpt><trkpt lat="44.5947999" lon="6.5208628"><ele>911.0</ele><time>2026-05-01T09:49:53.401Z</time></trkpt><trkpt lat="44.5946059" lon="6.5206416"><ele>911.0</ele><time>2026-05-01T09:49:54.402Z</time></trkpt><trkpt lat="44.5944161" lon="6.5204276"><ele>912.5</ele><time>2026-05-01T09:49:55.401Z</time></trkpt><trkpt lat="44.5942309" lon="6.5202172"><ele>914.0</ele><time>2026-05-01T09:49:56.402Z</time></trkpt><trkpt lat="44.5940499" lon="6.5200064"><ele>914.0</ele><time>2026-05-01T09:49:57.401Z</time></trkpt><trkpt lat="44.5938729" lon="6.5197971"><ele>914.0</ele><time>2026-05-01T09:49:58.401Z</time></trkpt><trkpt lat="44.5937002" lon="6.5195893"><ele>915.0</ele><time>2026-05-01T09:49:59.401Z</time></trkpt><trkpt lat="44.593531" lon="6.5193826"><ele>916.0</ele><time>2026-05-01T09:50:00.402Z</time></trkpt><trkpt lat="44.5933666" lon="6.519177"><ele>917.0</ele><time>2026-05-01T09:50:01.401Z</time></trkpt><trkpt lat="44.593208" lon="6.5189707"><ele>917.0</ele><time>2026-05-01T09:50:02.401Z</time></trkpt><trkpt lat="44.5930592" lon="6.5187574"><ele>917.0</ele><time>2026-05-01T09:50:03.401Z</time></trkpt><trkpt lat="44.5929217" lon="6.5185355"><ele>917.0</ele><time>2026-05-01T09:50:04.401Z</time></trkpt><trkpt lat="44.5927945" lon="6.5183035"><ele>916.0</ele><time>2026-05-01T09:50:05.401Z</time></trkpt><trkpt lat="44.5926739" lon="6.518058"><ele>915.0</ele><time>2026-05-01T09:50:06.402Z</time></trkpt><trkpt lat="44.5925566" lon="6.5178008"><ele>914.0</ele><time>2026-05-01T09:50:07.401Z</time></trkpt><trkpt lat="44.5924493" lon="6.5175358"><ele>913.3333333333334</ele><time>2026-05-01T09:50:08.401Z</time></trkpt><trkpt lat="44.5923495" lon="6.5172725"><ele>912.6666666666667</ele><time>2026-05-01T09:50:09.401Z</time></trkpt><trkpt lat="44.5922578" lon="6.5170189"><ele>912.0</ele><time>2026-05-01T09:50:10.401Z</time></trkpt><trkpt lat="44.5921712" lon="6.516773"><ele>911.0</ele><time>2026-05-01T09:50:11.402Z</time></trkpt><trkpt lat="44.5920875" lon="6.5165344"><ele>910.0</ele><time>2026-05-01T09:50:12.401Z</time></trkpt><trkpt lat="44.5920037" lon="6.5162983"><ele>909.0</ele><time>2026-05-01T09:50:13.401Z</time></trkpt><trkpt lat="44.5919101" lon="6.5160682"><ele>906.6666666666667</ele><time>2026-05-01T09:50:14.402Z</time></trkpt><trkpt lat="44.591804" lon="6.5158431"><ele>904.3333333333334</ele><time>2026-05-01T09:50:15.401Z</time></trkpt><trkpt lat="44.5916898" lon="6.515624"><ele>902.0</ele><time>2026-05-01T09:50:16.401Z</time></trkpt><trkpt lat="44.591567" lon="6.5154098"><ele>902.0</ele><time>2026-05-01T09:50:17.401Z</time></trkpt><trkpt lat="44.5914362" lon="6.5152027"><ele>902.0</ele><time>2026-05-01T09:50:18.401Z</time></trkpt><trkpt lat="44.5912947" lon="6.5150089"><ele>902.0</ele><time>2026-05-01T09:50:19.401Z</time></trkpt><trkpt lat="44.5911432" lon="6.5148279"><ele>901.0</ele><time>2026-05-01T09:50:20.403Z</time></trkpt><trkpt lat="44.5909822" lon="6.5146605"><ele>900.0</ele><time>2026-05-01T09:50:21.401Z</time></trkpt><trkpt lat="44.5908094" lon="6.514511"><ele>899.0</ele><time>2026-05-01T09:50:22.401Z</time></trkpt><trkpt lat="44.5906277" lon="6.5143693"><ele>901.0</ele><time>2026-05-01T09:50:23.401Z</time></trkpt><trkpt lat="44.590436" lon="6.5142376"><ele>903.0</ele><time>2026-05-01T09:50:24.401Z</time></trkpt><trkpt lat="44.5902331" lon="6.5141198"><ele>905.0</ele><time>2026-05-01T09:50:25.402Z</time></trkpt><trkpt lat="44.5900183" lon="6.5140235"><ele>905.0</ele><time>2026-05-01T09:50:26.402Z</time></trkpt><trkpt lat="44.5897977" lon="6.513949"><ele>905.0</ele><time>2026-05-01T09:50:27.402Z</time></trkpt><trkpt lat="44.5895666" lon="6.5138968"><ele>903.5</ele><time>2026-05-01T09:50:28.401Z</time></trkpt><trkpt lat="44.589134" lon="6.5138464"><ele>902.0</ele><time>2026-05-01T09:50:30.402Z</time></trkpt><trkpt lat="44.5889605" lon="6.5138283"><ele>902.0</ele><time>2026-05-01T09:50:31.401Z</time></trkpt><trkpt lat="44.5888044" lon="6.5138121"><ele>902.0</ele><time>2026-05-01T09:50:32.402Z</time></trkpt><trkpt lat="44.5886551" lon="6.5137952"><ele>902.0</ele><time>2026-05-01T09:50:33.401Z</time></trkpt><trkpt lat="44.5885032" lon="6.5137793"><ele>901.0</ele><time>2026-05-01T09:50:34.401Z</time></trkpt><trkpt lat="44.5883377" lon="6.5137618"><ele>900.0</ele><time>2026-05-01T09:50:35.401Z</time></trkpt><trkpt lat="44.5881619" lon="6.5137439"><ele>899.0</ele><time>2026-05-01T09:50:36.401Z</time></trkpt><trkpt lat="44.587987" lon="6.5137212"><ele>901.3333333333334</ele><time>2026-05-01T09:50:37.401Z</time></trkpt><trkpt lat="44.5878182" lon="6.5136935"><ele>903.6666666666667</ele><time>2026-05-01T09:50:38.401Z</time></trkpt><trkpt lat="44.5876559" lon="6.5136661"><ele>906.0</ele><time>2026-05-01T09:50:39.402Z</time></trkpt><trkpt lat="44.587494" lon="6.5136334"><ele>906.0</ele><time>2026-05-01T09:50:40.402Z</time></trkpt><trkpt lat="44.5873444" lon="6.5136026"><ele>906.0</ele><time>2026-05-01T09:50:41.401Z</time></trkpt><trkpt lat="44.5872181" lon="6.5135739"><ele>906.0</ele><time>2026-05-01T09:50:42.401Z</time></trkpt><trkpt lat="44.5871131" lon="6.5135479"><ele>906.0</ele><time>2026-05-01T09:50:43.401Z</time></trkpt><trkpt lat="44.587017" lon="6.5135128"><ele>905.0</ele><time>2026-05-01T09:50:44.401Z</time></trkpt><trkpt lat="44.5869282" lon="6.5134651"><ele>903.9999999999999</ele><time>2026-05-01T09:50:45.401Z</time></trkpt><trkpt lat="44.5868486" lon="6.5133955"><ele>902.9999999999999</ele><time>2026-05-01T09:50:46.401Z</time></trkpt><trkpt lat="44.5867772" lon="6.5133134"><ele>902.0</ele><time>2026-05-01T09:50:47.402Z</time></trkpt><trkpt lat="44.5866957" lon="6.5132538"><ele>901.0</ele><time>2026-05-01T09:50:48.401Z</time></trkpt><trkpt lat="44.586596" lon="6.5132282"><ele>901.0</ele><time>2026-05-01T09:50:49.402Z</time></trkpt><trkpt lat="44.5864831" lon="6.5132464"><ele>901.0</ele><time>2026-05-01T09:50:50.402Z</time></trkpt><trkpt lat="44.5863564" lon="6.5132859"><ele>901.0</ele><time>2026-05-01T09:50:51.401Z</time></trkpt><trkpt lat="44.5862081" lon="6.5132819"><ele>901.0</ele><time>2026-05-01T09:50:52.401Z</time></trkpt><trkpt lat="44.5860418" lon="6.5132362"><ele>900.3333333333333</ele><time>2026-05-01T09:50:53.402Z</time></trkpt><trkpt lat="44.5858607" lon="6.5131713"><ele>899.6666666666667</ele><time>2026-05-01T09:50:54.401Z</time></trkpt><trkpt lat="44.5856806" lon="6.5131125"><ele>899.0</ele><time>2026-05-01T09:50:55.401Z</time></trkpt><trkpt lat="44.5855034" lon="6.5130597"><ele>899.0</ele><time>2026-05-01T09:50:56.401Z</time></trkpt><trkpt lat="44.5853238" lon="6.5130006"><ele>899.0</ele><time>2026-05-01T09:50:57.401Z</time></trkpt><trkpt lat="44.5851397" lon="6.5129381"><ele>899.0</ele><time>2026-05-01T09:50:58.402Z</time></trkpt><trkpt lat="44.5849508" lon="6.5128751"><ele>899.0</ele><time>2026-05-01T09:50:59.402Z</time></trkpt><trkpt lat="44.5847632" lon="6.5128125"><ele>899.0</ele><time>2026-05-01T09:51:00.401Z</time></trkpt><trkpt lat="44.5845817" lon="6.5127545"><ele>899.0</ele><time>2026-05-01T09:51:01.401Z</time></trkpt><trkpt lat="44.5844051" lon="6.5127008"><ele>898.3333333333334</ele><time>2026-05-01T09:51:02.402Z</time></trkpt><trkpt lat="44.5842335" lon="6.5126502"><ele>897.6666666666667</ele><time>2026-05-01T09:51:03.401Z</time></trkpt><trkpt lat="44.5840651" lon="6.5125998"><ele>897.0</ele><time>2026-05-01T09:51:04.402Z</time></trkpt><trkpt lat="44.5838946" lon="6.5125521"><ele>897.0</ele><time>2026-05-01T09:51:05.401Z</time></trkpt><trkpt lat="44.5837181" lon="6.5125045"><ele>897.0</ele><time>2026-05-01T09:51:06.401Z</time></trkpt><trkpt lat="44.5835445" lon="6.5124561"><ele>897.0</ele><time>2026-05-01T09:51:07.401Z</time></trkpt><trkpt lat="44.5833748" lon="6.5124087"><ele>897.0</ele><time>2026-05-01T09:51:08.401Z</time></trkpt><trkpt lat="44.5831979" lon="6.5123609"><ele>897.0</ele><time>2026-05-01T09:51:09.401Z</time></trkpt><trkpt lat="44.5830142" lon="6.512316"><ele>897.0</ele><time>2026-05-01T09:51:10.401Z</time></trkpt><trkpt lat="44.5828302" lon="6.5122713"><ele>896.3333333333333</ele><time>2026-05-01T09:51:11.401Z</time></trkpt><trkpt lat="44.5826414" lon="6.5122252"><ele>895.6666666666666</ele><time>2026-05-01T09:51:12.402Z</time></trkpt><trkpt lat="44.5824475" lon="6.512179"><ele>895.0</ele><time>2026-05-01T09:51:13.401Z</time></trkpt><trkpt lat="44.5822536" lon="6.5121321"><ele>895.0</ele><time>2026-05-01T09:51:14.402Z</time></trkpt><trkpt lat="44.5820609" lon="6.5120851"><ele>895.0</ele><time>2026-05-01T09:51:15.401Z</time></trkpt><trkpt lat="44.5818711" lon="6.5120389"><ele>895.0</ele><time>2026-05-01T09:51:16.401Z</time></trkpt><trkpt lat="44.5816814" lon="6.5119859"><ele>894.0</ele><time>2026-05-01T09:51:17.401Z</time></trkpt><trkpt lat="44.581497" lon="6.5119336"><ele>893.0</ele><time>2026-05-01T09:51:18.401Z</time></trkpt><trkpt lat="44.5813175" lon="6.5118888"><ele>892.0</ele><time>2026-05-01T09:51:19.401Z</time></trkpt><trkpt lat="44.5811465" lon="6.511846"><ele>892.0</ele><time>2026-05-01T09:51:20.401Z</time></trkpt><trkpt lat="44.5809787" lon="6.5118046"><ele>892.0</ele><time>2026-05-01T09:51:21.401Z</time></trkpt><trkpt lat="44.5808164" lon="6.5117663"><ele>892.0</ele><time>2026-05-01T09:51:22.401Z</time></trkpt><trkpt lat="44.5806501" lon="6.5117209"><ele>892.0</ele><time>2026-05-01T09:51:23.401Z</time></trkpt><trkpt lat="44.5804787" lon="6.5116723"><ele>892.0</ele><time>2026-05-01T09:51:24.403Z</time></trkpt><trkpt lat="44.5803041" lon="6.5116258"><ele>892.0</ele><time>2026-05-01T09:51:25.401Z</time></trkpt><trkpt lat="44.5801244" lon="6.5115797"><ele>892.0</ele><time>2026-05-01T09:51:26.402Z</time></trkpt><trkpt lat="44.5799475" lon="6.5115335"><ele>892.0</ele><time>2026-05-01T09:51:27.401Z</time></trkpt><trkpt lat="44.5797797" lon="6.5114917"><ele>892.0</ele><time>2026-05-01T09:51:28.401Z</time></trkpt><trkpt lat="44.579614" lon="6.5114531"><ele>891.6666666666666</ele><time>2026-05-01T09:51:29.401Z</time></trkpt><trkpt lat="44.5794533" lon="6.511414"><ele>891.3333333333333</ele><time>2026-05-01T09:51:30.401Z</time></trkpt><trkpt lat="44.5792987" lon="6.5113736"><ele>891.0</ele><time>2026-05-01T09:51:31.401Z</time></trkpt><trkpt lat="44.5791487" lon="6.5113362"><ele>891.0</ele><time>2026-05-01T09:51:32.401Z</time></trkpt><trkpt lat="44.5790028" lon="6.5113005"><ele>891.0</ele><time>2026-05-01T09:51:33.402Z</time></trkpt><trkpt lat="44.578847" lon="6.5112567"><ele>891.0</ele><time>2026-05-01T09:51:34.401Z</time></trkpt><trkpt lat="44.5786821" lon="6.511215"><ele>890.0</ele><time>2026-05-01T09:51:35.401Z</time></trkpt><trkpt lat="44.5785077" lon="6.5111724"><ele>889.0</ele><time>2026-05-01T09:51:36.401Z</time></trkpt><trkpt lat="44.5783282" lon="6.5111244"><ele>888.0</ele><time>2026-05-01T09:51:37.402Z</time></trkpt><trkpt lat="44.5781394" lon="6.5110763"><ele>888.0</ele><time>2026-05-01T09:51:38.402Z</time></trkpt><trkpt lat="44.577941" lon="6.5110265"><ele>888.0</ele><time>2026-05-01T09:51:39.402Z</time></trkpt><trkpt lat="44.5777397" lon="6.5109813"><ele>888.0</ele><time>2026-05-01T09:51:40.401Z</time></trkpt><trkpt lat="44.5775387" lon="6.5109397"><ele>887.0</ele><time>2026-05-01T09:51:41.401Z</time></trkpt><trkpt lat="44.5773418" lon="6.5109036"><ele>886.0</ele><time>2026-05-01T09:51:42.401Z</time></trkpt><trkpt lat="44.5771498" lon="6.510871"><ele>885.0</ele><time>2026-05-01T09:51:43.402Z</time></trkpt><trkpt lat="44.5769627" lon="6.5108459"><ele>882.6666666666667</ele><time>2026-05-01T09:51:44.401Z</time></trkpt><trkpt lat="44.5767795" lon="6.5108222"><ele>880.3333333333334</ele><time>2026-05-01T09:51:45.403Z</time></trkpt><trkpt lat="44.5766039" lon="6.5107999"><ele>878.0</ele><time>2026-05-01T09:51:46.401Z</time></trkpt><trkpt lat="44.5764356" lon="6.510782"><ele>878.0</ele><time>2026-05-01T09:51:47.401Z</time></trkpt><trkpt lat="44.5762685" lon="6.5107694"><ele>878.0</ele><time>2026-05-01T09:51:48.402Z</time></trkpt><trkpt lat="44.5760981" lon="6.5107636"><ele>878.0</ele><time>2026-05-01T09:51:49.402Z</time></trkpt><trkpt lat="44.5759266" lon="6.5107606"><ele>876.0</ele><time>2026-05-01T09:51:50.401Z</time></trkpt><trkpt lat="44.5757456" lon="6.5107587"><ele>874.0</ele><time>2026-05-01T09:51:51.401Z</time></trkpt><trkpt lat="44.5755586" lon="6.5107605"><ele>872.0</ele><time>2026-05-01T09:51:52.401Z</time></trkpt><trkpt lat="44.575363" lon="6.5107564"><ele>870.0</ele><time>2026-05-01T09:51:53.402Z</time></trkpt><trkpt lat="44.5751691" lon="6.5107492"><ele>868.0</ele><time>2026-05-01T09:51:54.401Z</time></trkpt><trkpt lat="44.5749747" lon="6.5107388"><ele>866.0</ele><time>2026-05-01T09:51:55.401Z</time></trkpt><trkpt lat="44.5747826" lon="6.5107204"><ele>866.0</ele><time>2026-05-01T09:51:56.401Z</time></trkpt><trkpt lat="44.5745913" lon="6.5106968"><ele>866.0</ele><time>2026-05-01T09:51:57.403Z</time></trkpt><trkpt lat="44.5743962" lon="6.5106724"><ele>866.0</ele><time>2026-05-01T09:51:58.401Z</time></trkpt><trkpt lat="44.5742025" lon="6.510641"><ele>862.6666666666667</ele><time>2026-05-01T09:51:59.402Z</time></trkpt><trkpt lat="44.5740077" lon="6.510604"><ele>859.3333333333333</ele><time>2026-05-01T09:52:00.401Z</time></trkpt><trkpt lat="44.5738129" lon="6.5105596"><ele>856.0</ele><time>2026-05-01T09:52:01.401Z</time></trkpt><trkpt lat="44.5736194" lon="6.5105156"><ele>860.0</ele><time>2026-05-01T09:52:02.402Z</time></trkpt><trkpt lat="44.5734261" lon="6.5104631"><ele>864.0</ele><time>2026-05-01T09:52:03.402Z</time></trkpt><trkpt lat="44.5732326" lon="6.510406"><ele>868.0</ele><time>2026-05-01T09:52:04.401Z</time></trkpt><trkpt lat="44.5730375" lon="6.510347"><ele>864.0</ele><time>2026-05-01T09:52:05.402Z</time></trkpt><trkpt lat="44.5728428" lon="6.5102882"><ele>860.0</ele><time>2026-05-01T09:52:06.401Z</time></trkpt><trkpt lat="44.5726444" lon="6.510234"><ele>856.0</ele><time>2026-05-01T09:52:07.402Z</time></trkpt><trkpt lat="44.5724416" lon="6.510185"><ele>856.0</ele><time>2026-05-01T09:52:08.401Z</time></trkpt><trkpt lat="44.5722307" lon="6.5101413"><ele>856.0</ele><time>2026-05-01T09:52:09.401Z</time></trkpt><trkpt lat="44.5720173" lon="6.5100988"><ele>856.0</ele><time>2026-05-01T09:52:10.402Z</time></trkpt><trkpt lat="44.5718063" lon="6.5100591"><ele>850.6666666666666</ele><time>2026-05-01T09:52:11.402Z</time></trkpt><trkpt lat="44.5715995" lon="6.5100174"><ele>845.3333333333333</ele><time>2026-05-01T09:52:12.402Z</time></trkpt><trkpt lat="44.5713968" lon="6.5099794"><ele>840.0</ele><time>2026-05-01T09:52:13.401Z</time></trkpt><trkpt lat="44.5711961" lon="6.5099433"><ele>836.3333333333333</ele><time>2026-05-01T09:52:14.401Z</time></trkpt><trkpt lat="44.571" lon="6.5099078"><ele>832.6666666666666</ele><time>2026-05-01T09:52:15.401Z</time></trkpt><trkpt lat="44.5708063" lon="6.5098725"><ele>829.0</ele><time>2026-05-01T09:52:16.401Z</time></trkpt><trkpt lat="44.5706156" lon="6.509833"><ele>829.0</ele><time>2026-05-01T09:52:17.401Z</time></trkpt><trkpt lat="44.5704338" lon="6.509785"><ele>829.0</ele><time>2026-05-01T09:52:18.401Z</time></trkpt><trkpt lat="44.5702593" lon="6.5097282"><ele>829.0</ele><time>2026-05-01T09:52:19.401Z</time></trkpt><trkpt lat="44.5700891" lon="6.5096632"><ele>826.0</ele><time>2026-05-01T09:52:20.402Z</time></trkpt><trkpt lat="44.5699163" lon="6.5095846"><ele>823.0</ele><time>2026-05-01T09:52:21.401Z</time></trkpt><trkpt lat="44.5697381" lon="6.5094932"><ele>820.0</ele><time>2026-05-01T09:52:22.401Z</time></trkpt><trkpt lat="44.5695569" lon="6.5093909"><ele>821.3333333333333</ele><time>2026-05-01T09:52:23.401Z</time></trkpt><trkpt lat="44.5693693" lon="6.5092897"><ele>822.6666666666667</ele><time>2026-05-01T09:52:24.402Z</time></trkpt><trkpt lat="44.5691794" lon="6.509188"><ele>824.0</ele><time>2026-05-01T09:52:25.401Z</time></trkpt><trkpt lat="44.5689955" lon="6.5090882"><ele>824.0</ele><time>2026-05-01T09:52:26.403Z</time></trkpt><trkpt lat="44.5688153" lon="6.5089901"><ele>824.0</ele><time>2026-05-01T09:52:27.401Z</time></trkpt><trkpt lat="44.5686389" lon="6.5089058"><ele>824.0</ele><time>2026-05-01T09:52:28.401Z</time></trkpt><trkpt lat="44.5684646" lon="6.5088253"><ele>825.3333333333334</ele><time>2026-05-01T09:52:29.402Z</time></trkpt><trkpt lat="44.5682883" lon="6.5087534"><ele>826.6666666666667</ele><time>2026-05-01T09:52:30.402Z</time></trkpt><trkpt lat="44.5681146" lon="6.5086942"><ele>828.0</ele><time>2026-05-01T09:52:31.401Z</time></trkpt><trkpt lat="44.5679527" lon="6.508643"><ele>826.0</ele><time>2026-05-01T09:52:32.402Z</time></trkpt><trkpt lat="44.5678068" lon="6.5085947"><ele>824.0</ele><time>2026-05-01T09:52:33.401Z</time></trkpt><trkpt lat="44.5676793" lon="6.5085526"><ele>822.0</ele><time>2026-05-01T09:52:34.401Z</time></trkpt><trkpt lat="44.5675564" lon="6.5085103"><ele>820.0</ele><time>2026-05-01T09:52:35.401Z</time></trkpt><trkpt lat="44.5674381" lon="6.5084695"><ele>820.0</ele><time>2026-05-01T09:52:36.401Z</time></trkpt><trkpt lat="44.5673155" lon="6.5084285"><ele>820.0</ele><time>2026-05-01T09:52:37.401Z</time></trkpt><trkpt lat="44.5671808" lon="6.5083849"><ele>820.0</ele><time>2026-05-01T09:52:38.401Z</time></trkpt><trkpt lat="44.5670371" lon="6.5083393"><ele>820.0</ele><time>2026-05-01T09:52:39.402Z</time></trkpt><trkpt lat="44.5668833" lon="6.5082915"><ele>820.6666666666666</ele><time>2026-05-01T09:52:40.401Z</time></trkpt><trkpt lat="44.5667262" lon="6.508243"><ele>821.3333333333333</ele><time>2026-05-01T09:52:41.401Z</time></trkpt><trkpt lat="44.5665623" lon="6.508188"><ele>822.0</ele><time>2026-05-01T09:52:42.401Z</time></trkpt><trkpt lat="44.5663938" lon="6.5081321"><ele>822.0</ele><time>2026-05-01T09:52:43.403Z</time></trkpt><trkpt lat="44.5662198" lon="6.5080754"><ele>822.0</ele><time>2026-05-01T09:52:44.401Z</time></trkpt><trkpt lat="44.5660397" lon="6.5080168"><ele>822.0</ele><time>2026-05-01T09:52:45.403Z</time></trkpt><trkpt lat="44.5658566" lon="6.5079606"><ele>819.3333333333333</ele><time>2026-05-01T09:52:46.401Z</time></trkpt><trkpt lat="44.5656745" lon="6.5079044"><ele>816.6666666666666</ele><time>2026-05-01T09:52:47.401Z</time></trkpt><trkpt lat="44.5654954" lon="6.5078479"><ele>814.0</ele><time>2026-05-01T09:52:48.401Z</time></trkpt><trkpt lat="44.565321" lon="6.5077929"><ele>813.0</ele><time>2026-05-01T09:52:49.401Z</time></trkpt><trkpt lat="44.5651505" lon="6.5077378"><ele>812.0</ele><time>2026-05-01T09:52:50.402Z</time></trkpt><trkpt lat="44.5649781" lon="6.5076812"><ele>811.0</ele><time>2026-05-01T09:52:51.402Z</time></trkpt><trkpt lat="44.5648006" lon="6.5076246"><ele>811.0</ele><time>2026-05-01T09:52:52.401Z</time></trkpt><trkpt lat="44.5646203" lon="6.5075684"><ele>811.0</ele><time>2026-05-01T09:52:53.401Z</time></trkpt><trkpt lat="44.5644376" lon="6.5075104"><ele>811.0</ele><time>2026-05-01T09:52:54.402Z</time></trkpt><trkpt lat="44.5642544" lon="6.5074536"><ele>810.3333333333333</ele><time>2026-05-01T09:52:55.402Z</time></trkpt><trkpt lat="44.564074" lon="6.507399"><ele>809.6666666666667</ele><time>2026-05-01T09:52:56.401Z</time></trkpt><trkpt lat="44.5638904" lon="6.5073438"><ele>809.0</ele><time>2026-05-01T09:52:57.402Z</time></trkpt><trkpt lat="44.5637029" lon="6.5072845"><ele>808.6666666666667</ele><time>2026-05-01T09:52:58.401Z</time></trkpt><trkpt lat="44.5635121" lon="6.5072235"><ele>808.3333333333333</ele><time>2026-05-01T09:52:59.402Z</time></trkpt><trkpt lat="44.5633162" lon="6.5071635"><ele>808.0</ele><time>2026-05-01T09:53:00.401Z</time></trkpt><trkpt lat="44.5631177" lon="6.5070999"><ele>807.0</ele><time>2026-05-01T09:53:01.401Z</time></trkpt><trkpt lat="44.5629191" lon="6.5070381"><ele>806.0</ele><time>2026-05-01T09:53:02.401Z</time></trkpt><trkpt lat="44.5627228" lon="6.5069809"><ele>805.0</ele><time>2026-05-01T09:53:03.401Z</time></trkpt><trkpt lat="44.5625296" lon="6.5069213"><ele>804.0</ele><time>2026-05-01T09:53:04.401Z</time></trkpt><trkpt lat="44.5623411" lon="6.506865"><ele>803.0</ele><time>2026-05-01T09:53:05.401Z</time></trkpt><trkpt lat="44.5621551" lon="6.5068037"><ele>802.0</ele><time>2026-05-01T09:53:06.401Z</time></trkpt><trkpt lat="44.5619655" lon="6.5067433"><ele>800.6666666666666</ele><time>2026-05-01T09:53:07.401Z</time></trkpt><trkpt lat="44.561775" lon="6.5066844"><ele>799.3333333333333</ele><time>2026-05-01T09:53:08.401Z</time></trkpt><trkpt lat="44.5615833" lon="6.5066251"><ele>798.0</ele><time>2026-05-01T09:53:09.401Z</time></trkpt><trkpt lat="44.5613937" lon="6.5065657"><ele>798.0</ele><time>2026-05-01T09:53:10.402Z</time></trkpt><trkpt lat="44.561205" lon="6.5065051"><ele>798.0</ele><time>2026-05-01T09:53:11.401Z</time></trkpt><trkpt lat="44.5610165" lon="6.5064455"><ele>798.0</ele><time>2026-05-01T09:53:12.402Z</time></trkpt><trkpt lat="44.5608342" lon="6.5063868"><ele>797.0</ele><time>2026-05-01T09:53:13.401Z</time></trkpt><trkpt lat="44.5606569" lon="6.5063292"><ele>796.0</ele><time>2026-05-01T09:53:14.401Z</time></trkpt><trkpt lat="44.5604877" lon="6.506276"><ele>795.0</ele><time>2026-05-01T09:53:15.401Z</time></trkpt><trkpt lat="44.5603225" lon="6.5062238"><ele>794.0</ele><time>2026-05-01T09:53:16.402Z</time></trkpt><trkpt lat="44.5601637" lon="6.5061744"><ele>793.0</ele><time>2026-05-01T09:53:17.401Z</time></trkpt><trkpt lat="44.560011" lon="6.5061209"><ele>792.0</ele><time>2026-05-01T09:53:18.401Z</time></trkpt><trkpt lat="44.5598627" lon="6.5060739"><ele>792.0</ele><time>2026-05-01T09:53:19.401Z</time></trkpt><trkpt lat="44.5597149" lon="6.5060267"><ele>792.0</ele><time>2026-05-01T09:53:20.401Z</time></trkpt><trkpt lat="44.5595639" lon="6.5059763"><ele>792.0</ele><time>2026-05-01T09:53:21.401Z</time></trkpt><trkpt lat="44.55941" lon="6.5059246"><ele>792.0</ele><time>2026-05-01T09:53:22.402Z</time></trkpt><trkpt lat="44.5592491" lon="6.5058757"><ele>792.0</ele><time>2026-05-01T09:53:23.402Z</time></trkpt><trkpt lat="44.5590853" lon="6.5058267"><ele>792.0</ele><time>2026-05-01T09:53:24.402Z</time></trkpt><trkpt lat="44.558919" lon="6.5057759"><ele>792.0</ele><time>2026-05-01T09:53:25.402Z</time></trkpt><trkpt lat="44.5587514" lon="6.5057193"><ele>792.0</ele><time>2026-05-01T09:53:26.401Z</time></trkpt><trkpt lat="44.5585814" lon="6.505661"><ele>792.0</ele><time>2026-05-01T09:53:27.401Z</time></trkpt><trkpt lat="44.5584098" lon="6.5055991"><ele>792.3333333333333</ele><time>2026-05-01T09:53:28.402Z</time></trkpt><trkpt lat="44.5582374" lon="6.5055256"><ele>792.6666666666666</ele><time>2026-05-01T09:53:29.402Z</time></trkpt><trkpt lat="44.5580642" lon="6.5054457"><ele>793.0</ele><time>2026-05-01T09:53:30.401Z</time></trkpt><trkpt lat="44.55789" lon="6.5053585"><ele>792.6666666666666</ele><time>2026-05-01T09:53:31.401Z</time></trkpt><trkpt lat="44.5577152" lon="6.5052621"><ele>792.3333333333333</ele><time>2026-05-01T09:53:32.401Z</time></trkpt><trkpt lat="44.5575385" lon="6.50516"><ele>792.0</ele><time>2026-05-01T09:53:33.403Z</time></trkpt><trkpt lat="44.557361" lon="6.5050474"><ele>792.0</ele><time>2026-05-01T09:53:34.401Z</time></trkpt><trkpt lat="44.5571795" lon="6.5049252"><ele>792.0</ele><time>2026-05-01T09:53:35.401Z</time></trkpt><trkpt lat="44.5569935" lon="6.504794"><ele>792.0</ele><time>2026-05-01T09:53:36.401Z</time></trkpt><trkpt lat="44.5568046" lon="6.5046586"><ele>792.0</ele><time>2026-05-01T09:53:37.401Z</time></trkpt><trkpt lat="44.5566182" lon="6.504514"><ele>792.0</ele><time>2026-05-01T09:53:38.401Z</time></trkpt><trkpt lat="44.5564352" lon="6.5043591"><ele>792.0</ele><time>2026-05-01T09:53:39.401Z</time></trkpt><trkpt lat="44.5562572" lon="6.5041961"><ele>792.0</ele><time>2026-05-01T09:53:40.401Z</time></trkpt><trkpt lat="44.5560878" lon="6.504031"><ele>792.0</ele><time>2026-05-01T09:53:41.401Z</time></trkpt><trkpt lat="44.5559238" lon="6.5038638"><ele>792.0</ele><time>2026-05-01T09:53:42.401Z</time></trkpt><trkpt lat="44.5557605" lon="6.5036899"><ele>792.0</ele><time>2026-05-01T09:53:43.401Z</time></trkpt><trkpt lat="44.5555971" lon="6.5035037"><ele>792.0</ele><time>2026-05-01T09:53:44.401Z</time></trkpt><trkpt lat="44.5554356" lon="6.5033057"><ele>792.0</ele><time>2026-05-01T09:53:45.401Z</time></trkpt><trkpt lat="44.5552764" lon="6.5030997"><ele>792.3333333333333</ele><time>2026-05-01T09:53:46.401Z</time></trkpt><trkpt lat="44.5551232" lon="6.5028906"><ele>792.6666666666666</ele><time>2026-05-01T09:53:47.402Z</time></trkpt><trkpt lat="44.5549783" lon="6.5026803"><ele>793.0</ele><time>2026-05-01T09:53:48.401Z</time></trkpt><trkpt lat="44.5548359" lon="6.5024703"><ele>793.0</ele><time>2026-05-01T09:53:49.401Z</time></trkpt><trkpt lat="44.5546974" lon="6.502257"><ele>793.0</ele><time>2026-05-01T09:53:50.402Z</time></trkpt><trkpt lat="44.554563" lon="6.5020375"><ele>793.0</ele><time>2026-05-01T09:53:51.401Z</time></trkpt><trkpt lat="44.554433" lon="6.5018084"><ele>792.6666666666666</ele><time>2026-05-01T09:53:52.401Z</time></trkpt><trkpt lat="44.5543051" lon="6.5015704"><ele>792.3333333333333</ele><time>2026-05-01T09:53:53.401Z</time></trkpt><trkpt lat="44.554179" lon="6.5013205"><ele>792.0</ele><time>2026-05-01T09:53:54.401Z</time></trkpt><trkpt lat="44.5540563" lon="6.5010565"><ele>791.5</ele><time>2026-05-01T09:53:55.401Z</time></trkpt><trkpt lat="44.5539387" lon="6.5007801"><ele>791.0</ele><time>2026-05-01T09:53:56.401Z</time></trkpt><trkpt lat="44.5538247" lon="6.5005027"><ele>791.3333333333334</ele><time>2026-05-01T09:53:57.401Z</time></trkpt><trkpt lat="44.553719" lon="6.5002305"><ele>791.6666666666667</ele><time>2026-05-01T09:53:58.402Z</time></trkpt><trkpt lat="44.5536239" lon="6.4999625"><ele>792.0</ele><time>2026-05-01T09:53:59.401Z</time></trkpt><trkpt lat="44.5535396" lon="6.4997045"><ele>792.0</ele><time>2026-05-01T09:54:00.401Z</time></trkpt><trkpt lat="44.5534627" lon="6.4994561"><ele>792.0</ele><time>2026-05-01T09:54:01.402Z</time></trkpt><trkpt lat="44.5533891" lon="6.4992156"><ele>792.0</ele><time>2026-05-01T09:54:02.402Z</time></trkpt><trkpt lat="44.5533152" lon="6.4989665"><ele>792.6666666666667</ele><time>2026-05-01T09:54:03.402Z</time></trkpt><trkpt lat="44.5532389" lon="6.4987124"><ele>793.3333333333334</ele><time>2026-05-01T09:54:04.401Z</time></trkpt><trkpt lat="44.5531619" lon="6.4984556"><ele>794.0</ele><time>2026-05-01T09:54:05.402Z</time></trkpt><trkpt lat="44.5530855" lon="6.4981923"><ele>794.0</ele><time>2026-05-01T09:54:06.401Z</time></trkpt><trkpt lat="44.5530092" lon="6.4979235"><ele>794.0</ele><time>2026-05-01T09:54:07.401Z</time></trkpt><trkpt lat="44.5529298" lon="6.4976513"><ele>794.0</ele><time>2026-05-01T09:54:08.401Z</time></trkpt><trkpt lat="44.5528537" lon="6.4973848"><ele>795.0</ele><time>2026-05-01T09:54:09.402Z</time></trkpt><trkpt lat="44.5527787" lon="6.4971269"><ele>796.0</ele><time>2026-05-01T09:54:10.401Z</time></trkpt><trkpt lat="44.5527049" lon="6.4968701"><ele>797.0</ele><time>2026-05-01T09:54:11.401Z</time></trkpt><trkpt lat="44.5526303" lon="6.4966167"><ele>797.0</ele><time>2026-05-01T09:54:12.401Z</time></trkpt><trkpt lat="44.5525535" lon="6.4963623"><ele>797.0</ele><time>2026-05-01T09:54:13.401Z</time></trkpt><trkpt lat="44.5524784" lon="6.4961077"><ele>797.0</ele><time>2026-05-01T09:54:14.402Z</time></trkpt><trkpt lat="44.5524029" lon="6.4958503"><ele>796.3333333333334</ele><time>2026-05-01T09:54:15.401Z</time></trkpt><trkpt lat="44.5523289" lon="6.4955963"><ele>795.6666666666667</ele><time>2026-05-01T09:54:16.402Z</time></trkpt><trkpt lat="44.5522563" lon="6.4953437"><ele>795.0</ele><time>2026-05-01T09:54:17.401Z</time></trkpt><trkpt lat="44.552182" lon="6.4950971"><ele>795.0</ele><time>2026-05-01T09:54:18.401Z</time></trkpt><trkpt lat="44.5521116" lon="6.4948491"><ele>795.0</ele><time>2026-05-01T09:54:19.401Z</time></trkpt><trkpt lat="44.5520412" lon="6.4945932"><ele>795.0</ele><time>2026-05-01T09:54:20.401Z</time></trkpt><trkpt lat="44.5519654" lon="6.4943274"><ele>795.0</ele><time>2026-05-01T09:54:21.401Z</time></trkpt><trkpt lat="44.5518891" lon="6.494057"><ele>795.0</ele><time>2026-05-01T09:54:22.402Z</time></trkpt><trkpt lat="44.5518091" lon="6.4937867"><ele>795.0</ele><time>2026-05-01T09:54:23.401Z</time></trkpt><trkpt lat="44.5517301" lon="6.4935236"><ele>795.0</ele><time>2026-05-01T09:54:24.401Z</time></trkpt><trkpt lat="44.5516542" lon="6.4932717"><ele>795.0</ele><time>2026-05-01T09:54:25.401Z</time></trkpt><trkpt lat="44.5515809" lon="6.4930277"><ele>795.0</ele><time>2026-05-01T09:54:26.401Z</time></trkpt><trkpt lat="44.5515086" lon="6.4927782"><ele>794.3333333333333</ele><time>2026-05-01T09:54:27.401Z</time></trkpt><trkpt lat="44.551433" lon="6.4925193"><ele>793.6666666666666</ele><time>2026-05-01T09:54:28.401Z</time></trkpt><trkpt lat="44.551357" lon="6.4922619"><ele>793.0</ele><time>2026-05-01T09:54:29.401Z</time></trkpt><trkpt lat="44.5512816" lon="6.4920032"><ele>793.0</ele><time>2026-05-01T09:54:30.402Z</time></trkpt><trkpt lat="44.5512064" lon="6.4917462"><ele>793.0</ele><time>2026-05-01T09:54:31.401Z</time></trkpt><trkpt lat="44.5511314" lon="6.4914884"><ele>793.0</ele><time>2026-05-01T09:54:32.402Z</time></trkpt><trkpt lat="44.5510568" lon="6.4912375"><ele>793.0</ele><time>2026-05-01T09:54:33.401Z</time></trkpt><trkpt lat="44.5509833" lon="6.4909893"><ele>793.0</ele><time>2026-05-01T09:54:34.401Z</time></trkpt><trkpt lat="44.5509088" lon="6.4907423"><ele>793.0</ele><time>2026-05-01T09:54:35.401Z</time></trkpt><trkpt lat="44.5508359" lon="6.490492"><ele>792.6666666666666</ele><time>2026-05-01T09:54:36.401Z</time></trkpt><trkpt lat="44.5507655" lon="6.4902443"><ele>792.3333333333333</ele><time>2026-05-01T09:54:37.401Z</time></trkpt><trkpt lat="44.5506933" lon="6.4899993"><ele>792.0</ele><time>2026-05-01T09:54:38.401Z</time></trkpt><trkpt lat="44.5506158" lon="6.4897527"><ele>791.6666666666667</ele><time>2026-05-01T09:54:39.402Z</time></trkpt><trkpt lat="44.5505345" lon="6.4895043"><ele>791.3333333333334</ele><time>2026-05-01T09:54:40.401Z</time></trkpt><trkpt lat="44.5504475" lon="6.4892567"><ele>791.0</ele><time>2026-05-01T09:54:41.401Z</time></trkpt><trkpt lat="44.5503552" lon="6.4890102"><ele>791.6666666666667</ele><time>2026-05-01T09:54:42.402Z</time></trkpt><trkpt lat="44.5502583" lon="6.4887683"><ele>792.3333333333333</ele><time>2026-05-01T09:54:43.401Z</time></trkpt><trkpt lat="44.55016" lon="6.4885347"><ele>793.0</ele><time>2026-05-01T09:54:44.401Z</time></trkpt><trkpt lat="44.5500662" lon="6.4883092"><ele>793.0</ele><time>2026-05-01T09:54:45.402Z</time></trkpt><trkpt lat="44.54998" lon="6.4881081"><ele>793.0</ele><time>2026-05-01T09:54:46.401Z</time></trkpt><trkpt lat="44.5499045" lon="6.4879296"><ele>793.0</ele><time>2026-05-01T09:54:47.401Z</time></trkpt><trkpt lat="44.5498292" lon="6.4877588"><ele>792.5</ele><time>2026-05-01T09:54:48.401Z</time></trkpt><trkpt lat="44.5497556" lon="6.4875914"><ele>792.0</ele><time>2026-05-01T09:54:49.401Z</time></trkpt><trkpt lat="44.5496849" lon="6.4874317"><ele>791.5</ele><time>2026-05-01T09:54:50.401Z</time></trkpt><trkpt lat="44.5496115" lon="6.4872683"><ele>791.0</ele><time>2026-05-01T09:54:51.401Z</time></trkpt><trkpt lat="44.5495356" lon="6.4870994"><ele>791.0</ele><time>2026-05-01T09:54:52.402Z</time></trkpt><trkpt lat="44.5494581" lon="6.4869236"><ele>791.0</ele><time>2026-05-01T09:54:53.401Z</time></trkpt><trkpt lat="44.549382" lon="6.4867471"><ele>791.0</ele><time>2026-05-01T09:54:54.402Z</time></trkpt><trkpt lat="44.5493096" lon="6.4865716"><ele>791.0</ele><time>2026-05-01T09:54:55.401Z</time></trkpt><trkpt lat="44.5492394" lon="6.4863982"><ele>791.0</ele><time>2026-05-01T09:54:56.401Z</time></trkpt><trkpt lat="44.5491716" lon="6.4862349"><ele>791.0</ele><time>2026-05-01T09:54:57.403Z</time></trkpt><trkpt lat="44.5491057" lon="6.4860819"><ele>791.0</ele><time>2026-05-01T09:54:58.401Z</time></trkpt><trkpt lat="44.5490419" lon="6.4859386"><ele>791.0</ele><time>2026-05-01T09:54:59.402Z</time></trkpt><trkpt lat="44.5489826" lon="6.4858001"><ele>791.0</ele><time>2026-05-01T09:55:00.401Z</time></trkpt><trkpt lat="44.5489246" lon="6.4856689"><ele>791.0</ele><time>2026-05-01T09:55:01.401Z</time></trkpt><trkpt lat="44.5488732" lon="6.4855424"><ele>791.0</ele><time>2026-05-01T09:55:02.402Z</time></trkpt><trkpt lat="44.5488255" lon="6.4854183"><ele>791.0</ele><time>2026-05-01T09:55:03.401Z</time></trkpt><trkpt lat="44.5487848" lon="6.4853006"><ele>791.0</ele><time>2026-05-01T09:55:04.401Z</time></trkpt><trkpt lat="44.5487538" lon="6.4852008"><ele>790.6666666666667</ele><time>2026-05-01T09:55:05.402Z</time></trkpt><trkpt lat="44.5487194" lon="6.4850847"><ele>790.3333333333334</ele><time>2026-05-01T09:55:07.401Z</time></trkpt><trkpt lat="44.5486943" lon="6.4849962"><ele>790.0</ele><time>2026-05-01T09:55:10.401Z</time></trkpt><trkpt lat="44.548684" lon="6.4849064"><ele>789.6666666666667</ele><time>2026-05-01T09:55:18.401Z</time></trkpt><trkpt lat="44.5486895" lon="6.4847949"><ele>789.3333333333334</ele><time>2026-05-01T09:55:22.401Z</time></trkpt><trkpt lat="44.5487008" lon="6.4846805"><ele>789.0</ele><time>2026-05-01T09:55:23.401Z</time></trkpt><trkpt lat="44.5487042" lon="6.4845583"><ele>788.8333333333334</ele><time>2026-05-01T09:55:24.401Z</time></trkpt><trkpt lat="44.5486893" lon="6.4844458"><ele>788.6666666666667</ele><time>2026-05-01T09:55:25.401Z</time></trkpt><trkpt lat="44.5486489" lon="6.484342"><ele>788.5</ele><time>2026-05-01T09:55:26.402Z</time></trkpt><trkpt lat="44.5485904" lon="6.4842653"><ele>788.3333333333334</ele><time>2026-05-01T09:55:27.402Z</time></trkpt><trkpt lat="44.5485164" lon="6.484218"><ele>788.1666666666667</ele><time>2026-05-01T09:55:28.401Z</time></trkpt><trkpt lat="44.5484299" lon="6.4841986"><ele>788.0</ele><time>2026-05-01T09:55:29.402Z</time></trkpt><trkpt lat="44.5483345" lon="6.4841943"><ele>788.0</ele><time>2026-05-01T09:55:30.401Z</time></trkpt><trkpt lat="44.5482294" lon="6.4841756"><ele>788.0</ele><time>2026-05-01T09:55:31.401Z</time></trkpt><trkpt lat="44.5481284" lon="6.4841094"><ele>788.0</ele><time>2026-05-01T09:55:32.402Z</time></trkpt><trkpt lat="44.5480173" lon="6.4839915"><ele>788.0</ele><time>2026-05-01T09:55:33.402Z</time></trkpt><trkpt lat="44.5478882" lon="6.4838352"><ele>788.0</ele><time>2026-05-01T09:55:34.401Z</time></trkpt><trkpt lat="44.5477391" lon="6.4836638"><ele>788.0</ele><time>2026-05-01T09:55:35.403Z</time></trkpt><trkpt lat="44.5475765" lon="6.4834817"><ele>788.0</ele><time>2026-05-01T09:55:36.401Z</time></trkpt><trkpt lat="44.5474095" lon="6.4832986"><ele>788.0</ele><time>2026-05-01T09:55:37.401Z</time></trkpt><trkpt lat="44.5472241" lon="6.4831025"><ele>788.0</ele><time>2026-05-01T09:55:38.401Z</time></trkpt><trkpt lat="44.5470272" lon="6.4829061"><ele>787.5</ele><time>2026-05-01T09:55:39.401Z</time></trkpt><trkpt lat="44.5468321" lon="6.482719"><ele>787.0</ele><time>2026-05-01T09:55:40.401Z</time></trkpt><trkpt lat="44.5466429" lon="6.4825401"><ele>787.0</ele><time>2026-05-01T09:55:41.402Z</time></trkpt><trkpt lat="44.54646" lon="6.4823697"><ele>787.0</ele><time>2026-05-01T09:55:42.401Z</time></trkpt><trkpt lat="44.5462832" lon="6.4822098"><ele>787.0</ele><time>2026-05-01T09:55:43.401Z</time></trkpt><trkpt lat="44.5461112" lon="6.4820542"><ele>787.0</ele><time>2026-05-01T09:55:44.402Z</time></trkpt><trkpt lat="44.5459441" lon="6.4818984"><ele>787.0</ele><time>2026-05-01T09:55:45.401Z</time></trkpt><trkpt lat="44.5457804" lon="6.481746"><ele>787.0</ele><time>2026-05-01T09:55:46.402Z</time></trkpt><trkpt lat="44.5456197" lon="6.4815967"><ele>787.0</ele><time>2026-05-01T09:55:47.401Z</time></trkpt><trkpt lat="44.5454657" lon="6.4814528"><ele>787.0</ele><time>2026-05-01T09:55:48.401Z</time></trkpt><trkpt lat="44.5453156" lon="6.4813179"><ele>787.0</ele><time>2026-05-01T09:55:49.401Z</time></trkpt><trkpt lat="44.5451653" lon="6.4811859"><ele>786.6666666666666</ele><time>2026-05-01T09:55:50.401Z</time></trkpt><trkpt lat="44.5450152" lon="6.481052"><ele>786.3333333333333</ele><time>2026-05-01T09:55:51.401Z</time></trkpt><trkpt lat="44.5448709" lon="6.4809174"><ele>786.0</ele><time>2026-05-01T09:55:52.401Z</time></trkpt><trkpt lat="44.5447331" lon="6.480791"><ele>786.0</ele><time>2026-05-01T09:55:53.401Z</time></trkpt><trkpt lat="44.5446082" lon="6.4806739"><ele>786.0</ele><time>2026-05-01T09:55:54.401Z</time></trkpt><trkpt lat="44.5444996" lon="6.480573"><ele>786.0</ele><time>2026-05-01T09:55:55.401Z</time></trkpt><trkpt lat="44.5443982" lon="6.4804804"><ele>786.0</ele><time>2026-05-01T09:55:56.401Z</time></trkpt><trkpt lat="44.5442999" lon="6.4803907"><ele>786.0</ele><time>2026-05-01T09:55:57.401Z</time></trkpt><trkpt lat="44.5441955" lon="6.480295"><ele>786.0</ele><time>2026-05-01T09:55:58.401Z</time></trkpt><trkpt lat="44.5440877" lon="6.4801986"><ele>786.0</ele><time>2026-05-01T09:55:59.401Z</time></trkpt><trkpt lat="44.5439824" lon="6.4801038"><ele>786.0</ele><time>2026-05-01T09:56:00.401Z</time></trkpt><trkpt lat="44.5438839" lon="6.4800106"><ele>786.0</ele><time>2026-05-01T09:56:01.401Z</time></trkpt><trkpt lat="44.5437962" lon="6.4799249"><ele>786.0</ele><time>2026-05-01T09:56:02.401Z</time></trkpt><trkpt lat="44.5437114" lon="6.4798437"><ele>786.0</ele><time>2026-05-01T09:56:03.401Z</time></trkpt><trkpt lat="44.5436303" lon="6.4797676"><ele>786.0</ele><time>2026-05-01T09:56:04.402Z</time></trkpt><trkpt lat="44.5435547" lon="6.4796972"><ele>786.0</ele><time>2026-05-01T09:56:05.401Z</time></trkpt><trkpt lat="44.5434874" lon="6.4796334"><ele>785.8</ele><time>2026-05-01T09:56:06.401Z</time></trkpt><trkpt lat="44.5434171" lon="6.4795694"><ele>785.5999999999999</ele><time>2026-05-01T09:56:07.401Z</time></trkpt><trkpt lat="44.543342" lon="6.4794989"><ele>785.4</ele><time>2026-05-01T09:56:08.402Z</time></trkpt><trkpt lat="44.5432621" lon="6.4794275"><ele>785.2</ele><time>2026-05-01T09:56:09.401Z</time></trkpt><trkpt lat="44.5431771" lon="6.4793504"><ele>785.0</ele><time>2026-05-01T09:56:10.401Z</time></trkpt><trkpt lat="44.5430957" lon="6.4792747"><ele>785.0</ele><time>2026-05-01T09:56:11.401Z</time></trkpt><trkpt lat="44.5430127" lon="6.4792018"><ele>785.0</ele><time>2026-05-01T09:56:12.402Z</time></trkpt><trkpt lat="44.5429271" lon="6.4791268"><ele>785.0</ele><time>2026-05-01T09:56:13.401Z</time></trkpt><trkpt lat="44.5428437" lon="6.4790492"><ele>785.0</ele><time>2026-05-01T09:56:14.401Z</time></trkpt><trkpt lat="44.5427629" lon="6.4789701"><ele>785.0</ele><time>2026-05-01T09:56:15.401Z</time></trkpt><trkpt lat="44.5426827" lon="6.4788916"><ele>785.2</ele><time>2026-05-01T09:56:16.402Z</time></trkpt><trkpt lat="44.5426007" lon="6.4788161"><ele>785.4</ele><time>2026-05-01T09:56:17.401Z</time></trkpt><trkpt lat="44.5425142" lon="6.4787367"><ele>785.5999999999999</ele><time>2026-05-01T09:56:18.401Z</time></trkpt><trkpt lat="44.5424251" lon="6.4786576"><ele>785.8</ele><time>2026-05-01T09:56:19.401Z</time></trkpt><trkpt lat="44.5423376" lon="6.4785783"><ele>786.0</ele><time>2026-05-01T09:56:20.402Z</time></trkpt><trkpt lat="44.5422544" lon="6.4785014"><ele>785.4</ele><time>2026-05-01T09:56:21.401Z</time></trkpt><trkpt lat="44.542173" lon="6.4784259"><ele>784.8</ele><time>2026-05-01T09:56:22.402Z</time></trkpt><trkpt lat="44.5420912" lon="6.4783503"><ele>784.1999999999999</ele><time>2026-05-01T09:56:23.401Z</time></trkpt><trkpt lat="44.5420119" lon="6.4782781"><ele>783.5999999999999</ele><time>2026-05-01T09:56:24.402Z</time></trkpt><trkpt lat="44.5419348" lon="6.4782107"><ele>783.0</ele><time>2026-05-01T09:56:25.401Z</time></trkpt><trkpt lat="44.541861" lon="6.4781451"><ele>783.0</ele><time>2026-05-01T09:56:26.401Z</time></trkpt><trkpt lat="44.5417892" lon="6.4780809"><ele>783.0</ele><time>2026-05-01T09:56:27.401Z</time></trkpt><trkpt lat="44.5417155" lon="6.4780135"><ele>783.0</ele><time>2026-05-01T09:56:28.401Z</time></trkpt><trkpt lat="44.5416399" lon="6.4779478"><ele>783.0</ele><time>2026-05-01T09:56:29.401Z</time></trkpt><trkpt lat="44.5415593" lon="6.477871"><ele>783.0</ele><time>2026-05-01T09:56:30.401Z</time></trkpt><trkpt lat="44.5414781" lon="6.4777934"><ele>782.8</ele><time>2026-05-01T09:56:31.401Z</time></trkpt><trkpt lat="44.5413932" lon="6.4777172"><ele>782.5999999999999</ele><time>2026-05-01T09:56:32.401Z</time></trkpt><trkpt lat="44.5413045" lon="6.4776361"><ele>782.4000000000001</ele><time>2026-05-01T09:56:33.401Z</time></trkpt><trkpt lat="44.5412102" lon="6.4775506"><ele>782.2</ele><time>2026-05-01T09:56:34.401Z</time></trkpt><trkpt lat="44.5411118" lon="6.4774633"><ele>782.0</ele><time>2026-05-01T09:56:35.401Z</time></trkpt><trkpt lat="44.5410112" lon="6.477374"><ele>781.75</ele><time>2026-05-01T09:56:36.401Z</time></trkpt><trkpt lat="44.5409127" lon="6.4772827"><ele>781.5</ele><time>2026-05-01T09:56:37.402Z</time></trkpt><trkpt lat="44.5408083" lon="6.4771845"><ele>781.25</ele><time>2026-05-01T09:56:38.401Z</time></trkpt><trkpt lat="44.5407026" lon="6.4770868"><ele>781.0</ele><time>2026-05-01T09:56:39.402Z</time></trkpt><trkpt lat="44.5405968" lon="6.4769904"><ele>781.0</ele><time>2026-05-01T09:56:40.401Z</time></trkpt><trkpt lat="44.5404929" lon="6.4768976"><ele>781.0</ele><time>2026-05-01T09:56:41.401Z</time></trkpt><trkpt lat="44.5403931" lon="6.4768066"><ele>781.0</ele><time>2026-05-01T09:56:42.401Z</time></trkpt><trkpt lat="44.5402915" lon="6.4767131"><ele>781.0</ele><time>2026-05-01T09:56:43.401Z</time></trkpt><trkpt lat="44.5401862" lon="6.476616"><ele>781.0</ele><time>2026-05-01T09:56:44.402Z</time></trkpt><trkpt lat="44.5400797" lon="6.4765192"><ele>781.0</ele><time>2026-05-01T09:56:45.402Z</time></trkpt><trkpt lat="44.5399766" lon="6.476423"><ele>781.0</ele><time>2026-05-01T09:56:46.401Z</time></trkpt><trkpt lat="44.5398779" lon="6.4763327"><ele>781.0</ele><time>2026-05-01T09:56:47.401Z</time></trkpt><trkpt lat="44.5397852" lon="6.4762501"><ele>781.0</ele><time>2026-05-01T09:56:48.401Z</time></trkpt><trkpt lat="44.5396983" lon="6.4761707"><ele>781.0</ele><time>2026-05-01T09:56:49.401Z</time></trkpt><trkpt lat="44.5396157" lon="6.4760928"><ele>781.0</ele><time>2026-05-01T09:56:50.401Z</time></trkpt><trkpt lat="44.5395393" lon="6.4760209"><ele>781.0</ele><time>2026-05-01T09:56:51.401Z</time></trkpt><trkpt lat="44.5394655" lon="6.4759526"><ele>781.0</ele><time>2026-05-01T09:56:52.401Z</time></trkpt><trkpt lat="44.5393934" lon="6.4758875"><ele>781.4</ele><time>2026-05-01T09:56:53.402Z</time></trkpt><trkpt lat="44.5393245" lon="6.475825"><ele>781.8</ele><time>2026-05-01T09:56:54.401Z</time></trkpt><trkpt lat="44.5392488" lon="6.4757565"><ele>782.1999999999999</ele><time>2026-05-01T09:56:55.402Z</time></trkpt><trkpt lat="44.539163" lon="6.4756793"><ele>782.5999999999999</ele><time>2026-05-01T09:56:56.402Z</time></trkpt><trkpt lat="44.539066" lon="6.475594"><ele>783.0</ele><time>2026-05-01T09:56:57.401Z</time></trkpt><trkpt lat="44.5389644" lon="6.475502"><ele>783.0</ele><time>2026-05-01T09:56:58.401Z</time></trkpt><trkpt lat="44.5388539" lon="6.4753988"><ele>783.0</ele><time>2026-05-01T09:56:59.401Z</time></trkpt><trkpt lat="44.5387399" lon="6.4752856"><ele>783.0</ele><time>2026-05-01T09:57:00.401Z</time></trkpt><trkpt lat="44.5386209" lon="6.4751616"><ele>783.0</ele><time>2026-05-01T09:57:01.402Z</time></trkpt><trkpt lat="44.5385025" lon="6.4750346"><ele>783.0</ele><time>2026-05-01T09:57:02.401Z</time></trkpt><trkpt lat="44.5383876" lon="6.474899"><ele>783.0</ele><time>2026-05-01T09:57:03.401Z</time></trkpt><trkpt lat="44.5382775" lon="6.4747583"><ele>783.0</ele><time>2026-05-01T09:57:04.401Z</time></trkpt><trkpt lat="44.5381688" lon="6.4746078"><ele>783.0</ele><time>2026-05-01T09:57:05.402Z</time></trkpt><trkpt lat="44.5380636" lon="6.4744533"><ele>783.0</ele><time>2026-05-01T09:57:06.402Z</time></trkpt><trkpt lat="44.5379609" lon="6.4743009"><ele>783.0</ele><time>2026-05-01T09:57:07.401Z</time></trkpt><trkpt lat="44.5378607" lon="6.4741527"><ele>783.0</ele><time>2026-05-01T09:57:08.402Z</time></trkpt><trkpt lat="44.5377674" lon="6.4740098"><ele>783.0</ele><time>2026-05-01T09:57:09.401Z</time></trkpt><trkpt lat="44.5376812" lon="6.4738689"><ele>783.0</ele><time>2026-05-01T09:57:10.403Z</time></trkpt><trkpt lat="44.5375971" lon="6.4737225"><ele>783.0</ele><time>2026-05-01T09:57:11.401Z</time></trkpt><trkpt lat="44.5375129" lon="6.473571"><ele>783.0</ele><time>2026-05-01T09:57:12.402Z</time></trkpt><trkpt lat="44.5374329" lon="6.4734057"><ele>783.0</ele><time>2026-05-01T09:57:13.401Z</time></trkpt><trkpt lat="44.5373561" lon="6.4732311"><ele>783.0</ele><time>2026-05-01T09:57:14.401Z</time></trkpt><trkpt lat="44.5372828" lon="6.4730503"><ele>783.0</ele><time>2026-05-01T09:57:15.402Z</time></trkpt><trkpt lat="44.5372129" lon="6.472864"><ele>783.0</ele><time>2026-05-01T09:57:16.401Z</time></trkpt><trkpt lat="44.5371449" lon="6.4726713"><ele>783.3333333333333</ele><time>2026-05-01T09:57:17.402Z</time></trkpt><trkpt lat="44.5370786" lon="6.4724706"><ele>783.6666666666666</ele><time>2026-05-01T09:57:18.402Z</time></trkpt><trkpt lat="44.5370148" lon="6.4722597"><ele>784.0</ele><time>2026-05-01T09:57:19.401Z</time></trkpt><trkpt lat="44.5369545" lon="6.472039"><ele>782.6666666666666</ele><time>2026-05-01T09:57:20.401Z</time></trkpt><trkpt lat="44.5368939" lon="6.4718093"><ele>781.3333333333333</ele><time>2026-05-01T09:57:21.4Z</time></trkpt><trkpt lat="44.536829" lon="6.471568"><ele>780.0</ele><time>2026-05-01T09:57:22.402Z</time></trkpt><trkpt lat="44.5367555" lon="6.4713177"><ele>780.6666666666667</ele><time>2026-05-01T09:57:23.4Z</time></trkpt><trkpt lat="44.5366751" lon="6.4710621"><ele>781.3333333333334</ele><time>2026-05-01T09:57:24.4Z</time></trkpt><trkpt lat="44.5365941" lon="6.4708074"><ele>782.0</ele><time>2026-05-01T09:57:25.4Z</time></trkpt><trkpt lat="44.5365131" lon="6.4705565"><ele>782.3333333333334</ele><time>2026-05-01T09:57:26.4Z</time></trkpt><trkpt lat="44.5364328" lon="6.4703203"><ele>782.6666666666667</ele><time>2026-05-01T09:57:27.4Z</time></trkpt><trkpt lat="44.5363525" lon="6.4700956"><ele>783.0</ele><time>2026-05-01T09:57:28.4Z</time></trkpt><trkpt lat="44.5362745" lon="6.4698812"><ele>783.0</ele><time>2026-05-01T09:57:29.4Z</time></trkpt><trkpt lat="44.5361989" lon="6.4696768"><ele>783.0</ele><time>2026-05-01T09:57:30.4Z</time></trkpt><trkpt lat="44.536126" lon="6.4694809"><ele>783.0</ele><time>2026-05-01T09:57:31.4Z</time></trkpt><trkpt lat="44.5360568" lon="6.4692944"><ele>782.5</ele><time>2026-05-01T09:57:32.4Z</time></trkpt><trkpt lat="44.5359893" lon="6.4691178"><ele>782.0</ele><time>2026-05-01T09:57:33.401Z</time></trkpt><trkpt lat="44.5359235" lon="6.468948"><ele>781.5</ele><time>2026-05-01T09:57:34.401Z</time></trkpt><trkpt lat="44.5358583" lon="6.4687823"><ele>781.0</ele><time>2026-05-01T09:57:35.4Z</time></trkpt><trkpt lat="44.5357936" lon="6.468623"><ele>781.0</ele><time>2026-05-01T09:57:36.4Z</time></trkpt><trkpt lat="44.5357274" lon="6.4684627"><ele>781.0</ele><time>2026-05-01T09:57:37.4Z</time></trkpt><trkpt lat="44.5356585" lon="6.4682934"><ele>781.0</ele><time>2026-05-01T09:57:38.401Z</time></trkpt><trkpt lat="44.5355897" lon="6.4681284"><ele>781.0</ele><time>2026-05-01T09:57:39.4Z</time></trkpt><trkpt lat="44.5355197" lon="6.4679685"><ele>781.25</ele><time>2026-05-01T09:57:40.4Z</time></trkpt><trkpt lat="44.5354494" lon="6.4678138"><ele>781.5</ele><time>2026-05-01T09:57:41.402Z</time></trkpt><trkpt lat="44.5353819" lon="6.4676633"><ele>781.75</ele><time>2026-05-01T09:57:42.4Z</time></trkpt><trkpt lat="44.5353204" lon="6.4675232"><ele>782.0</ele><time>2026-05-01T09:57:43.4Z</time></trkpt><trkpt lat="44.5352627" lon="6.4673882"><ele>782.2</ele><time>2026-05-01T09:57:44.4Z</time></trkpt><trkpt lat="44.5352088" lon="6.4672588"><ele>782.4000000000001</ele><time>2026-05-01T09:57:45.401Z</time></trkpt><trkpt lat="44.5351573" lon="6.4671388"><ele>782.5999999999999</ele><time>2026-05-01T09:57:46.4Z</time></trkpt><trkpt lat="44.5351069" lon="6.467028"><ele>782.8</ele><time>2026-05-01T09:57:47.4Z</time></trkpt><trkpt lat="44.5350613" lon="6.4669212"><ele>783.0</ele><time>2026-05-01T09:57:48.4Z</time></trkpt><trkpt lat="44.5350134" lon="6.4668114"><ele>783.0</ele><time>2026-05-01T09:57:49.4Z</time></trkpt><trkpt lat="44.5349605" lon="6.4666924"><ele>783.0</ele><time>2026-05-01T09:57:50.4Z</time></trkpt><trkpt lat="44.5349012" lon="6.4665618"><ele>783.0</ele><time>2026-05-01T09:57:51.4Z</time></trkpt><trkpt lat="44.5348392" lon="6.4664223"><ele>783.0</ele><time>2026-05-01T09:57:52.4Z</time></trkpt><trkpt lat="44.534776" lon="6.466279"><ele>783.0</ele><time>2026-05-01T09:57:53.4Z</time></trkpt><trkpt lat="44.5347154" lon="6.4661429"><ele>783.0</ele><time>2026-05-01T09:57:54.4Z</time></trkpt><trkpt lat="44.5346593" lon="6.4660145"><ele>783.0</ele><time>2026-05-01T09:57:55.401Z</time></trkpt><trkpt lat="44.5346034" lon="6.4658919"><ele>783.0</ele><time>2026-05-01T09:57:56.4Z</time></trkpt><trkpt lat="44.5345503" lon="6.4657712"><ele>783.0</ele><time>2026-05-01T09:57:57.4Z</time></trkpt><trkpt lat="44.534498" lon="6.4656498"><ele>783.0</ele><time>2026-05-01T09:57:58.4Z</time></trkpt><trkpt lat="44.5344437" lon="6.4655258"><ele>783.5</ele><time>2026-05-01T09:57:59.401Z</time></trkpt><trkpt lat="44.5343856" lon="6.4653976"><ele>784.0</ele><time>2026-05-01T09:58:00.4Z</time></trkpt><trkpt lat="44.5343236" lon="6.4652536"><ele>784.5</ele><time>2026-05-01T09:58:01.4Z</time></trkpt><trkpt lat="44.5342572" lon="6.4650986"><ele>785.0</ele><time>2026-05-01T09:58:02.4Z</time></trkpt><trkpt lat="44.5341901" lon="6.4649449"><ele>785.0</ele><time>2026-05-01T09:58:03.401Z</time></trkpt><trkpt lat="44.5341255" lon="6.4647925"><ele>785.0</ele><time>2026-05-01T09:58:04.4Z</time></trkpt><trkpt lat="44.5340582" lon="6.4646387"><ele>785.0</ele><time>2026-05-01T09:58:05.4Z</time></trkpt><trkpt lat="44.5339883" lon="6.4644752"><ele>785.0</ele><time>2026-05-01T09:58:06.4Z</time></trkpt><trkpt lat="44.5339192" lon="6.4643002"><ele>785.6666666666667</ele><time>2026-05-01T09:58:07.4Z</time></trkpt><trkpt lat="44.533851" lon="6.464115"><ele>786.3333333333333</ele><time>2026-05-01T09:58:08.4Z</time></trkpt><trkpt lat="44.5337856" lon="6.4639172"><ele>787.0</ele><time>2026-05-01T09:58:09.401Z</time></trkpt><trkpt lat="44.533721" lon="6.4637136"><ele>789.6666666666666</ele><time>2026-05-01T09:58:10.4Z</time></trkpt><trkpt lat="44.5336582" lon="6.463505"><ele>792.3333333333333</ele><time>2026-05-01T09:58:11.401Z</time></trkpt><trkpt lat="44.5335959" lon="6.4632954"><ele>795.0</ele><time>2026-05-01T09:58:12.401Z</time></trkpt><trkpt lat="44.5335361" lon="6.4630848"><ele>795.0</ele><time>2026-05-01T09:58:13.4Z</time></trkpt><trkpt lat="44.5334785" lon="6.4628689"><ele>795.0</ele><time>2026-05-01T09:58:14.4Z</time></trkpt><trkpt lat="44.5334248" lon="6.4626446"><ele>795.0</ele><time>2026-05-01T09:58:15.401Z</time></trkpt><trkpt lat="44.5333716" lon="6.462411"><ele>795.0</ele><time>2026-05-01T09:58:16.4Z</time></trkpt><trkpt lat="44.5333192" lon="6.4621682"><ele>795.0</ele><time>2026-05-01T09:58:17.4Z</time></trkpt><trkpt lat="44.5332666" lon="6.4619089"><ele>795.0</ele><time>2026-05-01T09:58:18.4Z</time></trkpt><trkpt lat="44.5332202" lon="6.4616401"><ele>796.6666666666667</ele><time>2026-05-01T09:58:19.4Z</time></trkpt><trkpt lat="44.5331796" lon="6.4613561"><ele>798.3333333333334</ele><time>2026-05-01T09:58:20.401Z</time></trkpt><trkpt lat="44.533141" lon="6.4610675"><ele>800.0</ele><time>2026-05-01T09:58:21.4Z</time></trkpt><trkpt lat="44.533107" lon="6.4607731"><ele>800.0</ele><time>2026-05-01T09:58:22.4Z</time></trkpt><trkpt lat="44.5330787" lon="6.4604807"><ele>800.0</ele><time>2026-05-01T09:58:23.4Z</time></trkpt><trkpt lat="44.5330566" lon="6.4602035"><ele>800.0</ele><time>2026-05-01T09:58:24.401Z</time></trkpt><trkpt lat="44.5330388" lon="6.4599417"><ele>800.3333333333334</ele><time>2026-05-01T09:58:25.4Z</time></trkpt><trkpt lat="44.533022" lon="6.4596883"><ele>800.6666666666667</ele><time>2026-05-01T09:58:26.4Z</time></trkpt><trkpt lat="44.5330042" lon="6.459435"><ele>801.0</ele><time>2026-05-01T09:58:27.401Z</time></trkpt><trkpt lat="44.532986" lon="6.4591822"><ele>801.6666666666667</ele><time>2026-05-01T09:58:28.4Z</time></trkpt><trkpt lat="44.5329687" lon="6.4589259"><ele>802.3333333333334</ele><time>2026-05-01T09:58:29.4Z</time></trkpt><trkpt lat="44.5329513" lon="6.4586721"><ele>803.0</ele><time>2026-05-01T09:58:30.4Z</time></trkpt><trkpt lat="44.5329342" lon="6.4584213"><ele>803.3333333333334</ele><time>2026-05-01T09:58:31.4Z</time></trkpt><trkpt lat="44.5329177" lon="6.4581719"><ele>803.6666666666667</ele><time>2026-05-01T09:58:32.4Z</time></trkpt><trkpt lat="44.5329002" lon="6.4579198"><ele>804.0</ele><time>2026-05-01T09:58:33.401Z</time></trkpt><trkpt lat="44.5328835" lon="6.4576622"><ele>806.0</ele><time>2026-05-01T09:58:34.4Z</time></trkpt><trkpt lat="44.5328682" lon="6.4574"><ele>808.0</ele><time>2026-05-01T09:58:35.4Z</time></trkpt><trkpt lat="44.5328526" lon="6.4571338"><ele>810.0</ele><time>2026-05-01T09:58:36.4Z</time></trkpt><trkpt lat="44.5328364" lon="6.4568652"><ele>810.0</ele><time>2026-05-01T09:58:37.4Z</time></trkpt><trkpt lat="44.5328193" lon="6.4565951"><ele>810.0</ele><time>2026-05-01T09:58:38.4Z</time></trkpt><trkpt lat="44.5328021" lon="6.4563216"><ele>810.0</ele><time>2026-05-01T09:58:39.4Z</time></trkpt><trkpt lat="44.5327848" lon="6.4560381"><ele>810.6666666666667</ele><time>2026-05-01T09:58:40.4Z</time></trkpt><trkpt lat="44.5327682" lon="6.4557424"><ele>811.3333333333334</ele><time>2026-05-01T09:58:41.4Z</time></trkpt><trkpt lat="44.5327502" lon="6.4554316"><ele>812.0</ele><time>2026-05-01T09:58:42.4Z</time></trkpt><trkpt lat="44.53273" lon="6.4551162"><ele>812.6666666666667</ele><time>2026-05-01T09:58:43.4Z</time></trkpt><trkpt lat="44.532707" lon="6.4548013"><ele>813.3333333333333</ele><time>2026-05-01T09:58:44.4Z</time></trkpt><trkpt lat="44.5326838" lon="6.4544893"><ele>814.0</ele><time>2026-05-01T09:58:45.4Z</time></trkpt><trkpt lat="44.5326593" lon="6.4541726"><ele>815.0</ele><time>2026-05-01T09:58:46.4Z</time></trkpt><trkpt lat="44.5326328" lon="6.4538362"><ele>816.0</ele><time>2026-05-01T09:58:47.401Z</time></trkpt><trkpt lat="44.5326071" lon="6.4534831"><ele>817.0</ele><time>2026-05-01T09:58:48.4Z</time></trkpt><trkpt lat="44.5325839" lon="6.4531182"><ele>818.0</ele><time>2026-05-01T09:58:49.4Z</time></trkpt><trkpt lat="44.532565" lon="6.4527511"><ele>820.5</ele><time>2026-05-01T09:58:50.4Z</time></trkpt><trkpt lat="44.5325482" lon="6.4523873"><ele>823.0</ele><time>2026-05-01T09:58:51.4Z</time></trkpt><trkpt lat="44.5325301" lon="6.4520307"><ele>825.5</ele><time>2026-05-01T09:58:52.4Z</time></trkpt><trkpt lat="44.5325097" lon="6.4516827"><ele>828.0</ele><time>2026-05-01T09:58:53.401Z</time></trkpt><trkpt lat="44.5324882" lon="6.4513424"><ele>828.5</ele><time>2026-05-01T09:58:54.4Z</time></trkpt><trkpt lat="44.5324684" lon="6.4510121"><ele>829.0</ele><time>2026-05-01T09:58:55.401Z</time></trkpt><trkpt lat="44.5324473" lon="6.4507025"><ele>829.3333333333333</ele><time>2026-05-01T09:58:56.4Z</time></trkpt><trkpt lat="44.5324304" lon="6.4504119"><ele>829.6666666666667</ele><time>2026-05-01T09:58:57.4Z</time></trkpt><trkpt lat="44.532415" lon="6.4501378"><ele>830.0</ele><time>2026-05-01T09:58:58.4Z</time></trkpt><trkpt lat="44.5323984" lon="6.4498728"><ele>830.6666666666667</ele><time>2026-05-01T09:58:59.4Z</time></trkpt><trkpt lat="44.5323806" lon="6.4496115"><ele>831.3333333333333</ele><time>2026-05-01T09:59:00.4Z</time></trkpt><trkpt lat="44.5323638" lon="6.4493524"><ele>832.0</ele><time>2026-05-01T09:59:01.4Z</time></trkpt><trkpt lat="44.5323465" lon="6.4490963"><ele>832.0</ele><time>2026-05-01T09:59:02.4Z</time></trkpt><trkpt lat="44.5323299" lon="6.4488436"><ele>832.0</ele><time>2026-05-01T09:59:03.4Z</time></trkpt><trkpt lat="44.5323157" lon="6.4486041"><ele>832.0</ele><time>2026-05-01T09:59:04.401Z</time></trkpt><trkpt lat="44.5323007" lon="6.4483748"><ele>832.3333333333333</ele><time>2026-05-01T09:59:05.4Z</time></trkpt><trkpt lat="44.5322843" lon="6.4481479"><ele>832.6666666666667</ele><time>2026-05-01T09:59:06.4Z</time></trkpt><trkpt lat="44.5322667" lon="6.4479236"><ele>833.0</ele><time>2026-05-01T09:59:07.4Z</time></trkpt><trkpt lat="44.5322484" lon="6.447699"><ele>833.0</ele><time>2026-05-01T09:59:08.4Z</time></trkpt><trkpt lat="44.5322301" lon="6.4474708"><ele>833.0</ele><time>2026-05-01T09:59:09.4Z</time></trkpt><trkpt lat="44.5322087" lon="6.4472316"><ele>833.0</ele><time>2026-05-01T09:59:10.4Z</time></trkpt><trkpt lat="44.5321865" lon="6.4469715"><ele>833.0</ele><time>2026-05-01T09:59:11.401Z</time></trkpt><trkpt lat="44.5321699" lon="6.4466968"><ele>833.0</ele><time>2026-05-01T09:59:12.4Z</time></trkpt><trkpt lat="44.5321602" lon="6.4464087"><ele>833.0</ele><time>2026-05-01T09:59:13.4Z</time></trkpt><trkpt lat="44.5321554" lon="6.4461123"><ele>833.0</ele><time>2026-05-01T09:59:14.4Z</time></trkpt><trkpt lat="44.5321485" lon="6.4458206"><ele>833.0</ele><time>2026-05-01T09:59:15.4Z</time></trkpt><trkpt lat="44.5321426" lon="6.4455369"><ele>833.0</ele><time>2026-05-01T09:59:16.4Z</time></trkpt><trkpt lat="44.5321361" lon="6.4452495"><ele>833.0</ele><time>2026-05-01T09:59:17.4Z</time></trkpt><trkpt lat="44.5321293" lon="6.4449716"><ele>833.0</ele><time>2026-05-01T09:59:18.4Z</time></trkpt><trkpt lat="44.5321285" lon="6.4446878"><ele>833.0</ele><time>2026-05-01T09:59:19.4Z</time></trkpt><trkpt lat="44.532131" lon="6.4443929"><ele>832.3333333333334</ele><time>2026-05-01T09:59:20.4Z</time></trkpt><trkpt lat="44.5321364" lon="6.4440872"><ele>831.6666666666667</ele><time>2026-05-01T09:59:21.4Z</time></trkpt><trkpt lat="44.5321417" lon="6.4437738"><ele>831.0</ele><time>2026-05-01T09:59:22.4Z</time></trkpt><trkpt lat="44.5321458" lon="6.4434571"><ele>830.6666666666667</ele><time>2026-05-01T09:59:23.4Z</time></trkpt><trkpt lat="44.5321491" lon="6.4431418"><ele>830.3333333333334</ele><time>2026-05-01T09:59:24.401Z</time></trkpt><trkpt lat="44.5321498" lon="6.442837"><ele>830.0</ele><time>2026-05-01T09:59:25.401Z</time></trkpt><trkpt lat="44.5321439" lon="6.442544"><ele>829.6666666666667</ele><time>2026-05-01T09:59:26.4Z</time></trkpt><trkpt lat="44.5321329" lon="6.4422621"><ele>829.3333333333333</ele><time>2026-05-01T09:59:27.4Z</time></trkpt><trkpt lat="44.5321177" lon="6.4419886"><ele>829.0</ele><time>2026-05-01T09:59:28.4Z</time></trkpt><trkpt lat="44.5320995" lon="6.4417268"><ele>829.0</ele><time>2026-05-01T09:59:29.4Z</time></trkpt><trkpt lat="44.5320793" lon="6.4414704"><ele>829.0</ele><time>2026-05-01T09:59:30.4Z</time></trkpt><trkpt lat="44.5320567" lon="6.4412214"><ele>829.0</ele><time>2026-05-01T09:59:31.4Z</time></trkpt><trkpt lat="44.532026" lon="6.440977"><ele>829.0</ele><time>2026-05-01T09:59:32.4Z</time></trkpt><trkpt lat="44.5319882" lon="6.4407356"><ele>829.0</ele><time>2026-05-01T09:59:33.401Z</time></trkpt><trkpt lat="44.5319458" lon="6.4404924"><ele>829.0</ele><time>2026-05-01T09:59:34.4Z</time></trkpt><trkpt lat="44.5319017" lon="6.4402435"><ele>828.3333333333333</ele><time>2026-05-01T09:59:35.4Z</time></trkpt><trkpt lat="44.5318554" lon="6.4399816"><ele>827.6666666666667</ele><time>2026-05-01T09:59:36.4Z</time></trkpt><trkpt lat="44.5318077" lon="6.4397073"><ele>827.0</ele><time>2026-05-01T09:59:37.4Z</time></trkpt><trkpt lat="44.5317616" lon="6.4394224"><ele>825.3333333333334</ele><time>2026-05-01T09:59:38.4Z</time></trkpt><trkpt lat="44.5317227" lon="6.4391368"><ele>823.6666666666667</ele><time>2026-05-01T09:59:39.4Z</time></trkpt><trkpt lat="44.5316931" lon="6.4388497"><ele>822.0</ele><time>2026-05-01T09:59:40.401Z</time></trkpt><trkpt lat="44.53167" lon="6.4385632"><ele>820.3333333333333</ele><time>2026-05-01T09:59:41.4Z</time></trkpt><trkpt lat="44.5316498" lon="6.43828"><ele>818.6666666666666</ele><time>2026-05-01T09:59:42.4Z</time></trkpt><trkpt lat="44.5316318" lon="6.4380001"><ele>817.0</ele><time>2026-05-01T09:59:43.4Z</time></trkpt><trkpt lat="44.5316149" lon="6.4377236"><ele>815.3333333333333</ele><time>2026-05-01T09:59:44.4Z</time></trkpt><trkpt lat="44.5316005" lon="6.4374513"><ele>813.6666666666667</ele><time>2026-05-01T09:59:45.4Z</time></trkpt><trkpt lat="44.5315857" lon="6.4371818"><ele>812.0</ele><time>2026-05-01T09:59:46.4Z</time></trkpt><trkpt lat="44.5315701" lon="6.4369166"><ele>810.6666666666667</ele><time>2026-05-01T09:59:47.4Z</time></trkpt><trkpt lat="44.5315546" lon="6.4366559"><ele>809.3333333333333</ele><time>2026-05-01T09:59:48.4Z</time></trkpt><trkpt lat="44.5315393" lon="6.4363953"><ele>808.0</ele><time>2026-05-01T09:59:49.4Z</time></trkpt><trkpt lat="44.5315243" lon="6.4361396"><ele>807.0</ele><time>2026-05-01T09:59:50.4Z</time></trkpt><trkpt lat="44.5315115" lon="6.4358881"><ele>806.0</ele><time>2026-05-01T09:59:51.401Z</time></trkpt><trkpt lat="44.5315021" lon="6.4356424"><ele>805.0</ele><time>2026-05-01T09:59:52.4Z</time></trkpt><trkpt lat="44.5314902" lon="6.4353998"><ele>803.6666666666666</ele><time>2026-05-01T09:59:53.4Z</time></trkpt><trkpt lat="44.5314766" lon="6.43516"><ele>802.3333333333333</ele><time>2026-05-01T09:59:54.401Z</time></trkpt><trkpt lat="44.5314635" lon="6.434917"><ele>801.0</ele><time>2026-05-01T09:59:55.4Z</time></trkpt><trkpt lat="44.5314496" lon="6.4346671"><ele>799.3333333333333</ele><time>2026-05-01T09:59:56.4Z</time></trkpt><trkpt lat="44.5314322" lon="6.4344047"><ele>797.6666666666666</ele><time>2026-05-01T09:59:57.4Z</time></trkpt><trkpt lat="44.5314135" lon="6.4341341"><ele>796.0</ele><time>2026-05-01T09:59:58.4Z</time></trkpt><trkpt lat="44.531394" lon="6.4338544"><ele>795.0</ele><time>2026-05-01T09:59:59.4Z</time></trkpt><trkpt lat="44.5313762" lon="6.4335629"><ele>794.0</ele><time>2026-05-01T10:00:00.4Z</time></trkpt><trkpt lat="44.5313578" lon="6.4332657"><ele>793.0</ele><time>2026-05-01T10:00:01.4Z</time></trkpt><trkpt lat="44.5313369" lon="6.4329648"><ele>791.3333333333333</ele><time>2026-05-01T10:00:02.4Z</time></trkpt><trkpt lat="44.5313143" lon="6.4326676"><ele>789.6666666666667</ele><time>2026-05-01T10:00:03.4Z</time></trkpt><trkpt lat="44.5312837" lon="6.4323739"><ele>788.0</ele><time>2026-05-01T10:00:04.401Z</time></trkpt><trkpt lat="44.5312462" lon="6.4320892"><ele>790.0</ele><time>2026-05-01T10:00:05.4Z</time></trkpt><trkpt lat="44.5311952" lon="6.4318084"><ele>792.0</ele><time>2026-05-01T10:00:06.4Z</time></trkpt><trkpt lat="44.531134" lon="6.4315274"><ele>794.0</ele><time>2026-05-01T10:00:07.401Z</time></trkpt><trkpt lat="44.5310598" lon="6.4312479"><ele>794.0</ele><time>2026-05-01T10:00:08.4Z</time></trkpt><trkpt lat="44.530976" lon="6.4309726"><ele>794.0</ele><time>2026-05-01T10:00:09.4Z</time></trkpt><trkpt lat="44.5308821" lon="6.430707"><ele>794.0</ele><time>2026-05-01T10:00:10.401Z</time></trkpt><trkpt lat="44.5307833" lon="6.430456"><ele>791.6666666666667</ele><time>2026-05-01T10:00:11.4Z</time></trkpt><trkpt lat="44.5306785" lon="6.4302211"><ele>789.3333333333333</ele><time>2026-05-01T10:00:12.401Z</time></trkpt><trkpt lat="44.5305617" lon="6.4299901"><ele>787.0</ele><time>2026-05-01T10:00:13.401Z</time></trkpt><trkpt lat="44.5304397" lon="6.4297564"><ele>789.0</ele><time>2026-05-01T10:00:14.4Z</time></trkpt><trkpt lat="44.5303206" lon="6.4295228"><ele>791.0</ele><time>2026-05-01T10:00:15.401Z</time></trkpt><trkpt lat="44.5302028" lon="6.4292867"><ele>793.0</ele><time>2026-05-01T10:00:16.401Z</time></trkpt><trkpt lat="44.530086" lon="6.4290537"><ele>793.0</ele><time>2026-05-01T10:00:17.4Z</time></trkpt><trkpt lat="44.5299688" lon="6.4288239"><ele>793.0</ele><time>2026-05-01T10:00:18.401Z</time></trkpt><trkpt lat="44.5298481" lon="6.4285999"><ele>793.0</ele><time>2026-05-01T10:00:19.4Z</time></trkpt><trkpt lat="44.5297284" lon="6.4283774"><ele>791.6666666666666</ele><time>2026-05-01T10:00:20.401Z</time></trkpt><trkpt lat="44.5296126" lon="6.4281527"><ele>790.3333333333333</ele><time>2026-05-01T10:00:21.4Z</time></trkpt><trkpt lat="44.5295059" lon="6.4279389"><ele>789.0</ele><time>2026-05-01T10:00:22.4Z</time></trkpt><trkpt lat="44.529405" lon="6.4277368"><ele>792.6666666666667</ele><time>2026-05-01T10:00:23.4Z</time></trkpt><trkpt lat="44.5293096" lon="6.4275466"><ele>796.3333333333334</ele><time>2026-05-01T10:00:24.4Z</time></trkpt><trkpt lat="44.5292188" lon="6.4273692"><ele>800.0</ele><time>2026-05-01T10:00:25.4Z</time></trkpt><trkpt lat="44.5291328" lon="6.4272027"><ele>797.75</ele><time>2026-05-01T10:00:26.4Z</time></trkpt><trkpt lat="44.5290509" lon="6.4270389"><ele>795.5</ele><time>2026-05-01T10:00:27.4Z</time></trkpt><trkpt lat="44.5289712" lon="6.4268707"><ele>793.25</ele><time>2026-05-01T10:00:28.401Z</time></trkpt><trkpt lat="44.5288932" lon="6.4266918"><ele>791.0</ele><time>2026-05-01T10:00:29.4Z</time></trkpt><trkpt lat="44.5288143" lon="6.4264903"><ele>788.6666666666667</ele><time>2026-05-01T10:00:30.4Z</time></trkpt><trkpt lat="44.5287347" lon="6.426267"><ele>786.3333333333333</ele><time>2026-05-01T10:00:31.4Z</time></trkpt><trkpt lat="44.5286558" lon="6.4260221"><ele>784.0</ele><time>2026-05-01T10:00:32.4Z</time></trkpt><trkpt lat="44.5285762" lon="6.4257605"><ele>794.3333333333333</ele><time>2026-05-01T10:00:33.4Z</time></trkpt><trkpt lat="44.5284993" lon="6.4254838"><ele>804.6666666666667</ele><time>2026-05-01T10:00:34.4Z</time></trkpt><trkpt lat="44.5284306" lon="6.4251995"><ele>815.0</ele><time>2026-05-01T10:00:35.4Z</time></trkpt><trkpt lat="44.5283733" lon="6.424915"><ele>812.3333333333334</ele><time>2026-05-01T10:00:36.401Z</time></trkpt><trkpt lat="44.5283245" lon="6.4246359"><ele>809.6666666666667</ele><time>2026-05-01T10:00:37.4Z</time></trkpt><trkpt lat="44.5282795" lon="6.4243671"><ele>807.0</ele><time>2026-05-01T10:00:38.4Z</time></trkpt><trkpt lat="44.5282355" lon="6.4241016"><ele>807.0</ele><time>2026-05-01T10:00:39.4Z</time></trkpt><trkpt lat="44.5281909" lon="6.4238364"><ele>807.0</ele><time>2026-05-01T10:00:40.401Z</time></trkpt><trkpt lat="44.528148" lon="6.4235717"><ele>807.0</ele><time>2026-05-01T10:00:41.4Z</time></trkpt><trkpt lat="44.5281067" lon="6.4233061"><ele>805.3333333333333</ele><time>2026-05-01T10:00:42.4Z</time></trkpt><trkpt lat="44.5280622" lon="6.4230436"><ele>803.6666666666666</ele><time>2026-05-01T10:00:43.402Z</time></trkpt><trkpt lat="44.5280063" lon="6.4227845"><ele>802.0</ele><time>2026-05-01T10:00:44.4Z</time></trkpt><trkpt lat="44.5279412" lon="6.4225314"><ele>811.6666666666666</ele><time>2026-05-01T10:00:45.4Z</time></trkpt><trkpt lat="44.5278702" lon="6.4222746"><ele>821.3333333333333</ele><time>2026-05-01T10:00:46.4Z</time></trkpt><trkpt lat="44.5277979" lon="6.4220093"><ele>831.0</ele><time>2026-05-01T10:00:47.4Z</time></trkpt><trkpt lat="44.5277245" lon="6.4217443"><ele>831.0</ele><time>2026-05-01T10:00:48.401Z</time></trkpt><trkpt lat="44.5276511" lon="6.4214895"><ele>831.0</ele><time>2026-05-01T10:00:49.4Z</time></trkpt><trkpt lat="44.5275769" lon="6.4212412"><ele>831.0</ele><time>2026-05-01T10:00:50.4Z</time></trkpt><trkpt lat="44.5275016" lon="6.4209998"><ele>828.6666666666667</ele><time>2026-05-01T10:00:51.4Z</time></trkpt><trkpt lat="44.5274247" lon="6.4207648"><ele>826.3333333333334</ele><time>2026-05-01T10:00:52.401Z</time></trkpt><trkpt lat="44.5273462" lon="6.4205331"><ele>824.0</ele><time>2026-05-01T10:00:53.401Z</time></trkpt><trkpt lat="44.5272667" lon="6.4203059"><ele>823.6666666666667</ele><time>2026-05-01T10:00:54.401Z</time></trkpt><trkpt lat="44.5271892" lon="6.4200828"><ele>823.3333333333333</ele><time>2026-05-01T10:00:55.4Z</time></trkpt><trkpt lat="44.5271174" lon="6.4198622"><ele>823.0</ele><time>2026-05-01T10:00:56.4Z</time></trkpt><trkpt lat="44.5270522" lon="6.4196409"><ele>824.0</ele><time>2026-05-01T10:00:57.4Z</time></trkpt><trkpt lat="44.5269938" lon="6.4194137"><ele>825.0</ele><time>2026-05-01T10:00:58.4Z</time></trkpt><trkpt lat="44.5269386" lon="6.4191823"><ele>826.0</ele><time>2026-05-01T10:00:59.4Z</time></trkpt><trkpt lat="44.5268836" lon="6.4189479"><ele>828.0</ele><time>2026-05-01T10:01:00.4Z</time></trkpt><trkpt lat="44.5268307" lon="6.4187101"><ele>830.0</ele><time>2026-05-01T10:01:01.401Z</time></trkpt><trkpt lat="44.5267849" lon="6.418467"><ele>832.0</ele><time>2026-05-01T10:01:02.4Z</time></trkpt><trkpt lat="44.5267502" lon="6.4182186"><ele>834.0</ele><time>2026-05-01T10:01:03.4Z</time></trkpt><trkpt lat="44.5267233" lon="6.4179685"><ele>836.0</ele><time>2026-05-01T10:01:04.401Z</time></trkpt><trkpt lat="44.5267005" lon="6.4177175"><ele>838.0</ele><time>2026-05-01T10:01:05.4Z</time></trkpt><trkpt lat="44.5266835" lon="6.4174666"><ele>838.0</ele><time>2026-05-01T10:01:06.4Z</time></trkpt><trkpt lat="44.5266731" lon="6.4172153"><ele>838.0</ele><time>2026-05-01T10:01:07.401Z</time></trkpt><trkpt lat="44.5266662" lon="6.416956"><ele>838.0</ele><time>2026-05-01T10:01:08.4Z</time></trkpt><trkpt lat="44.526664" lon="6.4166945"><ele>838.3333333333333</ele><time>2026-05-01T10:01:09.4Z</time></trkpt><trkpt lat="44.5266658" lon="6.4164326"><ele>838.6666666666667</ele><time>2026-05-01T10:01:10.4Z</time></trkpt><trkpt lat="44.5266688" lon="6.4161731"><ele>839.0</ele><time>2026-05-01T10:01:11.4Z</time></trkpt><trkpt lat="44.5266732" lon="6.4159183"><ele>839.0</ele><time>2026-05-01T10:01:12.4Z</time></trkpt><trkpt lat="44.5266792" lon="6.4156606"><ele>839.0</ele><time>2026-05-01T10:01:13.4Z</time></trkpt><trkpt lat="44.5266854" lon="6.4154041"><ele>839.0</ele><time>2026-05-01T10:01:14.4Z</time></trkpt><trkpt lat="44.5266954" lon="6.4151568"><ele>839.3333333333334</ele><time>2026-05-01T10:01:15.4Z</time></trkpt><trkpt lat="44.5267025" lon="6.4149183"><ele>839.6666666666667</ele><time>2026-05-01T10:01:16.4Z</time></trkpt><trkpt lat="44.5267053" lon="6.4146879"><ele>840.0</ele><time>2026-05-01T10:01:17.4Z</time></trkpt><trkpt lat="44.5267042" lon="6.4144671"><ele>840.3333333333333</ele><time>2026-05-01T10:01:18.401Z</time></trkpt><trkpt lat="44.5267003" lon="6.4142519"><ele>840.6666666666666</ele><time>2026-05-01T10:01:19.4Z</time></trkpt><trkpt lat="44.5266917" lon="6.4140329"><ele>841.0</ele><time>2026-05-01T10:01:20.4Z</time></trkpt><trkpt lat="44.5266823" lon="6.4138067"><ele>841.0</ele><time>2026-05-01T10:01:21.4Z</time></trkpt><trkpt lat="44.5266726" lon="6.4135758"><ele>841.0</ele><time>2026-05-01T10:01:22.4Z</time></trkpt><trkpt lat="44.526659" lon="6.4133384"><ele>841.0</ele><time>2026-05-01T10:01:23.4Z</time></trkpt><trkpt lat="44.5266439" lon="6.4131038"><ele>838.6666666666666</ele><time>2026-05-01T10:01:24.4Z</time></trkpt><trkpt lat="44.5266297" lon="6.4128725"><ele>836.3333333333333</ele><time>2026-05-01T10:01:25.4Z</time></trkpt><trkpt lat="44.5266176" lon="6.4126428"><ele>834.0</ele><time>2026-05-01T10:01:26.4Z</time></trkpt><trkpt lat="44.5266064" lon="6.4124142"><ele>834.0</ele><time>2026-05-01T10:01:27.4Z</time></trkpt><trkpt lat="44.5265949" lon="6.4121844"><ele>834.0</ele><time>2026-05-01T10:01:28.4Z</time></trkpt><trkpt lat="44.5265801" lon="6.4119495"><ele>834.0</ele><time>2026-05-01T10:01:29.4Z</time></trkpt><trkpt lat="44.5265633" lon="6.4117183"><ele>834.0</ele><time>2026-05-01T10:01:30.4Z</time></trkpt><trkpt lat="44.5265476" lon="6.4114904"><ele>834.0</ele><time>2026-05-01T10:01:31.4Z</time></trkpt><trkpt lat="44.5265368" lon="6.4112694"><ele>834.0</ele><time>2026-05-01T10:01:32.401Z</time></trkpt><trkpt lat="44.5265301" lon="6.4110554"><ele>834.0</ele><time>2026-05-01T10:01:33.4Z</time></trkpt><trkpt lat="44.5265234" lon="6.4108478"><ele>834.0</ele><time>2026-05-01T10:01:34.4Z</time></trkpt><trkpt lat="44.5265204" lon="6.4106466"><ele>834.0</ele><time>2026-05-01T10:01:35.4Z</time></trkpt><trkpt lat="44.5265259" lon="6.4104542"><ele>834.0</ele><time>2026-05-01T10:01:36.4Z</time></trkpt><trkpt lat="44.5265366" lon="6.4102656"><ele>834.0</ele><time>2026-05-01T10:01:37.4Z</time></trkpt><trkpt lat="44.5265355" lon="6.4100825"><ele>834.0</ele><time>2026-05-01T10:01:38.4Z</time></trkpt><trkpt lat="44.5265116" lon="6.4099031"><ele>834.0</ele><time>2026-05-01T10:01:39.4Z</time></trkpt><trkpt lat="44.5264815" lon="6.4097169"><ele>834.0</ele><time>2026-05-01T10:01:40.4Z</time></trkpt><trkpt lat="44.52646" lon="6.4095266"><ele>833.0</ele><time>2026-05-01T10:01:41.4Z</time></trkpt><trkpt lat="44.5264484" lon="6.4093422"><ele>832.0</ele><time>2026-05-01T10:01:42.4Z</time></trkpt><trkpt lat="44.5264377" lon="6.4091722"><ele>831.0</ele><time>2026-05-01T10:01:43.4Z</time></trkpt><trkpt lat="44.5264278" lon="6.4090157"><ele>830.0</ele><time>2026-05-01T10:01:44.4Z</time></trkpt><trkpt lat="44.5264159" lon="6.4088581"><ele>828.75</ele><time>2026-05-01T10:01:45.4Z</time></trkpt><trkpt lat="44.526404" lon="6.4087032"><ele>827.5</ele><time>2026-05-01T10:01:46.4Z</time></trkpt><trkpt lat="44.5263946" lon="6.4085464"><ele>826.25</ele><time>2026-05-01T10:01:47.4Z</time></trkpt><trkpt lat="44.5263845" lon="6.4083878"><ele>825.0</ele><time>2026-05-01T10:01:48.401Z</time></trkpt><trkpt lat="44.5263721" lon="6.4082236"><ele>825.0</ele><time>2026-05-01T10:01:49.4Z</time></trkpt><trkpt lat="44.5263608" lon="6.4080534"><ele>825.0</ele><time>2026-05-01T10:01:50.4Z</time></trkpt><trkpt lat="44.5263525" lon="6.4078855"><ele>825.0</ele><time>2026-05-01T10:01:51.4Z</time></trkpt><trkpt lat="44.5263429" lon="6.4077201"><ele>825.0</ele><time>2026-05-01T10:01:52.4Z</time></trkpt><trkpt lat="44.526334" lon="6.4075565"><ele>823.6</ele><time>2026-05-01T10:01:53.4Z</time></trkpt><trkpt lat="44.5263238" lon="6.4073948"><ele>822.2</ele><time>2026-05-01T10:01:54.4Z</time></trkpt><trkpt lat="44.5263127" lon="6.4072442"><ele>820.8</ele><time>2026-05-01T10:01:55.4Z</time></trkpt><trkpt lat="44.5263046" lon="6.4071181"><ele>819.4</ele><time>2026-05-01T10:01:56.4Z</time></trkpt><trkpt lat="44.5262986" lon="6.4070049"><ele>818.0</ele><time>2026-05-01T10:01:57.4Z</time></trkpt><trkpt lat="44.5262912" lon="6.4068982"><ele>817.2</ele><time>2026-05-01T10:01:58.4Z</time></trkpt><trkpt lat="44.5262856" lon="6.4067967"><ele>816.4</ele><time>2026-05-01T10:01:59.4Z</time></trkpt><trkpt lat="44.5262797" lon="6.4066354"><ele>815.6</ele><time>2026-05-01T10:02:01.4Z</time></trkpt><trkpt lat="44.5262781" lon="6.4064779"><ele>814.8000000000001</ele><time>2026-05-01T10:02:03.4Z</time></trkpt><trkpt lat="44.526275" lon="6.4063031"><ele>814.0</ele><time>2026-05-01T10:02:05.4Z</time></trkpt><trkpt lat="44.5262718" lon="6.4061437"><ele>813.8000000000001</ele><time>2026-05-01T10:02:07.4Z</time></trkpt><trkpt lat="44.526265" lon="6.4059881"><ele>813.6</ele><time>2026-05-01T10:02:09.4Z</time></trkpt><trkpt lat="44.5262475" lon="6.4058351"><ele>813.4</ele><time>2026-05-01T10:02:11.4Z</time></trkpt><trkpt lat="44.526235" lon="6.4056668"><ele>813.2</ele><time>2026-05-01T10:02:13.401Z</time></trkpt><trkpt lat="44.5262291" lon="6.4055664"><ele>813.0</ele><time>2026-05-01T10:02:14.401Z</time></trkpt><trkpt lat="44.5262241" lon="6.4054639"><ele>813.0</ele><time>2026-05-01T10:02:15.4Z</time></trkpt><trkpt lat="44.5262159" lon="6.4053179"><ele>813.0</ele><time>2026-05-01T10:02:17.402Z</time></trkpt><trkpt lat="44.5262073" lon="6.4051974"><ele>813.0</ele><time>2026-05-01T10:02:19.4Z</time></trkpt><trkpt lat="44.5262038" lon="6.4050863"><ele>813.0</ele><time>2026-05-01T10:02:21.4Z</time></trkpt><trkpt lat="44.5261959" lon="6.4049795"><ele>813.0</ele><time>2026-05-01T10:02:23.4Z</time></trkpt><trkpt lat="44.5261885" lon="6.4048573"><ele>813.0</ele><time>2026-05-01T10:02:25.4Z</time></trkpt><trkpt lat="44.5261773" lon="6.4047172"><ele>812.0</ele><time>2026-05-01T10:02:27.4Z</time></trkpt><trkpt lat="44.5261685" lon="6.4045541"><ele>811.0</ele><time>2026-05-01T10:02:29.4Z</time></trkpt><trkpt lat="44.5261656" lon="6.404383"><ele>810.0</ele><time>2026-05-01T10:02:31.401Z</time></trkpt><trkpt lat="44.526155" lon="6.4042151"><ele>809.0</ele><time>2026-05-01T10:02:33.401Z</time></trkpt><trkpt lat="44.5261444" lon="6.4040506"><ele>809.0000000000001</ele><time>2026-05-01T10:02:35.4Z</time></trkpt><trkpt lat="44.526134" lon="6.4039006"><ele>809.0</ele><time>2026-05-01T10:02:37.401Z</time></trkpt><trkpt lat="44.5261324" lon="6.4037417"><ele>809.0</ele><time>2026-05-01T10:02:39.402Z</time></trkpt><trkpt lat="44.5261286" lon="6.4036495"><ele>809.0</ele><time>2026-05-01T10:02:40.4Z</time></trkpt><trkpt lat="44.5261209" lon="6.4035446"><ele>809.0000000000001</ele><time>2026-05-01T10:02:41.4Z</time></trkpt><trkpt lat="44.5261125" lon="6.403433"><ele>809.0</ele><time>2026-05-01T10:02:42.4Z</time></trkpt><trkpt lat="44.5261065" lon="6.4033275"><ele>808.4000000000001</ele><time>2026-05-01T10:02:43.4Z</time></trkpt><trkpt lat="44.5261009" lon="6.4032258"><ele>807.8</ele><time>2026-05-01T10:02:44.4Z</time></trkpt><trkpt lat="44.5260982" lon="6.4031285"><ele>807.2</ele><time>2026-05-01T10:02:45.4Z</time></trkpt><trkpt lat="44.5260971" lon="6.4029595"><ele>806.5999999999999</ele><time>2026-05-01T10:02:47.401Z</time></trkpt><trkpt lat="44.5260995" lon="6.4027885"><ele>806.0</ele><time>2026-05-01T10:02:49.4Z</time></trkpt><trkpt lat="44.5261192" lon="6.4026205"><ele>805.1999999999999</ele><time>2026-05-01T10:02:51.4Z</time></trkpt><trkpt lat="44.5261381" lon="6.4024632"><ele>804.4</ele><time>2026-05-01T10:02:53.401Z</time></trkpt><trkpt lat="44.5261639" lon="6.4023005"><ele>803.6</ele><time>2026-05-01T10:02:55.4Z</time></trkpt><trkpt lat="44.5261821" lon="6.4022089"><ele>802.8</ele><time>2026-05-01T10:02:56.4Z</time></trkpt><trkpt lat="44.5262069" lon="6.4021011"><ele>802.0</ele><time>2026-05-01T10:02:57.4Z</time></trkpt><trkpt lat="44.5262362" lon="6.4019732"><ele>799.8</ele><time>2026-05-01T10:02:58.4Z</time></trkpt><trkpt lat="44.5262719" lon="6.4018324"><ele>797.6</ele><time>2026-05-01T10:02:59.4Z</time></trkpt><trkpt lat="44.5263111" lon="6.4016924"><ele>795.4</ele><time>2026-05-01T10:03:00.401Z</time></trkpt><trkpt lat="44.526349" lon="6.4015586"><ele>793.1999999999999</ele><time>2026-05-01T10:03:01.401Z</time></trkpt><trkpt lat="44.5263854" lon="6.4014399"><ele>791.0</ele><time>2026-05-01T10:03:02.4Z</time></trkpt><trkpt lat="44.5264241" lon="6.4013242"><ele>789.8</ele><time>2026-05-01T10:03:03.4Z</time></trkpt><trkpt lat="44.5264638" lon="6.4012124"><ele>788.5999999999999</ele><time>2026-05-01T10:03:04.4Z</time></trkpt><trkpt lat="44.5265042" lon="6.4010978"><ele>787.4</ele><time>2026-05-01T10:03:05.4Z</time></trkpt><trkpt lat="44.5265498" lon="6.4009787"><ele>786.2</ele><time>2026-05-01T10:03:06.4Z</time></trkpt><trkpt lat="44.5266014" lon="6.4008578"><ele>785.0</ele><time>2026-05-01T10:03:07.4Z</time></trkpt><trkpt lat="44.5266558" lon="6.4007436"><ele>785.0</ele><time>2026-05-01T10:03:08.4Z</time></trkpt><trkpt lat="44.5267109" lon="6.4006281"><ele>785.0</ele><time>2026-05-01T10:03:09.4Z</time></trkpt><trkpt lat="44.5267726" lon="6.400514"><ele>785.0</ele><time>2026-05-01T10:03:10.4Z</time></trkpt><trkpt lat="44.526842" lon="6.4003963"><ele>785.0</ele><time>2026-05-01T10:03:11.4Z</time></trkpt><trkpt lat="44.5269221" lon="6.4002734"><ele>785.0</ele><time>2026-05-01T10:03:12.4Z</time></trkpt><trkpt lat="44.5270121" lon="6.4001436"><ele>782.75</ele><time>2026-05-01T10:03:13.4Z</time></trkpt><trkpt lat="44.5271126" lon="6.4000101"><ele>780.5</ele><time>2026-05-01T10:03:14.401Z</time></trkpt><trkpt lat="44.527226" lon="6.399874"><ele>778.25</ele><time>2026-05-01T10:03:15.4Z</time></trkpt><trkpt lat="44.5273498" lon="6.3997379"><ele>776.0</ele><time>2026-05-01T10:03:16.4Z</time></trkpt><trkpt lat="44.5274787" lon="6.3995995"><ele>773.3333333333334</ele><time>2026-05-01T10:03:17.4Z</time></trkpt><trkpt lat="44.5276074" lon="6.3994678"><ele>770.6666666666667</ele><time>2026-05-01T10:03:18.4Z</time></trkpt><trkpt lat="44.5277338" lon="6.3993467"><ele>768.0</ele><time>2026-05-01T10:03:19.4Z</time></trkpt><trkpt lat="44.5278537" lon="6.3992266"><ele>766.25</ele><time>2026-05-01T10:03:20.4Z</time></trkpt><trkpt lat="44.5279661" lon="6.3991088"><ele>764.5</ele><time>2026-05-01T10:03:21.4Z</time></trkpt><trkpt lat="44.5280776" lon="6.3989969"><ele>762.75</ele><time>2026-05-01T10:03:22.4Z</time></trkpt><trkpt lat="44.5281917" lon="6.3988842"><ele>761.0</ele><time>2026-05-01T10:03:23.4Z</time></trkpt><trkpt lat="44.5283129" lon="6.3987675"><ele>759.6666666666666</ele><time>2026-05-01T10:03:24.4Z</time></trkpt><trkpt lat="44.5284374" lon="6.3986408"><ele>758.3333333333334</ele><time>2026-05-01T10:03:25.401Z</time></trkpt><trkpt lat="44.5285687" lon="6.3985077"><ele>757.0</ele><time>2026-05-01T10:03:26.4Z</time></trkpt><trkpt lat="44.5287061" lon="6.3983683"><ele>757.0</ele><time>2026-05-01T10:03:27.402Z</time></trkpt><trkpt lat="44.528847" lon="6.3982247"><ele>757.0</ele><time>2026-05-01T10:03:28.4Z</time></trkpt><trkpt lat="44.5289916" lon="6.3980782"><ele>757.0</ele><time>2026-05-01T10:03:29.4Z</time></trkpt><trkpt lat="44.5291366" lon="6.3979293"><ele>757.0</ele><time>2026-05-01T10:03:30.4Z</time></trkpt><trkpt lat="44.5292806" lon="6.397783"><ele>757.0</ele><time>2026-05-01T10:03:31.401Z</time></trkpt><trkpt lat="44.5294216" lon="6.3976394"><ele>757.0</ele><time>2026-05-01T10:03:32.4Z</time></trkpt><trkpt lat="44.529561" lon="6.3974998"><ele>757.0</ele><time>2026-05-01T10:03:33.401Z</time></trkpt><trkpt lat="44.5297011" lon="6.3973607"><ele>757.0</ele><time>2026-05-01T10:03:34.4Z</time></trkpt><trkpt lat="44.529842" lon="6.3972217"><ele>757.0</ele><time>2026-05-01T10:03:35.4Z</time></trkpt><trkpt lat="44.5299841" lon="6.3970801"><ele>757.0</ele><time>2026-05-01T10:03:36.4Z</time></trkpt><trkpt lat="44.5301265" lon="6.3969351"><ele>757.0</ele><time>2026-05-01T10:03:37.4Z</time></trkpt><trkpt lat="44.5302709" lon="6.3967884"><ele>757.0</ele><time>2026-05-01T10:03:38.4Z</time></trkpt><trkpt lat="44.530417" lon="6.3966386"><ele>757.0</ele><time>2026-05-01T10:03:39.4Z</time></trkpt><trkpt lat="44.5305622" lon="6.3964873"><ele>757.0</ele><time>2026-05-01T10:03:40.4Z</time></trkpt><trkpt lat="44.5307077" lon="6.396335"><ele>757.0</ele><time>2026-05-01T10:03:41.4Z</time></trkpt><trkpt lat="44.5308558" lon="6.3961844"><ele>757.0</ele><time>2026-05-01T10:03:42.4Z</time></trkpt><trkpt lat="44.5310017" lon="6.3960409"><ele>757.0</ele><time>2026-05-01T10:03:43.401Z</time></trkpt><trkpt lat="44.5311435" lon="6.3959008"><ele>757.0</ele><time>2026-05-01T10:03:44.4Z</time></trkpt><trkpt lat="44.5312822" lon="6.3957638"><ele>757.0</ele><time>2026-05-01T10:03:45.401Z</time></trkpt><trkpt lat="44.5314189" lon="6.39563"><ele>757.0</ele><time>2026-05-01T10:03:46.4Z</time></trkpt><trkpt lat="44.5315536" lon="6.395498"><ele>757.0</ele><time>2026-05-01T10:03:47.4Z</time></trkpt><trkpt lat="44.5316851" lon="6.3953648"><ele>757.0</ele><time>2026-05-01T10:03:48.401Z</time></trkpt><trkpt lat="44.5318146" lon="6.3952317"><ele>757.0</ele><time>2026-05-01T10:03:49.401Z</time></trkpt><trkpt lat="44.5319457" lon="6.3951021"><ele>757.0</ele><time>2026-05-01T10:03:50.401Z</time></trkpt><trkpt lat="44.5320797" lon="6.3949707"><ele>758.3333333333334</ele><time>2026-05-01T10:03:51.4Z</time></trkpt><trkpt lat="44.5322147" lon="6.3948338"><ele>759.6666666666666</ele><time>2026-05-01T10:03:52.4Z</time></trkpt><trkpt lat="44.5323514" lon="6.3946959"><ele>761.0</ele><time>2026-05-01T10:03:53.399Z</time></trkpt><trkpt lat="44.5324928" lon="6.3945533"><ele>761.0</ele><time>2026-05-01T10:03:54.4Z</time></trkpt><trkpt lat="44.5326408" lon="6.3944065"><ele>761.0</ele><time>2026-05-01T10:03:55.399Z</time></trkpt><trkpt lat="44.5327935" lon="6.3942543"><ele>761.0</ele><time>2026-05-01T10:03:56.399Z</time></trkpt><trkpt lat="44.5329479" lon="6.3940989"><ele>762.3333333333333</ele><time>2026-05-01T10:03:57.399Z</time></trkpt><trkpt lat="44.5331031" lon="6.3939422"><ele>763.6666666666666</ele><time>2026-05-01T10:03:58.399Z</time></trkpt><trkpt lat="44.5332604" lon="6.3937869"><ele>765.0</ele><time>2026-05-01T10:03:59.399Z</time></trkpt><trkpt lat="44.5334147" lon="6.3936315"><ele>765.0</ele><time>2026-05-01T10:04:00.399Z</time></trkpt><trkpt lat="44.533563" lon="6.393479"><ele>765.0</ele><time>2026-05-01T10:04:01.4Z</time></trkpt><trkpt lat="44.5337091" lon="6.3933334"><ele>765.0</ele><time>2026-05-01T10:04:02.399Z</time></trkpt><trkpt lat="44.5338519" lon="6.3931901"><ele>766.6666666666667</ele><time>2026-05-01T10:04:03.4Z</time></trkpt><trkpt lat="44.5339912" lon="6.3930496"><ele>768.3333333333334</ele><time>2026-05-01T10:04:04.399Z</time></trkpt><trkpt lat="44.5341251" lon="6.3929154"><ele>770.0</ele><time>2026-05-01T10:04:05.401Z</time></trkpt><trkpt lat="44.5342484" lon="6.3927921"><ele>770.75</ele><time>2026-05-01T10:04:06.399Z</time></trkpt><trkpt lat="44.5343603" lon="6.3926767"><ele>771.5</ele><time>2026-05-01T10:04:07.399Z</time></trkpt><trkpt lat="44.5344678" lon="6.3925633"><ele>772.25</ele><time>2026-05-01T10:04:08.4Z</time></trkpt><trkpt lat="44.5345718" lon="6.3924526"><ele>773.0</ele><time>2026-05-01T10:04:09.399Z</time></trkpt><trkpt lat="44.5346695" lon="6.3923451"><ele>774.75</ele><time>2026-05-01T10:04:10.399Z</time></trkpt><trkpt lat="44.5347649" lon="6.3922364"><ele>776.5</ele><time>2026-05-01T10:04:11.399Z</time></trkpt><trkpt lat="44.534858" lon="6.3921188"><ele>778.25</ele><time>2026-05-01T10:04:12.4Z</time></trkpt><trkpt lat="44.5349487" lon="6.391987"><ele>780.0</ele><time>2026-05-01T10:04:13.399Z</time></trkpt><trkpt lat="44.535043" lon="6.391839"><ele>780.3333333333333</ele><time>2026-05-01T10:04:14.399Z</time></trkpt><trkpt lat="44.5351403" lon="6.3916675"><ele>780.6666666666666</ele><time>2026-05-01T10:04:15.399Z</time></trkpt><trkpt lat="44.5352312" lon="6.39148"><ele>781.0</ele><time>2026-05-01T10:04:16.399Z</time></trkpt><trkpt lat="44.5353117" lon="6.3912791"><ele>779.3333333333333</ele><time>2026-05-01T10:04:17.399Z</time></trkpt><trkpt lat="44.53538" lon="6.391069"><ele>777.6666666666667</ele><time>2026-05-01T10:04:18.399Z</time></trkpt><trkpt lat="44.5354375" lon="6.3908496"><ele>776.0</ele><time>2026-05-01T10:04:19.399Z</time></trkpt><trkpt lat="44.5354882" lon="6.3906265"><ele>781.6666666666667</ele><time>2026-05-01T10:04:20.399Z</time></trkpt><trkpt lat="44.5355295" lon="6.3903972"><ele>787.3333333333333</ele><time>2026-05-01T10:04:21.399Z</time></trkpt><trkpt lat="44.5355627" lon="6.3901648"><ele>793.0</ele><time>2026-05-01T10:04:22.399Z</time></trkpt><trkpt lat="44.5355869" lon="6.3899178"><ele>793.3333333333333</ele><time>2026-05-01T10:04:23.399Z</time></trkpt><trkpt lat="44.5356041" lon="6.3896612"><ele>793.6666666666667</ele><time>2026-05-01T10:04:24.399Z</time></trkpt><trkpt lat="44.5356108" lon="6.3894072"><ele>794.0</ele><time>2026-05-01T10:04:25.399Z</time></trkpt><trkpt lat="44.5356083" lon="6.3891507"><ele>794.0</ele><time>2026-05-01T10:04:26.4Z</time></trkpt><trkpt lat="44.535607" lon="6.3888973"><ele>794.0</ele><time>2026-05-01T10:04:27.399Z</time></trkpt><trkpt lat="44.5356073" lon="6.3886475"><ele>794.0</ele><time>2026-05-01T10:04:28.399Z</time></trkpt><trkpt lat="44.5356069" lon="6.3884024"><ele>793.3333333333334</ele><time>2026-05-01T10:04:29.399Z</time></trkpt><trkpt lat="44.5356045" lon="6.3881624"><ele>792.6666666666667</ele><time>2026-05-01T10:04:30.399Z</time></trkpt><trkpt lat="44.5356004" lon="6.3879255"><ele>792.0</ele><time>2026-05-01T10:04:31.399Z</time></trkpt><trkpt lat="44.5355961" lon="6.3876914"><ele>791.6666666666667</ele><time>2026-05-01T10:04:32.399Z</time></trkpt><trkpt lat="44.5355927" lon="6.3874566"><ele>791.3333333333334</ele><time>2026-05-01T10:04:33.399Z</time></trkpt><trkpt lat="44.535591" lon="6.3872139"><ele>791.0</ele><time>2026-05-01T10:04:34.399Z</time></trkpt><trkpt lat="44.5355896" lon="6.386966"><ele>790.6666666666667</ele><time>2026-05-01T10:04:35.399Z</time></trkpt><trkpt lat="44.5355881" lon="6.3867122"><ele>790.3333333333333</ele><time>2026-05-01T10:04:36.399Z</time></trkpt><trkpt lat="44.5355872" lon="6.3864549"><ele>790.0</ele><time>2026-05-01T10:04:37.4Z</time></trkpt><trkpt lat="44.5355858" lon="6.3861919"><ele>791.6666666666666</ele><time>2026-05-01T10:04:38.399Z</time></trkpt><trkpt lat="44.5355851" lon="6.3859242"><ele>793.3333333333333</ele><time>2026-05-01T10:04:39.399Z</time></trkpt><trkpt lat="44.535585" lon="6.3856526"><ele>795.0</ele><time>2026-05-01T10:04:40.399Z</time></trkpt><trkpt lat="44.5355898" lon="6.3853767"><ele>795.0</ele><time>2026-05-01T10:04:41.4Z</time></trkpt><trkpt lat="44.535597" lon="6.3850989"><ele>795.0</ele><time>2026-05-01T10:04:42.399Z</time></trkpt><trkpt lat="44.5356054" lon="6.3848212"><ele>795.0</ele><time>2026-05-01T10:04:43.399Z</time></trkpt><trkpt lat="44.5356174" lon="6.3845467"><ele>795.0</ele><time>2026-05-01T10:04:44.399Z</time></trkpt><trkpt lat="44.5356328" lon="6.3842828"><ele>795.0</ele><time>2026-05-01T10:04:45.399Z</time></trkpt><trkpt lat="44.5356485" lon="6.3840301"><ele>795.0</ele><time>2026-05-01T10:04:46.401Z</time></trkpt><trkpt lat="44.5356651" lon="6.3837871"><ele>794.0</ele><time>2026-05-01T10:04:47.399Z</time></trkpt><trkpt lat="44.5356813" lon="6.3835536"><ele>793.0</ele><time>2026-05-01T10:04:48.399Z</time></trkpt><trkpt lat="44.5356956" lon="6.3833198"><ele>792.0</ele><time>2026-05-01T10:04:49.399Z</time></trkpt><trkpt lat="44.5357093" lon="6.3830816"><ele>792.3333333333333</ele><time>2026-05-01T10:04:50.399Z</time></trkpt><trkpt lat="44.5357221" lon="6.3828438"><ele>792.6666666666666</ele><time>2026-05-01T10:04:51.399Z</time></trkpt><trkpt lat="44.5357344" lon="6.3826035"><ele>793.0</ele><time>2026-05-01T10:04:52.399Z</time></trkpt><trkpt lat="44.5357474" lon="6.3823574"><ele>792.6666666666666</ele><time>2026-05-01T10:04:53.399Z</time></trkpt><trkpt lat="44.5357626" lon="6.3821017"><ele>792.3333333333333</ele><time>2026-05-01T10:04:54.399Z</time></trkpt><trkpt lat="44.5357787" lon="6.3818349"><ele>792.0</ele><time>2026-05-01T10:04:55.4Z</time></trkpt><trkpt lat="44.5357934" lon="6.3815577"><ele>790.6666666666667</ele><time>2026-05-01T10:04:56.399Z</time></trkpt><trkpt lat="44.5358096" lon="6.3812724"><ele>789.3333333333334</ele><time>2026-05-01T10:04:57.399Z</time></trkpt><trkpt lat="44.5358273" lon="6.3809821"><ele>788.0</ele><time>2026-05-01T10:04:58.399Z</time></trkpt><trkpt lat="44.5358404" lon="6.3806874"><ele>787.0</ele><time>2026-05-01T10:04:59.399Z</time></trkpt><trkpt lat="44.5358409" lon="6.3803979"><ele>786.0</ele><time>2026-05-01T10:05:00.399Z</time></trkpt><trkpt lat="44.5358265" lon="6.3801156"><ele>785.0</ele><time>2026-05-01T10:05:01.399Z</time></trkpt><trkpt lat="44.5357985" lon="6.379837"><ele>785.6666666666667</ele><time>2026-05-01T10:05:02.399Z</time></trkpt><trkpt lat="44.5357563" lon="6.3795602"><ele>786.3333333333333</ele><time>2026-05-01T10:05:03.4Z</time></trkpt><trkpt lat="44.5356994" lon="6.3792887"><ele>787.0</ele><time>2026-05-01T10:05:04.399Z</time></trkpt><trkpt lat="44.535631" lon="6.3790337"><ele>787.6666666666666</ele><time>2026-05-01T10:05:05.399Z</time></trkpt><trkpt lat="44.5355541" lon="6.3787963"><ele>788.3333333333333</ele><time>2026-05-01T10:05:06.4Z</time></trkpt><trkpt lat="44.5354718" lon="6.3785764"><ele>789.0</ele><time>2026-05-01T10:05:07.399Z</time></trkpt><trkpt lat="44.5353814" lon="6.3783714"><ele>790.0</ele><time>2026-05-01T10:05:08.399Z</time></trkpt><trkpt lat="44.535279" lon="6.3781739"><ele>791.0</ele><time>2026-05-01T10:05:09.399Z</time></trkpt><trkpt lat="44.5351679" lon="6.3779849"><ele>792.0</ele><time>2026-05-01T10:05:10.4Z</time></trkpt><trkpt lat="44.5350491" lon="6.3778084"><ele>792.0</ele><time>2026-05-01T10:05:11.399Z</time></trkpt><trkpt lat="44.5349197" lon="6.3776399"><ele>792.0</ele><time>2026-05-01T10:05:12.4Z</time></trkpt><trkpt lat="44.5347781" lon="6.3774787"><ele>792.0</ele><time>2026-05-01T10:05:13.4Z</time></trkpt><trkpt lat="44.5346235" lon="6.3773216"><ele>796.6666666666667</ele><time>2026-05-01T10:05:14.399Z</time></trkpt><trkpt lat="44.5344625" lon="6.3771636"><ele>801.3333333333334</ele><time>2026-05-01T10:05:15.399Z</time></trkpt><trkpt lat="44.5342992" lon="6.3770006"><ele>806.0</ele><time>2026-05-01T10:05:16.399Z</time></trkpt><trkpt lat="44.534136" lon="6.3768359"><ele>806.0</ele><time>2026-05-01T10:05:17.399Z</time></trkpt><trkpt lat="44.5339742" lon="6.3766726"><ele>806.0</ele><time>2026-05-01T10:05:18.399Z</time></trkpt><trkpt lat="44.5338228" lon="6.3765186"><ele>806.0</ele><time>2026-05-01T10:05:19.399Z</time></trkpt><trkpt lat="44.5336726" lon="6.3763689"><ele>805.0</ele><time>2026-05-01T10:05:20.399Z</time></trkpt><trkpt lat="44.5335233" lon="6.3762211"><ele>804.0</ele><time>2026-05-01T10:05:21.399Z</time></trkpt><trkpt lat="44.5333761" lon="6.3760763"><ele>803.0</ele><time>2026-05-01T10:05:22.399Z</time></trkpt><trkpt lat="44.5332312" lon="6.3759331"><ele>803.0</ele><time>2026-05-01T10:05:23.399Z</time></trkpt><trkpt lat="44.533088" lon="6.3757902"><ele>803.0</ele><time>2026-05-01T10:05:24.4Z</time></trkpt><trkpt lat="44.5329419" lon="6.375651"><ele>803.0</ele><time>2026-05-01T10:05:25.399Z</time></trkpt><trkpt lat="44.5327968" lon="6.3755125"><ele>799.3333333333334</ele><time>2026-05-01T10:05:26.399Z</time></trkpt><trkpt lat="44.532654" lon="6.3753726"><ele>795.6666666666667</ele><time>2026-05-01T10:05:27.399Z</time></trkpt><trkpt lat="44.5325126" lon="6.3752305"><ele>792.0</ele><time>2026-05-01T10:05:28.399Z</time></trkpt><trkpt lat="44.5323728" lon="6.3750872"><ele>792.0</ele><time>2026-05-01T10:05:29.399Z</time></trkpt><trkpt lat="44.5322332" lon="6.374946"><ele>792.0</ele><time>2026-05-01T10:05:30.4Z</time></trkpt><trkpt lat="44.5320919" lon="6.3748035"><ele>792.0</ele><time>2026-05-01T10:05:31.4Z</time></trkpt><trkpt lat="44.5319491" lon="6.3746567"><ele>794.3333333333333</ele><time>2026-05-01T10:05:32.399Z</time></trkpt><trkpt lat="44.5318048" lon="6.3744991"><ele>796.6666666666666</ele><time>2026-05-01T10:05:33.401Z</time></trkpt><trkpt lat="44.5316624" lon="6.3743249"><ele>799.0</ele><time>2026-05-01T10:05:34.399Z</time></trkpt><trkpt lat="44.5315231" lon="6.3741331"><ele>799.0</ele><time>2026-05-01T10:05:35.399Z</time></trkpt><trkpt lat="44.5313892" lon="6.3739243"><ele>799.0</ele><time>2026-05-01T10:05:36.399Z</time></trkpt><trkpt lat="44.5312628" lon="6.3737006"><ele>799.0</ele><time>2026-05-01T10:05:37.399Z</time></trkpt><trkpt lat="44.5311494" lon="6.3734692"><ele>798.6666666666666</ele><time>2026-05-01T10:05:38.399Z</time></trkpt><trkpt lat="44.5310484" lon="6.373232"><ele>798.3333333333333</ele><time>2026-05-01T10:05:39.399Z</time></trkpt><trkpt lat="44.5309627" lon="6.3729824"><ele>798.0</ele><time>2026-05-01T10:05:40.4Z</time></trkpt><trkpt lat="44.5308917" lon="6.3727278"><ele>798.0</ele><time>2026-05-01T10:05:41.4Z</time></trkpt><trkpt lat="44.5308313" lon="6.3724761"><ele>798.0</ele><time>2026-05-01T10:05:42.399Z</time></trkpt><trkpt lat="44.5307825" lon="6.3722217"><ele>798.0</ele><time>2026-05-01T10:05:43.399Z</time></trkpt><trkpt lat="44.5307424" lon="6.3719693"><ele>799.0</ele><time>2026-05-01T10:05:44.399Z</time></trkpt><trkpt lat="44.5307102" lon="6.3717322"><ele>800.0</ele><time>2026-05-01T10:05:45.399Z</time></trkpt><trkpt lat="44.5306771" lon="6.3715042"><ele>801.0</ele><time>2026-05-01T10:05:46.399Z</time></trkpt><trkpt lat="44.5306465" lon="6.3712834"><ele>803.0</ele><time>2026-05-01T10:05:47.399Z</time></trkpt><trkpt lat="44.5306199" lon="6.3710603"><ele>805.0</ele><time>2026-05-01T10:05:48.399Z</time></trkpt><trkpt lat="44.5305926" lon="6.3708353"><ele>807.0</ele><time>2026-05-01T10:05:49.399Z</time></trkpt><trkpt lat="44.5305637" lon="6.3706063"><ele>805.6666666666667</ele><time>2026-05-01T10:05:50.4Z</time></trkpt><trkpt lat="44.5305311" lon="6.3703752"><ele>804.3333333333334</ele><time>2026-05-01T10:05:51.399Z</time></trkpt><trkpt lat="44.5304974" lon="6.3701432"><ele>803.0</ele><time>2026-05-01T10:05:52.399Z</time></trkpt><trkpt lat="44.5304655" lon="6.3699067"><ele>793.6666666666667</ele><time>2026-05-01T10:05:53.399Z</time></trkpt><trkpt lat="44.5304362" lon="6.3696703"><ele>784.3333333333333</ele><time>2026-05-01T10:05:54.399Z</time></trkpt><trkpt lat="44.5304056" lon="6.3694265"><ele>775.0</ele><time>2026-05-01T10:05:55.399Z</time></trkpt><trkpt lat="44.5303724" lon="6.369179"><ele>773.6666666666666</ele><time>2026-05-01T10:05:56.4Z</time></trkpt><trkpt lat="44.5303396" lon="6.3689434"><ele>772.3333333333333</ele><time>2026-05-01T10:05:57.399Z</time></trkpt><trkpt lat="44.5303064" lon="6.3687158"><ele>771.0</ele><time>2026-05-01T10:05:58.4Z</time></trkpt><trkpt lat="44.5302739" lon="6.3684908"><ele>769.0</ele><time>2026-05-01T10:05:59.4Z</time></trkpt><trkpt lat="44.5302444" lon="6.3682683"><ele>767.0</ele><time>2026-05-01T10:06:00.399Z</time></trkpt><trkpt lat="44.5302148" lon="6.3680439"><ele>765.0</ele><time>2026-05-01T10:06:01.399Z</time></trkpt><trkpt lat="44.530184" lon="6.3678148"><ele>769.3333333333333</ele><time>2026-05-01T10:06:02.399Z</time></trkpt><trkpt lat="44.5301516" lon="6.3675758"><ele>773.6666666666666</ele><time>2026-05-01T10:06:03.399Z</time></trkpt><trkpt lat="44.5301187" lon="6.3673381"><ele>778.0</ele><time>2026-05-01T10:06:04.399Z</time></trkpt><trkpt lat="44.5300873" lon="6.3671055"><ele>783.6666666666666</ele><time>2026-05-01T10:06:05.399Z</time></trkpt><trkpt lat="44.5300574" lon="6.3668717"><ele>789.3333333333333</ele><time>2026-05-01T10:06:06.399Z</time></trkpt><trkpt lat="44.530028" lon="6.3666394"><ele>795.0</ele><time>2026-05-01T10:06:07.399Z</time></trkpt><trkpt lat="44.5299998" lon="6.3664114"><ele>798.6666666666667</ele><time>2026-05-01T10:06:08.399Z</time></trkpt><trkpt lat="44.529971" lon="6.3661881"><ele>802.3333333333334</ele><time>2026-05-01T10:06:09.399Z</time></trkpt><trkpt lat="44.5299414" lon="6.3659644"><ele>806.0</ele><time>2026-05-01T10:06:10.399Z</time></trkpt><trkpt lat="44.5299097" lon="6.365736"><ele>809.3333333333334</ele><time>2026-05-01T10:06:11.399Z</time></trkpt><trkpt lat="44.5298795" lon="6.3655063"><ele>812.6666666666667</ele><time>2026-05-01T10:06:12.399Z</time></trkpt><trkpt lat="44.5298486" lon="6.3652771"><ele>816.0</ele><time>2026-05-01T10:06:13.399Z</time></trkpt><trkpt lat="44.529818" lon="6.3650489"><ele>816.0</ele><time>2026-05-01T10:06:14.399Z</time></trkpt><trkpt lat="44.5297862" lon="6.3648155"><ele>816.0</ele><time>2026-05-01T10:06:15.399Z</time></trkpt><trkpt lat="44.5297518" lon="6.3645774"><ele>816.0</ele><time>2026-05-01T10:06:16.399Z</time></trkpt><trkpt lat="44.5297177" lon="6.364336"><ele>816.6666666666667</ele><time>2026-05-01T10:06:17.399Z</time></trkpt><trkpt lat="44.5296845" lon="6.3640926"><ele>817.3333333333334</ele><time>2026-05-01T10:06:18.399Z</time></trkpt><trkpt lat="44.5296501" lon="6.3638448"><ele>818.0</ele><time>2026-05-01T10:06:19.399Z</time></trkpt><trkpt lat="44.5296183" lon="6.3635949"><ele>815.3333333333334</ele><time>2026-05-01T10:06:20.399Z</time></trkpt><trkpt lat="44.529586" lon="6.3633459"><ele>812.6666666666667</ele><time>2026-05-01T10:06:21.4Z</time></trkpt><trkpt lat="44.529554" lon="6.363098"><ele>810.0</ele><time>2026-05-01T10:06:22.4Z</time></trkpt><trkpt lat="44.5295214" lon="6.3628543"><ele>806.0</ele><time>2026-05-01T10:06:23.399Z</time></trkpt><trkpt lat="44.5294858" lon="6.362611"><ele>802.0</ele><time>2026-05-01T10:06:24.4Z</time></trkpt><trkpt lat="44.5294496" lon="6.3623657"><ele>798.0</ele><time>2026-05-01T10:06:25.399Z</time></trkpt><trkpt lat="44.5294168" lon="6.3621128"><ele>798.0</ele><time>2026-05-01T10:06:26.4Z</time></trkpt><trkpt lat="44.5293838" lon="6.3618493"><ele>798.0</ele><time>2026-05-01T10:06:27.399Z</time></trkpt><trkpt lat="44.5293478" lon="6.3615769"><ele>798.0</ele><time>2026-05-01T10:06:28.399Z</time></trkpt><trkpt lat="44.529305" lon="6.3612984"><ele>798.3333333333333</ele><time>2026-05-01T10:06:29.4Z</time></trkpt><trkpt lat="44.5292496" lon="6.3610201"><ele>798.6666666666666</ele><time>2026-05-01T10:06:30.399Z</time></trkpt><trkpt lat="44.5291818" lon="6.3607558"><ele>799.0</ele><time>2026-05-01T10:06:31.4Z</time></trkpt><trkpt lat="44.5291041" lon="6.3605025"><ele>799.0</ele><time>2026-05-01T10:06:32.4Z</time></trkpt><trkpt lat="44.5290136" lon="6.3602515"><ele>799.0</ele><time>2026-05-01T10:06:33.399Z</time></trkpt><trkpt lat="44.5289102" lon="6.360011"><ele>799.0</ele><time>2026-05-01T10:06:34.4Z</time></trkpt><trkpt lat="44.5287935" lon="6.3597836"><ele>799.6666666666666</ele><time>2026-05-01T10:06:35.399Z</time></trkpt><trkpt lat="44.5286648" lon="6.3595703"><ele>800.3333333333333</ele><time>2026-05-01T10:06:36.399Z</time></trkpt><trkpt lat="44.5285257" lon="6.3593743"><ele>801.0</ele><time>2026-05-01T10:06:37.399Z</time></trkpt><trkpt lat="44.5283788" lon="6.3591951"><ele>801.0</ele><time>2026-05-01T10:06:38.4Z</time></trkpt><trkpt lat="44.5282228" lon="6.3590307"><ele>801.0</ele><time>2026-05-01T10:06:39.399Z</time></trkpt><trkpt lat="44.5280676" lon="6.3588736"><ele>801.0</ele><time>2026-05-01T10:06:40.401Z</time></trkpt><trkpt lat="44.527915" lon="6.3587233"><ele>802.3333333333333</ele><time>2026-05-01T10:06:41.399Z</time></trkpt><trkpt lat="44.527762" lon="6.3585689"><ele>803.6666666666666</ele><time>2026-05-01T10:06:42.399Z</time></trkpt><trkpt lat="44.5276084" lon="6.3584136"><ele>805.0</ele><time>2026-05-01T10:06:43.4Z</time></trkpt><trkpt lat="44.5274551" lon="6.3582532"><ele>805.0</ele><time>2026-05-01T10:06:44.399Z</time></trkpt><trkpt lat="44.5273068" lon="6.3580835"><ele>805.0</ele><time>2026-05-01T10:06:45.399Z</time></trkpt><trkpt lat="44.5271661" lon="6.3579066"><ele>805.0</ele><time>2026-05-01T10:06:46.399Z</time></trkpt><trkpt lat="44.5270349" lon="6.357726"><ele>805.6666666666666</ele><time>2026-05-01T10:06:47.399Z</time></trkpt><trkpt lat="44.5269129" lon="6.3575404"><ele>806.3333333333333</ele><time>2026-05-01T10:06:48.4Z</time></trkpt><trkpt lat="44.5267962" lon="6.3573493"><ele>807.0</ele><time>2026-05-01T10:06:49.399Z</time></trkpt><trkpt lat="44.5266862" lon="6.3571486"><ele>807.0</ele><time>2026-05-01T10:06:50.399Z</time></trkpt><trkpt lat="44.5265848" lon="6.3569348"><ele>807.0</ele><time>2026-05-01T10:06:51.4Z</time></trkpt><trkpt lat="44.5264887" lon="6.3567136"><ele>807.0</ele><time>2026-05-01T10:06:52.399Z</time></trkpt><trkpt lat="44.5263994" lon="6.3564836"><ele>804.6666666666667</ele><time>2026-05-01T10:06:53.399Z</time></trkpt><trkpt lat="44.5263175" lon="6.3562474"><ele>802.3333333333334</ele><time>2026-05-01T10:06:54.399Z</time></trkpt><trkpt lat="44.5262446" lon="6.3560045"><ele>800.0</ele><time>2026-05-01T10:06:55.399Z</time></trkpt><trkpt lat="44.5261818" lon="6.355755"><ele>801.6666666666667</ele><time>2026-05-01T10:06:56.399Z</time></trkpt><trkpt lat="44.5261237" lon="6.3555052"><ele>803.3333333333333</ele><time>2026-05-01T10:06:57.399Z</time></trkpt><trkpt lat="44.5260729" lon="6.3552591"><ele>805.0</ele><time>2026-05-01T10:06:58.399Z</time></trkpt><trkpt lat="44.5260276" lon="6.3550173"><ele>805.0</ele><time>2026-05-01T10:06:59.4Z</time></trkpt><trkpt lat="44.5259848" lon="6.3547847"><ele>805.0</ele><time>2026-05-01T10:07:00.399Z</time></trkpt><trkpt lat="44.5259443" lon="6.354564"><ele>805.0</ele><time>2026-05-01T10:07:01.399Z</time></trkpt><trkpt lat="44.5259037" lon="6.3543481"><ele>806.0</ele><time>2026-05-01T10:07:02.4Z</time></trkpt><trkpt lat="44.5258631" lon="6.3541315"><ele>807.0</ele><time>2026-05-01T10:07:03.399Z</time></trkpt><trkpt lat="44.5258218" lon="6.3539066"><ele>808.0</ele><time>2026-05-01T10:07:04.4Z</time></trkpt><trkpt lat="44.5257796" lon="6.3536729"><ele>808.6666666666666</ele><time>2026-05-01T10:07:05.399Z</time></trkpt><trkpt lat="44.5257345" lon="6.3534298"><ele>809.3333333333333</ele><time>2026-05-01T10:07:06.399Z</time></trkpt><trkpt lat="44.5256875" lon="6.3531792"><ele>810.0</ele><time>2026-05-01T10:07:07.399Z</time></trkpt><trkpt lat="44.5256404" lon="6.352921"><ele>812.6666666666667</ele><time>2026-05-01T10:07:08.399Z</time></trkpt><trkpt lat="44.5255937" lon="6.3526566"><ele>815.3333333333334</ele><time>2026-05-01T10:07:09.4Z</time></trkpt><trkpt lat="44.5255465" lon="6.3523918"><ele>818.0</ele><time>2026-05-01T10:07:10.399Z</time></trkpt><trkpt lat="44.5254975" lon="6.3521259"><ele>817.3333333333334</ele><time>2026-05-01T10:07:11.399Z</time></trkpt><trkpt lat="44.5254501" lon="6.3518629"><ele>816.6666666666667</ele><time>2026-05-01T10:07:12.399Z</time></trkpt><trkpt lat="44.5254043" lon="6.3516038"><ele>816.0</ele><time>2026-05-01T10:07:13.399Z</time></trkpt><trkpt lat="44.5253599" lon="6.3513526"><ele>816.0</ele><time>2026-05-01T10:07:14.399Z</time></trkpt><trkpt lat="44.525317" lon="6.3511052"><ele>816.0</ele><time>2026-05-01T10:07:15.4Z</time></trkpt><trkpt lat="44.525273" lon="6.3508572"><ele>816.0</ele><time>2026-05-01T10:07:16.399Z</time></trkpt><trkpt lat="44.5252265" lon="6.3506077"><ele>816.0</ele><time>2026-05-01T10:07:17.4Z</time></trkpt><trkpt lat="44.5251782" lon="6.3503638"><ele>816.0</ele><time>2026-05-01T10:07:18.399Z</time></trkpt><trkpt lat="44.5251299" lon="6.3501262"><ele>816.0</ele><time>2026-05-01T10:07:19.399Z</time></trkpt><trkpt lat="44.5250782" lon="6.3498935"><ele>816.6666666666667</ele><time>2026-05-01T10:07:20.399Z</time></trkpt><trkpt lat="44.5250214" lon="6.3496622"><ele>817.3333333333334</ele><time>2026-05-01T10:07:21.4Z</time></trkpt><trkpt lat="44.5249555" lon="6.3494293"><ele>818.0</ele><time>2026-05-01T10:07:22.399Z</time></trkpt><trkpt lat="44.5248845" lon="6.3491903"><ele>818.0</ele><time>2026-05-01T10:07:23.399Z</time></trkpt><trkpt lat="44.5248037" lon="6.348943"><ele>818.0</ele><time>2026-05-01T10:07:24.399Z</time></trkpt><trkpt lat="44.5247198" lon="6.3486931"><ele>818.0</ele><time>2026-05-01T10:07:25.399Z</time></trkpt><trkpt lat="44.5246336" lon="6.3484394"><ele>818.6666666666667</ele><time>2026-05-01T10:07:26.399Z</time></trkpt><trkpt lat="44.5245469" lon="6.3481888"><ele>819.3333333333333</ele><time>2026-05-01T10:07:27.399Z</time></trkpt><trkpt lat="44.5244603" lon="6.3479452"><ele>820.0</ele><time>2026-05-01T10:07:28.399Z</time></trkpt><trkpt lat="44.5243757" lon="6.3477086"><ele>821.0</ele><time>2026-05-01T10:07:29.399Z</time></trkpt><trkpt lat="44.5242902" lon="6.3474737"><ele>822.0</ele><time>2026-05-01T10:07:30.399Z</time></trkpt><trkpt lat="44.524207" lon="6.3472378"><ele>823.0</ele><time>2026-05-01T10:07:31.399Z</time></trkpt><trkpt lat="44.5241276" lon="6.3469964"><ele>823.0</ele><time>2026-05-01T10:07:32.399Z</time></trkpt><trkpt lat="44.5240496" lon="6.3467446"><ele>823.0</ele><time>2026-05-01T10:07:33.399Z</time></trkpt><trkpt lat="44.5239732" lon="6.3464832"><ele>823.0</ele><time>2026-05-01T10:07:34.399Z</time></trkpt><trkpt lat="44.5239029" lon="6.3462119"><ele>823.6666666666666</ele><time>2026-05-01T10:07:35.399Z</time></trkpt><trkpt lat="44.5238418" lon="6.3459362"><ele>824.3333333333333</ele><time>2026-05-01T10:07:36.399Z</time></trkpt><trkpt lat="44.5237944" lon="6.3456659"><ele>825.0</ele><time>2026-05-01T10:07:37.399Z</time></trkpt><trkpt lat="44.523736" lon="6.3451507"><ele>823.3333333333333</ele><time>2026-05-01T10:07:39.399Z</time></trkpt><trkpt lat="44.5237193" lon="6.3448974"><ele>821.6666666666666</ele><time>2026-05-01T10:07:40.401Z</time></trkpt><trkpt lat="44.5237131" lon="6.3446407"><ele>820.0</ele><time>2026-05-01T10:07:41.399Z</time></trkpt><trkpt lat="44.5237163" lon="6.3443733"><ele>820.0</ele><time>2026-05-01T10:07:42.399Z</time></trkpt><trkpt lat="44.5237292" lon="6.3441013"><ele>820.0</ele><time>2026-05-01T10:07:43.4Z</time></trkpt><trkpt lat="44.5237568" lon="6.3438335"><ele>820.0</ele><time>2026-05-01T10:07:44.399Z</time></trkpt><trkpt lat="44.5237915" lon="6.3435736"><ele>822.3333333333333</ele><time>2026-05-01T10:07:45.399Z</time></trkpt><trkpt lat="44.5238348" lon="6.3433101"><ele>824.6666666666667</ele><time>2026-05-01T10:07:46.399Z</time></trkpt><trkpt lat="44.5238903" lon="6.3430424"><ele>827.0</ele><time>2026-05-01T10:07:47.4Z</time></trkpt><trkpt lat="44.5239546" lon="6.3427745"><ele>827.0</ele><time>2026-05-01T10:07:48.399Z</time></trkpt><trkpt lat="44.5240282" lon="6.3425091"><ele>827.0</ele><time>2026-05-01T10:07:49.399Z</time></trkpt><trkpt lat="44.5241131" lon="6.3422536"><ele>827.0</ele><time>2026-05-01T10:07:50.399Z</time></trkpt><trkpt lat="44.524205" lon="6.3420184"><ele>824.0</ele><time>2026-05-01T10:07:51.399Z</time></trkpt><trkpt lat="44.5243023" lon="6.3417987"><ele>821.0</ele><time>2026-05-01T10:07:52.399Z</time></trkpt><trkpt lat="44.5243993" lon="6.3415893"><ele>818.0</ele><time>2026-05-01T10:07:53.399Z</time></trkpt><trkpt lat="44.5244927" lon="6.341384"><ele>822.6666666666667</ele><time>2026-05-01T10:07:54.399Z</time></trkpt><trkpt lat="44.5245889" lon="6.3411747"><ele>827.3333333333333</ele><time>2026-05-01T10:07:55.399Z</time></trkpt><trkpt lat="44.5246874" lon="6.3409607"><ele>832.0</ele><time>2026-05-01T10:07:56.4Z</time></trkpt><trkpt lat="44.52479" lon="6.3407388"><ele>827.0</ele><time>2026-05-01T10:07:57.399Z</time></trkpt><trkpt lat="44.5248971" lon="6.3405114"><ele>822.0</ele><time>2026-05-01T10:07:58.399Z</time></trkpt><trkpt lat="44.5250084" lon="6.3402789"><ele>817.0</ele><time>2026-05-01T10:07:59.399Z</time></trkpt><trkpt lat="44.5251214" lon="6.3400419"><ele>817.0</ele><time>2026-05-01T10:08:00.399Z</time></trkpt><trkpt lat="44.5252358" lon="6.3398051"><ele>817.0</ele><time>2026-05-01T10:08:01.399Z</time></trkpt><trkpt lat="44.5253505" lon="6.3395668"><ele>817.0</ele><time>2026-05-01T10:08:02.399Z</time></trkpt><trkpt lat="44.5254587" lon="6.3393348"><ele>818.3333333333333</ele><time>2026-05-01T10:08:03.399Z</time></trkpt><trkpt lat="44.5255642" lon="6.3391113"><ele>819.6666666666667</ele><time>2026-05-01T10:08:04.399Z</time></trkpt><trkpt lat="44.5256708" lon="6.3388868"><ele>821.0</ele><time>2026-05-01T10:08:05.399Z</time></trkpt><trkpt lat="44.5257802" lon="6.3386587"><ele>821.0</ele><time>2026-05-01T10:08:06.399Z</time></trkpt><trkpt lat="44.5258903" lon="6.3384283"><ele>821.0</ele><time>2026-05-01T10:08:07.399Z</time></trkpt><trkpt lat="44.526003" lon="6.338195"><ele>821.0</ele><time>2026-05-01T10:08:08.399Z</time></trkpt><trkpt lat="44.5261143" lon="6.3379595"><ele>821.6666666666667</ele><time>2026-05-01T10:08:09.399Z</time></trkpt><trkpt lat="44.5262231" lon="6.3377229"><ele>822.3333333333333</ele><time>2026-05-01T10:08:10.399Z</time></trkpt><trkpt lat="44.5263323" lon="6.3374901"><ele>823.0</ele><time>2026-05-01T10:08:11.399Z</time></trkpt><trkpt lat="44.5264389" lon="6.3372648"><ele>820.3333333333333</ele><time>2026-05-01T10:08:12.399Z</time></trkpt><trkpt lat="44.5265446" lon="6.33705"><ele>817.6666666666667</ele><time>2026-05-01T10:08:13.4Z</time></trkpt><trkpt lat="44.5266495" lon="6.3368392"><ele>815.0</ele><time>2026-05-01T10:08:14.399Z</time></trkpt><trkpt lat="44.5267594" lon="6.3366273"><ele>815.0</ele><time>2026-05-01T10:08:15.399Z</time></trkpt><trkpt lat="44.5268779" lon="6.3364179"><ele>815.0</ele><time>2026-05-01T10:08:16.399Z</time></trkpt><trkpt lat="44.5270061" lon="6.3362134"><ele>815.0</ele><time>2026-05-01T10:08:17.399Z</time></trkpt><trkpt lat="44.5271473" lon="6.336019"><ele>816.3333333333334</ele><time>2026-05-01T10:08:18.4Z</time></trkpt><trkpt lat="44.5272981" lon="6.3358342"><ele>817.6666666666667</ele><time>2026-05-01T10:08:19.399Z</time></trkpt><trkpt lat="44.5274512" lon="6.335659"><ele>819.0</ele><time>2026-05-01T10:08:20.399Z</time></trkpt><trkpt lat="44.5276022" lon="6.3354978"><ele>817.3333333333333</ele><time>2026-05-01T10:08:21.399Z</time></trkpt><trkpt lat="44.5277526" lon="6.3353494"><ele>815.6666666666666</ele><time>2026-05-01T10:08:22.399Z</time></trkpt><trkpt lat="44.5279015" lon="6.3352127"><ele>814.0</ele><time>2026-05-01T10:08:23.4Z</time></trkpt><trkpt lat="44.5280471" lon="6.3350858"><ele>814.0</ele><time>2026-05-01T10:08:24.399Z</time></trkpt><trkpt lat="44.528194" lon="6.3349593"><ele>814.0</ele><time>2026-05-01T10:08:25.399Z</time></trkpt><trkpt lat="44.5283435" lon="6.3348307"><ele>814.0</ele><time>2026-05-01T10:08:26.399Z</time></trkpt><trkpt lat="44.5284979" lon="6.3346992"><ele>813.3333333333333</ele><time>2026-05-01T10:08:27.399Z</time></trkpt><trkpt lat="44.5286568" lon="6.3345627"><ele>812.6666666666667</ele><time>2026-05-01T10:08:28.399Z</time></trkpt><trkpt lat="44.5288208" lon="6.3344181"><ele>812.0</ele><time>2026-05-01T10:08:29.399Z</time></trkpt><trkpt lat="44.5289859" lon="6.3342723"><ele>812.0</ele><time>2026-05-01T10:08:30.399Z</time></trkpt><trkpt lat="44.5291498" lon="6.3341193"><ele>812.0</ele><time>2026-05-01T10:08:31.399Z</time></trkpt><trkpt lat="44.5293113" lon="6.3339593"><ele>812.0</ele><time>2026-05-01T10:08:32.399Z</time></trkpt><trkpt lat="44.5294673" lon="6.3337916"><ele>814.6666666666667</ele><time>2026-05-01T10:08:33.399Z</time></trkpt><trkpt lat="44.5296094" lon="6.3336078"><ele>817.3333333333333</ele><time>2026-05-01T10:08:34.399Z</time></trkpt><trkpt lat="44.5297427" lon="6.333405"><ele>820.0</ele><time>2026-05-01T10:08:35.399Z</time></trkpt><trkpt lat="44.5298686" lon="6.3331923"><ele>819.6666666666666</ele><time>2026-05-01T10:08:36.4Z</time></trkpt><trkpt lat="44.5299881" lon="6.332971"><ele>819.3333333333333</ele><time>2026-05-01T10:08:37.399Z</time></trkpt><trkpt lat="44.5301" lon="6.3327384"><ele>819.0</ele><time>2026-05-01T10:08:38.4Z</time></trkpt><trkpt lat="44.5302029" lon="6.3325077"><ele>819.0</ele><time>2026-05-01T10:08:39.399Z</time></trkpt><trkpt lat="44.5302946" lon="6.3322733"><ele>819.0</ele><time>2026-05-01T10:08:40.4Z</time></trkpt><trkpt lat="44.5303779" lon="6.3320337"><ele>819.0</ele><time>2026-05-01T10:08:41.399Z</time></trkpt><trkpt lat="44.5304558" lon="6.3317923"><ele>819.3333333333333</ele><time>2026-05-01T10:08:42.399Z</time></trkpt><trkpt lat="44.5305231" lon="6.331558"><ele>819.6666666666666</ele><time>2026-05-01T10:08:43.399Z</time></trkpt><trkpt lat="44.5305888" lon="6.331331"><ele>820.0</ele><time>2026-05-01T10:08:44.399Z</time></trkpt><trkpt lat="44.5306494" lon="6.3311029"><ele>820.0</ele><time>2026-05-01T10:08:45.4Z</time></trkpt><trkpt lat="44.5307074" lon="6.3308776"><ele>820.0</ele><time>2026-05-01T10:08:46.4Z</time></trkpt><trkpt lat="44.5307637" lon="6.3306564"><ele>820.0</ele><time>2026-05-01T10:08:47.399Z</time></trkpt><trkpt lat="44.5308208" lon="6.3304363"><ele>818.6666666666666</ele><time>2026-05-01T10:08:48.399Z</time></trkpt><trkpt lat="44.5308779" lon="6.3302256"><ele>817.3333333333333</ele><time>2026-05-01T10:08:49.399Z</time></trkpt><trkpt lat="44.5309311" lon="6.3300239"><ele>816.0</ele><time>2026-05-01T10:08:50.399Z</time></trkpt><trkpt lat="44.5309783" lon="6.3298384"><ele>814.0</ele><time>2026-05-01T10:08:51.399Z</time></trkpt><trkpt lat="44.5310225" lon="6.329664"><ele>812.0</ele><time>2026-05-01T10:08:52.399Z</time></trkpt><trkpt lat="44.5310742" lon="6.3294867"><ele>810.0</ele><time>2026-05-01T10:08:53.399Z</time></trkpt><trkpt lat="44.5311292" lon="6.329299"><ele>808.0</ele><time>2026-05-01T10:08:54.399Z</time></trkpt><trkpt lat="44.5311869" lon="6.3290969"><ele>811.6666666666666</ele><time>2026-05-01T10:08:55.399Z</time></trkpt><trkpt lat="44.5312448" lon="6.3288851"><ele>815.3333333333333</ele><time>2026-05-01T10:08:56.399Z</time></trkpt><trkpt lat="44.5313014" lon="6.3286696"><ele>819.0</ele><time>2026-05-01T10:08:57.4Z</time></trkpt><trkpt lat="44.5313581" lon="6.3284477"><ele>819.0</ele><time>2026-05-01T10:08:58.4Z</time></trkpt><trkpt lat="44.5314176" lon="6.3282261"><ele>819.0</ele><time>2026-05-01T10:08:59.399Z</time></trkpt><trkpt lat="44.5314772" lon="6.328005"><ele>819.0</ele><time>2026-05-01T10:09:00.4Z</time></trkpt><trkpt lat="44.53154" lon="6.3277799"><ele>819.3333333333333</ele><time>2026-05-01T10:09:01.399Z</time></trkpt><trkpt lat="44.5316009" lon="6.3275542"><ele>819.6666666666666</ele><time>2026-05-01T10:09:02.399Z</time></trkpt><trkpt lat="44.5316612" lon="6.3273278"><ele>820.0</ele><time>2026-05-01T10:09:03.399Z</time></trkpt><trkpt lat="44.531714" lon="6.3270935"><ele>820.3333333333333</ele><time>2026-05-01T10:09:04.4Z</time></trkpt><trkpt lat="44.5317553" lon="6.3268485"><ele>820.6666666666667</ele><time>2026-05-01T10:09:05.399Z</time></trkpt><trkpt lat="44.5317866" lon="6.3265963"><ele>821.0</ele><time>2026-05-01T10:09:06.399Z</time></trkpt><trkpt lat="44.5318078" lon="6.3263427"><ele>821.0</ele><time>2026-05-01T10:09:07.399Z</time></trkpt><trkpt lat="44.5318165" lon="6.3260944"><ele>821.0</ele><time>2026-05-01T10:09:08.399Z</time></trkpt><trkpt lat="44.5318139" lon="6.325855"><ele>821.0</ele><time>2026-05-01T10:09:09.4Z</time></trkpt><trkpt lat="44.5318041" lon="6.3256205"><ele>820.3333333333334</ele><time>2026-05-01T10:09:10.399Z</time></trkpt><trkpt lat="44.531785" lon="6.3253889"><ele>819.6666666666667</ele><time>2026-05-01T10:09:11.4Z</time></trkpt><trkpt lat="44.5317572" lon="6.3251619"><ele>819.0</ele><time>2026-05-01T10:09:12.399Z</time></trkpt><trkpt lat="44.5317212" lon="6.3249396"><ele>818.0</ele><time>2026-05-01T10:09:13.4Z</time></trkpt><trkpt lat="44.5316749" lon="6.3247252"><ele>817.0</ele><time>2026-05-01T10:09:14.4Z</time></trkpt><trkpt lat="44.5316194" lon="6.3245208"><ele>816.0</ele><time>2026-05-01T10:09:15.399Z</time></trkpt><trkpt lat="44.5315548" lon="6.3243234"><ele>816.0</ele><time>2026-05-01T10:09:16.399Z</time></trkpt><trkpt lat="44.5314829" lon="6.3241321"><ele>816.0</ele><time>2026-05-01T10:09:17.4Z</time></trkpt><trkpt lat="44.5314021" lon="6.3239538"><ele>816.0</ele><time>2026-05-01T10:09:18.4Z</time></trkpt><trkpt lat="44.5313122" lon="6.3237747"><ele>818.0</ele><time>2026-05-01T10:09:19.399Z</time></trkpt><trkpt lat="44.5312136" lon="6.3235855"><ele>820.0</ele><time>2026-05-01T10:09:20.399Z</time></trkpt><trkpt lat="44.5311052" lon="6.3233866"><ele>822.0</ele><time>2026-05-01T10:09:21.399Z</time></trkpt><trkpt lat="44.5309886" lon="6.3231767"><ele>824.3333333333333</ele><time>2026-05-01T10:09:22.399Z</time></trkpt><trkpt lat="44.530867" lon="6.3229563"><ele>826.6666666666666</ele><time>2026-05-01T10:09:23.399Z</time></trkpt><trkpt lat="44.5307403" lon="6.3227292"><ele>829.0</ele><time>2026-05-01T10:09:24.399Z</time></trkpt><trkpt lat="44.5306092" lon="6.3224993"><ele>829.0</ele><time>2026-05-01T10:09:25.399Z</time></trkpt><trkpt lat="44.5304731" lon="6.3222683"><ele>829.0</ele><time>2026-05-01T10:09:26.399Z</time></trkpt><trkpt lat="44.5303365" lon="6.322033"><ele>829.0</ele><time>2026-05-01T10:09:27.399Z</time></trkpt><trkpt lat="44.5301987" lon="6.3217959"><ele>836.5</ele><time>2026-05-01T10:09:28.4Z</time></trkpt><trkpt lat="44.5300582" lon="6.3215509"><ele>844.0</ele><time>2026-05-01T10:09:29.399Z</time></trkpt><trkpt lat="44.5299163" lon="6.3212918"><ele>851.5</ele><time>2026-05-01T10:09:30.399Z</time></trkpt><trkpt lat="44.5297793" lon="6.321013"><ele>859.0</ele><time>2026-05-01T10:09:31.399Z</time></trkpt><trkpt lat="44.5296559" lon="6.3207086"><ele>860.0</ele><time>2026-05-01T10:09:32.399Z</time></trkpt><trkpt lat="44.5295433" lon="6.320382"><ele>861.0</ele><time>2026-05-01T10:09:33.399Z</time></trkpt><trkpt lat="44.5294534" lon="6.3200579"><ele>859.5</ele><time>2026-05-01T10:09:34.399Z</time></trkpt><trkpt lat="44.5293843" lon="6.3197288"><ele>858.0</ele><time>2026-05-01T10:09:35.399Z</time></trkpt><trkpt lat="44.5293426" lon="6.3194008"><ele>858.0</ele><time>2026-05-01T10:09:36.399Z</time></trkpt><trkpt lat="44.5293235" lon="6.3190737"><ele>858.0</ele><time>2026-05-01T10:09:37.399Z</time></trkpt><trkpt lat="44.5293234" lon="6.3187447"><ele>856.0</ele><time>2026-05-01T10:09:38.399Z</time></trkpt><trkpt lat="44.5293468" lon="6.3184159"><ele>854.0</ele><time>2026-05-01T10:09:39.4Z</time></trkpt><trkpt lat="44.5293942" lon="6.3180909"><ele>853.0</ele><time>2026-05-01T10:09:40.399Z</time></trkpt><trkpt lat="44.5294573" lon="6.3177747"><ele>852.0</ele><time>2026-05-01T10:09:41.4Z</time></trkpt><trkpt lat="44.5295396" lon="6.3174711"><ele>854.0</ele><time>2026-05-01T10:09:42.399Z</time></trkpt><trkpt lat="44.5296367" lon="6.3171746"><ele>856.0</ele><time>2026-05-01T10:09:43.399Z</time></trkpt><trkpt lat="44.5297388" lon="6.3168767"><ele>856.0</ele><time>2026-05-01T10:09:44.399Z</time></trkpt><trkpt lat="44.529843" lon="6.3165685"><ele>856.0</ele><time>2026-05-01T10:09:45.399Z</time></trkpt><trkpt lat="44.5299462" lon="6.3162581"><ele>856.5</ele><time>2026-05-01T10:09:46.399Z</time></trkpt><trkpt lat="44.5300504" lon="6.3159432"><ele>857.0</ele><time>2026-05-01T10:09:47.399Z</time></trkpt><trkpt lat="44.5301522" lon="6.3156331"><ele>858.0</ele><time>2026-05-01T10:09:48.399Z</time></trkpt><trkpt lat="44.5302498" lon="6.3153386"><ele>859.0</ele><time>2026-05-01T10:09:49.4Z</time></trkpt><trkpt lat="44.5303439" lon="6.3150536"><ele>861.0</ele><time>2026-05-01T10:09:50.399Z</time></trkpt><trkpt lat="44.5304404" lon="6.3147675"><ele>863.0</ele><time>2026-05-01T10:09:51.399Z</time></trkpt><trkpt lat="44.5305398" lon="6.3144814"><ele>864.5</ele><time>2026-05-01T10:09:52.4Z</time></trkpt><trkpt lat="44.5306392" lon="6.3141946"><ele>866.0</ele><time>2026-05-01T10:09:53.399Z</time></trkpt><trkpt lat="44.5307355" lon="6.3139099"><ele>865.6666666666667</ele><time>2026-05-01T10:09:54.399Z</time></trkpt><trkpt lat="44.5308249" lon="6.3136353"><ele>865.3333333333333</ele><time>2026-05-01T10:09:55.399Z</time></trkpt><trkpt lat="44.5309089" lon="6.3133685"><ele>865.0</ele><time>2026-05-01T10:09:56.399Z</time></trkpt><trkpt lat="44.5309914" lon="6.3131105"><ele>865.0</ele><time>2026-05-01T10:09:57.401Z</time></trkpt><trkpt lat="44.5310746" lon="6.312861"><ele>865.0</ele><time>2026-05-01T10:09:58.4Z</time></trkpt><trkpt lat="44.5311551" lon="6.3126142"><ele>865.0</ele><time>2026-05-01T10:09:59.4Z</time></trkpt><trkpt lat="44.5312367" lon="6.3123672"><ele>863.3333333333333</ele><time>2026-05-01T10:10:00.399Z</time></trkpt><trkpt lat="44.5313206" lon="6.3121223"><ele>861.6666666666667</ele><time>2026-05-01T10:10:01.399Z</time></trkpt><trkpt lat="44.5314049" lon="6.3118743"><ele>860.0</ele><time>2026-05-01T10:10:02.4Z</time></trkpt><trkpt lat="44.5314888" lon="6.3116243"><ele>859.6666666666667</ele><time>2026-05-01T10:10:03.399Z</time></trkpt><trkpt lat="44.5315704" lon="6.3113768"><ele>859.3333333333333</ele><time>2026-05-01T10:10:04.399Z</time></trkpt><trkpt lat="44.5316506" lon="6.3111357"><ele>859.0</ele><time>2026-05-01T10:10:05.399Z</time></trkpt><trkpt lat="44.5317331" lon="6.310889"><ele>859.0</ele><time>2026-05-01T10:10:06.399Z</time></trkpt><trkpt lat="44.5318195" lon="6.3106298"><ele>859.0</ele><time>2026-05-01T10:10:07.399Z</time></trkpt><trkpt lat="44.5319082" lon="6.310357"><ele>859.0</ele><time>2026-05-01T10:10:08.399Z</time></trkpt><trkpt lat="44.5320017" lon="6.3100702"><ele>860.0</ele><time>2026-05-01T10:10:09.399Z</time></trkpt><trkpt lat="44.5320981" lon="6.3097809"><ele>861.0</ele><time>2026-05-01T10:10:10.399Z</time></trkpt><trkpt lat="44.532197" lon="6.3094956"><ele>861.0</ele><time>2026-05-01T10:10:11.399Z</time></trkpt><trkpt lat="44.5322947" lon="6.309211"><ele>861.0</ele><time>2026-05-01T10:10:12.399Z</time></trkpt><trkpt lat="44.5323922" lon="6.3089154"><ele>861.5</ele><time>2026-05-01T10:10:13.399Z</time></trkpt><trkpt lat="44.532501" lon="6.3085983"><ele>862.0</ele><time>2026-05-01T10:10:14.399Z</time></trkpt><trkpt lat="44.5326171" lon="6.3082758"><ele>864.5</ele><time>2026-05-01T10:10:15.399Z</time></trkpt><trkpt lat="44.5327311" lon="6.3079507"><ele>867.0</ele><time>2026-05-01T10:10:16.399Z</time></trkpt><trkpt lat="44.5328425" lon="6.3076275"><ele>867.5</ele><time>2026-05-01T10:10:17.4Z</time></trkpt><trkpt lat="44.5329474" lon="6.3073192"><ele>868.0</ele><time>2026-05-01T10:10:18.399Z</time></trkpt><trkpt lat="44.533046" lon="6.3070252"><ele>868.0</ele><time>2026-05-01T10:10:19.399Z</time></trkpt><trkpt lat="44.5331393" lon="6.306742"><ele>868.0</ele><time>2026-05-01T10:10:20.399Z</time></trkpt><trkpt lat="44.5332321" lon="6.3064695"><ele>868.0</ele><time>2026-05-01T10:10:21.399Z</time></trkpt><trkpt lat="44.5333202" lon="6.3062079"><ele>869.0</ele><time>2026-05-01T10:10:22.399Z</time></trkpt><trkpt lat="44.5334029" lon="6.3059589"><ele>870.0</ele><time>2026-05-01T10:10:23.398Z</time></trkpt><trkpt lat="44.533482" lon="6.3057163"><ele>871.0</ele><time>2026-05-01T10:10:24.399Z</time></trkpt><trkpt lat="44.5335586" lon="6.3054797"><ele>870.6666666666666</ele><time>2026-05-01T10:10:25.398Z</time></trkpt><trkpt lat="44.5336369" lon="6.3052433"><ele>870.3333333333333</ele><time>2026-05-01T10:10:26.399Z</time></trkpt><trkpt lat="44.5337167" lon="6.3050043"><ele>870.0</ele><time>2026-05-01T10:10:27.399Z</time></trkpt><trkpt lat="44.5337983" lon="6.3047666"><ele>870.0</ele><time>2026-05-01T10:10:28.398Z</time></trkpt><trkpt lat="44.5338814" lon="6.3045284"><ele>870.0</ele><time>2026-05-01T10:10:29.398Z</time></trkpt><trkpt lat="44.5339651" lon="6.3042812"><ele>870.0</ele><time>2026-05-01T10:10:30.398Z</time></trkpt><trkpt lat="44.5340514" lon="6.304028"><ele>870.3333333333333</ele><time>2026-05-01T10:10:31.399Z</time></trkpt><trkpt lat="44.5341428" lon="6.3037691"><ele>870.6666666666666</ele><time>2026-05-01T10:10:32.399Z</time></trkpt><trkpt lat="44.5342335" lon="6.3035038"><ele>871.0</ele><time>2026-05-01T10:10:33.398Z</time></trkpt><trkpt lat="44.534325" lon="6.3032315"><ele>871.3333333333333</ele><time>2026-05-01T10:10:34.398Z</time></trkpt><trkpt lat="44.5344149" lon="6.3029587"><ele>871.6666666666667</ele><time>2026-05-01T10:10:35.398Z</time></trkpt><trkpt lat="44.5345019" lon="6.3026843"><ele>872.0</ele><time>2026-05-01T10:10:36.399Z</time></trkpt><trkpt lat="44.5345916" lon="6.3024097"><ele>871.3333333333334</ele><time>2026-05-01T10:10:37.399Z</time></trkpt><trkpt lat="44.5346835" lon="6.3021348"><ele>870.6666666666667</ele><time>2026-05-01T10:10:38.398Z</time></trkpt><trkpt lat="44.5347756" lon="6.3018633"><ele>870.0</ele><time>2026-05-01T10:10:39.398Z</time></trkpt><trkpt lat="44.5348645" lon="6.3015934"><ele>869.3333333333333</ele><time>2026-05-01T10:10:40.398Z</time></trkpt><trkpt lat="44.5349541" lon="6.301337"><ele>868.6666666666666</ele><time>2026-05-01T10:10:41.398Z</time></trkpt><trkpt lat="44.535045" lon="6.3010919"><ele>868.0</ele><time>2026-05-01T10:10:42.398Z</time></trkpt><trkpt lat="44.5351351" lon="6.3008571"><ele>868.0</ele><time>2026-05-01T10:10:43.398Z</time></trkpt><trkpt lat="44.5352289" lon="6.3006321"><ele>868.0</ele><time>2026-05-01T10:10:44.398Z</time></trkpt><trkpt lat="44.5353327" lon="6.3004086"><ele>868.0</ele><time>2026-05-01T10:10:45.398Z</time></trkpt><trkpt lat="44.5354504" lon="6.3001937"><ele>868.3333333333333</ele><time>2026-05-01T10:10:46.399Z</time></trkpt><trkpt lat="44.5355816" lon="6.29999"><ele>868.6666666666667</ele><time>2026-05-01T10:10:47.398Z</time></trkpt><trkpt lat="44.5357213" lon="6.2997915"><ele>869.0</ele><time>2026-05-01T10:10:48.398Z</time></trkpt><trkpt lat="44.5358675" lon="6.2995949"><ele>868.0</ele><time>2026-05-01T10:10:49.398Z</time></trkpt><trkpt lat="44.5360222" lon="6.2994041"><ele>867.0</ele><time>2026-05-01T10:10:50.399Z</time></trkpt><trkpt lat="44.5361877" lon="6.2992275"><ele>866.0</ele><time>2026-05-01T10:10:51.399Z</time></trkpt><trkpt lat="44.5363587" lon="6.2990536"><ele>866.6666666666667</ele><time>2026-05-01T10:10:52.398Z</time></trkpt><trkpt lat="44.5365316" lon="6.298878"><ele>867.3333333333333</ele><time>2026-05-01T10:10:53.398Z</time></trkpt><trkpt lat="44.5367056" lon="6.2986988"><ele>868.0</ele><time>2026-05-01T10:10:54.398Z</time></trkpt><trkpt lat="44.5368783" lon="6.2985137"><ele>868.0</ele><time>2026-05-01T10:10:55.398Z</time></trkpt><trkpt lat="44.537051" lon="6.2983187"><ele>868.0</ele><time>2026-05-01T10:10:56.399Z</time></trkpt><trkpt lat="44.5372185" lon="6.2981065"><ele>868.0</ele><time>2026-05-01T10:10:57.399Z</time></trkpt><trkpt lat="44.5373736" lon="6.2978758"><ele>865.0</ele><time>2026-05-01T10:10:58.398Z</time></trkpt><trkpt lat="44.5375185" lon="6.2976301"><ele>862.0</ele><time>2026-05-01T10:10:59.399Z</time></trkpt><trkpt lat="44.537657" lon="6.2973704"><ele>861.0</ele><time>2026-05-01T10:11:00.399Z</time></trkpt><trkpt lat="44.537786" lon="6.2970967"><ele>860.0</ele><time>2026-05-01T10:11:01.398Z</time></trkpt><trkpt lat="44.537904" lon="6.2968058"><ele>863.5</ele><time>2026-05-01T10:11:02.398Z</time></trkpt><trkpt lat="44.5380106" lon="6.2964994"><ele>867.0</ele><time>2026-05-01T10:11:03.398Z</time></trkpt><trkpt lat="44.5381008" lon="6.2961861"><ele>869.5</ele><time>2026-05-01T10:11:04.399Z</time></trkpt><trkpt lat="44.5381691" lon="6.2958731"><ele>872.0</ele><time>2026-05-01T10:11:05.398Z</time></trkpt><trkpt lat="44.5382222" lon="6.2955571"><ele>872.5</ele><time>2026-05-01T10:11:06.399Z</time></trkpt><trkpt lat="44.5382653" lon="6.2952447"><ele>873.0</ele><time>2026-05-01T10:11:07.398Z</time></trkpt><trkpt lat="44.5383019" lon="6.2949337"><ele>873.6666666666667</ele><time>2026-05-01T10:11:08.398Z</time></trkpt><trkpt lat="44.5383337" lon="6.2946259"><ele>874.3333333333334</ele><time>2026-05-01T10:11:09.399Z</time></trkpt><trkpt lat="44.5383653" lon="6.2943223"><ele>875.0</ele><time>2026-05-01T10:11:10.399Z</time></trkpt><trkpt lat="44.5383973" lon="6.2940252"><ele>875.3333333333334</ele><time>2026-05-01T10:11:11.4Z</time></trkpt><trkpt lat="44.5384263" lon="6.2937443"><ele>875.6666666666667</ele><time>2026-05-01T10:11:12.399Z</time></trkpt><trkpt lat="44.5384523" lon="6.293475"><ele>876.0</ele><time>2026-05-01T10:11:13.398Z</time></trkpt><trkpt lat="44.538476" lon="6.2932182"><ele>876.3333333333333</ele><time>2026-05-01T10:11:14.398Z</time></trkpt><trkpt lat="44.5385003" lon="6.292973"><ele>876.6666666666666</ele><time>2026-05-01T10:11:15.398Z</time></trkpt><trkpt lat="44.5385214" lon="6.2927319"><ele>877.0</ele><time>2026-05-01T10:11:16.398Z</time></trkpt><trkpt lat="44.5385405" lon="6.2924913"><ele>877.0</ele><time>2026-05-01T10:11:17.398Z</time></trkpt><trkpt lat="44.5385613" lon="6.2922541"><ele>877.0</ele><time>2026-05-01T10:11:18.399Z</time></trkpt><trkpt lat="44.5385825" lon="6.2920219"><ele>877.0</ele><time>2026-05-01T10:11:19.398Z</time></trkpt><trkpt lat="44.5386049" lon="6.2917899"><ele>877.0</ele><time>2026-05-01T10:11:20.398Z</time></trkpt><trkpt lat="44.5386304" lon="6.291555"><ele>877.0</ele><time>2026-05-01T10:11:21.398Z</time></trkpt><trkpt lat="44.5386586" lon="6.2913191"><ele>877.0</ele><time>2026-05-01T10:11:22.398Z</time></trkpt><trkpt lat="44.5386968" lon="6.2910911"><ele>879.3333333333333</ele><time>2026-05-01T10:11:23.398Z</time></trkpt><trkpt lat="44.5387427" lon="6.2908699"><ele>881.6666666666667</ele><time>2026-05-01T10:11:24.398Z</time></trkpt><trkpt lat="44.5387939" lon="6.2906554"><ele>884.0</ele><time>2026-05-01T10:11:25.399Z</time></trkpt><trkpt lat="44.5388485" lon="6.290443"><ele>884.0</ele><time>2026-05-01T10:11:26.398Z</time></trkpt><trkpt lat="44.5389065" lon="6.2902316"><ele>884.0</ele><time>2026-05-01T10:11:27.398Z</time></trkpt><trkpt lat="44.5389738" lon="6.2900231"><ele>884.0</ele><time>2026-05-01T10:11:28.398Z</time></trkpt><trkpt lat="44.539056" lon="6.2898206"><ele>882.3333333333334</ele><time>2026-05-01T10:11:29.398Z</time></trkpt><trkpt lat="44.5391474" lon="6.2896163"><ele>880.6666666666667</ele><time>2026-05-01T10:11:30.399Z</time></trkpt><trkpt lat="44.5392461" lon="6.2894142"><ele>879.0</ele><time>2026-05-01T10:11:31.398Z</time></trkpt><trkpt lat="44.5393458" lon="6.2892214"><ele>879.0</ele><time>2026-05-01T10:11:32.399Z</time></trkpt><trkpt lat="44.5394474" lon="6.2890347"><ele>879.0</ele><time>2026-05-01T10:11:33.399Z</time></trkpt><trkpt lat="44.5395475" lon="6.2888497"><ele>879.0</ele><time>2026-05-01T10:11:34.398Z</time></trkpt><trkpt lat="44.5396449" lon="6.2886668"><ele>877.6666666666667</ele><time>2026-05-01T10:11:35.399Z</time></trkpt><trkpt lat="44.5397405" lon="6.2884836"><ele>876.3333333333334</ele><time>2026-05-01T10:11:36.398Z</time></trkpt><trkpt lat="44.5398426" lon="6.2882945"><ele>875.0</ele><time>2026-05-01T10:11:37.398Z</time></trkpt><trkpt lat="44.5399541" lon="6.2880911"><ele>875.0</ele><time>2026-05-01T10:11:38.398Z</time></trkpt><trkpt lat="44.540071" lon="6.2878796"><ele>875.0</ele><time>2026-05-01T10:11:39.399Z</time></trkpt><trkpt lat="44.5401961" lon="6.2876532"><ele>875.0</ele><time>2026-05-01T10:11:40.399Z</time></trkpt><trkpt lat="44.5403294" lon="6.2874179"><ele>876.3333333333334</ele><time>2026-05-01T10:11:41.398Z</time></trkpt><trkpt lat="44.5404645" lon="6.2871711"><ele>877.6666666666667</ele><time>2026-05-01T10:11:42.398Z</time></trkpt><trkpt lat="44.5405972" lon="6.2869174"><ele>879.0</ele><time>2026-05-01T10:11:43.398Z</time></trkpt><trkpt lat="44.5407253" lon="6.286654"><ele>878.5</ele><time>2026-05-01T10:11:44.399Z</time></trkpt><trkpt lat="44.5408464" lon="6.2863798"><ele>878.0</ele><time>2026-05-01T10:11:45.398Z</time></trkpt><trkpt lat="44.5409603" lon="6.2860973"><ele>878.0</ele><time>2026-05-01T10:11:46.398Z</time></trkpt><trkpt lat="44.541065" lon="6.2858058"><ele>878.0</ele><time>2026-05-01T10:11:47.398Z</time></trkpt><trkpt lat="44.5411546" lon="6.2855096"><ele>880.0</ele><time>2026-05-01T10:11:48.398Z</time></trkpt><trkpt lat="44.5412307" lon="6.2852071"><ele>882.0</ele><time>2026-05-01T10:11:49.398Z</time></trkpt><trkpt lat="44.5412964" lon="6.2848954"><ele>881.0</ele><time>2026-05-01T10:11:50.399Z</time></trkpt><trkpt lat="44.5413491" lon="6.2845806"><ele>880.0</ele><time>2026-05-01T10:11:51.398Z</time></trkpt><trkpt lat="44.5413891" lon="6.2842626"><ele>880.0</ele><time>2026-05-01T10:11:52.398Z</time></trkpt><trkpt lat="44.541415" lon="6.2839408"><ele>880.0</ele><time>2026-05-01T10:11:53.398Z</time></trkpt><trkpt lat="44.5414215" lon="6.2836159"><ele>877.0</ele><time>2026-05-01T10:11:54.399Z</time></trkpt><trkpt lat="44.5414132" lon="6.2832905"><ele>874.0</ele><time>2026-05-01T10:11:55.398Z</time></trkpt><trkpt lat="44.5413951" lon="6.2829656"><ele>871.5</ele><time>2026-05-01T10:11:56.398Z</time></trkpt><trkpt lat="44.5413703" lon="6.2826416"><ele>869.0</ele><time>2026-05-01T10:11:57.398Z</time></trkpt><trkpt lat="44.5413411" lon="6.2823217"><ele>865.0</ele><time>2026-05-01T10:11:58.398Z</time></trkpt><trkpt lat="44.5413093" lon="6.282005"><ele>861.0</ele><time>2026-05-01T10:11:59.399Z</time></trkpt><trkpt lat="44.5412774" lon="6.2816896"><ele>858.5</ele><time>2026-05-01T10:12:00.398Z</time></trkpt><trkpt lat="44.5412466" lon="6.2813714"><ele>856.0</ele><time>2026-05-01T10:12:01.398Z</time></trkpt><trkpt lat="44.5412178" lon="6.2810469"><ele>853.5</ele><time>2026-05-01T10:12:02.398Z</time></trkpt><trkpt lat="44.5411943" lon="6.2807142"><ele>851.0</ele><time>2026-05-01T10:12:03.398Z</time></trkpt><trkpt lat="44.5411771" lon="6.28038"><ele>850.0</ele><time>2026-05-01T10:12:04.399Z</time></trkpt><trkpt lat="44.541172" lon="6.2800444"><ele>849.0</ele><time>2026-05-01T10:12:05.398Z</time></trkpt><trkpt lat="44.541183" lon="6.2797135"><ele>849.0</ele><time>2026-05-01T10:12:06.398Z</time></trkpt><trkpt lat="44.5412109" lon="6.2793898"><ele>849.0</ele><time>2026-05-01T10:12:07.398Z</time></trkpt><trkpt lat="44.5412498" lon="6.279076"><ele>849.6666666666667</ele><time>2026-05-01T10:12:08.398Z</time></trkpt><trkpt lat="44.5412993" lon="6.2787754"><ele>850.3333333333334</ele><time>2026-05-01T10:12:09.399Z</time></trkpt><trkpt lat="44.5413595" lon="6.278487"><ele>851.0</ele><time>2026-05-01T10:12:10.398Z</time></trkpt><trkpt lat="44.5414278" lon="6.2782132"><ele>851.0</ele><time>2026-05-01T10:12:11.398Z</time></trkpt><trkpt lat="44.5415027" lon="6.2779519"><ele>851.0</ele><time>2026-05-01T10:12:12.398Z</time></trkpt><trkpt lat="44.5415854" lon="6.2777052"><ele>851.0</ele><time>2026-05-01T10:12:13.398Z</time></trkpt><trkpt lat="44.5416795" lon="6.2774647"><ele>851.3333333333334</ele><time>2026-05-01T10:12:14.398Z</time></trkpt><trkpt lat="44.5417825" lon="6.2772329"><ele>851.6666666666667</ele><time>2026-05-01T10:12:15.399Z</time></trkpt><trkpt lat="44.5418902" lon="6.2770103"><ele>852.0</ele><time>2026-05-01T10:12:16.398Z</time></trkpt><trkpt lat="44.5420036" lon="6.2768056"><ele>852.3333333333333</ele><time>2026-05-01T10:12:17.398Z</time></trkpt><trkpt lat="44.5421185" lon="6.2766155"><ele>852.6666666666666</ele><time>2026-05-01T10:12:18.398Z</time></trkpt><trkpt lat="44.5422341" lon="6.276436"><ele>853.0</ele><time>2026-05-01T10:12:19.398Z</time></trkpt><trkpt lat="44.542352" lon="6.2762684"><ele>853.6666666666666</ele><time>2026-05-01T10:12:20.398Z</time></trkpt><trkpt lat="44.5424778" lon="6.2761075"><ele>854.3333333333333</ele><time>2026-05-01T10:12:21.398Z</time></trkpt><trkpt lat="44.5426093" lon="6.2759513"><ele>855.0</ele><time>2026-05-01T10:12:22.398Z</time></trkpt><trkpt lat="44.5427469" lon="6.2758011"><ele>856.3333333333333</ele><time>2026-05-01T10:12:23.398Z</time></trkpt><trkpt lat="44.5428947" lon="6.2756595"><ele>857.6666666666666</ele><time>2026-05-01T10:12:24.398Z</time></trkpt><trkpt lat="44.5430459" lon="6.275529"><ele>859.0</ele><time>2026-05-01T10:12:25.398Z</time></trkpt><trkpt lat="44.5431943" lon="6.2754083"><ele>859.0</ele><time>2026-05-01T10:12:26.398Z</time></trkpt><trkpt lat="44.5433459" lon="6.2752931"><ele>859.0</ele><time>2026-05-01T10:12:27.399Z</time></trkpt><trkpt lat="44.5434994" lon="6.2751805"><ele>859.0</ele><time>2026-05-01T10:12:28.398Z</time></trkpt><trkpt lat="44.5436468" lon="6.2750763"><ele>858.75</ele><time>2026-05-01T10:12:29.398Z</time></trkpt><trkpt lat="44.5437774" lon="6.2749859"><ele>858.5</ele><time>2026-05-01T10:12:30.398Z</time></trkpt><trkpt lat="44.5438987" lon="6.2749054"><ele>858.25</ele><time>2026-05-01T10:12:31.398Z</time></trkpt><trkpt lat="44.5440117" lon="6.27483"><ele>858.0</ele><time>2026-05-01T10:12:32.399Z</time></trkpt><trkpt lat="44.5441243" lon="6.2747539"><ele>858.0</ele><time>2026-05-01T10:12:33.398Z</time></trkpt><trkpt lat="44.5442387" lon="6.2746721"><ele>858.0</ele><time>2026-05-01T10:12:34.398Z</time></trkpt><trkpt lat="44.5443592" lon="6.2745817"><ele>858.0</ele><time>2026-05-01T10:12:35.398Z</time></trkpt><trkpt lat="44.5444899" lon="6.2744788"><ele>858.0</ele><time>2026-05-01T10:12:36.398Z</time></trkpt><trkpt lat="44.5446301" lon="6.274365"><ele>859.3333333333333</ele><time>2026-05-01T10:12:37.4Z</time></trkpt><trkpt lat="44.5447718" lon="6.2742457"><ele>860.6666666666666</ele><time>2026-05-01T10:12:38.398Z</time></trkpt><trkpt lat="44.5449144" lon="6.27412"><ele>862.0</ele><time>2026-05-01T10:12:39.398Z</time></trkpt><trkpt lat="44.5450542" lon="6.2739866"><ele>861.6666666666666</ele><time>2026-05-01T10:12:40.398Z</time></trkpt><trkpt lat="44.5451865" lon="6.2738472"><ele>861.3333333333333</ele><time>2026-05-01T10:12:41.398Z</time></trkpt><trkpt lat="44.5453153" lon="6.2737041"><ele>861.0</ele><time>2026-05-01T10:12:42.398Z</time></trkpt><trkpt lat="44.5454362" lon="6.2735599"><ele>861.0</ele><time>2026-05-01T10:12:43.398Z</time></trkpt><trkpt lat="44.5455505" lon="6.2734149"><ele>861.0</ele><time>2026-05-01T10:12:44.398Z</time></trkpt><trkpt lat="44.545651" lon="6.2732721"><ele>861.0</ele><time>2026-05-01T10:12:45.398Z</time></trkpt><trkpt lat="44.545744" lon="6.2731357"><ele>861.0</ele><time>2026-05-01T10:12:46.398Z</time></trkpt><trkpt lat="44.5458243" lon="6.2730183"><ele>860.6666666666666</ele><time>2026-05-01T10:12:47.398Z</time></trkpt><trkpt lat="44.5458909" lon="6.2729144"><ele>860.3333333333333</ele><time>2026-05-01T10:12:48.398Z</time></trkpt><trkpt lat="44.5459465" lon="6.2728223"><ele>860.0</ele><time>2026-05-01T10:12:49.398Z</time></trkpt><trkpt lat="44.5459912" lon="6.2727458"><ele>859.6666666666666</ele><time>2026-05-01T10:12:50.398Z</time></trkpt><trkpt lat="44.5460326" lon="6.2726773"><ele>859.3333333333333</ele><time>2026-05-01T10:12:51.398Z</time></trkpt><trkpt lat="44.5460709" lon="6.2726055"><ele>859.0</ele><time>2026-05-01T10:12:52.398Z</time></trkpt><trkpt lat="44.546141" lon="6.2724733"><ele>859.0</ele><time>2026-05-01T10:12:54.398Z</time></trkpt><trkpt lat="44.5462041" lon="6.272353"><ele>859.0000000000001</ele><time>2026-05-01T10:12:56.398Z</time></trkpt><trkpt lat="44.5462635" lon="6.2722308"><ele>859.0000000000001</ele><time>2026-05-01T10:12:58.398Z</time></trkpt><trkpt lat="44.546326" lon="6.2721137"><ele>859.0</ele><time>2026-05-01T10:13:00.398Z</time></trkpt><trkpt lat="44.5463711" lon="6.2720516"><ele>859.0</ele><time>2026-05-01T10:13:02.398Z</time></trkpt><trkpt lat="44.5464624" lon="6.2719562"><ele>858.8000000000001</ele><time>2026-05-01T10:13:04.399Z</time></trkpt><trkpt lat="44.5465112" lon="6.2718825"><ele>858.6000000000001</ele><time>2026-05-01T10:13:05.398Z</time></trkpt><trkpt lat="44.5465517" lon="6.2717862"><ele>858.4</ele><time>2026-05-01T10:13:06.398Z</time></trkpt><trkpt lat="44.5466012" lon="6.2716695"><ele>858.2</ele><time>2026-05-01T10:13:07.398Z</time></trkpt><trkpt lat="44.5466787" lon="6.2715507"><ele>858.0</ele><time>2026-05-01T10:13:08.398Z</time></trkpt><trkpt lat="44.546764" lon="6.2714254"><ele>858.0</ele><time>2026-05-01T10:13:09.399Z</time></trkpt><trkpt lat="44.5468419" lon="6.2712891"><ele>858.0</ele><time>2026-05-01T10:13:10.399Z</time></trkpt><trkpt lat="44.5469099" lon="6.2711442"><ele>858.0</ele><time>2026-05-01T10:13:11.398Z</time></trkpt><trkpt lat="44.546968" lon="6.2710041"><ele>858.0</ele><time>2026-05-01T10:13:12.398Z</time></trkpt><trkpt lat="44.5470202" lon="6.2708831"><ele>858.0</ele><time>2026-05-01T10:13:13.398Z</time></trkpt><trkpt lat="44.5470652" lon="6.2707766"><ele>858.0</ele><time>2026-05-01T10:13:14.398Z</time></trkpt><trkpt lat="44.5471063" lon="6.2706716"><ele>858.0</ele><time>2026-05-01T10:13:15.398Z</time></trkpt><trkpt lat="44.5471454" lon="6.2705722"><ele>858.0</ele><time>2026-05-01T10:13:16.398Z</time></trkpt><trkpt lat="44.5471851" lon="6.2704731"><ele>858.0</ele><time>2026-05-01T10:13:17.399Z</time></trkpt><trkpt lat="44.5472244" lon="6.2703744"><ele>858.0</ele><time>2026-05-01T10:13:18.398Z</time></trkpt><trkpt lat="44.5472568" lon="6.2702827"><ele>858.0</ele><time>2026-05-01T10:13:19.399Z</time></trkpt><trkpt lat="44.5473034" lon="6.2701475"><ele>858.0</ele><time>2026-05-01T10:13:21.398Z</time></trkpt><trkpt lat="44.5473399" lon="6.2700541"><ele>858.0</ele><time>2026-05-01T10:13:23.399Z</time></trkpt><trkpt lat="44.5473856" lon="6.2699377"><ele>858.0</ele><time>2026-05-01T10:13:25.399Z</time></trkpt><trkpt lat="44.5474314" lon="6.2697992"><ele>858.0</ele><time>2026-05-01T10:13:27.398Z</time></trkpt><trkpt lat="44.5474598" lon="6.2697165"><ele>857.4</ele><time>2026-05-01T10:13:28.398Z</time></trkpt><trkpt lat="44.5474936" lon="6.2696282"><ele>856.8</ele><time>2026-05-01T10:13:29.398Z</time></trkpt><trkpt lat="44.5475304" lon="6.2695227"><ele>856.2</ele><time>2026-05-01T10:13:30.398Z</time></trkpt><trkpt lat="44.5475679" lon="6.2694073"><ele>855.6</ele><time>2026-05-01T10:13:31.399Z</time></trkpt><trkpt lat="44.5476101" lon="6.2692779"><ele>855.0</ele><time>2026-05-01T10:13:32.399Z</time></trkpt><trkpt lat="44.5476591" lon="6.2691269"><ele>855.0</ele><time>2026-05-01T10:13:33.399Z</time></trkpt><trkpt lat="44.5477115" lon="6.268968"><ele>855.0</ele><time>2026-05-01T10:13:34.398Z</time></trkpt><trkpt lat="44.5477645" lon="6.2688141"><ele>855.0</ele><time>2026-05-01T10:13:35.399Z</time></trkpt><trkpt lat="44.5478151" lon="6.2686677"><ele>855.0</ele><time>2026-05-01T10:13:36.399Z</time></trkpt><trkpt lat="44.5478663" lon="6.2685194"><ele>854.75</ele><time>2026-05-01T10:13:37.399Z</time></trkpt><trkpt lat="44.5479206" lon="6.2683595"><ele>854.5</ele><time>2026-05-01T10:13:38.398Z</time></trkpt><trkpt lat="44.5479782" lon="6.268189"><ele>854.25</ele><time>2026-05-01T10:13:39.398Z</time></trkpt><trkpt lat="44.5480395" lon="6.2680048"><ele>854.0</ele><time>2026-05-01T10:13:40.399Z</time></trkpt><trkpt lat="44.5481073" lon="6.2678098"><ele>853.0</ele><time>2026-05-01T10:13:41.398Z</time></trkpt><trkpt lat="44.5481787" lon="6.2676005"><ele>852.0</ele><time>2026-05-01T10:13:42.398Z</time></trkpt><trkpt lat="44.5482555" lon="6.2673817"><ele>851.0</ele><time>2026-05-01T10:13:43.398Z</time></trkpt><trkpt lat="44.5483364" lon="6.2671512"><ele>851.0</ele><time>2026-05-01T10:13:44.398Z</time></trkpt><trkpt lat="44.5484163" lon="6.2669166"><ele>851.0</ele><time>2026-05-01T10:13:45.399Z</time></trkpt><trkpt lat="44.5484967" lon="6.2666847"><ele>851.0</ele><time>2026-05-01T10:13:46.398Z</time></trkpt><trkpt lat="44.5485754" lon="6.2664525"><ele>851.0</ele><time>2026-05-01T10:13:47.398Z</time></trkpt><trkpt lat="44.548656" lon="6.266215"><ele>851.0</ele><time>2026-05-01T10:13:48.4Z</time></trkpt><trkpt lat="44.5487403" lon="6.2659671"><ele>851.0</ele><time>2026-05-01T10:13:49.399Z</time></trkpt><trkpt lat="44.5488268" lon="6.2657074"><ele>850.3333333333334</ele><time>2026-05-01T10:13:50.398Z</time></trkpt><trkpt lat="44.5489136" lon="6.2654474"><ele>849.6666666666667</ele><time>2026-05-01T10:13:51.398Z</time></trkpt><trkpt lat="44.5489998" lon="6.2651949"><ele>849.0</ele><time>2026-05-01T10:13:52.398Z</time></trkpt><trkpt lat="44.5490877" lon="6.2649382"><ele>849.0</ele><time>2026-05-01T10:13:53.398Z</time></trkpt><trkpt lat="44.5491773" lon="6.2646801"><ele>849.0</ele><time>2026-05-01T10:13:54.398Z</time></trkpt><trkpt lat="44.5492669" lon="6.2644193"><ele>849.0</ele><time>2026-05-01T10:13:55.398Z</time></trkpt><trkpt lat="44.5493559" lon="6.2641587"><ele>849.6666666666667</ele><time>2026-05-01T10:13:56.398Z</time></trkpt><trkpt lat="44.5494451" lon="6.2638964"><ele>850.3333333333334</ele><time>2026-05-01T10:13:57.398Z</time></trkpt><trkpt lat="44.5495358" lon="6.263635"><ele>851.0</ele><time>2026-05-01T10:13:58.398Z</time></trkpt><trkpt lat="44.5496259" lon="6.2633766"><ele>851.0</ele><time>2026-05-01T10:13:59.398Z</time></trkpt><trkpt lat="44.5497159" lon="6.2631169"><ele>851.0</ele><time>2026-05-01T10:14:00.398Z</time></trkpt><trkpt lat="44.5498056" lon="6.2628559"><ele>851.0</ele><time>2026-05-01T10:14:01.398Z</time></trkpt><trkpt lat="44.5498952" lon="6.262593"><ele>850.6666666666667</ele><time>2026-05-01T10:14:02.399Z</time></trkpt><trkpt lat="44.5499853" lon="6.2623275"><ele>850.3333333333333</ele><time>2026-05-01T10:14:03.399Z</time></trkpt><trkpt lat="44.550075" lon="6.2620606"><ele>850.0</ele><time>2026-05-01T10:14:04.4Z</time></trkpt><trkpt lat="44.5501644" lon="6.2617969"><ele>850.6666666666666</ele><time>2026-05-01T10:14:05.398Z</time></trkpt><trkpt lat="44.5502546" lon="6.2615371"><ele>851.3333333333333</ele><time>2026-05-01T10:14:06.398Z</time></trkpt><trkpt lat="44.5503416" lon="6.2612815"><ele>852.0</ele><time>2026-05-01T10:14:07.398Z</time></trkpt><trkpt lat="44.5504247" lon="6.2610335"><ele>852.6666666666667</ele><time>2026-05-01T10:14:08.398Z</time></trkpt><trkpt lat="44.5505046" lon="6.2607958"><ele>853.3333333333334</ele><time>2026-05-01T10:14:09.398Z</time></trkpt><trkpt lat="44.5505805" lon="6.2605701"><ele>854.0</ele><time>2026-05-01T10:14:10.398Z</time></trkpt><trkpt lat="44.5506551" lon="6.2603548"><ele>854.0</ele><time>2026-05-01T10:14:11.399Z</time></trkpt><trkpt lat="44.5507275" lon="6.2601436"><ele>854.0</ele><time>2026-05-01T10:14:12.398Z</time></trkpt><trkpt lat="44.5507999" lon="6.2599372"><ele>854.0</ele><time>2026-05-01T10:14:13.399Z</time></trkpt><trkpt lat="44.5508692" lon="6.2597381"><ele>854.0</ele><time>2026-05-01T10:14:14.398Z</time></trkpt><trkpt lat="44.5509366" lon="6.2595426"><ele>854.0</ele><time>2026-05-01T10:14:15.399Z</time></trkpt><trkpt lat="44.5510013" lon="6.2593525"><ele>854.0</ele><time>2026-05-01T10:14:16.398Z</time></trkpt><trkpt lat="44.551063" lon="6.2591689"><ele>854.0</ele><time>2026-05-01T10:14:17.398Z</time></trkpt><trkpt lat="44.551125" lon="6.2589827"><ele>854.0</ele><time>2026-05-01T10:14:18.398Z</time></trkpt><trkpt lat="44.5511883" lon="6.2587881"><ele>854.0</ele><time>2026-05-01T10:14:19.398Z</time></trkpt><trkpt lat="44.5512513" lon="6.2585758"><ele>856.0</ele><time>2026-05-01T10:14:20.398Z</time></trkpt><trkpt lat="44.5513087" lon="6.2583468"><ele>858.0</ele><time>2026-05-01T10:14:21.399Z</time></trkpt><trkpt lat="44.5513579" lon="6.2581067"><ele>860.0</ele><time>2026-05-01T10:14:22.399Z</time></trkpt><trkpt lat="44.5514001" lon="6.2578765"><ele>860.0</ele><time>2026-05-01T10:14:23.398Z</time></trkpt><trkpt lat="44.5514301" lon="6.2576523"><ele>860.0</ele><time>2026-05-01T10:14:24.398Z</time></trkpt><trkpt lat="44.551456" lon="6.2574316"><ele>860.0</ele><time>2026-05-01T10:14:25.398Z</time></trkpt><trkpt lat="44.5514734" lon="6.2572048"><ele>859.6666666666667</ele><time>2026-05-01T10:14:26.398Z</time></trkpt><trkpt lat="44.5514834" lon="6.2569748"><ele>859.3333333333333</ele><time>2026-05-01T10:14:27.398Z</time></trkpt><trkpt lat="44.5514943" lon="6.2567422"><ele>859.0</ele><time>2026-05-01T10:14:28.399Z</time></trkpt><trkpt lat="44.5515046" lon="6.2565196"><ele>858.75</ele><time>2026-05-01T10:14:29.399Z</time></trkpt><trkpt lat="44.5515132" lon="6.2563115"><ele>858.5</ele><time>2026-05-01T10:14:30.398Z</time></trkpt><trkpt lat="44.5515212" lon="6.2561218"><ele>858.25</ele><time>2026-05-01T10:14:31.398Z</time></trkpt><trkpt lat="44.5515277" lon="6.2559392"><ele>858.0</ele><time>2026-05-01T10:14:32.399Z</time></trkpt><trkpt lat="44.5515383" lon="6.2557616"><ele>858.0</ele><time>2026-05-01T10:14:33.398Z</time></trkpt><trkpt lat="44.5515507" lon="6.2555758"><ele>858.0</ele><time>2026-05-01T10:14:34.398Z</time></trkpt><trkpt lat="44.5515628" lon="6.2553822"><ele>858.0</ele><time>2026-05-01T10:14:35.398Z</time></trkpt><trkpt lat="44.5515726" lon="6.2551737"><ele>858.0</ele><time>2026-05-01T10:14:36.399Z</time></trkpt><trkpt lat="44.5515814" lon="6.2549534"><ele>857.6666666666667</ele><time>2026-05-01T10:14:37.398Z</time></trkpt><trkpt lat="44.5515893" lon="6.2547232"><ele>857.3333333333334</ele><time>2026-05-01T10:14:38.398Z</time></trkpt><trkpt lat="44.5515977" lon="6.2544854"><ele>857.0</ele><time>2026-05-01T10:14:39.398Z</time></trkpt><trkpt lat="44.5516089" lon="6.2542512"><ele>857.0</ele><time>2026-05-01T10:14:40.398Z</time></trkpt><trkpt lat="44.55162" lon="6.2540261"><ele>857.0</ele><time>2026-05-01T10:14:41.399Z</time></trkpt><trkpt lat="44.5516304" lon="6.2538078"><ele>857.0</ele><time>2026-05-01T10:14:42.398Z</time></trkpt><trkpt lat="44.5516407" lon="6.2535962"><ele>857.0</ele><time>2026-05-01T10:14:43.398Z</time></trkpt><trkpt lat="44.5516497" lon="6.2533929"><ele>857.0</ele><time>2026-05-01T10:14:44.398Z</time></trkpt><trkpt lat="44.5516597" lon="6.2531977"><ele>857.0</ele><time>2026-05-01T10:14:45.399Z</time></trkpt><trkpt lat="44.5516692" lon="6.253011"><ele>857.0</ele><time>2026-05-01T10:14:46.399Z</time></trkpt><trkpt lat="44.55168" lon="6.2528289"><ele>856.75</ele><time>2026-05-01T10:14:47.398Z</time></trkpt><trkpt lat="44.5516905" lon="6.2526509"><ele>856.5</ele><time>2026-05-01T10:14:48.398Z</time></trkpt><trkpt lat="44.5516994" lon="6.2524651"><ele>856.25</ele><time>2026-05-01T10:14:49.398Z</time></trkpt><trkpt lat="44.5517085" lon="6.2522736"><ele>856.0</ele><time>2026-05-01T10:14:50.398Z</time></trkpt><trkpt lat="44.5517193" lon="6.2520674"><ele>855.6666666666666</ele><time>2026-05-01T10:14:51.398Z</time></trkpt><trkpt lat="44.5517313" lon="6.2518464"><ele>855.3333333333333</ele><time>2026-05-01T10:14:52.398Z</time></trkpt><trkpt lat="44.5517439" lon="6.2516068"><ele>855.0</ele><time>2026-05-01T10:14:53.398Z</time></trkpt><trkpt lat="44.5517531" lon="6.251351"><ele>854.0</ele><time>2026-05-01T10:14:54.398Z</time></trkpt><trkpt lat="44.5517624" lon="6.2510832"><ele>853.0</ele><time>2026-05-01T10:14:55.398Z</time></trkpt><trkpt lat="44.5517727" lon="6.2508081"><ele>852.0</ele><time>2026-05-01T10:14:56.398Z</time></trkpt><trkpt lat="44.5517854" lon="6.2505243"><ele>851.0</ele><time>2026-05-01T10:14:57.398Z</time></trkpt><trkpt lat="44.5518003" lon="6.2502376"><ele>850.0</ele><time>2026-05-01T10:14:58.398Z</time></trkpt><trkpt lat="44.5518166" lon="6.249943"><ele>849.0</ele><time>2026-05-01T10:14:59.398Z</time></trkpt><trkpt lat="44.5518337" lon="6.2496405"><ele>848.3333333333333</ele><time>2026-05-01T10:15:00.399Z</time></trkpt><trkpt lat="44.5518523" lon="6.2493406"><ele>847.6666666666666</ele><time>2026-05-01T10:15:01.399Z</time></trkpt><trkpt lat="44.5518785" lon="6.2490322"><ele>847.0</ele><time>2026-05-01T10:15:02.398Z</time></trkpt><trkpt lat="44.5519203" lon="6.2487229"><ele>846.5</ele><time>2026-05-01T10:15:03.398Z</time></trkpt><trkpt lat="44.5519782" lon="6.2484123"><ele>846.0</ele><time>2026-05-01T10:15:04.398Z</time></trkpt><trkpt lat="44.5520466" lon="6.248096"><ele>845.5</ele><time>2026-05-01T10:15:05.399Z</time></trkpt><trkpt lat="44.5521194" lon="6.2477729"><ele>845.0</ele><time>2026-05-01T10:15:06.398Z</time></trkpt><trkpt lat="44.5521938" lon="6.2474447"><ele>844.5</ele><time>2026-05-01T10:15:07.398Z</time></trkpt><trkpt lat="44.552269" lon="6.2471121"><ele>844.0</ele><time>2026-05-01T10:15:08.398Z</time></trkpt><trkpt lat="44.5523449" lon="6.2467769"><ele>842.0</ele><time>2026-05-01T10:15:09.398Z</time></trkpt><trkpt lat="44.5524234" lon="6.2464455"><ele>840.0</ele><time>2026-05-01T10:15:10.398Z</time></trkpt><trkpt lat="44.5525013" lon="6.2461119"><ele>840.0</ele><time>2026-05-01T10:15:11.398Z</time></trkpt><trkpt lat="44.5525793" lon="6.2457783"><ele>840.0</ele><time>2026-05-01T10:15:12.398Z</time></trkpt><trkpt lat="44.5526649" lon="6.2454491"><ele>837.5</ele><time>2026-05-01T10:15:13.398Z</time></trkpt><trkpt lat="44.552745" lon="6.2451193"><ele>835.0</ele><time>2026-05-01T10:15:14.4Z</time></trkpt><trkpt lat="44.5528295" lon="6.2447915"><ele>834.5</ele><time>2026-05-01T10:15:15.399Z</time></trkpt><trkpt lat="44.5529221" lon="6.2444627"><ele>834.0</ele><time>2026-05-01T10:15:16.398Z</time></trkpt><trkpt lat="44.5530276" lon="6.2441381"><ele>833.5</ele><time>2026-05-01T10:15:17.398Z</time></trkpt><trkpt lat="44.5531453" lon="6.24382"><ele>833.0</ele><time>2026-05-01T10:15:18.398Z</time></trkpt><trkpt lat="44.5532712" lon="6.2435127"><ele>833.0</ele><time>2026-05-01T10:15:19.398Z</time></trkpt><trkpt lat="44.5534042" lon="6.2432163"><ele>833.0</ele><time>2026-05-01T10:15:20.398Z</time></trkpt><trkpt lat="44.5535438" lon="6.24293"><ele>832.5</ele><time>2026-05-01T10:15:21.398Z</time></trkpt><trkpt lat="44.5536923" lon="6.242649"><ele>832.0</ele><time>2026-05-01T10:15:22.398Z</time></trkpt><trkpt lat="44.5538547" lon="6.2423727"><ele>830.0</ele><time>2026-05-01T10:15:23.399Z</time></trkpt><trkpt lat="44.5540333" lon="6.2421056"><ele>828.0</ele><time>2026-05-01T10:15:24.398Z</time></trkpt><trkpt lat="44.5542214" lon="6.2418415"><ele>828.0</ele><time>2026-05-01T10:15:25.398Z</time></trkpt><trkpt lat="44.5544136" lon="6.2415778"><ele>828.0</ele><time>2026-05-01T10:15:26.398Z</time></trkpt><trkpt lat="44.5546036" lon="6.2413137"><ele>826.5</ele><time>2026-05-01T10:15:27.398Z</time></trkpt><trkpt lat="44.5547906" lon="6.2410536"><ele>825.0</ele><time>2026-05-01T10:15:28.398Z</time></trkpt><trkpt lat="44.5549761" lon="6.2408001"><ele>823.0</ele><time>2026-05-01T10:15:29.399Z</time></trkpt><trkpt lat="44.5551569" lon="6.240553"><ele>821.0</ele><time>2026-05-01T10:15:30.398Z</time></trkpt><trkpt lat="44.5553344" lon="6.2403103"><ele>821.5</ele><time>2026-05-01T10:15:31.398Z</time></trkpt><trkpt lat="44.555507" lon="6.2400686"><ele>822.0</ele><time>2026-05-01T10:15:32.398Z</time></trkpt><trkpt lat="44.5556717" lon="6.2398221"><ele>820.5</ele><time>2026-05-01T10:15:33.398Z</time></trkpt><trkpt lat="44.5558336" lon="6.2395644"><ele>819.0</ele><time>2026-05-01T10:15:34.398Z</time></trkpt><trkpt lat="44.5559892" lon="6.2392963"><ele>819.0</ele><time>2026-05-01T10:15:35.399Z</time></trkpt><trkpt lat="44.5561318" lon="6.2390221"><ele>819.0</ele><time>2026-05-01T10:15:36.398Z</time></trkpt><trkpt lat="44.5562597" lon="6.2387455"><ele>818.0</ele><time>2026-05-01T10:15:37.398Z</time></trkpt><trkpt lat="44.5563775" lon="6.2384611"><ele>817.0</ele><time>2026-05-01T10:15:38.398Z</time></trkpt><trkpt lat="44.556487" lon="6.238168"><ele>816.0</ele><time>2026-05-01T10:15:39.398Z</time></trkpt><trkpt lat="44.5565863" lon="6.2378635"><ele>815.0</ele><time>2026-05-01T10:15:40.398Z</time></trkpt><trkpt lat="44.5566806" lon="6.2375499"><ele>815.0</ele><time>2026-05-01T10:15:41.398Z</time></trkpt><trkpt lat="44.5567689" lon="6.2372323"><ele>815.0</ele><time>2026-05-01T10:15:42.398Z</time></trkpt><trkpt lat="44.5568473" lon="6.2369079"><ele>815.0</ele><time>2026-05-01T10:15:43.399Z</time></trkpt><trkpt lat="44.5569188" lon="6.2365796"><ele>815.0</ele><time>2026-05-01T10:15:44.398Z</time></trkpt><trkpt lat="44.5569879" lon="6.2362584"><ele>814.0</ele><time>2026-05-01T10:15:45.399Z</time></trkpt><trkpt lat="44.5570476" lon="6.2359416"><ele>813.0</ele><time>2026-05-01T10:15:46.398Z</time></trkpt><trkpt lat="44.5570959" lon="6.2356313"><ele>812.0</ele><time>2026-05-01T10:15:47.398Z</time></trkpt><trkpt lat="44.5571383" lon="6.2353343"><ele>811.0</ele><time>2026-05-01T10:15:48.398Z</time></trkpt><trkpt lat="44.5572164" lon="6.2347621"><ele>810.6666666666666</ele><time>2026-05-01T10:15:50.399Z</time></trkpt><trkpt lat="44.5572489" lon="6.2344966"><ele>810.3333333333333</ele><time>2026-05-01T10:15:51.398Z</time></trkpt><trkpt lat="44.5572751" lon="6.2342456"><ele>810.0</ele><time>2026-05-01T10:15:52.399Z</time></trkpt><trkpt lat="44.5573006" lon="6.2339997"><ele>808.6666666666667</ele><time>2026-05-01T10:15:53.398Z</time></trkpt><trkpt lat="44.5573289" lon="6.2337507"><ele>807.3333333333334</ele><time>2026-05-01T10:15:54.398Z</time></trkpt><trkpt lat="44.5573616" lon="6.2334952"><ele>806.0</ele><time>2026-05-01T10:15:55.398Z</time></trkpt><trkpt lat="44.557395" lon="6.2332354"><ele>805.6666666666667</ele><time>2026-05-01T10:15:56.398Z</time></trkpt><trkpt lat="44.5574295" lon="6.2329679"><ele>805.3333333333333</ele><time>2026-05-01T10:15:57.398Z</time></trkpt><trkpt lat="44.5574648" lon="6.2327013"><ele>805.0</ele><time>2026-05-01T10:15:58.398Z</time></trkpt><trkpt lat="44.5574998" lon="6.2324369"><ele>804.6666666666666</ele><time>2026-05-01T10:15:59.398Z</time></trkpt><trkpt lat="44.5575364" lon="6.2321697"><ele>804.3333333333333</ele><time>2026-05-01T10:16:00.398Z</time></trkpt><trkpt lat="44.5575739" lon="6.2318978"><ele>804.0</ele><time>2026-05-01T10:16:01.399Z</time></trkpt><trkpt lat="44.5576113" lon="6.2316206"><ele>803.0</ele><time>2026-05-01T10:16:02.398Z</time></trkpt><trkpt lat="44.5576488" lon="6.2313418"><ele>802.0</ele><time>2026-05-01T10:16:03.398Z</time></trkpt><trkpt lat="44.557686" lon="6.2310714"><ele>801.0</ele><time>2026-05-01T10:16:04.398Z</time></trkpt><trkpt lat="44.5577217" lon="6.2308087"><ele>801.3333333333333</ele><time>2026-05-01T10:16:05.398Z</time></trkpt><trkpt lat="44.5577574" lon="6.2305521"><ele>801.6666666666666</ele><time>2026-05-01T10:16:06.398Z</time></trkpt><trkpt lat="44.5577922" lon="6.2303015"><ele>802.0</ele><time>2026-05-01T10:16:07.398Z</time></trkpt><trkpt lat="44.5578286" lon="6.23005"><ele>801.6666666666666</ele><time>2026-05-01T10:16:08.398Z</time></trkpt><trkpt lat="44.5578657" lon="6.2298003"><ele>801.3333333333333</ele><time>2026-05-01T10:16:09.398Z</time></trkpt><trkpt lat="44.5579005" lon="6.2295519"><ele>801.0</ele><time>2026-05-01T10:16:10.398Z</time></trkpt><trkpt lat="44.557936" lon="6.2293012"><ele>801.3333333333333</ele><time>2026-05-01T10:16:11.399Z</time></trkpt><trkpt lat="44.5579718" lon="6.2290452"><ele>801.6666666666666</ele><time>2026-05-01T10:16:12.398Z</time></trkpt><trkpt lat="44.558007" lon="6.2287871"><ele>802.0</ele><time>2026-05-01T10:16:13.398Z</time></trkpt><trkpt lat="44.5580415" lon="6.2285279"><ele>802.0</ele><time>2026-05-01T10:16:14.398Z</time></trkpt><trkpt lat="44.5580751" lon="6.2282675"><ele>802.0</ele><time>2026-05-01T10:16:15.398Z</time></trkpt><trkpt lat="44.5581095" lon="6.2280056"><ele>802.0</ele><time>2026-05-01T10:16:16.398Z</time></trkpt><trkpt lat="44.5581455" lon="6.2277423"><ele>802.0</ele><time>2026-05-01T10:16:17.398Z</time></trkpt><trkpt lat="44.5581824" lon="6.2274756"><ele>802.0</ele><time>2026-05-01T10:16:18.398Z</time></trkpt><trkpt lat="44.5582207" lon="6.2272012"><ele>802.0</ele><time>2026-05-01T10:16:19.398Z</time></trkpt><trkpt lat="44.5582608" lon="6.2269219"><ele>801.6666666666666</ele><time>2026-05-01T10:16:20.399Z</time></trkpt><trkpt lat="44.5583026" lon="6.2266396"><ele>801.3333333333333</ele><time>2026-05-01T10:16:21.398Z</time></trkpt><trkpt lat="44.5583452" lon="6.2263545"><ele>801.0</ele><time>2026-05-01T10:16:22.399Z</time></trkpt><trkpt lat="44.5583858" lon="6.2260632"><ele>801.0</ele><time>2026-05-01T10:16:23.398Z</time></trkpt><trkpt lat="44.5584281" lon="6.2257663"><ele>801.0</ele><time>2026-05-01T10:16:24.398Z</time></trkpt><trkpt lat="44.5584711" lon="6.2254618"><ele>801.0</ele><time>2026-05-01T10:16:25.398Z</time></trkpt><trkpt lat="44.5585156" lon="6.2251538"><ele>800.5</ele><time>2026-05-01T10:16:26.398Z</time></trkpt><trkpt lat="44.5585592" lon="6.2248433"><ele>800.0</ele><time>2026-05-01T10:16:27.399Z</time></trkpt><trkpt lat="44.5586025" lon="6.224531"><ele>798.5</ele><time>2026-05-01T10:16:28.398Z</time></trkpt><trkpt lat="44.5586465" lon="6.2242165"><ele>797.0</ele><time>2026-05-01T10:16:29.399Z</time></trkpt><trkpt lat="44.5586919" lon="6.2239083"><ele>799.3333333333334</ele><time>2026-05-01T10:16:30.398Z</time></trkpt><trkpt lat="44.5587372" lon="6.2236055"><ele>801.6666666666667</ele><time>2026-05-01T10:16:31.399Z</time></trkpt><trkpt lat="44.5587834" lon="6.2233168"><ele>804.0</ele><time>2026-05-01T10:16:32.398Z</time></trkpt><trkpt lat="44.5588283" lon="6.2230382"><ele>804.3333333333333</ele><time>2026-05-01T10:16:33.398Z</time></trkpt><trkpt lat="44.5588711" lon="6.2227696"><ele>804.6666666666666</ele><time>2026-05-01T10:16:34.398Z</time></trkpt><trkpt lat="44.5589128" lon="6.2225069"><ele>805.0</ele><time>2026-05-01T10:16:35.398Z</time></trkpt><trkpt lat="44.558954" lon="6.2222394"><ele>805.3333333333333</ele><time>2026-05-01T10:16:36.398Z</time></trkpt><trkpt lat="44.558996" lon="6.2219637"><ele>805.6666666666667</ele><time>2026-05-01T10:16:37.398Z</time></trkpt><trkpt lat="44.5590399" lon="6.2216822"><ele>806.0</ele><time>2026-05-01T10:16:38.398Z</time></trkpt><trkpt lat="44.5590824" lon="6.221395"><ele>806.0</ele><time>2026-05-01T10:16:39.398Z</time></trkpt><trkpt lat="44.5591225" lon="6.2211036"><ele>806.0</ele><time>2026-05-01T10:16:40.398Z</time></trkpt><trkpt lat="44.5591614" lon="6.2208135"><ele>806.0</ele><time>2026-05-01T10:16:41.398Z</time></trkpt><trkpt lat="44.5591987" lon="6.220526"><ele>806.0</ele><time>2026-05-01T10:16:42.398Z</time></trkpt><trkpt lat="44.5592346" lon="6.2202405"><ele>806.0</ele><time>2026-05-01T10:16:43.398Z</time></trkpt><trkpt lat="44.5592728" lon="6.2199572"><ele>806.0</ele><time>2026-05-01T10:16:44.399Z</time></trkpt><trkpt lat="44.5593106" lon="6.2196739"><ele>806.0</ele><time>2026-05-01T10:16:45.399Z</time></trkpt><trkpt lat="44.559349" lon="6.2193885"><ele>806.0</ele><time>2026-05-01T10:16:46.398Z</time></trkpt><trkpt lat="44.5593863" lon="6.2191011"><ele>806.0</ele><time>2026-05-01T10:16:47.398Z</time></trkpt><trkpt lat="44.5594255" lon="6.2188102"><ele>806.6666666666667</ele><time>2026-05-01T10:16:48.398Z</time></trkpt><trkpt lat="44.5594667" lon="6.2185121"><ele>807.3333333333333</ele><time>2026-05-01T10:16:49.398Z</time></trkpt><trkpt lat="44.559509" lon="6.2182086"><ele>808.0</ele><time>2026-05-01T10:16:50.398Z</time></trkpt><trkpt lat="44.5595528" lon="6.2179005"><ele>813.5</ele><time>2026-05-01T10:16:51.398Z</time></trkpt><trkpt lat="44.5595959" lon="6.2175892"><ele>819.0</ele><time>2026-05-01T10:16:52.398Z</time></trkpt><trkpt lat="44.5596383" lon="6.2172742"><ele>819.0</ele><time>2026-05-01T10:16:53.397Z</time></trkpt><trkpt lat="44.5596811" lon="6.2169617"><ele>819.0</ele><time>2026-05-01T10:16:54.397Z</time></trkpt><trkpt lat="44.5597229" lon="6.2166536"><ele>820.0</ele><time>2026-05-01T10:16:55.398Z</time></trkpt><trkpt lat="44.5597644" lon="6.2163555"><ele>821.0</ele><time>2026-05-01T10:16:56.397Z</time></trkpt><trkpt lat="44.559805" lon="6.216071"><ele>822.0</ele><time>2026-05-01T10:16:57.397Z</time></trkpt><trkpt lat="44.5598436" lon="6.2157852"><ele>822.3333333333333</ele><time>2026-05-01T10:16:58.397Z</time></trkpt><trkpt lat="44.5598823" lon="6.2154968"><ele>822.6666666666666</ele><time>2026-05-01T10:16:59.397Z</time></trkpt><trkpt lat="44.5599235" lon="6.215209"><ele>823.0</ele><time>2026-05-01T10:17:00.398Z</time></trkpt><trkpt lat="44.5599652" lon="6.2149198"><ele>824.0</ele><time>2026-05-01T10:17:01.398Z</time></trkpt><trkpt lat="44.5600088" lon="6.2146257"><ele>825.0</ele><time>2026-05-01T10:17:02.397Z</time></trkpt><trkpt lat="44.5600551" lon="6.2143312"><ele>826.0</ele><time>2026-05-01T10:17:03.397Z</time></trkpt><trkpt lat="44.5601082" lon="6.2140401"><ele>826.0</ele><time>2026-05-01T10:17:04.397Z</time></trkpt><trkpt lat="44.5601709" lon="6.213754"><ele>826.0</ele><time>2026-05-01T10:17:05.397Z</time></trkpt><trkpt lat="44.5602415" lon="6.2134713"><ele>826.0</ele><time>2026-05-01T10:17:06.397Z</time></trkpt><trkpt lat="44.5603197" lon="6.21319"><ele>828.0</ele><time>2026-05-01T10:17:07.398Z</time></trkpt><trkpt lat="44.5604036" lon="6.2129101"><ele>830.0</ele><time>2026-05-01T10:17:08.397Z</time></trkpt><trkpt lat="44.5604914" lon="6.2126308"><ele>832.0</ele><time>2026-05-01T10:17:09.397Z</time></trkpt><trkpt lat="44.5605863" lon="6.2123548"><ele>832.3333333333333</ele><time>2026-05-01T10:17:10.398Z</time></trkpt><trkpt lat="44.560688" lon="6.2120824"><ele>832.6666666666667</ele><time>2026-05-01T10:17:11.397Z</time></trkpt><trkpt lat="44.5607964" lon="6.2118126"><ele>833.0</ele><time>2026-05-01T10:17:12.398Z</time></trkpt><trkpt lat="44.5609095" lon="6.2115438"><ele>833.0</ele><time>2026-05-01T10:17:13.397Z</time></trkpt><trkpt lat="44.5610253" lon="6.2112726"><ele>833.0</ele><time>2026-05-01T10:17:14.397Z</time></trkpt><trkpt lat="44.5611418" lon="6.2110001"><ele>834.5</ele><time>2026-05-01T10:17:15.397Z</time></trkpt><trkpt lat="44.5612557" lon="6.2107209"><ele>836.0</ele><time>2026-05-01T10:17:16.398Z</time></trkpt><trkpt lat="44.5613651" lon="6.2104322"><ele>836.0</ele><time>2026-05-01T10:17:17.397Z</time></trkpt><trkpt lat="44.5614699" lon="6.2101296"><ele>836.0</ele><time>2026-05-01T10:17:18.397Z</time></trkpt><trkpt lat="44.5615672" lon="6.2098133"><ele>837.0</ele><time>2026-05-01T10:17:19.397Z</time></trkpt><trkpt lat="44.5616562" lon="6.2094807"><ele>838.0</ele><time>2026-05-01T10:17:20.397Z</time></trkpt><trkpt lat="44.5617348" lon="6.2091327"><ele>839.5</ele><time>2026-05-01T10:17:21.397Z</time></trkpt><trkpt lat="44.561799" lon="6.2087763"><ele>841.0</ele><time>2026-05-01T10:17:22.397Z</time></trkpt><trkpt lat="44.5618508" lon="6.2084311"><ele>842.0</ele><time>2026-05-01T10:17:23.397Z</time></trkpt><trkpt lat="44.5618978" lon="6.2080978"><ele>843.0</ele><time>2026-05-01T10:17:24.397Z</time></trkpt><trkpt lat="44.561941" lon="6.2077787"><ele>843.0</ele><time>2026-05-01T10:17:25.397Z</time></trkpt><trkpt lat="44.5619799" lon="6.2074709"><ele>843.0</ele><time>2026-05-01T10:17:26.397Z</time></trkpt><trkpt lat="44.5620145" lon="6.207168"><ele>843.0</ele><time>2026-05-01T10:17:27.397Z</time></trkpt><trkpt lat="44.5620495" lon="6.2068607"><ele>844.6666666666667</ele><time>2026-05-01T10:17:28.397Z</time></trkpt><trkpt lat="44.5620861" lon="6.2065548"><ele>846.3333333333334</ele><time>2026-05-01T10:17:29.397Z</time></trkpt><trkpt lat="44.5621217" lon="6.206253"><ele>848.0</ele><time>2026-05-01T10:17:30.397Z</time></trkpt><trkpt lat="44.5621553" lon="6.2059535"><ele>847.3333333333334</ele><time>2026-05-01T10:17:31.398Z</time></trkpt><trkpt lat="44.5621899" lon="6.2056534"><ele>846.6666666666667</ele><time>2026-05-01T10:17:32.397Z</time></trkpt><trkpt lat="44.562225" lon="6.2053501"><ele>846.0</ele><time>2026-05-01T10:17:33.397Z</time></trkpt><trkpt lat="44.5622619" lon="6.2050442"><ele>845.5</ele><time>2026-05-01T10:17:34.397Z</time></trkpt><trkpt lat="44.5623001" lon="6.2047331"><ele>845.0</ele><time>2026-05-01T10:17:35.397Z</time></trkpt><trkpt lat="44.5623377" lon="6.2044153"><ele>845.0</ele><time>2026-05-01T10:17:36.397Z</time></trkpt><trkpt lat="44.5623776" lon="6.2040911"><ele>845.0</ele><time>2026-05-01T10:17:37.397Z</time></trkpt><trkpt lat="44.5624168" lon="6.2037642"><ele>845.0</ele><time>2026-05-01T10:17:38.398Z</time></trkpt><trkpt lat="44.5624567" lon="6.2034382"><ele>845.0</ele><time>2026-05-01T10:17:39.397Z</time></trkpt><trkpt lat="44.5624945" lon="6.2031223"><ele>844.6666666666667</ele><time>2026-05-01T10:17:40.397Z</time></trkpt><trkpt lat="44.5625291" lon="6.2028134"><ele>844.3333333333333</ele><time>2026-05-01T10:17:41.397Z</time></trkpt><trkpt lat="44.5625642" lon="6.2025041"><ele>844.0</ele><time>2026-05-01T10:17:42.397Z</time></trkpt><trkpt lat="44.5626004" lon="6.2021935"><ele>844.6666666666666</ele><time>2026-05-01T10:17:43.397Z</time></trkpt><trkpt lat="44.5626382" lon="6.2018918"><ele>845.3333333333333</ele><time>2026-05-01T10:17:44.397Z</time></trkpt><trkpt lat="44.5626725" lon="6.2015991"><ele>846.0</ele><time>2026-05-01T10:17:45.397Z</time></trkpt><trkpt lat="44.5627085" lon="6.2013132"><ele>847.0</ele><time>2026-05-01T10:17:46.397Z</time></trkpt><trkpt lat="44.562744" lon="6.2010279"><ele>848.0</ele><time>2026-05-01T10:17:47.397Z</time></trkpt><trkpt lat="44.5627816" lon="6.2007407"><ele>849.0</ele><time>2026-05-01T10:17:48.397Z</time></trkpt><trkpt lat="44.5628177" lon="6.2004576"><ele>849.0</ele><time>2026-05-01T10:17:49.397Z</time></trkpt><trkpt lat="44.5628541" lon="6.2001744"><ele>849.0</ele><time>2026-05-01T10:17:50.397Z</time></trkpt><trkpt lat="44.5628894" lon="6.1998913"><ele>849.0</ele><time>2026-05-01T10:17:51.397Z</time></trkpt><trkpt lat="44.5629231" lon="6.1996072"><ele>851.3333333333333</ele><time>2026-05-01T10:17:52.397Z</time></trkpt><trkpt lat="44.562956" lon="6.199322"><ele>853.6666666666666</ele><time>2026-05-01T10:17:53.397Z</time></trkpt><trkpt lat="44.5629911" lon="6.1990348"><ele>856.0</ele><time>2026-05-01T10:17:54.398Z</time></trkpt><trkpt lat="44.563029" lon="6.1987491"><ele>856.0</ele><time>2026-05-01T10:17:55.398Z</time></trkpt><trkpt lat="44.5630686" lon="6.1984664"><ele>856.0</ele><time>2026-05-01T10:17:56.398Z</time></trkpt><trkpt lat="44.5631092" lon="6.1981855"><ele>856.0</ele><time>2026-05-01T10:17:57.398Z</time></trkpt><trkpt lat="44.5631552" lon="6.1979062"><ele>856.0</ele><time>2026-05-01T10:17:58.397Z</time></trkpt><trkpt lat="44.5632092" lon="6.1976285"><ele>856.0</ele><time>2026-05-01T10:17:59.397Z</time></trkpt><trkpt lat="44.5632702" lon="6.1973514"><ele>856.0</ele><time>2026-05-01T10:18:00.397Z</time></trkpt><trkpt lat="44.5633376" lon="6.1970756"><ele>856.3333333333333</ele><time>2026-05-01T10:18:01.399Z</time></trkpt><trkpt lat="44.5634133" lon="6.1967975"><ele>856.6666666666667</ele><time>2026-05-01T10:18:02.397Z</time></trkpt><trkpt lat="44.563497" lon="6.1965198"><ele>857.0</ele><time>2026-05-01T10:18:03.397Z</time></trkpt><trkpt lat="44.5635861" lon="6.1962399"><ele>857.3333333333334</ele><time>2026-05-01T10:18:04.397Z</time></trkpt><trkpt lat="44.5636819" lon="6.1959599"><ele>857.6666666666667</ele><time>2026-05-01T10:18:05.397Z</time></trkpt><trkpt lat="44.5637828" lon="6.1956857"><ele>858.0</ele><time>2026-05-01T10:18:06.397Z</time></trkpt><trkpt lat="44.5638869" lon="6.1954205"><ele>858.0</ele><time>2026-05-01T10:18:07.397Z</time></trkpt><trkpt lat="44.5639933" lon="6.1951603"><ele>858.0</ele><time>2026-05-01T10:18:08.397Z</time></trkpt><trkpt lat="44.5640909" lon="6.1949209"><ele>858.0</ele><time>2026-05-01T10:18:09.397Z</time></trkpt><trkpt lat="44.564176" lon="6.1947095"><ele>858.6666666666667</ele><time>2026-05-01T10:18:10.397Z</time></trkpt><trkpt lat="44.564256" lon="6.1945102"><ele>859.3333333333334</ele><time>2026-05-01T10:18:11.397Z</time></trkpt><trkpt lat="44.5643356" lon="6.1943162"><ele>860.0</ele><time>2026-05-01T10:18:12.397Z</time></trkpt><trkpt lat="44.5644163" lon="6.194126"><ele>860.3333333333334</ele><time>2026-05-01T10:18:13.397Z</time></trkpt><trkpt lat="44.5644945" lon="6.1939388"><ele>860.6666666666667</ele><time>2026-05-01T10:18:14.398Z</time></trkpt><trkpt lat="44.5645718" lon="6.1937485"><ele>861.0</ele><time>2026-05-01T10:18:15.397Z</time></trkpt><trkpt lat="44.5646506" lon="6.1935527"><ele>860.6666666666667</ele><time>2026-05-01T10:18:16.397Z</time></trkpt><trkpt lat="44.5647325" lon="6.1933537"><ele>860.3333333333334</ele><time>2026-05-01T10:18:17.397Z</time></trkpt><trkpt lat="44.56482" lon="6.1931466"><ele>860.0</ele><time>2026-05-01T10:18:18.397Z</time></trkpt><trkpt lat="44.5649096" lon="6.1929332"><ele>860.0</ele><time>2026-05-01T10:18:19.398Z</time></trkpt><trkpt lat="44.5650022" lon="6.1927123"><ele>860.0</ele><time>2026-05-01T10:18:20.397Z</time></trkpt><trkpt lat="44.565099" lon="6.1924816"><ele>860.0</ele><time>2026-05-01T10:18:21.397Z</time></trkpt><trkpt lat="44.565199" lon="6.1922451"><ele>860.0</ele><time>2026-05-01T10:18:22.397Z</time></trkpt><trkpt lat="44.5653022" lon="6.1920059"><ele>860.0</ele><time>2026-05-01T10:18:23.398Z</time></trkpt><trkpt lat="44.5654108" lon="6.1917607"><ele>860.0</ele><time>2026-05-01T10:18:24.397Z</time></trkpt><trkpt lat="44.5655273" lon="6.1915134"><ele>860.3333333333334</ele><time>2026-05-01T10:18:25.397Z</time></trkpt><trkpt lat="44.5656523" lon="6.1912738"><ele>860.6666666666667</ele><time>2026-05-01T10:18:26.398Z</time></trkpt><trkpt lat="44.5657829" lon="6.1910477"><ele>861.0</ele><time>2026-05-01T10:18:27.397Z</time></trkpt><trkpt lat="44.5659203" lon="6.1908339"><ele>861.0</ele><time>2026-05-01T10:18:28.398Z</time></trkpt><trkpt lat="44.5660666" lon="6.1906285"><ele>861.0</ele><time>2026-05-01T10:18:29.398Z</time></trkpt><trkpt lat="44.5662201" lon="6.1904297"><ele>861.0</ele><time>2026-05-01T10:18:30.397Z</time></trkpt><trkpt lat="44.5663798" lon="6.1902388"><ele>861.0</ele><time>2026-05-01T10:18:31.397Z</time></trkpt><trkpt lat="44.5665458" lon="6.1900542"><ele>861.0</ele><time>2026-05-01T10:18:32.398Z</time></trkpt><trkpt lat="44.5667173" lon="6.1898749"><ele>861.0</ele><time>2026-05-01T10:18:33.397Z</time></trkpt><trkpt lat="44.5668926" lon="6.1896977"><ele>858.6666666666667</ele><time>2026-05-01T10:18:34.398Z</time></trkpt><trkpt lat="44.5670698" lon="6.1895242"><ele>856.3333333333334</ele><time>2026-05-01T10:18:35.397Z</time></trkpt><trkpt lat="44.5672447" lon="6.18935"><ele>854.0</ele><time>2026-05-01T10:18:36.398Z</time></trkpt><trkpt lat="44.5674185" lon="6.1891723"><ele>853.3333333333334</ele><time>2026-05-01T10:18:37.398Z</time></trkpt><trkpt lat="44.5675933" lon="6.1889899"><ele>852.6666666666667</ele><time>2026-05-01T10:18:38.397Z</time></trkpt><trkpt lat="44.5677632" lon="6.1887998"><ele>852.0</ele><time>2026-05-01T10:18:39.397Z</time></trkpt><trkpt lat="44.5679242" lon="6.1885995"><ele>852.0</ele><time>2026-05-01T10:18:40.398Z</time></trkpt><trkpt lat="44.5680759" lon="6.1883907"><ele>852.0</ele><time>2026-05-01T10:18:41.397Z</time></trkpt><trkpt lat="44.5682235" lon="6.1881698"><ele>852.0</ele><time>2026-05-01T10:18:42.397Z</time></trkpt><trkpt lat="44.5683646" lon="6.1879367"><ele>851.6666666666667</ele><time>2026-05-01T10:18:43.398Z</time></trkpt><trkpt lat="44.5684977" lon="6.1876914"><ele>851.3333333333334</ele><time>2026-05-01T10:18:44.397Z</time></trkpt><trkpt lat="44.5686234" lon="6.1874349"><ele>851.0</ele><time>2026-05-01T10:18:45.397Z</time></trkpt><trkpt lat="44.5687373" lon="6.1871746"><ele>850.6666666666667</ele><time>2026-05-01T10:18:46.398Z</time></trkpt><trkpt lat="44.568834" lon="6.1869217"><ele>850.3333333333333</ele><time>2026-05-01T10:18:47.397Z</time></trkpt><trkpt lat="44.5689181" lon="6.1866782"><ele>850.0</ele><time>2026-05-01T10:18:48.397Z</time></trkpt><trkpt lat="44.5689863" lon="6.1864506"><ele>850.0</ele><time>2026-05-01T10:18:49.398Z</time></trkpt><trkpt lat="44.5690452" lon="6.186225"><ele>850.0</ele><time>2026-05-01T10:18:50.397Z</time></trkpt><trkpt lat="44.5690981" lon="6.1859971"><ele>850.0</ele><time>2026-05-01T10:18:51.397Z</time></trkpt><trkpt lat="44.569145" lon="6.1857592"><ele>849.3333333333333</ele><time>2026-05-01T10:18:52.397Z</time></trkpt><trkpt lat="44.5691918" lon="6.1855089"><ele>848.6666666666667</ele><time>2026-05-01T10:18:53.397Z</time></trkpt><trkpt lat="44.5692364" lon="6.1852489"><ele>848.0</ele><time>2026-05-01T10:18:54.397Z</time></trkpt><trkpt lat="44.5692779" lon="6.1849938"><ele>847.0</ele><time>2026-05-01T10:18:55.397Z</time></trkpt><trkpt lat="44.5693195" lon="6.1847392"><ele>846.0</ele><time>2026-05-01T10:18:56.398Z</time></trkpt><trkpt lat="44.56936" lon="6.1844913"><ele>845.0</ele><time>2026-05-01T10:18:57.398Z</time></trkpt><trkpt lat="44.5693992" lon="6.1842473"><ele>845.6666666666667</ele><time>2026-05-01T10:18:58.397Z</time></trkpt><trkpt lat="44.5694386" lon="6.1840092"><ele>846.3333333333333</ele><time>2026-05-01T10:18:59.398Z</time></trkpt><trkpt lat="44.5694823" lon="6.1837801"><ele>847.0</ele><time>2026-05-01T10:19:00.398Z</time></trkpt><trkpt lat="44.5695254" lon="6.1835621"><ele>847.0</ele><time>2026-05-01T10:19:01.397Z</time></trkpt><trkpt lat="44.5695697" lon="6.1833542"><ele>847.0</ele><time>2026-05-01T10:19:02.397Z</time></trkpt><trkpt lat="44.5696156" lon="6.183151"><ele>847.0</ele><time>2026-05-01T10:19:03.397Z</time></trkpt><trkpt lat="44.5696661" lon="6.1829474"><ele>846.6666666666666</ele><time>2026-05-01T10:19:04.397Z</time></trkpt><trkpt lat="44.5697242" lon="6.1827349"><ele>846.3333333333333</ele><time>2026-05-01T10:19:05.397Z</time></trkpt><trkpt lat="44.5697882" lon="6.182511"><ele>846.0</ele><time>2026-05-01T10:19:06.397Z</time></trkpt><trkpt lat="44.5698583" lon="6.1822806"><ele>846.0</ele><time>2026-05-01T10:19:07.397Z</time></trkpt><trkpt lat="44.5699368" lon="6.1820463"><ele>846.0</ele><time>2026-05-01T10:19:08.397Z</time></trkpt><trkpt lat="44.5700202" lon="6.1818068"><ele>846.0</ele><time>2026-05-01T10:19:09.397Z</time></trkpt><trkpt lat="44.5701079" lon="6.1815699"><ele>846.3333333333333</ele><time>2026-05-01T10:19:10.397Z</time></trkpt><trkpt lat="44.5701944" lon="6.181338"><ele>846.6666666666666</ele><time>2026-05-01T10:19:11.398Z</time></trkpt><trkpt lat="44.5702787" lon="6.1811066"><ele>847.0</ele><time>2026-05-01T10:19:12.398Z</time></trkpt><trkpt lat="44.5703652" lon="6.1808772"><ele>847.6666666666666</ele><time>2026-05-01T10:19:13.398Z</time></trkpt><trkpt lat="44.5704529" lon="6.1806438"><ele>848.3333333333333</ele><time>2026-05-01T10:19:14.397Z</time></trkpt><trkpt lat="44.5705431" lon="6.1804163"><ele>849.0</ele><time>2026-05-01T10:19:15.397Z</time></trkpt><trkpt lat="44.5706305" lon="6.1801893"><ele>849.0</ele><time>2026-05-01T10:19:16.397Z</time></trkpt><trkpt lat="44.5707156" lon="6.1799647"><ele>849.0</ele><time>2026-05-01T10:19:17.398Z</time></trkpt><trkpt lat="44.5707958" lon="6.1797474"><ele>849.0</ele><time>2026-05-01T10:19:18.397Z</time></trkpt><trkpt lat="44.5708733" lon="6.1795395"><ele>848.6666666666667</ele><time>2026-05-01T10:19:19.397Z</time></trkpt><trkpt lat="44.5709478" lon="6.1793407"><ele>848.3333333333334</ele><time>2026-05-01T10:19:20.397Z</time></trkpt><trkpt lat="44.5710205" lon="6.1791433"><ele>848.0</ele><time>2026-05-01T10:19:21.398Z</time></trkpt><trkpt lat="44.5710945" lon="6.1789466"><ele>848.0</ele><time>2026-05-01T10:19:22.399Z</time></trkpt><trkpt lat="44.5711707" lon="6.1787459"><ele>848.0</ele><time>2026-05-01T10:19:23.397Z</time></trkpt><trkpt lat="44.5712491" lon="6.178538"><ele>848.0</ele><time>2026-05-01T10:19:24.397Z</time></trkpt><trkpt lat="44.5713299" lon="6.1783239"><ele>847.6666666666667</ele><time>2026-05-01T10:19:25.397Z</time></trkpt><trkpt lat="44.5714132" lon="6.178104"><ele>847.3333333333333</ele><time>2026-05-01T10:19:26.397Z</time></trkpt><trkpt lat="44.5715" lon="6.1778796"><ele>847.0</ele><time>2026-05-01T10:19:27.398Z</time></trkpt><trkpt lat="44.5715883" lon="6.1776485"><ele>847.0</ele><time>2026-05-01T10:19:28.397Z</time></trkpt><trkpt lat="44.5716784" lon="6.1774083"><ele>847.0</ele><time>2026-05-01T10:19:29.398Z</time></trkpt><trkpt lat="44.5717676" lon="6.1771656"><ele>847.0</ele><time>2026-05-01T10:19:30.397Z</time></trkpt><trkpt lat="44.5718603" lon="6.1769169"><ele>846.6666666666666</ele><time>2026-05-01T10:19:31.397Z</time></trkpt><trkpt lat="44.5719552" lon="6.1766648"><ele>846.3333333333333</ele><time>2026-05-01T10:19:32.397Z</time></trkpt><trkpt lat="44.57205" lon="6.1764091"><ele>846.0</ele><time>2026-05-01T10:19:33.397Z</time></trkpt><trkpt lat="44.5721458" lon="6.1761482"><ele>846.0</ele><time>2026-05-01T10:19:34.397Z</time></trkpt><trkpt lat="44.5722445" lon="6.1758851"><ele>846.0</ele><time>2026-05-01T10:19:35.397Z</time></trkpt><trkpt lat="44.5723453" lon="6.1756178"><ele>846.0</ele><time>2026-05-01T10:19:36.397Z</time></trkpt><trkpt lat="44.5724464" lon="6.1753465"><ele>845.6666666666667</ele><time>2026-05-01T10:19:37.397Z</time></trkpt><trkpt lat="44.5725484" lon="6.1750709"><ele>845.3333333333334</ele><time>2026-05-01T10:19:38.398Z</time></trkpt><trkpt lat="44.5726527" lon="6.1747919"><ele>845.0</ele><time>2026-05-01T10:19:39.397Z</time></trkpt><trkpt lat="44.5727574" lon="6.17451"><ele>845.5</ele><time>2026-05-01T10:19:40.397Z</time></trkpt><trkpt lat="44.5728623" lon="6.1742247"><ele>846.0</ele><time>2026-05-01T10:19:41.397Z</time></trkpt><trkpt lat="44.5729669" lon="6.173941"><ele>846.0</ele><time>2026-05-01T10:19:42.397Z</time></trkpt><trkpt lat="44.5730702" lon="6.1736629"><ele>846.0</ele><time>2026-05-01T10:19:43.398Z</time></trkpt><trkpt lat="44.5731745" lon="6.1733861"><ele>846.0</ele><time>2026-05-01T10:19:44.397Z</time></trkpt><trkpt lat="44.5732794" lon="6.1731102"><ele>845.0</ele><time>2026-05-01T10:19:45.397Z</time></trkpt><trkpt lat="44.5733832" lon="6.1728402"><ele>844.0</ele><time>2026-05-01T10:19:46.397Z</time></trkpt><trkpt lat="44.5734833" lon="6.1725728"><ele>843.0</ele><time>2026-05-01T10:19:47.397Z</time></trkpt><trkpt lat="44.5735823" lon="6.1723037"><ele>842.6666666666667</ele><time>2026-05-01T10:19:48.397Z</time></trkpt><trkpt lat="44.573682" lon="6.1720312"><ele>842.3333333333334</ele><time>2026-05-01T10:19:49.397Z</time></trkpt><trkpt lat="44.5737841" lon="6.1717568"><ele>842.0</ele><time>2026-05-01T10:19:50.397Z</time></trkpt><trkpt lat="44.5738883" lon="6.1714796"><ele>841.5</ele><time>2026-05-01T10:19:51.397Z</time></trkpt><trkpt lat="44.573994" lon="6.1711981"><ele>841.0</ele><time>2026-05-01T10:19:52.397Z</time></trkpt><trkpt lat="44.5741014" lon="6.1709126"><ele>840.5</ele><time>2026-05-01T10:19:53.397Z</time></trkpt><trkpt lat="44.5742097" lon="6.170622"><ele>840.0</ele><time>2026-05-01T10:19:54.397Z</time></trkpt><trkpt lat="44.5743202" lon="6.1703279"><ele>840.0</ele><time>2026-05-01T10:19:55.397Z</time></trkpt><trkpt lat="44.574431" lon="6.1700284"><ele>840.0</ele><time>2026-05-01T10:19:56.397Z</time></trkpt><trkpt lat="44.5745412" lon="6.1697253"><ele>840.0</ele><time>2026-05-01T10:19:57.397Z</time></trkpt><trkpt lat="44.574651" lon="6.169425"><ele>840.0</ele><time>2026-05-01T10:19:58.397Z</time></trkpt><trkpt lat="44.5747607" lon="6.1691303"><ele>839.5</ele><time>2026-05-01T10:19:59.397Z</time></trkpt><trkpt lat="44.5748685" lon="6.1688394"><ele>839.0</ele><time>2026-05-01T10:20:00.397Z</time></trkpt><trkpt lat="44.5749763" lon="6.1685483"><ele>839.0</ele><time>2026-05-01T10:20:01.398Z</time></trkpt><trkpt lat="44.5750854" lon="6.1682535"><ele>839.0</ele><time>2026-05-01T10:20:02.397Z</time></trkpt><trkpt lat="44.5751958" lon="6.1679543"><ele>838.5</ele><time>2026-05-01T10:20:03.397Z</time></trkpt><trkpt lat="44.5753054" lon="6.167654"><ele>838.0</ele><time>2026-05-01T10:20:04.397Z</time></trkpt><trkpt lat="44.5754133" lon="6.1673528"><ele>838.0</ele><time>2026-05-01T10:20:05.398Z</time></trkpt><trkpt lat="44.5755247" lon="6.167052"><ele>838.0</ele><time>2026-05-01T10:20:06.397Z</time></trkpt><trkpt lat="44.5756424" lon="6.1667524"><ele>837.3333333333333</ele><time>2026-05-01T10:20:07.397Z</time></trkpt><trkpt lat="44.5757511" lon="6.1664725"><ele>836.6666666666667</ele><time>2026-05-01T10:20:08.397Z</time></trkpt><trkpt lat="44.5758539" lon="6.1662043"><ele>836.0</ele><time>2026-05-01T10:20:09.397Z</time></trkpt><trkpt lat="44.5759521" lon="6.16595"><ele>836.0</ele><time>2026-05-01T10:20:10.397Z</time></trkpt><trkpt lat="44.576047" lon="6.1657025"><ele>836.0</ele><time>2026-05-01T10:20:11.397Z</time></trkpt><trkpt lat="44.5761385" lon="6.165465"><ele>836.0</ele><time>2026-05-01T10:20:12.397Z</time></trkpt><trkpt lat="44.5762223" lon="6.1652495"><ele>836.0</ele><time>2026-05-01T10:20:13.397Z</time></trkpt><trkpt lat="44.5762982" lon="6.1650452"><ele>836.0</ele><time>2026-05-01T10:20:14.398Z</time></trkpt><trkpt lat="44.5763725" lon="6.1648394"><ele>836.0</ele><time>2026-05-01T10:20:15.397Z</time></trkpt><trkpt lat="44.5764477" lon="6.1646309"><ele>835.3333333333334</ele><time>2026-05-01T10:20:16.397Z</time></trkpt><trkpt lat="44.5765268" lon="6.1644165"><ele>834.6666666666667</ele><time>2026-05-01T10:20:17.398Z</time></trkpt><trkpt lat="44.576602" lon="6.1641936"><ele>834.0</ele><time>2026-05-01T10:20:18.397Z</time></trkpt><trkpt lat="44.5766763" lon="6.1639562"><ele>833.6666666666667</ele><time>2026-05-01T10:20:19.397Z</time></trkpt><trkpt lat="44.576752" lon="6.1637058"><ele>833.3333333333334</ele><time>2026-05-01T10:20:20.397Z</time></trkpt><trkpt lat="44.5768241" lon="6.163445"><ele>833.0</ele><time>2026-05-01T10:20:21.397Z</time></trkpt><trkpt lat="44.5768856" lon="6.1631776"><ele>833.0</ele><time>2026-05-01T10:20:22.397Z</time></trkpt><trkpt lat="44.5769349" lon="6.1629119"><ele>833.0</ele><time>2026-05-01T10:20:23.397Z</time></trkpt><trkpt lat="44.5769755" lon="6.162643"><ele>833.0</ele><time>2026-05-01T10:20:24.399Z</time></trkpt><trkpt lat="44.5770094" lon="6.1623626"><ele>834.6666666666667</ele><time>2026-05-01T10:20:25.397Z</time></trkpt><trkpt lat="44.577036" lon="6.1620815"><ele>836.3333333333333</ele><time>2026-05-01T10:20:26.397Z</time></trkpt><trkpt lat="44.5770569" lon="6.1618038"><ele>838.0</ele><time>2026-05-01T10:20:27.397Z</time></trkpt><trkpt lat="44.5770704" lon="6.161529"><ele>838.0</ele><time>2026-05-01T10:20:28.397Z</time></trkpt><trkpt lat="44.5770806" lon="6.1612496"><ele>838.0</ele><time>2026-05-01T10:20:29.398Z</time></trkpt><trkpt lat="44.577088" lon="6.1609696"><ele>838.0</ele><time>2026-05-01T10:20:30.399Z</time></trkpt><trkpt lat="44.5770941" lon="6.1606867"><ele>837.0</ele><time>2026-05-01T10:20:31.397Z</time></trkpt><trkpt lat="44.5771005" lon="6.160408"><ele>836.0</ele><time>2026-05-01T10:20:32.398Z</time></trkpt><trkpt lat="44.5771068" lon="6.160134"><ele>835.0</ele><time>2026-05-01T10:20:33.397Z</time></trkpt><trkpt lat="44.5771119" lon="6.1598607"><ele>834.3333333333333</ele><time>2026-05-01T10:20:34.397Z</time></trkpt><trkpt lat="44.5771175" lon="6.159585"><ele>833.6666666666667</ele><time>2026-05-01T10:20:35.398Z</time></trkpt><trkpt lat="44.5771243" lon="6.1593129"><ele>833.0</ele><time>2026-05-01T10:20:36.398Z</time></trkpt><trkpt lat="44.577132" lon="6.1590447"><ele>833.0</ele><time>2026-05-01T10:20:37.397Z</time></trkpt><trkpt lat="44.577138" lon="6.1587811"><ele>833.0</ele><time>2026-05-01T10:20:38.398Z</time></trkpt><trkpt lat="44.5771438" lon="6.1585234"><ele>833.0</ele><time>2026-05-01T10:20:39.397Z</time></trkpt><trkpt lat="44.5771489" lon="6.1582643"><ele>832.6666666666667</ele><time>2026-05-01T10:20:40.397Z</time></trkpt><trkpt lat="44.5771538" lon="6.1580093"><ele>832.3333333333333</ele><time>2026-05-01T10:20:41.397Z</time></trkpt><trkpt lat="44.5771577" lon="6.1577599"><ele>832.0</ele><time>2026-05-01T10:20:42.397Z</time></trkpt><trkpt lat="44.5771633" lon="6.1575064"><ele>831.6666666666666</ele><time>2026-05-01T10:20:43.398Z</time></trkpt><trkpt lat="44.5771694" lon="6.1572504"><ele>831.3333333333333</ele><time>2026-05-01T10:20:44.397Z</time></trkpt><trkpt lat="44.5771736" lon="6.1569967"><ele>831.0</ele><time>2026-05-01T10:20:45.397Z</time></trkpt><trkpt lat="44.5771775" lon="6.1567376"><ele>830.3333333333333</ele><time>2026-05-01T10:20:46.397Z</time></trkpt><trkpt lat="44.5771829" lon="6.1564784"><ele>829.6666666666666</ele><time>2026-05-01T10:20:47.397Z</time></trkpt><trkpt lat="44.5771887" lon="6.1562222"><ele>829.0</ele><time>2026-05-01T10:20:48.397Z</time></trkpt><trkpt lat="44.5771931" lon="6.1559679"><ele>829.0</ele><time>2026-05-01T10:20:49.397Z</time></trkpt><trkpt lat="44.5771984" lon="6.1557166"><ele>829.0</ele><time>2026-05-01T10:20:50.397Z</time></trkpt><trkpt lat="44.5772045" lon="6.1554779"><ele>829.0</ele><time>2026-05-01T10:20:51.397Z</time></trkpt><trkpt lat="44.5772102" lon="6.1552552"><ele>829.25</ele><time>2026-05-01T10:20:52.397Z</time></trkpt><trkpt lat="44.5772147" lon="6.1550593"><ele>829.5</ele><time>2026-05-01T10:20:53.397Z</time></trkpt><trkpt lat="44.5772177" lon="6.1548823"><ele>829.75</ele><time>2026-05-01T10:20:54.398Z</time></trkpt><trkpt lat="44.5772208" lon="6.1547091"><ele>830.0</ele><time>2026-05-01T10:20:55.397Z</time></trkpt><trkpt lat="44.5772256" lon="6.1545391"><ele>829.5</ele><time>2026-05-01T10:20:56.397Z</time></trkpt><trkpt lat="44.5772311" lon="6.1543644"><ele>829.0</ele><time>2026-05-01T10:20:57.398Z</time></trkpt><trkpt lat="44.5772355" lon="6.1541842"><ele>828.5</ele><time>2026-05-01T10:20:58.397Z</time></trkpt><trkpt lat="44.5772381" lon="6.1539985"><ele>828.0</ele><time>2026-05-01T10:20:59.397Z</time></trkpt><trkpt lat="44.5772373" lon="6.1538113"><ele>828.0</ele><time>2026-05-01T10:21:00.397Z</time></trkpt><trkpt lat="44.577241" lon="6.1536245"><ele>828.0</ele><time>2026-05-01T10:21:01.398Z</time></trkpt><trkpt lat="44.5772441" lon="6.1534345"><ele>828.0</ele><time>2026-05-01T10:21:02.397Z</time></trkpt><trkpt lat="44.577249" lon="6.1532387"><ele>828.0</ele><time>2026-05-01T10:21:03.398Z</time></trkpt><trkpt lat="44.5772546" lon="6.153036"><ele>827.3333333333333</ele><time>2026-05-01T10:21:04.398Z</time></trkpt><trkpt lat="44.5772609" lon="6.1528242"><ele>826.6666666666666</ele><time>2026-05-01T10:21:05.397Z</time></trkpt><trkpt lat="44.5772673" lon="6.1526001"><ele>826.0</ele><time>2026-05-01T10:21:06.397Z</time></trkpt><trkpt lat="44.5772726" lon="6.1523672"><ele>825.0</ele><time>2026-05-01T10:21:07.397Z</time></trkpt><trkpt lat="44.5772784" lon="6.1521261"><ele>824.0</ele><time>2026-05-01T10:21:08.397Z</time></trkpt><trkpt lat="44.5772862" lon="6.151876"><ele>823.0</ele><time>2026-05-01T10:21:09.397Z</time></trkpt><trkpt lat="44.5772941" lon="6.1516211"><ele>822.6666666666666</ele><time>2026-05-01T10:21:10.397Z</time></trkpt><trkpt lat="44.5772994" lon="6.1513697"><ele>822.3333333333333</ele><time>2026-05-01T10:21:11.397Z</time></trkpt><trkpt lat="44.577307" lon="6.1511215"><ele>822.0</ele><time>2026-05-01T10:21:12.398Z</time></trkpt><trkpt lat="44.5773142" lon="6.1508727"><ele>822.3333333333333</ele><time>2026-05-01T10:21:13.398Z</time></trkpt><trkpt lat="44.5773238" lon="6.1506189"><ele>822.6666666666666</ele><time>2026-05-01T10:21:14.397Z</time></trkpt><trkpt lat="44.5773329" lon="6.150361"><ele>823.0</ele><time>2026-05-01T10:21:15.397Z</time></trkpt><trkpt lat="44.5773391" lon="6.150103"><ele>823.3333333333333</ele><time>2026-05-01T10:21:16.397Z</time></trkpt><trkpt lat="44.5773454" lon="6.1498492"><ele>823.6666666666667</ele><time>2026-05-01T10:21:17.397Z</time></trkpt><trkpt lat="44.5773508" lon="6.1495967"><ele>824.0</ele><time>2026-05-01T10:21:18.398Z</time></trkpt><trkpt lat="44.577358" lon="6.1493445"><ele>824.0</ele><time>2026-05-01T10:21:19.397Z</time></trkpt><trkpt lat="44.5773636" lon="6.1490973"><ele>824.0</ele><time>2026-05-01T10:21:20.397Z</time></trkpt><trkpt lat="44.5773712" lon="6.1488559"><ele>824.0</ele><time>2026-05-01T10:21:21.397Z</time></trkpt><trkpt lat="44.5773807" lon="6.1486121"><ele>823.0</ele><time>2026-05-01T10:21:22.398Z</time></trkpt><trkpt lat="44.5773907" lon="6.1483667"><ele>822.0</ele><time>2026-05-01T10:21:23.397Z</time></trkpt><trkpt lat="44.5774002" lon="6.1481173"><ele>821.0</ele><time>2026-05-01T10:21:24.397Z</time></trkpt><trkpt lat="44.5774071" lon="6.147871"><ele>820.3333333333334</ele><time>2026-05-01T10:21:25.398Z</time></trkpt><trkpt lat="44.5774133" lon="6.147625"><ele>819.6666666666667</ele><time>2026-05-01T10:21:26.397Z</time></trkpt><trkpt lat="44.5774188" lon="6.1473771"><ele>819.0</ele><time>2026-05-01T10:21:27.397Z</time></trkpt><trkpt lat="44.5774221" lon="6.1471221"><ele>818.6666666666667</ele><time>2026-05-01T10:21:28.397Z</time></trkpt><trkpt lat="44.5774218" lon="6.1468621"><ele>818.3333333333334</ele><time>2026-05-01T10:21:29.397Z</time></trkpt><trkpt lat="44.5774279" lon="6.1465988"><ele>818.0</ele><time>2026-05-01T10:21:30.398Z</time></trkpt><trkpt lat="44.5774322" lon="6.1463352"><ele>816.6666666666667</ele><time>2026-05-01T10:21:31.397Z</time></trkpt><trkpt lat="44.5774383" lon="6.1460673"><ele>815.3333333333333</ele><time>2026-05-01T10:21:32.397Z</time></trkpt><trkpt lat="44.5774449" lon="6.1457975"><ele>814.0</ele><time>2026-05-01T10:21:33.397Z</time></trkpt><trkpt lat="44.5774522" lon="6.1455283"><ele>814.0</ele><time>2026-05-01T10:21:34.397Z</time></trkpt><trkpt lat="44.5774599" lon="6.1452617"><ele>814.0</ele><time>2026-05-01T10:21:35.397Z</time></trkpt><trkpt lat="44.5774638" lon="6.1450001"><ele>814.0</ele><time>2026-05-01T10:21:36.398Z</time></trkpt><trkpt lat="44.5774681" lon="6.14474"><ele>814.0</ele><time>2026-05-01T10:21:37.397Z</time></trkpt><trkpt lat="44.5774724" lon="6.1444786"><ele>814.0</ele><time>2026-05-01T10:21:38.397Z</time></trkpt><trkpt lat="44.5774788" lon="6.1442143"><ele>814.0</ele><time>2026-05-01T10:21:39.397Z</time></trkpt><trkpt lat="44.577485" lon="6.1439488"><ele>814.0</ele><time>2026-05-01T10:21:40.397Z</time></trkpt><trkpt lat="44.5774924" lon="6.1436883"><ele>814.0</ele><time>2026-05-01T10:21:41.397Z</time></trkpt><trkpt lat="44.5774996" lon="6.143429"><ele>814.0</ele><time>2026-05-01T10:21:42.397Z</time></trkpt><trkpt lat="44.5775069" lon="6.1431631"><ele>814.0</ele><time>2026-05-01T10:21:43.397Z</time></trkpt><trkpt lat="44.5775138" lon="6.1428918"><ele>814.0</ele><time>2026-05-01T10:21:44.397Z</time></trkpt><trkpt lat="44.5775205" lon="6.1426141"><ele>814.0</ele><time>2026-05-01T10:21:45.398Z</time></trkpt><trkpt lat="44.5775257" lon="6.1423324"><ele>813.6666666666666</ele><time>2026-05-01T10:21:46.397Z</time></trkpt><trkpt lat="44.5775305" lon="6.1420545"><ele>813.3333333333333</ele><time>2026-05-01T10:21:47.397Z</time></trkpt><trkpt lat="44.577537" lon="6.1417785"><ele>813.0</ele><time>2026-05-01T10:21:48.397Z</time></trkpt><trkpt lat="44.5775447" lon="6.1415032"><ele>813.0</ele><time>2026-05-01T10:21:49.398Z</time></trkpt><trkpt lat="44.5775513" lon="6.1412282"><ele>813.0</ele><time>2026-05-01T10:21:50.397Z</time></trkpt><trkpt lat="44.5775581" lon="6.1409519"><ele>813.0</ele><time>2026-05-01T10:21:51.397Z</time></trkpt><trkpt lat="44.5775644" lon="6.1406834"><ele>813.3333333333333</ele><time>2026-05-01T10:21:52.398Z</time></trkpt><trkpt lat="44.577571" lon="6.1404213"><ele>813.6666666666666</ele><time>2026-05-01T10:21:53.397Z</time></trkpt><trkpt lat="44.5775769" lon="6.1401566"><ele>814.0</ele><time>2026-05-01T10:21:54.398Z</time></trkpt><trkpt lat="44.5775821" lon="6.139893"><ele>814.0</ele><time>2026-05-01T10:21:55.397Z</time></trkpt><trkpt lat="44.5775865" lon="6.139627"><ele>814.0</ele><time>2026-05-01T10:21:56.398Z</time></trkpt><trkpt lat="44.577591" lon="6.1393633"><ele>814.0</ele><time>2026-05-01T10:21:57.398Z</time></trkpt><trkpt lat="44.5775938" lon="6.1391009"><ele>814.3333333333333</ele><time>2026-05-01T10:21:58.397Z</time></trkpt><trkpt lat="44.5775976" lon="6.1388426"><ele>814.6666666666667</ele><time>2026-05-01T10:21:59.397Z</time></trkpt><trkpt lat="44.5776007" lon="6.1385886"><ele>815.0</ele><time>2026-05-01T10:22:00.397Z</time></trkpt><trkpt lat="44.5776046" lon="6.1383379"><ele>815.3333333333334</ele><time>2026-05-01T10:22:01.397Z</time></trkpt><trkpt lat="44.5776106" lon="6.138091"><ele>815.6666666666667</ele><time>2026-05-01T10:22:02.397Z</time></trkpt><trkpt lat="44.5776163" lon="6.1378463"><ele>816.0</ele><time>2026-05-01T10:22:03.397Z</time></trkpt><trkpt lat="44.5776242" lon="6.1376059"><ele>816.3333333333333</ele><time>2026-05-01T10:22:04.397Z</time></trkpt><trkpt lat="44.5776332" lon="6.1373721"><ele>816.6666666666666</ele><time>2026-05-01T10:22:05.397Z</time></trkpt><trkpt lat="44.5776429" lon="6.1371426"><ele>817.0</ele><time>2026-05-01T10:22:06.397Z</time></trkpt><trkpt lat="44.5776514" lon="6.1369173"><ele>817.0</ele><time>2026-05-01T10:22:07.397Z</time></trkpt><trkpt lat="44.5776624" lon="6.1366976"><ele>817.0</ele><time>2026-05-01T10:22:08.397Z</time></trkpt><trkpt lat="44.5776729" lon="6.1364801"><ele>817.0</ele><time>2026-05-01T10:22:09.398Z</time></trkpt><trkpt lat="44.5776827" lon="6.1362573"><ele>816.3333333333333</ele><time>2026-05-01T10:22:10.397Z</time></trkpt><trkpt lat="44.5776854" lon="6.136028"><ele>815.6666666666667</ele><time>2026-05-01T10:22:11.397Z</time></trkpt><trkpt lat="44.5776878" lon="6.1357939"><ele>815.0</ele><time>2026-05-01T10:22:12.397Z</time></trkpt><trkpt lat="44.5776898" lon="6.1355534"><ele>814.6666666666667</ele><time>2026-05-01T10:22:13.397Z</time></trkpt><trkpt lat="44.5776943" lon="6.135308"><ele>814.3333333333333</ele><time>2026-05-01T10:22:14.397Z</time></trkpt><trkpt lat="44.5776961" lon="6.1350582"><ele>814.0</ele><time>2026-05-01T10:22:15.398Z</time></trkpt><trkpt lat="44.5776962" lon="6.1348104"><ele>813.3333333333333</ele><time>2026-05-01T10:22:16.398Z</time></trkpt><trkpt lat="44.5776951" lon="6.1345612"><ele>812.6666666666667</ele><time>2026-05-01T10:22:17.397Z</time></trkpt><trkpt lat="44.577696" lon="6.1343065"><ele>812.0</ele><time>2026-05-01T10:22:18.397Z</time></trkpt><trkpt lat="44.5776956" lon="6.1340438"><ele>811.3333333333334</ele><time>2026-05-01T10:22:19.398Z</time></trkpt><trkpt lat="44.5776982" lon="6.1337729"><ele>810.6666666666667</ele><time>2026-05-01T10:22:20.397Z</time></trkpt><trkpt lat="44.5777034" lon="6.1334942"><ele>810.0</ele><time>2026-05-01T10:22:21.397Z</time></trkpt><trkpt lat="44.5777087" lon="6.1332075"><ele>809.3333333333333</ele><time>2026-05-01T10:22:22.398Z</time></trkpt><trkpt lat="44.5777156" lon="6.1329135"><ele>808.6666666666666</ele><time>2026-05-01T10:22:23.397Z</time></trkpt><trkpt lat="44.5777222" lon="6.1326147"><ele>808.0</ele><time>2026-05-01T10:22:24.398Z</time></trkpt><trkpt lat="44.5777278" lon="6.132325"><ele>808.0</ele><time>2026-05-01T10:22:25.397Z</time></trkpt><trkpt lat="44.5777321" lon="6.1320414"><ele>808.0</ele><time>2026-05-01T10:22:26.399Z</time></trkpt><trkpt lat="44.577739" lon="6.1317632"><ele>808.0</ele><time>2026-05-01T10:22:27.398Z</time></trkpt><trkpt lat="44.5777489" lon="6.1314894"><ele>808.3333333333333</ele><time>2026-05-01T10:22:28.397Z</time></trkpt><trkpt lat="44.5777581" lon="6.1312127"><ele>808.6666666666667</ele><time>2026-05-01T10:22:29.398Z</time></trkpt><trkpt lat="44.577768" lon="6.1309281"><ele>809.0</ele><time>2026-05-01T10:22:30.397Z</time></trkpt><trkpt lat="44.5777728" lon="6.1306407"><ele>809.0</ele><time>2026-05-01T10:22:31.397Z</time></trkpt><trkpt lat="44.5777794" lon="6.1303477"><ele>809.0</ele><time>2026-05-01T10:22:32.397Z</time></trkpt><trkpt lat="44.5777872" lon="6.1300618"><ele>809.0</ele><time>2026-05-01T10:22:33.397Z</time></trkpt><trkpt lat="44.5777929" lon="6.1297856"><ele>808.3333333333334</ele><time>2026-05-01T10:22:34.398Z</time></trkpt><trkpt lat="44.5777967" lon="6.1295173"><ele>807.6666666666667</ele><time>2026-05-01T10:22:35.397Z</time></trkpt><trkpt lat="44.5777988" lon="6.1292573"><ele>807.0</ele><time>2026-05-01T10:22:36.398Z</time></trkpt><trkpt lat="44.5778028" lon="6.1290021"><ele>806.3333333333333</ele><time>2026-05-01T10:22:37.397Z</time></trkpt><trkpt lat="44.5778091" lon="6.1287538"><ele>805.6666666666666</ele><time>2026-05-01T10:22:38.397Z</time></trkpt><trkpt lat="44.577814" lon="6.12851"><ele>805.0</ele><time>2026-05-01T10:22:39.397Z</time></trkpt><trkpt lat="44.5778192" lon="6.1282701"><ele>804.3333333333333</ele><time>2026-05-01T10:22:40.397Z</time></trkpt><trkpt lat="44.5778234" lon="6.1280381"><ele>803.6666666666667</ele><time>2026-05-01T10:22:41.397Z</time></trkpt><trkpt lat="44.5778276" lon="6.1278246"><ele>803.0</ele><time>2026-05-01T10:22:42.397Z</time></trkpt><trkpt lat="44.5778315" lon="6.1276366"><ele>803.0</ele><time>2026-05-01T10:22:43.397Z</time></trkpt><trkpt lat="44.5778347" lon="6.1274561"><ele>803.0</ele><time>2026-05-01T10:22:44.398Z</time></trkpt><trkpt lat="44.5778407" lon="6.1272765"><ele>803.0</ele><time>2026-05-01T10:22:45.397Z</time></trkpt><trkpt lat="44.577851" lon="6.1270922"><ele>803.0</ele><time>2026-05-01T10:22:46.397Z</time></trkpt><trkpt lat="44.5778596" lon="6.1269081"><ele>804.0</ele><time>2026-05-01T10:22:47.397Z</time></trkpt><trkpt lat="44.5778659" lon="6.1267311"><ele>805.0</ele><time>2026-05-01T10:22:48.397Z</time></trkpt><trkpt lat="44.577869" lon="6.1265586"><ele>806.0</ele><time>2026-05-01T10:22:49.397Z</time></trkpt><trkpt lat="44.5778705" lon="6.1263895"><ele>807.0</ele><time>2026-05-01T10:22:50.398Z</time></trkpt><trkpt lat="44.5778729" lon="6.1262176"><ele>807.0</ele><time>2026-05-01T10:22:51.397Z</time></trkpt><trkpt lat="44.577876" lon="6.1260545"><ele>807.0</ele><time>2026-05-01T10:22:52.397Z</time></trkpt><trkpt lat="44.5778795" lon="6.1259076"><ele>807.0</ele><time>2026-05-01T10:22:53.397Z</time></trkpt><trkpt lat="44.5778831" lon="6.1257676"><ele>807.0</ele><time>2026-05-01T10:22:54.397Z</time></trkpt><trkpt lat="44.5778837" lon="6.1256316"><ele>807.0</ele><time>2026-05-01T10:22:55.398Z</time></trkpt><trkpt lat="44.5778878" lon="6.1254968"><ele>807.2</ele><time>2026-05-01T10:22:56.397Z</time></trkpt><trkpt lat="44.5778928" lon="6.1253553"><ele>807.4000000000001</ele><time>2026-05-01T10:22:57.398Z</time></trkpt><trkpt lat="44.577896" lon="6.1252056"><ele>807.5999999999999</ele><time>2026-05-01T10:22:58.397Z</time></trkpt><trkpt lat="44.5778985" lon="6.1250476"><ele>807.8</ele><time>2026-05-01T10:22:59.397Z</time></trkpt><trkpt lat="44.5779036" lon="6.1248837"><ele>808.0</ele><time>2026-05-01T10:23:00.397Z</time></trkpt><trkpt lat="44.5779043" lon="6.1247244"><ele>808.0</ele><time>2026-05-01T10:23:01.397Z</time></trkpt><trkpt lat="44.5779029" lon="6.1245691"><ele>808.0</ele><time>2026-05-01T10:23:02.397Z</time></trkpt><trkpt lat="44.5779003" lon="6.1244174"><ele>808.0</ele><time>2026-05-01T10:23:03.397Z</time></trkpt><trkpt lat="44.5778993" lon="6.1242701"><ele>808.0</ele><time>2026-05-01T10:23:04.397Z</time></trkpt><trkpt lat="44.5778974" lon="6.1241226"><ele>808.0</ele><time>2026-05-01T10:23:05.397Z</time></trkpt><trkpt lat="44.5778947" lon="6.1239686"><ele>807.5</ele><time>2026-05-01T10:23:06.398Z</time></trkpt><trkpt lat="44.5778956" lon="6.1238068"><ele>807.0</ele><time>2026-05-01T10:23:07.397Z</time></trkpt><trkpt lat="44.5778986" lon="6.1236381"><ele>806.5</ele><time>2026-05-01T10:23:08.397Z</time></trkpt><trkpt lat="44.5779016" lon="6.1234717"><ele>806.0</ele><time>2026-05-01T10:23:09.397Z</time></trkpt><trkpt lat="44.5779032" lon="6.1233099"><ele>805.5999999999999</ele><time>2026-05-01T10:23:10.397Z</time></trkpt><trkpt lat="44.5779016" lon="6.1231627"><ele>805.2</ele><time>2026-05-01T10:23:11.397Z</time></trkpt><trkpt lat="44.5779017" lon="6.1230261"><ele>804.8</ele><time>2026-05-01T10:23:12.397Z</time></trkpt><trkpt lat="44.5779005" lon="6.1228919"><ele>804.4000000000001</ele><time>2026-05-01T10:23:13.397Z</time></trkpt><trkpt lat="44.5778953" lon="6.1227573"><ele>804.0</ele><time>2026-05-01T10:23:14.397Z</time></trkpt><trkpt lat="44.5778897" lon="6.1226284"><ele>804.0</ele><time>2026-05-01T10:23:15.397Z</time></trkpt><trkpt lat="44.577878" lon="6.1224997"><ele>804.0</ele><time>2026-05-01T10:23:16.397Z</time></trkpt><trkpt lat="44.5778579" lon="6.1223705"><ele>804.0</ele><time>2026-05-01T10:23:17.397Z</time></trkpt><trkpt lat="44.5778332" lon="6.1222354"><ele>804.0</ele><time>2026-05-01T10:23:18.397Z</time></trkpt><trkpt lat="44.5778062" lon="6.1220956"><ele>804.0</ele><time>2026-05-01T10:23:19.398Z</time></trkpt><trkpt lat="44.5777779" lon="6.1219509"><ele>802.0</ele><time>2026-05-01T10:23:20.397Z</time></trkpt><trkpt lat="44.5777435" lon="6.1217915"><ele>800.0</ele><time>2026-05-01T10:23:21.398Z</time></trkpt><trkpt lat="44.5777023" lon="6.1216313"><ele>798.0</ele><time>2026-05-01T10:23:22.397Z</time></trkpt><trkpt lat="44.5776614" lon="6.1214774"><ele>796.0</ele><time>2026-05-01T10:23:23.397Z</time></trkpt><trkpt lat="44.5776205" lon="6.1213238"><ele>795.0</ele><time>2026-05-01T10:23:24.397Z</time></trkpt><trkpt lat="44.577579" lon="6.1211809"><ele>794.0</ele><time>2026-05-01T10:23:25.397Z</time></trkpt><trkpt lat="44.5775383" lon="6.1210411"><ele>793.0</ele><time>2026-05-01T10:23:26.397Z</time></trkpt><trkpt lat="44.5775014" lon="6.120901"><ele>792.0</ele><time>2026-05-01T10:23:27.397Z</time></trkpt><trkpt lat="44.5774683" lon="6.1207612"><ele>791.0</ele><time>2026-05-01T10:23:28.397Z</time></trkpt><trkpt lat="44.5774366" lon="6.1206272"><ele>791.0</ele><time>2026-05-01T10:23:29.397Z</time></trkpt><trkpt lat="44.5774039" lon="6.1204963"><ele>791.0</ele><time>2026-05-01T10:23:30.397Z</time></trkpt><trkpt lat="44.5773694" lon="6.1203627"><ele>791.0</ele><time>2026-05-01T10:23:31.397Z</time></trkpt><trkpt lat="44.5773341" lon="6.1202116"><ele>791.0</ele><time>2026-05-01T10:23:32.397Z</time></trkpt><trkpt lat="44.5772956" lon="6.1200456"><ele>791.0</ele><time>2026-05-01T10:23:33.397Z</time></trkpt><trkpt lat="44.5772555" lon="6.119869"><ele>791.0</ele><time>2026-05-01T10:23:34.397Z</time></trkpt><trkpt lat="44.5772119" lon="6.1196782"><ele>791.0</ele><time>2026-05-01T10:23:35.397Z</time></trkpt><trkpt lat="44.5771629" lon="6.1194786"><ele>791.0</ele><time>2026-05-01T10:23:36.397Z</time></trkpt><trkpt lat="44.5771097" lon="6.1192702"><ele>791.3333333333334</ele><time>2026-05-01T10:23:37.398Z</time></trkpt><trkpt lat="44.5770552" lon="6.1190606"><ele>791.6666666666667</ele><time>2026-05-01T10:23:38.397Z</time></trkpt><trkpt lat="44.5770059" lon="6.1188512"><ele>792.0</ele><time>2026-05-01T10:23:39.397Z</time></trkpt><trkpt lat="44.5769532" lon="6.1186402"><ele>790.0</ele><time>2026-05-01T10:23:40.397Z</time></trkpt><trkpt lat="44.5769005" lon="6.1184236"><ele>788.0</ele><time>2026-05-01T10:23:41.397Z</time></trkpt><trkpt lat="44.5768437" lon="6.1181991"><ele>786.0</ele><time>2026-05-01T10:23:42.398Z</time></trkpt><trkpt lat="44.5767857" lon="6.1179628"><ele>786.0</ele><time>2026-05-01T10:23:43.398Z</time></trkpt><trkpt lat="44.5767285" lon="6.117717"><ele>786.0</ele><time>2026-05-01T10:23:44.397Z</time></trkpt><trkpt lat="44.5766692" lon="6.1174569"><ele>786.0</ele><time>2026-05-01T10:23:45.397Z</time></trkpt><trkpt lat="44.5766062" lon="6.1171886"><ele>786.6666666666667</ele><time>2026-05-01T10:23:46.397Z</time></trkpt><trkpt lat="44.5765376" lon="6.1169092"><ele>787.3333333333334</ele><time>2026-05-01T10:23:47.398Z</time></trkpt><trkpt lat="44.5764649" lon="6.1166212"><ele>788.0</ele><time>2026-05-01T10:23:48.397Z</time></trkpt><trkpt lat="44.5763952" lon="6.1163288"><ele>788.3333333333334</ele><time>2026-05-01T10:23:49.397Z</time></trkpt><trkpt lat="44.5763237" lon="6.116034"><ele>788.6666666666667</ele><time>2026-05-01T10:23:50.397Z</time></trkpt><trkpt lat="44.5762514" lon="6.1157428"><ele>789.0</ele><time>2026-05-01T10:23:51.397Z</time></trkpt><trkpt lat="44.5761818" lon="6.1154528"><ele>785.6666666666667</ele><time>2026-05-01T10:23:52.397Z</time></trkpt><trkpt lat="44.5761126" lon="6.1151669"><ele>782.3333333333334</ele><time>2026-05-01T10:23:53.397Z</time></trkpt><trkpt lat="44.5760401" lon="6.1148738"><ele>779.0</ele><time>2026-05-01T10:23:54.397Z</time></trkpt><trkpt lat="44.5759658" lon="6.114573"><ele>778.3333333333334</ele><time>2026-05-01T10:23:55.397Z</time></trkpt><trkpt lat="44.5758939" lon="6.1142774"><ele>777.6666666666667</ele><time>2026-05-01T10:23:56.397Z</time></trkpt><trkpt lat="44.5758234" lon="6.1139815"><ele>777.0</ele><time>2026-05-01T10:23:57.398Z</time></trkpt><trkpt lat="44.5757515" lon="6.1136812"><ele>776.5</ele><time>2026-05-01T10:23:58.397Z</time></trkpt><trkpt lat="44.5756789" lon="6.1133744"><ele>776.0</ele><time>2026-05-01T10:23:59.397Z</time></trkpt><trkpt lat="44.5756052" lon="6.1130706"><ele>777.3333333333334</ele><time>2026-05-01T10:24:00.397Z</time></trkpt><trkpt lat="44.575536" lon="6.1127764"><ele>778.6666666666667</ele><time>2026-05-01T10:24:01.397Z</time></trkpt><trkpt lat="44.5754636" lon="6.1124892"><ele>780.0</ele><time>2026-05-01T10:24:02.397Z</time></trkpt><trkpt lat="44.575386" lon="6.1122042"><ele>778.3333333333333</ele><time>2026-05-01T10:24:03.397Z</time></trkpt><trkpt lat="44.5752961" lon="6.1119302"><ele>776.6666666666666</ele><time>2026-05-01T10:24:04.397Z</time></trkpt><trkpt lat="44.5751941" lon="6.1116657"><ele>775.0</ele><time>2026-05-01T10:24:05.399Z</time></trkpt><trkpt lat="44.575084" lon="6.1114161"><ele>775.0</ele><time>2026-05-01T10:24:06.398Z</time></trkpt><trkpt lat="44.5749656" lon="6.1111868"><ele>775.0</ele><time>2026-05-01T10:24:07.398Z</time></trkpt><trkpt lat="44.5748369" lon="6.1109668"><ele>775.0</ele><time>2026-05-01T10:24:08.397Z</time></trkpt><trkpt lat="44.5746958" lon="6.11075"><ele>775.6666666666666</ele><time>2026-05-01T10:24:09.397Z</time></trkpt><trkpt lat="44.5745506" lon="6.1105401"><ele>776.3333333333333</ele><time>2026-05-01T10:24:10.397Z</time></trkpt><trkpt lat="44.5744067" lon="6.1103356"><ele>777.0</ele><time>2026-05-01T10:24:11.397Z</time></trkpt><trkpt lat="44.5742671" lon="6.1101394"><ele>774.6666666666667</ele><time>2026-05-01T10:24:12.398Z</time></trkpt><trkpt lat="44.5741292" lon="6.1099592"><ele>772.3333333333334</ele><time>2026-05-01T10:24:13.397Z</time></trkpt><trkpt lat="44.5739904" lon="6.1097906"><ele>770.0</ele><time>2026-05-01T10:24:14.397Z</time></trkpt><trkpt lat="44.5738554" lon="6.1096307"><ele>770.0</ele><time>2026-05-01T10:24:15.397Z</time></trkpt><trkpt lat="44.5737241" lon="6.1094761"><ele>770.0</ele><time>2026-05-01T10:24:16.397Z</time></trkpt><trkpt lat="44.5736037" lon="6.1093388"><ele>770.0</ele><time>2026-05-01T10:24:17.398Z</time></trkpt><trkpt lat="44.5734923" lon="6.1092108"><ele>769.75</ele><time>2026-05-01T10:24:18.397Z</time></trkpt><trkpt lat="44.5733835" lon="6.1090851"><ele>769.5</ele><time>2026-05-01T10:24:19.397Z</time></trkpt><trkpt lat="44.5732796" lon="6.1089609"><ele>769.25</ele><time>2026-05-01T10:24:20.397Z</time></trkpt><trkpt lat="44.5731738" lon="6.1088355"><ele>769.0</ele><time>2026-05-01T10:24:21.397Z</time></trkpt><trkpt lat="44.57307" lon="6.1087164"><ele>769.0</ele><time>2026-05-01T10:24:22.397Z</time></trkpt><trkpt lat="44.57297" lon="6.1085988"><ele>769.0</ele><time>2026-05-01T10:24:23.397Z</time></trkpt><trkpt lat="44.5728729" lon="6.1084826"><ele>769.0</ele><time>2026-05-01T10:24:24.399Z</time></trkpt><trkpt lat="44.5727741" lon="6.1083651"><ele>769.0</ele><time>2026-05-01T10:24:25.397Z</time></trkpt><trkpt lat="44.5726763" lon="6.108249"><ele>769.25</ele><time>2026-05-01T10:24:26.397Z</time></trkpt><trkpt lat="44.5725753" lon="6.1081339"><ele>769.5</ele><time>2026-05-01T10:24:27.397Z</time></trkpt><trkpt lat="44.5724696" lon="6.108012"><ele>769.75</ele><time>2026-05-01T10:24:28.398Z</time></trkpt><trkpt lat="44.5723626" lon="6.1078855"><ele>770.0</ele><time>2026-05-01T10:24:29.397Z</time></trkpt><trkpt lat="44.5722525" lon="6.1077553"><ele>770.0</ele><time>2026-05-01T10:24:30.398Z</time></trkpt><trkpt lat="44.5721387" lon="6.1076151"><ele>770.0</ele><time>2026-05-01T10:24:31.397Z</time></trkpt><trkpt lat="44.5720199" lon="6.1074677"><ele>770.0</ele><time>2026-05-01T10:24:32.396Z</time></trkpt><trkpt lat="44.5718959" lon="6.1073117"><ele>769.0</ele><time>2026-05-01T10:24:33.396Z</time></trkpt><trkpt lat="44.5717679" lon="6.1071485"><ele>768.0</ele><time>2026-05-01T10:24:34.397Z</time></trkpt><trkpt lat="44.5716373" lon="6.1069768"><ele>767.0</ele><time>2026-05-01T10:24:35.396Z</time></trkpt><trkpt lat="44.5715032" lon="6.1067937"><ele>767.0</ele><time>2026-05-01T10:24:36.396Z</time></trkpt><trkpt lat="44.5713709" lon="6.1065973"><ele>767.0</ele><time>2026-05-01T10:24:37.397Z</time></trkpt><trkpt lat="44.5712401" lon="6.1063884"><ele>767.0</ele><time>2026-05-01T10:24:38.396Z</time></trkpt><trkpt lat="44.5711074" lon="6.1061646"><ele>766.3333333333333</ele><time>2026-05-01T10:24:39.396Z</time></trkpt><trkpt lat="44.5709796" lon="6.1059312"><ele>765.6666666666666</ele><time>2026-05-01T10:24:40.396Z</time></trkpt><trkpt lat="44.5708574" lon="6.1057022"><ele>765.0</ele><time>2026-05-01T10:24:41.396Z</time></trkpt><trkpt lat="44.5707322" lon="6.1054847"><ele>766.3333333333333</ele><time>2026-05-01T10:24:42.397Z</time></trkpt><trkpt lat="44.5706027" lon="6.1052812"><ele>767.6666666666666</ele><time>2026-05-01T10:24:43.396Z</time></trkpt><trkpt lat="44.5704695" lon="6.1050956"><ele>769.0</ele><time>2026-05-01T10:24:44.396Z</time></trkpt><trkpt lat="44.570339" lon="6.1049324"><ele>767.0</ele><time>2026-05-01T10:24:45.396Z</time></trkpt><trkpt lat="44.5702134" lon="6.1047916"><ele>765.0</ele><time>2026-05-01T10:24:46.396Z</time></trkpt><trkpt lat="44.5700993" lon="6.104667"><ele>763.0</ele><time>2026-05-01T10:24:47.396Z</time></trkpt><trkpt lat="44.5700024" lon="6.1045622"><ele>761.0</ele><time>2026-05-01T10:24:48.396Z</time></trkpt><trkpt lat="44.5699175" lon="6.1044687"><ele>761.0</ele><time>2026-05-01T10:24:49.396Z</time></trkpt><trkpt lat="44.5698372" lon="6.1043802"><ele>761.0</ele><time>2026-05-01T10:24:50.396Z</time></trkpt><trkpt lat="44.569762" lon="6.1042954"><ele>761.0</ele><time>2026-05-01T10:24:51.396Z</time></trkpt><trkpt lat="44.5696944" lon="6.1042078"><ele>761.0</ele><time>2026-05-01T10:24:52.396Z</time></trkpt><trkpt lat="44.5696329" lon="6.1041224"><ele>761.0</ele><time>2026-05-01T10:24:53.396Z</time></trkpt><trkpt lat="44.5695811" lon="6.1040396"><ele>760.9999999999999</ele><time>2026-05-01T10:24:54.396Z</time></trkpt><trkpt lat="44.569535" lon="6.1039585"><ele>761.0</ele><time>2026-05-01T10:24:55.397Z</time></trkpt><trkpt lat="44.5694951" lon="6.1038806"><ele>761.0</ele><time>2026-05-01T10:24:56.396Z</time></trkpt><trkpt lat="44.5694606" lon="6.1038014"><ele>761.0</ele><time>2026-05-01T10:24:57.396Z</time></trkpt><trkpt lat="44.5694307" lon="6.1037141"><ele>761.0</ele><time>2026-05-01T10:24:58.396Z</time></trkpt><trkpt lat="44.5694045" lon="6.1036167"><ele>760.9999999999999</ele><time>2026-05-01T10:24:59.396Z</time></trkpt><trkpt lat="44.5693906" lon="6.103517"><ele>761.0</ele><time>2026-05-01T10:25:00.397Z</time></trkpt><trkpt lat="44.5693934" lon="6.1034141"><ele>760.1428571428571</ele><time>2026-05-01T10:25:01.397Z</time></trkpt><trkpt lat="44.5694074" lon="6.103308"><ele>759.2857142857142</ele><time>2026-05-01T10:25:02.396Z</time></trkpt><trkpt lat="44.569413" lon="6.1032021"><ele>758.4285714285713</ele><time>2026-05-01T10:25:03.396Z</time></trkpt><trkpt lat="44.5693958" lon="6.1031025"><ele>757.5714285714286</ele><time>2026-05-01T10:25:04.396Z</time></trkpt><trkpt lat="44.5693545" lon="6.103024"><ele>756.7142857142858</ele><time>2026-05-01T10:25:05.396Z</time></trkpt><trkpt lat="44.5692913" lon="6.1029676"><ele>755.8571428571428</ele><time>2026-05-01T10:25:06.397Z</time></trkpt><trkpt lat="44.5692194" lon="6.1029487"><ele>755.0</ele><time>2026-05-01T10:25:07.396Z</time></trkpt><trkpt lat="44.5691491" lon="6.1029679"><ele>755.0</ele><time>2026-05-01T10:25:08.396Z</time></trkpt><trkpt lat="44.5690906" lon="6.103022"><ele>755.0</ele><time>2026-05-01T10:25:09.396Z</time></trkpt><trkpt lat="44.5690482" lon="6.1030963"><ele>755.0</ele><time>2026-05-01T10:25:10.396Z</time></trkpt><trkpt lat="44.5690183" lon="6.1032415"><ele>755.0</ele><time>2026-05-01T10:25:12.396Z</time></trkpt><trkpt lat="44.5690206" lon="6.1033324"><ele>755.0</ele><time>2026-05-01T10:25:14.396Z</time></trkpt><trkpt lat="44.5690223" lon="6.1034283"><ele>755.0</ele><time>2026-05-01T10:25:16.396Z</time></trkpt><trkpt lat="44.5689993" lon="6.1035249"><ele>755.0</ele><time>2026-05-01T10:25:18.397Z</time></trkpt><trkpt lat="44.5689492" lon="6.1036129"><ele>755.0</ele><time>2026-05-01T10:25:20.397Z</time></trkpt><trkpt lat="44.5688747" lon="6.1036682"><ele>755.0</ele><time>2026-05-01T10:25:22.396Z</time></trkpt><trkpt lat="44.568796" lon="6.1036388"><ele>755.0</ele><time>2026-05-01T10:25:24.396Z</time></trkpt><trkpt lat="44.5687376" lon="6.1035962"><ele>755.0</ele><time>2026-05-01T10:25:26.397Z</time></trkpt><trkpt lat="44.5686573" lon="6.1036098"><ele>755.0</ele><time>2026-05-01T10:25:29.396Z</time></trkpt><trkpt lat="44.5686504" lon="6.1037179"><ele>754.8571428571428</ele><time>2026-05-01T10:25:32.396Z</time></trkpt><trkpt lat="44.5685954" lon="6.1036665"><ele>754.7142857142858</ele><time>2026-05-01T10:30:11.395Z</time></trkpt><trkpt lat="44.5685444" lon="6.1037322"><ele>754.5714285714286</ele><time>2026-05-01T10:30:40.396Z</time></trkpt><trkpt lat="44.5684834" lon="6.1037686"><ele>754.4285714285713</ele><time>2026-05-01T10:30:48.395Z</time></trkpt><trkpt lat="44.5684207" lon="6.1037518"><ele>754.2857142857142</ele><time>2026-05-01T10:30:55.395Z</time></trkpt><trkpt lat="44.5683507" lon="6.1037456"><ele>754.1428571428571</ele><time>2026-05-01T10:31:04.395Z</time></trkpt><trkpt lat="44.568296" lon="6.1036998"><ele>754.0</ele><time>2026-05-01T11:01:45.352Z</time></trkpt><trkpt lat="44.5682597" lon="6.1036264"><ele>753.9999999999999</ele><time>2026-05-01T11:02:20.391Z</time></trkpt><trkpt lat="44.5683034" lon="6.1035023"><ele>754.0</ele><time>2026-05-01T11:03:39.311Z</time></trkpt><trkpt lat="44.5683372" lon="6.1035783"><ele>754.0</ele><time>2026-05-01T11:04:13.305Z</time></trkpt><trkpt lat="44.5683911" lon="6.1036259"><ele>754.0</ele><time>2026-05-01T11:04:26.394Z</time></trkpt><trkpt lat="44.568406" lon="6.1037119"><ele>754.0</ele><time>2026-05-01T11:04:33.296Z</time></trkpt><trkpt lat="44.5683277" lon="6.1036963"><ele>753.9999999999999</ele><time>2026-05-01T11:04:40.392Z</time></trkpt><trkpt lat="44.5682717" lon="6.1036497"><ele>754.0</ele><time>2026-05-01T11:04:45.391Z</time></trkpt><trkpt lat="44.5683072" lon="6.103567"><ele>753.9999999999999</ele><time>2026-05-01T11:05:03.391Z</time></trkpt><trkpt lat="44.5683346" lon="6.103648"><ele>754.0</ele><time>2026-05-01T11:07:35.391Z</time></trkpt><trkpt lat="44.5683398" lon="6.1037639"><ele>754.0</ele><time>2026-05-01T11:08:10.391Z</time></trkpt><trkpt lat="44.5683658" lon="6.1038623"><ele>754.0</ele><time>2026-05-01T11:08:14.39Z</time></trkpt><trkpt lat="44.5683794" lon="6.1039545"><ele>754.0</ele><time>2026-05-01T11:08:30.39Z</time></trkpt><trkpt lat="44.5684375" lon="6.1039203"><ele>753.9999999999999</ele><time>2026-05-01T11:09:09.39Z</time></trkpt><trkpt lat="44.5684934" lon="6.1038609"><ele>754.0</ele><time>2026-05-01T11:09:17.39Z</time></trkpt><trkpt lat="44.5685589" lon="6.1038469"><ele>753.9999999999999</ele><time>2026-05-01T11:09:23.39Z</time></trkpt><trkpt lat="44.5686187" lon="6.1038188"><ele>754.0</ele><time>2026-05-01T11:09:28.39Z</time></trkpt><trkpt lat="44.5686639" lon="6.1037526"><ele>754.0</ele><time>2026-05-01T11:09:34.39Z</time></trkpt><trkpt lat="44.5686135" lon="6.1036994"><ele>754.0</ele><time>2026-05-01T11:10:19.391Z</time></trkpt><trkpt lat="44.5686751" lon="6.103741"><ele>754.0</ele><time>2026-05-01T11:10:26.39Z</time></trkpt><trkpt lat="44.5686135" lon="6.1036999"><ele>753.9999999999999</ele><time>2026-05-01T11:10:51.389Z</time></trkpt><trkpt lat="44.5686733" lon="6.1037276"><ele>754.0</ele><time>2026-05-01T11:15:53.405Z</time></trkpt><trkpt lat="44.5687382" lon="6.1037436"><ele>753.9999999999999</ele><time>2026-05-01T11:27:02.387Z</time></trkpt><trkpt lat="44.5688056" lon="6.1037005"><ele>754.0</ele><time>2026-05-01T11:27:05.388Z</time></trkpt><trkpt lat="44.568757" lon="6.1035995"><ele>754.0</ele><time>2026-05-01T11:27:08.388Z</time></trkpt><trkpt lat="44.5686971" lon="6.1035639"><ele>754.0</ele><time>2026-05-01T11:27:10.387Z</time></trkpt><trkpt lat="44.5686286" lon="6.1035743"><ele>754.0</ele><time>2026-05-01T11:27:13.388Z</time></trkpt><trkpt lat="44.5686574" lon="6.1036546"><ele>753.9999999999999</ele><time>2026-05-01T11:27:36.387Z</time></trkpt><trkpt lat="44.5687363" lon="6.1036946"><ele>754.0</ele><time>2026-05-01T11:27:39.387Z</time></trkpt><trkpt lat="44.568812" lon="6.1037269"><ele>754.1666666666667</ele><time>2026-05-01T11:27:42.387Z</time></trkpt><trkpt lat="44.5688877" lon="6.1037817"><ele>754.3333333333334</ele><time>2026-05-01T11:27:45.388Z</time></trkpt><trkpt lat="44.5689601" lon="6.1038137"><ele>754.5</ele><time>2026-05-01T11:27:48.387Z</time></trkpt><trkpt lat="44.5690185" lon="6.1037691"><ele>754.6666666666666</ele><time>2026-05-01T11:27:51.388Z</time></trkpt><trkpt lat="44.5690363" lon="6.1036705"><ele>754.8333333333333</ele><time>2026-05-01T11:27:53.387Z</time></trkpt><trkpt lat="44.5690532" lon="6.1035591"><ele>755.0</ele><time>2026-05-01T11:27:55.388Z</time></trkpt><trkpt lat="44.5691358" lon="6.1034749"><ele>755.0</ele><time>2026-05-01T11:27:57.388Z</time></trkpt><trkpt lat="44.5692617" lon="6.1034509"><ele>755.0</ele><time>2026-05-01T11:27:59.388Z</time></trkpt><trkpt lat="44.5693228" lon="6.1034166"><ele>755.0</ele><time>2026-05-01T11:28:00.387Z</time></trkpt><trkpt lat="44.5693705" lon="6.1033513"><ele>755.0</ele><time>2026-05-01T11:28:01.387Z</time></trkpt><trkpt lat="44.5693963" lon="6.1032624"><ele>755.0</ele><time>2026-05-01T11:28:02.387Z</time></trkpt><trkpt lat="44.5693984" lon="6.1031689"><ele>755.0</ele><time>2026-05-01T11:28:03.387Z</time></trkpt><trkpt lat="44.5693803" lon="6.1030744"><ele>754.6666666666666</ele><time>2026-05-01T11:28:04.387Z</time></trkpt><trkpt lat="44.5693455" lon="6.1029869"><ele>754.3333333333333</ele><time>2026-05-01T11:28:05.387Z</time></trkpt><trkpt lat="44.5693022" lon="6.1028946"><ele>754.0</ele><time>2026-05-01T11:28:06.387Z</time></trkpt><trkpt lat="44.5692634" lon="6.1027887"><ele>753.6666666666666</ele><time>2026-05-01T11:28:07.387Z</time></trkpt><trkpt lat="44.5692348" lon="6.1026682"><ele>753.3333333333334</ele><time>2026-05-01T11:28:08.387Z</time></trkpt><trkpt lat="44.5692175" lon="6.102538"><ele>753.0</ele><time>2026-05-01T11:28:09.387Z</time></trkpt><trkpt lat="44.5692007" lon="6.1024"><ele>753.0</ele><time>2026-05-01T11:28:10.387Z</time></trkpt><trkpt lat="44.5691827" lon="6.1022526"><ele>753.0</ele><time>2026-05-01T11:28:11.387Z</time></trkpt><trkpt lat="44.5691642" lon="6.1021007"><ele>753.0</ele><time>2026-05-01T11:28:12.387Z</time></trkpt><trkpt lat="44.5691475" lon="6.1019545"><ele>753.0</ele><time>2026-05-01T11:28:13.388Z</time></trkpt><trkpt lat="44.5691318" lon="6.1018156"><ele>753.0</ele><time>2026-05-01T11:28:14.387Z</time></trkpt><trkpt lat="44.5691143" lon="6.101686"><ele>753.0</ele><time>2026-05-01T11:28:15.387Z</time></trkpt><trkpt lat="44.5690962" lon="6.1015695"><ele>753.0</ele><time>2026-05-01T11:28:16.387Z</time></trkpt><trkpt lat="44.5690789" lon="6.1014666"><ele>753.0</ele><time>2026-05-01T11:28:17.387Z</time></trkpt><trkpt lat="44.5690617" lon="6.1013649"><ele>753.0</ele><time>2026-05-01T11:28:18.387Z</time></trkpt><trkpt lat="44.5690417" lon="6.1012581"><ele>753.0</ele><time>2026-05-01T11:28:19.387Z</time></trkpt><trkpt lat="44.569018" lon="6.1011439"><ele>753.0</ele><time>2026-05-01T11:28:20.388Z</time></trkpt><trkpt lat="44.5689868" lon="6.1010262"><ele>753.0</ele><time>2026-05-01T11:28:21.388Z</time></trkpt><trkpt lat="44.5689491" lon="6.1008997"><ele>753.0</ele><time>2026-05-01T11:28:22.387Z</time></trkpt><trkpt lat="44.5689099" lon="6.1007643"><ele>753.0</ele><time>2026-05-01T11:28:23.387Z</time></trkpt><trkpt lat="44.5688653" lon="6.1006258"><ele>753.0</ele><time>2026-05-01T11:28:24.387Z</time></trkpt><trkpt lat="44.5688166" lon="6.100483"><ele>753.0</ele><time>2026-05-01T11:28:25.387Z</time></trkpt><trkpt lat="44.5687645" lon="6.1003383"><ele>753.0</ele><time>2026-05-01T11:28:26.387Z</time></trkpt><trkpt lat="44.5687046" lon="6.1001912"><ele>753.0</ele><time>2026-05-01T11:28:27.388Z</time></trkpt><trkpt lat="44.568643" lon="6.100038"><ele>753.0</ele><time>2026-05-01T11:28:28.387Z</time></trkpt><trkpt lat="44.5685797" lon="6.0998793"><ele>753.0</ele><time>2026-05-01T11:28:29.387Z</time></trkpt><trkpt lat="44.5685132" lon="6.0997164"><ele>753.0</ele><time>2026-05-01T11:28:30.387Z</time></trkpt><trkpt lat="44.5684417" lon="6.0995469"><ele>753.0</ele><time>2026-05-01T11:28:31.387Z</time></trkpt><trkpt lat="44.5683702" lon="6.0993711"><ele>753.0</ele><time>2026-05-01T11:28:32.387Z</time></trkpt><trkpt lat="44.5682982" lon="6.0991996"><ele>753.0</ele><time>2026-05-01T11:28:33.387Z</time></trkpt><trkpt lat="44.5682282" lon="6.099035"><ele>752.75</ele><time>2026-05-01T11:28:34.388Z</time></trkpt><trkpt lat="44.5681651" lon="6.0988768"><ele>752.5</ele><time>2026-05-01T11:28:35.387Z</time></trkpt><trkpt lat="44.5681038" lon="6.0987266"><ele>752.25</ele><time>2026-05-01T11:28:36.388Z</time></trkpt><trkpt lat="44.5680469" lon="6.0985881"><ele>752.0</ele><time>2026-05-01T11:28:37.388Z</time></trkpt><trkpt lat="44.5679958" lon="6.0984603"><ele>752.0</ele><time>2026-05-01T11:28:38.387Z</time></trkpt><trkpt lat="44.5679475" lon="6.0983428"><ele>752.0</ele><time>2026-05-01T11:28:39.388Z</time></trkpt><trkpt lat="44.5679023" lon="6.0982292"><ele>752.0</ele><time>2026-05-01T11:28:40.387Z</time></trkpt><trkpt lat="44.567857" lon="6.0981211"><ele>752.0</ele><time>2026-05-01T11:28:41.387Z</time></trkpt><trkpt lat="44.5678127" lon="6.0980194"><ele>752.0</ele><time>2026-05-01T11:28:42.387Z</time></trkpt><trkpt lat="44.5677731" lon="6.0979207"><ele>752.0</ele><time>2026-05-01T11:28:43.387Z</time></trkpt><trkpt lat="44.5677326" lon="6.0978215"><ele>751.5</ele><time>2026-05-01T11:28:44.387Z</time></trkpt><trkpt lat="44.5676901" lon="6.0977266"><ele>751.0</ele><time>2026-05-01T11:28:45.387Z</time></trkpt><trkpt lat="44.5676487" lon="6.0976332"><ele>750.5</ele><time>2026-05-01T11:28:46.387Z</time></trkpt><trkpt lat="44.5676092" lon="6.0975351"><ele>750.0</ele><time>2026-05-01T11:28:47.387Z</time></trkpt><trkpt lat="44.5675729" lon="6.0974312"><ele>749.5</ele><time>2026-05-01T11:28:48.387Z</time></trkpt><trkpt lat="44.5675462" lon="6.0973193"><ele>749.0</ele><time>2026-05-01T11:28:49.387Z</time></trkpt><trkpt lat="44.567534" lon="6.0972035"><ele>748.8333333333333</ele><time>2026-05-01T11:28:50.387Z</time></trkpt><trkpt lat="44.5675223" lon="6.0970837"><ele>748.6666666666666</ele><time>2026-05-01T11:28:51.387Z</time></trkpt><trkpt lat="44.5674809" lon="6.0969912"><ele>748.5</ele><time>2026-05-01T11:28:52.387Z</time></trkpt><trkpt lat="44.5674206" lon="6.0969234"><ele>748.3333333333334</ele><time>2026-05-01T11:28:53.388Z</time></trkpt><trkpt lat="44.5673477" lon="6.0968422"><ele>748.1666666666667</ele><time>2026-05-01T11:28:54.388Z</time></trkpt><trkpt lat="44.5672799" lon="6.0967243"><ele>748.0</ele><time>2026-05-01T11:28:55.387Z</time></trkpt><trkpt lat="44.5672206" lon="6.0965826"><ele>747.8</ele><time>2026-05-01T11:28:56.387Z</time></trkpt><trkpt lat="44.5671612" lon="6.0964353"><ele>747.5999999999999</ele><time>2026-05-01T11:28:57.388Z</time></trkpt><trkpt lat="44.5671044" lon="6.0962981"><ele>747.4000000000001</ele><time>2026-05-01T11:28:58.387Z</time></trkpt><trkpt lat="44.5670503" lon="6.0961659"><ele>747.2</ele><time>2026-05-01T11:28:59.387Z</time></trkpt><trkpt lat="44.5669982" lon="6.0960386"><ele>747.0</ele><time>2026-05-01T11:29:00.387Z</time></trkpt><trkpt lat="44.5669424" lon="6.0959027"><ele>747.0</ele><time>2026-05-01T11:29:01.388Z</time></trkpt><trkpt lat="44.5668844" lon="6.0957658"><ele>747.0</ele><time>2026-05-01T11:29:02.387Z</time></trkpt><trkpt lat="44.5668238" lon="6.0956233"><ele>747.0</ele><time>2026-05-01T11:29:03.388Z</time></trkpt><trkpt lat="44.5667627" lon="6.0954834"><ele>747.0</ele><time>2026-05-01T11:29:04.387Z</time></trkpt><trkpt lat="44.5667069" lon="6.0953529"><ele>746.6</ele><time>2026-05-01T11:29:05.387Z</time></trkpt><trkpt lat="44.5666557" lon="6.0952258"><ele>746.2</ele><time>2026-05-01T11:29:06.387Z</time></trkpt><trkpt lat="44.5666076" lon="6.0951042"><ele>745.8</ele><time>2026-05-01T11:29:07.387Z</time></trkpt><trkpt lat="44.5665606" lon="6.0949881"><ele>745.4</ele><time>2026-05-01T11:29:08.387Z</time></trkpt><trkpt lat="44.5665173" lon="6.094878"><ele>745.0</ele><time>2026-05-01T11:29:09.387Z</time></trkpt><trkpt lat="44.5664732" lon="6.0947717"><ele>745.0</ele><time>2026-05-01T11:29:10.387Z</time></trkpt><trkpt lat="44.5664282" lon="6.0946658"><ele>745.0</ele><time>2026-05-01T11:29:11.388Z</time></trkpt><trkpt lat="44.5663824" lon="6.0945539"><ele>745.0</ele><time>2026-05-01T11:29:12.387Z</time></trkpt><trkpt lat="44.5663335" lon="6.094434"><ele>745.0</ele><time>2026-05-01T11:29:13.387Z</time></trkpt><trkpt lat="44.5662825" lon="6.0943188"><ele>745.0</ele><time>2026-05-01T11:29:14.388Z</time></trkpt><trkpt lat="44.5662312" lon="6.0941933"><ele>744.8</ele><time>2026-05-01T11:29:15.387Z</time></trkpt><trkpt lat="44.5661781" lon="6.0940682"><ele>744.6</ele><time>2026-05-01T11:29:16.388Z</time></trkpt><trkpt lat="44.5661266" lon="6.0939361"><ele>744.4000000000001</ele><time>2026-05-01T11:29:17.388Z</time></trkpt><trkpt lat="44.566077" lon="6.0938078"><ele>744.2</ele><time>2026-05-01T11:29:18.387Z</time></trkpt><trkpt lat="44.5660307" lon="6.093685"><ele>744.0</ele><time>2026-05-01T11:29:19.388Z</time></trkpt><trkpt lat="44.5659867" lon="6.0935676"><ele>744.0</ele><time>2026-05-01T11:29:20.387Z</time></trkpt><trkpt lat="44.565941" lon="6.0934595"><ele>744.0</ele><time>2026-05-01T11:29:21.387Z</time></trkpt><trkpt lat="44.5658964" lon="6.0933558"><ele>744.0</ele><time>2026-05-01T11:29:22.387Z</time></trkpt><trkpt lat="44.5658533" lon="6.0932583"><ele>744.0</ele><time>2026-05-01T11:29:23.387Z</time></trkpt><trkpt lat="44.5658126" lon="6.0931619"><ele>744.0</ele><time>2026-05-01T11:29:24.387Z</time></trkpt><trkpt lat="44.5657724" lon="6.0930716"><ele>744.0</ele><time>2026-05-01T11:29:25.387Z</time></trkpt><trkpt lat="44.5657402" lon="6.0929855"><ele>744.0</ele><time>2026-05-01T11:29:26.387Z</time></trkpt><trkpt lat="44.5657018" lon="6.0929101"><ele>744.0</ele><time>2026-05-01T11:29:27.388Z</time></trkpt><trkpt lat="44.5656639" lon="6.0928395"><ele>744.0</ele><time>2026-05-01T11:29:28.387Z</time></trkpt><trkpt lat="44.5655962" lon="6.0926987"><ele>744.0</ele><time>2026-05-01T11:29:30.387Z</time></trkpt><trkpt lat="44.5655433" lon="6.0925355"><ele>744.0</ele><time>2026-05-01T11:29:32.387Z</time></trkpt><trkpt lat="44.5655153" lon="6.0924551"><ele>744.0</ele><time>2026-05-01T11:29:33.387Z</time></trkpt><trkpt lat="44.565488" lon="6.09237"><ele>743.8333333333334</ele><time>2026-05-01T11:29:34.387Z</time></trkpt><trkpt lat="44.5654543" lon="6.0922834"><ele>743.6666666666666</ele><time>2026-05-01T11:29:35.387Z</time></trkpt><trkpt lat="44.565416" lon="6.0921931"><ele>743.5</ele><time>2026-05-01T11:29:36.387Z</time></trkpt><trkpt lat="44.5653769" lon="6.0920996"><ele>743.3333333333333</ele><time>2026-05-01T11:29:37.387Z</time></trkpt><trkpt lat="44.5653379" lon="6.0919996"><ele>743.1666666666666</ele><time>2026-05-01T11:29:38.387Z</time></trkpt><trkpt lat="44.5652976" lon="6.0918997"><ele>743.0</ele><time>2026-05-01T11:29:39.387Z</time></trkpt><trkpt lat="44.5652556" lon="6.0918008"><ele>743.0</ele><time>2026-05-01T11:29:40.387Z</time></trkpt><trkpt lat="44.5652148" lon="6.0917018"><ele>743.0</ele><time>2026-05-01T11:29:41.387Z</time></trkpt><trkpt lat="44.5651753" lon="6.0916068"><ele>743.0</ele><time>2026-05-01T11:29:42.387Z</time></trkpt><trkpt lat="44.5651382" lon="6.0915164"><ele>743.0</ele><time>2026-05-01T11:29:43.387Z</time></trkpt><trkpt lat="44.5651025" lon="6.0914288"><ele>743.0</ele><time>2026-05-01T11:29:44.388Z</time></trkpt><trkpt lat="44.5650699" lon="6.0913432"><ele>743.0</ele><time>2026-05-01T11:29:45.388Z</time></trkpt><trkpt lat="44.5650354" lon="6.0912621"><ele>743.0</ele><time>2026-05-01T11:29:46.387Z</time></trkpt><trkpt lat="44.5650031" lon="6.0911817"><ele>742.8571428571429</ele><time>2026-05-01T11:29:47.387Z</time></trkpt><trkpt lat="44.5649716" lon="6.0911027"><ele>742.7142857142857</ele><time>2026-05-01T11:29:48.387Z</time></trkpt><trkpt lat="44.564938" lon="6.0910212"><ele>742.5714285714286</ele><time>2026-05-01T11:29:49.387Z</time></trkpt><trkpt lat="44.5649039" lon="6.0909284"><ele>742.4285714285714</ele><time>2026-05-01T11:29:50.387Z</time></trkpt><trkpt lat="44.5648655" lon="6.0908384"><ele>742.2857142857142</ele><time>2026-05-01T11:29:51.387Z</time></trkpt><trkpt lat="44.5648278" lon="6.0907507"><ele>742.1428571428571</ele><time>2026-05-01T11:29:52.387Z</time></trkpt><trkpt lat="44.5647903" lon="6.0906657"><ele>742.0</ele><time>2026-05-01T11:29:53.388Z</time></trkpt><trkpt lat="44.5647538" lon="6.0905807"><ele>742.0</ele><time>2026-05-01T11:29:54.387Z</time></trkpt><trkpt lat="44.5647209" lon="6.0904981"><ele>742.0</ele><time>2026-05-01T11:29:55.387Z</time></trkpt><trkpt lat="44.5646869" lon="6.0904138"><ele>742.0</ele><time>2026-05-01T11:29:56.387Z</time></trkpt><trkpt lat="44.5646491" lon="6.0903236"><ele>742.0</ele><time>2026-05-01T11:29:57.387Z</time></trkpt><trkpt lat="44.5646126" lon="6.0902325"><ele>742.0</ele><time>2026-05-01T11:29:58.387Z</time></trkpt><trkpt lat="44.5645774" lon="6.0901437"><ele>742.0</ele><time>2026-05-01T11:29:59.387Z</time></trkpt><trkpt lat="44.5645419" lon="6.090058"><ele>742.0</ele><time>2026-05-01T11:30:00.387Z</time></trkpt><trkpt lat="44.5645054" lon="6.0899771"><ele>741.8571428571429</ele><time>2026-05-01T11:30:01.387Z</time></trkpt><trkpt lat="44.5644704" lon="6.089896"><ele>741.7142857142858</ele><time>2026-05-01T11:30:02.387Z</time></trkpt><trkpt lat="44.5644387" lon="6.0898169"><ele>741.5714285714286</ele><time>2026-05-01T11:30:03.387Z</time></trkpt><trkpt lat="44.5644067" lon="6.0897365"><ele>741.4285714285714</ele><time>2026-05-01T11:30:04.387Z</time></trkpt><trkpt lat="44.5643725" lon="6.0896508"><ele>741.2857142857143</ele><time>2026-05-01T11:30:05.387Z</time></trkpt><trkpt lat="44.5643397" lon="6.0895555"><ele>741.1428571428571</ele><time>2026-05-01T11:30:06.387Z</time></trkpt><trkpt lat="44.5643016" lon="6.0894592"><ele>741.0</ele><time>2026-05-01T11:30:07.387Z</time></trkpt><trkpt lat="44.5642629" lon="6.0893629"><ele>741.0</ele><time>2026-05-01T11:30:08.388Z</time></trkpt><trkpt lat="44.5642228" lon="6.0892591"><ele>741.0</ele><time>2026-05-01T11:30:09.388Z</time></trkpt><trkpt lat="44.5641799" lon="6.0891539"><ele>741.0</ele><time>2026-05-01T11:30:10.387Z</time></trkpt><trkpt lat="44.5641347" lon="6.0890422"><ele>741.0</ele><time>2026-05-01T11:30:11.387Z</time></trkpt><trkpt lat="44.564089" lon="6.0889228"><ele>741.0</ele><time>2026-05-01T11:30:12.388Z</time></trkpt><trkpt lat="44.5640391" lon="6.0888063"><ele>741.1999999999999</ele><time>2026-05-01T11:30:13.387Z</time></trkpt><trkpt lat="44.5639909" lon="6.0886884"><ele>741.4</ele><time>2026-05-01T11:30:14.387Z</time></trkpt><trkpt lat="44.5639391" lon="6.0885647"><ele>741.6</ele><time>2026-05-01T11:30:15.387Z</time></trkpt><trkpt lat="44.5638878" lon="6.0884378"><ele>741.8</ele><time>2026-05-01T11:30:16.387Z</time></trkpt><trkpt lat="44.5638387" lon="6.0883172"><ele>742.0</ele><time>2026-05-01T11:30:17.387Z</time></trkpt><trkpt lat="44.5637893" lon="6.0882031"><ele>742.6</ele><time>2026-05-01T11:30:18.387Z</time></trkpt><trkpt lat="44.5637415" lon="6.0880951"><ele>743.2</ele><time>2026-05-01T11:30:19.387Z</time></trkpt><trkpt lat="44.5636928" lon="6.0879816"><ele>743.8</ele><time>2026-05-01T11:30:20.388Z</time></trkpt><trkpt lat="44.5636454" lon="6.0878627"><ele>744.4</ele><time>2026-05-01T11:30:21.387Z</time></trkpt><trkpt lat="44.5635939" lon="6.0877406"><ele>745.0</ele><time>2026-05-01T11:30:22.387Z</time></trkpt><trkpt lat="44.5635446" lon="6.0876139"><ele>745.0</ele><time>2026-05-01T11:30:23.387Z</time></trkpt><trkpt lat="44.5634944" lon="6.0874847"><ele>745.0</ele><time>2026-05-01T11:30:24.388Z</time></trkpt><trkpt lat="44.5634416" lon="6.0873591"><ele>745.0</ele><time>2026-05-01T11:30:25.388Z</time></trkpt><trkpt lat="44.5633928" lon="6.0872358"><ele>745.0</ele><time>2026-05-01T11:30:26.387Z</time></trkpt><trkpt lat="44.5633384" lon="6.0871109"><ele>745.0</ele><time>2026-05-01T11:30:27.387Z</time></trkpt><trkpt lat="44.5632823" lon="6.0869801"><ele>745.0</ele><time>2026-05-01T11:30:28.387Z</time></trkpt><trkpt lat="44.5632267" lon="6.0868477"><ele>745.0</ele><time>2026-05-01T11:30:29.387Z</time></trkpt><trkpt lat="44.56317" lon="6.0867184"><ele>745.0</ele><time>2026-05-01T11:30:30.388Z</time></trkpt><trkpt lat="44.5631166" lon="6.0865961"><ele>745.0</ele><time>2026-05-01T11:30:31.387Z</time></trkpt><trkpt lat="44.5630633" lon="6.0864789"><ele>745.0</ele><time>2026-05-01T11:30:32.388Z</time></trkpt><trkpt lat="44.5630178" lon="6.0863688"><ele>745.0</ele><time>2026-05-01T11:30:33.387Z</time></trkpt><trkpt lat="44.5629756" lon="6.0862596"><ele>745.0</ele><time>2026-05-01T11:30:34.387Z</time></trkpt><trkpt lat="44.562929" lon="6.08615"><ele>745.0</ele><time>2026-05-01T11:30:35.387Z</time></trkpt><trkpt lat="44.5628838" lon="6.0860385"><ele>745.0</ele><time>2026-05-01T11:30:36.388Z</time></trkpt><trkpt lat="44.5628373" lon="6.0859286"><ele>745.0</ele><time>2026-05-01T11:30:37.387Z</time></trkpt><trkpt lat="44.562794" lon="6.0858197"><ele>745.2</ele><time>2026-05-01T11:30:38.387Z</time></trkpt><trkpt lat="44.5627502" lon="6.0857164"><ele>745.4</ele><time>2026-05-01T11:30:39.386Z</time></trkpt><trkpt lat="44.562708" lon="6.0856056"><ele>745.5999999999999</ele><time>2026-05-01T11:30:40.386Z</time></trkpt><trkpt lat="44.5626617" lon="6.0854963"><ele>745.8</ele><time>2026-05-01T11:30:41.387Z</time></trkpt><trkpt lat="44.5626179" lon="6.0853802"><ele>746.0</ele><time>2026-05-01T11:30:42.386Z</time></trkpt><trkpt lat="44.5625726" lon="6.0852646"><ele>746.0</ele><time>2026-05-01T11:30:43.386Z</time></trkpt><trkpt lat="44.5625251" lon="6.0851502"><ele>746.0</ele><time>2026-05-01T11:30:44.386Z</time></trkpt><trkpt lat="44.5624745" lon="6.0850363"><ele>746.0</ele><time>2026-05-01T11:30:45.386Z</time></trkpt><trkpt lat="44.5624196" lon="6.0849221"><ele>746.0</ele><time>2026-05-01T11:30:46.387Z</time></trkpt><trkpt lat="44.5623635" lon="6.0848127"><ele>746.0</ele><time>2026-05-01T11:30:47.386Z</time></trkpt><trkpt lat="44.5623107" lon="6.0847074"><ele>745.8333333333333</ele><time>2026-05-01T11:30:48.386Z</time></trkpt><trkpt lat="44.562265" lon="6.0846168"><ele>745.6666666666666</ele><time>2026-05-01T11:30:49.386Z</time></trkpt><trkpt lat="44.5622282" lon="6.0845421"><ele>745.5</ele><time>2026-05-01T11:30:50.386Z</time></trkpt><trkpt lat="44.562181" lon="6.0844221"><ele>745.3333333333334</ele><time>2026-05-01T11:30:52.386Z</time></trkpt><trkpt lat="44.5621472" lon="6.0843384"><ele>745.1666666666667</ele><time>2026-05-01T11:30:54.386Z</time></trkpt><trkpt lat="44.5621079" lon="6.0842019"><ele>745.0</ele><time>2026-05-01T11:30:56.387Z</time></trkpt><trkpt lat="44.5620757" lon="6.084092"><ele>745.0</ele><time>2026-05-01T11:30:57.387Z</time></trkpt><trkpt lat="44.5620349" lon="6.083978"><ele>745.0</ele><time>2026-05-01T11:30:58.386Z</time></trkpt><trkpt lat="44.5619827" lon="6.0838562"><ele>745.0</ele><time>2026-05-01T11:30:59.386Z</time></trkpt><trkpt lat="44.5619255" lon="6.0837262"><ele>745.0</ele><time>2026-05-01T11:31:00.386Z</time></trkpt><trkpt lat="44.5618693" lon="6.0835958"><ele>745.0</ele><time>2026-05-01T11:31:01.386Z</time></trkpt><trkpt lat="44.5618128" lon="6.0834676"><ele>745.2</ele><time>2026-05-01T11:31:02.386Z</time></trkpt><trkpt lat="44.5617588" lon="6.0833397"><ele>745.4</ele><time>2026-05-01T11:31:03.386Z</time></trkpt><trkpt lat="44.5617095" lon="6.0832153"><ele>745.5999999999999</ele><time>2026-05-01T11:31:04.386Z</time></trkpt><trkpt lat="44.5616576" lon="6.083095"><ele>745.8</ele><time>2026-05-01T11:31:05.387Z</time></trkpt><trkpt lat="44.5616067" lon="6.0829733"><ele>746.0</ele><time>2026-05-01T11:31:06.386Z</time></trkpt><trkpt lat="44.5615564" lon="6.0828494"><ele>745.4</ele><time>2026-05-01T11:31:07.386Z</time></trkpt><trkpt lat="44.561507" lon="6.0827244"><ele>744.8</ele><time>2026-05-01T11:31:08.386Z</time></trkpt><trkpt lat="44.5614608" lon="6.0826044"><ele>744.1999999999999</ele><time>2026-05-01T11:31:09.386Z</time></trkpt><trkpt lat="44.5614252" lon="6.0824863"><ele>743.5999999999999</ele><time>2026-05-01T11:31:10.386Z</time></trkpt><trkpt lat="44.5613978" lon="6.0823698"><ele>743.0</ele><time>2026-05-01T11:31:11.386Z</time></trkpt><trkpt lat="44.5613904" lon="6.0822398"><ele>742.8333333333333</ele><time>2026-05-01T11:31:12.386Z</time></trkpt><trkpt lat="44.5613932" lon="6.0821165"><ele>742.6666666666666</ele><time>2026-05-01T11:31:13.386Z</time></trkpt><trkpt lat="44.5614027" lon="6.0820007"><ele>742.5</ele><time>2026-05-01T11:31:14.386Z</time></trkpt><trkpt lat="44.5614157" lon="6.0818886"><ele>742.3333333333334</ele><time>2026-05-01T11:31:15.387Z</time></trkpt><trkpt lat="44.5614241" lon="6.0817849"><ele>742.1666666666667</ele><time>2026-05-01T11:31:16.386Z</time></trkpt><trkpt lat="44.5614285" lon="6.0816875"><ele>742.0</ele><time>2026-05-01T11:31:17.387Z</time></trkpt><trkpt lat="44.5614125" lon="6.0815312"><ele>742.3333333333334</ele><time>2026-05-01T11:31:19.386Z</time></trkpt><trkpt lat="44.5613803" lon="6.0814118"><ele>742.6666666666667</ele><time>2026-05-01T11:31:21.386Z</time></trkpt><trkpt lat="44.5613428" lon="6.0812982"><ele>743.0</ele><time>2026-05-01T11:31:24.387Z</time></trkpt><trkpt lat="44.561305" lon="6.0811868"><ele>743.3333333333334</ele><time>2026-05-01T11:31:27.387Z</time></trkpt><trkpt lat="44.5612704" lon="6.0811051"><ele>743.6666666666666</ele><time>2026-05-01T11:31:30.386Z</time></trkpt><trkpt lat="44.5612446" lon="6.0810226"><ele>744.0</ele><time>2026-05-01T11:31:41.386Z</time></trkpt><trkpt lat="44.5612156" lon="6.0809399"><ele>743.8333333333334</ele><time>2026-05-01T11:31:42.387Z</time></trkpt><trkpt lat="44.5611562" lon="6.0807871"><ele>743.6666666666666</ele><time>2026-05-01T11:31:44.386Z</time></trkpt><trkpt lat="44.5611227" lon="6.0807026"><ele>743.5</ele><time>2026-05-01T11:31:45.386Z</time></trkpt><trkpt lat="44.5610906" lon="6.0806121"><ele>743.3333333333333</ele><time>2026-05-01T11:31:46.386Z</time></trkpt><trkpt lat="44.5610718" lon="6.0805129"><ele>743.1666666666666</ele><time>2026-05-01T11:31:47.386Z</time></trkpt><trkpt lat="44.5610738" lon="6.0804104"><ele>743.0</ele><time>2026-05-01T11:31:48.387Z</time></trkpt><trkpt lat="44.5610977" lon="6.0803099"><ele>743.3333333333333</ele><time>2026-05-01T11:31:49.387Z</time></trkpt><trkpt lat="44.5611297" lon="6.080208"><ele>743.6666666666666</ele><time>2026-05-01T11:31:50.387Z</time></trkpt><trkpt lat="44.56116" lon="6.080103"><ele>744.0</ele><time>2026-05-01T11:31:51.386Z</time></trkpt><trkpt lat="44.5611879" lon="6.0799958"><ele>744.3333333333334</ele><time>2026-05-01T11:31:52.386Z</time></trkpt><trkpt lat="44.5612071" lon="6.0798828"><ele>744.6666666666667</ele><time>2026-05-01T11:31:53.386Z</time></trkpt><trkpt lat="44.5612117" lon="6.0797679"><ele>745.0</ele><time>2026-05-01T11:31:54.386Z</time></trkpt><trkpt lat="44.5612028" lon="6.0796547"><ele>745.1428571428571</ele><time>2026-05-01T11:31:55.386Z</time></trkpt><trkpt lat="44.5611811" lon="6.0795519"><ele>745.2857142857142</ele><time>2026-05-01T11:31:56.387Z</time></trkpt><trkpt lat="44.5611557" lon="6.0794618"><ele>745.4285714285714</ele><time>2026-05-01T11:31:57.386Z</time></trkpt><trkpt lat="44.56113" lon="6.0793742"><ele>745.5714285714286</ele><time>2026-05-01T11:31:58.387Z</time></trkpt><trkpt lat="44.5611037" lon="6.0792805"><ele>745.7142857142858</ele><time>2026-05-01T11:31:59.386Z</time></trkpt><trkpt lat="44.5610759" lon="6.0791749"><ele>745.8571428571429</ele><time>2026-05-01T11:32:00.386Z</time></trkpt><trkpt lat="44.5610442" lon="6.0790692"><ele>746.0</ele><time>2026-05-01T11:32:01.386Z</time></trkpt><trkpt lat="44.5610097" lon="6.0789574"><ele>746.1999999999999</ele><time>2026-05-01T11:32:02.386Z</time></trkpt><trkpt lat="44.5609707" lon="6.0788378"><ele>746.4</ele><time>2026-05-01T11:32:03.386Z</time></trkpt><trkpt lat="44.56093" lon="6.0787185"><ele>746.6</ele><time>2026-05-01T11:32:04.386Z</time></trkpt><trkpt lat="44.5608926" lon="6.0786027"><ele>746.8</ele><time>2026-05-01T11:32:05.386Z</time></trkpt><trkpt lat="44.560855" lon="6.0784895"><ele>747.0</ele><time>2026-05-01T11:32:06.386Z</time></trkpt><trkpt lat="44.5608187" lon="6.0783794"><ele>747.0</ele><time>2026-05-01T11:32:07.386Z</time></trkpt><trkpt lat="44.5607824" lon="6.0782738"><ele>747.0</ele><time>2026-05-01T11:32:08.386Z</time></trkpt><trkpt lat="44.5607476" lon="6.078173"><ele>747.0</ele><time>2026-05-01T11:32:09.386Z</time></trkpt><trkpt lat="44.5607123" lon="6.0780764"><ele>747.0</ele><time>2026-05-01T11:32:10.386Z</time></trkpt><trkpt lat="44.5606788" lon="6.0779868"><ele>747.0</ele><time>2026-05-01T11:32:11.386Z</time></trkpt><trkpt lat="44.560648" lon="6.0778955"><ele>747.0</ele><time>2026-05-01T11:32:12.387Z</time></trkpt><trkpt lat="44.5606148" lon="6.0777974"><ele>746.8</ele><time>2026-05-01T11:32:13.386Z</time></trkpt><trkpt lat="44.5605785" lon="6.0776887"><ele>746.6</ele><time>2026-05-01T11:32:14.386Z</time></trkpt><trkpt lat="44.5605386" lon="6.0775772"><ele>746.4</ele><time>2026-05-01T11:32:15.386Z</time></trkpt><trkpt lat="44.5604991" lon="6.0774548"><ele>746.1999999999999</ele><time>2026-05-01T11:32:16.386Z</time></trkpt><trkpt lat="44.5604617" lon="6.0773277"><ele>746.0</ele><time>2026-05-01T11:32:17.386Z</time></trkpt><trkpt lat="44.560428" lon="6.0772101"><ele>746.0</ele><time>2026-05-01T11:32:18.386Z</time></trkpt><trkpt lat="44.5603951" lon="6.0771109"><ele>746.0</ele><time>2026-05-01T11:32:19.386Z</time></trkpt><trkpt lat="44.5603658" lon="6.0770169"><ele>746.0</ele><time>2026-05-01T11:32:20.386Z</time></trkpt><trkpt lat="44.5603357" lon="6.0769235"><ele>746.0</ele><time>2026-05-01T11:32:21.386Z</time></trkpt><trkpt lat="44.5603086" lon="6.0768384"><ele>746.0</ele><time>2026-05-01T11:32:22.387Z</time></trkpt><trkpt lat="44.5602541" lon="6.0766788"><ele>746.0</ele><time>2026-05-01T11:32:24.386Z</time></trkpt><trkpt lat="44.5602252" lon="6.0765918"><ele>746.1666666666666</ele><time>2026-05-01T11:32:25.386Z</time></trkpt><trkpt lat="44.5601908" lon="6.0764997"><ele>746.3333333333333</ele><time>2026-05-01T11:32:26.386Z</time></trkpt><trkpt lat="44.5601594" lon="6.0764131"><ele>746.5</ele><time>2026-05-01T11:32:27.386Z</time></trkpt><trkpt lat="44.560133" lon="6.0763207"><ele>746.6666666666666</ele><time>2026-05-01T11:32:28.386Z</time></trkpt><trkpt lat="44.5601105" lon="6.0762201"><ele>746.8333333333334</ele><time>2026-05-01T11:32:29.386Z</time></trkpt><trkpt lat="44.5600904" lon="6.0761125"><ele>747.0</ele><time>2026-05-01T11:32:30.386Z</time></trkpt><trkpt lat="44.5600688" lon="6.0760022"><ele>747.0</ele><time>2026-05-01T11:32:31.386Z</time></trkpt><trkpt lat="44.5600413" lon="6.0758899"><ele>747.0</ele><time>2026-05-01T11:32:32.387Z</time></trkpt><trkpt lat="44.560005" lon="6.0757847"><ele>747.0</ele><time>2026-05-01T11:32:33.386Z</time></trkpt><trkpt lat="44.5599728" lon="6.0756827"><ele>747.0</ele><time>2026-05-01T11:32:34.386Z</time></trkpt><trkpt lat="44.5599428" lon="6.0755929"><ele>747.0</ele><time>2026-05-01T11:32:35.386Z</time></trkpt><trkpt lat="44.5599135" lon="6.0755009"><ele>747.0</ele><time>2026-05-01T11:32:36.386Z</time></trkpt><trkpt lat="44.5598832" lon="6.0754129"><ele>747.5714285714286</ele><time>2026-05-01T11:32:37.386Z</time></trkpt><trkpt lat="44.5598562" lon="6.0753307"><ele>748.1428571428571</ele><time>2026-05-01T11:32:38.387Z</time></trkpt><trkpt lat="44.5598273" lon="6.0752378"><ele>748.7142857142858</ele><time>2026-05-01T11:32:39.386Z</time></trkpt><trkpt lat="44.5598002" lon="6.0751439"><ele>749.2857142857142</ele><time>2026-05-01T11:32:40.386Z</time></trkpt><trkpt lat="44.5597736" lon="6.0750434"><ele>749.8571428571429</ele><time>2026-05-01T11:32:41.387Z</time></trkpt><trkpt lat="44.5597435" lon="6.0749398"><ele>750.4285714285714</ele><time>2026-05-01T11:32:42.386Z</time></trkpt><trkpt lat="44.5597111" lon="6.0748328"><ele>751.0</ele><time>2026-05-01T11:32:43.386Z</time></trkpt><trkpt lat="44.5596779" lon="6.0747234"><ele>751.4</ele><time>2026-05-01T11:32:44.386Z</time></trkpt><trkpt lat="44.5596455" lon="6.0746069"><ele>751.8</ele><time>2026-05-01T11:32:45.386Z</time></trkpt><trkpt lat="44.5596061" lon="6.0744882"><ele>752.1999999999999</ele><time>2026-05-01T11:32:46.386Z</time></trkpt><trkpt lat="44.5595705" lon="6.0743666"><ele>752.5999999999999</ele><time>2026-05-01T11:32:47.386Z</time></trkpt><trkpt lat="44.5595324" lon="6.0742418"><ele>753.0</ele><time>2026-05-01T11:32:48.386Z</time></trkpt><trkpt lat="44.559494" lon="6.0741193"><ele>753.8</ele><time>2026-05-01T11:32:49.387Z</time></trkpt><trkpt lat="44.5594533" lon="6.073996"><ele>754.5999999999999</ele><time>2026-05-01T11:32:50.387Z</time></trkpt><trkpt lat="44.5594171" lon="6.0738712"><ele>755.4000000000001</ele><time>2026-05-01T11:32:51.387Z</time></trkpt><trkpt lat="44.5593759" lon="6.0737383"><ele>756.2</ele><time>2026-05-01T11:32:52.386Z</time></trkpt><trkpt lat="44.5593321" lon="6.0736029"><ele>757.0</ele><time>2026-05-01T11:32:53.386Z</time></trkpt><trkpt lat="44.5592856" lon="6.0734637"><ele>757.0</ele><time>2026-05-01T11:32:54.386Z</time></trkpt><trkpt lat="44.55924" lon="6.0733192"><ele>757.0</ele><time>2026-05-01T11:32:55.386Z</time></trkpt><trkpt lat="44.5591953" lon="6.0731727"><ele>757.0</ele><time>2026-05-01T11:32:56.386Z</time></trkpt><trkpt lat="44.5591483" lon="6.0730206"><ele>757.0</ele><time>2026-05-01T11:32:57.386Z</time></trkpt><trkpt lat="44.5590988" lon="6.0728711"><ele>758.2</ele><time>2026-05-01T11:32:58.386Z</time></trkpt><trkpt lat="44.5590538" lon="6.0727244"><ele>759.4000000000001</ele><time>2026-05-01T11:32:59.387Z</time></trkpt><trkpt lat="44.5590096" lon="6.0725819"><ele>760.5999999999999</ele><time>2026-05-01T11:33:00.386Z</time></trkpt><trkpt lat="44.5589649" lon="6.0724433"><ele>761.8</ele><time>2026-05-01T11:33:01.387Z</time></trkpt><trkpt lat="44.5589216" lon="6.0723014"><ele>763.0</ele><time>2026-05-01T11:33:02.386Z</time></trkpt><trkpt lat="44.5588749" lon="6.0721581"><ele>764.75</ele><time>2026-05-01T11:33:03.386Z</time></trkpt><trkpt lat="44.5588294" lon="6.0720112"><ele>766.5</ele><time>2026-05-01T11:33:04.386Z</time></trkpt><trkpt lat="44.5587821" lon="6.0718593"><ele>768.25</ele><time>2026-05-01T11:33:05.386Z</time></trkpt><trkpt lat="44.5587279" lon="6.0716883"><ele>770.0</ele><time>2026-05-01T11:33:06.387Z</time></trkpt><trkpt lat="44.5586721" lon="6.0715125"><ele>771.25</ele><time>2026-05-01T11:33:07.387Z</time></trkpt><trkpt lat="44.5586185" lon="6.0713468"><ele>772.5</ele><time>2026-05-01T11:33:08.386Z</time></trkpt><trkpt lat="44.558569" lon="6.0711915"><ele>773.75</ele><time>2026-05-01T11:33:09.386Z</time></trkpt><trkpt lat="44.5585232" lon="6.0710528"><ele>775.0</ele><time>2026-05-01T11:33:10.386Z</time></trkpt><trkpt lat="44.558474" lon="6.0709293"><ele>775.0</ele><time>2026-05-01T11:33:11.386Z</time></trkpt><trkpt lat="44.5584156" lon="6.0708341"><ele>775.0</ele><time>2026-05-01T11:33:12.386Z</time></trkpt><trkpt lat="44.5583401" lon="6.0707636"><ele>775.0</ele><time>2026-05-01T11:33:13.386Z</time></trkpt><trkpt lat="44.5582494" lon="6.0707226"><ele>775.0</ele><time>2026-05-01T11:33:14.386Z</time></trkpt><trkpt lat="44.5581532" lon="6.0707169"><ele>775.0</ele><time>2026-05-01T11:33:15.387Z</time></trkpt><trkpt lat="44.558058" lon="6.0707491"><ele>775.0</ele><time>2026-05-01T11:33:16.386Z</time></trkpt><trkpt lat="44.5579703" lon="6.0708212"><ele>775.0</ele><time>2026-05-01T11:33:17.386Z</time></trkpt><trkpt lat="44.5578989" lon="6.0709242"><ele>775.0</ele><time>2026-05-01T11:33:18.386Z</time></trkpt><trkpt lat="44.5578535" lon="6.07106"><ele>775.0</ele><time>2026-05-01T11:33:19.387Z</time></trkpt><trkpt lat="44.5578343" lon="6.0712047"><ele>775.0</ele><time>2026-05-01T11:33:20.386Z</time></trkpt><trkpt lat="44.5578169" lon="6.0713475"><ele>775.2</ele><time>2026-05-01T11:33:21.387Z</time></trkpt><trkpt lat="44.5577817" lon="6.0714856"><ele>775.4</ele><time>2026-05-01T11:33:22.386Z</time></trkpt><trkpt lat="44.5577155" lon="6.0715906"><ele>775.5999999999999</ele><time>2026-05-01T11:33:23.386Z</time></trkpt><trkpt lat="44.5576341" lon="6.0716493"><ele>775.8</ele><time>2026-05-01T11:33:24.386Z</time></trkpt><trkpt lat="44.5575459" lon="6.0716651"><ele>776.0</ele><time>2026-05-01T11:33:25.387Z</time></trkpt><trkpt lat="44.5574589" lon="6.0716363"><ele>776.0000000000001</ele><time>2026-05-01T11:33:26.387Z</time></trkpt><trkpt lat="44.5573899" lon="6.0715717"><ele>776.0</ele><time>2026-05-01T11:33:27.387Z</time></trkpt><trkpt lat="44.5573338" lon="6.0714825"><ele>776.0</ele><time>2026-05-01T11:33:28.386Z</time></trkpt><trkpt lat="44.5572842" lon="6.0713791"><ele>776.0</ele><time>2026-05-01T11:33:29.387Z</time></trkpt><trkpt lat="44.5572416" lon="6.0712661"><ele>776.0000000000001</ele><time>2026-05-01T11:33:30.387Z</time></trkpt><trkpt lat="44.5571985" lon="6.0711436"><ele>776.0</ele><time>2026-05-01T11:33:31.386Z</time></trkpt><trkpt lat="44.5571556" lon="6.0710224"><ele>776.0</ele><time>2026-05-01T11:33:32.386Z</time></trkpt><trkpt lat="44.5571162" lon="6.07091"><ele>776.0</ele><time>2026-05-01T11:33:33.386Z</time></trkpt><trkpt lat="44.5570864" lon="6.07081"><ele>776.0</ele><time>2026-05-01T11:33:34.386Z</time></trkpt><trkpt lat="44.5570629" lon="6.0707191"><ele>776.0</ele><time>2026-05-01T11:33:35.386Z</time></trkpt><trkpt lat="44.5570347" lon="6.0705584"><ele>776.0</ele><time>2026-05-01T11:33:37.386Z</time></trkpt><trkpt lat="44.5570298" lon="6.0704211"><ele>776.2857142857142</ele><time>2026-05-01T11:33:39.386Z</time></trkpt><trkpt lat="44.5570342" lon="6.0703253"><ele>776.5714285714287</ele><time>2026-05-01T11:33:40.386Z</time></trkpt><trkpt lat="44.5570458" lon="6.0702207"><ele>776.8571428571429</ele><time>2026-05-01T11:33:41.386Z</time></trkpt><trkpt lat="44.5570617" lon="6.0701247"><ele>777.1428571428571</ele><time>2026-05-01T11:33:42.386Z</time></trkpt><trkpt lat="44.5570915" lon="6.0700337"><ele>777.4285714285713</ele><time>2026-05-01T11:33:43.386Z</time></trkpt><trkpt lat="44.5571324" lon="6.069958"><ele>777.7142857142858</ele><time>2026-05-01T11:33:44.386Z</time></trkpt><trkpt lat="44.5571857" lon="6.0698885"><ele>778.0</ele><time>2026-05-01T11:33:45.386Z</time></trkpt><trkpt lat="44.5572449" lon="6.0698172"><ele>779.5999999999999</ele><time>2026-05-01T11:33:46.386Z</time></trkpt><trkpt lat="44.557307" lon="6.0697359"><ele>781.1999999999999</ele><time>2026-05-01T11:33:47.387Z</time></trkpt><trkpt lat="44.5573744" lon="6.0696485"><ele>782.8</ele><time>2026-05-01T11:33:48.386Z</time></trkpt><trkpt lat="44.5574407" lon="6.0695576"><ele>784.4</ele><time>2026-05-01T11:33:49.386Z</time></trkpt><trkpt lat="44.5575099" lon="6.069466"><ele>786.0</ele><time>2026-05-01T11:33:50.387Z</time></trkpt><trkpt lat="44.5575784" lon="6.0693758"><ele>786.0</ele><time>2026-05-01T11:33:51.386Z</time></trkpt><trkpt lat="44.5576429" lon="6.0692894"><ele>786.0</ele><time>2026-05-01T11:33:52.386Z</time></trkpt><trkpt lat="44.5577016" lon="6.0691998"><ele>786.0</ele><time>2026-05-01T11:33:53.387Z</time></trkpt><trkpt lat="44.5577549" lon="6.0691066"><ele>786.0</ele><time>2026-05-01T11:33:54.387Z</time></trkpt><trkpt lat="44.5577972" lon="6.0690192"><ele>786.0</ele><time>2026-05-01T11:33:55.386Z</time></trkpt><trkpt lat="44.5578321" lon="6.0689437"><ele>786.0</ele><time>2026-05-01T11:33:56.386Z</time></trkpt><trkpt lat="44.5579036" lon="6.0688016"><ele>786.5999999999999</ele><time>2026-05-01T11:33:58.386Z</time></trkpt><trkpt lat="44.5579389" lon="6.0687277"><ele>787.2</ele><time>2026-05-01T11:33:59.387Z</time></trkpt><trkpt lat="44.5579696" lon="6.0685657"><ele>787.8</ele><time>2026-05-01T11:34:01.386Z</time></trkpt><trkpt lat="44.557912" lon="6.0684022"><ele>788.4000000000001</ele><time>2026-05-01T11:34:03.386Z</time></trkpt><trkpt lat="44.5578428" lon="6.0683304"><ele>789.0</ele><time>2026-05-01T11:34:04.386Z</time></trkpt><trkpt lat="44.5577608" lon="6.068255"><ele>790.2</ele><time>2026-05-01T11:34:05.386Z</time></trkpt><trkpt lat="44.5576741" lon="6.0681777"><ele>791.4000000000001</ele><time>2026-05-01T11:34:06.386Z</time></trkpt><trkpt lat="44.5575765" lon="6.0681078"><ele>792.6</ele><time>2026-05-01T11:34:07.386Z</time></trkpt><trkpt lat="44.5574672" lon="6.0680624"><ele>793.8</ele><time>2026-05-01T11:34:08.386Z</time></trkpt><trkpt lat="44.5573487" lon="6.0680468"><ele>795.0</ele><time>2026-05-01T11:34:09.386Z</time></trkpt><trkpt lat="44.557229" lon="6.0680379"><ele>795.0</ele><time>2026-05-01T11:34:10.386Z</time></trkpt><trkpt lat="44.5571182" lon="6.0680094"><ele>795.0</ele><time>2026-05-01T11:34:11.386Z</time></trkpt><trkpt lat="44.5570148" lon="6.067961"><ele>795.0</ele><time>2026-05-01T11:34:12.387Z</time></trkpt><trkpt lat="44.5569174" lon="6.0678947"><ele>795.0</ele><time>2026-05-01T11:34:13.386Z</time></trkpt><trkpt lat="44.556827" lon="6.0678117"><ele>795.0</ele><time>2026-05-01T11:34:14.386Z</time></trkpt><trkpt lat="44.5567512" lon="6.0677165"><ele>795.2</ele><time>2026-05-01T11:34:15.386Z</time></trkpt><trkpt lat="44.5566925" lon="6.0676156"><ele>795.4</ele><time>2026-05-01T11:34:16.387Z</time></trkpt><trkpt lat="44.5566484" lon="6.0675009"><ele>795.5999999999999</ele><time>2026-05-01T11:34:17.386Z</time></trkpt><trkpt lat="44.5566091" lon="6.067387"><ele>795.8</ele><time>2026-05-01T11:34:18.387Z</time></trkpt><trkpt lat="44.5565701" lon="6.0672706"><ele>796.0</ele><time>2026-05-01T11:34:19.387Z</time></trkpt><trkpt lat="44.5565293" lon="6.0671482"><ele>796.8</ele><time>2026-05-01T11:34:20.386Z</time></trkpt><trkpt lat="44.5564858" lon="6.0670107"><ele>797.5999999999999</ele><time>2026-05-01T11:34:21.386Z</time></trkpt><trkpt lat="44.5564415" lon="6.0668653"><ele>798.4</ele><time>2026-05-01T11:34:22.386Z</time></trkpt><trkpt lat="44.5563956" lon="6.0667245"><ele>799.2</ele><time>2026-05-01T11:34:23.386Z</time></trkpt><trkpt lat="44.5563493" lon="6.0665768"><ele>800.0</ele><time>2026-05-01T11:34:24.387Z</time></trkpt><trkpt lat="44.5563004" lon="6.0664218"><ele>799.75</ele><time>2026-05-01T11:34:25.386Z</time></trkpt><trkpt lat="44.5562502" lon="6.0662626"><ele>799.5</ele><time>2026-05-01T11:34:26.386Z</time></trkpt><trkpt lat="44.5562007" lon="6.0660999"><ele>799.25</ele><time>2026-05-01T11:34:27.386Z</time></trkpt><trkpt lat="44.556151" lon="6.0659385"><ele>799.0</ele><time>2026-05-01T11:34:28.387Z</time></trkpt><trkpt lat="44.5561002" lon="6.0657764"><ele>799.5</ele><time>2026-05-01T11:34:29.386Z</time></trkpt><trkpt lat="44.5560497" lon="6.0656194"><ele>800.0</ele><time>2026-05-01T11:34:30.387Z</time></trkpt><trkpt lat="44.5560088" lon="6.0654675"><ele>800.5</ele><time>2026-05-01T11:34:31.386Z</time></trkpt><trkpt lat="44.5559839" lon="6.0653131"><ele>801.0</ele><time>2026-05-01T11:34:32.386Z</time></trkpt><trkpt lat="44.5559822" lon="6.065165"><ele>801.0</ele><time>2026-05-01T11:34:33.386Z</time></trkpt><trkpt lat="44.5559995" lon="6.0650239"><ele>801.0</ele><time>2026-05-01T11:34:34.386Z</time></trkpt><trkpt lat="44.556032" lon="6.0648978"><ele>801.0</ele><time>2026-05-01T11:34:35.386Z</time></trkpt><trkpt lat="44.5560857" lon="6.0647818"><ele>801.0</ele><time>2026-05-01T11:34:36.387Z</time></trkpt><trkpt lat="44.5561595" lon="6.0646701"><ele>801.0</ele><time>2026-05-01T11:34:37.386Z</time></trkpt><trkpt lat="44.5562486" lon="6.0645663"><ele>803.75</ele><time>2026-05-01T11:34:38.386Z</time></trkpt><trkpt lat="44.5563486" lon="6.0644673"><ele>806.5</ele><time>2026-05-01T11:34:39.386Z</time></trkpt><trkpt lat="44.5564547" lon="6.0643707"><ele>809.25</ele><time>2026-05-01T11:34:40.386Z</time></trkpt><trkpt lat="44.5565604" lon="6.0642748"><ele>812.0</ele><time>2026-05-01T11:34:41.386Z</time></trkpt><trkpt lat="44.5566597" lon="6.0641865"><ele>812.0</ele><time>2026-05-01T11:34:42.386Z</time></trkpt><trkpt lat="44.5567484" lon="6.0641035"><ele>812.0</ele><time>2026-05-01T11:34:43.386Z</time></trkpt><trkpt lat="44.556828" lon="6.0640371"><ele>812.0</ele><time>2026-05-01T11:34:44.387Z</time></trkpt><trkpt lat="44.5569" lon="6.0639858"><ele>812.0</ele><time>2026-05-01T11:34:45.386Z</time></trkpt><trkpt lat="44.5570122" lon="6.0639409"><ele>812.0</ele><time>2026-05-01T11:34:47.387Z</time></trkpt><trkpt lat="44.5571412" lon="6.0639463"><ele>812.5000000000001</ele><time>2026-05-01T11:34:49.387Z</time></trkpt><trkpt lat="44.5572146" lon="6.0639363"><ele>813.0</ele><time>2026-05-01T11:34:50.386Z</time></trkpt><trkpt lat="44.557279" lon="6.0639016"><ele>813.5</ele><time>2026-05-01T11:34:51.386Z</time></trkpt><trkpt lat="44.5573326" lon="6.0638513"><ele>814.0</ele><time>2026-05-01T11:34:52.388Z</time></trkpt><trkpt lat="44.5574075" lon="6.0637201"><ele>814.5000000000001</ele><time>2026-05-01T11:34:54.386Z</time></trkpt><trkpt lat="44.5574243" lon="6.0636285"><ele>815.0</ele><time>2026-05-01T11:34:55.387Z</time></trkpt><trkpt lat="44.5574131" lon="6.0635392"><ele>815.0000000000001</ele><time>2026-05-01T11:34:56.386Z</time></trkpt><trkpt lat="44.5573851" lon="6.0634401"><ele>815.0</ele><time>2026-05-01T11:34:57.386Z</time></trkpt><trkpt lat="44.5573535" lon="6.0633301"><ele>815.0</ele><time>2026-05-01T11:34:58.386Z</time></trkpt><trkpt lat="44.5573259" lon="6.0632049"><ele>815.0</ele><time>2026-05-01T11:34:59.386Z</time></trkpt><trkpt lat="44.5572996" lon="6.0630772"><ele>815.0000000000001</ele><time>2026-05-01T11:35:00.386Z</time></trkpt><trkpt lat="44.5572676" lon="6.0629563"><ele>815.0</ele><time>2026-05-01T11:35:01.386Z</time></trkpt><trkpt lat="44.5572267" lon="6.0628434"><ele>815.25</ele><time>2026-05-01T11:35:02.386Z</time></trkpt><trkpt lat="44.5571618" lon="6.0627342"><ele>815.5</ele><time>2026-05-01T11:35:03.386Z</time></trkpt><trkpt lat="44.5570721" lon="6.0626342"><ele>815.75</ele><time>2026-05-01T11:35:04.386Z</time></trkpt><trkpt lat="44.5569563" lon="6.0625358"><ele>816.0</ele><time>2026-05-01T11:35:05.386Z</time></trkpt><trkpt lat="44.5568209" lon="6.0624263"><ele>818.0</ele><time>2026-05-01T11:35:06.386Z</time></trkpt><trkpt lat="44.556703" lon="6.0623002"><ele>820.0</ele><time>2026-05-01T11:35:07.387Z</time></trkpt><trkpt lat="44.5565985" lon="6.0621601"><ele>822.0</ele><time>2026-05-01T11:35:08.386Z</time></trkpt><trkpt lat="44.5565233" lon="6.0620132"><ele>824.0</ele><time>2026-05-01T11:35:09.386Z</time></trkpt><trkpt lat="44.5564812" lon="6.0618712"><ele>824.0</ele><time>2026-05-01T11:35:10.387Z</time></trkpt><trkpt lat="44.5564645" lon="6.0617243"><ele>824.0</ele><time>2026-05-01T11:35:11.386Z</time></trkpt><trkpt lat="44.5564854" lon="6.0615787"><ele>824.0</ele><time>2026-05-01T11:35:12.386Z</time></trkpt><trkpt lat="44.5565321" lon="6.0614383"><ele>824.0</ele><time>2026-05-01T11:35:13.386Z</time></trkpt><trkpt lat="44.5566004" lon="6.0613044"><ele>824.0</ele><time>2026-05-01T11:35:14.386Z</time></trkpt><trkpt lat="44.5566918" lon="6.0611791"><ele>825.0</ele><time>2026-05-01T11:35:15.387Z</time></trkpt><trkpt lat="44.5567972" lon="6.0610509"><ele>826.0</ele><time>2026-05-01T11:35:16.386Z</time></trkpt><trkpt lat="44.5569078" lon="6.0609162"><ele>827.0</ele><time>2026-05-01T11:35:17.386Z</time></trkpt><trkpt lat="44.5570237" lon="6.0607713"><ele>828.0</ele><time>2026-05-01T11:35:18.386Z</time></trkpt><trkpt lat="44.5571384" lon="6.0606183"><ele>828.5</ele><time>2026-05-01T11:35:19.386Z</time></trkpt><trkpt lat="44.5572439" lon="6.0604658"><ele>829.0</ele><time>2026-05-01T11:35:20.386Z</time></trkpt><trkpt lat="44.5573315" lon="6.0603069"><ele>829.5</ele><time>2026-05-01T11:35:21.386Z</time></trkpt><trkpt lat="44.5574019" lon="6.0601364"><ele>830.0</ele><time>2026-05-01T11:35:22.387Z</time></trkpt><trkpt lat="44.557444" lon="6.0599486"><ele>830.3333333333334</ele><time>2026-05-01T11:35:23.386Z</time></trkpt><trkpt lat="44.5574552" lon="6.0597399"><ele>830.6666666666667</ele><time>2026-05-01T11:35:24.386Z</time></trkpt><trkpt lat="44.5574586" lon="6.0595147"><ele>831.0</ele><time>2026-05-01T11:35:25.386Z</time></trkpt><trkpt lat="44.5574639" lon="6.0592763"><ele>832.0</ele><time>2026-05-01T11:35:26.386Z</time></trkpt><trkpt lat="44.5574679" lon="6.0590232"><ele>833.0</ele><time>2026-05-01T11:35:27.386Z</time></trkpt><trkpt lat="44.557475" lon="6.0587592"><ele>834.0</ele><time>2026-05-01T11:35:28.386Z</time></trkpt><trkpt lat="44.5574825" lon="6.0584833"><ele>834.3333333333333</ele><time>2026-05-01T11:35:29.386Z</time></trkpt><trkpt lat="44.5574888" lon="6.0581964"><ele>834.6666666666666</ele><time>2026-05-01T11:35:30.388Z</time></trkpt><trkpt lat="44.5574977" lon="6.0579085"><ele>835.0</ele><time>2026-05-01T11:35:31.386Z</time></trkpt><trkpt lat="44.5575091" lon="6.0576325"><ele>835.3333333333333</ele><time>2026-05-01T11:35:32.386Z</time></trkpt><trkpt lat="44.557518" lon="6.057369"><ele>835.6666666666667</ele><time>2026-05-01T11:35:33.386Z</time></trkpt><trkpt lat="44.5575255" lon="6.0571185"><ele>836.0</ele><time>2026-05-01T11:35:34.387Z</time></trkpt><trkpt lat="44.5575338" lon="6.0568798"><ele>836.0</ele><time>2026-05-01T11:35:35.386Z</time></trkpt><trkpt lat="44.5575412" lon="6.0566519"><ele>836.0</ele><time>2026-05-01T11:35:36.386Z</time></trkpt><trkpt lat="44.5575478" lon="6.0564316"><ele>836.0</ele><time>2026-05-01T11:35:37.386Z</time></trkpt><trkpt lat="44.5575527" lon="6.0562267"><ele>836.1999999999999</ele><time>2026-05-01T11:35:38.386Z</time></trkpt><trkpt lat="44.5575565" lon="6.056046"><ele>836.4</ele><time>2026-05-01T11:35:39.387Z</time></trkpt><trkpt lat="44.5575589" lon="6.0558954"><ele>836.6</ele><time>2026-05-01T11:35:40.387Z</time></trkpt><trkpt lat="44.5575635" lon="6.0557623"><ele>836.8</ele><time>2026-05-01T11:35:41.387Z</time></trkpt><trkpt lat="44.5575698" lon="6.0556433"><ele>837.0</ele><time>2026-05-01T11:35:42.387Z</time></trkpt><trkpt lat="44.5575896" lon="6.0555344"><ele>837.0</ele><time>2026-05-01T11:35:43.386Z</time></trkpt><trkpt lat="44.5576311" lon="6.0554362"><ele>837.0</ele><time>2026-05-01T11:35:44.387Z</time></trkpt><trkpt lat="44.557696" lon="6.0553583"><ele>837.0</ele><time>2026-05-01T11:35:45.386Z</time></trkpt><trkpt lat="44.5577801" lon="6.0553085"><ele>837.0</ele><time>2026-05-01T11:35:46.386Z</time></trkpt><trkpt lat="44.5578756" lon="6.0552926"><ele>837.0</ele><time>2026-05-01T11:35:47.386Z</time></trkpt><trkpt lat="44.5579743" lon="6.0553053"><ele>837.6666666666666</ele><time>2026-05-01T11:35:48.386Z</time></trkpt><trkpt lat="44.5580703" lon="6.0553132"><ele>838.3333333333333</ele><time>2026-05-01T11:35:49.386Z</time></trkpt><trkpt lat="44.5581598" lon="6.0552897"><ele>839.0</ele><time>2026-05-01T11:35:50.386Z</time></trkpt><trkpt lat="44.558228" lon="6.0552271"><ele>839.6666666666666</ele><time>2026-05-01T11:35:51.386Z</time></trkpt><trkpt lat="44.558269" lon="6.0551419"><ele>840.3333333333333</ele><time>2026-05-01T11:35:52.388Z</time></trkpt><trkpt lat="44.558278" lon="6.0550449"><ele>841.0</ele><time>2026-05-01T11:35:53.387Z</time></trkpt><trkpt lat="44.5582586" lon="6.0549464"><ele>841.4</ele><time>2026-05-01T11:35:54.388Z</time></trkpt><trkpt lat="44.5582084" lon="6.054843"><ele>841.8</ele><time>2026-05-01T11:35:55.386Z</time></trkpt><trkpt lat="44.5581496" lon="6.0547279"><ele>842.1999999999999</ele><time>2026-05-01T11:35:56.386Z</time></trkpt><trkpt lat="44.5581043" lon="6.0546033"><ele>842.5999999999999</ele><time>2026-05-01T11:35:57.386Z</time></trkpt><trkpt lat="44.5580645" lon="6.0544739"><ele>843.0</ele><time>2026-05-01T11:35:58.387Z</time></trkpt><trkpt lat="44.5580219" lon="6.0543606"><ele>843.0</ele><time>2026-05-01T11:35:59.386Z</time></trkpt><trkpt lat="44.5579785" lon="6.0542685"><ele>843.0</ele><time>2026-05-01T11:36:00.387Z</time></trkpt><trkpt lat="44.5579392" lon="6.0541929"><ele>843.0</ele><time>2026-05-01T11:36:01.386Z</time></trkpt><trkpt lat="44.5578756" lon="6.0540887"><ele>843.0</ele><time>2026-05-01T11:36:03.386Z</time></trkpt><trkpt lat="44.5578298" lon="6.0540228"><ele>843.0</ele><time>2026-05-01T11:36:05.386Z</time></trkpt><trkpt lat="44.5577923" lon="6.0539271"><ele>843.0</ele><time>2026-05-01T11:36:08.387Z</time></trkpt><trkpt lat="44.5577769" lon="6.0538365"><ele>843.0</ele><time>2026-05-01T11:36:35.385Z</time></trkpt><trkpt lat="44.557776" lon="6.0536634"><ele>843.0</ele><time>2026-05-01T11:36:37.385Z</time></trkpt><trkpt lat="44.5577748" lon="6.0534962"><ele>843.0</ele><time>2026-05-01T11:36:39.385Z</time></trkpt><trkpt lat="44.5577727" lon="6.0534043"><ele>843.0</ele><time>2026-05-01T11:36:40.385Z</time></trkpt><trkpt lat="44.5577729" lon="6.0533011"><ele>843.0</ele><time>2026-05-01T11:36:41.386Z</time></trkpt><trkpt lat="44.5577777" lon="6.0531903"><ele>843.6666666666666</ele><time>2026-05-01T11:36:42.385Z</time></trkpt><trkpt lat="44.5577874" lon="6.0530684"><ele>844.3333333333333</ele><time>2026-05-01T11:36:43.385Z</time></trkpt><trkpt lat="44.5577951" lon="6.0529457"><ele>845.0</ele><time>2026-05-01T11:36:44.386Z</time></trkpt><trkpt lat="44.5578013" lon="6.0528235"><ele>845.6666666666666</ele><time>2026-05-01T11:36:45.385Z</time></trkpt><trkpt lat="44.5578054" lon="6.052733"><ele>846.3333333333333</ele><time>2026-05-01T11:36:46.385Z</time></trkpt><trkpt lat="44.5578157" lon="6.0526455"><ele>847.0</ele><time>2026-05-01T11:36:48.386Z</time></trkpt><trkpt lat="44.5578318" lon="6.052559"><ele>846.9999999999999</ele><time>2026-05-01T11:37:02.385Z</time></trkpt><trkpt lat="44.5578173" lon="6.0524692"><ele>847.0</ele><time>2026-05-01T11:37:06.385Z</time></trkpt><trkpt lat="44.5578012" lon="6.0523691"><ele>847.0</ele><time>2026-05-01T11:37:07.386Z</time></trkpt><trkpt lat="44.5577957" lon="6.0522405"><ele>847.0</ele><time>2026-05-01T11:37:08.385Z</time></trkpt><trkpt lat="44.5577803" lon="6.052108"><ele>846.9999999999999</ele><time>2026-05-01T11:37:09.385Z</time></trkpt><trkpt lat="44.5577628" lon="6.0519855"><ele>847.0</ele><time>2026-05-01T11:37:10.386Z</time></trkpt><trkpt lat="44.5577653" lon="6.0518451"><ele>847.6666666666666</ele><time>2026-05-01T11:37:12.385Z</time></trkpt><trkpt lat="44.5577597" lon="6.0517456"><ele>848.3333333333333</ele><time>2026-05-01T11:37:27.386Z</time></trkpt><trkpt lat="44.5576979" lon="6.0517892"><ele>849.0</ele><time>2026-05-01T11:37:30.385Z</time></trkpt><trkpt lat="44.5577218" lon="6.0518911"><ele>849.6666666666667</ele><time>2026-05-01T11:37:31.385Z</time></trkpt><trkpt lat="44.5577451" lon="6.0520272"><ele>850.3333333333334</ele><time>2026-05-01T11:37:32.385Z</time></trkpt><trkpt lat="44.5577665" lon="6.0521779"><ele>851.0</ele><time>2026-05-01T11:37:33.386Z</time></trkpt><trkpt lat="44.5577837" lon="6.0523637"><ele>849.6666666666667</ele><time>2026-05-01T11:37:34.385Z</time></trkpt><trkpt lat="44.557791" lon="6.0525731"><ele>848.3333333333333</ele><time>2026-05-01T11:37:35.386Z</time></trkpt><trkpt lat="44.5577864" lon="6.0527819"><ele>847.0</ele><time>2026-05-01T11:37:36.385Z</time></trkpt><trkpt lat="44.5577751" lon="6.0529985"><ele>847.0</ele><time>2026-05-01T11:37:37.385Z</time></trkpt><trkpt lat="44.5577637" lon="6.0532143"><ele>847.0</ele><time>2026-05-01T11:37:38.386Z</time></trkpt><trkpt lat="44.557758" lon="6.0534206"><ele>847.0</ele><time>2026-05-01T11:37:39.385Z</time></trkpt><trkpt lat="44.5577527" lon="6.0536136"><ele>847.0</ele><time>2026-05-01T11:37:40.385Z</time></trkpt><trkpt lat="44.5577555" lon="6.0537858"><ele>846.2</ele><time>2026-05-01T11:37:41.385Z</time></trkpt><trkpt lat="44.5577836" lon="6.0539512"><ele>845.4000000000001</ele><time>2026-05-01T11:37:42.385Z</time></trkpt><trkpt lat="44.5578388" lon="6.0540947"><ele>844.5999999999999</ele><time>2026-05-01T11:37:43.386Z</time></trkpt><trkpt lat="44.557902" lon="6.0541944"><ele>843.8</ele><time>2026-05-01T11:37:44.385Z</time></trkpt><trkpt lat="44.5579548" lon="6.0542821"><ele>843.0</ele><time>2026-05-01T11:37:45.385Z</time></trkpt><trkpt lat="44.5579959" lon="6.0543819"><ele>843.0</ele><time>2026-05-01T11:37:46.385Z</time></trkpt><trkpt lat="44.5580225" lon="6.0544827"><ele>843.0</ele><time>2026-05-01T11:37:47.386Z</time></trkpt><trkpt lat="44.5580353" lon="6.0545795"><ele>843.0</ele><time>2026-05-01T11:37:48.386Z</time></trkpt><trkpt lat="44.5580295" lon="6.0546784"><ele>843.0</ele><time>2026-05-01T11:37:49.386Z</time></trkpt><trkpt lat="44.5579991" lon="6.0547663"><ele>843.0</ele><time>2026-05-01T11:37:50.386Z</time></trkpt><trkpt lat="44.5579541" lon="6.0548388"><ele>843.0</ele><time>2026-05-01T11:37:51.386Z</time></trkpt><trkpt lat="44.5578952" lon="6.0548878"><ele>843.0</ele><time>2026-05-01T11:37:52.385Z</time></trkpt><trkpt lat="44.5578298" lon="6.0549168"><ele>842.6666666666666</ele><time>2026-05-01T11:37:53.385Z</time></trkpt><trkpt lat="44.5577591" lon="6.0549218"><ele>842.3333333333333</ele><time>2026-05-01T11:37:54.386Z</time></trkpt><trkpt lat="44.5576923" lon="6.0548849"><ele>842.0</ele><time>2026-05-01T11:37:55.385Z</time></trkpt><trkpt lat="44.5576424" lon="6.0548137"><ele>841.6666666666666</ele><time>2026-05-01T11:37:56.386Z</time></trkpt><trkpt lat="44.5576138" lon="6.0547162"><ele>841.3333333333333</ele><time>2026-05-01T11:37:57.386Z</time></trkpt><trkpt lat="44.5576107" lon="6.0545917"><ele>841.0</ele><time>2026-05-01T11:37:58.385Z</time></trkpt><trkpt lat="44.5576215" lon="6.054444"><ele>841.0</ele><time>2026-05-01T11:37:59.386Z</time></trkpt><trkpt lat="44.557631" lon="6.0542728"><ele>841.0</ele><time>2026-05-01T11:38:00.385Z</time></trkpt><trkpt lat="44.5576364" lon="6.0540876"><ele>841.0</ele><time>2026-05-01T11:38:01.385Z</time></trkpt><trkpt lat="44.5576465" lon="6.053887"><ele>841.0</ele><time>2026-05-01T11:38:02.385Z</time></trkpt><trkpt lat="44.5576598" lon="6.0536735"><ele>841.6666666666666</ele><time>2026-05-01T11:38:03.385Z</time></trkpt><trkpt lat="44.5576727" lon="6.0534471"><ele>842.3333333333333</ele><time>2026-05-01T11:38:04.385Z</time></trkpt><trkpt lat="44.5576817" lon="6.0532072"><ele>843.0</ele><time>2026-05-01T11:38:05.385Z</time></trkpt><trkpt lat="44.5576853" lon="6.0529557"><ele>844.3333333333333</ele><time>2026-05-01T11:38:06.385Z</time></trkpt><trkpt lat="44.5576825" lon="6.0526929"><ele>845.6666666666666</ele><time>2026-05-01T11:38:07.385Z</time></trkpt><trkpt lat="44.5576726" lon="6.0524093"><ele>847.0</ele><time>2026-05-01T11:38:08.385Z</time></trkpt><trkpt lat="44.5576596" lon="6.0520905"><ele>849.0</ele><time>2026-05-01T11:38:09.385Z</time></trkpt><trkpt lat="44.5576372" lon="6.0517403"><ele>851.0</ele><time>2026-05-01T11:38:10.385Z</time></trkpt><trkpt lat="44.5575999" lon="6.0513617"><ele>853.0</ele><time>2026-05-01T11:38:11.385Z</time></trkpt><trkpt lat="44.557555" lon="6.0509871"><ele>855.0</ele><time>2026-05-01T11:38:12.386Z</time></trkpt><trkpt lat="44.5575043" lon="6.0506391"><ele>856.5</ele><time>2026-05-01T11:38:13.385Z</time></trkpt><trkpt lat="44.5574485" lon="6.0503022"><ele>858.0</ele><time>2026-05-01T11:38:14.385Z</time></trkpt><trkpt lat="44.5573869" lon="6.0499887"><ele>860.5</ele><time>2026-05-01T11:38:15.385Z</time></trkpt><trkpt lat="44.5573135" lon="6.0496878"><ele>863.0</ele><time>2026-05-01T11:38:16.386Z</time></trkpt><trkpt lat="44.5572288" lon="6.0493945"><ele>863.0</ele><time>2026-05-01T11:38:17.385Z</time></trkpt><trkpt lat="44.5571377" lon="6.0491092"><ele>863.0</ele><time>2026-05-01T11:38:18.385Z</time></trkpt><trkpt lat="44.5570458" lon="6.0488274"><ele>863.0</ele><time>2026-05-01T11:38:19.385Z</time></trkpt><trkpt lat="44.5569576" lon="6.0485477"><ele>864.3333333333334</ele><time>2026-05-01T11:38:20.385Z</time></trkpt><trkpt lat="44.5568777" lon="6.0482606"><ele>865.6666666666667</ele><time>2026-05-01T11:38:21.385Z</time></trkpt><trkpt lat="44.556818" lon="6.0479691"><ele>867.0</ele><time>2026-05-01T11:38:22.385Z</time></trkpt><trkpt lat="44.5567744" lon="6.047678"><ele>868.3333333333333</ele><time>2026-05-01T11:38:23.386Z</time></trkpt><trkpt lat="44.5567393" lon="6.0473896"><ele>869.6666666666666</ele><time>2026-05-01T11:38:24.385Z</time></trkpt><trkpt lat="44.5567081" lon="6.0471057"><ele>871.0</ele><time>2026-05-01T11:38:25.385Z</time></trkpt><trkpt lat="44.5566801" lon="6.0468212"><ele>872.6666666666666</ele><time>2026-05-01T11:38:26.385Z</time></trkpt><trkpt lat="44.5566523" lon="6.0465354"><ele>874.3333333333333</ele><time>2026-05-01T11:38:27.385Z</time></trkpt><trkpt lat="44.5566239" lon="6.0462458"><ele>876.0</ele><time>2026-05-01T11:38:28.385Z</time></trkpt><trkpt lat="44.5565924" lon="6.0459535"><ele>877.3333333333333</ele><time>2026-05-01T11:38:29.385Z</time></trkpt><trkpt lat="44.5565543" lon="6.0456607"><ele>878.6666666666666</ele><time>2026-05-01T11:38:30.385Z</time></trkpt><trkpt lat="44.5565084" lon="6.045366"><ele>880.0</ele><time>2026-05-01T11:38:31.385Z</time></trkpt><trkpt lat="44.5564511" lon="6.045069"><ele>881.3333333333333</ele><time>2026-05-01T11:38:32.385Z</time></trkpt><trkpt lat="44.5563831" lon="6.0447699"><ele>882.6666666666667</ele><time>2026-05-01T11:38:33.385Z</time></trkpt><trkpt lat="44.5563013" lon="6.0444754"><ele>884.0</ele><time>2026-05-01T11:38:34.385Z</time></trkpt><trkpt lat="44.5562027" lon="6.0441878"><ele>884.5</ele><time>2026-05-01T11:38:35.385Z</time></trkpt><trkpt lat="44.5560925" lon="6.0439097"><ele>885.0</ele><time>2026-05-01T11:38:36.385Z</time></trkpt><trkpt lat="44.5559737" lon="6.0436442"><ele>885.0</ele><time>2026-05-01T11:38:37.385Z</time></trkpt><trkpt lat="44.555847" lon="6.0433927"><ele>885.0</ele><time>2026-05-01T11:38:38.385Z</time></trkpt><trkpt lat="44.5557168" lon="6.0431548"><ele>885.0</ele><time>2026-05-01T11:38:39.385Z</time></trkpt><trkpt lat="44.5555847" lon="6.0429264"><ele>888.6666666666667</ele><time>2026-05-01T11:38:40.385Z</time></trkpt><trkpt lat="44.5554529" lon="6.0426984"><ele>892.3333333333334</ele><time>2026-05-01T11:38:41.385Z</time></trkpt><trkpt lat="44.5553225" lon="6.0424633"><ele>896.0</ele><time>2026-05-01T11:38:42.385Z</time></trkpt><trkpt lat="44.5551938" lon="6.042223"><ele>896.0</ele><time>2026-05-01T11:38:43.385Z</time></trkpt><trkpt lat="44.555063" lon="6.0419804"><ele>896.0</ele><time>2026-05-01T11:38:44.385Z</time></trkpt><trkpt lat="44.5549259" lon="6.0417402"><ele>896.0</ele><time>2026-05-01T11:38:45.385Z</time></trkpt><trkpt lat="44.5547796" lon="6.0415042"><ele>895.0</ele><time>2026-05-01T11:38:46.385Z</time></trkpt><trkpt lat="44.554624" lon="6.0412712"><ele>894.0</ele><time>2026-05-01T11:38:47.385Z</time></trkpt><trkpt lat="44.5544562" lon="6.0410436"><ele>894.0</ele><time>2026-05-01T11:38:48.386Z</time></trkpt><trkpt lat="44.5542731" lon="6.0408295"><ele>894.0</ele><time>2026-05-01T11:38:49.385Z</time></trkpt><trkpt lat="44.5540749" lon="6.0406288"><ele>898.0</ele><time>2026-05-01T11:38:50.385Z</time></trkpt><trkpt lat="44.5538709" lon="6.0404376"><ele>902.0</ele><time>2026-05-01T11:38:51.385Z</time></trkpt><trkpt lat="44.5536732" lon="6.0402445"><ele>902.0</ele><time>2026-05-01T11:38:52.385Z</time></trkpt><trkpt lat="44.5534885" lon="6.0400359"><ele>902.0</ele><time>2026-05-01T11:38:53.385Z</time></trkpt><trkpt lat="44.5533185" lon="6.0398145"><ele>910.5</ele><time>2026-05-01T11:38:54.385Z</time></trkpt><trkpt lat="44.553149" lon="6.0395971"><ele>919.0</ele><time>2026-05-01T11:38:55.385Z</time></trkpt><trkpt lat="44.5529623" lon="6.0393975"><ele>921.5</ele><time>2026-05-01T11:38:56.385Z</time></trkpt><trkpt lat="44.5527582" lon="6.0392132"><ele>924.0</ele><time>2026-05-01T11:38:57.385Z</time></trkpt><trkpt lat="44.5525428" lon="6.0390421"><ele>924.0</ele><time>2026-05-01T11:38:58.385Z</time></trkpt><trkpt lat="44.5523226" lon="6.0388843"><ele>924.0</ele><time>2026-05-01T11:38:59.385Z</time></trkpt><trkpt lat="44.5521076" lon="6.0387366"><ele>921.5</ele><time>2026-05-01T11:39:00.385Z</time></trkpt><trkpt lat="44.5518961" lon="6.0385961"><ele>919.0</ele><time>2026-05-01T11:39:01.385Z</time></trkpt><trkpt lat="44.551686" lon="6.0384686"><ele>919.0</ele><time>2026-05-01T11:39:02.385Z</time></trkpt><trkpt lat="44.5514704" lon="6.0383578"><ele>919.0</ele><time>2026-05-01T11:39:03.385Z</time></trkpt><trkpt lat="44.5512501" lon="6.0382656"><ele>925.0</ele><time>2026-05-01T11:39:04.385Z</time></trkpt><trkpt lat="44.551027" lon="6.038198"><ele>931.0</ele><time>2026-05-01T11:39:05.385Z</time></trkpt><trkpt lat="44.5508044" lon="6.0381413"><ele>931.0</ele><time>2026-05-01T11:39:06.385Z</time></trkpt><trkpt lat="44.550585" lon="6.0380938"><ele>931.0</ele><time>2026-05-01T11:39:07.385Z</time></trkpt><trkpt lat="44.5503674" lon="6.0380489"><ele>931.0</ele><time>2026-05-01T11:39:08.387Z</time></trkpt><trkpt lat="44.5501559" lon="6.0380039"><ele>930.6666666666666</ele><time>2026-05-01T11:39:09.385Z</time></trkpt><trkpt lat="44.5499515" lon="6.0379614"><ele>930.3333333333333</ele><time>2026-05-01T11:39:10.385Z</time></trkpt><trkpt lat="44.5497568" lon="6.0379196"><ele>930.0</ele><time>2026-05-01T11:39:11.385Z</time></trkpt><trkpt lat="44.5495701" lon="6.0378848"><ele>930.6666666666667</ele><time>2026-05-01T11:39:12.385Z</time></trkpt><trkpt lat="44.5493878" lon="6.0378708"><ele>931.3333333333334</ele><time>2026-05-01T11:39:13.385Z</time></trkpt><trkpt lat="44.5492114" lon="6.0378848"><ele>932.0</ele><time>2026-05-01T11:39:14.385Z</time></trkpt><trkpt lat="44.5490396" lon="6.037935"><ele>932.0</ele><time>2026-05-01T11:39:15.386Z</time></trkpt><trkpt lat="44.5488757" lon="6.0380078"><ele>932.0</ele><time>2026-05-01T11:39:16.385Z</time></trkpt><trkpt lat="44.5487323" lon="6.0380881"><ele>932.0</ele><time>2026-05-01T11:39:17.385Z</time></trkpt><trkpt lat="44.5486026" lon="6.0381667"><ele>933.6</ele><time>2026-05-01T11:39:18.385Z</time></trkpt><trkpt lat="44.5484935" lon="6.0382141"><ele>935.2</ele><time>2026-05-01T11:39:19.385Z</time></trkpt><trkpt lat="44.5483928" lon="6.0382241"><ele>936.8</ele><time>2026-05-01T11:39:20.385Z</time></trkpt><trkpt lat="44.5483009" lon="6.0381972"><ele>938.4</ele><time>2026-05-01T11:39:21.385Z</time></trkpt><trkpt lat="44.548223" lon="6.0381296"><ele>940.0</ele><time>2026-05-01T11:39:22.385Z</time></trkpt><trkpt lat="44.5481685" lon="6.0380256"><ele>940.0</ele><time>2026-05-01T11:39:23.385Z</time></trkpt><trkpt lat="44.5481453" lon="6.0378943"><ele>940.0</ele><time>2026-05-01T11:39:24.385Z</time></trkpt><trkpt lat="44.5481561" lon="6.0377613"><ele>940.0</ele><time>2026-05-01T11:39:25.385Z</time></trkpt><trkpt lat="44.5482058" lon="6.0376376"><ele>940.0</ele><time>2026-05-01T11:39:26.385Z</time></trkpt><trkpt lat="44.5482855" lon="6.0375462"><ele>940.0</ele><time>2026-05-01T11:39:27.385Z</time></trkpt><trkpt lat="44.5483902" lon="6.0374916"><ele>941.75</ele><time>2026-05-01T11:39:28.385Z</time></trkpt><trkpt lat="44.5485102" lon="6.0374653"><ele>943.5</ele><time>2026-05-01T11:39:29.385Z</time></trkpt><trkpt lat="44.5486429" lon="6.0374477"><ele>945.25</ele><time>2026-05-01T11:39:30.385Z</time></trkpt><trkpt lat="44.5487892" lon="6.0374087"><ele>947.0</ele><time>2026-05-01T11:39:31.385Z</time></trkpt><trkpt lat="44.5489371" lon="6.0373202"><ele>947.0</ele><time>2026-05-01T11:39:32.385Z</time></trkpt><trkpt lat="44.5490832" lon="6.0372008"><ele>947.0</ele><time>2026-05-01T11:39:33.385Z</time></trkpt><trkpt lat="44.549231" lon="6.0370772"><ele>947.0</ele><time>2026-05-01T11:39:34.386Z</time></trkpt><trkpt lat="44.5493799" lon="6.0369525"><ele>947.0</ele><time>2026-05-01T11:39:35.385Z</time></trkpt><trkpt lat="44.5495265" lon="6.0368243"><ele>947.0</ele><time>2026-05-01T11:39:36.385Z</time></trkpt><trkpt lat="44.5496764" lon="6.0366959"><ele>947.0</ele><time>2026-05-01T11:39:37.386Z</time></trkpt><trkpt lat="44.5498317" lon="6.0365645"><ele>950.3333333333334</ele><time>2026-05-01T11:39:38.385Z</time></trkpt><trkpt lat="44.5499928" lon="6.0364318"><ele>953.6666666666667</ele><time>2026-05-01T11:39:39.385Z</time></trkpt><trkpt lat="44.5501575" lon="6.0362936"><ele>957.0</ele><time>2026-05-01T11:39:40.385Z</time></trkpt><trkpt lat="44.5503276" lon="6.0361476"><ele>956.0</ele><time>2026-05-01T11:39:41.386Z</time></trkpt><trkpt lat="44.550506" lon="6.0360134"><ele>955.0</ele><time>2026-05-01T11:39:42.385Z</time></trkpt><trkpt lat="44.5506948" lon="6.035927"><ele>954.0</ele><time>2026-05-01T11:39:43.386Z</time></trkpt><trkpt lat="44.5508915" lon="6.0358881"><ele>954.0</ele><time>2026-05-01T11:39:44.385Z</time></trkpt><trkpt lat="44.5510857" lon="6.0358797"><ele>954.0</ele><time>2026-05-01T11:39:45.385Z</time></trkpt><trkpt lat="44.5512749" lon="6.0358788"><ele>954.0</ele><time>2026-05-01T11:39:46.385Z</time></trkpt><trkpt lat="44.5514613" lon="6.0358693"><ele>954.3333333333333</ele><time>2026-05-01T11:39:47.385Z</time></trkpt><trkpt lat="44.5516459" lon="6.0358463"><ele>954.6666666666666</ele><time>2026-05-01T11:39:48.385Z</time></trkpt><trkpt lat="44.5518295" lon="6.0358053"><ele>955.0</ele><time>2026-05-01T11:39:49.385Z</time></trkpt><trkpt lat="44.5520079" lon="6.0357373"><ele>957.3333333333333</ele><time>2026-05-01T11:39:50.385Z</time></trkpt><trkpt lat="44.552179" lon="6.0356453"><ele>959.6666666666667</ele><time>2026-05-01T11:39:51.385Z</time></trkpt><trkpt lat="44.5523397" lon="6.0355255"><ele>962.0</ele><time>2026-05-01T11:39:52.385Z</time></trkpt><trkpt lat="44.552483" lon="6.0353853"><ele>962.0</ele><time>2026-05-01T11:39:53.385Z</time></trkpt><trkpt lat="44.5526117" lon="6.0352237"><ele>962.0</ele><time>2026-05-01T11:39:54.385Z</time></trkpt><trkpt lat="44.5527231" lon="6.035049"><ele>962.0</ele><time>2026-05-01T11:39:55.385Z</time></trkpt><trkpt lat="44.552821" lon="6.0348573"><ele>961.0</ele><time>2026-05-01T11:39:56.385Z</time></trkpt><trkpt lat="44.5529024" lon="6.0346531"><ele>960.0</ele><time>2026-05-01T11:39:57.385Z</time></trkpt><trkpt lat="44.552967" lon="6.0344381"><ele>959.0</ele><time>2026-05-01T11:39:58.385Z</time></trkpt><trkpt lat="44.5530159" lon="6.0342069"><ele>960.3333333333334</ele><time>2026-05-01T11:39:59.385Z</time></trkpt><trkpt lat="44.5530467" lon="6.0339691"><ele>961.6666666666667</ele><time>2026-05-01T11:40:00.385Z</time></trkpt><trkpt lat="44.5530557" lon="6.0337301"><ele>963.0</ele><time>2026-05-01T11:40:01.385Z</time></trkpt><trkpt lat="44.5530402" lon="6.0334871"><ele>963.6666666666667</ele><time>2026-05-01T11:40:02.385Z</time></trkpt><trkpt lat="44.5529946" lon="6.033238"><ele>964.3333333333334</ele><time>2026-05-01T11:40:03.385Z</time></trkpt><trkpt lat="44.5529174" lon="6.0329856"><ele>965.0</ele><time>2026-05-01T11:40:04.385Z</time></trkpt><trkpt lat="44.5528209" lon="6.0327376"><ele>965.0</ele><time>2026-05-01T11:40:05.385Z</time></trkpt><trkpt lat="44.5527102" lon="6.0324908"><ele>965.0</ele><time>2026-05-01T11:40:06.385Z</time></trkpt><trkpt lat="44.5525866" lon="6.0322456"><ele>965.0</ele><time>2026-05-01T11:40:07.386Z</time></trkpt><trkpt lat="44.552448" lon="6.0320025"><ele>969.5</ele><time>2026-05-01T11:40:08.385Z</time></trkpt><trkpt lat="44.5522915" lon="6.0317549"><ele>974.0</ele><time>2026-05-01T11:40:09.385Z</time></trkpt><trkpt lat="44.5521249" lon="6.0314979"><ele>975.0</ele><time>2026-05-01T11:40:10.386Z</time></trkpt><trkpt lat="44.551958" lon="6.0312401"><ele>976.0</ele><time>2026-05-01T11:40:11.385Z</time></trkpt><trkpt lat="44.5517912" lon="6.0309852"><ele>979.0</ele><time>2026-05-01T11:40:12.386Z</time></trkpt><trkpt lat="44.5516198" lon="6.0307236"><ele>982.0</ele><time>2026-05-01T11:40:13.385Z</time></trkpt><trkpt lat="44.551444" lon="6.0304555"><ele>982.0</ele><time>2026-05-01T11:40:14.385Z</time></trkpt><trkpt lat="44.5512673" lon="6.0301817"><ele>982.0</ele><time>2026-05-01T11:40:15.385Z</time></trkpt><trkpt lat="44.5510931" lon="6.0299092"><ele>984.5</ele><time>2026-05-01T11:40:16.386Z</time></trkpt><trkpt lat="44.5509262" lon="6.02965"><ele>987.0</ele><time>2026-05-01T11:40:17.385Z</time></trkpt><trkpt lat="44.5507663" lon="6.029403"><ele>987.0</ele><time>2026-05-01T11:40:18.385Z</time></trkpt><trkpt lat="44.5506133" lon="6.0291682"><ele>987.0</ele><time>2026-05-01T11:40:19.385Z</time></trkpt><trkpt lat="44.5504669" lon="6.0289437"><ele>987.0</ele><time>2026-05-01T11:40:20.386Z</time></trkpt><trkpt lat="44.5503272" lon="6.0287288"><ele>985.6666666666667</ele><time>2026-05-01T11:40:21.385Z</time></trkpt><trkpt lat="44.5501927" lon="6.0285233"><ele>984.3333333333334</ele><time>2026-05-01T11:40:22.386Z</time></trkpt><trkpt lat="44.5500612" lon="6.0283248"><ele>983.0</ele><time>2026-05-01T11:40:23.385Z</time></trkpt><trkpt lat="44.549933" lon="6.028127"><ele>983.0</ele><time>2026-05-01T11:40:24.385Z</time></trkpt><trkpt lat="44.5498137" lon="6.0279117"><ele>983.0</ele><time>2026-05-01T11:40:25.386Z</time></trkpt><trkpt lat="44.549712" lon="6.0276768"><ele>983.0</ele><time>2026-05-01T11:40:26.385Z</time></trkpt><trkpt lat="44.5496274" lon="6.0274238"><ele>983.6666666666667</ele><time>2026-05-01T11:40:27.385Z</time></trkpt><trkpt lat="44.5495599" lon="6.0271553"><ele>984.3333333333333</ele><time>2026-05-01T11:40:28.385Z</time></trkpt><trkpt lat="44.5495169" lon="6.0268736"><ele>985.0</ele><time>2026-05-01T11:40:29.385Z</time></trkpt><trkpt lat="44.5495008" lon="6.0265895"><ele>986.3333333333333</ele><time>2026-05-01T11:40:30.385Z</time></trkpt><trkpt lat="44.5494976" lon="6.0263016"><ele>987.6666666666667</ele><time>2026-05-01T11:40:31.385Z</time></trkpt><trkpt lat="44.5495144" lon="6.0260192"><ele>989.0</ele><time>2026-05-01T11:40:32.385Z</time></trkpt><trkpt lat="44.5495434" lon="6.0257492"><ele>989.0</ele><time>2026-05-01T11:40:33.386Z</time></trkpt><trkpt lat="44.5495769" lon="6.0254903"><ele>989.0</ele><time>2026-05-01T11:40:34.385Z</time></trkpt><trkpt lat="44.5496036" lon="6.0252408"><ele>989.0</ele><time>2026-05-01T11:40:35.385Z</time></trkpt><trkpt lat="44.5496023" lon="6.0250003"><ele>989.0</ele><time>2026-05-01T11:40:36.385Z</time></trkpt><trkpt lat="44.5495721" lon="6.0247727"><ele>989.0</ele><time>2026-05-01T11:40:37.385Z</time></trkpt><trkpt lat="44.5495122" lon="6.024567"><ele>989.0</ele><time>2026-05-01T11:40:38.385Z</time></trkpt><trkpt lat="44.549418" lon="6.0243933"><ele>991.0</ele><time>2026-05-01T11:40:39.385Z</time></trkpt><trkpt lat="44.5492923" lon="6.0242545"><ele>993.0</ele><time>2026-05-01T11:40:40.386Z</time></trkpt><trkpt lat="44.5491428" lon="6.0241566"><ele>995.0</ele><time>2026-05-01T11:40:41.386Z</time></trkpt><trkpt lat="44.5489727" lon="6.0241016"><ele>995.0</ele><time>2026-05-01T11:40:42.385Z</time></trkpt><trkpt lat="44.5487867" lon="6.0240788"><ele>995.0</ele><time>2026-05-01T11:40:43.386Z</time></trkpt><trkpt lat="44.5485956" lon="6.0240611"><ele>995.0</ele><time>2026-05-01T11:40:44.385Z</time></trkpt><trkpt lat="44.5484015" lon="6.0240433"><ele>994.3333333333334</ele><time>2026-05-01T11:40:45.385Z</time></trkpt><trkpt lat="44.5482039" lon="6.0240264"><ele>993.6666666666667</ele><time>2026-05-01T11:40:46.385Z</time></trkpt><trkpt lat="44.5480035" lon="6.0240085"><ele>993.0</ele><time>2026-05-01T11:40:47.385Z</time></trkpt><trkpt lat="44.5478004" lon="6.0239902"><ele>993.0</ele><time>2026-05-01T11:40:48.385Z</time></trkpt><trkpt lat="44.5475951" lon="6.0239738"><ele>993.0</ele><time>2026-05-01T11:40:49.385Z</time></trkpt><trkpt lat="44.5473868" lon="6.0239605"><ele>993.0</ele><time>2026-05-01T11:40:50.385Z</time></trkpt><trkpt lat="44.5471772" lon="6.0239482"><ele>993.3333333333333</ele><time>2026-05-01T11:40:51.385Z</time></trkpt><trkpt lat="44.5469659" lon="6.023934"><ele>993.6666666666666</ele><time>2026-05-01T11:40:52.385Z</time></trkpt><trkpt lat="44.5467572" lon="6.023917"><ele>994.0</ele><time>2026-05-01T11:40:53.385Z</time></trkpt><trkpt lat="44.5465464" lon="6.0239004"><ele>994.0</ele><time>2026-05-01T11:40:54.385Z</time></trkpt><trkpt lat="44.5463328" lon="6.0238848"><ele>994.0</ele><time>2026-05-01T11:40:55.385Z</time></trkpt><trkpt lat="44.5461191" lon="6.0238651"><ele>994.0</ele><time>2026-05-01T11:40:56.386Z</time></trkpt><trkpt lat="44.5459043" lon="6.0238422"><ele>992.3333333333333</ele><time>2026-05-01T11:40:57.385Z</time></trkpt><trkpt lat="44.5456917" lon="6.0238183"><ele>990.6666666666667</ele><time>2026-05-01T11:40:58.385Z</time></trkpt><trkpt lat="44.5454798" lon="6.0237997"><ele>989.0</ele><time>2026-05-01T11:40:59.385Z</time></trkpt><trkpt lat="44.5452665" lon="6.0237805"><ele>988.0</ele><time>2026-05-01T11:41:00.385Z</time></trkpt><trkpt lat="44.5450537" lon="6.0237637"><ele>987.0</ele><time>2026-05-01T11:41:01.385Z</time></trkpt><trkpt lat="44.5448373" lon="6.0237651"><ele>986.0</ele><time>2026-05-01T11:41:02.385Z</time></trkpt><trkpt lat="44.5446183" lon="6.0237945"><ele>986.3333333333334</ele><time>2026-05-01T11:41:03.386Z</time></trkpt><trkpt lat="44.5443994" lon="6.0238401"><ele>986.6666666666667</ele><time>2026-05-01T11:41:04.386Z</time></trkpt><trkpt lat="44.5441807" lon="6.0238989"><ele>987.0</ele><time>2026-05-01T11:41:05.385Z</time></trkpt><trkpt lat="44.5439633" lon="6.0239587"><ele>987.0</ele><time>2026-05-01T11:41:06.385Z</time></trkpt><trkpt lat="44.5437552" lon="6.0240235"><ele>987.0</ele><time>2026-05-01T11:41:07.386Z</time></trkpt><trkpt lat="44.5435547" lon="6.0241101"><ele>987.0</ele><time>2026-05-01T11:41:08.386Z</time></trkpt><trkpt lat="44.543359" lon="6.0242186"><ele>986.3333333333333</ele><time>2026-05-01T11:41:09.385Z</time></trkpt><trkpt lat="44.5431714" lon="6.0243519"><ele>985.6666666666666</ele><time>2026-05-01T11:41:10.385Z</time></trkpt><trkpt lat="44.5429964" lon="6.0245018"><ele>985.0</ele><time>2026-05-01T11:41:11.385Z</time></trkpt><trkpt lat="44.5428193" lon="6.0246608"><ele>985.0</ele><time>2026-05-01T11:41:12.385Z</time></trkpt><trkpt lat="44.5426325" lon="6.0248015"><ele>985.0</ele><time>2026-05-01T11:41:13.385Z</time></trkpt><trkpt lat="44.5424384" lon="6.0249209"><ele>985.0</ele><time>2026-05-01T11:41:14.385Z</time></trkpt><trkpt lat="44.5422473" lon="6.0250385"><ele>984.0</ele><time>2026-05-01T11:41:15.385Z</time></trkpt><trkpt lat="44.5420565" lon="6.0251565"><ele>983.0</ele><time>2026-05-01T11:41:16.385Z</time></trkpt><trkpt lat="44.5418651" lon="6.0252741"><ele>982.0</ele><time>2026-05-01T11:41:17.385Z</time></trkpt><trkpt lat="44.5416717" lon="6.0253882"><ele>982.0</ele><time>2026-05-01T11:41:18.385Z</time></trkpt><trkpt lat="44.5414808" lon="6.0254911"><ele>982.0</ele><time>2026-05-01T11:41:19.385Z</time></trkpt><trkpt lat="44.5412967" lon="6.0255712"><ele>982.0</ele><time>2026-05-01T11:41:20.385Z</time></trkpt><trkpt lat="44.5411176" lon="6.0256216"><ele>981.0</ele><time>2026-05-01T11:41:21.385Z</time></trkpt><trkpt lat="44.5409408" lon="6.0256407"><ele>980.0</ele><time>2026-05-01T11:41:22.385Z</time></trkpt><trkpt lat="44.5407722" lon="6.0256259"><ele>979.0</ele><time>2026-05-01T11:41:23.385Z</time></trkpt><trkpt lat="44.5406105" lon="6.0255676"><ele>979.0</ele><time>2026-05-01T11:41:24.385Z</time></trkpt><trkpt lat="44.5404592" lon="6.0254727"><ele>979.0</ele><time>2026-05-01T11:41:25.385Z</time></trkpt><trkpt lat="44.5403195" lon="6.0253434"><ele>979.0</ele><time>2026-05-01T11:41:26.385Z</time></trkpt><trkpt lat="44.5401942" lon="6.0251792"><ele>977.6666666666666</ele><time>2026-05-01T11:41:27.385Z</time></trkpt><trkpt lat="44.5400892" lon="6.0249796"><ele>976.3333333333333</ele><time>2026-05-01T11:41:28.385Z</time></trkpt><trkpt lat="44.5400035" lon="6.0247538"><ele>975.0</ele><time>2026-05-01T11:41:29.386Z</time></trkpt><trkpt lat="44.5399438" lon="6.0245169"><ele>975.0</ele><time>2026-05-01T11:41:30.385Z</time></trkpt><trkpt lat="44.5399162" lon="6.0242785"><ele>975.0</ele><time>2026-05-01T11:41:31.385Z</time></trkpt><trkpt lat="44.5399177" lon="6.0240376"><ele>975.0</ele><time>2026-05-01T11:41:32.385Z</time></trkpt><trkpt lat="44.539945" lon="6.0237926"><ele>975.0</ele><time>2026-05-01T11:41:33.385Z</time></trkpt><trkpt lat="44.5399907" lon="6.0235468"><ele>975.0</ele><time>2026-05-01T11:41:34.385Z</time></trkpt><trkpt lat="44.5400455" lon="6.0232956"><ele>975.0</ele><time>2026-05-01T11:41:35.385Z</time></trkpt><trkpt lat="44.5400891" lon="6.0230396"><ele>975.0</ele><time>2026-05-01T11:41:36.385Z</time></trkpt><trkpt lat="44.5401153" lon="6.0227718"><ele>975.0</ele><time>2026-05-01T11:41:37.386Z</time></trkpt><trkpt lat="44.5401169" lon="6.0225082"><ele>975.0</ele><time>2026-05-01T11:41:38.385Z</time></trkpt><trkpt lat="44.5401024" lon="6.0222379"><ele>975.3333333333333</ele><time>2026-05-01T11:41:39.385Z</time></trkpt><trkpt lat="44.5400736" lon="6.0219713"><ele>975.6666666666666</ele><time>2026-05-01T11:41:40.385Z</time></trkpt><trkpt lat="44.5400266" lon="6.0217107"><ele>976.0</ele><time>2026-05-01T11:41:41.385Z</time></trkpt><trkpt lat="44.5399579" lon="6.0214626"><ele>977.0</ele><time>2026-05-01T11:41:42.385Z</time></trkpt><trkpt lat="44.5398665" lon="6.0212265"><ele>978.0</ele><time>2026-05-01T11:41:43.385Z</time></trkpt><trkpt lat="44.5397741" lon="6.0209976"><ele>979.0</ele><time>2026-05-01T11:41:44.385Z</time></trkpt><trkpt lat="44.5396893" lon="6.0207674"><ele>979.3333333333333</ele><time>2026-05-01T11:41:45.385Z</time></trkpt><trkpt lat="44.5396225" lon="6.020536"><ele>979.6666666666667</ele><time>2026-05-01T11:41:46.386Z</time></trkpt><trkpt lat="44.5395796" lon="6.0203036"><ele>980.0</ele><time>2026-05-01T11:41:47.386Z</time></trkpt><trkpt lat="44.5395638" lon="6.0200702"><ele>979.0</ele><time>2026-05-01T11:41:48.385Z</time></trkpt><trkpt lat="44.5395725" lon="6.0198411"><ele>978.0</ele><time>2026-05-01T11:41:49.385Z</time></trkpt><trkpt lat="44.5396006" lon="6.0196201"><ele>977.0</ele><time>2026-05-01T11:41:50.385Z</time></trkpt><trkpt lat="44.5396509" lon="6.0194073"><ele>977.0</ele><time>2026-05-01T11:41:51.385Z</time></trkpt><trkpt lat="44.5397222" lon="6.0192043"><ele>977.0</ele><time>2026-05-01T11:41:52.385Z</time></trkpt><trkpt lat="44.539797" lon="6.0190045"><ele>977.0</ele><time>2026-05-01T11:41:53.385Z</time></trkpt><trkpt lat="44.5398519" lon="6.0187967"><ele>976.0</ele><time>2026-05-01T11:41:54.386Z</time></trkpt><trkpt lat="44.5398754" lon="6.0185809"><ele>975.0</ele><time>2026-05-01T11:41:55.385Z</time></trkpt><trkpt lat="44.5398728" lon="6.0183703"><ele>974.0</ele><time>2026-05-01T11:41:56.385Z</time></trkpt><trkpt lat="44.5398558" lon="6.0181674"><ele>973.6666666666667</ele><time>2026-05-01T11:41:57.385Z</time></trkpt><trkpt lat="44.5398377" lon="6.0179581"><ele>973.3333333333333</ele><time>2026-05-01T11:41:58.385Z</time></trkpt><trkpt lat="44.5398207" lon="6.0177458"><ele>973.0</ele><time>2026-05-01T11:41:59.385Z</time></trkpt><trkpt lat="44.5398075" lon="6.0175389"><ele>973.25</ele><time>2026-05-01T11:42:00.385Z</time></trkpt><trkpt lat="44.5398003" lon="6.0173381"><ele>973.5</ele><time>2026-05-01T11:42:01.385Z</time></trkpt><trkpt lat="44.5398058" lon="6.0171482"><ele>973.75</ele><time>2026-05-01T11:42:02.385Z</time></trkpt><trkpt lat="44.5398344" lon="6.0169634"><ele>974.0</ele><time>2026-05-01T11:42:03.385Z</time></trkpt><trkpt lat="44.539887" lon="6.0167962"><ele>973.2</ele><time>2026-05-01T11:42:04.385Z</time></trkpt><trkpt lat="44.5399547" lon="6.0166503"><ele>972.4000000000001</ele><time>2026-05-01T11:42:05.385Z</time></trkpt><trkpt lat="44.5400212" lon="6.016531"><ele>971.6</ele><time>2026-05-01T11:42:06.386Z</time></trkpt><trkpt lat="44.5400737" lon="6.0164383"><ele>970.8</ele><time>2026-05-01T11:42:07.385Z</time></trkpt><trkpt lat="44.5401185" lon="6.0163573"><ele>970.0</ele><time>2026-05-01T11:42:08.385Z</time></trkpt><trkpt lat="44.5401628" lon="6.0162763"><ele>970.0000000000001</ele><time>2026-05-01T11:42:09.386Z</time></trkpt><trkpt lat="44.5402064" lon="6.0161917"><ele>970.0</ele><time>2026-05-01T11:42:10.385Z</time></trkpt><trkpt lat="44.5402527" lon="6.0161038"><ele>970.0000000000001</ele><time>2026-05-01T11:42:11.385Z</time></trkpt><trkpt lat="44.5403" lon="6.0160177"><ele>970.0000000000001</ele><time>2026-05-01T11:42:12.385Z</time></trkpt><trkpt lat="44.5403455" lon="6.0159362"><ele>970.0</ele><time>2026-05-01T11:42:13.385Z</time></trkpt><trkpt lat="44.5403879" lon="6.0158524"><ele>970.0000000000001</ele><time>2026-05-01T11:42:14.385Z</time></trkpt><trkpt lat="44.5404314" lon="6.0157712"><ele>970.0000000000001</ele><time>2026-05-01T11:42:15.385Z</time></trkpt><trkpt lat="44.5404707" lon="6.0156982"><ele>970.4</ele><time>2026-05-01T11:42:16.385Z</time></trkpt><trkpt lat="44.5405479" lon="6.0155658"><ele>970.8</ele><time>2026-05-01T11:42:18.385Z</time></trkpt><trkpt lat="44.5406233" lon="6.0154388"><ele>971.2</ele><time>2026-05-01T11:42:20.385Z</time></trkpt><trkpt lat="44.5406982" lon="6.0153047"><ele>971.6</ele><time>2026-05-01T11:42:22.385Z</time></trkpt><trkpt lat="44.5407403" lon="6.0152319"><ele>972.0</ele><time>2026-05-01T11:42:23.386Z</time></trkpt><trkpt lat="44.5407847" lon="6.0151566"><ele>972.0</ele><time>2026-05-01T11:42:24.385Z</time></trkpt><trkpt lat="44.5408292" lon="6.0150849"><ele>972.0</ele><time>2026-05-01T11:42:25.386Z</time></trkpt><trkpt lat="44.5408753" lon="6.0150073"><ele>972.0</ele><time>2026-05-01T11:42:26.385Z</time></trkpt><trkpt lat="44.5409192" lon="6.0149279"><ele>972.0</ele><time>2026-05-01T11:42:27.385Z</time></trkpt><trkpt lat="44.5409579" lon="6.014847"><ele>972.0</ele><time>2026-05-01T11:42:28.385Z</time></trkpt><trkpt lat="44.540996" lon="6.0147605"><ele>972.0</ele><time>2026-05-01T11:42:29.385Z</time></trkpt><trkpt lat="44.5410367" lon="6.0146656"><ele>972.0</ele><time>2026-05-01T11:42:30.385Z</time></trkpt><trkpt lat="44.5410775" lon="6.0145692"><ele>972.1666666666666</ele><time>2026-05-01T11:42:31.385Z</time></trkpt><trkpt lat="44.5411165" lon="6.0144756"><ele>972.3333333333333</ele><time>2026-05-01T11:42:32.385Z</time></trkpt><trkpt lat="44.5411553" lon="6.0143802"><ele>972.5</ele><time>2026-05-01T11:42:33.386Z</time></trkpt><trkpt lat="44.541195" lon="6.0142888"><ele>972.6666666666666</ele><time>2026-05-01T11:42:34.385Z</time></trkpt><trkpt lat="44.5412345" lon="6.0141925"><ele>972.8333333333333</ele><time>2026-05-01T11:42:35.385Z</time></trkpt><trkpt lat="44.5412753" lon="6.014088"><ele>973.0</ele><time>2026-05-01T11:42:36.385Z</time></trkpt><trkpt lat="44.5413192" lon="6.0139788"><ele>973.0</ele><time>2026-05-01T11:42:37.385Z</time></trkpt><trkpt lat="44.5413626" lon="6.0138674"><ele>973.0</ele><time>2026-05-01T11:42:38.385Z</time></trkpt><trkpt lat="44.5414094" lon="6.013751"><ele>973.0</ele><time>2026-05-01T11:42:39.385Z</time></trkpt><trkpt lat="44.5414598" lon="6.0136198"><ele>973.0</ele><time>2026-05-01T11:42:40.385Z</time></trkpt><trkpt lat="44.5415133" lon="6.0134846"><ele>973.0</ele><time>2026-05-01T11:42:41.386Z</time></trkpt><trkpt lat="44.5415677" lon="6.0133453"><ele>972.5</ele><time>2026-05-01T11:42:42.385Z</time></trkpt><trkpt lat="44.5416243" lon="6.0132023"><ele>972.0</ele><time>2026-05-01T11:42:43.385Z</time></trkpt><trkpt lat="44.5416862" lon="6.0130531"><ele>971.5</ele><time>2026-05-01T11:42:44.385Z</time></trkpt><trkpt lat="44.5417432" lon="6.0129149"><ele>971.0</ele><time>2026-05-01T11:42:45.385Z</time></trkpt><trkpt lat="44.5417994" lon="6.0127807"><ele>971.0</ele><time>2026-05-01T11:42:46.386Z</time></trkpt><trkpt lat="44.5418492" lon="6.0126544"><ele>970.9999999999999</ele><time>2026-05-01T11:42:47.385Z</time></trkpt><trkpt lat="44.5418985" lon="6.0125301"><ele>970.9999999999999</ele><time>2026-05-01T11:42:48.385Z</time></trkpt><trkpt lat="44.5419497" lon="6.0124036"><ele>971.0</ele><time>2026-05-01T11:42:49.385Z</time></trkpt><trkpt lat="44.542004" lon="6.0122702"><ele>971.0</ele><time>2026-05-01T11:42:50.385Z</time></trkpt><trkpt lat="44.5420602" lon="6.0121352"><ele>971.25</ele><time>2026-05-01T11:42:51.385Z</time></trkpt><trkpt lat="44.5421173" lon="6.0119996"><ele>971.5</ele><time>2026-05-01T11:42:52.385Z</time></trkpt><trkpt lat="44.5421723" lon="6.0118591"><ele>971.75</ele><time>2026-05-01T11:42:53.385Z</time></trkpt><trkpt lat="44.5422281" lon="6.0117164"><ele>972.0</ele><time>2026-05-01T11:42:54.385Z</time></trkpt><trkpt lat="44.5422867" lon="6.0115686"><ele>972.0</ele><time>2026-05-01T11:42:55.385Z</time></trkpt><trkpt lat="44.5423476" lon="6.0114141"><ele>972.0</ele><time>2026-05-01T11:42:56.386Z</time></trkpt><trkpt lat="44.5424112" lon="6.0112547"><ele>972.0</ele><time>2026-05-01T11:42:57.385Z</time></trkpt><trkpt lat="44.5424783" lon="6.0110932"><ele>972.0</ele><time>2026-05-01T11:42:58.385Z</time></trkpt><trkpt lat="44.5425479" lon="6.0109239"><ele>971.0</ele><time>2026-05-01T11:42:59.385Z</time></trkpt><trkpt lat="44.5426185" lon="6.0107493"><ele>970.0</ele><time>2026-05-01T11:43:00.385Z</time></trkpt><trkpt lat="44.5426913" lon="6.0105663"><ele>969.0</ele><time>2026-05-01T11:43:01.385Z</time></trkpt><trkpt lat="44.5427727" lon="6.0103699"><ele>969.0</ele><time>2026-05-01T11:43:02.386Z</time></trkpt><trkpt lat="44.5428599" lon="6.0101599"><ele>969.0</ele><time>2026-05-01T11:43:03.385Z</time></trkpt><trkpt lat="44.5429541" lon="6.0099276"><ele>969.0</ele><time>2026-05-01T11:43:04.385Z</time></trkpt><trkpt lat="44.543053" lon="6.0096878"><ele>970.3333333333333</ele><time>2026-05-01T11:43:05.385Z</time></trkpt><trkpt lat="44.543151" lon="6.0094504"><ele>971.6666666666666</ele><time>2026-05-01T11:43:06.385Z</time></trkpt><trkpt lat="44.5432548" lon="6.0092006"><ele>973.0</ele><time>2026-05-01T11:43:07.385Z</time></trkpt><trkpt lat="44.5433597" lon="6.0089436"><ele>973.0</ele><time>2026-05-01T11:43:08.386Z</time></trkpt><trkpt lat="44.5434653" lon="6.008679"><ele>973.0</ele><time>2026-05-01T11:43:09.385Z</time></trkpt><trkpt lat="44.5435724" lon="6.008413"><ele>973.0</ele><time>2026-05-01T11:43:10.385Z</time></trkpt><trkpt lat="44.5436811" lon="6.0081396"><ele>978.0</ele><time>2026-05-01T11:43:11.385Z</time></trkpt><trkpt lat="44.5437913" lon="6.0078629"><ele>983.0</ele><time>2026-05-01T11:43:12.385Z</time></trkpt><trkpt lat="44.5439005" lon="6.0075802"><ele>981.0</ele><time>2026-05-01T11:43:13.385Z</time></trkpt><trkpt lat="44.5440111" lon="6.0072927"><ele>979.0</ele><time>2026-05-01T11:43:14.385Z</time></trkpt><trkpt lat="44.5441187" lon="6.0069982"><ele>979.0</ele><time>2026-05-01T11:43:15.385Z</time></trkpt><trkpt lat="44.5442205" lon="6.0066974"><ele>979.0</ele><time>2026-05-01T11:43:16.385Z</time></trkpt><trkpt lat="44.5443172" lon="6.0063932"><ele>978.5</ele><time>2026-05-01T11:43:17.385Z</time></trkpt><trkpt lat="44.5444105" lon="6.0060885"><ele>978.0</ele><time>2026-05-01T11:43:18.385Z</time></trkpt><trkpt lat="44.5445025" lon="6.0057858"><ele>981.0</ele><time>2026-05-01T11:43:19.385Z</time></trkpt><trkpt lat="44.544594" lon="6.0054865"><ele>984.0</ele><time>2026-05-01T11:43:20.385Z</time></trkpt><trkpt lat="44.5446822" lon="6.0051885"><ele>984.6666666666667</ele><time>2026-05-01T11:43:21.385Z</time></trkpt><trkpt lat="44.5447684" lon="6.0048948"><ele>985.3333333333334</ele><time>2026-05-01T11:43:22.385Z</time></trkpt><trkpt lat="44.5448534" lon="6.0046057"><ele>986.0</ele><time>2026-05-01T11:43:23.386Z</time></trkpt><trkpt lat="44.5449379" lon="6.0043195"><ele>985.6666666666667</ele><time>2026-05-01T11:43:24.385Z</time></trkpt><trkpt lat="44.545022" lon="6.0040336"><ele>985.3333333333333</ele><time>2026-05-01T11:43:25.385Z</time></trkpt><trkpt lat="44.5451085" lon="6.0037444"><ele>985.0</ele><time>2026-05-01T11:43:26.385Z</time></trkpt><trkpt lat="44.545196" lon="6.0034512"><ele>984.0</ele><time>2026-05-01T11:43:27.385Z</time></trkpt><trkpt lat="44.5452856" lon="6.003153"><ele>983.0</ele><time>2026-05-01T11:43:28.385Z</time></trkpt><trkpt lat="44.5453787" lon="6.0028493"><ele>985.5</ele><time>2026-05-01T11:43:29.385Z</time></trkpt><trkpt lat="44.5454727" lon="6.0025425"><ele>988.0</ele><time>2026-05-01T11:43:30.385Z</time></trkpt><trkpt lat="44.5455659" lon="6.0022355"><ele>988.0</ele><time>2026-05-01T11:43:31.384Z</time></trkpt><trkpt lat="44.5456592" lon="6.0019284"><ele>988.0</ele><time>2026-05-01T11:43:32.384Z</time></trkpt><trkpt lat="44.5457504" lon="6.001622"><ele>986.0</ele><time>2026-05-01T11:43:33.384Z</time></trkpt><trkpt lat="44.5458423" lon="6.0013111"><ele>984.0</ele><time>2026-05-01T11:43:34.384Z</time></trkpt><trkpt lat="44.5459312" lon="6.0010079"><ele>984.0</ele><time>2026-05-01T11:43:35.385Z</time></trkpt><trkpt lat="44.5460183" lon="6.0007128"><ele>984.0</ele><time>2026-05-01T11:43:36.384Z</time></trkpt><trkpt lat="44.5461027" lon="6.0004228"><ele>984.0</ele><time>2026-05-01T11:43:37.384Z</time></trkpt><trkpt lat="44.5461837" lon="6.0001345"><ele>984.0</ele><time>2026-05-01T11:43:38.384Z</time></trkpt><trkpt lat="44.5462607" lon="5.9998427"><ele>984.0</ele><time>2026-05-01T11:43:39.385Z</time></trkpt><trkpt lat="44.5463305" lon="5.9995475"><ele>986.0</ele><time>2026-05-01T11:43:40.384Z</time></trkpt><trkpt lat="44.5463899" lon="5.9992478"><ele>988.0</ele><time>2026-05-01T11:43:41.384Z</time></trkpt><trkpt lat="44.5464378" lon="5.9989474"><ele>990.0</ele><time>2026-05-01T11:43:42.384Z</time></trkpt><trkpt lat="44.546476" lon="5.9986466"><ele>990.0</ele><time>2026-05-01T11:43:43.384Z</time></trkpt><trkpt lat="44.5465044" lon="5.998344"><ele>990.0</ele><time>2026-05-01T11:43:44.384Z</time></trkpt><trkpt lat="44.5465241" lon="5.9980345"><ele>990.0</ele><time>2026-05-01T11:43:45.384Z</time></trkpt><trkpt lat="44.5465333" lon="5.997716"><ele>989.0</ele><time>2026-05-01T11:43:46.384Z</time></trkpt><trkpt lat="44.5465339" lon="5.9973874"><ele>988.0</ele><time>2026-05-01T11:43:47.384Z</time></trkpt><trkpt lat="44.5465179" lon="5.9970617"><ele>988.0</ele><time>2026-05-01T11:43:48.385Z</time></trkpt><trkpt lat="44.546484" lon="5.9967407"><ele>988.0</ele><time>2026-05-01T11:43:49.384Z</time></trkpt><trkpt lat="44.5464402" lon="5.9964194"><ele>988.0</ele><time>2026-05-01T11:43:50.384Z</time></trkpt><trkpt lat="44.5463893" lon="5.9961079"><ele>988.0</ele><time>2026-05-01T11:43:51.384Z</time></trkpt><trkpt lat="44.546332" lon="5.9958059"><ele>988.5</ele><time>2026-05-01T11:43:52.384Z</time></trkpt><trkpt lat="44.5462747" lon="5.9954993"><ele>989.0</ele><time>2026-05-01T11:43:53.384Z</time></trkpt><trkpt lat="44.5462169" lon="5.9951859"><ele>982.5</ele><time>2026-05-01T11:43:54.384Z</time></trkpt><trkpt lat="44.5461571" lon="5.994872"><ele>976.0</ele><time>2026-05-01T11:43:55.385Z</time></trkpt><trkpt lat="44.5460968" lon="5.9945528"><ele>976.0</ele><time>2026-05-01T11:43:56.384Z</time></trkpt><trkpt lat="44.5460356" lon="5.9942323"><ele>976.0</ele><time>2026-05-01T11:43:57.384Z</time></trkpt><trkpt lat="44.5459754" lon="5.9939064"><ele>976.0</ele><time>2026-05-01T11:43:58.384Z</time></trkpt><trkpt lat="44.5459156" lon="5.9935807"><ele>976.0</ele><time>2026-05-01T11:43:59.385Z</time></trkpt><trkpt lat="44.5458564" lon="5.9932529"><ele>976.0</ele><time>2026-05-01T11:44:00.385Z</time></trkpt><trkpt lat="44.5457976" lon="5.992925"><ele>976.0</ele><time>2026-05-01T11:44:01.384Z</time></trkpt><trkpt lat="44.5457396" lon="5.9925945"><ele>976.5</ele><time>2026-05-01T11:44:02.384Z</time></trkpt><trkpt lat="44.5456804" lon="5.9922667"><ele>977.0</ele><time>2026-05-01T11:44:03.384Z</time></trkpt><trkpt lat="44.5456206" lon="5.9919366"><ele>976.5</ele><time>2026-05-01T11:44:04.384Z</time></trkpt><trkpt lat="44.5455591" lon="5.9916094"><ele>976.0</ele><time>2026-05-01T11:44:05.384Z</time></trkpt><trkpt lat="44.5454978" lon="5.9912832"><ele>976.0</ele><time>2026-05-01T11:44:06.385Z</time></trkpt><trkpt lat="44.5454389" lon="5.9909578"><ele>976.0</ele><time>2026-05-01T11:44:07.384Z</time></trkpt><trkpt lat="44.5453826" lon="5.9906352"><ele>971.0</ele><time>2026-05-01T11:44:08.385Z</time></trkpt><trkpt lat="44.5453329" lon="5.9903166"><ele>966.0</ele><time>2026-05-01T11:44:09.384Z</time></trkpt><trkpt lat="44.5453005" lon="5.9899984"><ele>966.0</ele><time>2026-05-01T11:44:10.384Z</time></trkpt><trkpt lat="44.5452913" lon="5.98968"><ele>966.0</ele><time>2026-05-01T11:44:11.384Z</time></trkpt><trkpt lat="44.5453012" lon="5.9893562"><ele>965.5</ele><time>2026-05-01T11:44:12.385Z</time></trkpt><trkpt lat="44.5453301" lon="5.9890285"><ele>965.0</ele><time>2026-05-01T11:44:13.384Z</time></trkpt><trkpt lat="44.5453777" lon="5.9886995"><ele>967.5</ele><time>2026-05-01T11:44:14.384Z</time></trkpt><trkpt lat="44.5454499" lon="5.9883779"><ele>970.0</ele><time>2026-05-01T11:44:15.384Z</time></trkpt><trkpt lat="44.5455413" lon="5.9880624"><ele>970.0</ele><time>2026-05-01T11:44:16.384Z</time></trkpt><trkpt lat="44.5456409" lon="5.9877546"><ele>970.0</ele><time>2026-05-01T11:44:17.384Z</time></trkpt><trkpt lat="44.545742" lon="5.9874609"><ele>967.5</ele><time>2026-05-01T11:44:18.384Z</time></trkpt><trkpt lat="44.5458409" lon="5.9871733"><ele>965.0</ele><time>2026-05-01T11:44:19.385Z</time></trkpt><trkpt lat="44.5459396" lon="5.9868936"><ele>963.0</ele><time>2026-05-01T11:44:20.384Z</time></trkpt><trkpt lat="44.5460395" lon="5.986616"><ele>961.0</ele><time>2026-05-01T11:44:21.385Z</time></trkpt><trkpt lat="44.546142" lon="5.9863394"><ele>959.0</ele><time>2026-05-01T11:44:22.384Z</time></trkpt><trkpt lat="44.5462479" lon="5.9860573"><ele>963.0</ele><time>2026-05-01T11:44:23.384Z</time></trkpt><trkpt lat="44.5463545" lon="5.9857708"><ele>967.0</ele><time>2026-05-01T11:44:24.384Z</time></trkpt><trkpt lat="44.5464617" lon="5.9854828"><ele>967.0</ele><time>2026-05-01T11:44:25.384Z</time></trkpt><trkpt lat="44.5465691" lon="5.9851931"><ele>967.0</ele><time>2026-05-01T11:44:26.384Z</time></trkpt><trkpt lat="44.5466771" lon="5.9849036"><ele>964.0</ele><time>2026-05-01T11:44:27.384Z</time></trkpt><trkpt lat="44.5467878" lon="5.9846226"><ele>961.0</ele><time>2026-05-01T11:44:28.384Z</time></trkpt><trkpt lat="44.5469087" lon="5.9843427"><ele>960.5</ele><time>2026-05-01T11:44:29.385Z</time></trkpt><trkpt lat="44.5470382" lon="5.9840639"><ele>960.0</ele><time>2026-05-01T11:44:30.384Z</time></trkpt><trkpt lat="44.5471758" lon="5.9837927"><ele>960.0</ele><time>2026-05-01T11:44:31.384Z</time></trkpt><trkpt lat="44.5473172" lon="5.9835317"><ele>960.0</ele><time>2026-05-01T11:44:32.384Z</time></trkpt><trkpt lat="44.5474601" lon="5.9832786"><ele>956.5</ele><time>2026-05-01T11:44:33.384Z</time></trkpt><trkpt lat="44.547601" lon="5.9830299"><ele>953.0</ele><time>2026-05-01T11:44:34.384Z</time></trkpt><trkpt lat="44.547741" lon="5.9827813"><ele>953.5</ele><time>2026-05-01T11:44:35.384Z</time></trkpt><trkpt lat="44.5478822" lon="5.9825325"><ele>954.0</ele><time>2026-05-01T11:44:36.384Z</time></trkpt><trkpt lat="44.5480233" lon="5.98228"><ele>954.0</ele><time>2026-05-01T11:44:37.385Z</time></trkpt><trkpt lat="44.5481649" lon="5.9820225"><ele>954.0</ele><time>2026-05-01T11:44:38.385Z</time></trkpt><trkpt lat="44.5483021" lon="5.9817609"><ele>952.0</ele><time>2026-05-01T11:44:39.384Z</time></trkpt><trkpt lat="44.5484337" lon="5.9814914"><ele>950.0</ele><time>2026-05-01T11:44:40.385Z</time></trkpt><trkpt lat="44.5485518" lon="5.9812104"><ele>950.0</ele><time>2026-05-01T11:44:41.384Z</time></trkpt><trkpt lat="44.5486547" lon="5.9809164"><ele>950.0</ele><time>2026-05-01T11:44:42.385Z</time></trkpt><trkpt lat="44.5487437" lon="5.9806145"><ele>950.0</ele><time>2026-05-01T11:44:43.384Z</time></trkpt><trkpt lat="44.5488259" lon="5.9803091"><ele>950.0</ele><time>2026-05-01T11:44:44.384Z</time></trkpt><trkpt lat="44.5489021" lon="5.9799949"><ele>950.0</ele><time>2026-05-01T11:44:45.384Z</time></trkpt><trkpt lat="44.5489768" lon="5.9796791"><ele>950.0</ele><time>2026-05-01T11:44:46.385Z</time></trkpt><trkpt lat="44.5490506" lon="5.9793589"><ele>947.0</ele><time>2026-05-01T11:44:47.385Z</time></trkpt><trkpt lat="44.5491254" lon="5.9790322"><ele>944.0</ele><time>2026-05-01T11:44:48.384Z</time></trkpt><trkpt lat="44.5492062" lon="5.978679"><ele>942.5</ele><time>2026-05-01T11:44:49.385Z</time></trkpt><trkpt lat="44.5492867" lon="5.9783025"><ele>941.0</ele><time>2026-05-01T11:44:50.384Z</time></trkpt><trkpt lat="44.549367" lon="5.9779047"><ele>941.5</ele><time>2026-05-01T11:44:51.384Z</time></trkpt><trkpt lat="44.5494549" lon="5.9774862"><ele>942.0</ele><time>2026-05-01T11:44:52.384Z</time></trkpt><trkpt lat="44.5495501" lon="5.9770579"><ele>943.5</ele><time>2026-05-01T11:44:53.384Z</time></trkpt><trkpt lat="44.5496499" lon="5.9766364"><ele>945.0</ele><time>2026-05-01T11:44:54.384Z</time></trkpt><trkpt lat="44.5497458" lon="5.9762363"><ele>944.5</ele><time>2026-05-01T11:44:55.384Z</time></trkpt><trkpt lat="44.5498376" lon="5.9758484"><ele>944.0</ele><time>2026-05-01T11:44:56.384Z</time></trkpt><trkpt lat="44.5499293" lon="5.9754568"><ele>944.0</ele><time>2026-05-01T11:44:57.384Z</time></trkpt><trkpt lat="44.5500215" lon="5.9750746"><ele>944.0</ele><time>2026-05-01T11:44:58.384Z</time></trkpt><trkpt lat="44.5501099" lon="5.9747148"><ele>943.0</ele><time>2026-05-01T11:44:59.385Z</time></trkpt><trkpt lat="44.550194" lon="5.974368"><ele>942.0</ele><time>2026-05-01T11:45:00.384Z</time></trkpt><trkpt lat="44.5502763" lon="5.9740249"><ele>941.5</ele><time>2026-05-01T11:45:01.384Z</time></trkpt><trkpt lat="44.550357" lon="5.9736879"><ele>941.0</ele><time>2026-05-01T11:45:02.384Z</time></trkpt><trkpt lat="44.5504378" lon="5.9733543"><ele>944.5</ele><time>2026-05-01T11:45:03.384Z</time></trkpt><trkpt lat="44.5505144" lon="5.9730323"><ele>948.0</ele><time>2026-05-01T11:45:04.384Z</time></trkpt><trkpt lat="44.5505887" lon="5.9727238"><ele>946.6666666666667</ele><time>2026-05-01T11:45:05.384Z</time></trkpt><trkpt lat="44.5506589" lon="5.9724249"><ele>945.3333333333334</ele><time>2026-05-01T11:45:06.385Z</time></trkpt><trkpt lat="44.5507243" lon="5.9721382"><ele>944.0</ele><time>2026-05-01T11:45:07.384Z</time></trkpt><trkpt lat="44.5507863" lon="5.9718634"><ele>943.3333333333334</ele><time>2026-05-01T11:45:08.384Z</time></trkpt><trkpt lat="44.5508484" lon="5.9715949"><ele>942.6666666666667</ele><time>2026-05-01T11:45:09.384Z</time></trkpt><trkpt lat="44.5509085" lon="5.9713307"><ele>942.0</ele><time>2026-05-01T11:45:10.384Z</time></trkpt><trkpt lat="44.5509706" lon="5.9710627"><ele>941.6666666666667</ele><time>2026-05-01T11:45:11.384Z</time></trkpt><trkpt lat="44.5510319" lon="5.9707938"><ele>941.3333333333334</ele><time>2026-05-01T11:45:12.384Z</time></trkpt><trkpt lat="44.5510923" lon="5.9705236"><ele>941.0</ele><time>2026-05-01T11:45:13.384Z</time></trkpt><trkpt lat="44.5511538" lon="5.9702475"><ele>946.6666666666667</ele><time>2026-05-01T11:45:14.385Z</time></trkpt><trkpt lat="44.5512135" lon="5.9699607"><ele>952.3333333333333</ele><time>2026-05-01T11:45:15.384Z</time></trkpt><trkpt lat="44.5512613" lon="5.9696669"><ele>958.0</ele><time>2026-05-01T11:45:16.384Z</time></trkpt><trkpt lat="44.551299" lon="5.9693681"><ele>956.6666666666666</ele><time>2026-05-01T11:45:17.384Z</time></trkpt><trkpt lat="44.5513345" lon="5.9690609"><ele>955.3333333333333</ele><time>2026-05-01T11:45:18.384Z</time></trkpt><trkpt lat="44.5513679" lon="5.968753"><ele>954.0</ele><time>2026-05-01T11:45:19.384Z</time></trkpt><trkpt lat="44.5513978" lon="5.9684509"><ele>952.6666666666667</ele><time>2026-05-01T11:45:20.384Z</time></trkpt><trkpt lat="44.5514315" lon="5.96815"><ele>951.3333333333334</ele><time>2026-05-01T11:45:21.384Z</time></trkpt><trkpt lat="44.5514635" lon="5.967853"><ele>950.0</ele><time>2026-05-01T11:45:22.384Z</time></trkpt><trkpt lat="44.5514944" lon="5.9675587"><ele>949.3333333333334</ele><time>2026-05-01T11:45:23.385Z</time></trkpt><trkpt lat="44.5515225" lon="5.9672668"><ele>948.6666666666667</ele><time>2026-05-01T11:45:24.384Z</time></trkpt><trkpt lat="44.5515507" lon="5.9669759"><ele>948.0</ele><time>2026-05-01T11:45:25.384Z</time></trkpt><trkpt lat="44.5515783" lon="5.9666888"><ele>947.6666666666667</ele><time>2026-05-01T11:45:26.384Z</time></trkpt><trkpt lat="44.551612" lon="5.9664033"><ele>947.3333333333334</ele><time>2026-05-01T11:45:27.385Z</time></trkpt><trkpt lat="44.5516557" lon="5.9661142"><ele>947.0</ele><time>2026-05-01T11:45:28.384Z</time></trkpt><trkpt lat="44.5517152" lon="5.9658276"><ele>946.0</ele><time>2026-05-01T11:45:29.384Z</time></trkpt><trkpt lat="44.5517833" lon="5.9655545"><ele>945.0</ele><time>2026-05-01T11:45:30.385Z</time></trkpt><trkpt lat="44.5518654" lon="5.9652857"><ele>944.0</ele><time>2026-05-01T11:45:31.385Z</time></trkpt><trkpt lat="44.5519619" lon="5.9650206"><ele>948.3333333333334</ele><time>2026-05-01T11:45:32.385Z</time></trkpt><trkpt lat="44.5520712" lon="5.964766"><ele>952.6666666666667</ele><time>2026-05-01T11:45:33.384Z</time></trkpt><trkpt lat="44.5521954" lon="5.9645195"><ele>957.0</ele><time>2026-05-01T11:45:34.384Z</time></trkpt><trkpt lat="44.552328" lon="5.9642786"><ele>953.0</ele><time>2026-05-01T11:45:35.384Z</time></trkpt><trkpt lat="44.5524608" lon="5.9640347"><ele>949.0</ele><time>2026-05-01T11:45:36.384Z</time></trkpt><trkpt lat="44.5525959" lon="5.9637871"><ele>945.0</ele><time>2026-05-01T11:45:37.384Z</time></trkpt><trkpt lat="44.5527333" lon="5.9635391"><ele>942.0</ele><time>2026-05-01T11:45:38.384Z</time></trkpt><trkpt lat="44.5528721" lon="5.9632873"><ele>939.0</ele><time>2026-05-01T11:45:39.385Z</time></trkpt><trkpt lat="44.553012" lon="5.9630307"><ele>941.5</ele><time>2026-05-01T11:45:40.384Z</time></trkpt><trkpt lat="44.5531489" lon="5.9627653"><ele>944.0</ele><time>2026-05-01T11:45:41.384Z</time></trkpt><trkpt lat="44.5532776" lon="5.9624907"><ele>944.0</ele><time>2026-05-01T11:45:42.385Z</time></trkpt><trkpt lat="44.5534058" lon="5.9622053"><ele>944.0</ele><time>2026-05-01T11:45:43.384Z</time></trkpt><trkpt lat="44.5535344" lon="5.9619148"><ele>940.5</ele><time>2026-05-01T11:45:44.384Z</time></trkpt><trkpt lat="44.553663" lon="5.9616238"><ele>937.0</ele><time>2026-05-01T11:45:45.384Z</time></trkpt><trkpt lat="44.5537875" lon="5.9613341"><ele>939.5</ele><time>2026-05-01T11:45:46.384Z</time></trkpt><trkpt lat="44.5539139" lon="5.9610459"><ele>942.0</ele><time>2026-05-01T11:45:47.384Z</time></trkpt><trkpt lat="44.5540381" lon="5.9607623"><ele>942.0</ele><time>2026-05-01T11:45:48.384Z</time></trkpt><trkpt lat="44.5541605" lon="5.9604826"><ele>942.0</ele><time>2026-05-01T11:45:49.384Z</time></trkpt><trkpt lat="44.554285" lon="5.9602086"><ele>942.5</ele><time>2026-05-01T11:45:50.384Z</time></trkpt><trkpt lat="44.5544208" lon="5.9599536"><ele>943.0</ele><time>2026-05-01T11:45:51.384Z</time></trkpt><trkpt lat="44.5545761" lon="5.9597241"><ele>943.0</ele><time>2026-05-01T11:45:52.384Z</time></trkpt><trkpt lat="44.5547485" lon="5.9595152"><ele>943.0</ele><time>2026-05-01T11:45:53.384Z</time></trkpt><trkpt lat="44.5549345" lon="5.9593324"><ele>940.3333333333333</ele><time>2026-05-01T11:45:54.384Z</time></trkpt><trkpt lat="44.555132" lon="5.9591828"><ele>937.6666666666667</ele><time>2026-05-01T11:45:55.384Z</time></trkpt><trkpt lat="44.555339" lon="5.9590627"><ele>935.0</ele><time>2026-05-01T11:45:56.384Z</time></trkpt><trkpt lat="44.5555481" lon="5.9589619"><ele>935.0</ele><time>2026-05-01T11:45:57.384Z</time></trkpt><trkpt lat="44.5557549" lon="5.9588649"><ele>935.0</ele><time>2026-05-01T11:45:58.384Z</time></trkpt><trkpt lat="44.5559524" lon="5.9587715"><ele>935.0</ele><time>2026-05-01T11:45:59.384Z</time></trkpt><trkpt lat="44.5561419" lon="5.9586816"><ele>935.3333333333334</ele><time>2026-05-01T11:46:00.384Z</time></trkpt><trkpt lat="44.5563227" lon="5.9585938"><ele>935.6666666666667</ele><time>2026-05-01T11:46:01.384Z</time></trkpt><trkpt lat="44.5564954" lon="5.9585097"><ele>936.0</ele><time>2026-05-01T11:46:02.384Z</time></trkpt><trkpt lat="44.5566625" lon="5.9584279"><ele>935.0</ele><time>2026-05-01T11:46:03.385Z</time></trkpt><trkpt lat="44.5568206" lon="5.9583469"><ele>934.0</ele><time>2026-05-01T11:46:04.384Z</time></trkpt><trkpt lat="44.5569606" lon="5.9582757"><ele>933.0</ele><time>2026-05-01T11:46:05.384Z</time></trkpt><trkpt lat="44.5570765" lon="5.9582166"><ele>932.0</ele><time>2026-05-01T11:46:06.384Z</time></trkpt><trkpt lat="44.5571778" lon="5.958168"><ele>932.0</ele><time>2026-05-01T11:46:07.384Z</time></trkpt><trkpt lat="44.5572763" lon="5.9581249"><ele>932.0</ele><time>2026-05-01T11:46:08.385Z</time></trkpt><trkpt lat="44.55737" lon="5.9580831"><ele>932.0</ele><time>2026-05-01T11:46:09.384Z</time></trkpt><trkpt lat="44.5574578" lon="5.9580379"><ele>932.0</ele><time>2026-05-01T11:46:10.384Z</time></trkpt><trkpt lat="44.5575461" lon="5.9579928"><ele>932.0</ele><time>2026-05-01T11:46:11.384Z</time></trkpt><trkpt lat="44.557643" lon="5.9579394"><ele>932.0</ele><time>2026-05-01T11:46:12.384Z</time></trkpt><trkpt lat="44.5577492" lon="5.9578808"><ele>932.0</ele><time>2026-05-01T11:46:13.385Z</time></trkpt><trkpt lat="44.5578609" lon="5.9578241"><ele>932.0</ele><time>2026-05-01T11:46:14.384Z</time></trkpt><trkpt lat="44.5579739" lon="5.9577664"><ele>932.0</ele><time>2026-05-01T11:46:15.384Z</time></trkpt><trkpt lat="44.5580883" lon="5.9577081"><ele>932.0</ele><time>2026-05-01T11:46:16.384Z</time></trkpt><trkpt lat="44.5582079" lon="5.9576444"><ele>932.0</ele><time>2026-05-01T11:46:17.384Z</time></trkpt><trkpt lat="44.5583265" lon="5.9575835"><ele>932.0</ele><time>2026-05-01T11:46:18.384Z</time></trkpt><trkpt lat="44.5584381" lon="5.9575301"><ele>932.0</ele><time>2026-05-01T11:46:19.384Z</time></trkpt><trkpt lat="44.5585376" lon="5.957482"><ele>932.0</ele><time>2026-05-01T11:46:20.384Z</time></trkpt><trkpt lat="44.5586324" lon="5.9574334"><ele>932.0</ele><time>2026-05-01T11:46:21.384Z</time></trkpt><trkpt lat="44.5587211" lon="5.9573882"><ele>932.0</ele><time>2026-05-01T11:46:22.384Z</time></trkpt><trkpt lat="44.5588069" lon="5.9573412"><ele>932.0</ele><time>2026-05-01T11:46:23.384Z</time></trkpt><trkpt lat="44.5588957" lon="5.9572932"><ele>932.0</ele><time>2026-05-01T11:46:24.385Z</time></trkpt><trkpt lat="44.5589846" lon="5.9572442"><ele>932.4000000000001</ele><time>2026-05-01T11:46:25.384Z</time></trkpt><trkpt lat="44.5590714" lon="5.9572019"><ele>932.8000000000001</ele><time>2026-05-01T11:46:26.385Z</time></trkpt><trkpt lat="44.5591615" lon="5.9571564"><ele>933.2</ele><time>2026-05-01T11:46:27.384Z</time></trkpt><trkpt lat="44.5592549" lon="5.9571107"><ele>933.6</ele><time>2026-05-01T11:46:28.384Z</time></trkpt><trkpt lat="44.5593476" lon="5.9570669"><ele>934.0</ele><time>2026-05-01T11:46:29.385Z</time></trkpt><trkpt lat="44.5594426" lon="5.9570262"><ele>934.75</ele><time>2026-05-01T11:46:30.384Z</time></trkpt><trkpt lat="44.5595449" lon="5.9569789"><ele>935.5</ele><time>2026-05-01T11:46:31.384Z</time></trkpt><trkpt lat="44.5596533" lon="5.9569283"><ele>936.25</ele><time>2026-05-01T11:46:32.384Z</time></trkpt><trkpt lat="44.5597619" lon="5.9568732"><ele>937.0</ele><time>2026-05-01T11:46:33.384Z</time></trkpt><trkpt lat="44.559869" lon="5.9568167"><ele>937.0</ele><time>2026-05-01T11:46:34.385Z</time></trkpt><trkpt lat="44.5599787" lon="5.956761"><ele>937.0</ele><time>2026-05-01T11:46:35.384Z</time></trkpt><trkpt lat="44.5600921" lon="5.956702"><ele>937.0</ele><time>2026-05-01T11:46:36.384Z</time></trkpt><trkpt lat="44.5602094" lon="5.9566371"><ele>937.0</ele><time>2026-05-01T11:46:37.384Z</time></trkpt><trkpt lat="44.5603284" lon="5.9565693"><ele>937.0</ele><time>2026-05-01T11:46:38.385Z</time></trkpt><trkpt lat="44.5604483" lon="5.9564992"><ele>937.0</ele><time>2026-05-01T11:46:39.384Z</time></trkpt><trkpt lat="44.5605689" lon="5.9564327"><ele>937.0</ele><time>2026-05-01T11:46:40.385Z</time></trkpt><trkpt lat="44.5606883" lon="5.9563694"><ele>937.0</ele><time>2026-05-01T11:46:41.384Z</time></trkpt><trkpt lat="44.560808" lon="5.9563048"><ele>937.0</ele><time>2026-05-01T11:46:42.384Z</time></trkpt><trkpt lat="44.5609184" lon="5.9562495"><ele>937.0</ele><time>2026-05-01T11:46:43.384Z</time></trkpt><trkpt lat="44.5610253" lon="5.9561922"><ele>937.0</ele><time>2026-05-01T11:46:44.384Z</time></trkpt><trkpt lat="44.5611264" lon="5.9561405"><ele>937.0</ele><time>2026-05-01T11:46:45.384Z</time></trkpt><trkpt lat="44.561227" lon="5.9560895"><ele>937.0</ele><time>2026-05-01T11:46:46.385Z</time></trkpt><trkpt lat="44.5613263" lon="5.9560419"><ele>937.0</ele><time>2026-05-01T11:46:47.384Z</time></trkpt><trkpt lat="44.5614267" lon="5.9559903"><ele>937.0</ele><time>2026-05-01T11:46:48.384Z</time></trkpt><trkpt lat="44.5615276" lon="5.9559272"><ele>937.0</ele><time>2026-05-01T11:46:49.385Z</time></trkpt><trkpt lat="44.5616245" lon="5.9558519"><ele>937.0</ele><time>2026-05-01T11:46:50.384Z</time></trkpt><trkpt lat="44.5617147" lon="5.9557642"><ele>937.0</ele><time>2026-05-01T11:46:51.384Z</time></trkpt><trkpt lat="44.561792" lon="5.9556569"><ele>936.6</ele><time>2026-05-01T11:46:52.384Z</time></trkpt><trkpt lat="44.5618521" lon="5.9555346"><ele>936.2</ele><time>2026-05-01T11:46:53.384Z</time></trkpt><trkpt lat="44.5618927" lon="5.9553991"><ele>935.8</ele><time>2026-05-01T11:46:54.384Z</time></trkpt><trkpt lat="44.5619178" lon="5.9552496"><ele>935.4</ele><time>2026-05-01T11:46:55.385Z</time></trkpt><trkpt lat="44.5619254" lon="5.9550944"><ele>935.0</ele><time>2026-05-01T11:46:56.384Z</time></trkpt><trkpt lat="44.5619262" lon="5.9549286"><ele>935.0</ele><time>2026-05-01T11:46:57.385Z</time></trkpt><trkpt lat="44.561922" lon="5.9547555"><ele>935.0</ele><time>2026-05-01T11:46:58.384Z</time></trkpt><trkpt lat="44.5619162" lon="5.9545773"><ele>935.0</ele><time>2026-05-01T11:46:59.384Z</time></trkpt><trkpt lat="44.5619125" lon="5.9543934"><ele>935.0</ele><time>2026-05-01T11:47:00.384Z</time></trkpt><trkpt lat="44.5619117" lon="5.9542189"><ele>935.0</ele><time>2026-05-01T11:47:01.385Z</time></trkpt><trkpt lat="44.5619103" lon="5.9540552"><ele>935.0</ele><time>2026-05-01T11:47:02.384Z</time></trkpt><trkpt lat="44.5619092" lon="5.9538952"><ele>935.0</ele><time>2026-05-01T11:47:03.384Z</time></trkpt><trkpt lat="44.5619108" lon="5.9537397"><ele>935.0</ele><time>2026-05-01T11:47:04.384Z</time></trkpt><trkpt lat="44.5619102" lon="5.9535765"><ele>935.0</ele><time>2026-05-01T11:47:05.384Z</time></trkpt><trkpt lat="44.5619072" lon="5.9534054"><ele>935.0</ele><time>2026-05-01T11:47:06.385Z</time></trkpt><trkpt lat="44.5619078" lon="5.9532288"><ele>935.0</ele><time>2026-05-01T11:47:07.384Z</time></trkpt><trkpt lat="44.5619062" lon="5.9530446"><ele>935.0</ele><time>2026-05-01T11:47:08.384Z</time></trkpt><trkpt lat="44.5619048" lon="5.9528531"><ele>934.5</ele><time>2026-05-01T11:47:09.385Z</time></trkpt><trkpt lat="44.5619053" lon="5.9526614"><ele>934.0</ele><time>2026-05-01T11:47:10.384Z</time></trkpt><trkpt lat="44.5619048" lon="5.9524706"><ele>933.5</ele><time>2026-05-01T11:47:11.384Z</time></trkpt><trkpt lat="44.5619045" lon="5.9522846"><ele>933.0</ele><time>2026-05-01T11:47:12.384Z</time></trkpt><trkpt lat="44.5619027" lon="5.9521032"><ele>932.5</ele><time>2026-05-01T11:47:13.385Z</time></trkpt><trkpt lat="44.5619014" lon="5.9519247"><ele>932.0</ele><time>2026-05-01T11:47:14.385Z</time></trkpt><trkpt lat="44.5618963" lon="5.9517455"><ele>931.5</ele><time>2026-05-01T11:47:15.385Z</time></trkpt><trkpt lat="44.5618943" lon="5.9515542"><ele>931.0</ele><time>2026-05-01T11:47:16.385Z</time></trkpt><trkpt lat="44.5618914" lon="5.9513585"><ele>930.5</ele><time>2026-05-01T11:47:17.384Z</time></trkpt><trkpt lat="44.5618927" lon="5.9511527"><ele>930.0</ele><time>2026-05-01T11:47:18.384Z</time></trkpt><trkpt lat="44.5618924" lon="5.9509494"><ele>929.5</ele><time>2026-05-01T11:47:19.384Z</time></trkpt><trkpt lat="44.5618922" lon="5.9507436"><ele>929.0</ele><time>2026-05-01T11:47:20.385Z</time></trkpt><trkpt lat="44.5618935" lon="5.9505381"><ele>929.0</ele><time>2026-05-01T11:47:21.385Z</time></trkpt><trkpt lat="44.5618942" lon="5.9503367"><ele>929.0</ele><time>2026-05-01T11:47:22.384Z</time></trkpt><trkpt lat="44.5618931" lon="5.9501326"><ele>929.0</ele><time>2026-05-01T11:47:23.384Z</time></trkpt><trkpt lat="44.5618933" lon="5.9499211"><ele>929.0</ele><time>2026-05-01T11:47:24.384Z</time></trkpt><trkpt lat="44.5618941" lon="5.949705"><ele>929.3333333333334</ele><time>2026-05-01T11:47:25.384Z</time></trkpt><trkpt lat="44.5618935" lon="5.9494934"><ele>929.6666666666667</ele><time>2026-05-01T11:47:26.385Z</time></trkpt><trkpt lat="44.5618932" lon="5.9492818"><ele>930.0</ele><time>2026-05-01T11:47:27.384Z</time></trkpt><trkpt lat="44.5618937" lon="5.9490591"><ele>929.0</ele><time>2026-05-01T11:47:28.384Z</time></trkpt><trkpt lat="44.5618981" lon="5.9488217"><ele>928.0</ele><time>2026-05-01T11:47:29.384Z</time></trkpt><trkpt lat="44.5618982" lon="5.9485771"><ele>927.0</ele><time>2026-05-01T11:47:30.384Z</time></trkpt><trkpt lat="44.5618974" lon="5.9483169"><ele>926.6666666666667</ele><time>2026-05-01T11:47:31.384Z</time></trkpt><trkpt lat="44.5618962" lon="5.948053"><ele>926.3333333333334</ele><time>2026-05-01T11:47:32.384Z</time></trkpt><trkpt lat="44.561896" lon="5.9477766"><ele>926.0</ele><time>2026-05-01T11:47:33.384Z</time></trkpt><trkpt lat="44.5618947" lon="5.9474999"><ele>925.6666666666667</ele><time>2026-05-01T11:47:34.385Z</time></trkpt><trkpt lat="44.5618947" lon="5.9472176"><ele>925.3333333333333</ele><time>2026-05-01T11:47:35.384Z</time></trkpt><trkpt lat="44.5618935" lon="5.9469297"><ele>925.0</ele><time>2026-05-01T11:47:36.384Z</time></trkpt><trkpt lat="44.5618914" lon="5.9466372"><ele>924.0</ele><time>2026-05-01T11:47:37.384Z</time></trkpt><trkpt lat="44.5618902" lon="5.9463456"><ele>923.0</ele><time>2026-05-01T11:47:38.384Z</time></trkpt><trkpt lat="44.56189" lon="5.9460645"><ele>922.0</ele><time>2026-05-01T11:47:39.384Z</time></trkpt><trkpt lat="44.5618891" lon="5.9457887"><ele>921.6666666666666</ele><time>2026-05-01T11:47:40.384Z</time></trkpt><trkpt lat="44.5618915" lon="5.9455098"><ele>921.3333333333333</ele><time>2026-05-01T11:47:41.384Z</time></trkpt><trkpt lat="44.5618937" lon="5.9452297"><ele>921.0</ele><time>2026-05-01T11:47:42.385Z</time></trkpt><trkpt lat="44.5618948" lon="5.9449442"><ele>920.6666666666667</ele><time>2026-05-01T11:47:43.384Z</time></trkpt><trkpt lat="44.5618954" lon="5.9446546"><ele>920.3333333333334</ele><time>2026-05-01T11:47:44.385Z</time></trkpt><trkpt lat="44.5618975" lon="5.9443617"><ele>920.0</ele><time>2026-05-01T11:47:45.384Z</time></trkpt><trkpt lat="44.5619008" lon="5.944065"><ele>920.0</ele><time>2026-05-01T11:47:46.384Z</time></trkpt><trkpt lat="44.5619022" lon="5.9437644"><ele>920.0</ele><time>2026-05-01T11:47:47.384Z</time></trkpt><trkpt lat="44.5619032" lon="5.9434649"><ele>920.0</ele><time>2026-05-01T11:47:48.385Z</time></trkpt><trkpt lat="44.5619045" lon="5.943167"><ele>919.0</ele><time>2026-05-01T11:47:49.384Z</time></trkpt><trkpt lat="44.5619059" lon="5.9428671"><ele>918.0</ele><time>2026-05-01T11:47:50.384Z</time></trkpt><trkpt lat="44.5619053" lon="5.9425628"><ele>917.0</ele><time>2026-05-01T11:47:51.384Z</time></trkpt><trkpt lat="44.561906" lon="5.9422612"><ele>917.0</ele><time>2026-05-01T11:47:52.384Z</time></trkpt><trkpt lat="44.5619062" lon="5.941961"><ele>917.0</ele><time>2026-05-01T11:47:53.384Z</time></trkpt><trkpt lat="44.5619056" lon="5.9416589"><ele>917.0</ele><time>2026-05-01T11:47:54.384Z</time></trkpt><trkpt lat="44.561906" lon="5.941354"><ele>917.3333333333334</ele><time>2026-05-01T11:47:55.385Z</time></trkpt><trkpt lat="44.561906" lon="5.9410477"><ele>917.6666666666667</ele><time>2026-05-01T11:47:56.384Z</time></trkpt><trkpt lat="44.5619055" lon="5.9407402"><ele>918.0</ele><time>2026-05-01T11:47:57.384Z</time></trkpt><trkpt lat="44.5619053" lon="5.9404301"><ele>917.0</ele><time>2026-05-01T11:47:58.384Z</time></trkpt><trkpt lat="44.5619045" lon="5.9401167"><ele>916.0</ele><time>2026-05-01T11:47:59.385Z</time></trkpt><trkpt lat="44.5619065" lon="5.9398004"><ele>915.0</ele><time>2026-05-01T11:48:00.384Z</time></trkpt><trkpt lat="44.5619073" lon="5.9394824"><ele>914.0</ele><time>2026-05-01T11:48:01.384Z</time></trkpt><trkpt lat="44.5619074" lon="5.9391629"><ele>913.0</ele><time>2026-05-01T11:48:02.384Z</time></trkpt><trkpt lat="44.5619065" lon="5.9388431"><ele>913.0</ele><time>2026-05-01T11:48:03.384Z</time></trkpt><trkpt lat="44.5619061" lon="5.9385214"><ele>913.0</ele><time>2026-05-01T11:48:04.384Z</time></trkpt><trkpt lat="44.561905" lon="5.9382007"><ele>913.5</ele><time>2026-05-01T11:48:05.384Z</time></trkpt><trkpt lat="44.5619061" lon="5.9378819"><ele>914.0</ele><time>2026-05-01T11:48:06.384Z</time></trkpt><trkpt lat="44.5619057" lon="5.9375583"><ele>913.0</ele><time>2026-05-01T11:48:07.384Z</time></trkpt><trkpt lat="44.5619056" lon="5.9372427"><ele>912.0</ele><time>2026-05-01T11:48:08.385Z</time></trkpt><trkpt lat="44.5619088" lon="5.9369258"><ele>911.5</ele><time>2026-05-01T11:48:09.384Z</time></trkpt><trkpt lat="44.5619098" lon="5.9366123"><ele>911.0</ele><time>2026-05-01T11:48:10.384Z</time></trkpt><trkpt lat="44.5619102" lon="5.9362945"><ele>911.0</ele><time>2026-05-01T11:48:11.385Z</time></trkpt><trkpt lat="44.5619095" lon="5.9359757"><ele>911.0</ele><time>2026-05-01T11:48:12.384Z</time></trkpt><trkpt lat="44.5619066" lon="5.9356602"><ele>911.0</ele><time>2026-05-01T11:48:13.384Z</time></trkpt><trkpt lat="44.5619055" lon="5.935343"><ele>911.0</ele><time>2026-05-01T11:48:14.384Z</time></trkpt><trkpt lat="44.5619048" lon="5.9350252"><ele>911.0</ele><time>2026-05-01T11:48:15.384Z</time></trkpt><trkpt lat="44.5619049" lon="5.9347074"><ele>911.0</ele><time>2026-05-01T11:48:16.384Z</time></trkpt><trkpt lat="44.5619058" lon="5.9343901"><ele>910.6666666666667</ele><time>2026-05-01T11:48:17.384Z</time></trkpt><trkpt lat="44.5619058" lon="5.9340763"><ele>910.3333333333333</ele><time>2026-05-01T11:48:18.384Z</time></trkpt><trkpt lat="44.5619048" lon="5.9337665"><ele>910.0</ele><time>2026-05-01T11:48:19.384Z</time></trkpt><trkpt lat="44.561904" lon="5.933463"><ele>910.0</ele><time>2026-05-01T11:48:20.384Z</time></trkpt><trkpt lat="44.5619035" lon="5.9331545"><ele>910.0</ele><time>2026-05-01T11:48:21.384Z</time></trkpt><trkpt lat="44.5619018" lon="5.93284"><ele>910.0</ele><time>2026-05-01T11:48:22.384Z</time></trkpt><trkpt lat="44.561902" lon="5.9325223"><ele>911.0</ele><time>2026-05-01T11:48:23.384Z</time></trkpt><trkpt lat="44.5619033" lon="5.932198"><ele>912.0</ele><time>2026-05-01T11:48:24.384Z</time></trkpt><trkpt lat="44.5619059" lon="5.9318698"><ele>912.0</ele><time>2026-05-01T11:48:25.384Z</time></trkpt><trkpt lat="44.5619057" lon="5.9315418"><ele>912.0</ele><time>2026-05-01T11:48:26.385Z</time></trkpt><trkpt lat="44.5619022" lon="5.9312135"><ele>912.0</ele><time>2026-05-01T11:48:27.384Z</time></trkpt><trkpt lat="44.5618986" lon="5.9308833"><ele>912.0</ele><time>2026-05-01T11:48:28.384Z</time></trkpt><trkpt lat="44.5618966" lon="5.930554"><ele>912.0</ele><time>2026-05-01T11:48:29.384Z</time></trkpt><trkpt lat="44.5618977" lon="5.9302274"><ele>912.0</ele><time>2026-05-01T11:48:30.385Z</time></trkpt><trkpt lat="44.5618999" lon="5.9299075"><ele>912.5</ele><time>2026-05-01T11:48:31.384Z</time></trkpt><trkpt lat="44.5619038" lon="5.9295866"><ele>913.0</ele><time>2026-05-01T11:48:32.384Z</time></trkpt><trkpt lat="44.5619073" lon="5.9292679"><ele>912.6666666666666</ele><time>2026-05-01T11:48:33.384Z</time></trkpt><trkpt lat="44.5619076" lon="5.9289552"><ele>912.3333333333333</ele><time>2026-05-01T11:48:34.384Z</time></trkpt><trkpt lat="44.5619107" lon="5.9286487"><ele>912.0</ele><time>2026-05-01T11:48:35.384Z</time></trkpt><trkpt lat="44.5619126" lon="5.9283517"><ele>912.0</ele><time>2026-05-01T11:48:36.384Z</time></trkpt><trkpt lat="44.5619142" lon="5.9280697"><ele>912.0</ele><time>2026-05-01T11:48:37.385Z</time></trkpt><trkpt lat="44.5619166" lon="5.9277916"><ele>912.0</ele><time>2026-05-01T11:48:38.384Z</time></trkpt><trkpt lat="44.5619181" lon="5.9275226"><ele>912.3333333333333</ele><time>2026-05-01T11:48:39.384Z</time></trkpt><trkpt lat="44.5619206" lon="5.9272619"><ele>912.6666666666666</ele><time>2026-05-01T11:48:40.384Z</time></trkpt><trkpt lat="44.5619214" lon="5.9270014"><ele>913.0</ele><time>2026-05-01T11:48:41.385Z</time></trkpt><trkpt lat="44.5619236" lon="5.9267416"><ele>912.6666666666666</ele><time>2026-05-01T11:48:42.384Z</time></trkpt><trkpt lat="44.5619227" lon="5.9264843"><ele>912.3333333333333</ele><time>2026-05-01T11:48:43.384Z</time></trkpt><trkpt lat="44.5619211" lon="5.9262343"><ele>912.0</ele><time>2026-05-01T11:48:44.384Z</time></trkpt><trkpt lat="44.5619198" lon="5.9259881"><ele>911.3333333333333</ele><time>2026-05-01T11:48:45.384Z</time></trkpt><trkpt lat="44.5619185" lon="5.9257439"><ele>910.6666666666666</ele><time>2026-05-01T11:48:46.384Z</time></trkpt><trkpt lat="44.5619173" lon="5.9255003"><ele>910.0</ele><time>2026-05-01T11:48:47.384Z</time></trkpt><trkpt lat="44.5619172" lon="5.9252623"><ele>909.6666666666666</ele><time>2026-05-01T11:48:48.384Z</time></trkpt><trkpt lat="44.5619181" lon="5.9250229"><ele>909.3333333333333</ele><time>2026-05-01T11:48:49.384Z</time></trkpt><trkpt lat="44.5619164" lon="5.9247874"><ele>909.0</ele><time>2026-05-01T11:48:50.385Z</time></trkpt><trkpt lat="44.5619177" lon="5.9245486"><ele>909.0</ele><time>2026-05-01T11:48:51.385Z</time></trkpt><trkpt lat="44.5619199" lon="5.9243067"><ele>909.0</ele><time>2026-05-01T11:48:52.384Z</time></trkpt><trkpt lat="44.5619259" lon="5.9240604"><ele>909.0</ele><time>2026-05-01T11:48:53.384Z</time></trkpt><trkpt lat="44.5619289" lon="5.9238102"><ele>909.0</ele><time>2026-05-01T11:48:54.384Z</time></trkpt><trkpt lat="44.5619305" lon="5.9235551"><ele>909.0</ele><time>2026-05-01T11:48:55.384Z</time></trkpt><trkpt lat="44.5619297" lon="5.9232997"><ele>909.0</ele><time>2026-05-01T11:48:56.384Z</time></trkpt><trkpt lat="44.5619296" lon="5.923053"><ele>908.6666666666667</ele><time>2026-05-01T11:48:57.384Z</time></trkpt><trkpt lat="44.5619302" lon="5.9228103"><ele>908.3333333333334</ele><time>2026-05-01T11:48:58.384Z</time></trkpt><trkpt lat="44.5619317" lon="5.9225749"><ele>908.0</ele><time>2026-05-01T11:48:59.384Z</time></trkpt><trkpt lat="44.5619323" lon="5.9223471"><ele>907.3333333333334</ele><time>2026-05-01T11:49:00.384Z</time></trkpt><trkpt lat="44.5619316" lon="5.9221237"><ele>906.6666666666667</ele><time>2026-05-01T11:49:01.384Z</time></trkpt><trkpt lat="44.5619304" lon="5.9219081"><ele>906.0</ele><time>2026-05-01T11:49:02.385Z</time></trkpt><trkpt lat="44.5619299" lon="5.9216966"><ele>905.3333333333333</ele><time>2026-05-01T11:49:03.384Z</time></trkpt><trkpt lat="44.5619278" lon="5.9214902"><ele>904.6666666666666</ele><time>2026-05-01T11:49:04.384Z</time></trkpt><trkpt lat="44.5619279" lon="5.9212728"><ele>904.0</ele><time>2026-05-01T11:49:05.385Z</time></trkpt><trkpt lat="44.561929" lon="5.9210446"><ele>903.6666666666666</ele><time>2026-05-01T11:49:06.384Z</time></trkpt><trkpt lat="44.5619294" lon="5.9208029"><ele>903.3333333333333</ele><time>2026-05-01T11:49:07.384Z</time></trkpt><trkpt lat="44.5619296" lon="5.9205556"><ele>903.0</ele><time>2026-05-01T11:49:08.385Z</time></trkpt><trkpt lat="44.5619285" lon="5.9203057"><ele>902.6666666666667</ele><time>2026-05-01T11:49:09.384Z</time></trkpt><trkpt lat="44.5619324" lon="5.9200536"><ele>902.3333333333334</ele><time>2026-05-01T11:49:10.384Z</time></trkpt><trkpt lat="44.5619356" lon="5.9198134"><ele>902.0</ele><time>2026-05-01T11:49:11.384Z</time></trkpt><trkpt lat="44.5619358" lon="5.919577"><ele>902.0</ele><time>2026-05-01T11:49:12.384Z</time></trkpt><trkpt lat="44.5619364" lon="5.9193525"><ele>902.0</ele><time>2026-05-01T11:49:13.384Z</time></trkpt><trkpt lat="44.5619367" lon="5.9191288"><ele>902.0</ele><time>2026-05-01T11:49:14.384Z</time></trkpt><trkpt lat="44.561938" lon="5.9189139"><ele>901.75</ele><time>2026-05-01T11:49:15.384Z</time></trkpt><trkpt lat="44.561939" lon="5.9187041"><ele>901.5</ele><time>2026-05-01T11:49:16.385Z</time></trkpt><trkpt lat="44.5619408" lon="5.9185019"><ele>901.25</ele><time>2026-05-01T11:49:17.385Z</time></trkpt><trkpt lat="44.561941" lon="5.9183014"><ele>901.0</ele><time>2026-05-01T11:49:18.384Z</time></trkpt><trkpt lat="44.5619396" lon="5.9181084"><ele>900.25</ele><time>2026-05-01T11:49:19.384Z</time></trkpt><trkpt lat="44.5619392" lon="5.9179173"><ele>899.5</ele><time>2026-05-01T11:49:20.384Z</time></trkpt><trkpt lat="44.5619385" lon="5.9177263"><ele>898.75</ele><time>2026-05-01T11:49:21.385Z</time></trkpt><trkpt lat="44.5619387" lon="5.9175299"><ele>898.0</ele><time>2026-05-01T11:49:22.384Z</time></trkpt><trkpt lat="44.5619362" lon="5.9173227"><ele>897.3333333333333</ele><time>2026-05-01T11:49:23.385Z</time></trkpt><trkpt lat="44.5619346" lon="5.9171108"><ele>896.6666666666667</ele><time>2026-05-01T11:49:24.384Z</time></trkpt><trkpt lat="44.5619334" lon="5.9168893"><ele>896.0</ele><time>2026-05-01T11:49:25.384Z</time></trkpt><trkpt lat="44.5619303" lon="5.9166589"><ele>895.0</ele><time>2026-05-01T11:49:26.385Z</time></trkpt><trkpt lat="44.5619294" lon="5.916424"><ele>894.0</ele><time>2026-05-01T11:49:27.385Z</time></trkpt><trkpt lat="44.5619281" lon="5.9161824"><ele>893.0</ele><time>2026-05-01T11:49:28.384Z</time></trkpt><trkpt lat="44.561927" lon="5.9159366"><ele>892.3333333333334</ele><time>2026-05-01T11:49:29.384Z</time></trkpt><trkpt lat="44.5619293" lon="5.9156923"><ele>891.6666666666667</ele><time>2026-05-01T11:49:30.384Z</time></trkpt><trkpt lat="44.5619317" lon="5.9154455"><ele>891.0</ele><time>2026-05-01T11:49:31.384Z</time></trkpt><trkpt lat="44.5619319" lon="5.9151977"><ele>890.3333333333333</ele><time>2026-05-01T11:49:32.385Z</time></trkpt><trkpt lat="44.5619302" lon="5.9149498"><ele>889.6666666666666</ele><time>2026-05-01T11:49:33.384Z</time></trkpt><trkpt lat="44.5619303" lon="5.9147027"><ele>889.0</ele><time>2026-05-01T11:49:34.384Z</time></trkpt><trkpt lat="44.5619307" lon="5.914453"><ele>888.6666666666666</ele><time>2026-05-01T11:49:35.384Z</time></trkpt><trkpt lat="44.5619311" lon="5.9142039"><ele>888.3333333333333</ele><time>2026-05-01T11:49:36.384Z</time></trkpt><trkpt lat="44.5619308" lon="5.9139563"><ele>888.0</ele><time>2026-05-01T11:49:37.384Z</time></trkpt><trkpt lat="44.5619322" lon="5.913704"><ele>888.0</ele><time>2026-05-01T11:49:38.384Z</time></trkpt><trkpt lat="44.5619343" lon="5.9134456"><ele>888.0</ele><time>2026-05-01T11:49:39.385Z</time></trkpt><trkpt lat="44.5619365" lon="5.9131792"><ele>888.0</ele><time>2026-05-01T11:49:40.384Z</time></trkpt><trkpt lat="44.5619367" lon="5.9129113"><ele>888.0</ele><time>2026-05-01T11:49:41.384Z</time></trkpt><trkpt lat="44.5619381" lon="5.9126398"><ele>888.0</ele><time>2026-05-01T11:49:42.386Z</time></trkpt><trkpt lat="44.561937" lon="5.9123625"><ele>888.0</ele><time>2026-05-01T11:49:43.384Z</time></trkpt><trkpt lat="44.5619382" lon="5.912079"><ele>887.6666666666667</ele><time>2026-05-01T11:49:44.384Z</time></trkpt><trkpt lat="44.5619383" lon="5.9117913"><ele>887.3333333333334</ele><time>2026-05-01T11:49:45.384Z</time></trkpt><trkpt lat="44.5619358" lon="5.911501"><ele>887.0</ele><time>2026-05-01T11:49:46.384Z</time></trkpt><trkpt lat="44.5619357" lon="5.911199"><ele>886.0</ele><time>2026-05-01T11:49:47.384Z</time></trkpt><trkpt lat="44.5619358" lon="5.9108847"><ele>885.0</ele><time>2026-05-01T11:49:48.384Z</time></trkpt><trkpt lat="44.5619364" lon="5.9105575"><ele>885.0</ele><time>2026-05-01T11:49:49.384Z</time></trkpt><trkpt lat="44.5619351" lon="5.910217"><ele>885.0</ele><time>2026-05-01T11:49:50.384Z</time></trkpt><trkpt lat="44.5619357" lon="5.909869"><ele>884.5</ele><time>2026-05-01T11:49:51.384Z</time></trkpt><trkpt lat="44.561937" lon="5.9095098"><ele>884.0</ele><time>2026-05-01T11:49:52.384Z</time></trkpt><trkpt lat="44.5619381" lon="5.9091417"><ele>884.0</ele><time>2026-05-01T11:49:53.384Z</time></trkpt><trkpt lat="44.5619392" lon="5.9087657"><ele>884.0</ele><time>2026-05-01T11:49:54.384Z</time></trkpt><trkpt lat="44.5619397" lon="5.9083802"><ele>883.0</ele><time>2026-05-01T11:49:55.384Z</time></trkpt><trkpt lat="44.5619398" lon="5.9079986"><ele>882.0</ele><time>2026-05-01T11:49:56.384Z</time></trkpt><trkpt lat="44.5619385" lon="5.9076127"><ele>881.5</ele><time>2026-05-01T11:49:57.385Z</time></trkpt><trkpt lat="44.5619383" lon="5.9072249"><ele>881.0</ele><time>2026-05-01T11:49:58.384Z</time></trkpt><trkpt lat="44.5619382" lon="5.9068435"><ele>881.0</ele><time>2026-05-01T11:49:59.384Z</time></trkpt><trkpt lat="44.5619385" lon="5.9064691"><ele>881.0</ele><time>2026-05-01T11:50:00.385Z</time></trkpt><trkpt lat="44.5619386" lon="5.9061027"><ele>881.0</ele><time>2026-05-01T11:50:01.385Z</time></trkpt><trkpt lat="44.561938" lon="5.905743"><ele>881.0</ele><time>2026-05-01T11:50:02.386Z</time></trkpt><trkpt lat="44.5619378" lon="5.9053834"><ele>880.5</ele><time>2026-05-01T11:50:03.385Z</time></trkpt><trkpt lat="44.5619379" lon="5.9050329"><ele>880.0</ele><time>2026-05-01T11:50:04.385Z</time></trkpt><trkpt lat="44.5619374" lon="5.9046918"><ele>880.0</ele><time>2026-05-01T11:50:05.385Z</time></trkpt><trkpt lat="44.5619367" lon="5.9043547"><ele>880.0</ele><time>2026-05-01T11:50:06.384Z</time></trkpt><trkpt lat="44.5619375" lon="5.9040164"><ele>880.0</ele><time>2026-05-01T11:50:07.385Z</time></trkpt><trkpt lat="44.5619381" lon="5.9036794"><ele>880.0</ele><time>2026-05-01T11:50:08.384Z</time></trkpt><trkpt lat="44.5619383" lon="5.9033378"><ele>879.5</ele><time>2026-05-01T11:50:09.384Z</time></trkpt><trkpt lat="44.561939" lon="5.9029949"><ele>879.0</ele><time>2026-05-01T11:50:10.384Z</time></trkpt><trkpt lat="44.5619398" lon="5.902648"><ele>879.0</ele><time>2026-05-01T11:50:11.384Z</time></trkpt><trkpt lat="44.5619408" lon="5.9022975"><ele>879.0</ele><time>2026-05-01T11:50:12.385Z</time></trkpt><trkpt lat="44.5619422" lon="5.9019477"><ele>879.0</ele><time>2026-05-01T11:50:13.384Z</time></trkpt><trkpt lat="44.5619439" lon="5.9015977"><ele>879.0</ele><time>2026-05-01T11:50:14.384Z</time></trkpt><trkpt lat="44.5619447" lon="5.9012462"><ele>878.5</ele><time>2026-05-01T11:50:15.384Z</time></trkpt><trkpt lat="44.561945" lon="5.9009006"><ele>878.0</ele><time>2026-05-01T11:50:16.384Z</time></trkpt><trkpt lat="44.5619442" lon="5.9005611"><ele>878.0</ele><time>2026-05-01T11:50:17.384Z</time></trkpt><trkpt lat="44.5619431" lon="5.9002265"><ele>878.0</ele><time>2026-05-01T11:50:18.384Z</time></trkpt><trkpt lat="44.5619447" lon="5.8998947"><ele>877.5</ele><time>2026-05-01T11:50:19.384Z</time></trkpt><trkpt lat="44.5619459" lon="5.8995629"><ele>877.0</ele><time>2026-05-01T11:50:20.385Z</time></trkpt><trkpt lat="44.5619475" lon="5.8992328"><ele>877.0</ele><time>2026-05-01T11:50:21.384Z</time></trkpt><trkpt lat="44.5619477" lon="5.8989035"><ele>877.0</ele><time>2026-05-01T11:50:22.385Z</time></trkpt><trkpt lat="44.5619465" lon="5.8985751"><ele>879.5</ele><time>2026-05-01T11:50:23.384Z</time></trkpt><trkpt lat="44.5619445" lon="5.8982467"><ele>882.0</ele><time>2026-05-01T11:50:24.385Z</time></trkpt><trkpt lat="44.5619417" lon="5.89792"><ele>882.0</ele><time>2026-05-01T11:50:25.384Z</time></trkpt><trkpt lat="44.5619387" lon="5.8975952"><ele>882.0</ele><time>2026-05-01T11:50:26.385Z</time></trkpt><trkpt lat="44.5619395" lon="5.8972707"><ele>881.5</ele><time>2026-05-01T11:50:27.385Z</time></trkpt><trkpt lat="44.5619408" lon="5.8969489"><ele>881.0</ele><time>2026-05-01T11:50:28.385Z</time></trkpt><trkpt lat="44.5619408" lon="5.8966322"><ele>880.6666666666667</ele><time>2026-05-01T11:50:29.384Z</time></trkpt><trkpt lat="44.5619395" lon="5.8963192"><ele>880.3333333333333</ele><time>2026-05-01T11:50:30.384Z</time></trkpt><trkpt lat="44.5619412" lon="5.8960059"><ele>880.0</ele><time>2026-05-01T11:50:31.385Z</time></trkpt><trkpt lat="44.5619427" lon="5.8956889"><ele>877.5</ele><time>2026-05-01T11:50:32.384Z</time></trkpt><trkpt lat="44.5619442" lon="5.8953678"><ele>875.0</ele><time>2026-05-01T11:50:33.384Z</time></trkpt><trkpt lat="44.561945" lon="5.8950405"><ele>875.0</ele><time>2026-05-01T11:50:34.384Z</time></trkpt><trkpt lat="44.5619432" lon="5.8947084"><ele>875.0</ele><time>2026-05-01T11:50:35.384Z</time></trkpt><trkpt lat="44.5619408" lon="5.8943715"><ele>874.5</ele><time>2026-05-01T11:50:36.384Z</time></trkpt><trkpt lat="44.5619402" lon="5.8940303"><ele>874.0</ele><time>2026-05-01T11:50:37.385Z</time></trkpt><trkpt lat="44.5619392" lon="5.8936858"><ele>873.0</ele><time>2026-05-01T11:50:38.384Z</time></trkpt><trkpt lat="44.5619388" lon="5.8933491"><ele>872.0</ele><time>2026-05-01T11:50:39.384Z</time></trkpt><trkpt lat="44.5619405" lon="5.8930127"><ele>872.0</ele><time>2026-05-01T11:50:40.384Z</time></trkpt><trkpt lat="44.5619405" lon="5.8926807"><ele>872.0</ele><time>2026-05-01T11:50:41.385Z</time></trkpt><trkpt lat="44.5619425" lon="5.8923525"><ele>872.5</ele><time>2026-05-01T11:50:42.384Z</time></trkpt><trkpt lat="44.5619444" lon="5.8920293"><ele>873.0</ele><time>2026-05-01T11:50:43.384Z</time></trkpt><trkpt lat="44.5619442" lon="5.8917124"><ele>873.0</ele><time>2026-05-01T11:50:44.385Z</time></trkpt><trkpt lat="44.5619415" lon="5.8914077"><ele>873.0</ele><time>2026-05-01T11:50:45.384Z</time></trkpt><trkpt lat="44.5619308" lon="5.891115"><ele>873.0</ele><time>2026-05-01T11:50:46.384Z</time></trkpt><trkpt lat="44.5619103" lon="5.890827"><ele>873.0</ele><time>2026-05-01T11:50:47.385Z</time></trkpt><trkpt lat="44.5618793" lon="5.8905459"><ele>873.0</ele><time>2026-05-01T11:50:48.384Z</time></trkpt><trkpt lat="44.5618447" lon="5.890279"><ele>873.0</ele><time>2026-05-01T11:50:49.384Z</time></trkpt><trkpt lat="44.5618047" lon="5.8900175"><ele>873.3333333333333</ele><time>2026-05-01T11:50:50.384Z</time></trkpt><trkpt lat="44.5617565" lon="5.8897618"><ele>873.6666666666666</ele><time>2026-05-01T11:50:51.384Z</time></trkpt><trkpt lat="44.561702" lon="5.8895209"><ele>874.0</ele><time>2026-05-01T11:50:52.385Z</time></trkpt><trkpt lat="44.5616417" lon="5.8892926"><ele>874.3333333333333</ele><time>2026-05-01T11:50:53.384Z</time></trkpt><trkpt lat="44.5615796" lon="5.8890726"><ele>874.6666666666667</ele><time>2026-05-01T11:50:54.384Z</time></trkpt><trkpt lat="44.5615122" lon="5.8888615"><ele>875.0</ele><time>2026-05-01T11:50:55.384Z</time></trkpt><trkpt lat="44.5614409" lon="5.8886597"><ele>875.0</ele><time>2026-05-01T11:50:56.385Z</time></trkpt><trkpt lat="44.5613639" lon="5.8884547"><ele>875.0</ele><time>2026-05-01T11:50:57.384Z</time></trkpt><trkpt lat="44.5612828" lon="5.8882471"><ele>875.0</ele><time>2026-05-01T11:50:58.384Z</time></trkpt><trkpt lat="44.5611999" lon="5.8880363"><ele>875.3333333333334</ele><time>2026-05-01T11:50:59.385Z</time></trkpt><trkpt lat="44.5611164" lon="5.8878253"><ele>875.6666666666667</ele><time>2026-05-01T11:51:00.384Z</time></trkpt><trkpt lat="44.5610315" lon="5.8876133"><ele>876.0</ele><time>2026-05-01T11:51:01.385Z</time></trkpt><trkpt lat="44.5609442" lon="5.8873972"><ele>876.6666666666667</ele><time>2026-05-01T11:51:02.384Z</time></trkpt><trkpt lat="44.5608535" lon="5.8871733"><ele>877.3333333333334</ele><time>2026-05-01T11:51:03.384Z</time></trkpt><trkpt lat="44.5607596" lon="5.8869401"><ele>878.0</ele><time>2026-05-01T11:51:04.384Z</time></trkpt><trkpt lat="44.5606634" lon="5.8866991"><ele>879.0</ele><time>2026-05-01T11:51:05.385Z</time></trkpt><trkpt lat="44.5605645" lon="5.886452"><ele>880.0</ele><time>2026-05-01T11:51:06.384Z</time></trkpt><trkpt lat="44.5604636" lon="5.8862015"><ele>881.0</ele><time>2026-05-01T11:51:07.384Z</time></trkpt><trkpt lat="44.5603603" lon="5.8859425"><ele>880.3333333333334</ele><time>2026-05-01T11:51:08.385Z</time></trkpt><trkpt lat="44.5602559" lon="5.8856778"><ele>879.6666666666667</ele><time>2026-05-01T11:51:09.384Z</time></trkpt><trkpt lat="44.5601484" lon="5.8854117"><ele>879.0</ele><time>2026-05-01T11:51:10.384Z</time></trkpt><trkpt lat="44.5600393" lon="5.8851449"><ele>879.3333333333333</ele><time>2026-05-01T11:51:11.384Z</time></trkpt><trkpt lat="44.5599289" lon="5.8848756"><ele>879.6666666666666</ele><time>2026-05-01T11:51:12.384Z</time></trkpt><trkpt lat="44.5598219" lon="5.8846095"><ele>880.0</ele><time>2026-05-01T11:51:13.385Z</time></trkpt><trkpt lat="44.5597151" lon="5.8843431"><ele>880.3333333333333</ele><time>2026-05-01T11:51:14.384Z</time></trkpt><trkpt lat="44.55961" lon="5.8840809"><ele>880.6666666666667</ele><time>2026-05-01T11:51:15.384Z</time></trkpt><trkpt lat="44.5595065" lon="5.8838204"><ele>881.0</ele><time>2026-05-01T11:51:16.384Z</time></trkpt><trkpt lat="44.5594032" lon="5.8835601"><ele>879.6666666666667</ele><time>2026-05-01T11:51:17.384Z</time></trkpt><trkpt lat="44.5592962" lon="5.8832958"><ele>878.3333333333333</ele><time>2026-05-01T11:51:18.384Z</time></trkpt><trkpt lat="44.5591886" lon="5.8830254"><ele>877.0</ele><time>2026-05-01T11:51:19.384Z</time></trkpt><trkpt lat="44.5590813" lon="5.8827534"><ele>876.0</ele><time>2026-05-01T11:51:20.384Z</time></trkpt><trkpt lat="44.5589734" lon="5.882479"><ele>875.0</ele><time>2026-05-01T11:51:21.384Z</time></trkpt><trkpt lat="44.5588644" lon="5.8822051"><ele>874.0</ele><time>2026-05-01T11:51:22.385Z</time></trkpt><trkpt lat="44.5587528" lon="5.8819273"><ele>871.0</ele><time>2026-05-01T11:51:23.384Z</time></trkpt><trkpt lat="44.5586378" lon="5.8816456"><ele>868.0</ele><time>2026-05-01T11:51:24.385Z</time></trkpt><trkpt lat="44.5585204" lon="5.8813632"><ele>868.0</ele><time>2026-05-01T11:51:25.385Z</time></trkpt><trkpt lat="44.5584051" lon="5.8810781"><ele>868.0</ele><time>2026-05-01T11:51:26.384Z</time></trkpt><trkpt lat="44.558286" lon="5.8807816"><ele>869.0</ele><time>2026-05-01T11:51:27.384Z</time></trkpt><trkpt lat="44.5581651" lon="5.880483"><ele>870.0</ele><time>2026-05-01T11:51:28.385Z</time></trkpt><trkpt lat="44.5580446" lon="5.880184"><ele>868.5</ele><time>2026-05-01T11:51:29.384Z</time></trkpt><trkpt lat="44.5579252" lon="5.879885"><ele>867.0</ele><time>2026-05-01T11:51:30.384Z</time></trkpt><trkpt lat="44.5578055" lon="5.8795859"><ele>865.5</ele><time>2026-05-01T11:51:31.384Z</time></trkpt><trkpt lat="44.5576884" lon="5.8792914"><ele>864.0</ele><time>2026-05-01T11:51:32.384Z</time></trkpt><trkpt lat="44.5575719" lon="5.8790019"><ele>864.0</ele><time>2026-05-01T11:51:33.385Z</time></trkpt><trkpt lat="44.5574564" lon="5.8787148"><ele>864.0</ele><time>2026-05-01T11:51:34.384Z</time></trkpt><trkpt lat="44.5573424" lon="5.8784275"><ele>863.0</ele><time>2026-05-01T11:51:35.384Z</time></trkpt><trkpt lat="44.5572297" lon="5.8781465"><ele>862.0</ele><time>2026-05-01T11:51:36.384Z</time></trkpt><trkpt lat="44.5571167" lon="5.8778705"><ele>861.6666666666666</ele><time>2026-05-01T11:51:37.384Z</time></trkpt><trkpt lat="44.5570069" lon="5.8775982"><ele>861.3333333333333</ele><time>2026-05-01T11:51:38.384Z</time></trkpt><trkpt lat="44.5568965" lon="5.877327"><ele>861.0</ele><time>2026-05-01T11:51:39.384Z</time></trkpt><trkpt lat="44.5567858" lon="5.8770518"><ele>861.0</ele><time>2026-05-01T11:51:40.384Z</time></trkpt><trkpt lat="44.5566736" lon="5.8767736"><ele>861.0</ele><time>2026-05-01T11:51:41.384Z</time></trkpt><trkpt lat="44.5565611" lon="5.8764942"><ele>861.0</ele><time>2026-05-01T11:51:42.384Z</time></trkpt><trkpt lat="44.5564484" lon="5.8762138"><ele>861.0</ele><time>2026-05-01T11:51:43.384Z</time></trkpt><trkpt lat="44.5563344" lon="5.8759313"><ele>861.0</ele><time>2026-05-01T11:51:44.384Z</time></trkpt><trkpt lat="44.55622" lon="5.875648"><ele>861.0</ele><time>2026-05-01T11:51:45.385Z</time></trkpt><trkpt lat="44.556106" lon="5.8753632"><ele>860.0</ele><time>2026-05-01T11:51:46.385Z</time></trkpt><trkpt lat="44.5559898" lon="5.8750808"><ele>859.0</ele><time>2026-05-01T11:51:47.385Z</time></trkpt><trkpt lat="44.5558755" lon="5.8748017"><ele>859.0</ele><time>2026-05-01T11:51:48.384Z</time></trkpt><trkpt lat="44.555763" lon="5.8745253"><ele>859.0</ele><time>2026-05-01T11:51:49.384Z</time></trkpt><trkpt lat="44.5556534" lon="5.8742526"><ele>858.6666666666666</ele><time>2026-05-01T11:51:50.384Z</time></trkpt><trkpt lat="44.5555452" lon="5.8739842"><ele>858.3333333333333</ele><time>2026-05-01T11:51:51.384Z</time></trkpt><trkpt lat="44.5554384" lon="5.8737162"><ele>858.0</ele><time>2026-05-01T11:51:52.384Z</time></trkpt><trkpt lat="44.5553298" lon="5.8734457"><ele>858.0</ele><time>2026-05-01T11:51:53.386Z</time></trkpt><trkpt lat="44.5552201" lon="5.873171"><ele>858.0</ele><time>2026-05-01T11:51:54.384Z</time></trkpt><trkpt lat="44.5551099" lon="5.8728916"><ele>858.0</ele><time>2026-05-01T11:51:55.385Z</time></trkpt><trkpt lat="44.5549989" lon="5.8726099"><ele>858.0</ele><time>2026-05-01T11:51:56.384Z</time></trkpt><trkpt lat="44.5548862" lon="5.8723243"><ele>857.5</ele><time>2026-05-01T11:51:57.384Z</time></trkpt><trkpt lat="44.5547717" lon="5.8720347"><ele>857.0</ele><time>2026-05-01T11:51:58.384Z</time></trkpt><trkpt lat="44.5546553" lon="5.8717431"><ele>857.0</ele><time>2026-05-01T11:51:59.384Z</time></trkpt><trkpt lat="44.5545376" lon="5.8714488"><ele>857.0</ele><time>2026-05-01T11:52:00.385Z</time></trkpt><trkpt lat="44.554419" lon="5.8711511"><ele>856.0</ele><time>2026-05-01T11:52:01.385Z</time></trkpt><trkpt lat="44.5542996" lon="5.8708516"><ele>855.0</ele><time>2026-05-01T11:52:02.384Z</time></trkpt><trkpt lat="44.5541802" lon="5.8705499"><ele>855.0</ele><time>2026-05-01T11:52:03.384Z</time></trkpt><trkpt lat="44.5540587" lon="5.8702477"><ele>855.0</ele><time>2026-05-01T11:52:04.384Z</time></trkpt><trkpt lat="44.5539366" lon="5.8699426"><ele>855.0</ele><time>2026-05-01T11:52:05.384Z</time></trkpt><trkpt lat="44.5538139" lon="5.8696377"><ele>855.0</ele><time>2026-05-01T11:52:06.384Z</time></trkpt><trkpt lat="44.5536906" lon="5.8693309"><ele>855.0</ele><time>2026-05-01T11:52:07.384Z</time></trkpt><trkpt lat="44.5535672" lon="5.8690232"><ele>855.0</ele><time>2026-05-01T11:52:08.384Z</time></trkpt><trkpt lat="44.5534441" lon="5.8687176"><ele>855.0</ele><time>2026-05-01T11:52:09.384Z</time></trkpt><trkpt lat="44.5533219" lon="5.8684136"><ele>855.0</ele><time>2026-05-01T11:52:10.384Z</time></trkpt><trkpt lat="44.5531982" lon="5.8681134"><ele>855.0</ele><time>2026-05-01T11:52:11.385Z</time></trkpt><trkpt lat="44.5530777" lon="5.867818"><ele>855.0</ele><time>2026-05-01T11:52:12.384Z</time></trkpt><trkpt lat="44.5529599" lon="5.8675256"><ele>854.5</ele><time>2026-05-01T11:52:13.385Z</time></trkpt><trkpt lat="44.5528424" lon="5.8672358"><ele>854.0</ele><time>2026-05-01T11:52:14.384Z</time></trkpt><trkpt lat="44.5527259" lon="5.8669507"><ele>855.0</ele><time>2026-05-01T11:52:15.385Z</time></trkpt><trkpt lat="44.5526128" lon="5.8666673"><ele>856.0</ele><time>2026-05-01T11:52:16.384Z</time></trkpt><trkpt lat="44.5525014" lon="5.8663861"><ele>856.0</ele><time>2026-05-01T11:52:17.384Z</time></trkpt><trkpt lat="44.5523924" lon="5.8661001"><ele>856.0</ele><time>2026-05-01T11:52:18.384Z</time></trkpt><trkpt lat="44.5522862" lon="5.8658115"><ele>857.0</ele><time>2026-05-01T11:52:19.384Z</time></trkpt><trkpt lat="44.5521777" lon="5.8655179"><ele>858.0</ele><time>2026-05-01T11:52:20.385Z</time></trkpt><trkpt lat="44.5520653" lon="5.8652249"><ele>857.5</ele><time>2026-05-01T11:52:21.384Z</time></trkpt><trkpt lat="44.5519526" lon="5.8649278"><ele>857.0</ele><time>2026-05-01T11:52:22.385Z</time></trkpt><trkpt lat="44.5518361" lon="5.8646259"><ele>857.0</ele><time>2026-05-01T11:52:23.386Z</time></trkpt><trkpt lat="44.5517185" lon="5.8643245"><ele>857.0</ele><time>2026-05-01T11:52:24.384Z</time></trkpt><trkpt lat="44.5515988" lon="5.8640234"><ele>857.5</ele><time>2026-05-01T11:52:25.384Z</time></trkpt><trkpt lat="44.5514762" lon="5.8637251"><ele>858.0</ele><time>2026-05-01T11:52:26.385Z</time></trkpt><trkpt lat="44.5513518" lon="5.8634288"><ele>858.0</ele><time>2026-05-01T11:52:27.384Z</time></trkpt><trkpt lat="44.5512277" lon="5.863133"><ele>858.0</ele><time>2026-05-01T11:52:28.384Z</time></trkpt><trkpt lat="44.5511045" lon="5.8628365"><ele>856.5</ele><time>2026-05-01T11:52:29.384Z</time></trkpt><trkpt lat="44.5509816" lon="5.8625413"><ele>855.0</ele><time>2026-05-01T11:52:30.384Z</time></trkpt><trkpt lat="44.5508587" lon="5.8622413"><ele>855.0</ele><time>2026-05-01T11:52:31.384Z</time></trkpt><trkpt lat="44.550733" lon="5.8619378"><ele>855.0</ele><time>2026-05-01T11:52:32.384Z</time></trkpt><trkpt lat="44.550605" lon="5.8616314"><ele>855.0</ele><time>2026-05-01T11:52:33.384Z</time></trkpt><trkpt lat="44.5504819" lon="5.8613336"><ele>855.0</ele><time>2026-05-01T11:52:34.384Z</time></trkpt><trkpt lat="44.550359" lon="5.8610314"><ele>854.5</ele><time>2026-05-01T11:52:35.384Z</time></trkpt><trkpt lat="44.5502278" lon="5.8607146"><ele>854.0</ele><time>2026-05-01T11:52:36.385Z</time></trkpt><trkpt lat="44.5500911" lon="5.8603861"><ele>854.5</ele><time>2026-05-01T11:52:37.384Z</time></trkpt><trkpt lat="44.5499495" lon="5.8600451"><ele>855.0</ele><time>2026-05-01T11:52:38.384Z</time></trkpt><trkpt lat="44.5498086" lon="5.8596971"><ele>855.0</ele><time>2026-05-01T11:52:39.384Z</time></trkpt><trkpt lat="44.5496691" lon="5.8593545"><ele>855.0</ele><time>2026-05-01T11:52:40.384Z</time></trkpt><trkpt lat="44.5495358" lon="5.8590241"><ele>853.5</ele><time>2026-05-01T11:52:41.384Z</time></trkpt><trkpt lat="44.5494101" lon="5.8587004"><ele>852.0</ele><time>2026-05-01T11:52:42.385Z</time></trkpt><trkpt lat="44.5492925" lon="5.8583859"><ele>852.0</ele><time>2026-05-01T11:52:43.384Z</time></trkpt><trkpt lat="44.5491788" lon="5.8580822"><ele>852.0</ele><time>2026-05-01T11:52:44.384Z</time></trkpt><trkpt lat="44.5490654" lon="5.8577916"><ele>853.0</ele><time>2026-05-01T11:52:45.384Z</time></trkpt><trkpt lat="44.5489542" lon="5.8575107"><ele>854.0</ele><time>2026-05-01T11:52:46.385Z</time></trkpt><trkpt lat="44.5488461" lon="5.8572398"><ele>854.0</ele><time>2026-05-01T11:52:47.385Z</time></trkpt><trkpt lat="44.5487416" lon="5.8569814"><ele>854.0</ele><time>2026-05-01T11:52:48.384Z</time></trkpt><trkpt lat="44.5486433" lon="5.8567394"><ele>854.0</ele><time>2026-05-01T11:52:49.384Z</time></trkpt><trkpt lat="44.5485516" lon="5.8565091"><ele>853.6666666666667</ele><time>2026-05-01T11:52:50.384Z</time></trkpt><trkpt lat="44.548459" lon="5.8562809"><ele>853.3333333333333</ele><time>2026-05-01T11:52:51.384Z</time></trkpt><trkpt lat="44.5483645" lon="5.8560488"><ele>853.0</ele><time>2026-05-01T11:52:52.384Z</time></trkpt><trkpt lat="44.5482652" lon="5.8558179"><ele>852.6666666666666</ele><time>2026-05-01T11:52:53.384Z</time></trkpt><trkpt lat="44.5481636" lon="5.8555823"><ele>852.3333333333333</ele><time>2026-05-01T11:52:54.384Z</time></trkpt><trkpt lat="44.548058" lon="5.8553428"><ele>852.0</ele><time>2026-05-01T11:52:55.385Z</time></trkpt><trkpt lat="44.5479469" lon="5.8551003"><ele>852.0</ele><time>2026-05-01T11:52:56.384Z</time></trkpt><trkpt lat="44.5478334" lon="5.8548532"><ele>852.0</ele><time>2026-05-01T11:52:57.384Z</time></trkpt><trkpt lat="44.5477175" lon="5.8545998"><ele>852.0</ele><time>2026-05-01T11:52:58.384Z</time></trkpt><trkpt lat="44.5475957" lon="5.854341"><ele>852.6666666666667</ele><time>2026-05-01T11:52:59.384Z</time></trkpt><trkpt lat="44.5474697" lon="5.854083"><ele>853.3333333333334</ele><time>2026-05-01T11:53:00.384Z</time></trkpt><trkpt lat="44.5473404" lon="5.8538287"><ele>854.0</ele><time>2026-05-01T11:53:01.384Z</time></trkpt><trkpt lat="44.5472081" lon="5.853577"><ele>852.6666666666667</ele><time>2026-05-01T11:53:02.384Z</time></trkpt><trkpt lat="44.5470746" lon="5.8533255"><ele>851.3333333333333</ele><time>2026-05-01T11:53:03.384Z</time></trkpt><trkpt lat="44.5469421" lon="5.8530724"><ele>850.0</ele><time>2026-05-01T11:53:04.384Z</time></trkpt><trkpt lat="44.546808" lon="5.8528213"><ele>852.0</ele><time>2026-05-01T11:53:05.384Z</time></trkpt><trkpt lat="44.546673" lon="5.8525665"><ele>854.0</ele><time>2026-05-01T11:53:06.384Z</time></trkpt><trkpt lat="44.5465412" lon="5.8523125"><ele>854.0</ele><time>2026-05-01T11:53:07.385Z</time></trkpt><trkpt lat="44.5464139" lon="5.8520608"><ele>854.0</ele><time>2026-05-01T11:53:08.384Z</time></trkpt><trkpt lat="44.5462893" lon="5.8518186"><ele>854.0</ele><time>2026-05-01T11:53:09.384Z</time></trkpt><trkpt lat="44.5461617" lon="5.8515756"><ele>851.6666666666667</ele><time>2026-05-01T11:53:10.384Z</time></trkpt><trkpt lat="44.5460369" lon="5.8513359"><ele>849.3333333333333</ele><time>2026-05-01T11:53:11.385Z</time></trkpt><trkpt lat="44.5459129" lon="5.8511009"><ele>847.0</ele><time>2026-05-01T11:53:12.384Z</time></trkpt><trkpt lat="44.5457921" lon="5.8508698"><ele>847.0</ele><time>2026-05-01T11:53:13.384Z</time></trkpt><trkpt lat="44.5456735" lon="5.8506439"><ele>847.0</ele><time>2026-05-01T11:53:14.386Z</time></trkpt><trkpt lat="44.5455566" lon="5.8504142"><ele>847.0</ele><time>2026-05-01T11:53:15.384Z</time></trkpt><trkpt lat="44.5454356" lon="5.8501815"><ele>846.0</ele><time>2026-05-01T11:53:16.384Z</time></trkpt><trkpt lat="44.5453098" lon="5.8499372"><ele>845.0</ele><time>2026-05-01T11:53:17.385Z</time></trkpt><trkpt lat="44.5451781" lon="5.8496851"><ele>844.0</ele><time>2026-05-01T11:53:18.384Z</time></trkpt><trkpt lat="44.5450388" lon="5.8494232"><ele>844.5</ele><time>2026-05-01T11:53:19.385Z</time></trkpt><trkpt lat="44.5448941" lon="5.8491509"><ele>845.0</ele><time>2026-05-01T11:53:20.384Z</time></trkpt><trkpt lat="44.5447471" lon="5.8488731"><ele>845.0</ele><time>2026-05-01T11:53:21.385Z</time></trkpt><trkpt lat="44.5445965" lon="5.848588"><ele>845.0</ele><time>2026-05-01T11:53:22.384Z</time></trkpt><trkpt lat="44.5444451" lon="5.8482942"><ele>844.5</ele><time>2026-05-01T11:53:23.384Z</time></trkpt><trkpt lat="44.5442939" lon="5.8480021"><ele>844.0</ele><time>2026-05-01T11:53:24.384Z</time></trkpt><trkpt lat="44.5441459" lon="5.8477146"><ele>845.0</ele><time>2026-05-01T11:53:25.384Z</time></trkpt><trkpt lat="44.5440054" lon="5.8474383"><ele>846.0</ele><time>2026-05-01T11:53:26.385Z</time></trkpt><trkpt lat="44.5438756" lon="5.8471819"><ele>846.0</ele><time>2026-05-01T11:53:27.384Z</time></trkpt><trkpt lat="44.5437583" lon="5.846947"><ele>846.0</ele><time>2026-05-01T11:53:28.384Z</time></trkpt><trkpt lat="44.5436482" lon="5.84673"><ele>846.0</ele><time>2026-05-01T11:53:29.384Z</time></trkpt><trkpt lat="44.5435469" lon="5.8465341"><ele>845.75</ele><time>2026-05-01T11:53:30.385Z</time></trkpt><trkpt lat="44.5434591" lon="5.8463679"><ele>845.5</ele><time>2026-05-01T11:53:31.384Z</time></trkpt><trkpt lat="44.5433846" lon="5.8462252"><ele>845.25</ele><time>2026-05-01T11:53:32.384Z</time></trkpt><trkpt lat="44.5433177" lon="5.8461012"><ele>845.0</ele><time>2026-05-01T11:53:33.385Z</time></trkpt><trkpt lat="44.5432506" lon="5.8459814"><ele>845.8</ele><time>2026-05-01T11:53:34.384Z</time></trkpt><trkpt lat="44.5431819" lon="5.8458606"><ele>846.6</ele><time>2026-05-01T11:53:35.384Z</time></trkpt><trkpt lat="44.5431169" lon="5.8457372"><ele>847.4000000000001</ele><time>2026-05-01T11:53:36.384Z</time></trkpt><trkpt lat="44.5430497" lon="5.8456136"><ele>848.2</ele><time>2026-05-01T11:53:37.384Z</time></trkpt><trkpt lat="44.5429809" lon="5.8454919"><ele>849.0</ele><time>2026-05-01T11:53:38.384Z</time></trkpt><trkpt lat="44.5429139" lon="5.8453718"><ele>848.8000000000001</ele><time>2026-05-01T11:53:39.384Z</time></trkpt><trkpt lat="44.5428473" lon="5.8452569"><ele>848.6</ele><time>2026-05-01T11:53:40.384Z</time></trkpt><trkpt lat="44.5427845" lon="5.8451455"><ele>848.4</ele><time>2026-05-01T11:53:41.384Z</time></trkpt><trkpt lat="44.5427253" lon="5.8450324"><ele>848.2</ele><time>2026-05-01T11:53:42.385Z</time></trkpt><trkpt lat="44.5426592" lon="5.8449024"><ele>848.0</ele><time>2026-05-01T11:53:44.106Z</time></trkpt><trkpt lat="44.542556" lon="5.8447031"><ele>848.0</ele><time>2026-05-01T11:53:45.383Z</time></trkpt><trkpt lat="44.5424912" lon="5.8445783"><ele>848.0</ele><time>2026-05-01T11:53:46.383Z</time></trkpt><trkpt lat="44.5424238" lon="5.844444"><ele>848.0</ele><time>2026-05-01T11:53:47.383Z</time></trkpt><trkpt lat="44.5423507" lon="5.8442998"><ele>848.0</ele><time>2026-05-01T11:53:48.384Z</time></trkpt><trkpt lat="44.5422706" lon="5.8441445"><ele>848.6666666666667</ele><time>2026-05-01T11:53:49.383Z</time></trkpt><trkpt lat="44.5421873" lon="5.843979"><ele>849.3333333333333</ele><time>2026-05-01T11:53:50.383Z</time></trkpt><trkpt lat="44.5420969" lon="5.8438058"><ele>850.0</ele><time>2026-05-01T11:53:51.384Z</time></trkpt><trkpt lat="44.5420047" lon="5.8436264"><ele>848.6666666666666</ele><time>2026-05-01T11:53:52.383Z</time></trkpt><trkpt lat="44.5419101" lon="5.8434397"><ele>847.3333333333333</ele><time>2026-05-01T11:53:53.383Z</time></trkpt><trkpt lat="44.541814" lon="5.8432551"><ele>846.0</ele><time>2026-05-01T11:53:54.384Z</time></trkpt><trkpt lat="44.5417192" lon="5.8430722"><ele>846.0</ele><time>2026-05-01T11:53:55.383Z</time></trkpt><trkpt lat="44.5416231" lon="5.8428934"><ele>846.0</ele><time>2026-05-01T11:53:56.384Z</time></trkpt><trkpt lat="44.5415315" lon="5.8427236"><ele>846.0</ele><time>2026-05-01T11:53:57.383Z</time></trkpt><trkpt lat="44.5414432" lon="5.8425581"><ele>845.75</ele><time>2026-05-01T11:53:58.383Z</time></trkpt><trkpt lat="44.5413596" lon="5.8423908"><ele>845.5</ele><time>2026-05-01T11:53:59.383Z</time></trkpt><trkpt lat="44.5412782" lon="5.8422303"><ele>845.25</ele><time>2026-05-01T11:54:00.383Z</time></trkpt><trkpt lat="44.5411953" lon="5.8420707"><ele>845.0</ele><time>2026-05-01T11:54:01.383Z</time></trkpt><trkpt lat="44.54111" lon="5.8419091"><ele>845.3333333333334</ele><time>2026-05-01T11:54:02.383Z</time></trkpt><trkpt lat="44.5410235" lon="5.8417457"><ele>845.6666666666667</ele><time>2026-05-01T11:54:03.384Z</time></trkpt><trkpt lat="44.5409338" lon="5.8415697"><ele>846.0</ele><time>2026-05-01T11:54:04.383Z</time></trkpt><trkpt lat="44.5408383" lon="5.8413884"><ele>846.0</ele><time>2026-05-01T11:54:05.383Z</time></trkpt><trkpt lat="44.5407398" lon="5.8412008"><ele>846.0</ele><time>2026-05-01T11:54:06.383Z</time></trkpt><trkpt lat="44.5406445" lon="5.841019"><ele>846.0</ele><time>2026-05-01T11:54:07.383Z</time></trkpt><trkpt lat="44.5405498" lon="5.8408386"><ele>845.6666666666667</ele><time>2026-05-01T11:54:08.383Z</time></trkpt><trkpt lat="44.5404564" lon="5.8406623"><ele>845.3333333333334</ele><time>2026-05-01T11:54:09.383Z</time></trkpt><trkpt lat="44.5403678" lon="5.8404852"><ele>845.0</ele><time>2026-05-01T11:54:10.383Z</time></trkpt><trkpt lat="44.5402786" lon="5.840314"><ele>844.0</ele><time>2026-05-01T11:54:11.384Z</time></trkpt><trkpt lat="44.5401912" lon="5.8401426"><ele>843.0</ele><time>2026-05-01T11:54:12.383Z</time></trkpt><trkpt lat="44.5401047" lon="5.8399754"><ele>842.0</ele><time>2026-05-01T11:54:13.383Z</time></trkpt><trkpt lat="44.5400193" lon="5.8398133"><ele>841.0</ele><time>2026-05-01T11:54:14.383Z</time></trkpt><trkpt lat="44.5399377" lon="5.8396585"><ele>840.0</ele><time>2026-05-01T11:54:15.383Z</time></trkpt><trkpt lat="44.5398576" lon="5.8395039"><ele>839.0</ele><time>2026-05-01T11:54:16.383Z</time></trkpt><trkpt lat="44.5397798" lon="5.8393514"><ele>838.0</ele><time>2026-05-01T11:54:17.383Z</time></trkpt><trkpt lat="44.5397012" lon="5.8392016"><ele>837.0</ele><time>2026-05-01T11:54:18.383Z</time></trkpt><trkpt lat="44.5396277" lon="5.8390498"><ele>836.75</ele><time>2026-05-01T11:54:19.383Z</time></trkpt><trkpt lat="44.5395538" lon="5.8389061"><ele>836.5</ele><time>2026-05-01T11:54:20.383Z</time></trkpt><trkpt lat="44.5394835" lon="5.8387712"><ele>836.25</ele><time>2026-05-01T11:54:21.384Z</time></trkpt><trkpt lat="44.5394178" lon="5.8386481"><ele>836.0</ele><time>2026-05-01T11:54:22.383Z</time></trkpt><trkpt lat="44.5393547" lon="5.8385282"><ele>834.1999999999999</ele><time>2026-05-01T11:54:23.384Z</time></trkpt><trkpt lat="44.5392929" lon="5.83841"><ele>832.4</ele><time>2026-05-01T11:54:24.383Z</time></trkpt><trkpt lat="44.5392338" lon="5.8382984"><ele>830.6</ele><time>2026-05-01T11:54:25.383Z</time></trkpt><trkpt lat="44.5391766" lon="5.8381929"><ele>828.8</ele><time>2026-05-01T11:54:26.383Z</time></trkpt><trkpt lat="44.539121" lon="5.8380845"><ele>827.0</ele><time>2026-05-01T11:54:27.383Z</time></trkpt><trkpt lat="44.5390639" lon="5.8379723"><ele>827.0</ele><time>2026-05-01T11:54:28.383Z</time></trkpt><trkpt lat="44.5390019" lon="5.837859"><ele>827.0</ele><time>2026-05-01T11:54:29.383Z</time></trkpt><trkpt lat="44.5389381" lon="5.8377416"><ele>827.0</ele><time>2026-05-01T11:54:30.383Z</time></trkpt><trkpt lat="44.5388716" lon="5.83762"><ele>827.0</ele><time>2026-05-01T11:54:31.383Z</time></trkpt><trkpt lat="44.5388038" lon="5.8374906"><ele>827.0</ele><time>2026-05-01T11:54:32.383Z</time></trkpt><trkpt lat="44.5387323" lon="5.8373535"><ele>826.25</ele><time>2026-05-01T11:54:33.383Z</time></trkpt><trkpt lat="44.5386573" lon="5.8372074"><ele>825.5</ele><time>2026-05-01T11:54:34.383Z</time></trkpt><trkpt lat="44.5385792" lon="5.837056"><ele>824.75</ele><time>2026-05-01T11:54:35.383Z</time></trkpt><trkpt lat="44.5384993" lon="5.8368982"><ele>824.0</ele><time>2026-05-01T11:54:36.383Z</time></trkpt><trkpt lat="44.538419" lon="5.8367386"><ele>824.0</ele><time>2026-05-01T11:54:37.383Z</time></trkpt><trkpt lat="44.5383356" lon="5.8365802"><ele>824.0</ele><time>2026-05-01T11:54:38.383Z</time></trkpt><trkpt lat="44.5382575" lon="5.8364282"><ele>824.0</ele><time>2026-05-01T11:54:39.384Z</time></trkpt><trkpt lat="44.5381848" lon="5.8362889"><ele>824.0</ele><time>2026-05-01T11:54:40.383Z</time></trkpt><trkpt lat="44.5381167" lon="5.8361586"><ele>824.0</ele><time>2026-05-01T11:54:41.383Z</time></trkpt><trkpt lat="44.5380506" lon="5.8360331"><ele>824.0</ele><time>2026-05-01T11:54:42.383Z</time></trkpt><trkpt lat="44.537984" lon="5.8359036"><ele>824.0</ele><time>2026-05-01T11:54:43.384Z</time></trkpt><trkpt lat="44.5379151" lon="5.8357682"><ele>824.0</ele><time>2026-05-01T11:54:44.383Z</time></trkpt><trkpt lat="44.5378432" lon="5.8356284"><ele>823.75</ele><time>2026-05-01T11:54:45.383Z</time></trkpt><trkpt lat="44.5377708" lon="5.8354844"><ele>823.5</ele><time>2026-05-01T11:54:46.384Z</time></trkpt><trkpt lat="44.5376984" lon="5.8353342"><ele>823.25</ele><time>2026-05-01T11:54:47.384Z</time></trkpt><trkpt lat="44.5376248" lon="5.8351791"><ele>823.0</ele><time>2026-05-01T11:54:48.383Z</time></trkpt><trkpt lat="44.5375577" lon="5.8350089"><ele>823.0</ele><time>2026-05-01T11:54:49.383Z</time></trkpt><trkpt lat="44.5374977" lon="5.8348369"><ele>823.0</ele><time>2026-05-01T11:54:50.383Z</time></trkpt><trkpt lat="44.5374453" lon="5.8346608"><ele>823.0</ele><time>2026-05-01T11:54:51.383Z</time></trkpt><trkpt lat="44.5373957" lon="5.8344853"><ele>823.0</ele><time>2026-05-01T11:54:52.383Z</time></trkpt><trkpt lat="44.5373501" lon="5.834309"><ele>823.0</ele><time>2026-05-01T11:54:53.384Z</time></trkpt><trkpt lat="44.5373052" lon="5.8341334"><ele>823.0</ele><time>2026-05-01T11:54:54.383Z</time></trkpt><trkpt lat="44.5372604" lon="5.8339596"><ele>823.0</ele><time>2026-05-01T11:54:55.384Z</time></trkpt><trkpt lat="44.5372174" lon="5.8337965"><ele>823.0</ele><time>2026-05-01T11:54:56.383Z</time></trkpt><trkpt lat="44.5371754" lon="5.8336439"><ele>823.0</ele><time>2026-05-01T11:54:57.383Z</time></trkpt><trkpt lat="44.5371379" lon="5.8334967"><ele>823.0</ele><time>2026-05-01T11:54:58.384Z</time></trkpt><trkpt lat="44.5371019" lon="5.8333557"><ele>823.0</ele><time>2026-05-01T11:54:59.383Z</time></trkpt><trkpt lat="44.5370665" lon="5.8332215"><ele>823.0</ele><time>2026-05-01T11:55:00.383Z</time></trkpt><trkpt lat="44.5370316" lon="5.8330911"><ele>823.0</ele><time>2026-05-01T11:55:01.383Z</time></trkpt><trkpt lat="44.5369985" lon="5.8329646"><ele>822.5999999999999</ele><time>2026-05-01T11:55:02.384Z</time></trkpt><trkpt lat="44.5369647" lon="5.8328348"><ele>822.1999999999999</ele><time>2026-05-01T11:55:03.383Z</time></trkpt><trkpt lat="44.53693" lon="5.8327005"><ele>821.8</ele><time>2026-05-01T11:55:04.384Z</time></trkpt><trkpt lat="44.5368925" lon="5.8325616"><ele>821.4</ele><time>2026-05-01T11:55:05.383Z</time></trkpt><trkpt lat="44.536856" lon="5.8324188"><ele>821.0</ele><time>2026-05-01T11:55:06.383Z</time></trkpt><trkpt lat="44.5368173" lon="5.8322695"><ele>821.0</ele><time>2026-05-01T11:55:07.383Z</time></trkpt><trkpt lat="44.5367776" lon="5.8321148"><ele>821.0</ele><time>2026-05-01T11:55:08.383Z</time></trkpt><trkpt lat="44.5367375" lon="5.8319501"><ele>821.0</ele><time>2026-05-01T11:55:09.383Z</time></trkpt><trkpt lat="44.5366954" lon="5.8317848"><ele>821.0</ele><time>2026-05-01T11:55:10.383Z</time></trkpt><trkpt lat="44.5366543" lon="5.8316152"><ele>821.75</ele><time>2026-05-01T11:55:11.383Z</time></trkpt><trkpt lat="44.536609" lon="5.831443"><ele>822.5</ele><time>2026-05-01T11:55:12.385Z</time></trkpt><trkpt lat="44.5365604" lon="5.8312699"><ele>823.25</ele><time>2026-05-01T11:55:13.383Z</time></trkpt><trkpt lat="44.5365135" lon="5.8310952"><ele>824.0</ele><time>2026-05-01T11:55:14.384Z</time></trkpt><trkpt lat="44.5364715" lon="5.830926"><ele>825.5</ele><time>2026-05-01T11:55:15.383Z</time></trkpt><trkpt lat="44.5364291" lon="5.8307557"><ele>827.0</ele><time>2026-05-01T11:55:16.384Z</time></trkpt><trkpt lat="44.5363872" lon="5.8305869"><ele>828.5</ele><time>2026-05-01T11:55:17.383Z</time></trkpt><trkpt lat="44.5363484" lon="5.8304258"><ele>830.0</ele><time>2026-05-01T11:55:18.383Z</time></trkpt><trkpt lat="44.5363102" lon="5.8302833"><ele>830.0000000000001</ele><time>2026-05-01T11:55:19.384Z</time></trkpt><trkpt lat="44.5362784" lon="5.8301617"><ele>830.0</ele><time>2026-05-01T11:55:20.385Z</time></trkpt><trkpt lat="44.5362521" lon="5.8300564"><ele>830.0</ele><time>2026-05-01T11:55:21.383Z</time></trkpt><trkpt lat="44.5362252" lon="5.8299611"><ele>830.0</ele><time>2026-05-01T11:55:22.383Z</time></trkpt><trkpt lat="44.5361938" lon="5.8298705"><ele>830.0000000000001</ele><time>2026-05-01T11:55:23.383Z</time></trkpt><trkpt lat="44.5361574" lon="5.82978"><ele>830.0</ele><time>2026-05-01T11:55:24.383Z</time></trkpt><trkpt lat="44.5361133" lon="5.8296815"><ele>829.5000000000001</ele><time>2026-05-01T11:55:25.383Z</time></trkpt><trkpt lat="44.5360608" lon="5.8295872"><ele>829.0</ele><time>2026-05-01T11:55:26.383Z</time></trkpt><trkpt lat="44.5359985" lon="5.8294992"><ele>828.5</ele><time>2026-05-01T11:55:27.383Z</time></trkpt><trkpt lat="44.5359372" lon="5.8294109"><ele>828.0</ele><time>2026-05-01T11:55:28.383Z</time></trkpt><trkpt lat="44.5358772" lon="5.8293211"><ele>827.5000000000001</ele><time>2026-05-01T11:55:29.384Z</time></trkpt><trkpt lat="44.5358147" lon="5.8292323"><ele>827.0</ele><time>2026-05-01T11:55:30.383Z</time></trkpt><trkpt lat="44.5357572" lon="5.8291388"><ele>827.0000000000001</ele><time>2026-05-01T11:55:31.383Z</time></trkpt><trkpt lat="44.5357" lon="5.8290458"><ele>827.0</ele><time>2026-05-01T11:55:32.384Z</time></trkpt><trkpt lat="44.5356459" lon="5.8289631"><ele>827.0</ele><time>2026-05-01T11:55:33.383Z</time></trkpt><trkpt lat="44.5356" lon="5.8288901"><ele>827.0</ele><time>2026-05-01T11:55:34.383Z</time></trkpt><trkpt lat="44.5355593" lon="5.8288218"><ele>827.0000000000001</ele><time>2026-05-01T11:55:35.383Z</time></trkpt><trkpt lat="44.5354887" lon="5.8286907"><ele>827.0</ele><time>2026-05-01T11:55:37.384Z</time></trkpt><trkpt lat="44.5354202" lon="5.8285513"><ele>826.8333333333334</ele><time>2026-05-01T11:55:39.383Z</time></trkpt><trkpt lat="44.5353452" lon="5.8284008"><ele>826.6666666666667</ele><time>2026-05-01T11:55:41.383Z</time></trkpt><trkpt lat="44.5353042" lon="5.8283144"><ele>826.5</ele><time>2026-05-01T11:55:42.383Z</time></trkpt><trkpt lat="44.5352634" lon="5.8282289"><ele>826.3333333333333</ele><time>2026-05-01T11:55:43.383Z</time></trkpt><trkpt lat="44.5352215" lon="5.8281461"><ele>826.1666666666666</ele><time>2026-05-01T11:55:44.383Z</time></trkpt><trkpt lat="44.5351811" lon="5.8280608"><ele>826.0</ele><time>2026-05-01T11:55:45.383Z</time></trkpt><trkpt lat="44.5351372" lon="5.8279671"><ele>825.9999999999999</ele><time>2026-05-01T11:55:46.384Z</time></trkpt><trkpt lat="44.5350893" lon="5.8278652"><ele>826.0</ele><time>2026-05-01T11:55:47.384Z</time></trkpt><trkpt lat="44.5350401" lon="5.8277665"><ele>826.0</ele><time>2026-05-01T11:55:48.383Z</time></trkpt><trkpt lat="44.5349917" lon="5.8276674"><ele>826.0</ele><time>2026-05-01T11:55:49.384Z</time></trkpt><trkpt lat="44.5349441" lon="5.8275673"><ele>825.9999999999999</ele><time>2026-05-01T11:55:50.383Z</time></trkpt><trkpt lat="44.5348988" lon="5.8274663"><ele>826.0</ele><time>2026-05-01T11:55:51.383Z</time></trkpt><trkpt lat="44.5348532" lon="5.8273664"><ele>825.9999999999999</ele><time>2026-05-01T11:55:52.383Z</time></trkpt><trkpt lat="44.5348133" lon="5.8272633"><ele>826.0</ele><time>2026-05-01T11:55:53.384Z</time></trkpt><trkpt lat="44.5347756" lon="5.8271598"><ele>826.0</ele><time>2026-05-01T11:55:54.383Z</time></trkpt><trkpt lat="44.5347365" lon="5.8270568"><ele>826.0</ele><time>2026-05-01T11:55:55.383Z</time></trkpt><trkpt lat="44.5347012" lon="5.8269609"><ele>825.9999999999999</ele><time>2026-05-01T11:55:56.383Z</time></trkpt><trkpt lat="44.5346671" lon="5.8268678"><ele>826.0</ele><time>2026-05-01T11:55:57.383Z</time></trkpt><trkpt lat="44.5346346" lon="5.8267809"><ele>826.1666666666666</ele><time>2026-05-01T11:55:58.383Z</time></trkpt><trkpt lat="44.534604" lon="5.8266962"><ele>826.3333333333333</ele><time>2026-05-01T11:55:59.383Z</time></trkpt><trkpt lat="44.5345725" lon="5.8266075"><ele>826.5</ele><time>2026-05-01T11:56:00.384Z</time></trkpt><trkpt lat="44.5345387" lon="5.8265152"><ele>826.6666666666667</ele><time>2026-05-01T11:56:01.383Z</time></trkpt><trkpt lat="44.5345065" lon="5.8264273"><ele>826.8333333333334</ele><time>2026-05-01T11:56:02.383Z</time></trkpt><trkpt lat="44.5344764" lon="5.8263457"><ele>827.0</ele><time>2026-05-01T11:56:03.383Z</time></trkpt><trkpt lat="44.5344111" lon="5.8261918"><ele>826.5714285714286</ele><time>2026-05-01T11:56:05.383Z</time></trkpt><trkpt lat="44.5343791" lon="5.826104"><ele>826.1428571428571</ele><time>2026-05-01T11:56:06.383Z</time></trkpt><trkpt lat="44.5343459" lon="5.8260124"><ele>825.7142857142857</ele><time>2026-05-01T11:56:07.383Z</time></trkpt><trkpt lat="44.5343139" lon="5.8259266"><ele>825.2857142857142</ele><time>2026-05-01T11:56:08.383Z</time></trkpt><trkpt lat="44.5342852" lon="5.8258389"><ele>824.8571428571429</ele><time>2026-05-01T11:56:09.383Z</time></trkpt><trkpt lat="44.5342555" lon="5.8257466"><ele>824.4285714285713</ele><time>2026-05-01T11:56:10.383Z</time></trkpt><trkpt lat="44.5342211" lon="5.8256554"><ele>824.0</ele><time>2026-05-01T11:56:11.384Z</time></trkpt><trkpt lat="44.5341847" lon="5.8255674"><ele>824.0000000000001</ele><time>2026-05-01T11:56:12.384Z</time></trkpt><trkpt lat="44.5341508" lon="5.8254748"><ele>824.0</ele><time>2026-05-01T11:56:13.383Z</time></trkpt><trkpt lat="44.5341152" lon="5.8253816"><ele>824.0</ele><time>2026-05-01T11:56:14.383Z</time></trkpt><trkpt lat="44.5340807" lon="5.8252869"><ele>824.0</ele><time>2026-05-01T11:56:15.384Z</time></trkpt><trkpt lat="44.534041" lon="5.8251829"><ele>824.0000000000001</ele><time>2026-05-01T11:56:16.383Z</time></trkpt><trkpt lat="44.5339991" lon="5.8250732"><ele>824.0</ele><time>2026-05-01T11:56:17.383Z</time></trkpt><trkpt lat="44.5339554" lon="5.8249584"><ele>824.4000000000001</ele><time>2026-05-01T11:56:18.383Z</time></trkpt><trkpt lat="44.533911" lon="5.8248363"><ele>824.8</ele><time>2026-05-01T11:56:19.383Z</time></trkpt><trkpt lat="44.53387" lon="5.8247099"><ele>825.2</ele><time>2026-05-01T11:56:20.383Z</time></trkpt><trkpt lat="44.533828" lon="5.824583"><ele>825.5999999999999</ele><time>2026-05-01T11:56:21.383Z</time></trkpt><trkpt lat="44.5337855" lon="5.8244616"><ele>826.0</ele><time>2026-05-01T11:56:22.383Z</time></trkpt><trkpt lat="44.5337431" lon="5.824344"><ele>825.6666666666666</ele><time>2026-05-01T11:56:23.383Z</time></trkpt><trkpt lat="44.5337025" lon="5.8242289"><ele>825.3333333333333</ele><time>2026-05-01T11:56:24.383Z</time></trkpt><trkpt lat="44.5336642" lon="5.8241209"><ele>825.0</ele><time>2026-05-01T11:56:25.383Z</time></trkpt><trkpt lat="44.5336271" lon="5.8240148"><ele>824.6666666666667</ele><time>2026-05-01T11:56:26.383Z</time></trkpt><trkpt lat="44.5335939" lon="5.8239093"><ele>824.3333333333334</ele><time>2026-05-01T11:56:27.383Z</time></trkpt><trkpt lat="44.5335647" lon="5.8238018"><ele>824.0</ele><time>2026-05-01T11:56:28.383Z</time></trkpt><trkpt lat="44.5335367" lon="5.8236967"><ele>824.0000000000001</ele><time>2026-05-01T11:56:29.383Z</time></trkpt><trkpt lat="44.5335138" lon="5.8235939"><ele>824.0</ele><time>2026-05-01T11:56:30.384Z</time></trkpt><trkpt lat="44.5334951" lon="5.8234927"><ele>824.0</ele><time>2026-05-01T11:56:31.384Z</time></trkpt><trkpt lat="44.5334807" lon="5.8233889"><ele>824.0</ele><time>2026-05-01T11:56:32.383Z</time></trkpt><trkpt lat="44.5334601" lon="5.8232792"><ele>824.0000000000001</ele><time>2026-05-01T11:56:33.384Z</time></trkpt><trkpt lat="44.5334332" lon="5.82317"><ele>824.0</ele><time>2026-05-01T11:56:34.384Z</time></trkpt><trkpt lat="44.5334099" lon="5.8230573"><ele>823.8333333333334</ele><time>2026-05-01T11:56:35.383Z</time></trkpt><trkpt lat="44.5333893" lon="5.8229412"><ele>823.6666666666667</ele><time>2026-05-01T11:56:36.384Z</time></trkpt><trkpt lat="44.5333687" lon="5.8228265"><ele>823.5</ele><time>2026-05-01T11:56:37.383Z</time></trkpt><trkpt lat="44.5333478" lon="5.8227104"><ele>823.3333333333333</ele><time>2026-05-01T11:56:38.383Z</time></trkpt><trkpt lat="44.5333276" lon="5.8225979"><ele>823.1666666666666</ele><time>2026-05-01T11:56:39.383Z</time></trkpt><trkpt lat="44.5333096" lon="5.822485"><ele>823.0</ele><time>2026-05-01T11:56:40.384Z</time></trkpt><trkpt lat="44.5332874" lon="5.8223635"><ele>823.0</ele><time>2026-05-01T11:56:41.383Z</time></trkpt><trkpt lat="44.5332632" lon="5.8222333"><ele>823.0</ele><time>2026-05-01T11:56:42.384Z</time></trkpt><trkpt lat="44.5332399" lon="5.8221034"><ele>823.0</ele><time>2026-05-01T11:56:43.383Z</time></trkpt><trkpt lat="44.5332212" lon="5.821977"><ele>823.0</ele><time>2026-05-01T11:56:44.383Z</time></trkpt><trkpt lat="44.5332029" lon="5.8218536"><ele>823.0</ele><time>2026-05-01T11:56:45.383Z</time></trkpt><trkpt lat="44.5331884" lon="5.8217338"><ele>823.3333333333333</ele><time>2026-05-01T11:56:46.383Z</time></trkpt><trkpt lat="44.5331777" lon="5.8216204"><ele>823.6666666666666</ele><time>2026-05-01T11:56:47.383Z</time></trkpt><trkpt lat="44.5331741" lon="5.8215125"><ele>824.0</ele><time>2026-05-01T11:56:48.383Z</time></trkpt><trkpt lat="44.5331763" lon="5.8214141"><ele>824.3333333333333</ele><time>2026-05-01T11:56:49.383Z</time></trkpt><trkpt lat="44.5331821" lon="5.8213259"><ele>824.6666666666666</ele><time>2026-05-01T11:56:50.383Z</time></trkpt><trkpt lat="44.533203" lon="5.821164"><ele>825.0</ele><time>2026-05-01T11:56:52.385Z</time></trkpt><trkpt lat="44.5332214" lon="5.8210293"><ele>825.2</ele><time>2026-05-01T11:56:54.384Z</time></trkpt><trkpt lat="44.5332565" lon="5.8209269"><ele>825.4</ele><time>2026-05-01T11:56:56.383Z</time></trkpt><trkpt lat="44.5333411" lon="5.8208491"><ele>825.5999999999999</ele><time>2026-05-01T11:56:58.384Z</time></trkpt><trkpt lat="44.5334068" lon="5.8207641"><ele>825.8</ele><time>2026-05-01T11:57:00.383Z</time></trkpt><trkpt lat="44.5334014" lon="5.820644"><ele>826.0</ele><time>2026-05-01T11:57:02.383Z</time></trkpt><trkpt lat="44.5333316" lon="5.8205533"><ele>825.9999999999999</ele><time>2026-05-01T11:57:04.384Z</time></trkpt><trkpt lat="44.5332738" lon="5.8205149"><ele>826.0</ele><time>2026-05-01T11:57:06.383Z</time></trkpt><trkpt lat="44.5332228" lon="5.8204614"><ele>826.0</ele><time>2026-05-01T11:57:08.384Z</time></trkpt><trkpt lat="44.5331776" lon="5.8203837"><ele>826.0</ele><time>2026-05-01T11:57:10.383Z</time></trkpt><trkpt lat="44.5331348" lon="5.8202943"><ele>825.9999999999999</ele><time>2026-05-01T11:57:12.384Z</time></trkpt><trkpt lat="44.5330726" lon="5.8201776"><ele>826.0</ele><time>2026-05-01T11:57:14.383Z</time></trkpt><trkpt lat="44.5330045" lon="5.8200472"><ele>825.6666666666666</ele><time>2026-05-01T11:57:16.383Z</time></trkpt><trkpt lat="44.5329676" lon="5.8199638"><ele>825.3333333333333</ele><time>2026-05-01T11:57:17.384Z</time></trkpt><trkpt lat="44.5329247" lon="5.8198728"><ele>825.0</ele><time>2026-05-01T11:57:18.383Z</time></trkpt><trkpt lat="44.5328737" lon="5.8197913"><ele>824.6666666666667</ele><time>2026-05-01T11:57:19.383Z</time></trkpt><trkpt lat="44.5328181" lon="5.8197213"><ele>824.3333333333334</ele><time>2026-05-01T11:57:20.383Z</time></trkpt><trkpt lat="44.5327588" lon="5.8196508"><ele>824.0</ele><time>2026-05-01T11:57:21.384Z</time></trkpt><trkpt lat="44.5326986" lon="5.8195791"><ele>823.0000000000001</ele><time>2026-05-01T11:57:22.384Z</time></trkpt><trkpt lat="44.5326382" lon="5.8195107"><ele>822.0</ele><time>2026-05-01T11:57:23.383Z</time></trkpt><trkpt lat="44.5325775" lon="5.8194414"><ele>821.0</ele><time>2026-05-01T11:57:24.383Z</time></trkpt><trkpt lat="44.5325195" lon="5.8193664"><ele>820.0</ele><time>2026-05-01T11:57:25.383Z</time></trkpt><trkpt lat="44.532458" lon="5.8192865"><ele>819.0000000000001</ele><time>2026-05-01T11:57:26.383Z</time></trkpt><trkpt lat="44.5323965" lon="5.8191965"><ele>818.0</ele><time>2026-05-01T11:57:27.383Z</time></trkpt><trkpt lat="44.5323273" lon="5.8190906"><ele>818.0</ele><time>2026-05-01T11:57:28.383Z</time></trkpt><trkpt lat="44.5322578" lon="5.8189643"><ele>818.0</ele><time>2026-05-01T11:57:29.383Z</time></trkpt><trkpt lat="44.5321982" lon="5.8188289"><ele>818.0</ele><time>2026-05-01T11:57:30.384Z</time></trkpt><trkpt lat="44.5321476" lon="5.8186823"><ele>818.0</ele><time>2026-05-01T11:57:31.383Z</time></trkpt><trkpt lat="44.5321012" lon="5.818535"><ele>817.0</ele><time>2026-05-01T11:57:32.384Z</time></trkpt><trkpt lat="44.5320564" lon="5.8183854"><ele>816.0</ele><time>2026-05-01T11:57:33.383Z</time></trkpt><trkpt lat="44.532009" lon="5.8182266"><ele>815.0</ele><time>2026-05-01T11:57:34.384Z</time></trkpt><trkpt lat="44.5319563" lon="5.8180637"><ele>814.0</ele><time>2026-05-01T11:57:35.383Z</time></trkpt><trkpt lat="44.5318991" lon="5.8178928"><ele>814.0</ele><time>2026-05-01T11:57:36.383Z</time></trkpt><trkpt lat="44.5318319" lon="5.8177224"><ele>814.0</ele><time>2026-05-01T11:57:37.383Z</time></trkpt><trkpt lat="44.5317602" lon="5.8175541"><ele>814.0</ele><time>2026-05-01T11:57:38.383Z</time></trkpt><trkpt lat="44.531683" lon="5.8173899"><ele>814.0</ele><time>2026-05-01T11:57:39.383Z</time></trkpt><trkpt lat="44.5316042" lon="5.8172343"><ele>814.0</ele><time>2026-05-01T11:57:40.383Z</time></trkpt><trkpt lat="44.531529" lon="5.8170835"><ele>814.0</ele><time>2026-05-01T11:57:41.383Z</time></trkpt><trkpt lat="44.5314523" lon="5.8169364"><ele>814.0</ele><time>2026-05-01T11:57:42.383Z</time></trkpt><trkpt lat="44.5313734" lon="5.8167923"><ele>814.0</ele><time>2026-05-01T11:57:43.383Z</time></trkpt><trkpt lat="44.531293" lon="5.8166478"><ele>813.75</ele><time>2026-05-01T11:57:44.384Z</time></trkpt><trkpt lat="44.5312129" lon="5.8165024"><ele>813.5</ele><time>2026-05-01T11:57:45.383Z</time></trkpt><trkpt lat="44.5311331" lon="5.81636"><ele>813.25</ele><time>2026-05-01T11:57:46.384Z</time></trkpt><trkpt lat="44.5310557" lon="5.8162267"><ele>813.0</ele><time>2026-05-01T11:57:47.383Z</time></trkpt><trkpt lat="44.5309818" lon="5.8160978"><ele>813.25</ele><time>2026-05-01T11:57:48.383Z</time></trkpt><trkpt lat="44.5309081" lon="5.8159718"><ele>813.5</ele><time>2026-05-01T11:57:49.383Z</time></trkpt><trkpt lat="44.5308367" lon="5.8158385"><ele>813.75</ele><time>2026-05-01T11:57:50.383Z</time></trkpt><trkpt lat="44.5307657" lon="5.8157084"><ele>814.0</ele><time>2026-05-01T11:57:51.383Z</time></trkpt><trkpt lat="44.5306952" lon="5.8155807"><ele>814.0</ele><time>2026-05-01T11:57:52.384Z</time></trkpt><trkpt lat="44.5306244" lon="5.8154529"><ele>814.0</ele><time>2026-05-01T11:57:53.383Z</time></trkpt><trkpt lat="44.5305578" lon="5.81532"><ele>814.0</ele><time>2026-05-01T11:57:54.384Z</time></trkpt><trkpt lat="44.5304301" lon="5.8150594"><ele>813.25</ele><time>2026-05-01T11:57:56.384Z</time></trkpt><trkpt lat="44.5303661" lon="5.8149363"><ele>812.5</ele><time>2026-05-01T11:57:57.386Z</time></trkpt><trkpt lat="44.5302946" lon="5.8148009"><ele>811.75</ele><time>2026-05-01T11:57:58.384Z</time></trkpt><trkpt lat="44.5302201" lon="5.8146585"><ele>811.0</ele><time>2026-05-01T11:57:59.384Z</time></trkpt><trkpt lat="44.5301437" lon="5.8145101"><ele>811.0</ele><time>2026-05-01T11:58:00.384Z</time></trkpt><trkpt lat="44.530062" lon="5.8143585"><ele>811.0</ele><time>2026-05-01T11:58:01.385Z</time></trkpt><trkpt lat="44.529979" lon="5.8142007"><ele>811.0</ele><time>2026-05-01T11:58:02.384Z</time></trkpt><trkpt lat="44.529897" lon="5.8140329"><ele>811.0</ele><time>2026-05-01T11:58:03.384Z</time></trkpt><trkpt lat="44.5298121" lon="5.813863"><ele>811.0</ele><time>2026-05-01T11:58:04.384Z</time></trkpt><trkpt lat="44.5297216" lon="5.8136914"><ele>811.0</ele><time>2026-05-01T11:58:05.384Z</time></trkpt><trkpt lat="44.5296295" lon="5.8135125"><ele>811.0</ele><time>2026-05-01T11:58:06.384Z</time></trkpt><trkpt lat="44.5295332" lon="5.8133285"><ele>811.0</ele><time>2026-05-01T11:58:07.385Z</time></trkpt><trkpt lat="44.5294369" lon="5.81314"><ele>811.0</ele><time>2026-05-01T11:58:08.384Z</time></trkpt><trkpt lat="44.5293369" lon="5.8129476"><ele>811.0</ele><time>2026-05-01T11:58:09.384Z</time></trkpt><trkpt lat="44.5292346" lon="5.8127543"><ele>811.3333333333333</ele><time>2026-05-01T11:58:10.384Z</time></trkpt><trkpt lat="44.5291333" lon="5.8125591"><ele>811.6666666666667</ele><time>2026-05-01T11:58:11.384Z</time></trkpt><trkpt lat="44.5290333" lon="5.812363"><ele>812.0</ele><time>2026-05-01T11:58:12.385Z</time></trkpt><trkpt lat="44.528932" lon="5.8121673"><ele>812.0</ele><time>2026-05-01T11:58:13.384Z</time></trkpt><trkpt lat="44.528829" lon="5.8119736"><ele>812.0</ele><time>2026-05-01T11:58:14.384Z</time></trkpt><trkpt lat="44.5287238" lon="5.811781"><ele>812.0</ele><time>2026-05-01T11:58:15.384Z</time></trkpt><trkpt lat="44.5286215" lon="5.8115836"><ele>811.6666666666667</ele><time>2026-05-01T11:58:16.384Z</time></trkpt><trkpt lat="44.5285181" lon="5.8113873"><ele>811.3333333333333</ele><time>2026-05-01T11:58:17.384Z</time></trkpt><trkpt lat="44.5284154" lon="5.8111842"><ele>811.0</ele><time>2026-05-01T11:58:18.384Z</time></trkpt><trkpt lat="44.5283078" lon="5.8109713"><ele>811.0</ele><time>2026-05-01T11:58:19.385Z</time></trkpt><trkpt lat="44.5281976" lon="5.8107595"><ele>811.0</ele><time>2026-05-01T11:58:20.384Z</time></trkpt><trkpt lat="44.5280846" lon="5.8105451"><ele>811.0</ele><time>2026-05-01T11:58:21.385Z</time></trkpt><trkpt lat="44.5279767" lon="5.8103351"><ele>809.6666666666666</ele><time>2026-05-01T11:58:22.384Z</time></trkpt><trkpt lat="44.5278745" lon="5.8101254"><ele>808.3333333333333</ele><time>2026-05-01T11:58:23.384Z</time></trkpt><trkpt lat="44.5277731" lon="5.8099239"><ele>807.0</ele><time>2026-05-01T11:58:24.385Z</time></trkpt><trkpt lat="44.5276723" lon="5.8097286"><ele>807.0</ele><time>2026-05-01T11:58:25.384Z</time></trkpt><trkpt lat="44.5275748" lon="5.8095348"><ele>807.0</ele><time>2026-05-01T11:58:26.385Z</time></trkpt><trkpt lat="44.5274601" lon="5.8092837"><ele>807.0</ele><time>2026-05-01T11:58:28.13Z</time></trkpt><trkpt lat="44.5272619" lon="5.8089055"><ele>806.6666666666667</ele><time>2026-05-01T11:58:29.383Z</time></trkpt><trkpt lat="44.5271365" lon="5.8086655"><ele>806.3333333333334</ele><time>2026-05-01T11:58:30.384Z</time></trkpt><trkpt lat="44.5270021" lon="5.8084106"><ele>806.0</ele><time>2026-05-01T11:58:31.383Z</time></trkpt><trkpt lat="44.5268614" lon="5.8081429"><ele>806.0</ele><time>2026-05-01T11:58:32.384Z</time></trkpt><trkpt lat="44.5267151" lon="5.8078642"><ele>806.0</ele><time>2026-05-01T11:58:33.384Z</time></trkpt><trkpt lat="44.5265664" lon="5.8075772"><ele>807.0</ele><time>2026-05-01T11:58:34.383Z</time></trkpt><trkpt lat="44.5264182" lon="5.8072956"><ele>808.0</ele><time>2026-05-01T11:58:35.383Z</time></trkpt><trkpt lat="44.5262785" lon="5.8070265"><ele>806.5</ele><time>2026-05-01T11:58:36.384Z</time></trkpt><trkpt lat="44.5261433" lon="5.8067651"><ele>805.0</ele><time>2026-05-01T11:58:37.384Z</time></trkpt><trkpt lat="44.5260128" lon="5.8065137"><ele>805.0</ele><time>2026-05-01T11:58:38.383Z</time></trkpt><trkpt lat="44.5258886" lon="5.8062702"><ele>805.0</ele><time>2026-05-01T11:58:39.383Z</time></trkpt><trkpt lat="44.5257675" lon="5.8060344"><ele>805.0</ele><time>2026-05-01T11:58:40.383Z</time></trkpt><trkpt lat="44.5256462" lon="5.8058042"><ele>805.0</ele><time>2026-05-01T11:58:41.383Z</time></trkpt><trkpt lat="44.5255262" lon="5.8055753"><ele>805.0</ele><time>2026-05-01T11:58:42.383Z</time></trkpt><trkpt lat="44.5254055" lon="5.8053486"><ele>805.0</ele><time>2026-05-01T11:58:43.383Z</time></trkpt><trkpt lat="44.5252834" lon="5.8051118"><ele>803.6666666666666</ele><time>2026-05-01T11:58:44.383Z</time></trkpt><trkpt lat="44.5251573" lon="5.8048699"><ele>802.3333333333333</ele><time>2026-05-01T11:58:45.383Z</time></trkpt><trkpt lat="44.5250258" lon="5.8046211"><ele>801.0</ele><time>2026-05-01T11:58:46.383Z</time></trkpt><trkpt lat="44.5248904" lon="5.8043645"><ele>801.5</ele><time>2026-05-01T11:58:47.383Z</time></trkpt><trkpt lat="44.5247462" lon="5.8040937"><ele>802.0</ele><time>2026-05-01T11:58:48.383Z</time></trkpt><trkpt lat="44.5245932" lon="5.8038014"><ele>801.5</ele><time>2026-05-01T11:58:49.383Z</time></trkpt><trkpt lat="44.5244283" lon="5.80349"><ele>801.0</ele><time>2026-05-01T11:58:50.384Z</time></trkpt><trkpt lat="44.524254" lon="5.8031563"><ele>801.0</ele><time>2026-05-01T11:58:51.384Z</time></trkpt><trkpt lat="44.5240709" lon="5.8028058"><ele>801.0</ele><time>2026-05-01T11:58:52.383Z</time></trkpt><trkpt lat="44.5238817" lon="5.8024436"><ele>799.0</ele><time>2026-05-01T11:58:53.383Z</time></trkpt><trkpt lat="44.5236922" lon="5.8020749"><ele>797.0</ele><time>2026-05-01T11:58:54.383Z</time></trkpt><trkpt lat="44.5235023" lon="5.8017029"><ele>797.0</ele><time>2026-05-01T11:58:55.383Z</time></trkpt><trkpt lat="44.5233084" lon="5.8013342"><ele>797.0</ele><time>2026-05-01T11:58:56.384Z</time></trkpt><trkpt lat="44.5231164" lon="5.8009654"><ele>797.0</ele><time>2026-05-01T11:58:57.383Z</time></trkpt><trkpt lat="44.5229303" lon="5.8006061"><ele>797.0</ele><time>2026-05-01T11:58:58.384Z</time></trkpt><trkpt lat="44.5227514" lon="5.8002615"><ele>795.5</ele><time>2026-05-01T11:58:59.384Z</time></trkpt><trkpt lat="44.5225758" lon="5.7999223"><ele>794.0</ele><time>2026-05-01T11:59:00.383Z</time></trkpt><trkpt lat="44.5224017" lon="5.7995845"><ele>794.5</ele><time>2026-05-01T11:59:01.383Z</time></trkpt><trkpt lat="44.5222295" lon="5.7992494"><ele>795.0</ele><time>2026-05-01T11:59:02.384Z</time></trkpt><trkpt lat="44.5220598" lon="5.7989137"><ele>793.5</ele><time>2026-05-01T11:59:03.383Z</time></trkpt><trkpt lat="44.5218899" lon="5.7985796"><ele>792.0</ele><time>2026-05-01T11:59:04.385Z</time></trkpt><trkpt lat="44.5217178" lon="5.7982432"><ele>792.0</ele><time>2026-05-01T11:59:05.383Z</time></trkpt><trkpt lat="44.5215402" lon="5.7979051"><ele>792.0</ele><time>2026-05-01T11:59:06.383Z</time></trkpt><trkpt lat="44.5213679" lon="5.7975761"><ele>789.0</ele><time>2026-05-01T11:59:07.383Z</time></trkpt><trkpt lat="44.5211939" lon="5.79724"><ele>786.0</ele><time>2026-05-01T11:59:08.383Z</time></trkpt><trkpt lat="44.5210119" lon="5.7968884"><ele>787.5</ele><time>2026-05-01T11:59:09.383Z</time></trkpt><trkpt lat="44.5208286" lon="5.7965319"><ele>789.0</ele><time>2026-05-01T11:59:10.383Z</time></trkpt><trkpt lat="44.5206458" lon="5.7961751"><ele>791.5</ele><time>2026-05-01T11:59:11.383Z</time></trkpt><trkpt lat="44.520467" lon="5.7958222"><ele>794.0</ele><time>2026-05-01T11:59:12.383Z</time></trkpt><trkpt lat="44.5202912" lon="5.7954758"><ele>790.0</ele><time>2026-05-01T11:59:13.384Z</time></trkpt><trkpt lat="44.5201263" lon="5.7951353"><ele>786.0</ele><time>2026-05-01T11:59:14.383Z</time></trkpt><trkpt lat="44.5199728" lon="5.7948018"><ele>786.0</ele><time>2026-05-01T11:59:15.384Z</time></trkpt><trkpt lat="44.5198239" lon="5.7944818"><ele>786.0</ele><time>2026-05-01T11:59:16.383Z</time></trkpt><trkpt lat="44.519677" lon="5.7941769"><ele>785.5</ele><time>2026-05-01T11:59:17.383Z</time></trkpt><trkpt lat="44.5195336" lon="5.7938843"><ele>785.0</ele><time>2026-05-01T11:59:18.383Z</time></trkpt><trkpt lat="44.5193948" lon="5.7936024"><ele>786.0</ele><time>2026-05-01T11:59:19.383Z</time></trkpt><trkpt lat="44.5192571" lon="5.7933236"><ele>787.0</ele><time>2026-05-01T11:59:20.383Z</time></trkpt><trkpt lat="44.5191188" lon="5.793048"><ele>787.0</ele><time>2026-05-01T11:59:21.383Z</time></trkpt><trkpt lat="44.5189786" lon="5.7927772"><ele>787.0</ele><time>2026-05-01T11:59:22.383Z</time></trkpt><trkpt lat="44.5188404" lon="5.7925112"><ele>785.0</ele><time>2026-05-01T11:59:23.383Z</time></trkpt><trkpt lat="44.5187037" lon="5.7922466"><ele>783.0</ele><time>2026-05-01T11:59:24.383Z</time></trkpt><trkpt lat="44.5185738" lon="5.7919819"><ele>784.5</ele><time>2026-05-01T11:59:25.383Z</time></trkpt><trkpt lat="44.5184414" lon="5.7917183"><ele>786.0</ele><time>2026-05-01T11:59:26.383Z</time></trkpt><trkpt lat="44.5183117" lon="5.7914575"><ele>786.0</ele><time>2026-05-01T11:59:27.383Z</time></trkpt><trkpt lat="44.5181812" lon="5.7911991"><ele>786.0</ele><time>2026-05-01T11:59:28.383Z</time></trkpt><trkpt lat="44.5180497" lon="5.7909427"><ele>784.6666666666667</ele><time>2026-05-01T11:59:29.383Z</time></trkpt><trkpt lat="44.517922" lon="5.7906877"><ele>783.3333333333334</ele><time>2026-05-01T11:59:30.383Z</time></trkpt><trkpt lat="44.5177967" lon="5.79044"><ele>782.0</ele><time>2026-05-01T11:59:31.384Z</time></trkpt><trkpt lat="44.5176728" lon="5.7901923"><ele>783.0</ele><time>2026-05-01T11:59:32.383Z</time></trkpt><trkpt lat="44.5175494" lon="5.7899461"><ele>784.0</ele><time>2026-05-01T11:59:33.383Z</time></trkpt><trkpt lat="44.5174267" lon="5.7897039"><ele>785.0</ele><time>2026-05-01T11:59:34.383Z</time></trkpt><trkpt lat="44.5172987" lon="5.7894623"><ele>784.0</ele><time>2026-05-01T11:59:35.383Z</time></trkpt><trkpt lat="44.5171666" lon="5.7892224"><ele>783.0</ele><time>2026-05-01T11:59:36.384Z</time></trkpt><trkpt lat="44.5170282" lon="5.7889828"><ele>782.0</ele><time>2026-05-01T11:59:37.383Z</time></trkpt><trkpt lat="44.5168855" lon="5.7887394"><ele>784.0</ele><time>2026-05-01T11:59:38.384Z</time></trkpt><trkpt lat="44.5167375" lon="5.7884931"><ele>786.0</ele><time>2026-05-01T11:59:39.383Z</time></trkpt><trkpt lat="44.5165893" lon="5.7882413"><ele>786.0</ele><time>2026-05-01T11:59:40.383Z</time></trkpt><trkpt lat="44.5164434" lon="5.787983"><ele>786.0</ele><time>2026-05-01T11:59:41.383Z</time></trkpt><trkpt lat="44.5162949" lon="5.7877232"><ele>783.5</ele><time>2026-05-01T11:59:42.383Z</time></trkpt><trkpt lat="44.5161476" lon="5.7874651"><ele>781.0</ele><time>2026-05-01T11:59:43.383Z</time></trkpt><trkpt lat="44.5160017" lon="5.7872094"><ele>781.0</ele><time>2026-05-01T11:59:44.383Z</time></trkpt><trkpt lat="44.5158578" lon="5.7869582"><ele>781.0</ele><time>2026-05-01T11:59:45.383Z</time></trkpt><trkpt lat="44.5157153" lon="5.786712"><ele>780.0</ele><time>2026-05-01T11:59:46.383Z</time></trkpt><trkpt lat="44.5155729" lon="5.7864667"><ele>779.0</ele><time>2026-05-01T11:59:47.382Z</time></trkpt><trkpt lat="44.5154285" lon="5.7862165"><ele>778.5</ele><time>2026-05-01T11:59:48.382Z</time></trkpt><trkpt lat="44.5152841" lon="5.7859656"><ele>778.0</ele><time>2026-05-01T11:59:49.382Z</time></trkpt><trkpt lat="44.5151392" lon="5.7857147"><ele>778.0</ele><time>2026-05-01T11:59:50.382Z</time></trkpt><trkpt lat="44.5149958" lon="5.7854636"><ele>778.0</ele><time>2026-05-01T11:59:51.382Z</time></trkpt><trkpt lat="44.5148533" lon="5.7852136"><ele>777.5</ele><time>2026-05-01T11:59:52.382Z</time></trkpt><trkpt lat="44.5147097" lon="5.7849608"><ele>777.0</ele><time>2026-05-01T11:59:53.382Z</time></trkpt><trkpt lat="44.5145689" lon="5.7847048"><ele>776.0</ele><time>2026-05-01T11:59:54.382Z</time></trkpt><trkpt lat="44.5144236" lon="5.7844586"><ele>775.0</ele><time>2026-05-01T11:59:55.382Z</time></trkpt><trkpt lat="44.5142816" lon="5.7842088"><ele>774.0</ele><time>2026-05-01T11:59:56.383Z</time></trkpt><trkpt lat="44.5141383" lon="5.7839635"><ele>773.0</ele><time>2026-05-01T11:59:57.382Z</time></trkpt><trkpt lat="44.5139949" lon="5.7837167"><ele>773.0</ele><time>2026-05-01T11:59:58.382Z</time></trkpt><trkpt lat="44.51385" lon="5.783467"><ele>773.0</ele><time>2026-05-01T11:59:59.382Z</time></trkpt><trkpt lat="44.5137035" lon="5.7832166"><ele>773.0</ele><time>2026-05-01T12:00:00.382Z</time></trkpt><trkpt lat="44.5135562" lon="5.782962"><ele>773.0</ele><time>2026-05-01T12:00:01.383Z</time></trkpt><trkpt lat="44.5134096" lon="5.7827051"><ele>773.5</ele><time>2026-05-01T12:00:02.382Z</time></trkpt><trkpt lat="44.5132629" lon="5.7824513"><ele>774.0</ele><time>2026-05-01T12:00:03.382Z</time></trkpt><trkpt lat="44.5131236" lon="5.7822048"><ele>774.0</ele><time>2026-05-01T12:00:04.382Z</time></trkpt><trkpt lat="44.51299" lon="5.7819701"><ele>774.0</ele><time>2026-05-01T12:00:05.383Z</time></trkpt><trkpt lat="44.5128644" lon="5.7817457"><ele>774.0</ele><time>2026-05-01T12:00:06.383Z</time></trkpt><trkpt lat="44.5127407" lon="5.7815344"><ele>774.0</ele><time>2026-05-01T12:00:07.382Z</time></trkpt><trkpt lat="44.5126218" lon="5.7813226"><ele>774.0</ele><time>2026-05-01T12:00:08.382Z</time></trkpt><trkpt lat="44.512506" lon="5.7811097"><ele>774.0</ele><time>2026-05-01T12:00:09.383Z</time></trkpt><trkpt lat="44.5123902" lon="5.7808954"><ele>774.0</ele><time>2026-05-01T12:00:10.382Z</time></trkpt><trkpt lat="44.51227" lon="5.7806878"><ele>774.0</ele><time>2026-05-01T12:00:11.382Z</time></trkpt><trkpt lat="44.5121483" lon="5.7804937"><ele>774.0</ele><time>2026-05-01T12:00:12.382Z</time></trkpt><trkpt lat="44.5120262" lon="5.7803148"><ele>774.0</ele><time>2026-05-01T12:00:13.382Z</time></trkpt><trkpt lat="44.5119084" lon="5.7801334"><ele>774.0</ele><time>2026-05-01T12:00:14.382Z</time></trkpt><trkpt lat="44.5117955" lon="5.7799657"><ele>774.0</ele><time>2026-05-01T12:00:15.382Z</time></trkpt><trkpt lat="44.5116929" lon="5.779815"><ele>774.0</ele><time>2026-05-01T12:00:16.382Z</time></trkpt><trkpt lat="44.5116016" lon="5.7796783"><ele>774.0</ele><time>2026-05-01T12:00:17.382Z</time></trkpt><trkpt lat="44.5115187" lon="5.7795507"><ele>774.0</ele><time>2026-05-01T12:00:18.382Z</time></trkpt><trkpt lat="44.5114391" lon="5.7794252"><ele>774.0</ele><time>2026-05-01T12:00:19.382Z</time></trkpt><trkpt lat="44.511363" lon="5.7792941"><ele>774.25</ele><time>2026-05-01T12:00:20.382Z</time></trkpt><trkpt lat="44.5112874" lon="5.7791586"><ele>774.5</ele><time>2026-05-01T12:00:21.382Z</time></trkpt><trkpt lat="44.5112134" lon="5.7790243"><ele>774.75</ele><time>2026-05-01T12:00:22.382Z</time></trkpt><trkpt lat="44.5111382" lon="5.7788889"><ele>775.0</ele><time>2026-05-01T12:00:23.382Z</time></trkpt><trkpt lat="44.511062" lon="5.7787546"><ele>775.0</ele><time>2026-05-01T12:00:24.383Z</time></trkpt><trkpt lat="44.5109887" lon="5.7786271"><ele>775.0</ele><time>2026-05-01T12:00:25.383Z</time></trkpt><trkpt lat="44.510927" lon="5.778511"><ele>775.0</ele><time>2026-05-01T12:00:26.382Z</time></trkpt><trkpt lat="44.5108795" lon="5.7783928"><ele>775.0</ele><time>2026-05-01T12:00:27.383Z</time></trkpt><trkpt lat="44.5108532" lon="5.7782685"><ele>775.0</ele><time>2026-05-01T12:00:28.382Z</time></trkpt><trkpt lat="44.5108531" lon="5.7781498"><ele>775.0</ele><time>2026-05-01T12:00:29.382Z</time></trkpt><trkpt lat="44.5108787" lon="5.7780455"><ele>775.0</ele><time>2026-05-01T12:00:30.382Z</time></trkpt><trkpt lat="44.5109293" lon="5.7779419"><ele>775.0</ele><time>2026-05-01T12:00:31.382Z</time></trkpt><trkpt lat="44.5109875" lon="5.7778335"><ele>775.0</ele><time>2026-05-01T12:00:32.382Z</time></trkpt><trkpt lat="44.5110527" lon="5.7777062"><ele>775.0</ele><time>2026-05-01T12:00:33.383Z</time></trkpt><trkpt lat="44.5111213" lon="5.7775626"><ele>774.75</ele><time>2026-05-01T12:00:34.382Z</time></trkpt><trkpt lat="44.5111917" lon="5.7774158"><ele>774.5</ele><time>2026-05-01T12:00:35.382Z</time></trkpt><trkpt lat="44.511257" lon="5.7772758"><ele>774.25</ele><time>2026-05-01T12:00:36.382Z</time></trkpt><trkpt lat="44.5113244" lon="5.7771441"><ele>774.0</ele><time>2026-05-01T12:00:37.382Z</time></trkpt><trkpt lat="44.5113888" lon="5.777015"><ele>774.0</ele><time>2026-05-01T12:00:38.382Z</time></trkpt><trkpt lat="44.5114576" lon="5.7768817"><ele>774.0</ele><time>2026-05-01T12:00:39.382Z</time></trkpt><trkpt lat="44.5115241" lon="5.7767441"><ele>774.0</ele><time>2026-05-01T12:00:40.383Z</time></trkpt><trkpt lat="44.5115919" lon="5.7766054"><ele>774.0</ele><time>2026-05-01T12:00:41.382Z</time></trkpt><trkpt lat="44.5116591" lon="5.7764672"><ele>774.25</ele><time>2026-05-01T12:00:42.383Z</time></trkpt><trkpt lat="44.5117244" lon="5.77633"><ele>774.5</ele><time>2026-05-01T12:00:43.382Z</time></trkpt><trkpt lat="44.5117871" lon="5.7761893"><ele>774.75</ele><time>2026-05-01T12:00:44.382Z</time></trkpt><trkpt lat="44.5118461" lon="5.7760457"><ele>775.0</ele><time>2026-05-01T12:00:45.382Z</time></trkpt><trkpt lat="44.5118952" lon="5.7758904"><ele>776.0</ele><time>2026-05-01T12:00:46.382Z</time></trkpt><trkpt lat="44.5119325" lon="5.7757281"><ele>777.0</ele><time>2026-05-01T12:00:47.382Z</time></trkpt><trkpt lat="44.5119551" lon="5.775562"><ele>778.0</ele><time>2026-05-01T12:00:48.383Z</time></trkpt><trkpt lat="44.511966" lon="5.7753937"><ele>779.0</ele><time>2026-05-01T12:00:49.382Z</time></trkpt><trkpt lat="44.5119663" lon="5.7752228"><ele>779.0</ele><time>2026-05-01T12:00:50.382Z</time></trkpt><trkpt lat="44.5119495" lon="5.7750541"><ele>779.0</ele><time>2026-05-01T12:00:51.383Z</time></trkpt><trkpt lat="44.5119169" lon="5.774884"><ele>779.0</ele><time>2026-05-01T12:00:52.383Z</time></trkpt><trkpt lat="44.5118723" lon="5.7747111"><ele>779.0</ele><time>2026-05-01T12:00:53.382Z</time></trkpt><trkpt lat="44.5118171" lon="5.7745417"><ele>779.0</ele><time>2026-05-01T12:00:54.382Z</time></trkpt><trkpt lat="44.5117571" lon="5.7743694"><ele>779.0</ele><time>2026-05-01T12:00:55.384Z</time></trkpt><trkpt lat="44.5116925" lon="5.7741841"><ele>779.0</ele><time>2026-05-01T12:00:56.382Z</time></trkpt><trkpt lat="44.511629" lon="5.7740003"><ele>779.0</ele><time>2026-05-01T12:00:57.382Z</time></trkpt><trkpt lat="44.511565" lon="5.7738147"><ele>780.0</ele><time>2026-05-01T12:00:58.382Z</time></trkpt><trkpt lat="44.5115" lon="5.7736287"><ele>781.0</ele><time>2026-05-01T12:00:59.382Z</time></trkpt><trkpt lat="44.5114332" lon="5.77344"><ele>782.0</ele><time>2026-05-01T12:01:00.382Z</time></trkpt><trkpt lat="44.5113655" lon="5.7732469"><ele>782.0</ele><time>2026-05-01T12:01:01.382Z</time></trkpt><trkpt lat="44.5112983" lon="5.7730535"><ele>782.0</ele><time>2026-05-01T12:01:02.383Z</time></trkpt><trkpt lat="44.511234" lon="5.7728585"><ele>782.0</ele><time>2026-05-01T12:01:03.383Z</time></trkpt><trkpt lat="44.5111645" lon="5.7726628"><ele>783.3333333333334</ele><time>2026-05-01T12:01:04.382Z</time></trkpt><trkpt lat="44.5110969" lon="5.7724612"><ele>784.6666666666667</ele><time>2026-05-01T12:01:05.382Z</time></trkpt><trkpt lat="44.5110254" lon="5.7722524"><ele>786.0</ele><time>2026-05-01T12:01:06.383Z</time></trkpt><trkpt lat="44.5109514" lon="5.7720362"><ele>788.0</ele><time>2026-05-01T12:01:07.382Z</time></trkpt><trkpt lat="44.5108784" lon="5.7718188"><ele>790.0</ele><time>2026-05-01T12:01:08.382Z</time></trkpt><trkpt lat="44.5108009" lon="5.7715958"><ele>792.0</ele><time>2026-05-01T12:01:09.382Z</time></trkpt><trkpt lat="44.5107215" lon="5.7713722"><ele>792.0</ele><time>2026-05-01T12:01:10.383Z</time></trkpt><trkpt lat="44.510642" lon="5.7711413"><ele>792.0</ele><time>2026-05-01T12:01:11.382Z</time></trkpt><trkpt lat="44.5105635" lon="5.770897"><ele>792.0</ele><time>2026-05-01T12:01:12.382Z</time></trkpt><trkpt lat="44.5104945" lon="5.7706351"><ele>792.6666666666667</ele><time>2026-05-01T12:01:13.382Z</time></trkpt><trkpt lat="44.5104391" lon="5.7703623"><ele>793.3333333333334</ele><time>2026-05-01T12:01:14.382Z</time></trkpt><trkpt lat="44.5103768" lon="5.7700894"><ele>794.0</ele><time>2026-05-01T12:01:15.383Z</time></trkpt><trkpt lat="44.5102967" lon="5.7698351"><ele>794.0</ele><time>2026-05-01T12:01:16.382Z</time></trkpt><trkpt lat="44.5102099" lon="5.7696055"><ele>794.0</ele><time>2026-05-01T12:01:17.382Z</time></trkpt><trkpt lat="44.5101232" lon="5.7693921"><ele>794.0</ele><time>2026-05-01T12:01:18.382Z</time></trkpt><trkpt lat="44.5100403" lon="5.7691747"><ele>797.0</ele><time>2026-05-01T12:01:19.383Z</time></trkpt><trkpt lat="44.5099759" lon="5.7689512"><ele>800.0</ele><time>2026-05-01T12:01:20.383Z</time></trkpt><trkpt lat="44.5099427" lon="5.7687176"><ele>803.0</ele><time>2026-05-01T12:01:21.382Z</time></trkpt><trkpt lat="44.5099318" lon="5.7684832"><ele>805.0</ele><time>2026-05-01T12:01:22.382Z</time></trkpt><trkpt lat="44.5099367" lon="5.7682452"><ele>807.0</ele><time>2026-05-01T12:01:23.382Z</time></trkpt><trkpt lat="44.5099438" lon="5.7680036"><ele>809.0</ele><time>2026-05-01T12:01:24.382Z</time></trkpt><trkpt lat="44.50994" lon="5.767758"><ele>809.6666666666667</ele><time>2026-05-01T12:01:25.382Z</time></trkpt><trkpt lat="44.5099122" lon="5.7675049"><ele>810.3333333333333</ele><time>2026-05-01T12:01:26.382Z</time></trkpt><trkpt lat="44.5098634" lon="5.7672388"><ele>811.0</ele><time>2026-05-01T12:01:27.382Z</time></trkpt><trkpt lat="44.5097953" lon="5.7669574"><ele>814.0</ele><time>2026-05-01T12:01:28.383Z</time></trkpt><trkpt lat="44.5097235" lon="5.7666562"><ele>817.0</ele><time>2026-05-01T12:01:29.382Z</time></trkpt><trkpt lat="44.5096553" lon="5.7663391"><ele>817.0</ele><time>2026-05-01T12:01:30.383Z</time></trkpt><trkpt lat="44.509596" lon="5.7660328"><ele>817.0</ele><time>2026-05-01T12:01:31.382Z</time></trkpt><trkpt lat="44.5095366" lon="5.7657446"><ele>817.0</ele><time>2026-05-01T12:01:32.382Z</time></trkpt><trkpt lat="44.5094679" lon="5.7654761"><ele>818.0</ele><time>2026-05-01T12:01:33.382Z</time></trkpt><trkpt lat="44.5093757" lon="5.7652404"><ele>819.0</ele><time>2026-05-01T12:01:34.382Z</time></trkpt><trkpt lat="44.5092597" lon="5.7650315"><ele>820.0</ele><time>2026-05-01T12:01:35.382Z</time></trkpt><trkpt lat="44.5091167" lon="5.7648753"><ele>820.0</ele><time>2026-05-01T12:01:36.383Z</time></trkpt><trkpt lat="44.5089627" lon="5.7647714"><ele>820.0</ele><time>2026-05-01T12:01:37.382Z</time></trkpt><trkpt lat="44.5088054" lon="5.7647069"><ele>820.0</ele><time>2026-05-01T12:01:38.382Z</time></trkpt><trkpt lat="44.5086542" lon="5.7646511"><ele>822.3333333333333</ele><time>2026-05-01T12:01:39.382Z</time></trkpt><trkpt lat="44.5085087" lon="5.7645799"><ele>824.6666666666667</ele><time>2026-05-01T12:01:40.383Z</time></trkpt><trkpt lat="44.5083713" lon="5.7644703"><ele>827.0</ele><time>2026-05-01T12:01:41.383Z</time></trkpt><trkpt lat="44.5082481" lon="5.764327"><ele>827.0</ele><time>2026-05-01T12:01:42.383Z</time></trkpt><trkpt lat="44.5081468" lon="5.7641492"><ele>827.0</ele><time>2026-05-01T12:01:43.383Z</time></trkpt><trkpt lat="44.5080731" lon="5.7639535"><ele>827.0</ele><time>2026-05-01T12:01:44.382Z</time></trkpt><trkpt lat="44.5080161" lon="5.763747"><ele>827.0</ele><time>2026-05-01T12:01:45.382Z</time></trkpt><trkpt lat="44.5079513" lon="5.7635433"><ele>827.0</ele><time>2026-05-01T12:01:46.383Z</time></trkpt><trkpt lat="44.5078571" lon="5.763369"><ele>827.0</ele><time>2026-05-01T12:01:47.382Z</time></trkpt><trkpt lat="44.5077308" lon="5.7632182"><ele>825.6666666666667</ele><time>2026-05-01T12:01:48.382Z</time></trkpt><trkpt lat="44.5075848" lon="5.7630757"><ele>824.3333333333333</ele><time>2026-05-01T12:01:49.382Z</time></trkpt><trkpt lat="44.5074297" lon="5.7629235"><ele>823.0</ele><time>2026-05-01T12:01:50.382Z</time></trkpt><trkpt lat="44.5072644" lon="5.7627584"><ele>823.6666666666666</ele><time>2026-05-01T12:01:51.382Z</time></trkpt><trkpt lat="44.5070889" lon="5.7625884"><ele>824.3333333333333</ele><time>2026-05-01T12:01:52.382Z</time></trkpt><trkpt lat="44.5069067" lon="5.7624119"><ele>825.0</ele><time>2026-05-01T12:01:53.382Z</time></trkpt><trkpt lat="44.5067204" lon="5.7622288"><ele>825.0</ele><time>2026-05-01T12:01:54.382Z</time></trkpt><trkpt lat="44.5065384" lon="5.7620491"><ele>825.0</ele><time>2026-05-01T12:01:55.382Z</time></trkpt><trkpt lat="44.5063594" lon="5.7618751"><ele>825.0</ele><time>2026-05-01T12:01:56.382Z</time></trkpt><trkpt lat="44.5061858" lon="5.7617084"><ele>824.3333333333333</ele><time>2026-05-01T12:01:57.382Z</time></trkpt><trkpt lat="44.5060296" lon="5.7615468"><ele>823.6666666666666</ele><time>2026-05-01T12:01:58.382Z</time></trkpt><trkpt lat="44.5058925" lon="5.7613681"><ele>823.0</ele><time>2026-05-01T12:01:59.382Z</time></trkpt><trkpt lat="44.5057829" lon="5.7611684"><ele>819.6666666666666</ele><time>2026-05-01T12:02:00.382Z</time></trkpt><trkpt lat="44.5057067" lon="5.7609555"><ele>816.3333333333333</ele><time>2026-05-01T12:02:01.382Z</time></trkpt><trkpt lat="44.5056633" lon="5.7607372"><ele>813.0</ele><time>2026-05-01T12:02:02.382Z</time></trkpt><trkpt lat="44.5056533" lon="5.7605139"><ele>813.0</ele><time>2026-05-01T12:02:03.382Z</time></trkpt><trkpt lat="44.5056704" lon="5.7602929"><ele>813.0</ele><time>2026-05-01T12:02:04.382Z</time></trkpt><trkpt lat="44.5057195" lon="5.7600716"><ele>813.0</ele><time>2026-05-01T12:02:05.382Z</time></trkpt><trkpt lat="44.5058045" lon="5.7598599"><ele>813.3333333333333</ele><time>2026-05-01T12:02:06.382Z</time></trkpt><trkpt lat="44.5059226" lon="5.7596604"><ele>813.6666666666666</ele><time>2026-05-01T12:02:07.382Z</time></trkpt><trkpt lat="44.5060691" lon="5.7594662"><ele>814.0</ele><time>2026-05-01T12:02:08.382Z</time></trkpt><trkpt lat="44.5062176" lon="5.7592665"><ele>808.3333333333333</ele><time>2026-05-01T12:02:09.382Z</time></trkpt><trkpt lat="44.506372" lon="5.7590715"><ele>802.6666666666667</ele><time>2026-05-01T12:02:10.382Z</time></trkpt><trkpt lat="44.5065332" lon="5.7588847"><ele>797.0</ele><time>2026-05-01T12:02:11.383Z</time></trkpt><trkpt lat="44.5067037" lon="5.7587128"><ele>797.0</ele><time>2026-05-01T12:02:12.382Z</time></trkpt><trkpt lat="44.5068812" lon="5.758553"><ele>797.0</ele><time>2026-05-01T12:02:13.383Z</time></trkpt><trkpt lat="44.5070751" lon="5.7584068"><ele>797.0</ele><time>2026-05-01T12:02:14.382Z</time></trkpt><trkpt lat="44.5072879" lon="5.758275"><ele>797.0</ele><time>2026-05-01T12:02:15.382Z</time></trkpt><trkpt lat="44.5075149" lon="5.7581588"><ele>797.0</ele><time>2026-05-01T12:02:16.382Z</time></trkpt><trkpt lat="44.507756" lon="5.7580576"><ele>792.0</ele><time>2026-05-01T12:02:17.382Z</time></trkpt><trkpt lat="44.5080136" lon="5.7579819"><ele>787.0</ele><time>2026-05-01T12:02:18.382Z</time></trkpt><trkpt lat="44.5082833" lon="5.7579419"><ele>787.0</ele><time>2026-05-01T12:02:19.382Z</time></trkpt><trkpt lat="44.5085595" lon="5.7579329"><ele>787.0</ele><time>2026-05-01T12:02:20.382Z</time></trkpt><trkpt lat="44.5088297" lon="5.7579503"><ele>786.0</ele><time>2026-05-01T12:02:21.382Z</time></trkpt><trkpt lat="44.5090949" lon="5.7579748"><ele>785.0</ele><time>2026-05-01T12:02:22.382Z</time></trkpt><trkpt lat="44.5093645" lon="5.7579977"><ele>783.5</ele><time>2026-05-01T12:02:23.383Z</time></trkpt><trkpt lat="44.5096391" lon="5.758022"><ele>782.0</ele><time>2026-05-01T12:02:24.383Z</time></trkpt><trkpt lat="44.5099165" lon="5.7580463"><ele>782.0</ele><time>2026-05-01T12:02:25.382Z</time></trkpt><trkpt lat="44.5101967" lon="5.7580712"><ele>782.0</ele><time>2026-05-01T12:02:26.382Z</time></trkpt><trkpt lat="44.5104705" lon="5.7580949"><ele>781.0</ele><time>2026-05-01T12:02:27.383Z</time></trkpt><trkpt lat="44.5107366" lon="5.7581179"><ele>780.0</ele><time>2026-05-01T12:02:28.382Z</time></trkpt><trkpt lat="44.5109977" lon="5.7581425"><ele>778.0</ele><time>2026-05-01T12:02:29.383Z</time></trkpt><trkpt lat="44.511249" lon="5.7581703"><ele>776.0</ele><time>2026-05-01T12:02:30.382Z</time></trkpt><trkpt lat="44.5114927" lon="5.7581922"><ele>776.0</ele><time>2026-05-01T12:02:31.382Z</time></trkpt><trkpt lat="44.5117336" lon="5.7581896"><ele>776.0</ele><time>2026-05-01T12:02:32.383Z</time></trkpt><trkpt lat="44.5119792" lon="5.7581575"><ele>777.0</ele><time>2026-05-01T12:02:33.382Z</time></trkpt><trkpt lat="44.5122257" lon="5.758094"><ele>778.0</ele><time>2026-05-01T12:02:34.382Z</time></trkpt><trkpt lat="44.5124598" lon="5.7580034"><ele>778.0</ele><time>2026-05-01T12:02:35.382Z</time></trkpt><trkpt lat="44.5126795" lon="5.7578863"><ele>778.0</ele><time>2026-05-01T12:02:36.382Z</time></trkpt><trkpt lat="44.512888" lon="5.7577348"><ele>776.0</ele><time>2026-05-01T12:02:37.383Z</time></trkpt><trkpt lat="44.513093" lon="5.757557"><ele>774.0</ele><time>2026-05-01T12:02:38.382Z</time></trkpt><trkpt lat="44.5132905" lon="5.7573616"><ele>774.0</ele><time>2026-05-01T12:02:39.383Z</time></trkpt><trkpt lat="44.5134834" lon="5.7571632"><ele>774.0</ele><time>2026-05-01T12:02:40.382Z</time></trkpt><trkpt lat="44.5136796" lon="5.7569735"><ele>772.5</ele><time>2026-05-01T12:02:41.383Z</time></trkpt><trkpt lat="44.5138906" lon="5.7567945"><ele>771.0</ele><time>2026-05-01T12:02:42.383Z</time></trkpt><trkpt lat="44.5141181" lon="5.7566279"><ele>771.0</ele><time>2026-05-01T12:02:43.382Z</time></trkpt><trkpt lat="44.514353" lon="5.7564597"><ele>771.0</ele><time>2026-05-01T12:02:44.382Z</time></trkpt><trkpt lat="44.5145985" lon="5.7562895"><ele>770.5</ele><time>2026-05-01T12:02:45.382Z</time></trkpt><trkpt lat="44.5148524" lon="5.7561149"><ele>770.0</ele><time>2026-05-01T12:02:46.382Z</time></trkpt><trkpt lat="44.5151094" lon="5.7559394"><ele>764.0</ele><time>2026-05-01T12:02:47.382Z</time></trkpt><trkpt lat="44.5153702" lon="5.7557593"><ele>758.0</ele><time>2026-05-01T12:02:48.382Z</time></trkpt><trkpt lat="44.5156361" lon="5.7555763"><ele>756.5</ele><time>2026-05-01T12:02:49.383Z</time></trkpt><trkpt lat="44.5159082" lon="5.7553933"><ele>755.0</ele><time>2026-05-01T12:02:50.382Z</time></trkpt><trkpt lat="44.5161827" lon="5.7552124"><ele>755.5</ele><time>2026-05-01T12:02:51.382Z</time></trkpt><trkpt lat="44.5164575" lon="5.7550373"><ele>756.0</ele><time>2026-05-01T12:02:52.382Z</time></trkpt><trkpt lat="44.5167291" lon="5.754865"><ele>756.0</ele><time>2026-05-01T12:02:53.382Z</time></trkpt><trkpt lat="44.5169927" lon="5.7547008"><ele>756.0</ele><time>2026-05-01T12:02:54.382Z</time></trkpt><trkpt lat="44.5172491" lon="5.7545412"><ele>755.5</ele><time>2026-05-01T12:02:55.382Z</time></trkpt><trkpt lat="44.5175081" lon="5.7543809"><ele>755.0</ele><time>2026-05-01T12:02:56.382Z</time></trkpt><trkpt lat="44.5177622" lon="5.7542244"><ele>756.5</ele><time>2026-05-01T12:02:57.382Z</time></trkpt><trkpt lat="44.5180038" lon="5.7540744"><ele>758.0</ele><time>2026-05-01T12:02:58.382Z</time></trkpt><trkpt lat="44.5182366" lon="5.7539291"><ele>758.0</ele><time>2026-05-01T12:02:59.382Z</time></trkpt><trkpt lat="44.5184576" lon="5.7537934"><ele>758.0</ele><time>2026-05-01T12:03:00.382Z</time></trkpt><trkpt lat="44.5186686" lon="5.7536651"><ele>758.3333333333333</ele><time>2026-05-01T12:03:01.382Z</time></trkpt><trkpt lat="44.5188684" lon="5.753546"><ele>758.6666666666666</ele><time>2026-05-01T12:03:02.382Z</time></trkpt><trkpt lat="44.5190545" lon="5.7534354"><ele>759.0</ele><time>2026-05-01T12:03:03.382Z</time></trkpt><trkpt lat="44.5192228" lon="5.7533302"><ele>759.0</ele><time>2026-05-01T12:03:04.382Z</time></trkpt><trkpt lat="44.5193762" lon="5.7532336"><ele>759.0</ele><time>2026-05-01T12:03:05.383Z</time></trkpt><trkpt lat="44.5195117" lon="5.7531493"><ele>759.0</ele><time>2026-05-01T12:03:06.382Z</time></trkpt><trkpt lat="44.5196431" lon="5.7530708"><ele>759.5</ele><time>2026-05-01T12:03:07.382Z</time></trkpt><trkpt lat="44.5197734" lon="5.7529988"><ele>760.0</ele><time>2026-05-01T12:03:08.382Z</time></trkpt><trkpt lat="44.5199017" lon="5.7529202"><ele>760.5</ele><time>2026-05-01T12:03:09.382Z</time></trkpt><trkpt lat="44.5200309" lon="5.7528404"><ele>761.0</ele><time>2026-05-01T12:03:10.382Z</time></trkpt><trkpt lat="44.5201602" lon="5.7527656"><ele>761.25</ele><time>2026-05-01T12:03:11.382Z</time></trkpt><trkpt lat="44.5202844" lon="5.7526819"><ele>761.5</ele><time>2026-05-01T12:03:12.382Z</time></trkpt><trkpt lat="44.5203924" lon="5.7525711"><ele>761.75</ele><time>2026-05-01T12:03:13.382Z</time></trkpt><trkpt lat="44.5204788" lon="5.7524274"><ele>762.0</ele><time>2026-05-01T12:03:14.383Z</time></trkpt><trkpt lat="44.5205358" lon="5.7522621"><ele>763.25</ele><time>2026-05-01T12:03:15.382Z</time></trkpt><trkpt lat="44.5205619" lon="5.7520839"><ele>764.5</ele><time>2026-05-01T12:03:16.383Z</time></trkpt><trkpt lat="44.5205721" lon="5.7519"><ele>765.75</ele><time>2026-05-01T12:03:17.382Z</time></trkpt><trkpt lat="44.5205734" lon="5.7517337"><ele>767.0</ele><time>2026-05-01T12:03:18.382Z</time></trkpt><trkpt lat="44.5205781" lon="5.7515769"><ele>767.2</ele><time>2026-05-01T12:03:19.382Z</time></trkpt><trkpt lat="44.5205946" lon="5.7514254"><ele>767.4000000000001</ele><time>2026-05-01T12:03:20.383Z</time></trkpt><trkpt lat="44.5206203" lon="5.7512843"><ele>767.5999999999999</ele><time>2026-05-01T12:03:21.383Z</time></trkpt><trkpt lat="44.5206359" lon="5.7511512"><ele>767.8</ele><time>2026-05-01T12:03:22.382Z</time></trkpt><trkpt lat="44.5206287" lon="5.7510178"><ele>768.0</ele><time>2026-05-01T12:03:23.382Z</time></trkpt><trkpt lat="44.5205981" lon="5.7508948"><ele>768.0</ele><time>2026-05-01T12:03:24.382Z</time></trkpt><trkpt lat="44.520564" lon="5.7507675"><ele>768.0</ele><time>2026-05-01T12:03:25.382Z</time></trkpt><trkpt lat="44.5205328" lon="5.7506309"><ele>768.0</ele><time>2026-05-01T12:03:26.382Z</time></trkpt><trkpt lat="44.5205107" lon="5.7504964"><ele>768.0</ele><time>2026-05-01T12:03:27.382Z</time></trkpt><trkpt lat="44.5205119" lon="5.7503791"><ele>768.0</ele><time>2026-05-01T12:03:28.382Z</time></trkpt><trkpt lat="44.5205329" lon="5.750286"><ele>768.1666666666666</ele><time>2026-05-01T12:03:29.382Z</time></trkpt><trkpt lat="44.5205693" lon="5.7502054"><ele>768.3333333333333</ele><time>2026-05-01T12:03:30.382Z</time></trkpt><trkpt lat="44.5206142" lon="5.7501349"><ele>768.5</ele><time>2026-05-01T12:03:31.382Z</time></trkpt><trkpt lat="44.5206571" lon="5.7500688"><ele>768.6666666666666</ele><time>2026-05-01T12:03:32.382Z</time></trkpt><trkpt lat="44.5207344" lon="5.7499547"><ele>768.8333333333333</ele><time>2026-05-01T12:03:34.382Z</time></trkpt><trkpt lat="44.5208116" lon="5.7498246"><ele>769.0</ele><time>2026-05-01T12:03:36.382Z</time></trkpt><trkpt lat="44.5208556" lon="5.7497496"><ele>768.9999999999999</ele><time>2026-05-01T12:03:37.382Z</time></trkpt><trkpt lat="44.5209045" lon="5.7496714"><ele>769.0</ele><time>2026-05-01T12:03:38.383Z</time></trkpt><trkpt lat="44.5209612" lon="5.7495904"><ele>769.0</ele><time>2026-05-01T12:03:39.382Z</time></trkpt><trkpt lat="44.5210258" lon="5.7495004"><ele>769.0</ele><time>2026-05-01T12:03:40.382Z</time></trkpt><trkpt lat="44.5210977" lon="5.7494072"><ele>768.9999999999999</ele><time>2026-05-01T12:03:41.382Z</time></trkpt><trkpt lat="44.5211713" lon="5.7493146"><ele>769.0</ele><time>2026-05-01T12:03:42.382Z</time></trkpt><trkpt lat="44.5212473" lon="5.7492289"><ele>770.4000000000001</ele><time>2026-05-01T12:03:43.383Z</time></trkpt><trkpt lat="44.5213296" lon="5.7491518"><ele>771.8</ele><time>2026-05-01T12:03:44.382Z</time></trkpt><trkpt lat="44.5214138" lon="5.749086"><ele>773.2</ele><time>2026-05-01T12:03:45.382Z</time></trkpt><trkpt lat="44.5214972" lon="5.7490291"><ele>774.5999999999999</ele><time>2026-05-01T12:03:46.382Z</time></trkpt><trkpt lat="44.5215841" lon="5.7489754"><ele>776.0</ele><time>2026-05-01T12:03:47.383Z</time></trkpt><trkpt lat="44.5216735" lon="5.7489231"><ele>776.0</ele><time>2026-05-01T12:03:48.382Z</time></trkpt><trkpt lat="44.5217674" lon="5.7488691"><ele>776.0</ele><time>2026-05-01T12:03:49.382Z</time></trkpt><trkpt lat="44.5218712" lon="5.7488142"><ele>776.0</ele><time>2026-05-01T12:03:50.382Z</time></trkpt><trkpt lat="44.5219725" lon="5.7487615"><ele>776.0</ele><time>2026-05-01T12:03:51.383Z</time></trkpt><trkpt lat="44.5220743" lon="5.748706"><ele>776.0</ele><time>2026-05-01T12:03:52.382Z</time></trkpt><trkpt lat="44.5221785" lon="5.7486479"><ele>777.25</ele><time>2026-05-01T12:03:53.382Z</time></trkpt><trkpt lat="44.522282" lon="5.7485926"><ele>778.5</ele><time>2026-05-01T12:03:54.382Z</time></trkpt><trkpt lat="44.5223863" lon="5.748534"><ele>779.75</ele><time>2026-05-01T12:03:55.382Z</time></trkpt><trkpt lat="44.5224936" lon="5.7484719"><ele>781.0</ele><time>2026-05-01T12:03:56.382Z</time></trkpt><trkpt lat="44.5226" lon="5.7484121"><ele>781.0</ele><time>2026-05-01T12:03:57.382Z</time></trkpt><trkpt lat="44.5227115" lon="5.7483492"><ele>781.0</ele><time>2026-05-01T12:03:58.383Z</time></trkpt><trkpt lat="44.5228239" lon="5.7482878"><ele>781.0</ele><time>2026-05-01T12:03:59.382Z</time></trkpt><trkpt lat="44.5229383" lon="5.7482245"><ele>781.0</ele><time>2026-05-01T12:04:00.382Z</time></trkpt><trkpt lat="44.523055" lon="5.7481632"><ele>781.5</ele><time>2026-05-01T12:04:01.383Z</time></trkpt><trkpt lat="44.5231676" lon="5.7481056"><ele>782.0</ele><time>2026-05-01T12:04:02.382Z</time></trkpt><trkpt lat="44.5232785" lon="5.7480449"><ele>782.5</ele><time>2026-05-01T12:04:03.382Z</time></trkpt><trkpt lat="44.5233905" lon="5.7479861"><ele>783.0</ele><time>2026-05-01T12:04:04.382Z</time></trkpt><trkpt lat="44.5235051" lon="5.7479259"><ele>783.0</ele><time>2026-05-01T12:04:05.382Z</time></trkpt><trkpt lat="44.523623" lon="5.7478662"><ele>783.0</ele><time>2026-05-01T12:04:06.383Z</time></trkpt><trkpt lat="44.5237367" lon="5.7477956"><ele>783.0</ele><time>2026-05-01T12:04:07.382Z</time></trkpt><trkpt lat="44.5238421" lon="5.7477035"><ele>783.0</ele><time>2026-05-01T12:04:08.382Z</time></trkpt><trkpt lat="44.5239343" lon="5.7475931"><ele>783.75</ele><time>2026-05-01T12:04:09.383Z</time></trkpt><trkpt lat="44.5240149" lon="5.7474642"><ele>784.5</ele><time>2026-05-01T12:04:10.382Z</time></trkpt><trkpt lat="44.5240917" lon="5.7473216"><ele>785.25</ele><time>2026-05-01T12:04:11.382Z</time></trkpt><trkpt lat="44.5241658" lon="5.7471659"><ele>786.0</ele><time>2026-05-01T12:04:12.382Z</time></trkpt><trkpt lat="44.5242283" lon="5.7469989"><ele>786.25</ele><time>2026-05-01T12:04:13.382Z</time></trkpt><trkpt lat="44.5242726" lon="5.7468268"><ele>786.5</ele><time>2026-05-01T12:04:14.382Z</time></trkpt><trkpt lat="44.5242905" lon="5.7466442"><ele>786.75</ele><time>2026-05-01T12:04:15.382Z</time></trkpt><trkpt lat="44.5242839" lon="5.746445"><ele>787.0</ele><time>2026-05-01T12:04:16.382Z</time></trkpt><trkpt lat="44.5242719" lon="5.7462371"><ele>787.6666666666666</ele><time>2026-05-01T12:04:17.382Z</time></trkpt><trkpt lat="44.5242524" lon="5.7460138"><ele>788.3333333333333</ele><time>2026-05-01T12:04:18.382Z</time></trkpt><trkpt lat="44.5242331" lon="5.7457801"><ele>789.0</ele><time>2026-05-01T12:04:19.382Z</time></trkpt><trkpt lat="44.5242105" lon="5.7455285"><ele>789.0</ele><time>2026-05-01T12:04:20.382Z</time></trkpt><trkpt lat="44.5241869" lon="5.745265"><ele>789.0</ele><time>2026-05-01T12:04:21.382Z</time></trkpt><trkpt lat="44.5241612" lon="5.7449745"><ele>789.0</ele><time>2026-05-01T12:04:22.382Z</time></trkpt><trkpt lat="44.5241341" lon="5.744672"><ele>790.3333333333333</ele><time>2026-05-01T12:04:23.382Z</time></trkpt><trkpt lat="44.5241087" lon="5.7443709"><ele>791.6666666666666</ele><time>2026-05-01T12:04:24.383Z</time></trkpt><trkpt lat="44.5240833" lon="5.7440572"><ele>793.0</ele><time>2026-05-01T12:04:25.383Z</time></trkpt><trkpt lat="44.5240544" lon="5.7437367"><ele>794.0</ele><time>2026-05-01T12:04:26.382Z</time></trkpt><trkpt lat="44.5240262" lon="5.7434097"><ele>795.0</ele><time>2026-05-01T12:04:27.382Z</time></trkpt><trkpt lat="44.5239988" lon="5.743076"><ele>795.0</ele><time>2026-05-01T12:04:28.382Z</time></trkpt><trkpt lat="44.52397" lon="5.7427389"><ele>795.0</ele><time>2026-05-01T12:04:29.382Z</time></trkpt><trkpt lat="44.5239423" lon="5.7424014"><ele>796.5</ele><time>2026-05-01T12:04:30.382Z</time></trkpt><trkpt lat="44.5239142" lon="5.742061"><ele>798.0</ele><time>2026-05-01T12:04:31.383Z</time></trkpt><trkpt lat="44.5238856" lon="5.7417183"><ele>798.5</ele><time>2026-05-01T12:04:32.382Z</time></trkpt><trkpt lat="44.5238559" lon="5.7413732"><ele>799.0</ele><time>2026-05-01T12:04:33.382Z</time></trkpt><trkpt lat="44.5238272" lon="5.7410274"><ele>799.5</ele><time>2026-05-01T12:04:34.383Z</time></trkpt><trkpt lat="44.5237999" lon="5.7406787"><ele>800.0</ele><time>2026-05-01T12:04:35.382Z</time></trkpt><trkpt lat="44.5237733" lon="5.7403291"><ele>800.5</ele><time>2026-05-01T12:04:36.382Z</time></trkpt><trkpt lat="44.5237464" lon="5.7399814"><ele>801.0</ele><time>2026-05-01T12:04:37.382Z</time></trkpt><trkpt lat="44.523717" lon="5.7396365"><ele>796.0</ele><time>2026-05-01T12:04:38.383Z</time></trkpt><trkpt lat="44.5236885" lon="5.7392962"><ele>791.0</ele><time>2026-05-01T12:04:39.382Z</time></trkpt><trkpt lat="44.5236605" lon="5.7389706"><ele>791.0</ele><time>2026-05-01T12:04:40.382Z</time></trkpt><trkpt lat="44.5236347" lon="5.738658"><ele>791.0</ele><time>2026-05-01T12:04:41.382Z</time></trkpt><trkpt lat="44.5236118" lon="5.7383701"><ele>791.0</ele><time>2026-05-01T12:04:42.382Z</time></trkpt><trkpt lat="44.5235898" lon="5.7381039"><ele>792.0</ele><time>2026-05-01T12:04:43.382Z</time></trkpt><trkpt lat="44.5235688" lon="5.7378429"><ele>793.0</ele><time>2026-05-01T12:04:44.383Z</time></trkpt><trkpt lat="44.5235486" lon="5.7375895"><ele>794.0</ele><time>2026-05-01T12:04:45.382Z</time></trkpt><trkpt lat="44.5235288" lon="5.7373442"><ele>794.6666666666667</ele><time>2026-05-01T12:04:46.382Z</time></trkpt><trkpt lat="44.5235041" lon="5.7371022"><ele>795.3333333333333</ele><time>2026-05-01T12:04:47.382Z</time></trkpt><trkpt lat="44.5234806" lon="5.7368573"><ele>796.0</ele><time>2026-05-01T12:04:48.383Z</time></trkpt><trkpt lat="44.5234602" lon="5.7366046"><ele>796.3333333333333</ele><time>2026-05-01T12:04:49.382Z</time></trkpt><trkpt lat="44.5234379" lon="5.7363378"><ele>796.6666666666667</ele><time>2026-05-01T12:04:50.382Z</time></trkpt><trkpt lat="44.5234145" lon="5.7360693"><ele>797.0</ele><time>2026-05-01T12:04:51.382Z</time></trkpt><trkpt lat="44.5233918" lon="5.7357948"><ele>798.3333333333334</ele><time>2026-05-01T12:04:52.382Z</time></trkpt><trkpt lat="44.5233693" lon="5.7355185"><ele>799.6666666666667</ele><time>2026-05-01T12:04:53.382Z</time></trkpt><trkpt lat="44.523348" lon="5.735242"><ele>801.0</ele><time>2026-05-01T12:04:54.382Z</time></trkpt><trkpt lat="44.5233262" lon="5.7349592"><ele>802.0</ele><time>2026-05-01T12:04:55.382Z</time></trkpt><trkpt lat="44.523304" lon="5.7346714"><ele>803.0</ele><time>2026-05-01T12:04:56.382Z</time></trkpt><trkpt lat="44.5232799" lon="5.7343794"><ele>804.0</ele><time>2026-05-01T12:04:57.383Z</time></trkpt><trkpt lat="44.5232543" lon="5.7340842"><ele>804.3333333333333</ele><time>2026-05-01T12:04:58.382Z</time></trkpt><trkpt lat="44.5232283" lon="5.7337841"><ele>804.6666666666666</ele><time>2026-05-01T12:04:59.383Z</time></trkpt><trkpt lat="44.5232017" lon="5.7334813"><ele>805.0</ele><time>2026-05-01T12:05:00.382Z</time></trkpt><trkpt lat="44.5231732" lon="5.733172"><ele>805.0</ele><time>2026-05-01T12:05:01.383Z</time></trkpt><trkpt lat="44.523145" lon="5.7328548"><ele>805.0</ele><time>2026-05-01T12:05:02.382Z</time></trkpt><trkpt lat="44.5231162" lon="5.7325299"><ele>805.5</ele><time>2026-05-01T12:05:03.383Z</time></trkpt><trkpt lat="44.5230877" lon="5.7321973"><ele>806.0</ele><time>2026-05-01T12:05:04.382Z</time></trkpt><trkpt lat="44.523062" lon="5.7318621"><ele>806.0</ele><time>2026-05-01T12:05:05.382Z</time></trkpt><trkpt lat="44.5230376" lon="5.7315273"><ele>806.0</ele><time>2026-05-01T12:05:06.383Z</time></trkpt><trkpt lat="44.5230133" lon="5.7312012"><ele>807.3333333333334</ele><time>2026-05-01T12:05:07.382Z</time></trkpt><trkpt lat="44.522989" lon="5.7308905"><ele>808.6666666666667</ele><time>2026-05-01T12:05:08.383Z</time></trkpt><trkpt lat="44.522965" lon="5.7305954"><ele>810.0</ele><time>2026-05-01T12:05:09.382Z</time></trkpt><trkpt lat="44.5229442" lon="5.7303188"><ele>812.3333333333333</ele><time>2026-05-01T12:05:10.382Z</time></trkpt><trkpt lat="44.5229271" lon="5.730059"><ele>814.6666666666666</ele><time>2026-05-01T12:05:11.382Z</time></trkpt><trkpt lat="44.5229093" lon="5.7298205"><ele>817.0</ele><time>2026-05-01T12:05:12.382Z</time></trkpt><trkpt lat="44.522879" lon="5.7296003"><ele>817.75</ele><time>2026-05-01T12:05:13.382Z</time></trkpt><trkpt lat="44.5228243" lon="5.729408"><ele>818.5</ele><time>2026-05-01T12:05:14.382Z</time></trkpt><trkpt lat="44.5227505" lon="5.7292401"><ele>819.25</ele><time>2026-05-01T12:05:15.382Z</time></trkpt><trkpt lat="44.5226607" lon="5.7290955"><ele>820.0</ele><time>2026-05-01T12:05:16.384Z</time></trkpt><trkpt lat="44.5225542" lon="5.7289702"><ele>820.0</ele><time>2026-05-01T12:05:17.382Z</time></trkpt><trkpt lat="44.5224362" lon="5.7288675"><ele>820.0</ele><time>2026-05-01T12:05:18.383Z</time></trkpt><trkpt lat="44.5223068" lon="5.7287886"><ele>820.0</ele><time>2026-05-01T12:05:19.382Z</time></trkpt><trkpt lat="44.5221649" lon="5.7287392"><ele>820.0</ele><time>2026-05-01T12:05:20.382Z</time></trkpt><trkpt lat="44.5220112" lon="5.72872"><ele>819.0</ele><time>2026-05-01T12:05:21.382Z</time></trkpt><trkpt lat="44.521848" lon="5.7287224"><ele>818.0</ele><time>2026-05-01T12:05:22.382Z</time></trkpt><trkpt lat="44.5216703" lon="5.728751"><ele>817.0</ele><time>2026-05-01T12:05:23.383Z</time></trkpt><trkpt lat="44.5214772" lon="5.7287815"><ele>817.0</ele><time>2026-05-01T12:05:24.382Z</time></trkpt><trkpt lat="44.5212705" lon="5.7288"><ele>817.0</ele><time>2026-05-01T12:05:25.382Z</time></trkpt><trkpt lat="44.5210534" lon="5.7288126"><ele>817.0</ele><time>2026-05-01T12:05:26.383Z</time></trkpt><trkpt lat="44.520839" lon="5.7288235"><ele>816.0</ele><time>2026-05-01T12:05:27.382Z</time></trkpt><trkpt lat="44.5206266" lon="5.7288378"><ele>815.0</ele><time>2026-05-01T12:05:28.382Z</time></trkpt><trkpt lat="44.5204174" lon="5.7288515"><ele>814.0</ele><time>2026-05-01T12:05:29.383Z</time></trkpt><trkpt lat="44.5202119" lon="5.7288664"><ele>812.0</ele><time>2026-05-01T12:05:30.382Z</time></trkpt><trkpt lat="44.5200202" lon="5.7288787"><ele>810.0</ele><time>2026-05-01T12:05:31.382Z</time></trkpt><trkpt lat="44.5198556" lon="5.7288868"><ele>808.0</ele><time>2026-05-01T12:05:32.382Z</time></trkpt><trkpt lat="44.5197129" lon="5.7288891"><ele>808.0</ele><time>2026-05-01T12:05:33.382Z</time></trkpt><trkpt lat="44.5195843" lon="5.7288629"><ele>808.0</ele><time>2026-05-01T12:05:34.382Z</time></trkpt><trkpt lat="44.5194551" lon="5.7287975"><ele>808.0</ele><time>2026-05-01T12:05:35.383Z</time></trkpt><trkpt lat="44.5193336" lon="5.7286847"><ele>808.0</ele><time>2026-05-01T12:05:36.383Z</time></trkpt><trkpt lat="44.5192231" lon="5.728532"><ele>804.6666666666666</ele><time>2026-05-01T12:05:37.383Z</time></trkpt><trkpt lat="44.5191193" lon="5.7283486"><ele>801.3333333333333</ele><time>2026-05-01T12:05:38.382Z</time></trkpt><trkpt lat="44.5190156" lon="5.728142"><ele>798.0</ele><time>2026-05-01T12:05:39.382Z</time></trkpt><trkpt lat="44.5189081" lon="5.7279435"><ele>798.0</ele><time>2026-05-01T12:05:40.382Z</time></trkpt><trkpt lat="44.5187892" lon="5.7277727"><ele>798.0</ele><time>2026-05-01T12:05:41.382Z</time></trkpt><trkpt lat="44.5186483" lon="5.727621"><ele>798.0</ele><time>2026-05-01T12:05:42.384Z</time></trkpt><trkpt lat="44.5184784" lon="5.7274841"><ele>798.3333333333333</ele><time>2026-05-01T12:05:43.382Z</time></trkpt><trkpt lat="44.5182931" lon="5.7273484"><ele>798.6666666666666</ele><time>2026-05-01T12:05:44.382Z</time></trkpt><trkpt lat="44.5180983" lon="5.7272075"><ele>799.0</ele><time>2026-05-01T12:05:45.382Z</time></trkpt><trkpt lat="44.5178959" lon="5.7270651"><ele>798.3333333333333</ele><time>2026-05-01T12:05:46.382Z</time></trkpt><trkpt lat="44.5176983" lon="5.7269249"><ele>797.6666666666667</ele><time>2026-05-01T12:05:47.382Z</time></trkpt><trkpt lat="44.5175122" lon="5.726792"><ele>797.0</ele><time>2026-05-01T12:05:48.382Z</time></trkpt><trkpt lat="44.5173327" lon="5.7266674"><ele>797.6666666666667</ele><time>2026-05-01T12:05:49.382Z</time></trkpt><trkpt lat="44.5171594" lon="5.7265608"><ele>798.3333333333333</ele><time>2026-05-01T12:05:50.383Z</time></trkpt><trkpt lat="44.516993" lon="5.7264763"><ele>799.0</ele><time>2026-05-01T12:05:51.382Z</time></trkpt><trkpt lat="44.5168314" lon="5.7264214"><ele>799.0</ele><time>2026-05-01T12:05:52.382Z</time></trkpt><trkpt lat="44.5166743" lon="5.7264063"><ele>799.0</ele><time>2026-05-01T12:05:53.383Z</time></trkpt><trkpt lat="44.5165252" lon="5.726416"><ele>799.0</ele><time>2026-05-01T12:05:54.382Z</time></trkpt><trkpt lat="44.5163849" lon="5.726438"><ele>799.0</ele><time>2026-05-01T12:05:55.382Z</time></trkpt><trkpt lat="44.5162497" lon="5.7264588"><ele>799.0</ele><time>2026-05-01T12:05:56.382Z</time></trkpt><trkpt lat="44.5161145" lon="5.7264638"><ele>799.0</ele><time>2026-05-01T12:05:57.382Z</time></trkpt><trkpt lat="44.515979" lon="5.7264352"><ele>799.0</ele><time>2026-05-01T12:05:58.383Z</time></trkpt><trkpt lat="44.5158498" lon="5.7263693"><ele>799.0</ele><time>2026-05-01T12:05:59.382Z</time></trkpt><trkpt lat="44.5157355" lon="5.7262594"><ele>799.0</ele><time>2026-05-01T12:06:00.382Z</time></trkpt><trkpt lat="44.5156486" lon="5.7261116"><ele>799.0</ele><time>2026-05-01T12:06:01.382Z</time></trkpt><trkpt lat="44.5155938" lon="5.7259439"><ele>799.0</ele><time>2026-05-01T12:06:02.383Z</time></trkpt><trkpt lat="44.5155723" lon="5.7257622"><ele>799.0</ele><time>2026-05-01T12:06:03.382Z</time></trkpt><trkpt lat="44.5155847" lon="5.7255761"><ele>799.6666666666666</ele><time>2026-05-01T12:06:04.383Z</time></trkpt><trkpt lat="44.5156307" lon="5.7253879"><ele>800.3333333333333</ele><time>2026-05-01T12:06:05.382Z</time></trkpt><trkpt lat="44.5157078" lon="5.7251989"><ele>801.0</ele><time>2026-05-01T12:06:06.382Z</time></trkpt><trkpt lat="44.5158169" lon="5.7250087"><ele>801.0</ele><time>2026-05-01T12:06:07.382Z</time></trkpt><trkpt lat="44.5159382" lon="5.7248195"><ele>801.0</ele><time>2026-05-01T12:06:08.382Z</time></trkpt><trkpt lat="44.5160559" lon="5.7246233"><ele>801.0</ele><time>2026-05-01T12:06:09.383Z</time></trkpt><trkpt lat="44.5161628" lon="5.7244276"><ele>801.0</ele><time>2026-05-01T12:06:10.382Z</time></trkpt><trkpt lat="44.5162514" lon="5.724223"><ele>801.0</ele><time>2026-05-01T12:06:11.383Z</time></trkpt><trkpt lat="44.5163179" lon="5.7240048"><ele>801.0</ele><time>2026-05-01T12:06:12.382Z</time></trkpt><trkpt lat="44.5163573" lon="5.7237741"><ele>798.6666666666667</ele><time>2026-05-01T12:06:13.382Z</time></trkpt><trkpt lat="44.5163723" lon="5.7235357"><ele>796.3333333333334</ele><time>2026-05-01T12:06:14.383Z</time></trkpt><trkpt lat="44.5163867" lon="5.7232976"><ele>794.0</ele><time>2026-05-01T12:06:15.382Z</time></trkpt><trkpt lat="44.5164175" lon="5.7230665"><ele>794.0</ele><time>2026-05-01T12:06:16.382Z</time></trkpt><trkpt lat="44.5164636" lon="5.7228451"><ele>794.0</ele><time>2026-05-01T12:06:17.382Z</time></trkpt><trkpt lat="44.5165165" lon="5.722639"><ele>794.0</ele><time>2026-05-01T12:06:18.382Z</time></trkpt><trkpt lat="44.5165498" lon="5.7224445"><ele>792.5</ele><time>2026-05-01T12:06:19.382Z</time></trkpt><trkpt lat="44.5165606" lon="5.7222578"><ele>791.0</ele><time>2026-05-01T12:06:20.383Z</time></trkpt><trkpt lat="44.5165506" lon="5.7220719"><ele>789.5</ele><time>2026-05-01T12:06:21.383Z</time></trkpt><trkpt lat="44.5165107" lon="5.7218863"><ele>788.0</ele><time>2026-05-01T12:06:22.382Z</time></trkpt><trkpt lat="44.5164342" lon="5.7217037"><ele>787.3333333333334</ele><time>2026-05-01T12:06:23.382Z</time></trkpt><trkpt lat="44.5163182" lon="5.7215309"><ele>786.6666666666667</ele><time>2026-05-01T12:06:24.382Z</time></trkpt><trkpt lat="44.5161769" lon="5.7213563"><ele>786.0</ele><time>2026-05-01T12:06:25.382Z</time></trkpt><trkpt lat="44.5160395" lon="5.7211863"><ele>788.3333333333333</ele><time>2026-05-01T12:06:26.382Z</time></trkpt><trkpt lat="44.515931" lon="5.7210048"><ele>790.6666666666666</ele><time>2026-05-01T12:06:27.382Z</time></trkpt><trkpt lat="44.5158502" lon="5.7207944"><ele>793.0</ele><time>2026-05-01T12:06:28.382Z</time></trkpt><trkpt lat="44.5157999" lon="5.7205613"><ele>793.0</ele><time>2026-05-01T12:06:29.382Z</time></trkpt><trkpt lat="44.5157823" lon="5.7203121"><ele>793.0</ele><time>2026-05-01T12:06:30.383Z</time></trkpt><trkpt lat="44.5157896" lon="5.7200432"><ele>793.0</ele><time>2026-05-01T12:06:31.382Z</time></trkpt><trkpt lat="44.5158017" lon="5.719767"><ele>795.3333333333333</ele><time>2026-05-01T12:06:32.383Z</time></trkpt><trkpt lat="44.5158179" lon="5.7194955"><ele>797.6666666666667</ele><time>2026-05-01T12:06:33.382Z</time></trkpt><trkpt lat="44.5158482" lon="5.7192187"><ele>800.0</ele><time>2026-05-01T12:06:34.382Z</time></trkpt><trkpt lat="44.5159018" lon="5.7189484"><ele>800.6666666666667</ele><time>2026-05-01T12:06:35.383Z</time></trkpt><trkpt lat="44.5159724" lon="5.7186826"><ele>801.3333333333333</ele><time>2026-05-01T12:06:36.383Z</time></trkpt><trkpt lat="44.5160517" lon="5.7184124"><ele>802.0</ele><time>2026-05-01T12:06:37.382Z</time></trkpt><trkpt lat="44.5161373" lon="5.7181314"><ele>802.0</ele><time>2026-05-01T12:06:38.382Z</time></trkpt><trkpt lat="44.5162302" lon="5.7178362"><ele>802.0</ele><time>2026-05-01T12:06:39.382Z</time></trkpt><trkpt lat="44.516327" lon="5.7175333"><ele>802.0</ele><time>2026-05-01T12:06:40.382Z</time></trkpt><trkpt lat="44.5164278" lon="5.7172195"><ele>802.0</ele><time>2026-05-01T12:06:41.382Z</time></trkpt><trkpt lat="44.5165341" lon="5.7168862"><ele>800.0</ele><time>2026-05-01T12:06:42.382Z</time></trkpt><trkpt lat="44.5166421" lon="5.7165429"><ele>798.0</ele><time>2026-05-01T12:06:43.382Z</time></trkpt><trkpt lat="44.5167483" lon="5.7161975"><ele>797.5</ele><time>2026-05-01T12:06:44.383Z</time></trkpt><trkpt lat="44.5168573" lon="5.7158424"><ele>797.0</ele><time>2026-05-01T12:06:45.383Z</time></trkpt><trkpt lat="44.5169706" lon="5.7154852"><ele>798.5</ele><time>2026-05-01T12:06:46.382Z</time></trkpt><trkpt lat="44.5170833" lon="5.7151269"><ele>800.0</ele><time>2026-05-01T12:06:47.382Z</time></trkpt><trkpt lat="44.5171967" lon="5.7147683"><ele>800.0</ele><time>2026-05-01T12:06:48.382Z</time></trkpt><trkpt lat="44.5173082" lon="5.71441"><ele>800.0</ele><time>2026-05-01T12:06:49.383Z</time></trkpt><trkpt lat="44.5174198" lon="5.7140528"><ele>800.5</ele><time>2026-05-01T12:06:50.382Z</time></trkpt><trkpt lat="44.5175313" lon="5.7137013"><ele>801.0</ele><time>2026-05-01T12:06:51.382Z</time></trkpt><trkpt lat="44.5176429" lon="5.7133524"><ele>801.0</ele><time>2026-05-01T12:06:52.382Z</time></trkpt><trkpt lat="44.517754" lon="5.7130061"><ele>801.0</ele><time>2026-05-01T12:06:53.384Z</time></trkpt><trkpt lat="44.5178635" lon="5.712662"><ele>803.0</ele><time>2026-05-01T12:06:54.382Z</time></trkpt><trkpt lat="44.5179724" lon="5.71232"><ele>805.0</ele><time>2026-05-01T12:06:55.382Z</time></trkpt><trkpt lat="44.5180799" lon="5.7119792"><ele>805.0</ele><time>2026-05-01T12:06:56.382Z</time></trkpt><trkpt lat="44.5181865" lon="5.7116401"><ele>805.0</ele><time>2026-05-01T12:06:57.382Z</time></trkpt><trkpt lat="44.5182915" lon="5.7113007"><ele>805.5</ele><time>2026-05-01T12:06:58.382Z</time></trkpt><trkpt lat="44.5183961" lon="5.7109641"><ele>806.0</ele><time>2026-05-01T12:06:59.382Z</time></trkpt><trkpt lat="44.5185009" lon="5.7106296"><ele>806.0</ele><time>2026-05-01T12:07:00.383Z</time></trkpt><trkpt lat="44.5186044" lon="5.7103023"><ele>806.0</ele><time>2026-05-01T12:07:01.382Z</time></trkpt><trkpt lat="44.5187063" lon="5.7099774"><ele>804.5</ele><time>2026-05-01T12:07:02.382Z</time></trkpt><trkpt lat="44.5188082" lon="5.7096591"><ele>803.0</ele><time>2026-05-01T12:07:03.382Z</time></trkpt><trkpt lat="44.5189067" lon="5.7093492"><ele>802.5</ele><time>2026-05-01T12:07:04.382Z</time></trkpt><trkpt lat="44.5189995" lon="5.7090452"><ele>802.0</ele><time>2026-05-01T12:07:05.382Z</time></trkpt><trkpt lat="44.5190859" lon="5.7087573"><ele>801.3333333333333</ele><time>2026-05-01T12:07:06.382Z</time></trkpt><trkpt lat="44.5191714" lon="5.7084987"><ele>800.6666666666667</ele><time>2026-05-01T12:07:07.382Z</time></trkpt><trkpt lat="44.5192733" lon="5.708279"><ele>800.0</ele><time>2026-05-01T12:07:08.382Z</time></trkpt><trkpt lat="44.5194013" lon="5.7080849"><ele>800.0</ele><time>2026-05-01T12:07:09.382Z</time></trkpt><trkpt lat="44.5195411" lon="5.7079222"><ele>800.0</ele><time>2026-05-01T12:07:10.382Z</time></trkpt><trkpt lat="44.5196834" lon="5.707773"><ele>800.0</ele><time>2026-05-01T12:07:11.382Z</time></trkpt><trkpt lat="44.5198127" lon="5.7076257"><ele>798.3333333333334</ele><time>2026-05-01T12:07:12.383Z</time></trkpt><trkpt lat="44.5199163" lon="5.7074652"><ele>796.6666666666667</ele><time>2026-05-01T12:07:13.382Z</time></trkpt><trkpt lat="44.5199867" lon="5.7072823"><ele>795.0</ele><time>2026-05-01T12:07:14.382Z</time></trkpt><trkpt lat="44.5200268" lon="5.7070803"><ele>794.0</ele><time>2026-05-01T12:07:15.382Z</time></trkpt><trkpt lat="44.5200361" lon="5.7068538"><ele>793.0</ele><time>2026-05-01T12:07:16.382Z</time></trkpt><trkpt lat="44.520029" lon="5.7066038"><ele>792.0</ele><time>2026-05-01T12:07:17.383Z</time></trkpt><trkpt lat="44.5200186" lon="5.7063345"><ele>791.0</ele><time>2026-05-01T12:07:18.382Z</time></trkpt><trkpt lat="44.5200078" lon="5.7060473"><ele>790.0</ele><time>2026-05-01T12:07:19.382Z</time></trkpt><trkpt lat="44.519998" lon="5.7057478"><ele>789.0</ele><time>2026-05-01T12:07:20.382Z</time></trkpt><trkpt lat="44.5199857" lon="5.7054376"><ele>788.0</ele><time>2026-05-01T12:07:21.382Z</time></trkpt><trkpt lat="44.51997" lon="5.705119"><ele>787.0</ele><time>2026-05-01T12:07:22.382Z</time></trkpt><trkpt lat="44.5199535" lon="5.704793"><ele>787.0</ele><time>2026-05-01T12:07:23.382Z</time></trkpt><trkpt lat="44.5199401" lon="5.7044607"><ele>787.0</ele><time>2026-05-01T12:07:24.383Z</time></trkpt><trkpt lat="44.5199307" lon="5.7041399"><ele>786.0</ele><time>2026-05-01T12:07:25.383Z</time></trkpt><trkpt lat="44.5199216" lon="5.7038274"><ele>785.0</ele><time>2026-05-01T12:07:26.383Z</time></trkpt><trkpt lat="44.5199206" lon="5.7035379"><ele>784.0</ele><time>2026-05-01T12:07:27.382Z</time></trkpt><trkpt lat="44.5199396" lon="5.7032593"><ele>783.3333333333333</ele><time>2026-05-01T12:07:28.383Z</time></trkpt><trkpt lat="44.5199838" lon="5.7029775"><ele>782.6666666666667</ele><time>2026-05-01T12:07:29.382Z</time></trkpt><trkpt lat="44.5200559" lon="5.7026959"><ele>782.0</ele><time>2026-05-01T12:07:30.382Z</time></trkpt><trkpt lat="44.5201416" lon="5.7024269"><ele>781.6666666666667</ele><time>2026-05-01T12:07:31.383Z</time></trkpt><trkpt lat="44.5202265" lon="5.7021707"><ele>781.3333333333333</ele><time>2026-05-01T12:07:32.382Z</time></trkpt><trkpt lat="44.5203147" lon="5.7019278"><ele>781.0</ele><time>2026-05-01T12:07:33.382Z</time></trkpt><trkpt lat="44.5204218" lon="5.7016922"><ele>780.6666666666666</ele><time>2026-05-01T12:07:34.382Z</time></trkpt><trkpt lat="44.5205466" lon="5.7014591"><ele>780.3333333333333</ele><time>2026-05-01T12:07:35.382Z</time></trkpt><trkpt lat="44.5206792" lon="5.7012237"><ele>780.0</ele><time>2026-05-01T12:07:36.382Z</time></trkpt><trkpt lat="44.5208142" lon="5.7009818"><ele>779.6666666666667</ele><time>2026-05-01T12:07:37.382Z</time></trkpt><trkpt lat="44.5209502" lon="5.700737"><ele>779.3333333333334</ele><time>2026-05-01T12:07:38.383Z</time></trkpt><trkpt lat="44.5210899" lon="5.7004883"><ele>779.0</ele><time>2026-05-01T12:07:39.382Z</time></trkpt><trkpt lat="44.5212315" lon="5.7002339"><ele>779.5</ele><time>2026-05-01T12:07:40.383Z</time></trkpt><trkpt lat="44.5213759" lon="5.6999773"><ele>780.0</ele><time>2026-05-01T12:07:41.383Z</time></trkpt><trkpt lat="44.5215198" lon="5.6997191"><ele>780.0</ele><time>2026-05-01T12:07:42.382Z</time></trkpt><trkpt lat="44.5216632" lon="5.699464"><ele>780.0</ele><time>2026-05-01T12:07:43.383Z</time></trkpt><trkpt lat="44.5218096" lon="5.6992089"><ele>780.5</ele><time>2026-05-01T12:07:44.383Z</time></trkpt><trkpt lat="44.5219539" lon="5.6989529"><ele>781.0</ele><time>2026-05-01T12:07:45.382Z</time></trkpt><trkpt lat="44.522097" lon="5.6986951"><ele>779.5</ele><time>2026-05-01T12:07:46.382Z</time></trkpt><trkpt lat="44.5222399" lon="5.6984385"><ele>778.0</ele><time>2026-05-01T12:07:47.383Z</time></trkpt><trkpt lat="44.5223819" lon="5.6981818"><ele>778.0</ele><time>2026-05-01T12:07:48.382Z</time></trkpt><trkpt lat="44.5225233" lon="5.6979276"><ele>778.0</ele><time>2026-05-01T12:07:49.382Z</time></trkpt><trkpt lat="44.5226634" lon="5.6976763"><ele>777.6666666666666</ele><time>2026-05-01T12:07:50.382Z</time></trkpt><trkpt lat="44.5228004" lon="5.6974291"><ele>777.3333333333333</ele><time>2026-05-01T12:07:51.383Z</time></trkpt><trkpt lat="44.5229327" lon="5.6971924"><ele>777.0</ele><time>2026-05-01T12:07:52.382Z</time></trkpt><trkpt lat="44.523061" lon="5.6969627"><ele>777.3333333333333</ele><time>2026-05-01T12:07:53.382Z</time></trkpt><trkpt lat="44.5231842" lon="5.6967392"><ele>777.6666666666666</ele><time>2026-05-01T12:07:54.383Z</time></trkpt><trkpt lat="44.5233057" lon="5.6965186"><ele>778.0</ele><time>2026-05-01T12:07:55.383Z</time></trkpt><trkpt lat="44.523423" lon="5.6963048"><ele>778.0</ele><time>2026-05-01T12:07:56.383Z</time></trkpt><trkpt lat="44.5235364" lon="5.6960973"><ele>778.0</ele><time>2026-05-01T12:07:57.382Z</time></trkpt><trkpt lat="44.5236482" lon="5.6958938"><ele>778.0</ele><time>2026-05-01T12:07:58.382Z</time></trkpt><trkpt lat="44.5237599" lon="5.6956913"><ele>778.0</ele><time>2026-05-01T12:07:59.382Z</time></trkpt><trkpt lat="44.52387" lon="5.6954936"><ele>778.0</ele><time>2026-05-01T12:08:00.382Z</time></trkpt><trkpt lat="44.5239818" lon="5.6952953"><ele>778.0</ele><time>2026-05-01T12:08:01.382Z</time></trkpt><trkpt lat="44.5240956" lon="5.6950959"><ele>778.0</ele><time>2026-05-01T12:08:02.382Z</time></trkpt><trkpt lat="44.5242111" lon="5.6948869"><ele>778.0</ele><time>2026-05-01T12:08:03.383Z</time></trkpt><trkpt lat="44.5243289" lon="5.6946684"><ele>778.0</ele><time>2026-05-01T12:08:04.382Z</time></trkpt><trkpt lat="44.5244524" lon="5.6944428"><ele>779.0</ele><time>2026-05-01T12:08:05.383Z</time></trkpt><trkpt lat="44.5245825" lon="5.6942101"><ele>780.0</ele><time>2026-05-01T12:08:06.383Z</time></trkpt><trkpt lat="44.5247186" lon="5.6939696"><ele>781.0</ele><time>2026-05-01T12:08:07.382Z</time></trkpt><trkpt lat="44.5248583" lon="5.6937222"><ele>780.0</ele><time>2026-05-01T12:08:08.382Z</time></trkpt><trkpt lat="44.5250003" lon="5.6934716"><ele>779.0</ele><time>2026-05-01T12:08:09.382Z</time></trkpt><trkpt lat="44.5251444" lon="5.6932146"><ele>779.0</ele><time>2026-05-01T12:08:10.382Z</time></trkpt><trkpt lat="44.5252911" lon="5.6929516"><ele>779.0</ele><time>2026-05-01T12:08:11.382Z</time></trkpt><trkpt lat="44.5254404" lon="5.6926788"><ele>779.5</ele><time>2026-05-01T12:08:12.383Z</time></trkpt><trkpt lat="44.5255958" lon="5.6924023"><ele>780.0</ele><time>2026-05-01T12:08:13.382Z</time></trkpt><trkpt lat="44.5257531" lon="5.6921169"><ele>779.5</ele><time>2026-05-01T12:08:14.383Z</time></trkpt><trkpt lat="44.5259153" lon="5.691827"><ele>779.0</ele><time>2026-05-01T12:08:15.382Z</time></trkpt><trkpt lat="44.5260778" lon="5.6915373"><ele>780.5</ele><time>2026-05-01T12:08:16.382Z</time></trkpt><trkpt lat="44.5262413" lon="5.691242"><ele>782.0</ele><time>2026-05-01T12:08:17.382Z</time></trkpt><trkpt lat="44.5264047" lon="5.6909488"><ele>782.0</ele><time>2026-05-01T12:08:18.382Z</time></trkpt><trkpt lat="44.526563" lon="5.6906633"><ele>782.0</ele><time>2026-05-01T12:08:19.382Z</time></trkpt><trkpt lat="44.5267216" lon="5.6903795"><ele>780.5</ele><time>2026-05-01T12:08:20.383Z</time></trkpt><trkpt lat="44.5268786" lon="5.6900982"><ele>779.0</ele><time>2026-05-01T12:08:21.383Z</time></trkpt><trkpt lat="44.5270342" lon="5.6898174"><ele>781.5</ele><time>2026-05-01T12:08:22.383Z</time></trkpt><trkpt lat="44.5271887" lon="5.689537"><ele>784.0</ele><time>2026-05-01T12:08:23.382Z</time></trkpt><trkpt lat="44.5273431" lon="5.6892567"><ele>784.0</ele><time>2026-05-01T12:08:24.382Z</time></trkpt><trkpt lat="44.5274983" lon="5.688974"><ele>784.0</ele><time>2026-05-01T12:08:25.382Z</time></trkpt><trkpt lat="44.5276541" lon="5.6886898"><ele>783.0</ele><time>2026-05-01T12:08:26.382Z</time></trkpt><trkpt lat="44.5278136" lon="5.6884034"><ele>782.0</ele><time>2026-05-01T12:08:27.382Z</time></trkpt><trkpt lat="44.5279773" lon="5.6881148"><ele>784.5</ele><time>2026-05-01T12:08:28.382Z</time></trkpt><trkpt lat="44.5281401" lon="5.6878182"><ele>787.0</ele><time>2026-05-01T12:08:29.382Z</time></trkpt><trkpt lat="44.5283048" lon="5.6875207"><ele>787.0</ele><time>2026-05-01T12:08:30.383Z</time></trkpt><trkpt lat="44.5284684" lon="5.6872229"><ele>787.0</ele><time>2026-05-01T12:08:31.382Z</time></trkpt><trkpt lat="44.5286354" lon="5.6869253"><ele>787.5</ele><time>2026-05-01T12:08:32.383Z</time></trkpt><trkpt lat="44.5288032" lon="5.6866273"><ele>788.0</ele><time>2026-05-01T12:08:33.382Z</time></trkpt><trkpt lat="44.5289683" lon="5.6863317"><ele>787.0</ele><time>2026-05-01T12:08:34.382Z</time></trkpt><trkpt lat="44.5291352" lon="5.6860374"><ele>786.0</ele><time>2026-05-01T12:08:35.382Z</time></trkpt><trkpt lat="44.5293" lon="5.6857397"><ele>786.0</ele><time>2026-05-01T12:08:36.383Z</time></trkpt><trkpt lat="44.5294612" lon="5.6854499"><ele>786.0</ele><time>2026-05-01T12:08:37.382Z</time></trkpt><trkpt lat="44.5296139" lon="5.6851736"><ele>789.0</ele><time>2026-05-01T12:08:38.382Z</time></trkpt><trkpt lat="44.5297608" lon="5.684904"><ele>792.0</ele><time>2026-05-01T12:08:39.382Z</time></trkpt><trkpt lat="44.5299042" lon="5.6846431"><ele>789.0</ele><time>2026-05-01T12:08:40.383Z</time></trkpt><trkpt lat="44.5300461" lon="5.6843874"><ele>786.0</ele><time>2026-05-01T12:08:41.382Z</time></trkpt><trkpt lat="44.5301908" lon="5.6841312"><ele>786.0</ele><time>2026-05-01T12:08:42.382Z</time></trkpt><trkpt lat="44.5303339" lon="5.6838719"><ele>786.0</ele><time>2026-05-01T12:08:43.382Z</time></trkpt><trkpt lat="44.5304766" lon="5.6836163"><ele>787.0</ele><time>2026-05-01T12:08:44.382Z</time></trkpt><trkpt lat="44.5306277" lon="5.683369"><ele>788.0</ele><time>2026-05-01T12:08:45.382Z</time></trkpt><trkpt lat="44.530787" lon="5.6831332"><ele>788.0</ele><time>2026-05-01T12:08:46.382Z</time></trkpt><trkpt lat="44.5309603" lon="5.6829127"><ele>788.0</ele><time>2026-05-01T12:08:47.382Z</time></trkpt><trkpt lat="44.5311472" lon="5.6827105"><ele>789.0</ele><time>2026-05-01T12:08:48.382Z</time></trkpt><trkpt lat="44.5313432" lon="5.6825167"><ele>790.0</ele><time>2026-05-01T12:08:49.382Z</time></trkpt><trkpt lat="44.5315406" lon="5.6823178"><ele>790.0</ele><time>2026-05-01T12:08:50.383Z</time></trkpt><trkpt lat="44.5317408" lon="5.6821173"><ele>790.0</ele><time>2026-05-01T12:08:51.383Z</time></trkpt><trkpt lat="44.5319404" lon="5.6819142"><ele>789.0</ele><time>2026-05-01T12:08:52.382Z</time></trkpt><trkpt lat="44.532137" lon="5.6817122"><ele>788.0</ele><time>2026-05-01T12:08:53.383Z</time></trkpt><trkpt lat="44.5323261" lon="5.6815181"><ele>788.0</ele><time>2026-05-01T12:08:54.382Z</time></trkpt><trkpt lat="44.5325086" lon="5.6813326"><ele>788.0</ele><time>2026-05-01T12:08:55.382Z</time></trkpt><trkpt lat="44.5326844" lon="5.6811568"><ele>788.0</ele><time>2026-05-01T12:08:56.381Z</time></trkpt><trkpt lat="44.5328478" lon="5.6809903"><ele>788.0</ele><time>2026-05-01T12:08:57.382Z</time></trkpt><trkpt lat="44.5329905" lon="5.6808446"><ele>788.0</ele><time>2026-05-01T12:08:58.382Z</time></trkpt><trkpt lat="44.5331111" lon="5.68071"><ele>788.0</ele><time>2026-05-01T12:08:59.381Z</time></trkpt><trkpt lat="44.5332095" lon="5.680567"><ele>788.0</ele><time>2026-05-01T12:09:00.381Z</time></trkpt><trkpt lat="44.5332832" lon="5.6804078"><ele>788.0</ele><time>2026-05-01T12:09:01.381Z</time></trkpt><trkpt lat="44.5333251" lon="5.6802341"><ele>788.0</ele><time>2026-05-01T12:09:02.381Z</time></trkpt><trkpt lat="44.5333361" lon="5.6800515"><ele>788.0</ele><time>2026-05-01T12:09:03.381Z</time></trkpt><trkpt lat="44.5333155" lon="5.6798619"><ele>788.0</ele><time>2026-05-01T12:09:04.381Z</time></trkpt><trkpt lat="44.5332733" lon="5.679684"><ele>788.0</ele><time>2026-05-01T12:09:05.381Z</time></trkpt><trkpt lat="44.5332181" lon="5.6795176"><ele>788.0</ele><time>2026-05-01T12:09:06.381Z</time></trkpt><trkpt lat="44.5331642" lon="5.6793532"><ele>788.0</ele><time>2026-05-01T12:09:07.381Z</time></trkpt><trkpt lat="44.5331433" lon="5.6791565"><ele>788.0</ele><time>2026-05-01T12:09:08.381Z</time></trkpt><trkpt lat="44.5331584" lon="5.6789563"><ele>788.0</ele><time>2026-05-01T12:09:09.381Z</time></trkpt><trkpt lat="44.5332101" lon="5.6787555"><ele>788.0</ele><time>2026-05-01T12:09:10.381Z</time></trkpt><trkpt lat="44.5332942" lon="5.678564"><ele>788.0</ele><time>2026-05-01T12:09:11.381Z</time></trkpt><trkpt lat="44.5334019" lon="5.6783751"><ele>788.0</ele><time>2026-05-01T12:09:12.382Z</time></trkpt><trkpt lat="44.5335147" lon="5.6781875"><ele>788.0</ele><time>2026-05-01T12:09:13.382Z</time></trkpt><trkpt lat="44.5336297" lon="5.6779858"><ele>787.6666666666667</ele><time>2026-05-01T12:09:14.382Z</time></trkpt><trkpt lat="44.5337441" lon="5.6777789"><ele>787.3333333333333</ele><time>2026-05-01T12:09:15.381Z</time></trkpt><trkpt lat="44.533861" lon="5.6775696"><ele>787.0</ele><time>2026-05-01T12:09:16.382Z</time></trkpt><trkpt lat="44.5339819" lon="5.6773535"><ele>787.0</ele><time>2026-05-01T12:09:17.381Z</time></trkpt><trkpt lat="44.5341074" lon="5.6771287"><ele>787.0</ele><time>2026-05-01T12:09:18.381Z</time></trkpt><trkpt lat="44.5342351" lon="5.6768943"><ele>787.0</ele><time>2026-05-01T12:09:19.381Z</time></trkpt><trkpt lat="44.5343675" lon="5.676654"><ele>787.3333333333333</ele><time>2026-05-01T12:09:20.381Z</time></trkpt><trkpt lat="44.5345037" lon="5.6764097"><ele>787.6666666666667</ele><time>2026-05-01T12:09:21.381Z</time></trkpt><trkpt lat="44.5346395" lon="5.6761598"><ele>788.0</ele><time>2026-05-01T12:09:22.381Z</time></trkpt><trkpt lat="44.534778" lon="5.6759085"><ele>789.0</ele><time>2026-05-01T12:09:23.381Z</time></trkpt><trkpt lat="44.5349177" lon="5.675655"><ele>790.0</ele><time>2026-05-01T12:09:24.381Z</time></trkpt><trkpt lat="44.5350587" lon="5.6753993"><ele>790.5</ele><time>2026-05-01T12:09:25.381Z</time></trkpt><trkpt lat="44.535202" lon="5.6751423"><ele>791.0</ele><time>2026-05-01T12:09:26.381Z</time></trkpt><trkpt lat="44.5353474" lon="5.6748829"><ele>791.5</ele><time>2026-05-01T12:09:27.381Z</time></trkpt><trkpt lat="44.5354946" lon="5.674621"><ele>792.0</ele><time>2026-05-01T12:09:28.381Z</time></trkpt><trkpt lat="44.5356412" lon="5.6743547"><ele>792.5</ele><time>2026-05-01T12:09:29.381Z</time></trkpt><trkpt lat="44.5357894" lon="5.674086"><ele>793.0</ele><time>2026-05-01T12:09:30.381Z</time></trkpt><trkpt lat="44.5359404" lon="5.6738162"><ele>793.0</ele><time>2026-05-01T12:09:31.381Z</time></trkpt><trkpt lat="44.5360914" lon="5.6735442"><ele>793.0</ele><time>2026-05-01T12:09:32.381Z</time></trkpt><trkpt lat="44.536242" lon="5.6732691"><ele>794.0</ele><time>2026-05-01T12:09:33.381Z</time></trkpt><trkpt lat="44.5363951" lon="5.6729932"><ele>795.0</ele><time>2026-05-01T12:09:34.381Z</time></trkpt><trkpt lat="44.5365488" lon="5.6727178"><ele>796.0</ele><time>2026-05-01T12:09:35.381Z</time></trkpt><trkpt lat="44.5367019" lon="5.6724407"><ele>797.0</ele><time>2026-05-01T12:09:36.381Z</time></trkpt><trkpt lat="44.5368559" lon="5.6721631"><ele>797.5</ele><time>2026-05-01T12:09:37.381Z</time></trkpt><trkpt lat="44.5370104" lon="5.6718866"><ele>798.0</ele><time>2026-05-01T12:09:38.382Z</time></trkpt><trkpt lat="44.5371656" lon="5.6716113"><ele>798.0</ele><time>2026-05-01T12:09:39.381Z</time></trkpt><trkpt lat="44.537319" lon="5.6713355"><ele>798.0</ele><time>2026-05-01T12:09:40.382Z</time></trkpt><trkpt lat="44.5374705" lon="5.6710597"><ele>798.5</ele><time>2026-05-01T12:09:41.381Z</time></trkpt><trkpt lat="44.5376211" lon="5.6707834"><ele>799.0</ele><time>2026-05-01T12:09:42.381Z</time></trkpt><trkpt lat="44.5377724" lon="5.6705105"><ele>801.0</ele><time>2026-05-01T12:09:43.382Z</time></trkpt><trkpt lat="44.5379225" lon="5.6702402"><ele>803.0</ele><time>2026-05-01T12:09:44.381Z</time></trkpt><trkpt lat="44.538071" lon="5.6699729"><ele>803.0</ele><time>2026-05-01T12:09:45.382Z</time></trkpt><trkpt lat="44.538219" lon="5.6697066"><ele>803.0</ele><time>2026-05-01T12:09:46.381Z</time></trkpt><trkpt lat="44.5383667" lon="5.669443"><ele>805.0</ele><time>2026-05-01T12:09:47.382Z</time></trkpt><trkpt lat="44.5385144" lon="5.669176"><ele>807.0</ele><time>2026-05-01T12:09:48.381Z</time></trkpt><trkpt lat="44.5386633" lon="5.668907"><ele>808.0</ele><time>2026-05-01T12:09:49.381Z</time></trkpt><trkpt lat="44.5388126" lon="5.6686395"><ele>809.0</ele><time>2026-05-01T12:09:50.382Z</time></trkpt><trkpt lat="44.5389608" lon="5.6683732"><ele>812.0</ele><time>2026-05-01T12:09:51.381Z</time></trkpt><trkpt lat="44.5392597" lon="5.6678499"><ele>812.0</ele><time>2026-05-01T12:09:53.383Z</time></trkpt><trkpt lat="44.5394112" lon="5.6675979"><ele>812.0</ele><time>2026-05-01T12:09:54.381Z</time></trkpt><trkpt lat="44.5395659" lon="5.6673529"><ele>812.0</ele><time>2026-05-01T12:09:55.381Z</time></trkpt><trkpt lat="44.5397404" lon="5.6671217"><ele>812.0</ele><time>2026-05-01T12:09:56.381Z</time></trkpt><trkpt lat="44.5399343" lon="5.6669016"><ele>813.5</ele><time>2026-05-01T12:09:57.381Z</time></trkpt><trkpt lat="44.540143" lon="5.6666901"><ele>815.0</ele><time>2026-05-01T12:09:58.381Z</time></trkpt><trkpt lat="44.5403629" lon="5.6664766"><ele>814.5</ele><time>2026-05-01T12:09:59.381Z</time></trkpt><trkpt lat="44.5405923" lon="5.6662513"><ele>814.0</ele><time>2026-05-01T12:10:00.381Z</time></trkpt><trkpt lat="44.5408311" lon="5.6660139"><ele>814.5</ele><time>2026-05-01T12:10:01.382Z</time></trkpt><trkpt lat="44.541083" lon="5.6657621"><ele>815.0</ele><time>2026-05-01T12:10:02.382Z</time></trkpt><trkpt lat="44.5413438" lon="5.6655045"><ele>816.5</ele><time>2026-05-01T12:10:03.381Z</time></trkpt><trkpt lat="44.5415976" lon="5.6652571"><ele>818.0</ele><time>2026-05-01T12:10:04.381Z</time></trkpt><trkpt lat="44.5418472" lon="5.6650178"><ele>818.0</ele><time>2026-05-01T12:10:05.381Z</time></trkpt><trkpt lat="44.5420921" lon="5.6647791"><ele>818.0</ele><time>2026-05-01T12:10:06.381Z</time></trkpt><trkpt lat="44.5423318" lon="5.6645452"><ele>819.0</ele><time>2026-05-01T12:10:07.382Z</time></trkpt><trkpt lat="44.5425661" lon="5.6643155"><ele>820.0</ele><time>2026-05-01T12:10:08.382Z</time></trkpt><trkpt lat="44.5427941" lon="5.6640879"><ele>820.0</ele><time>2026-05-01T12:10:09.381Z</time></trkpt><trkpt lat="44.5430164" lon="5.6638688"><ele>820.0</ele><time>2026-05-01T12:10:10.381Z</time></trkpt><trkpt lat="44.5432335" lon="5.6636575"><ele>822.0</ele><time>2026-05-01T12:10:11.381Z</time></trkpt><trkpt lat="44.5434473" lon="5.6634519"><ele>824.0</ele><time>2026-05-01T12:10:12.381Z</time></trkpt><trkpt lat="44.5436598" lon="5.663246"><ele>822.5</ele><time>2026-05-01T12:10:13.382Z</time></trkpt><trkpt lat="44.5438725" lon="5.6630389"><ele>821.0</ele><time>2026-05-01T12:10:14.381Z</time></trkpt><trkpt lat="44.544084" lon="5.6628322"><ele>824.0</ele><time>2026-05-01T12:10:15.381Z</time></trkpt><trkpt lat="44.5442955" lon="5.6626255"><ele>827.0</ele><time>2026-05-01T12:10:16.381Z</time></trkpt><trkpt lat="44.5445043" lon="5.6624164"><ele>825.0</ele><time>2026-05-01T12:10:17.381Z</time></trkpt><trkpt lat="44.5447059" lon="5.6622051"><ele>823.0</ele><time>2026-05-01T12:10:18.383Z</time></trkpt><trkpt lat="44.5448905" lon="5.6620044"><ele>824.3333333333333</ele><time>2026-05-01T12:10:19.381Z</time></trkpt><trkpt lat="44.5450521" lon="5.6618197"><ele>825.6666666666667</ele><time>2026-05-01T12:10:20.381Z</time></trkpt><trkpt lat="44.5451877" lon="5.6616444"><ele>827.0</ele><time>2026-05-01T12:10:21.381Z</time></trkpt><trkpt lat="44.5453014" lon="5.6614555"><ele>827.0</ele><time>2026-05-01T12:10:22.382Z</time></trkpt><trkpt lat="44.5453996" lon="5.6612429"><ele>827.0</ele><time>2026-05-01T12:10:23.381Z</time></trkpt><trkpt lat="44.5454828" lon="5.6610189"><ele>827.0</ele><time>2026-05-01T12:10:24.381Z</time></trkpt><trkpt lat="44.5455586" lon="5.6607954"><ele>827.0</ele><time>2026-05-01T12:10:25.381Z</time></trkpt><trkpt lat="44.5456348" lon="5.6605661"><ele>827.0</ele><time>2026-05-01T12:10:26.381Z</time></trkpt><trkpt lat="44.5457129" lon="5.6603348"><ele>827.0</ele><time>2026-05-01T12:10:27.381Z</time></trkpt><trkpt lat="44.545787" lon="5.6601038"><ele>828.6666666666667</ele><time>2026-05-01T12:10:28.381Z</time></trkpt><trkpt lat="44.5458383" lon="5.6598716"><ele>830.3333333333333</ele><time>2026-05-01T12:10:29.381Z</time></trkpt><trkpt lat="44.545857" lon="5.6596421"><ele>832.0</ele><time>2026-05-01T12:10:30.381Z</time></trkpt><trkpt lat="44.5458487" lon="5.6594162"><ele>833.0</ele><time>2026-05-01T12:10:31.381Z</time></trkpt><trkpt lat="44.5458228" lon="5.6591909"><ele>834.0</ele><time>2026-05-01T12:10:32.381Z</time></trkpt><trkpt lat="44.5458058" lon="5.6589797"><ele>835.0</ele><time>2026-05-01T12:10:33.382Z</time></trkpt><trkpt lat="44.5458133" lon="5.6587793"><ele>835.5</ele><time>2026-05-01T12:10:34.381Z</time></trkpt><trkpt lat="44.5458506" lon="5.6585981"><ele>836.0</ele><time>2026-05-01T12:10:35.381Z</time></trkpt><trkpt lat="44.5459123" lon="5.6584506"><ele>836.5</ele><time>2026-05-01T12:10:36.381Z</time></trkpt><trkpt lat="44.5459943" lon="5.658338"><ele>837.0</ele><time>2026-05-01T12:10:37.381Z</time></trkpt><trkpt lat="44.5460852" lon="5.6582487"><ele>837.0</ele><time>2026-05-01T12:10:38.381Z</time></trkpt><trkpt lat="44.5461673" lon="5.6581359"><ele>837.0</ele><time>2026-05-01T12:10:39.382Z</time></trkpt><trkpt lat="44.546225" lon="5.6579826"><ele>837.0</ele><time>2026-05-01T12:10:40.381Z</time></trkpt><trkpt lat="44.5462675" lon="5.657806"><ele>837.0</ele><time>2026-05-01T12:10:41.382Z</time></trkpt><trkpt lat="44.5463111" lon="5.6576084"><ele>836.6666666666667</ele><time>2026-05-01T12:10:42.381Z</time></trkpt><trkpt lat="44.546363" lon="5.6573944"><ele>836.3333333333334</ele><time>2026-05-01T12:10:43.381Z</time></trkpt><trkpt lat="44.5464177" lon="5.6571662"><ele>836.0</ele><time>2026-05-01T12:10:44.381Z</time></trkpt><trkpt lat="44.5464747" lon="5.6569221"><ele>836.6666666666667</ele><time>2026-05-01T12:10:45.381Z</time></trkpt><trkpt lat="44.5465336" lon="5.6566641"><ele>837.3333333333333</ele><time>2026-05-01T12:10:46.381Z</time></trkpt><trkpt lat="44.5465949" lon="5.6563944"><ele>838.0</ele><time>2026-05-01T12:10:47.381Z</time></trkpt><trkpt lat="44.5466662" lon="5.6561172"><ele>838.6666666666666</ele><time>2026-05-01T12:10:48.382Z</time></trkpt><trkpt lat="44.5467399" lon="5.6558294"><ele>839.3333333333333</ele><time>2026-05-01T12:10:49.381Z</time></trkpt><trkpt lat="44.5468121" lon="5.6555264"><ele>840.0</ele><time>2026-05-01T12:10:50.381Z</time></trkpt><trkpt lat="44.5468842" lon="5.655213"><ele>840.5</ele><time>2026-05-01T12:10:51.381Z</time></trkpt><trkpt lat="44.5469593" lon="5.6548894"><ele>841.0</ele><time>2026-05-01T12:10:52.381Z</time></trkpt><trkpt lat="44.5470385" lon="5.6545572"><ele>841.5</ele><time>2026-05-01T12:10:53.383Z</time></trkpt><trkpt lat="44.5471212" lon="5.654214"><ele>842.0</ele><time>2026-05-01T12:10:54.381Z</time></trkpt><trkpt lat="44.5472048" lon="5.6538619"><ele>842.0</ele><time>2026-05-01T12:10:55.381Z</time></trkpt><trkpt lat="44.5472903" lon="5.6535035"><ele>842.0</ele><time>2026-05-01T12:10:56.381Z</time></trkpt><trkpt lat="44.5473761" lon="5.653142"><ele>844.0</ele><time>2026-05-01T12:10:57.382Z</time></trkpt><trkpt lat="44.5474602" lon="5.6527829"><ele>846.0</ele><time>2026-05-01T12:10:58.381Z</time></trkpt><trkpt lat="44.5475437" lon="5.6524258"><ele>846.0</ele><time>2026-05-01T12:10:59.383Z</time></trkpt><trkpt lat="44.5476266" lon="5.652069"><ele>846.0</ele><time>2026-05-01T12:11:00.381Z</time></trkpt><trkpt lat="44.547711" lon="5.6517126"><ele>845.0</ele><time>2026-05-01T12:11:01.382Z</time></trkpt><trkpt lat="44.547798" lon="5.6513557"><ele>844.0</ele><time>2026-05-01T12:11:02.381Z</time></trkpt><trkpt lat="44.5478844" lon="5.6509938"><ele>844.0</ele><time>2026-05-01T12:11:03.381Z</time></trkpt><trkpt lat="44.547971" lon="5.6506304"><ele>844.0</ele><time>2026-05-01T12:11:04.381Z</time></trkpt><trkpt lat="44.5480569" lon="5.6502673"><ele>845.0</ele><time>2026-05-01T12:11:05.382Z</time></trkpt><trkpt lat="44.5481429" lon="5.6499029"><ele>846.0</ele><time>2026-05-01T12:11:06.382Z</time></trkpt><trkpt lat="44.5482293" lon="5.6495416"><ele>846.5</ele><time>2026-05-01T12:11:07.381Z</time></trkpt><trkpt lat="44.5483142" lon="5.6491786"><ele>847.0</ele><time>2026-05-01T12:11:08.381Z</time></trkpt><trkpt lat="44.5484009" lon="5.648807"><ele>848.5</ele><time>2026-05-01T12:11:09.381Z</time></trkpt><trkpt lat="44.5484861" lon="5.6484377"><ele>850.0</ele><time>2026-05-01T12:11:10.382Z</time></trkpt><trkpt lat="44.5485711" lon="5.6480689"><ele>851.5</ele><time>2026-05-01T12:11:11.381Z</time></trkpt><trkpt lat="44.5486533" lon="5.6476999"><ele>853.0</ele><time>2026-05-01T12:11:12.382Z</time></trkpt><trkpt lat="44.5487335" lon="5.6473299"><ele>853.5</ele><time>2026-05-01T12:11:13.381Z</time></trkpt><trkpt lat="44.5488118" lon="5.6469591"><ele>854.0</ele><time>2026-05-01T12:11:14.381Z</time></trkpt><trkpt lat="44.5488897" lon="5.6465898"><ele>854.0</ele><time>2026-05-01T12:11:15.381Z</time></trkpt><trkpt lat="44.5489653" lon="5.6462257"><ele>854.0</ele><time>2026-05-01T12:11:16.381Z</time></trkpt><trkpt lat="44.549041" lon="5.6458725"><ele>854.5</ele><time>2026-05-01T12:11:17.381Z</time></trkpt><trkpt lat="44.5491209" lon="5.6455312"><ele>855.0</ele><time>2026-05-01T12:11:18.381Z</time></trkpt><trkpt lat="44.5491982" lon="5.6452"><ele>856.0</ele><time>2026-05-01T12:11:19.382Z</time></trkpt><trkpt lat="44.54927" lon="5.644875"><ele>857.0</ele><time>2026-05-01T12:11:20.381Z</time></trkpt><trkpt lat="44.5493401" lon="5.6445476"><ele>858.5</ele><time>2026-05-01T12:11:21.381Z</time></trkpt><trkpt lat="44.549412" lon="5.6442157"><ele>860.0</ele><time>2026-05-01T12:11:22.381Z</time></trkpt><trkpt lat="44.5494855" lon="5.6438781"><ele>862.0</ele><time>2026-05-01T12:11:23.381Z</time></trkpt><trkpt lat="44.5495582" lon="5.643537"><ele>864.0</ele><time>2026-05-01T12:11:24.381Z</time></trkpt><trkpt lat="44.5496307" lon="5.643194"><ele>864.0</ele><time>2026-05-01T12:11:25.382Z</time></trkpt><trkpt lat="44.5497043" lon="5.6428483"><ele>864.0</ele><time>2026-05-01T12:11:26.381Z</time></trkpt><trkpt lat="44.5497799" lon="5.6425007"><ele>864.5</ele><time>2026-05-01T12:11:27.382Z</time></trkpt><trkpt lat="44.5498543" lon="5.6421503"><ele>865.0</ele><time>2026-05-01T12:11:28.381Z</time></trkpt><trkpt lat="44.5499294" lon="5.6417969"><ele>865.0</ele><time>2026-05-01T12:11:29.381Z</time></trkpt><trkpt lat="44.5500061" lon="5.64144"><ele>865.0</ele><time>2026-05-01T12:11:30.382Z</time></trkpt><trkpt lat="44.5500818" lon="5.6410841"><ele>866.0</ele><time>2026-05-01T12:11:31.381Z</time></trkpt><trkpt lat="44.5501557" lon="5.6407352"><ele>867.0</ele><time>2026-05-01T12:11:32.382Z</time></trkpt><trkpt lat="44.5502279" lon="5.6404009"><ele>868.0</ele><time>2026-05-01T12:11:33.381Z</time></trkpt><trkpt lat="44.5503007" lon="5.6400847"><ele>869.0</ele><time>2026-05-01T12:11:34.381Z</time></trkpt><trkpt lat="44.5503767" lon="5.6397855"><ele>869.0</ele><time>2026-05-01T12:11:35.381Z</time></trkpt><trkpt lat="44.5504541" lon="5.6395113"><ele>869.0</ele><time>2026-05-01T12:11:36.381Z</time></trkpt><trkpt lat="44.5505397" lon="5.6392652"><ele>869.0</ele><time>2026-05-01T12:11:37.381Z</time></trkpt><trkpt lat="44.550644" lon="5.6390357"><ele>869.3333333333334</ele><time>2026-05-01T12:11:38.381Z</time></trkpt><trkpt lat="44.5507627" lon="5.6388119"><ele>869.6666666666667</ele><time>2026-05-01T12:11:39.381Z</time></trkpt><trkpt lat="44.5508871" lon="5.6385937"><ele>870.0</ele><time>2026-05-01T12:11:40.381Z</time></trkpt><trkpt lat="44.551002" lon="5.6383852"><ele>871.0</ele><time>2026-05-01T12:11:41.381Z</time></trkpt><trkpt lat="44.55111" lon="5.6381932"><ele>872.0</ele><time>2026-05-01T12:11:42.381Z</time></trkpt><trkpt lat="44.5512102" lon="5.6380159"><ele>873.0</ele><time>2026-05-01T12:11:43.381Z</time></trkpt><trkpt lat="44.5513043" lon="5.6378469"><ele>873.5</ele><time>2026-05-01T12:11:44.382Z</time></trkpt><trkpt lat="44.5513965" lon="5.6376906"><ele>874.0</ele><time>2026-05-01T12:11:45.381Z</time></trkpt><trkpt lat="44.5514859" lon="5.6375425"><ele>874.5</ele><time>2026-05-01T12:11:46.381Z</time></trkpt><trkpt lat="44.5515772" lon="5.6374086"><ele>875.0</ele><time>2026-05-01T12:11:47.381Z</time></trkpt><trkpt lat="44.551677" lon="5.6372891"><ele>875.0</ele><time>2026-05-01T12:11:48.381Z</time></trkpt><trkpt lat="44.5517827" lon="5.6371827"><ele>875.0</ele><time>2026-05-01T12:11:49.381Z</time></trkpt><trkpt lat="44.5518812" lon="5.6370865"><ele>875.0</ele><time>2026-05-01T12:11:50.381Z</time></trkpt><trkpt lat="44.5519704" lon="5.6369962"><ele>875.0</ele><time>2026-05-01T12:11:51.381Z</time></trkpt><trkpt lat="44.5520539" lon="5.63691"><ele>876.1666666666667</ele><time>2026-05-01T12:11:52.382Z</time></trkpt><trkpt lat="44.552134" lon="5.6368289"><ele>877.3333333333334</ele><time>2026-05-01T12:11:53.381Z</time></trkpt><trkpt lat="44.5522099" lon="5.6367518"><ele>878.5</ele><time>2026-05-01T12:11:54.381Z</time></trkpt><trkpt lat="44.5522823" lon="5.6366804"><ele>879.6666666666667</ele><time>2026-05-01T12:11:55.381Z</time></trkpt><trkpt lat="44.5523487" lon="5.6366134"><ele>880.8333333333334</ele><time>2026-05-01T12:11:56.381Z</time></trkpt><trkpt lat="44.552416" lon="5.6365491"><ele>882.0</ele><time>2026-05-01T12:11:57.381Z</time></trkpt><trkpt lat="44.5524832" lon="5.6364875"><ele>882.0</ele><time>2026-05-01T12:11:58.381Z</time></trkpt><trkpt lat="44.5525499" lon="5.6364227"><ele>882.0</ele><time>2026-05-01T12:11:59.381Z</time></trkpt><trkpt lat="44.5526175" lon="5.6363525"><ele>882.0</ele><time>2026-05-01T12:12:00.382Z</time></trkpt><trkpt lat="44.5526852" lon="5.636272"><ele>882.0</ele><time>2026-05-01T12:12:01.382Z</time></trkpt><trkpt lat="44.5527533" lon="5.6361767"><ele>882.0</ele><time>2026-05-01T12:12:02.382Z</time></trkpt><trkpt lat="44.5528166" lon="5.6360688"><ele>882.5</ele><time>2026-05-01T12:12:03.381Z</time></trkpt><trkpt lat="44.5528705" lon="5.6359378"><ele>883.0</ele><time>2026-05-01T12:12:04.381Z</time></trkpt><trkpt lat="44.5529217" lon="5.6357835"><ele>883.5</ele><time>2026-05-01T12:12:05.381Z</time></trkpt><trkpt lat="44.5529567" lon="5.6356011"><ele>884.0</ele><time>2026-05-01T12:12:06.381Z</time></trkpt><trkpt lat="44.5529799" lon="5.6354086"><ele>888.6666666666667</ele><time>2026-05-01T12:12:07.381Z</time></trkpt><trkpt lat="44.5529943" lon="5.6352036"><ele>893.3333333333333</ele><time>2026-05-01T12:12:08.381Z</time></trkpt><trkpt lat="44.5530089" lon="5.6349827"><ele>898.0</ele><time>2026-05-01T12:12:09.382Z</time></trkpt><trkpt lat="44.5530261" lon="5.6347758"><ele>898.0</ele><time>2026-05-01T12:12:10.381Z</time></trkpt><trkpt lat="44.5530397" lon="5.6345839"><ele>898.0</ele><time>2026-05-01T12:12:11.382Z</time></trkpt><trkpt lat="44.5530532" lon="5.6344014"><ele>898.0</ele><time>2026-05-01T12:12:12.381Z</time></trkpt><trkpt lat="44.5530661" lon="5.6342282"><ele>898.0</ele><time>2026-05-01T12:12:13.382Z</time></trkpt><trkpt lat="44.5530767" lon="5.6340622"><ele>898.5999999999999</ele><time>2026-05-01T12:12:14.381Z</time></trkpt><trkpt lat="44.5530863" lon="5.6339062"><ele>899.1999999999999</ele><time>2026-05-01T12:12:15.381Z</time></trkpt><trkpt lat="44.5530958" lon="5.6337524"><ele>899.8</ele><time>2026-05-01T12:12:16.381Z</time></trkpt><trkpt lat="44.5531074" lon="5.6335967"><ele>900.4</ele><time>2026-05-01T12:12:17.381Z</time></trkpt><trkpt lat="44.5531184" lon="5.6334406"><ele>901.0</ele><time>2026-05-01T12:12:18.381Z</time></trkpt><trkpt lat="44.5531282" lon="5.6332854"><ele>900.9999999999999</ele><time>2026-05-01T12:12:19.381Z</time></trkpt><trkpt lat="44.5531333" lon="5.63315"><ele>901.0</ele><time>2026-05-01T12:12:20.381Z</time></trkpt><trkpt lat="44.5531348" lon="5.633035"><ele>901.0</ele><time>2026-05-01T12:12:21.381Z</time></trkpt><trkpt lat="44.5531397" lon="5.6329351"><ele>901.0</ele><time>2026-05-01T12:12:22.381Z</time></trkpt><trkpt lat="44.553165" lon="5.6328522"><ele>900.9999999999999</ele><time>2026-05-01T12:12:23.381Z</time></trkpt><trkpt lat="44.5532674" lon="5.6328057"><ele>901.0</ele><time>2026-05-01T12:12:25.381Z</time></trkpt><trkpt lat="44.5533371" lon="5.6329067"><ele>900.9999999999999</ele><time>2026-05-01T12:12:27.381Z</time></trkpt><trkpt lat="44.5533456" lon="5.6329949"><ele>901.0</ele><time>2026-05-01T12:12:28.382Z</time></trkpt><trkpt lat="44.5533501" lon="5.6331002"><ele>901.0</ele><time>2026-05-01T12:12:29.381Z</time></trkpt><trkpt lat="44.5533584" lon="5.6332211"><ele>901.0</ele><time>2026-05-01T12:12:30.381Z</time></trkpt><trkpt lat="44.5533787" lon="5.6333567"><ele>900.9999999999999</ele><time>2026-05-01T12:12:31.381Z</time></trkpt><trkpt lat="44.5534023" lon="5.6334906"><ele>901.0</ele><time>2026-05-01T12:12:32.381Z</time></trkpt><trkpt lat="44.5534235" lon="5.6336151"><ele>901.0</ele><time>2026-05-01T12:12:33.381Z</time></trkpt><trkpt lat="44.5534409" lon="5.6337273"><ele>900.9999999999999</ele><time>2026-05-01T12:12:34.381Z</time></trkpt><trkpt lat="44.5534683" lon="5.6338249"><ele>900.9999999999999</ele><time>2026-05-01T12:12:35.381Z</time></trkpt><trkpt lat="44.5535172" lon="5.6338817"><ele>901.0</ele><time>2026-05-01T12:12:36.381Z</time></trkpt><trkpt lat="44.5536183" lon="5.6338629"><ele>901.0</ele><time>2026-05-01T12:12:38.381Z</time></trkpt><trkpt lat="44.553645" lon="5.6336831"><ele>901.0</ele><time>2026-05-01T12:12:40.382Z</time></trkpt><trkpt lat="44.5536282" lon="5.6335565"><ele>901.0</ele><time>2026-05-01T12:12:41.381Z</time></trkpt><trkpt lat="44.5536094" lon="5.6334022"><ele>901.0</ele><time>2026-05-01T12:12:42.381Z</time></trkpt><trkpt lat="44.5536178" lon="5.6332179"><ele>901.0</ele><time>2026-05-01T12:12:43.382Z</time></trkpt><trkpt lat="44.5536561" lon="5.6330162"><ele>912.3333333333333</ele><time>2026-05-01T12:12:44.381Z</time></trkpt><trkpt lat="44.5537183" lon="5.6327943"><ele>923.6666666666667</ele><time>2026-05-01T12:12:45.382Z</time></trkpt><trkpt lat="44.5537793" lon="5.6325624"><ele>935.0</ele><time>2026-05-01T12:12:46.382Z</time></trkpt><trkpt lat="44.5538361" lon="5.6323277"><ele>935.0</ele><time>2026-05-01T12:12:47.381Z</time></trkpt><trkpt lat="44.5538769" lon="5.6320746"><ele>935.0</ele><time>2026-05-01T12:12:48.381Z</time></trkpt><trkpt lat="44.5538947" lon="5.6318149"><ele>935.0</ele><time>2026-05-01T12:12:49.382Z</time></trkpt><trkpt lat="44.5539186" lon="5.6315482"><ele>932.6666666666667</ele><time>2026-05-01T12:12:50.381Z</time></trkpt><trkpt lat="44.5539738" lon="5.6312905"><ele>930.3333333333333</ele><time>2026-05-01T12:12:51.382Z</time></trkpt><trkpt lat="44.5540425" lon="5.6310635"><ele>928.0</ele><time>2026-05-01T12:12:52.381Z</time></trkpt><trkpt lat="44.5541065" lon="5.6308561"><ele>928.0</ele><time>2026-05-01T12:12:53.381Z</time></trkpt><trkpt lat="44.5541375" lon="5.6306451"><ele>928.0</ele><time>2026-05-01T12:12:54.382Z</time></trkpt><trkpt lat="44.5541366" lon="5.6304246"><ele>928.0</ele><time>2026-05-01T12:12:55.381Z</time></trkpt><trkpt lat="44.5541176" lon="5.6301856"><ele>928.0</ele><time>2026-05-01T12:12:56.381Z</time></trkpt><trkpt lat="44.554122" lon="5.629926"><ele>928.0</ele><time>2026-05-01T12:12:57.382Z</time></trkpt><trkpt lat="44.5541557" lon="5.6296507"><ele>928.0</ele><time>2026-05-01T12:12:58.381Z</time></trkpt><trkpt lat="44.5541701" lon="5.6293616"><ele>929.6666666666666</ele><time>2026-05-01T12:12:59.382Z</time></trkpt><trkpt lat="44.5541576" lon="5.6290689"><ele>931.3333333333333</ele><time>2026-05-01T12:13:00.381Z</time></trkpt><trkpt lat="44.5541366" lon="5.6287959"><ele>933.0</ele><time>2026-05-01T12:13:01.381Z</time></trkpt><trkpt lat="44.5541278" lon="5.6285625"><ele>933.5</ele><time>2026-05-01T12:13:02.381Z</time></trkpt><trkpt lat="44.5541259" lon="5.628379"><ele>934.0</ele><time>2026-05-01T12:13:03.381Z</time></trkpt><trkpt lat="44.5541279" lon="5.6282369"><ele>934.5</ele><time>2026-05-01T12:13:04.382Z</time></trkpt><trkpt lat="44.5541439" lon="5.6281354"><ele>935.0</ele><time>2026-05-01T12:13:05.381Z</time></trkpt><trkpt lat="44.5541788" lon="5.6280532"><ele>935.5</ele><time>2026-05-01T12:13:06.382Z</time></trkpt><trkpt lat="44.5542354" lon="5.6280053"><ele>936.0</ele><time>2026-05-01T12:13:07.381Z</time></trkpt><trkpt lat="44.554301" lon="5.6280112"><ele>936.0</ele><time>2026-05-01T12:13:08.381Z</time></trkpt><trkpt lat="44.554354" lon="5.6280709"><ele>936.0</ele><time>2026-05-01T12:13:09.381Z</time></trkpt><trkpt lat="44.5543807" lon="5.6281625"><ele>936.0</ele><time>2026-05-01T12:13:10.381Z</time></trkpt><trkpt lat="44.554384" lon="5.6282775"><ele>936.0</ele><time>2026-05-01T12:13:11.381Z</time></trkpt><trkpt lat="44.5543795" lon="5.6284128"><ele>936.0</ele><time>2026-05-01T12:13:12.381Z</time></trkpt><trkpt lat="44.5543891" lon="5.6285737"><ele>936.0</ele><time>2026-05-01T12:13:13.381Z</time></trkpt><trkpt lat="44.5544235" lon="5.6287473"><ele>935.0</ele><time>2026-05-01T12:13:14.381Z</time></trkpt><trkpt lat="44.5544701" lon="5.6289382"><ele>934.0</ele><time>2026-05-01T12:13:15.381Z</time></trkpt><trkpt lat="44.5545227" lon="5.6291474"><ele>933.0</ele><time>2026-05-01T12:13:16.382Z</time></trkpt><trkpt lat="44.5545761" lon="5.6293609"><ele>940.25</ele><time>2026-05-01T12:13:17.381Z</time></trkpt><trkpt lat="44.5546169" lon="5.6295651"><ele>947.5</ele><time>2026-05-01T12:13:18.381Z</time></trkpt><trkpt lat="44.5546315" lon="5.6297531"><ele>954.75</ele><time>2026-05-01T12:13:19.381Z</time></trkpt><trkpt lat="44.5546365" lon="5.6299165"><ele>962.0</ele><time>2026-05-01T12:13:20.381Z</time></trkpt><trkpt lat="44.5546557" lon="5.6300438"><ele>962.0000000000001</ele><time>2026-05-01T12:13:21.381Z</time></trkpt><trkpt lat="44.5547007" lon="5.6301396"><ele>962.0</ele><time>2026-05-01T12:13:22.381Z</time></trkpt><trkpt lat="44.5547632" lon="5.6301871"><ele>962.0</ele><time>2026-05-01T12:13:23.381Z</time></trkpt><trkpt lat="44.5548285" lon="5.6301906"><ele>962.0</ele><time>2026-05-01T12:13:24.383Z</time></trkpt><trkpt lat="44.554888" lon="5.6301309"><ele>962.0000000000001</ele><time>2026-05-01T12:13:25.381Z</time></trkpt><trkpt lat="44.5549241" lon="5.6300207"><ele>962.0</ele><time>2026-05-01T12:13:26.381Z</time></trkpt><trkpt lat="44.5549258" lon="5.6298756"><ele>962.0</ele><time>2026-05-01T12:13:27.381Z</time></trkpt><trkpt lat="44.5549069" lon="5.6296976"><ele>962.0</ele><time>2026-05-01T12:13:28.382Z</time></trkpt><trkpt lat="44.5549049" lon="5.629496"><ele>962.0</ele><time>2026-05-01T12:13:29.381Z</time></trkpt><trkpt lat="44.5549336" lon="5.6292738"><ele>962.0</ele><time>2026-05-01T12:13:30.381Z</time></trkpt><trkpt lat="44.554978" lon="5.6290454"><ele>962.6666666666667</ele><time>2026-05-01T12:13:31.381Z</time></trkpt><trkpt lat="44.5550078" lon="5.6288197"><ele>963.3333333333333</ele><time>2026-05-01T12:13:32.381Z</time></trkpt><trkpt lat="44.5549977" lon="5.6285838"><ele>964.0</ele><time>2026-05-01T12:13:33.381Z</time></trkpt><trkpt lat="44.5549506" lon="5.6283577"><ele>965.3333333333333</ele><time>2026-05-01T12:13:34.381Z</time></trkpt><trkpt lat="44.5548746" lon="5.628137"><ele>966.6666666666667</ele><time>2026-05-01T12:13:35.382Z</time></trkpt><trkpt lat="44.5548069" lon="5.6279087"><ele>968.0</ele><time>2026-05-01T12:13:36.381Z</time></trkpt><trkpt lat="44.5547746" lon="5.6276732"><ele>970.3333333333334</ele><time>2026-05-01T12:13:37.381Z</time></trkpt><trkpt lat="44.5547756" lon="5.6274295"><ele>972.6666666666667</ele><time>2026-05-01T12:13:38.381Z</time></trkpt><trkpt lat="44.5547974" lon="5.6271856"><ele>975.0</ele><time>2026-05-01T12:13:39.382Z</time></trkpt><trkpt lat="44.5548054" lon="5.6269281"><ele>976.6666666666667</ele><time>2026-05-01T12:13:40.382Z</time></trkpt><trkpt lat="44.5547893" lon="5.6266483"><ele>978.3333333333334</ele><time>2026-05-01T12:13:41.381Z</time></trkpt><trkpt lat="44.554752" lon="5.6263551"><ele>980.0</ele><time>2026-05-01T12:13:42.381Z</time></trkpt><trkpt lat="44.5547055" lon="5.6260681"><ele>983.0</ele><time>2026-05-01T12:13:43.381Z</time></trkpt><trkpt lat="44.5546598" lon="5.6258073"><ele>986.0</ele><time>2026-05-01T12:13:44.381Z</time></trkpt><trkpt lat="44.5546379" lon="5.625559"><ele>989.0</ele><time>2026-05-01T12:13:45.381Z</time></trkpt><trkpt lat="44.5546523" lon="5.6253272"><ele>991.3333333333334</ele><time>2026-05-01T12:13:46.382Z</time></trkpt><trkpt lat="44.5546911" lon="5.6250982"><ele>993.6666666666667</ele><time>2026-05-01T12:13:47.381Z</time></trkpt><trkpt lat="44.5547244" lon="5.6248616"><ele>996.0</ele><time>2026-05-01T12:13:48.381Z</time></trkpt><trkpt lat="44.554734" lon="5.6246072"><ele>997.0</ele><time>2026-05-01T12:13:49.382Z</time></trkpt><trkpt lat="44.5547347" lon="5.6243432"><ele>998.0</ele><time>2026-05-01T12:13:50.381Z</time></trkpt><trkpt lat="44.5547586" lon="5.6240727"><ele>999.0</ele><time>2026-05-01T12:13:51.381Z</time></trkpt><trkpt lat="44.5548111" lon="5.6237883"><ele>997.6666666666667</ele><time>2026-05-01T12:13:52.381Z</time></trkpt><trkpt lat="44.5548774" lon="5.6234949"><ele>996.3333333333334</ele><time>2026-05-01T12:13:53.381Z</time></trkpt><trkpt lat="44.5549433" lon="5.6231992"><ele>995.0</ele><time>2026-05-01T12:13:54.381Z</time></trkpt><trkpt lat="44.5550051" lon="5.6229078"><ele>994.6666666666667</ele><time>2026-05-01T12:13:55.382Z</time></trkpt><trkpt lat="44.5550659" lon="5.6226365"><ele>994.3333333333333</ele><time>2026-05-01T12:13:56.382Z</time></trkpt><trkpt lat="44.5551297" lon="5.6223863"><ele>994.0</ele><time>2026-05-01T12:13:57.381Z</time></trkpt><trkpt lat="44.5551719" lon="5.622153"><ele>994.0</ele><time>2026-05-01T12:13:58.381Z</time></trkpt><trkpt lat="44.555183" lon="5.6219298"><ele>994.0</ele><time>2026-05-01T12:13:59.381Z</time></trkpt><trkpt lat="44.5551669" lon="5.6217362"><ele>994.0</ele><time>2026-05-01T12:14:00.381Z</time></trkpt><trkpt lat="44.5551224" lon="5.6215689"><ele>994.0</ele><time>2026-05-01T12:14:01.383Z</time></trkpt><trkpt lat="44.5550512" lon="5.6214226"><ele>994.0</ele><time>2026-05-01T12:14:02.381Z</time></trkpt><trkpt lat="44.5549581" lon="5.6212777"><ele>994.0</ele><time>2026-05-01T12:14:03.381Z</time></trkpt><trkpt lat="44.5548668" lon="5.6211411"><ele>994.0</ele><time>2026-05-01T12:14:04.381Z</time></trkpt><trkpt lat="44.5547786" lon="5.6210177"><ele>994.0</ele><time>2026-05-01T12:14:05.382Z</time></trkpt><trkpt lat="44.5547099" lon="5.6208771"><ele>995.75</ele><time>2026-05-01T12:14:06.381Z</time></trkpt><trkpt lat="44.5546674" lon="5.6207084"><ele>997.5</ele><time>2026-05-01T12:14:07.381Z</time></trkpt><trkpt lat="44.5546182" lon="5.6205401"><ele>999.25</ele><time>2026-05-01T12:14:08.382Z</time></trkpt><trkpt lat="44.5545509" lon="5.6203563"><ele>1001.0</ele><time>2026-05-01T12:14:09.381Z</time></trkpt><trkpt lat="44.5544494" lon="5.6201917"><ele>1001.0</ele><time>2026-05-01T12:14:10.381Z</time></trkpt><trkpt lat="44.554348" lon="5.6200426"><ele>1001.0</ele><time>2026-05-01T12:14:11.382Z</time></trkpt><trkpt lat="44.5542896" lon="5.619878"><ele>1001.0</ele><time>2026-05-01T12:14:12.381Z</time></trkpt><trkpt lat="44.554263" lon="5.6197089"><ele>1001.0</ele><time>2026-05-01T12:14:13.381Z</time></trkpt><trkpt lat="44.5542879" lon="5.6195488"><ele>1001.25</ele><time>2026-05-01T12:14:14.382Z</time></trkpt><trkpt lat="44.5543589" lon="5.6194041"><ele>1001.5</ele><time>2026-05-01T12:14:15.381Z</time></trkpt><trkpt lat="44.5544291" lon="5.6192521"><ele>1001.75</ele><time>2026-05-01T12:14:16.381Z</time></trkpt><trkpt lat="44.5544895" lon="5.6190637"><ele>1002.0</ele><time>2026-05-01T12:14:17.382Z</time></trkpt><trkpt lat="44.5545236" lon="5.6188396"><ele>1002.6666666666667</ele><time>2026-05-01T12:14:18.381Z</time></trkpt><trkpt lat="44.5545283" lon="5.618603"><ele>1003.3333333333334</ele><time>2026-05-01T12:14:19.381Z</time></trkpt><trkpt lat="44.5545213" lon="5.618361"><ele>1004.0</ele><time>2026-05-01T12:14:20.381Z</time></trkpt><trkpt lat="44.5545567" lon="5.6181196"><ele>1018.3333333333334</ele><time>2026-05-01T12:14:21.381Z</time></trkpt><trkpt lat="44.5546054" lon="5.6178784"><ele>1032.6666666666667</ele><time>2026-05-01T12:14:22.381Z</time></trkpt><trkpt lat="44.5546272" lon="5.6176222"><ele>1047.0</ele><time>2026-05-01T12:14:23.382Z</time></trkpt><trkpt lat="44.5546732" lon="5.6173587"><ele>1047.0</ele><time>2026-05-01T12:14:24.381Z</time></trkpt><trkpt lat="44.5547507" lon="5.617095"><ele>1047.0</ele><time>2026-05-01T12:14:25.381Z</time></trkpt><trkpt lat="44.5548328" lon="5.6168138"><ele>1047.0</ele><time>2026-05-01T12:14:26.381Z</time></trkpt><trkpt lat="44.5549046" lon="5.6164991"><ele>1042.0</ele><time>2026-05-01T12:14:27.381Z</time></trkpt><trkpt lat="44.5549801" lon="5.6161564"><ele>1037.0</ele><time>2026-05-01T12:14:28.381Z</time></trkpt><trkpt lat="44.5550683" lon="5.615802"><ele>1032.5</ele><time>2026-05-01T12:14:29.382Z</time></trkpt><trkpt lat="44.5551572" lon="5.6154664"><ele>1028.0</ele><time>2026-05-01T12:14:30.381Z</time></trkpt><trkpt lat="44.5552405" lon="5.6151577"><ele>1026.6666666666667</ele><time>2026-05-01T12:14:31.381Z</time></trkpt><trkpt lat="44.5553134" lon="5.6148677"><ele>1025.3333333333333</ele><time>2026-05-01T12:14:32.381Z</time></trkpt><trkpt lat="44.5553774" lon="5.6145964"><ele>1024.0</ele><time>2026-05-01T12:14:33.381Z</time></trkpt><trkpt lat="44.5554477" lon="5.6143484"><ele>1034.6666666666665</ele><time>2026-05-01T12:14:34.382Z</time></trkpt><trkpt lat="44.5555464" lon="5.6141178"><ele>1045.3333333333333</ele><time>2026-05-01T12:14:35.381Z</time></trkpt><trkpt lat="44.555658" lon="5.6138937"><ele>1056.0</ele><time>2026-05-01T12:14:36.381Z</time></trkpt><trkpt lat="44.5557794" lon="5.6136797"><ele>1060.3333333333333</ele><time>2026-05-01T12:14:37.381Z</time></trkpt><trkpt lat="44.5559246" lon="5.6134869"><ele>1064.6666666666665</ele><time>2026-05-01T12:14:38.382Z</time></trkpt><trkpt lat="44.5560902" lon="5.6133219"><ele>1069.0</ele><time>2026-05-01T12:14:39.381Z</time></trkpt><trkpt lat="44.5562602" lon="5.613158"><ele>1069.0</ele><time>2026-05-01T12:14:40.381Z</time></trkpt><trkpt lat="44.5564226" lon="5.6129852"><ele>1069.0</ele><time>2026-05-01T12:14:41.381Z</time></trkpt><trkpt lat="44.5565734" lon="5.6128116"><ele>1069.0</ele><time>2026-05-01T12:14:42.381Z</time></trkpt><trkpt lat="44.5567157" lon="5.6126546"><ele>1071.6666666666665</ele><time>2026-05-01T12:14:43.381Z</time></trkpt><trkpt lat="44.5568501" lon="5.6125113"><ele>1074.3333333333333</ele><time>2026-05-01T12:14:44.381Z</time></trkpt><trkpt lat="44.5569635" lon="5.6123639"><ele>1077.0</ele><time>2026-05-01T12:14:45.381Z</time></trkpt><trkpt lat="44.5570448" lon="5.6121989"><ele>1077.0</ele><time>2026-05-01T12:14:46.381Z</time></trkpt><trkpt lat="44.5570923" lon="5.612023"><ele>1077.0</ele><time>2026-05-01T12:14:47.381Z</time></trkpt><trkpt lat="44.5571327" lon="5.6118542"><ele>1077.0</ele><time>2026-05-01T12:14:48.381Z</time></trkpt><trkpt lat="44.5572038" lon="5.6116959"><ele>1077.0</ele><time>2026-05-01T12:14:49.382Z</time></trkpt><trkpt lat="44.5573051" lon="5.6115561"><ele>1072.6666666666667</ele><time>2026-05-01T12:14:50.381Z</time></trkpt><trkpt lat="44.5574305" lon="5.6114448"><ele>1068.3333333333335</ele><time>2026-05-01T12:14:51.381Z</time></trkpt><trkpt lat="44.557576" lon="5.6113659"><ele>1064.0</ele><time>2026-05-01T12:14:52.381Z</time></trkpt><trkpt lat="44.5577325" lon="5.6113105"><ele>1066.3333333333335</ele><time>2026-05-01T12:14:53.381Z</time></trkpt><trkpt lat="44.5578963" lon="5.6112546"><ele>1068.6666666666667</ele><time>2026-05-01T12:14:54.381Z</time></trkpt><trkpt lat="44.5580622" lon="5.6111803"><ele>1071.0</ele><time>2026-05-01T12:14:55.381Z</time></trkpt><trkpt lat="44.5582124" lon="5.6110901"><ele>1071.0</ele><time>2026-05-01T12:14:56.381Z</time></trkpt><trkpt lat="44.5583364" lon="5.6109739"><ele>1071.0</ele><time>2026-05-01T12:14:57.381Z</time></trkpt><trkpt lat="44.5584359" lon="5.6108234"><ele>1071.0</ele><time>2026-05-01T12:14:58.381Z</time></trkpt><trkpt lat="44.5585074" lon="5.6106492"><ele>1071.0</ele><time>2026-05-01T12:14:59.381Z</time></trkpt><trkpt lat="44.5585484" lon="5.6104729"><ele>1072.25</ele><time>2026-05-01T12:15:00.381Z</time></trkpt><trkpt lat="44.5585499" lon="5.6102845"><ele>1073.5</ele><time>2026-05-01T12:15:01.382Z</time></trkpt><trkpt lat="44.5585133" lon="5.6100937"><ele>1074.75</ele><time>2026-05-01T12:15:02.381Z</time></trkpt><trkpt lat="44.5584459" lon="5.6099027"><ele>1076.0</ele><time>2026-05-01T12:15:03.381Z</time></trkpt><trkpt lat="44.5583604" lon="5.6097219"><ele>1076.0</ele><time>2026-05-01T12:15:04.381Z</time></trkpt><trkpt lat="44.5582669" lon="5.6095507"><ele>1076.0</ele><time>2026-05-01T12:15:05.381Z</time></trkpt><trkpt lat="44.5581459" lon="5.6094115"><ele>1076.0</ele><time>2026-05-01T12:15:06.381Z</time></trkpt><trkpt lat="44.5580027" lon="5.6093051"><ele>1079.6666666666667</ele><time>2026-05-01T12:15:07.381Z</time></trkpt><trkpt lat="44.5578475" lon="5.6092078"><ele>1083.3333333333333</ele><time>2026-05-01T12:15:08.382Z</time></trkpt><trkpt lat="44.5576842" lon="5.6091214"><ele>1087.0</ele><time>2026-05-01T12:15:09.381Z</time></trkpt><trkpt lat="44.557506" lon="5.6090749"><ele>1087.0</ele><time>2026-05-01T12:15:10.381Z</time></trkpt><trkpt lat="44.5573131" lon="5.6090638"><ele>1087.0</ele><time>2026-05-01T12:15:11.381Z</time></trkpt><trkpt lat="44.5571076" lon="5.6090681"><ele>1087.0</ele><time>2026-05-01T12:15:12.381Z</time></trkpt><trkpt lat="44.5568926" lon="5.6090725"><ele>1089.5</ele><time>2026-05-01T12:15:13.381Z</time></trkpt><trkpt lat="44.5566648" lon="5.6091104"><ele>1092.0</ele><time>2026-05-01T12:15:14.382Z</time></trkpt><trkpt lat="44.5564381" lon="5.6091722"><ele>1092.0</ele><time>2026-05-01T12:15:15.382Z</time></trkpt><trkpt lat="44.5562091" lon="5.6092433"><ele>1092.0</ele><time>2026-05-01T12:15:16.382Z</time></trkpt><trkpt lat="44.5559816" lon="5.609318"><ele>1086.0</ele><time>2026-05-01T12:15:17.382Z</time></trkpt><trkpt lat="44.5557635" lon="5.6093911"><ele>1080.0</ele><time>2026-05-01T12:15:18.382Z</time></trkpt><trkpt lat="44.5555625" lon="5.6094641"><ele>1074.0</ele><time>2026-05-01T12:15:19.381Z</time></trkpt><trkpt lat="44.555374" lon="5.6095433"><ele>1076.3333333333333</ele><time>2026-05-01T12:15:20.382Z</time></trkpt><trkpt lat="44.5552068" lon="5.6095814"><ele>1078.6666666666665</ele><time>2026-05-01T12:15:21.381Z</time></trkpt><trkpt lat="44.5550546" lon="5.6095779"><ele>1081.0</ele><time>2026-05-01T12:15:22.382Z</time></trkpt><trkpt lat="44.5549276" lon="5.6095178"><ele>1088.25</ele><time>2026-05-01T12:15:23.381Z</time></trkpt><trkpt lat="44.5548391" lon="5.6094113"><ele>1095.5</ele><time>2026-05-01T12:15:24.381Z</time></trkpt><trkpt lat="44.55478" lon="5.6092739"><ele>1102.75</ele><time>2026-05-01T12:15:25.381Z</time></trkpt><trkpt lat="44.5547502" lon="5.6091131"><ele>1110.0</ele><time>2026-05-01T12:15:26.382Z</time></trkpt><trkpt lat="44.554728" lon="5.6089292"><ele>1110.0</ele><time>2026-05-01T12:15:27.381Z</time></trkpt><trkpt lat="44.5547058" lon="5.6087205"><ele>1110.0</ele><time>2026-05-01T12:15:28.381Z</time></trkpt><trkpt lat="44.5546968" lon="5.6084887"><ele>1110.0</ele><time>2026-05-01T12:15:29.381Z</time></trkpt><trkpt lat="44.5547187" lon="5.6082543"><ele>1113.25</ele><time>2026-05-01T12:15:30.381Z</time></trkpt><trkpt lat="44.5547571" lon="5.6080421"><ele>1116.5</ele><time>2026-05-01T12:15:31.382Z</time></trkpt><trkpt lat="44.5547853" lon="5.6078421"><ele>1119.75</ele><time>2026-05-01T12:15:32.381Z</time></trkpt><trkpt lat="44.5547791" lon="5.607641"><ele>1123.0</ele><time>2026-05-01T12:15:33.382Z</time></trkpt><trkpt lat="44.554737" lon="5.6074336"><ele>1126.0</ele><time>2026-05-01T12:15:34.381Z</time></trkpt><trkpt lat="44.5546628" lon="5.6072251"><ele>1129.0</ele><time>2026-05-01T12:15:35.381Z</time></trkpt><trkpt lat="44.5545697" lon="5.6070176"><ele>1132.0</ele><time>2026-05-01T12:15:36.382Z</time></trkpt><trkpt lat="44.5544556" lon="5.6068101"><ele>1125.6666666666665</ele><time>2026-05-01T12:15:37.381Z</time></trkpt><trkpt lat="44.5543287" lon="5.6065971"><ele>1119.3333333333333</ele><time>2026-05-01T12:15:38.381Z</time></trkpt><trkpt lat="44.5541992" lon="5.606385"><ele>1113.0</ele><time>2026-05-01T12:15:39.382Z</time></trkpt><trkpt lat="44.5540694" lon="5.6061797"><ele>1112.6666666666667</ele><time>2026-05-01T12:15:40.381Z</time></trkpt><trkpt lat="44.5539311" lon="5.605996"><ele>1112.3333333333335</ele><time>2026-05-01T12:15:41.381Z</time></trkpt><trkpt lat="44.5537743" lon="5.6058507"><ele>1112.0</ele><time>2026-05-01T12:15:42.381Z</time></trkpt><trkpt lat="44.5536106" lon="5.6057465"><ele>1112.0</ele><time>2026-05-01T12:15:43.382Z</time></trkpt><trkpt lat="44.5534604" lon="5.6056404"><ele>1112.0</ele><time>2026-05-01T12:15:44.381Z</time></trkpt><trkpt lat="44.5533385" lon="5.6055003"><ele>1112.0</ele><time>2026-05-01T12:15:45.381Z</time></trkpt><trkpt lat="44.5532226" lon="5.6053716"><ele>1121.3333333333335</ele><time>2026-05-01T12:15:46.381Z</time></trkpt><trkpt lat="44.553085" lon="5.6052856"><ele>1130.6666666666667</ele><time>2026-05-01T12:15:47.382Z</time></trkpt><trkpt lat="44.5529335" lon="5.6052439"><ele>1140.0</ele><time>2026-05-01T12:15:48.382Z</time></trkpt><trkpt lat="44.552771" lon="5.6052368"><ele>1140.3333333333333</ele><time>2026-05-01T12:15:49.381Z</time></trkpt><trkpt lat="44.5526069" lon="5.6052321"><ele>1140.6666666666665</ele><time>2026-05-01T12:15:50.381Z</time></trkpt><trkpt lat="44.5524418" lon="5.6052586"><ele>1141.0</ele><time>2026-05-01T12:15:51.382Z</time></trkpt><trkpt lat="44.5522817" lon="5.6053275"><ele>1141.0</ele><time>2026-05-01T12:15:52.381Z</time></trkpt><trkpt lat="44.5521293" lon="5.6054271"><ele>1141.0</ele><time>2026-05-01T12:15:53.381Z</time></trkpt><trkpt lat="44.5519863" lon="5.6055633"><ele>1141.0</ele><time>2026-05-01T12:15:54.381Z</time></trkpt><trkpt lat="44.5518539" lon="5.6057388"><ele>1141.0</ele><time>2026-05-01T12:15:55.381Z</time></trkpt><trkpt lat="44.5517331" lon="5.6059382"><ele>1141.0</ele><time>2026-05-01T12:15:56.381Z</time></trkpt><trkpt lat="44.5516305" lon="5.6061496"><ele>1141.0</ele><time>2026-05-01T12:15:57.381Z</time></trkpt><trkpt lat="44.55155" lon="5.6063646"><ele>1137.25</ele><time>2026-05-01T12:15:58.381Z</time></trkpt><trkpt lat="44.5514638" lon="5.6065563"><ele>1133.5</ele><time>2026-05-01T12:15:59.381Z</time></trkpt><trkpt lat="44.5513669" lon="5.6066922"><ele>1129.75</ele><time>2026-05-01T12:16:00.381Z</time></trkpt><trkpt lat="44.5512955" lon="5.6067537"><ele>1126.0</ele><time>2026-05-01T12:16:01.381Z</time></trkpt><trkpt lat="44.5511813" lon="5.6067554"><ele>1126.0</ele><time>2026-05-01T12:16:03.382Z</time></trkpt><trkpt lat="44.5511264" lon="5.6066899"><ele>1126.0</ele><time>2026-05-01T12:16:04.381Z</time></trkpt><trkpt lat="44.5510686" lon="5.6065983"><ele>1126.0</ele><time>2026-05-01T12:16:05.381Z</time></trkpt><trkpt lat="44.5510074" lon="5.6064803"><ele>1126.0</ele><time>2026-05-01T12:16:06.381Z</time></trkpt><trkpt lat="44.5509393" lon="5.6063352"><ele>1126.0</ele><time>2026-05-01T12:16:07.381Z</time></trkpt><trkpt lat="44.5508534" lon="5.6061768"><ele>1133.0</ele><time>2026-05-01T12:16:08.381Z</time></trkpt><trkpt lat="44.5507566" lon="5.6060107"><ele>1140.0</ele><time>2026-05-01T12:16:09.381Z</time></trkpt><trkpt lat="44.5506773" lon="5.6058159"><ele>1147.0</ele><time>2026-05-01T12:16:10.381Z</time></trkpt><trkpt lat="44.5506131" lon="5.6056141"><ele>1147.0</ele><time>2026-05-01T12:16:11.382Z</time></trkpt><trkpt lat="44.5505304" lon="5.6054329"><ele>1147.0</ele><time>2026-05-01T12:16:12.381Z</time></trkpt><trkpt lat="44.550449" lon="5.605266"><ele>1147.0</ele><time>2026-05-01T12:16:13.382Z</time></trkpt><trkpt lat="44.5504156" lon="5.6051089"><ele>1147.0</ele><time>2026-05-01T12:16:14.381Z</time></trkpt><trkpt lat="44.5504259" lon="5.6049564"><ele>1152.25</ele><time>2026-05-01T12:16:15.381Z</time></trkpt><trkpt lat="44.5504682" lon="5.6048082"><ele>1157.5</ele><time>2026-05-01T12:16:16.381Z</time></trkpt><trkpt lat="44.5505106" lon="5.6046417"><ele>1162.75</ele><time>2026-05-01T12:16:17.382Z</time></trkpt><trkpt lat="44.5505149" lon="5.6044517"><ele>1168.0</ele><time>2026-05-01T12:16:18.381Z</time></trkpt><trkpt lat="44.5504923" lon="5.6042513"><ele>1170.25</ele><time>2026-05-01T12:16:19.381Z</time></trkpt><trkpt lat="44.5504423" lon="5.6040576"><ele>1172.5</ele><time>2026-05-01T12:16:20.381Z</time></trkpt><trkpt lat="44.5503595" lon="5.603881"><ele>1174.75</ele><time>2026-05-01T12:16:21.381Z</time></trkpt><trkpt lat="44.5502505" lon="5.6037411"><ele>1177.0</ele><time>2026-05-01T12:16:22.382Z</time></trkpt><trkpt lat="44.5501457" lon="5.6036054"><ele>1171.0</ele><time>2026-05-01T12:16:23.381Z</time></trkpt><trkpt lat="44.5500833" lon="5.6034271"><ele>1165.0</ele><time>2026-05-01T12:16:24.382Z</time></trkpt><trkpt lat="44.5500651" lon="5.6032533"><ele>1159.0</ele><time>2026-05-01T12:16:25.381Z</time></trkpt><trkpt lat="44.5500916" lon="5.6031133"><ele>1153.0</ele><time>2026-05-01T12:16:26.381Z</time></trkpt><trkpt lat="44.5501537" lon="5.6029822"><ele>1153.0</ele><time>2026-05-01T12:16:27.381Z</time></trkpt><trkpt lat="44.5502445" lon="5.6028564"><ele>1153.0</ele><time>2026-05-01T12:16:28.381Z</time></trkpt><trkpt lat="44.5503301" lon="5.6027087"><ele>1153.0</ele><time>2026-05-01T12:16:29.381Z</time></trkpt><trkpt lat="44.5503878" lon="5.6025204"><ele>1153.0</ele><time>2026-05-01T12:16:30.382Z</time></trkpt><trkpt lat="44.5504152" lon="5.6023069"><ele>1162.3333333333333</ele><time>2026-05-01T12:16:31.381Z</time></trkpt><trkpt lat="44.5504196" lon="5.6020825"><ele>1171.6666666666667</ele><time>2026-05-01T12:16:32.382Z</time></trkpt><trkpt lat="44.5504424" lon="5.6018496"><ele>1181.0</ele><time>2026-05-01T12:16:33.381Z</time></trkpt><trkpt lat="44.550502" lon="5.6016244"><ele>1181.0</ele><time>2026-05-01T12:16:34.382Z</time></trkpt><trkpt lat="44.550559" lon="5.6014119"><ele>1181.0</ele><time>2026-05-01T12:16:35.381Z</time></trkpt><trkpt lat="44.5505747" lon="5.6012061"><ele>1181.0</ele><time>2026-05-01T12:16:36.381Z</time></trkpt><trkpt lat="44.5505551" lon="5.6010176"><ele>1181.0</ele><time>2026-05-01T12:16:37.382Z</time></trkpt><trkpt lat="44.5505028" lon="5.6008595"><ele>1182.5</ele><time>2026-05-01T12:16:38.382Z</time></trkpt><trkpt lat="44.5504249" lon="5.6007338"><ele>1184.0</ele><time>2026-05-01T12:16:39.381Z</time></trkpt><trkpt lat="44.5503355" lon="5.600622"><ele>1185.5</ele><time>2026-05-01T12:16:40.382Z</time></trkpt><trkpt lat="44.5502462" lon="5.600502"><ele>1187.0</ele><time>2026-05-01T12:16:41.381Z</time></trkpt><trkpt lat="44.5501583" lon="5.6003596"><ele>1183.75</ele><time>2026-05-01T12:16:42.382Z</time></trkpt><trkpt lat="44.5500849" lon="5.6001912"><ele>1180.5</ele><time>2026-05-01T12:16:43.381Z</time></trkpt><trkpt lat="44.5500383" lon="5.5999941"><ele>1177.25</ele><time>2026-05-01T12:16:44.381Z</time></trkpt><trkpt lat="44.5500103" lon="5.5997755"><ele>1174.0</ele><time>2026-05-01T12:16:45.381Z</time></trkpt><trkpt lat="44.5499796" lon="5.5995469"><ele>1178.0</ele><time>2026-05-01T12:16:46.382Z</time></trkpt><trkpt lat="44.5499413" lon="5.5993203"><ele>1182.0</ele><time>2026-05-01T12:16:47.381Z</time></trkpt><trkpt lat="44.5499018" lon="5.5990928"><ele>1186.0</ele><time>2026-05-01T12:16:48.381Z</time></trkpt><trkpt lat="44.5498559" lon="5.598871"><ele>1186.0</ele><time>2026-05-01T12:16:49.381Z</time></trkpt><trkpt lat="44.549797" lon="5.5986707"><ele>1186.0</ele><time>2026-05-01T12:16:50.382Z</time></trkpt><trkpt lat="44.5497232" lon="5.5984957"><ele>1186.0</ele><time>2026-05-01T12:16:51.382Z</time></trkpt><trkpt lat="44.5496369" lon="5.5983527"><ele>1186.0</ele><time>2026-05-01T12:16:52.381Z</time></trkpt><trkpt lat="44.5495424" lon="5.5982331"><ele>1184.25</ele><time>2026-05-01T12:16:53.381Z</time></trkpt><trkpt lat="44.5494388" lon="5.5981424"><ele>1182.5</ele><time>2026-05-01T12:16:54.381Z</time></trkpt><trkpt lat="44.5493233" lon="5.5980835"><ele>1180.75</ele><time>2026-05-01T12:16:55.381Z</time></trkpt><trkpt lat="44.5491921" lon="5.5980556"><ele>1179.0</ele><time>2026-05-01T12:16:56.381Z</time></trkpt><trkpt lat="44.549051" lon="5.5980589"><ele>1179.0</ele><time>2026-05-01T12:16:57.381Z</time></trkpt><trkpt lat="44.5489126" lon="5.5980866"><ele>1179.0</ele><time>2026-05-01T12:16:58.381Z</time></trkpt><trkpt lat="44.5487798" lon="5.5981194"><ele>1179.0</ele><time>2026-05-01T12:16:59.382Z</time></trkpt><trkpt lat="44.5486551" lon="5.5981171"><ele>1179.0</ele><time>2026-05-01T12:17:00.381Z</time></trkpt><trkpt lat="44.5485465" lon="5.5980406"><ele>1179.5</ele><time>2026-05-01T12:17:01.381Z</time></trkpt><trkpt lat="44.5484702" lon="5.5979187"><ele>1180.0</ele><time>2026-05-01T12:17:02.381Z</time></trkpt><trkpt lat="44.5484301" lon="5.5977677"><ele>1180.5</ele><time>2026-05-01T12:17:03.381Z</time></trkpt><trkpt lat="44.5484291" lon="5.5975928"><ele>1181.0</ele><time>2026-05-01T12:17:04.382Z</time></trkpt><trkpt lat="44.5484679" lon="5.5974002"><ele>1181.0</ele><time>2026-05-01T12:17:05.381Z</time></trkpt><trkpt lat="44.5485236" lon="5.5971896"><ele>1181.0</ele><time>2026-05-01T12:17:06.381Z</time></trkpt><trkpt lat="44.5485632" lon="5.5969501"><ele>1181.0</ele><time>2026-05-01T12:17:07.381Z</time></trkpt><trkpt lat="44.5485756" lon="5.5966814"><ele>1182.0</ele><time>2026-05-01T12:17:08.381Z</time></trkpt><trkpt lat="44.5485781" lon="5.5963987"><ele>1183.0</ele><time>2026-05-01T12:17:09.382Z</time></trkpt><trkpt lat="44.5485933" lon="5.5961037"><ele>1184.0</ele><time>2026-05-01T12:17:10.381Z</time></trkpt><trkpt lat="44.5486297" lon="5.5958086"><ele>1184.6666666666667</ele><time>2026-05-01T12:17:11.382Z</time></trkpt><trkpt lat="44.5486785" lon="5.5955212"><ele>1185.3333333333333</ele><time>2026-05-01T12:17:12.381Z</time></trkpt><trkpt lat="44.5487305" lon="5.5952396"><ele>1186.0</ele><time>2026-05-01T12:17:13.381Z</time></trkpt><trkpt lat="44.5487784" lon="5.5949612"><ele>1175.0</ele><time>2026-05-01T12:17:14.381Z</time></trkpt><trkpt lat="44.5488224" lon="5.5946918"><ele>1164.0</ele><time>2026-05-01T12:17:15.381Z</time></trkpt><trkpt lat="44.5488569" lon="5.5944289"><ele>1153.0</ele><time>2026-05-01T12:17:16.381Z</time></trkpt><trkpt lat="44.5488685" lon="5.5941772"><ele>1153.0</ele><time>2026-05-01T12:17:17.381Z</time></trkpt><trkpt lat="44.5488626" lon="5.5939439"><ele>1153.0</ele><time>2026-05-01T12:17:18.381Z</time></trkpt><trkpt lat="44.5488344" lon="5.5937471"><ele>1153.0</ele><time>2026-05-01T12:17:19.381Z</time></trkpt><trkpt lat="44.5488031" lon="5.593586"><ele>1153.0</ele><time>2026-05-01T12:17:20.381Z</time></trkpt><trkpt lat="44.5487914" lon="5.593458"><ele>1153.2857142857142</ele><time>2026-05-01T12:17:21.381Z</time></trkpt><trkpt lat="44.5488137" lon="5.5933515"><ele>1153.5714285714287</ele><time>2026-05-01T12:17:22.382Z</time></trkpt><trkpt lat="44.5488692" lon="5.5932811"><ele>1153.857142857143</ele><time>2026-05-01T12:17:23.381Z</time></trkpt><trkpt lat="44.548943" lon="5.5932627"><ele>1154.142857142857</ele><time>2026-05-01T12:17:24.381Z</time></trkpt><trkpt lat="44.5490063" lon="5.5933013"><ele>1154.4285714285716</ele><time>2026-05-01T12:17:25.382Z</time></trkpt><trkpt lat="44.5490414" lon="5.593384"><ele>1154.7142857142858</ele><time>2026-05-01T12:17:26.381Z</time></trkpt><trkpt lat="44.5490453" lon="5.5934927"><ele>1155.0</ele><time>2026-05-01T12:17:27.381Z</time></trkpt><trkpt lat="44.5490237" lon="5.5936164"><ele>1154.5</ele><time>2026-05-01T12:17:28.381Z</time></trkpt><trkpt lat="44.5489946" lon="5.5937687"><ele>1154.0</ele><time>2026-05-01T12:17:29.381Z</time></trkpt><trkpt lat="44.5489938" lon="5.5939509"><ele>1153.5</ele><time>2026-05-01T12:17:30.381Z</time></trkpt><trkpt lat="44.5490035" lon="5.5941571"><ele>1153.0</ele><time>2026-05-01T12:17:31.381Z</time></trkpt><trkpt lat="44.5490026" lon="5.5943873"><ele>1151.6666666666665</ele><time>2026-05-01T12:17:32.381Z</time></trkpt><trkpt lat="44.5489845" lon="5.5946247"><ele>1150.3333333333333</ele><time>2026-05-01T12:17:33.381Z</time></trkpt><trkpt lat="44.5489665" lon="5.5948711"><ele>1149.0</ele><time>2026-05-01T12:17:34.381Z</time></trkpt><trkpt lat="44.5489656" lon="5.5951339"><ele>1149.3333333333333</ele><time>2026-05-01T12:17:35.381Z</time></trkpt><trkpt lat="44.5489857" lon="5.5954012"><ele>1149.6666666666665</ele><time>2026-05-01T12:17:36.381Z</time></trkpt><trkpt lat="44.5490194" lon="5.595659"><ele>1150.0</ele><time>2026-05-01T12:17:37.382Z</time></trkpt><trkpt lat="44.5490507" lon="5.5958967"><ele>1150.0</ele><time>2026-05-01T12:17:38.382Z</time></trkpt><trkpt lat="44.549079" lon="5.5961001"><ele>1150.0</ele><time>2026-05-01T12:17:39.382Z</time></trkpt><trkpt lat="44.5491218" lon="5.59627"><ele>1150.0</ele><time>2026-05-01T12:17:40.381Z</time></trkpt><trkpt lat="44.5491827" lon="5.5964101"><ele>1150.0</ele><time>2026-05-01T12:17:41.382Z</time></trkpt><trkpt lat="44.5492646" lon="5.5964997"><ele>1150.2</ele><time>2026-05-01T12:17:42.381Z</time></trkpt><trkpt lat="44.5493539" lon="5.5965361"><ele>1150.4</ele><time>2026-05-01T12:17:43.381Z</time></trkpt><trkpt lat="44.5494437" lon="5.5965151"><ele>1150.6</ele><time>2026-05-01T12:17:44.381Z</time></trkpt><trkpt lat="44.5495231" lon="5.5964394"><ele>1150.8</ele><time>2026-05-01T12:17:45.382Z</time></trkpt><trkpt lat="44.5496063" lon="5.5963133"><ele>1151.0</ele><time>2026-05-01T12:17:46.381Z</time></trkpt><trkpt lat="44.5497105" lon="5.5961645"><ele>1151.0</ele><time>2026-05-01T12:17:47.381Z</time></trkpt><trkpt lat="44.5498427" lon="5.5960259"><ele>1151.0</ele><time>2026-05-01T12:17:48.381Z</time></trkpt><trkpt lat="44.5499782" lon="5.5958657"><ele>1151.0</ele><time>2026-05-01T12:17:49.381Z</time></trkpt><trkpt lat="44.5501061" lon="5.5956596"><ele>1151.0</ele><time>2026-05-01T12:17:50.381Z</time></trkpt><trkpt lat="44.5502271" lon="5.5954271"><ele>1151.0</ele><time>2026-05-01T12:17:51.382Z</time></trkpt><trkpt lat="44.550345" lon="5.595202"><ele>1151.0</ele><time>2026-05-01T12:17:52.382Z</time></trkpt><trkpt lat="44.5504806" lon="5.5950039"><ele>1152.6666666666667</ele><time>2026-05-01T12:17:53.381Z</time></trkpt><trkpt lat="44.5506057" lon="5.5948146"><ele>1154.3333333333333</ele><time>2026-05-01T12:17:54.381Z</time></trkpt><trkpt lat="44.5506926" lon="5.5946049"><ele>1156.0</ele><time>2026-05-01T12:17:55.382Z</time></trkpt><trkpt lat="44.550772" lon="5.5944038"><ele>1148.6666666666665</ele><time>2026-05-01T12:17:56.381Z</time></trkpt><trkpt lat="44.5508792" lon="5.5942366"><ele>1141.3333333333333</ele><time>2026-05-01T12:17:57.381Z</time></trkpt><trkpt lat="44.5510045" lon="5.5941117"><ele>1134.0</ele><time>2026-05-01T12:17:58.381Z</time></trkpt><trkpt lat="44.5511471" lon="5.5940332"><ele>1138.25</ele><time>2026-05-01T12:17:59.382Z</time></trkpt><trkpt lat="44.5512923" lon="5.5939946"><ele>1142.5</ele><time>2026-05-01T12:18:00.382Z</time></trkpt><trkpt lat="44.5514352" lon="5.5939592"><ele>1146.75</ele><time>2026-05-01T12:18:01.381Z</time></trkpt><trkpt lat="44.5515729" lon="5.5938774"><ele>1151.0</ele><time>2026-05-01T12:18:02.381Z</time></trkpt><trkpt lat="44.5517001" lon="5.5937463"><ele>1152.0</ele><time>2026-05-01T12:18:03.381Z</time></trkpt><trkpt lat="44.5518136" lon="5.5935804"><ele>1153.0</ele><time>2026-05-01T12:18:04.382Z</time></trkpt><trkpt lat="44.5519379" lon="5.5934416"><ele>1154.0</ele><time>2026-05-01T12:18:05.382Z</time></trkpt><trkpt lat="44.5520708" lon="5.59334"><ele>1154.0</ele><time>2026-05-01T12:18:06.382Z</time></trkpt><trkpt lat="44.5521688" lon="5.5932282"><ele>1154.0</ele><time>2026-05-01T12:18:07.381Z</time></trkpt><trkpt lat="44.5522272" lon="5.593095"><ele>1154.0</ele><time>2026-05-01T12:18:08.381Z</time></trkpt><trkpt lat="44.5522486" lon="5.5929402"><ele>1154.0</ele><time>2026-05-01T12:18:09.381Z</time></trkpt><trkpt lat="44.5522486" lon="5.5927757"><ele>1148.0</ele><time>2026-05-01T12:18:10.381Z</time></trkpt><trkpt lat="44.5522441" lon="5.5925795"><ele>1142.0</ele><time>2026-05-01T12:18:11.382Z</time></trkpt><trkpt lat="44.5522632" lon="5.5923651"><ele>1136.0</ele><time>2026-05-01T12:18:12.381Z</time></trkpt><trkpt lat="44.5522952" lon="5.5921468"><ele>1132.25</ele><time>2026-05-01T12:18:13.381Z</time></trkpt><trkpt lat="44.5523429" lon="5.5919401"><ele>1128.5</ele><time>2026-05-01T12:18:14.381Z</time></trkpt><trkpt lat="44.5524206" lon="5.5917681"><ele>1124.75</ele><time>2026-05-01T12:18:15.381Z</time></trkpt><trkpt lat="44.5525094" lon="5.5916558"><ele>1121.0</ele><time>2026-05-01T12:18:16.381Z</time></trkpt><trkpt lat="44.552608" lon="5.5915954"><ele>1121.0</ele><time>2026-05-01T12:18:17.381Z</time></trkpt><trkpt lat="44.5527111" lon="5.5915644"><ele>1121.0</ele><time>2026-05-01T12:18:18.381Z</time></trkpt><trkpt lat="44.5528083" lon="5.5915292"><ele>1121.0</ele><time>2026-05-01T12:18:19.382Z</time></trkpt><trkpt lat="44.5528853" lon="5.5914593"><ele>1121.0</ele><time>2026-05-01T12:18:20.381Z</time></trkpt><trkpt lat="44.5529354" lon="5.591358"><ele>1121.0</ele><time>2026-05-01T12:18:21.381Z</time></trkpt><trkpt lat="44.5529455" lon="5.5912471"><ele>1121.0</ele><time>2026-05-01T12:18:22.381Z</time></trkpt><trkpt lat="44.552915" lon="5.5911457"><ele>1121.0</ele><time>2026-05-01T12:18:23.381Z</time></trkpt><trkpt lat="44.5528568" lon="5.5910843"><ele>1121.0</ele><time>2026-05-01T12:18:24.381Z</time></trkpt><trkpt lat="44.5527793" lon="5.5910563"><ele>1121.0</ele><time>2026-05-01T12:18:25.381Z</time></trkpt><trkpt lat="44.5526872" lon="5.5910779"><ele>1121.0</ele><time>2026-05-01T12:18:26.382Z</time></trkpt><trkpt lat="44.5525878" lon="5.5911358"><ele>1121.0</ele><time>2026-05-01T12:18:27.382Z</time></trkpt><trkpt lat="44.552482" lon="5.5912278"><ele>1121.0</ele><time>2026-05-01T12:18:28.381Z</time></trkpt><trkpt lat="44.5523775" lon="5.5913505"><ele>1121.0</ele><time>2026-05-01T12:18:29.381Z</time></trkpt><trkpt lat="44.5522845" lon="5.5915158"><ele>1121.0</ele><time>2026-05-01T12:18:30.381Z</time></trkpt><trkpt lat="44.552203" lon="5.5917179"><ele>1121.0</ele><time>2026-05-01T12:18:31.381Z</time></trkpt><trkpt lat="44.5521256" lon="5.5919297"><ele>1121.0</ele><time>2026-05-01T12:18:32.381Z</time></trkpt><trkpt lat="44.5520542" lon="5.5921407"><ele>1121.0</ele><time>2026-05-01T12:18:33.382Z</time></trkpt><trkpt lat="44.5520045" lon="5.5923563"><ele>1121.0</ele><time>2026-05-01T12:18:34.382Z</time></trkpt><trkpt lat="44.5519832" lon="5.592557"><ele>1121.0</ele><time>2026-05-01T12:18:35.381Z</time></trkpt><trkpt lat="44.5519481" lon="5.5927223"><ele>1121.0</ele><time>2026-05-01T12:18:36.381Z</time></trkpt><trkpt lat="44.5518797" lon="5.5928592"><ele>1121.0</ele><time>2026-05-01T12:18:37.381Z</time></trkpt><trkpt lat="44.551785" lon="5.5929692"><ele>1121.0</ele><time>2026-05-01T12:18:38.382Z</time></trkpt><trkpt lat="44.5516753" lon="5.5930757"><ele>1121.0</ele><time>2026-05-01T12:18:39.381Z</time></trkpt><trkpt lat="44.5515625" lon="5.5931987"><ele>1121.0</ele><time>2026-05-01T12:18:40.381Z</time></trkpt><trkpt lat="44.5514238" lon="5.5932855"><ele>1121.0</ele><time>2026-05-01T12:18:41.381Z</time></trkpt><trkpt lat="44.5512639" lon="5.5933348"><ele>1116.6666666666667</ele><time>2026-05-01T12:18:42.381Z</time></trkpt><trkpt lat="44.551088" lon="5.5933566"><ele>1112.3333333333333</ele><time>2026-05-01T12:18:43.382Z</time></trkpt><trkpt lat="44.5509179" lon="5.5933659"><ele>1108.0</ele><time>2026-05-01T12:18:44.381Z</time></trkpt><trkpt lat="44.5507533" lon="5.5933936"><ele>1108.0</ele><time>2026-05-01T12:18:45.381Z</time></trkpt><trkpt lat="44.5506057" lon="5.5934719"><ele>1108.0</ele><time>2026-05-01T12:18:46.381Z</time></trkpt><trkpt lat="44.5504874" lon="5.5935717"><ele>1108.0</ele><time>2026-05-01T12:18:47.381Z</time></trkpt><trkpt lat="44.5503885" lon="5.5936506"><ele>1108.0</ele><time>2026-05-01T12:18:48.382Z</time></trkpt><trkpt lat="44.5502915" lon="5.5936778"><ele>1109.2</ele><time>2026-05-01T12:18:49.381Z</time></trkpt><trkpt lat="44.5502058" lon="5.5936479"><ele>1110.4</ele><time>2026-05-01T12:18:50.381Z</time></trkpt><trkpt lat="44.5501453" lon="5.5935623"><ele>1111.6000000000001</ele><time>2026-05-01T12:18:51.382Z</time></trkpt><trkpt lat="44.5501188" lon="5.5934385"><ele>1112.8</ele><time>2026-05-01T12:18:52.381Z</time></trkpt><trkpt lat="44.5501241" lon="5.5932874"><ele>1114.0</ele><time>2026-05-01T12:18:53.381Z</time></trkpt><trkpt lat="44.5501543" lon="5.5931189"><ele>1114.0</ele><time>2026-05-01T12:18:54.381Z</time></trkpt><trkpt lat="44.5501984" lon="5.5929264"><ele>1114.0</ele><time>2026-05-01T12:18:55.381Z</time></trkpt><trkpt lat="44.5502479" lon="5.5927039"><ele>1114.0</ele><time>2026-05-01T12:18:56.381Z</time></trkpt><trkpt lat="44.5503044" lon="5.5924546"><ele>1113.3333333333333</ele><time>2026-05-01T12:18:57.381Z</time></trkpt><trkpt lat="44.5503617" lon="5.5921876"><ele>1112.6666666666667</ele><time>2026-05-01T12:18:58.381Z</time></trkpt><trkpt lat="44.5504135" lon="5.5919017"><ele>1112.0</ele><time>2026-05-01T12:18:59.382Z</time></trkpt><trkpt lat="44.5504512" lon="5.5915974"><ele>1097.0</ele><time>2026-05-01T12:19:00.381Z</time></trkpt><trkpt lat="44.5504751" lon="5.5912764"><ele>1082.0</ele><time>2026-05-01T12:19:01.381Z</time></trkpt><trkpt lat="44.5504896" lon="5.5909503"><ele>1079.0</ele><time>2026-05-01T12:19:02.381Z</time></trkpt><trkpt lat="44.5504989" lon="5.5906231"><ele>1076.0</ele><time>2026-05-01T12:19:03.381Z</time></trkpt><trkpt lat="44.5505085" lon="5.590297"><ele>1074.5</ele><time>2026-05-01T12:19:04.381Z</time></trkpt><trkpt lat="44.5505149" lon="5.5899785"><ele>1073.0</ele><time>2026-05-01T12:19:05.382Z</time></trkpt><trkpt lat="44.5505196" lon="5.5896658"><ele>1074.3333333333335</ele><time>2026-05-01T12:19:06.381Z</time></trkpt><trkpt lat="44.5505308" lon="5.5893588"><ele>1075.6666666666667</ele><time>2026-05-01T12:19:07.381Z</time></trkpt><trkpt lat="44.5505541" lon="5.5890567"><ele>1077.0</ele><time>2026-05-01T12:19:08.382Z</time></trkpt><trkpt lat="44.5505875" lon="5.5887606"><ele>1079.6666666666667</ele><time>2026-05-01T12:19:09.381Z</time></trkpt><trkpt lat="44.5506386" lon="5.5884792"><ele>1082.3333333333335</ele><time>2026-05-01T12:19:10.381Z</time></trkpt><trkpt lat="44.550697" lon="5.5882089"><ele>1085.0</ele><time>2026-05-01T12:19:11.381Z</time></trkpt><trkpt lat="44.5507537" lon="5.5879384"><ele>1086.6666666666667</ele><time>2026-05-01T12:19:12.381Z</time></trkpt><trkpt lat="44.5508073" lon="5.5876645"><ele>1088.3333333333333</ele><time>2026-05-01T12:19:13.381Z</time></trkpt><trkpt lat="44.5508574" lon="5.5874019"><ele>1090.0</ele><time>2026-05-01T12:19:14.382Z</time></trkpt><trkpt lat="44.5509128" lon="5.5871505"><ele>1093.3333333333333</ele><time>2026-05-01T12:19:15.381Z</time></trkpt><trkpt lat="44.5509837" lon="5.5869148"><ele>1096.6666666666667</ele><time>2026-05-01T12:19:16.381Z</time></trkpt><trkpt lat="44.5510782" lon="5.5866994"><ele>1100.0</ele><time>2026-05-01T12:19:17.381Z</time></trkpt><trkpt lat="44.5512057" lon="5.5865043"><ele>1092.6666666666667</ele><time>2026-05-01T12:19:18.382Z</time></trkpt><trkpt lat="44.5513534" lon="5.5863271"><ele>1085.3333333333333</ele><time>2026-05-01T12:19:19.381Z</time></trkpt><trkpt lat="44.5514959" lon="5.5861294"><ele>1078.0</ele><time>2026-05-01T12:19:20.381Z</time></trkpt><trkpt lat="44.5516474" lon="5.5859243"><ele>1078.0</ele><time>2026-05-01T12:19:21.381Z</time></trkpt><trkpt lat="44.5518255" lon="5.5857537"><ele>1078.0</ele><time>2026-05-01T12:19:22.381Z</time></trkpt><trkpt lat="44.5520129" lon="5.5856044"><ele>1078.0</ele><time>2026-05-01T12:19:23.381Z</time></trkpt><trkpt lat="44.552186" lon="5.5854404"><ele>1073.0</ele><time>2026-05-01T12:19:24.381Z</time></trkpt><trkpt lat="44.552344" lon="5.5852468"><ele>1068.0</ele><time>2026-05-01T12:19:25.381Z</time></trkpt><trkpt lat="44.5524869" lon="5.5850174"><ele>1063.0</ele><time>2026-05-01T12:19:26.381Z</time></trkpt><trkpt lat="44.5526165" lon="5.5847719"><ele>1063.0</ele><time>2026-05-01T12:19:27.383Z</time></trkpt><trkpt lat="44.5527328" lon="5.5845219"><ele>1063.0</ele><time>2026-05-01T12:19:28.381Z</time></trkpt><trkpt lat="44.5528381" lon="5.5842664"><ele>1063.0</ele><time>2026-05-01T12:19:29.382Z</time></trkpt><trkpt lat="44.5529304" lon="5.584006"><ele>1059.3333333333333</ele><time>2026-05-01T12:19:30.382Z</time></trkpt><trkpt lat="44.5530069" lon="5.5837416"><ele>1055.6666666666667</ele><time>2026-05-01T12:19:31.381Z</time></trkpt><trkpt lat="44.5530558" lon="5.583469"><ele>1052.0</ele><time>2026-05-01T12:19:32.382Z</time></trkpt><trkpt lat="44.553074" lon="5.5831948"><ele>1051.3333333333335</ele><time>2026-05-01T12:19:33.381Z</time></trkpt><trkpt lat="44.5530747" lon="5.5829246"><ele>1050.6666666666667</ele><time>2026-05-01T12:19:34.382Z</time></trkpt><trkpt lat="44.5530956" lon="5.5826608"><ele>1050.0</ele><time>2026-05-01T12:19:35.381Z</time></trkpt><trkpt lat="44.5531539" lon="5.5824132"><ele>1050.0</ele><time>2026-05-01T12:19:36.381Z</time></trkpt><trkpt lat="44.5532219" lon="5.5821806"><ele>1050.0</ele><time>2026-05-01T12:19:37.381Z</time></trkpt><trkpt lat="44.5533" lon="5.5819631"><ele>1050.0</ele><time>2026-05-01T12:19:38.382Z</time></trkpt><trkpt lat="44.5533996" lon="5.5817741"><ele>1055.0</ele><time>2026-05-01T12:19:39.381Z</time></trkpt><trkpt lat="44.5535192" lon="5.5816327"><ele>1060.0</ele><time>2026-05-01T12:19:40.381Z</time></trkpt><trkpt lat="44.5536551" lon="5.5815369"><ele>1065.0</ele><time>2026-05-01T12:19:41.382Z</time></trkpt><trkpt lat="44.5537814" lon="5.5814367"><ele>1057.0</ele><time>2026-05-01T12:19:42.381Z</time></trkpt><trkpt lat="44.5538783" lon="5.5812886"><ele>1049.0</ele><time>2026-05-01T12:19:43.382Z</time></trkpt><trkpt lat="44.5539583" lon="5.5811069"><ele>1041.0</ele><time>2026-05-01T12:19:44.381Z</time></trkpt><trkpt lat="44.5540347" lon="5.5808943"><ele>1041.0</ele><time>2026-05-01T12:19:45.382Z</time></trkpt><trkpt lat="44.5541175" lon="5.5806673"><ele>1041.0</ele><time>2026-05-01T12:19:46.381Z</time></trkpt><trkpt lat="44.5542137" lon="5.5804342"><ele>1041.0</ele><time>2026-05-01T12:19:47.381Z</time></trkpt><trkpt lat="44.5543213" lon="5.5801994"><ele>1046.0</ele><time>2026-05-01T12:19:48.383Z</time></trkpt><trkpt lat="44.5544417" lon="5.5799824"><ele>1051.0</ele><time>2026-05-01T12:19:49.381Z</time></trkpt><trkpt lat="44.5545738" lon="5.5797929"><ele>1056.0</ele><time>2026-05-01T12:19:50.381Z</time></trkpt><trkpt lat="44.5546968" lon="5.5796126"><ele>1052.5</ele><time>2026-05-01T12:19:51.381Z</time></trkpt><trkpt lat="44.5547941" lon="5.579429"><ele>1049.0</ele><time>2026-05-01T12:19:52.381Z</time></trkpt><trkpt lat="44.5548799" lon="5.5792767"><ele>1045.5</ele><time>2026-05-01T12:19:53.382Z</time></trkpt><trkpt lat="44.5549894" lon="5.5791753"><ele>1042.0</ele><time>2026-05-01T12:19:54.382Z</time></trkpt><trkpt lat="44.5551155" lon="5.5791243"><ele>1042.0</ele><time>2026-05-01T12:19:55.381Z</time></trkpt><trkpt lat="44.5552521" lon="5.5791286"><ele>1042.0</ele><time>2026-05-01T12:19:56.381Z</time></trkpt><trkpt lat="44.5553914" lon="5.5791741"><ele>1042.0</ele><time>2026-05-01T12:19:57.382Z</time></trkpt><trkpt lat="44.5555426" lon="5.5792291"><ele>1042.0</ele><time>2026-05-01T12:19:58.381Z</time></trkpt><trkpt lat="44.5557123" lon="5.5792653"><ele>1040.6666666666665</ele><time>2026-05-01T12:19:59.381Z</time></trkpt><trkpt lat="44.5558919" lon="5.5792662"><ele>1039.3333333333333</ele><time>2026-05-01T12:20:00.381Z</time></trkpt><trkpt lat="44.5560772" lon="5.5792595"><ele>1038.0</ele><time>2026-05-01T12:20:01.381Z</time></trkpt><trkpt lat="44.5562632" lon="5.5792909"><ele>1037.6666666666667</ele><time>2026-05-01T12:20:02.381Z</time></trkpt><trkpt lat="44.5564331" lon="5.5793578"><ele>1037.3333333333335</ele><time>2026-05-01T12:20:03.382Z</time></trkpt><trkpt lat="44.5566024" lon="5.579418"><ele>1037.0</ele><time>2026-05-01T12:20:04.383Z</time></trkpt><trkpt lat="44.5567691" lon="5.5794319"><ele>1037.0</ele><time>2026-05-01T12:20:05.381Z</time></trkpt><trkpt lat="44.5569266" lon="5.5793945"><ele>1037.0</ele><time>2026-05-01T12:20:06.381Z</time></trkpt><trkpt lat="44.5570742" lon="5.5793098"><ele>1037.0</ele><time>2026-05-01T12:20:07.381Z</time></trkpt><trkpt lat="44.5572185" lon="5.579188"><ele>1029.6666666666667</ele><time>2026-05-01T12:20:08.381Z</time></trkpt><trkpt lat="44.557362" lon="5.5790403"><ele>1022.3333333333333</ele><time>2026-05-01T12:20:09.381Z</time></trkpt><trkpt lat="44.557509" lon="5.5788715"><ele>1015.0</ele><time>2026-05-01T12:20:10.381Z</time></trkpt><trkpt lat="44.5576623" lon="5.5786879"><ele>1010.6666666666666</ele><time>2026-05-01T12:20:11.381Z</time></trkpt><trkpt lat="44.5578161" lon="5.5784898"><ele>1006.3333333333333</ele><time>2026-05-01T12:20:12.381Z</time></trkpt><trkpt lat="44.5579624" lon="5.5782817"><ele>1002.0</ele><time>2026-05-01T12:20:13.381Z</time></trkpt><trkpt lat="44.55809" lon="5.5780597"><ele>1005.3333333333333</ele><time>2026-05-01T12:20:14.382Z</time></trkpt><trkpt lat="44.5582026" lon="5.5778251"><ele>1008.6666666666666</ele><time>2026-05-01T12:20:15.381Z</time></trkpt><trkpt lat="44.5582999" lon="5.5775708"><ele>1012.0</ele><time>2026-05-01T12:20:16.381Z</time></trkpt><trkpt lat="44.5583698" lon="5.5773018"><ele>1012.0</ele><time>2026-05-01T12:20:17.381Z</time></trkpt><trkpt lat="44.5584232" lon="5.5770262"><ele>1012.0</ele><time>2026-05-01T12:20:18.381Z</time></trkpt><trkpt lat="44.5584703" lon="5.5767448"><ele>1012.0</ele><time>2026-05-01T12:20:19.381Z</time></trkpt><trkpt lat="44.5585121" lon="5.5764535"><ele>1017.3333333333333</ele><time>2026-05-01T12:20:20.382Z</time></trkpt><trkpt lat="44.5585581" lon="5.5761572"><ele>1022.6666666666667</ele><time>2026-05-01T12:20:21.381Z</time></trkpt><trkpt lat="44.558624" lon="5.5758675"><ele>1028.0</ele><time>2026-05-01T12:20:22.381Z</time></trkpt><trkpt lat="44.5587109" lon="5.5755931"><ele>1015.3333333333334</ele><time>2026-05-01T12:20:23.381Z</time></trkpt><trkpt lat="44.558798" lon="5.5753252"><ele>1002.6666666666667</ele><time>2026-05-01T12:20:24.381Z</time></trkpt><trkpt lat="44.5588707" lon="5.575052"><ele>990.0</ele><time>2026-05-01T12:20:25.382Z</time></trkpt><trkpt lat="44.5589381" lon="5.5747827"><ele>992.3333333333333</ele><time>2026-05-01T12:20:26.382Z</time></trkpt><trkpt lat="44.5590058" lon="5.5745191"><ele>994.6666666666666</ele><time>2026-05-01T12:20:27.381Z</time></trkpt><trkpt lat="44.5590641" lon="5.5742729"><ele>997.0</ele><time>2026-05-01T12:20:28.381Z</time></trkpt><trkpt lat="44.5591004" lon="5.5740441"><ele>997.0</ele><time>2026-05-01T12:20:29.382Z</time></trkpt><trkpt lat="44.5591101" lon="5.5738289"><ele>997.0</ele><time>2026-05-01T12:20:30.381Z</time></trkpt><trkpt lat="44.5591162" lon="5.5736444"><ele>997.0</ele><time>2026-05-01T12:20:31.383Z</time></trkpt><trkpt lat="44.5591341" lon="5.5734952"><ele>997.0</ele><time>2026-05-01T12:20:32.381Z</time></trkpt><trkpt lat="44.5591736" lon="5.5733866"><ele>996.9999999999999</ele><time>2026-05-01T12:20:33.382Z</time></trkpt><trkpt lat="44.5592292" lon="5.5733308"><ele>997.0</ele><time>2026-05-01T12:20:34.381Z</time></trkpt><trkpt lat="44.559339" lon="5.573381"><ele>997.0</ele><time>2026-05-01T12:20:36.381Z</time></trkpt><trkpt lat="44.5593652" lon="5.573469"><ele>997.0</ele><time>2026-05-01T12:20:37.381Z</time></trkpt><trkpt lat="44.5593612" lon="5.5735834"><ele>996.9999999999999</ele><time>2026-05-01T12:20:38.381Z</time></trkpt><trkpt lat="44.5593373" lon="5.5737202"><ele>997.0</ele><time>2026-05-01T12:20:39.381Z</time></trkpt><trkpt lat="44.5593085" lon="5.573884"><ele>997.0</ele><time>2026-05-01T12:20:40.381Z</time></trkpt><trkpt lat="44.5592839" lon="5.5740736"><ele>997.0</ele><time>2026-05-01T12:20:41.381Z</time></trkpt><trkpt lat="44.5592667" lon="5.5742852"><ele>997.0</ele><time>2026-05-01T12:20:42.382Z</time></trkpt><trkpt lat="44.5592505" lon="5.5745222"><ele>994.6666666666666</ele><time>2026-05-01T12:20:43.381Z</time></trkpt><trkpt lat="44.5592304" lon="5.5747782"><ele>992.3333333333333</ele><time>2026-05-01T12:20:44.382Z</time></trkpt><trkpt lat="44.5592113" lon="5.5750588"><ele>990.0</ele><time>2026-05-01T12:20:45.381Z</time></trkpt><trkpt lat="44.559185" lon="5.5753619"><ele>988.0</ele><time>2026-05-01T12:20:46.381Z</time></trkpt><trkpt lat="44.559145" lon="5.5756833"><ele>986.0</ele><time>2026-05-01T12:20:47.38Z</time></trkpt><trkpt lat="44.5591085" lon="5.5760056"><ele>983.5</ele><time>2026-05-01T12:20:48.38Z</time></trkpt><trkpt lat="44.5590847" lon="5.5763444"><ele>981.0</ele><time>2026-05-01T12:20:49.38Z</time></trkpt><trkpt lat="44.5590649" lon="5.5766952"><ele>977.5</ele><time>2026-05-01T12:20:50.38Z</time></trkpt><trkpt lat="44.5590451" lon="5.5770516"><ele>974.0</ele><time>2026-05-01T12:20:51.38Z</time></trkpt><trkpt lat="44.5590267" lon="5.5774105"><ele>974.0</ele><time>2026-05-01T12:20:52.38Z</time></trkpt><trkpt lat="44.5590084" lon="5.5777699"><ele>974.0</ele><time>2026-05-01T12:20:53.38Z</time></trkpt><trkpt lat="44.5589896" lon="5.5781314"><ele>971.5</ele><time>2026-05-01T12:20:54.38Z</time></trkpt><trkpt lat="44.5589689" lon="5.5784867"><ele>969.0</ele><time>2026-05-01T12:20:55.38Z</time></trkpt><trkpt lat="44.5589417" lon="5.5788331"><ele>967.5</ele><time>2026-05-01T12:20:56.38Z</time></trkpt><trkpt lat="44.5589063" lon="5.5791728"><ele>966.0</ele><time>2026-05-01T12:20:57.38Z</time></trkpt><trkpt lat="44.5588612" lon="5.5795046"><ele>963.0</ele><time>2026-05-01T12:20:58.38Z</time></trkpt><trkpt lat="44.5588095" lon="5.5798251"><ele>960.0</ele><time>2026-05-01T12:20:59.38Z</time></trkpt><trkpt lat="44.5587464" lon="5.5801347"><ele>962.3333333333333</ele><time>2026-05-01T12:21:00.38Z</time></trkpt><trkpt lat="44.5586713" lon="5.5804188"><ele>964.6666666666666</ele><time>2026-05-01T12:21:01.381Z</time></trkpt><trkpt lat="44.5585936" lon="5.5806549"><ele>967.0</ele><time>2026-05-01T12:21:02.38Z</time></trkpt><trkpt lat="44.5585089" lon="5.5808527"><ele>967.0</ele><time>2026-05-01T12:21:03.38Z</time></trkpt><trkpt lat="44.5584122" lon="5.5809968"><ele>967.0</ele><time>2026-05-01T12:21:04.38Z</time></trkpt><trkpt lat="44.558316" lon="5.581104"><ele>967.0</ele><time>2026-05-01T12:21:05.38Z</time></trkpt><trkpt lat="44.5582418" lon="5.5811972"><ele>967.0</ele><time>2026-05-01T12:21:06.38Z</time></trkpt><trkpt lat="44.558209" lon="5.5813076"><ele>967.0</ele><time>2026-05-01T12:21:07.381Z</time></trkpt><trkpt lat="44.5582112" lon="5.5814143"><ele>964.6666666666666</ele><time>2026-05-01T12:21:08.38Z</time></trkpt><trkpt lat="44.5582502" lon="5.5815048"><ele>962.3333333333333</ele><time>2026-05-01T12:21:09.38Z</time></trkpt><trkpt lat="44.558315" lon="5.5815574"><ele>960.0</ele><time>2026-05-01T12:21:10.38Z</time></trkpt><trkpt lat="44.5583981" lon="5.5815669"><ele>957.6666666666667</ele><time>2026-05-01T12:21:11.38Z</time></trkpt><trkpt lat="44.5584755" lon="5.5815229"><ele>955.3333333333334</ele><time>2026-05-01T12:21:12.381Z</time></trkpt><trkpt lat="44.558537" lon="5.5814337"><ele>953.0</ele><time>2026-05-01T12:21:13.38Z</time></trkpt><trkpt lat="44.5585941" lon="5.5813049"><ele>952.5</ele><time>2026-05-01T12:21:14.38Z</time></trkpt><trkpt lat="44.5586548" lon="5.5811453"><ele>952.0</ele><time>2026-05-01T12:21:15.38Z</time></trkpt><trkpt lat="44.558738" lon="5.580974"><ele>951.5</ele><time>2026-05-01T12:21:16.381Z</time></trkpt><trkpt lat="44.558847" lon="5.5807957"><ele>951.0</ele><time>2026-05-01T12:21:17.38Z</time></trkpt><trkpt lat="44.5589774" lon="5.580618"><ele>951.0</ele><time>2026-05-01T12:21:18.38Z</time></trkpt><trkpt lat="44.5591024" lon="5.5804112"><ele>951.0</ele><time>2026-05-01T12:21:19.38Z</time></trkpt><trkpt lat="44.5592143" lon="5.5801762"><ele>951.0</ele><time>2026-05-01T12:21:20.38Z</time></trkpt><trkpt lat="44.5593076" lon="5.5799064"><ele>954.0</ele><time>2026-05-01T12:21:21.382Z</time></trkpt><trkpt lat="44.5593889" lon="5.5796303"><ele>957.0</ele><time>2026-05-01T12:21:22.38Z</time></trkpt><trkpt lat="44.5594618" lon="5.5793441"><ele>960.0</ele><time>2026-05-01T12:21:23.38Z</time></trkpt><trkpt lat="44.5595308" lon="5.5790589"><ele>950.3333333333333</ele><time>2026-05-01T12:21:24.381Z</time></trkpt><trkpt lat="44.5595826" lon="5.5787707"><ele>940.6666666666666</ele><time>2026-05-01T12:21:25.38Z</time></trkpt><trkpt lat="44.559611" lon="5.5784809"><ele>931.0</ele><time>2026-05-01T12:21:26.38Z</time></trkpt><trkpt lat="44.559637" lon="5.578195"><ele>931.0</ele><time>2026-05-01T12:21:27.38Z</time></trkpt><trkpt lat="44.5596854" lon="5.5779069"><ele>931.0</ele><time>2026-05-01T12:21:28.38Z</time></trkpt><trkpt lat="44.5597631" lon="5.5776244"><ele>931.0</ele><time>2026-05-01T12:21:29.38Z</time></trkpt><trkpt lat="44.559863" lon="5.5773488"><ele>935.5</ele><time>2026-05-01T12:21:30.38Z</time></trkpt><trkpt lat="44.5599558" lon="5.5770632"><ele>940.0</ele><time>2026-05-01T12:21:31.38Z</time></trkpt><trkpt lat="44.5600312" lon="5.5767636"><ele>943.0</ele><time>2026-05-01T12:21:32.38Z</time></trkpt><trkpt lat="44.5601218" lon="5.5764673"><ele>946.0</ele><time>2026-05-01T12:21:33.38Z</time></trkpt><trkpt lat="44.5602342" lon="5.5761867"><ele>950.0</ele><time>2026-05-01T12:21:34.38Z</time></trkpt><trkpt lat="44.5603235" lon="5.5758947"><ele>954.0</ele><time>2026-05-01T12:21:35.38Z</time></trkpt><trkpt lat="44.5604012" lon="5.5755966"><ele>945.0</ele><time>2026-05-01T12:21:36.38Z</time></trkpt><trkpt lat="44.5605099" lon="5.5753258"><ele>936.0</ele><time>2026-05-01T12:21:37.38Z</time></trkpt><trkpt lat="44.5606311" lon="5.5750752"><ele>927.0</ele><time>2026-05-01T12:21:38.381Z</time></trkpt><trkpt lat="44.5607385" lon="5.5748301"><ele>927.0</ele><time>2026-05-01T12:21:39.38Z</time></trkpt><trkpt lat="44.5608339" lon="5.5745984"><ele>927.0</ele><time>2026-05-01T12:21:40.38Z</time></trkpt><trkpt lat="44.5609105" lon="5.5743862"><ele>927.0</ele><time>2026-05-01T12:21:41.38Z</time></trkpt><trkpt lat="44.5609711" lon="5.5741979"><ele>926.0</ele><time>2026-05-01T12:21:42.38Z</time></trkpt><trkpt lat="44.5610077" lon="5.5740259"><ele>925.0</ele><time>2026-05-01T12:21:43.38Z</time></trkpt><trkpt lat="44.5610144" lon="5.5738527"><ele>924.0</ele><time>2026-05-01T12:21:44.38Z</time></trkpt><trkpt lat="44.5609844" lon="5.5736854"><ele>923.0</ele><time>2026-05-01T12:21:45.38Z</time></trkpt><trkpt lat="44.5609242" lon="5.5735375"><ele>923.0</ele><time>2026-05-01T12:21:46.38Z</time></trkpt><trkpt lat="44.5608358" lon="5.5734143"><ele>923.0</ele><time>2026-05-01T12:21:47.38Z</time></trkpt><trkpt lat="44.560716" lon="5.573329"><ele>923.0</ele><time>2026-05-01T12:21:48.38Z</time></trkpt><trkpt lat="44.560584" lon="5.5732652"><ele>923.0</ele><time>2026-05-01T12:21:49.38Z</time></trkpt><trkpt lat="44.5604621" lon="5.5731762"><ele>927.25</ele><time>2026-05-01T12:21:50.38Z</time></trkpt><trkpt lat="44.5603642" lon="5.5730356"><ele>931.5</ele><time>2026-05-01T12:21:51.381Z</time></trkpt><trkpt lat="44.5602901" lon="5.5728588"><ele>935.75</ele><time>2026-05-01T12:21:52.38Z</time></trkpt><trkpt lat="44.5602288" lon="5.5726583"><ele>940.0</ele><time>2026-05-01T12:21:53.381Z</time></trkpt><trkpt lat="44.5601755" lon="5.5724504"><ele>940.0</ele><time>2026-05-01T12:21:54.38Z</time></trkpt><trkpt lat="44.560124" lon="5.5722469"><ele>940.0</ele><time>2026-05-01T12:21:55.381Z</time></trkpt><trkpt lat="44.5600911" lon="5.5720405"><ele>940.0</ele><time>2026-05-01T12:21:56.38Z</time></trkpt><trkpt lat="44.5600984" lon="5.571831"><ele>938.3333333333333</ele><time>2026-05-01T12:21:57.38Z</time></trkpt><trkpt lat="44.560141" lon="5.5716216"><ele>936.6666666666667</ele><time>2026-05-01T12:21:58.38Z</time></trkpt><trkpt lat="44.5602064" lon="5.5714153"><ele>935.0</ele><time>2026-05-01T12:21:59.381Z</time></trkpt><trkpt lat="44.5602677" lon="5.5712046"><ele>938.0</ele><time>2026-05-01T12:22:00.38Z</time></trkpt><trkpt lat="44.5603409" lon="5.5710052"><ele>941.0</ele><time>2026-05-01T12:22:01.381Z</time></trkpt><trkpt lat="44.5604472" lon="5.5708385"><ele>944.0</ele><time>2026-05-01T12:22:02.38Z</time></trkpt><trkpt lat="44.5605723" lon="5.570698"><ele>932.3333333333334</ele><time>2026-05-01T12:22:03.38Z</time></trkpt><trkpt lat="44.5607265" lon="5.5705886"><ele>920.6666666666667</ele><time>2026-05-01T12:22:04.38Z</time></trkpt><trkpt lat="44.5608848" lon="5.5704806"><ele>909.0</ele><time>2026-05-01T12:22:05.38Z</time></trkpt><trkpt lat="44.5610523" lon="5.5703706"><ele>908.3333333333333</ele><time>2026-05-01T12:22:06.38Z</time></trkpt><trkpt lat="44.5612213" lon="5.5702437"><ele>907.6666666666666</ele><time>2026-05-01T12:22:07.38Z</time></trkpt><trkpt lat="44.5613766" lon="5.5700795"><ele>907.0</ele><time>2026-05-01T12:22:08.38Z</time></trkpt><trkpt lat="44.5615353" lon="5.5699116"><ele>907.0</ele><time>2026-05-01T12:22:09.38Z</time></trkpt><trkpt lat="44.5617155" lon="5.5697856"><ele>907.0</ele><time>2026-05-01T12:22:10.381Z</time></trkpt><trkpt lat="44.5618984" lon="5.5696843"><ele>907.0</ele><time>2026-05-01T12:22:11.381Z</time></trkpt><trkpt lat="44.5620633" lon="5.5695903"><ele>903.0</ele><time>2026-05-01T12:22:12.38Z</time></trkpt><trkpt lat="44.5622044" lon="5.5694926"><ele>899.0</ele><time>2026-05-01T12:22:13.38Z</time></trkpt><trkpt lat="44.5623214" lon="5.5693604"><ele>895.0</ele><time>2026-05-01T12:22:14.38Z</time></trkpt><trkpt lat="44.5624096" lon="5.5691993"><ele>895.0</ele><time>2026-05-01T12:22:15.38Z</time></trkpt><trkpt lat="44.5624693" lon="5.5690212"><ele>895.0</ele><time>2026-05-01T12:22:16.38Z</time></trkpt><trkpt lat="44.5625024" lon="5.5688323"><ele>895.0</ele><time>2026-05-01T12:22:17.38Z</time></trkpt><trkpt lat="44.5625146" lon="5.5686392"><ele>895.0</ele><time>2026-05-01T12:22:18.38Z</time></trkpt><trkpt lat="44.5625215" lon="5.5684474"><ele>897.25</ele><time>2026-05-01T12:22:19.381Z</time></trkpt><trkpt lat="44.562533" lon="5.5682618"><ele>899.5</ele><time>2026-05-01T12:22:20.38Z</time></trkpt><trkpt lat="44.5625675" lon="5.5680815"><ele>901.75</ele><time>2026-05-01T12:22:21.38Z</time></trkpt><trkpt lat="44.5626286" lon="5.5679067"><ele>904.0</ele><time>2026-05-01T12:22:22.38Z</time></trkpt><trkpt lat="44.5627046" lon="5.5677384"><ele>906.0</ele><time>2026-05-01T12:22:23.38Z</time></trkpt><trkpt lat="44.5627868" lon="5.5675671"><ele>908.0</ele><time>2026-05-01T12:22:24.38Z</time></trkpt><trkpt lat="44.5628653" lon="5.5673792"><ele>910.0</ele><time>2026-05-01T12:22:25.38Z</time></trkpt><trkpt lat="44.5629334" lon="5.567176"><ele>900.0</ele><time>2026-05-01T12:22:26.38Z</time></trkpt><trkpt lat="44.5629889" lon="5.5669581"><ele>890.0</ele><time>2026-05-01T12:22:27.38Z</time></trkpt><trkpt lat="44.563023" lon="5.5667323"><ele>880.0</ele><time>2026-05-01T12:22:28.38Z</time></trkpt><trkpt lat="44.563027" lon="5.5664982"><ele>880.0</ele><time>2026-05-01T12:22:29.38Z</time></trkpt><trkpt lat="44.5629986" lon="5.5662637"><ele>880.0</ele><time>2026-05-01T12:22:30.38Z</time></trkpt><trkpt lat="44.5629313" lon="5.5660405"><ele>880.0</ele><time>2026-05-01T12:22:31.38Z</time></trkpt><trkpt lat="44.5628316" lon="5.5658323"><ele>883.6666666666666</ele><time>2026-05-01T12:22:32.38Z</time></trkpt><trkpt lat="44.5627021" lon="5.5656534"><ele>887.3333333333333</ele><time>2026-05-01T12:22:33.38Z</time></trkpt><trkpt lat="44.5625666" lon="5.5655031"><ele>891.0</ele><time>2026-05-01T12:22:34.38Z</time></trkpt><trkpt lat="44.5624471" lon="5.5653624"><ele>885.6666666666667</ele><time>2026-05-01T12:22:35.38Z</time></trkpt><trkpt lat="44.5623631" lon="5.5651823"><ele>880.3333333333334</ele><time>2026-05-01T12:22:36.38Z</time></trkpt><trkpt lat="44.5623153" lon="5.5649715"><ele>875.0</ele><time>2026-05-01T12:22:37.381Z</time></trkpt><trkpt lat="44.5623001" lon="5.5647464"><ele>875.0</ele><time>2026-05-01T12:22:38.381Z</time></trkpt><trkpt lat="44.5623105" lon="5.5645473"><ele>875.0</ele><time>2026-05-01T12:22:39.38Z</time></trkpt><trkpt lat="44.5623543" lon="5.5643727"><ele>875.0</ele><time>2026-05-01T12:22:40.381Z</time></trkpt><trkpt lat="44.5624382" lon="5.5642204"><ele>875.0</ele><time>2026-05-01T12:22:41.38Z</time></trkpt><trkpt lat="44.5625457" lon="5.564068"><ele>874.0</ele><time>2026-05-01T12:22:42.38Z</time></trkpt><trkpt lat="44.5626678" lon="5.5639178"><ele>873.0</ele><time>2026-05-01T12:22:43.38Z</time></trkpt><trkpt lat="44.5628083" lon="5.5637812"><ele>872.0</ele><time>2026-05-01T12:22:44.38Z</time></trkpt><trkpt lat="44.5629585" lon="5.5636774"><ele>872.0</ele><time>2026-05-01T12:22:45.38Z</time></trkpt><trkpt lat="44.563105" lon="5.5635806"><ele>872.0</ele><time>2026-05-01T12:22:46.381Z</time></trkpt><trkpt lat="44.5632319" lon="5.5634594"><ele>872.0</ele><time>2026-05-01T12:22:47.38Z</time></trkpt><trkpt lat="44.5633299" lon="5.5633104"><ele>872.0</ele><time>2026-05-01T12:22:48.38Z</time></trkpt><trkpt lat="44.5634013" lon="5.5631245"><ele>872.0</ele><time>2026-05-01T12:22:49.38Z</time></trkpt><trkpt lat="44.5634614" lon="5.5629091"><ele>872.0</ele><time>2026-05-01T12:22:50.38Z</time></trkpt><trkpt lat="44.5635158" lon="5.5626731"><ele>874.3333333333334</ele><time>2026-05-01T12:22:51.38Z</time></trkpt><trkpt lat="44.5635527" lon="5.5624171"><ele>876.6666666666667</ele><time>2026-05-01T12:22:52.38Z</time></trkpt><trkpt lat="44.5635729" lon="5.5621514"><ele>879.0</ele><time>2026-05-01T12:22:53.38Z</time></trkpt><trkpt lat="44.5636156" lon="5.5618842"><ele>880.3333333333333</ele><time>2026-05-01T12:22:54.38Z</time></trkpt><trkpt lat="44.5636811" lon="5.5616343"><ele>881.6666666666666</ele><time>2026-05-01T12:22:55.381Z</time></trkpt><trkpt lat="44.5637205" lon="5.5613835"><ele>883.0</ele><time>2026-05-01T12:22:56.38Z</time></trkpt><trkpt lat="44.5637446" lon="5.561149"><ele>877.75</ele><time>2026-05-01T12:22:57.38Z</time></trkpt><trkpt lat="44.5637961" lon="5.5609604"><ele>872.5</ele><time>2026-05-01T12:22:58.38Z</time></trkpt><trkpt lat="44.5638836" lon="5.5608053"><ele>867.25</ele><time>2026-05-01T12:22:59.38Z</time></trkpt><trkpt lat="44.5639932" lon="5.5607019"><ele>862.0</ele><time>2026-05-01T12:23:00.38Z</time></trkpt><trkpt lat="44.5641253" lon="5.5606481"><ele>862.0</ele><time>2026-05-01T12:23:01.38Z</time></trkpt><trkpt lat="44.5642784" lon="5.5606368"><ele>862.0</ele><time>2026-05-01T12:23:02.38Z</time></trkpt><trkpt lat="44.5644372" lon="5.5606625"><ele>862.0</ele><time>2026-05-01T12:23:03.38Z</time></trkpt><trkpt lat="44.5645743" lon="5.5606851"><ele>860.8</ele><time>2026-05-01T12:23:04.38Z</time></trkpt><trkpt lat="44.5646943" lon="5.5606704"><ele>859.6</ele><time>2026-05-01T12:23:05.38Z</time></trkpt><trkpt lat="44.5647942" lon="5.560605"><ele>858.3999999999999</ele><time>2026-05-01T12:23:06.38Z</time></trkpt><trkpt lat="44.5648533" lon="5.5604992"><ele>857.1999999999999</ele><time>2026-05-01T12:23:07.38Z</time></trkpt><trkpt lat="44.5648774" lon="5.5603685"><ele>856.0</ele><time>2026-05-01T12:23:08.38Z</time></trkpt><trkpt lat="44.5648611" lon="5.5602199"><ele>856.0</ele><time>2026-05-01T12:23:09.382Z</time></trkpt><trkpt lat="44.564833" lon="5.5600582"><ele>856.0</ele><time>2026-05-01T12:23:10.38Z</time></trkpt><trkpt lat="44.5648348" lon="5.5598951"><ele>856.0</ele><time>2026-05-01T12:23:11.38Z</time></trkpt><trkpt lat="44.5648732" lon="5.5597389"><ele>856.0</ele><time>2026-05-01T12:23:12.38Z</time></trkpt><trkpt lat="44.5649555" lon="5.5595967"><ele>857.6666666666666</ele><time>2026-05-01T12:23:13.381Z</time></trkpt><trkpt lat="44.5650769" lon="5.5594755"><ele>859.3333333333333</ele><time>2026-05-01T12:23:14.38Z</time></trkpt><trkpt lat="44.565218" lon="5.5593497"><ele>861.0</ele><time>2026-05-01T12:23:15.38Z</time></trkpt><trkpt lat="44.5653481" lon="5.5591747"><ele>854.3333333333333</ele><time>2026-05-01T12:23:16.38Z</time></trkpt><trkpt lat="44.5654542" lon="5.5589641"><ele>847.6666666666666</ele><time>2026-05-01T12:23:17.38Z</time></trkpt><trkpt lat="44.5655246" lon="5.5587386"><ele>841.0</ele><time>2026-05-01T12:23:18.38Z</time></trkpt><trkpt lat="44.5655531" lon="5.5585302"><ele>840.9999999999999</ele><time>2026-05-01T12:23:19.382Z</time></trkpt><trkpt lat="44.5655543" lon="5.558357"><ele>841.0</ele><time>2026-05-01T12:23:20.381Z</time></trkpt><trkpt lat="44.5655338" lon="5.5582292"><ele>841.0</ele><time>2026-05-01T12:23:21.38Z</time></trkpt><trkpt lat="44.5655057" lon="5.558125"><ele>841.0</ele><time>2026-05-01T12:23:22.38Z</time></trkpt><trkpt lat="44.5655114" lon="5.5580173"><ele>840.9999999999999</ele><time>2026-05-01T12:23:23.381Z</time></trkpt><trkpt lat="44.5655544" lon="5.5579322"><ele>841.0</ele><time>2026-05-01T12:23:24.381Z</time></trkpt><trkpt lat="44.5656207" lon="5.5578989"><ele>841.0</ele><time>2026-05-01T12:23:25.38Z</time></trkpt><trkpt lat="44.5656855" lon="5.5579326"><ele>841.0</ele><time>2026-05-01T12:23:26.38Z</time></trkpt><trkpt lat="44.5657275" lon="5.5580174"><ele>841.0</ele><time>2026-05-01T12:23:27.38Z</time></trkpt><trkpt lat="44.5657429" lon="5.5581354"><ele>841.0</ele><time>2026-05-01T12:23:28.38Z</time></trkpt><trkpt lat="44.5657465" lon="5.5582801"><ele>841.0</ele><time>2026-05-01T12:23:29.381Z</time></trkpt><trkpt lat="44.5657602" lon="5.5584471"><ele>841.0</ele><time>2026-05-01T12:23:30.38Z</time></trkpt><trkpt lat="44.5657812" lon="5.5586297"><ele>841.0</ele><time>2026-05-01T12:23:31.38Z</time></trkpt><trkpt lat="44.5658024" lon="5.5588219"><ele>841.0</ele><time>2026-05-01T12:23:32.38Z</time></trkpt><trkpt lat="44.5658071" lon="5.5590125"><ele>841.0</ele><time>2026-05-01T12:23:33.38Z</time></trkpt><trkpt lat="44.5657825" lon="5.5592037"><ele>840.75</ele><time>2026-05-01T12:23:34.38Z</time></trkpt><trkpt lat="44.5657192" lon="5.5593811"><ele>840.5</ele><time>2026-05-01T12:23:35.38Z</time></trkpt><trkpt lat="44.5656442" lon="5.5595385"><ele>840.25</ele><time>2026-05-01T12:23:36.38Z</time></trkpt><trkpt lat="44.5656033" lon="5.5596917"><ele>840.0</ele><time>2026-05-01T12:23:37.38Z</time></trkpt><trkpt lat="44.5656101" lon="5.5598446"><ele>838.5</ele><time>2026-05-01T12:23:38.38Z</time></trkpt><trkpt lat="44.5656558" lon="5.5599732"><ele>837.0</ele><time>2026-05-01T12:23:39.38Z</time></trkpt><trkpt lat="44.5657429" lon="5.5600713"><ele>835.5</ele><time>2026-05-01T12:23:40.38Z</time></trkpt><trkpt lat="44.5658535" lon="5.5601626"><ele>834.0</ele><time>2026-05-01T12:23:41.381Z</time></trkpt><trkpt lat="44.5659636" lon="5.5602921"><ele>834.0</ele><time>2026-05-01T12:23:42.381Z</time></trkpt><trkpt lat="44.5660509" lon="5.5604622"><ele>834.0</ele><time>2026-05-01T12:23:43.38Z</time></trkpt><trkpt lat="44.566104" lon="5.5606647"><ele>834.0</ele><time>2026-05-01T12:23:44.38Z</time></trkpt><trkpt lat="44.5661196" lon="5.5608921"><ele>834.0</ele><time>2026-05-01T12:23:45.381Z</time></trkpt><trkpt lat="44.566108" lon="5.5611151"><ele>834.0</ele><time>2026-05-01T12:23:46.38Z</time></trkpt><trkpt lat="44.5660783" lon="5.5613114"><ele>834.0</ele><time>2026-05-01T12:23:47.38Z</time></trkpt><trkpt lat="44.5660199" lon="5.5614712"><ele>834.0</ele><time>2026-05-01T12:23:48.38Z</time></trkpt><trkpt lat="44.5659265" lon="5.5615956"><ele>832.25</ele><time>2026-05-01T12:23:49.38Z</time></trkpt><trkpt lat="44.5658123" lon="5.5616744"><ele>830.5</ele><time>2026-05-01T12:23:50.38Z</time></trkpt><trkpt lat="44.5656827" lon="5.5617138"><ele>828.75</ele><time>2026-05-01T12:23:51.381Z</time></trkpt><trkpt lat="44.5655499" lon="5.5617328"><ele>827.0</ele><time>2026-05-01T12:23:52.381Z</time></trkpt><trkpt lat="44.5654088" lon="5.5617542"><ele>828.0</ele><time>2026-05-01T12:23:53.381Z</time></trkpt><trkpt lat="44.5652697" lon="5.5617774"><ele>829.0</ele><time>2026-05-01T12:23:54.38Z</time></trkpt><trkpt lat="44.5651367" lon="5.5617999"><ele>830.0</ele><time>2026-05-01T12:23:55.38Z</time></trkpt><trkpt lat="44.5650128" lon="5.5618319"><ele>831.0</ele><time>2026-05-01T12:23:56.38Z</time></trkpt><trkpt lat="44.5649119" lon="5.5619167"><ele>827.25</ele><time>2026-05-01T12:23:57.38Z</time></trkpt><trkpt lat="44.5648289" lon="5.5620415"><ele>823.5</ele><time>2026-05-01T12:23:58.38Z</time></trkpt><trkpt lat="44.5647699" lon="5.5622056"><ele>819.75</ele><time>2026-05-01T12:23:59.38Z</time></trkpt><trkpt lat="44.5647394" lon="5.5624001"><ele>816.0</ele><time>2026-05-01T12:24:00.38Z</time></trkpt><trkpt lat="44.5647376" lon="5.5626206"><ele>816.0</ele><time>2026-05-01T12:24:01.38Z</time></trkpt><trkpt lat="44.5647543" lon="5.5628577"><ele>816.0</ele><time>2026-05-01T12:24:02.38Z</time></trkpt><trkpt lat="44.5647731" lon="5.5631098"><ele>816.0</ele><time>2026-05-01T12:24:03.381Z</time></trkpt><trkpt lat="44.5647864" lon="5.5633707"><ele>814.6666666666667</ele><time>2026-05-01T12:24:04.381Z</time></trkpt><trkpt lat="44.5647993" lon="5.5636372"><ele>813.3333333333334</ele><time>2026-05-01T12:24:05.38Z</time></trkpt><trkpt lat="44.5648023" lon="5.5638966"><ele>812.0</ele><time>2026-05-01T12:24:06.38Z</time></trkpt><trkpt lat="44.5647964" lon="5.5641514"><ele>810.0</ele><time>2026-05-01T12:24:07.38Z</time></trkpt><trkpt lat="44.564777" lon="5.5643983"><ele>808.0</ele><time>2026-05-01T12:24:08.38Z</time></trkpt><trkpt lat="44.5647411" lon="5.5646332"><ele>806.0</ele><time>2026-05-01T12:24:09.38Z</time></trkpt><trkpt lat="44.5646989" lon="5.564851"><ele>806.4</ele><time>2026-05-01T12:24:10.38Z</time></trkpt><trkpt lat="44.5646738" lon="5.5650321"><ele>806.8</ele><time>2026-05-01T12:24:11.381Z</time></trkpt><trkpt lat="44.5646779" lon="5.5651844"><ele>807.1999999999999</ele><time>2026-05-01T12:24:12.38Z</time></trkpt><trkpt lat="44.5647153" lon="5.5653164"><ele>807.5999999999999</ele><time>2026-05-01T12:24:13.38Z</time></trkpt><trkpt lat="44.5647845" lon="5.5654318"><ele>808.0</ele><time>2026-05-01T12:24:14.381Z</time></trkpt><trkpt lat="44.564895" lon="5.5655321"><ele>808.0</ele><time>2026-05-01T12:24:15.381Z</time></trkpt><trkpt lat="44.5650204" lon="5.5656544"><ele>808.0</ele><time>2026-05-01T12:24:16.38Z</time></trkpt><trkpt lat="44.5651351" lon="5.5658355"><ele>808.0</ele><time>2026-05-01T12:24:17.38Z</time></trkpt><trkpt lat="44.5652308" lon="5.5660288"><ele>810.6666666666666</ele><time>2026-05-01T12:24:18.38Z</time></trkpt><trkpt lat="44.5653134" lon="5.5662386"><ele>813.3333333333333</ele><time>2026-05-01T12:24:19.38Z</time></trkpt><trkpt lat="44.565381" lon="5.5664756"><ele>816.0</ele><time>2026-05-01T12:24:20.38Z</time></trkpt><trkpt lat="44.565426" lon="5.5667311"><ele>806.6666666666667</ele><time>2026-05-01T12:24:21.38Z</time></trkpt><trkpt lat="44.5654562" lon="5.5669997"><ele>797.3333333333334</ele><time>2026-05-01T12:24:22.38Z</time></trkpt><trkpt lat="44.565487" lon="5.5672678"><ele>788.0</ele><time>2026-05-01T12:24:23.38Z</time></trkpt><trkpt lat="44.5655184" lon="5.5675398"><ele>787.6666666666667</ele><time>2026-05-01T12:24:24.381Z</time></trkpt><trkpt lat="44.5655421" lon="5.5678067"><ele>787.3333333333333</ele><time>2026-05-01T12:24:25.381Z</time></trkpt><trkpt lat="44.5655427" lon="5.5680777"><ele>787.0</ele><time>2026-05-01T12:24:26.38Z</time></trkpt><trkpt lat="44.5655137" lon="5.568354"><ele>786.6666666666666</ele><time>2026-05-01T12:24:27.38Z</time></trkpt><trkpt lat="44.5654667" lon="5.5686155"><ele>786.3333333333333</ele><time>2026-05-01T12:24:28.382Z</time></trkpt><trkpt lat="44.5654236" lon="5.5688661"><ele>786.0</ele><time>2026-05-01T12:24:29.382Z</time></trkpt><trkpt lat="44.5653985" lon="5.5691018"><ele>784.5</ele><time>2026-05-01T12:24:30.38Z</time></trkpt><trkpt lat="44.5653634" lon="5.56932"><ele>783.0</ele><time>2026-05-01T12:24:31.38Z</time></trkpt><trkpt lat="44.5652982" lon="5.5695023"><ele>781.5</ele><time>2026-05-01T12:24:32.38Z</time></trkpt><trkpt lat="44.5652297" lon="5.5696415"><ele>780.0</ele><time>2026-05-01T12:24:33.381Z</time></trkpt><trkpt lat="44.5651845" lon="5.5697616"><ele>779.8333333333334</ele><time>2026-05-01T12:24:34.38Z</time></trkpt><trkpt lat="44.5651778" lon="5.569875"><ele>779.6666666666667</ele><time>2026-05-01T12:24:35.38Z</time></trkpt><trkpt lat="44.5652049" lon="5.5699692"><ele>779.5</ele><time>2026-05-01T12:24:36.38Z</time></trkpt><trkpt lat="44.5652576" lon="5.5700337"><ele>779.3333333333334</ele><time>2026-05-01T12:24:37.38Z</time></trkpt><trkpt lat="44.5653325" lon="5.5700497"><ele>779.1666666666667</ele><time>2026-05-01T12:24:38.38Z</time></trkpt><trkpt lat="44.5654095" lon="5.5700131"><ele>779.0</ele><time>2026-05-01T12:24:39.38Z</time></trkpt><trkpt lat="44.5654703" lon="5.5699289"><ele>779.0</ele><time>2026-05-01T12:24:40.38Z</time></trkpt><trkpt lat="44.5655045" lon="5.5698078"><ele>779.0</ele><time>2026-05-01T12:24:41.38Z</time></trkpt><trkpt lat="44.5655258" lon="5.5696515"><ele>779.0</ele><time>2026-05-01T12:24:42.38Z</time></trkpt><trkpt lat="44.5655463" lon="5.5694652"><ele>779.0</ele><time>2026-05-01T12:24:43.38Z</time></trkpt><trkpt lat="44.5655891" lon="5.5692492"><ele>779.3333333333334</ele><time>2026-05-01T12:24:44.38Z</time></trkpt><trkpt lat="44.5656564" lon="5.5690243"><ele>779.6666666666667</ele><time>2026-05-01T12:24:45.38Z</time></trkpt><trkpt lat="44.5657515" lon="5.5687952"><ele>780.0</ele><time>2026-05-01T12:24:46.38Z</time></trkpt><trkpt lat="44.5658655" lon="5.5685648"><ele>782.0</ele><time>2026-05-01T12:24:47.38Z</time></trkpt><trkpt lat="44.5659719" lon="5.5683215"><ele>784.0</ele><time>2026-05-01T12:24:48.38Z</time></trkpt><trkpt lat="44.5660662" lon="5.5680673"><ele>786.0</ele><time>2026-05-01T12:24:49.381Z</time></trkpt><trkpt lat="44.5661692" lon="5.5678196"><ele>780.3333333333333</ele><time>2026-05-01T12:24:50.38Z</time></trkpt><trkpt lat="44.566283" lon="5.567581"><ele>774.6666666666666</ele><time>2026-05-01T12:24:51.38Z</time></trkpt><trkpt lat="44.5663877" lon="5.5673268"><ele>769.0</ele><time>2026-05-01T12:24:52.38Z</time></trkpt><trkpt lat="44.5664771" lon="5.5670534"><ele>770.0</ele><time>2026-05-01T12:24:53.38Z</time></trkpt><trkpt lat="44.56656" lon="5.5667675"><ele>771.0</ele><time>2026-05-01T12:24:54.38Z</time></trkpt><trkpt lat="44.566649" lon="5.5664893"><ele>772.0</ele><time>2026-05-01T12:24:55.38Z</time></trkpt><trkpt lat="44.5667425" lon="5.5662301"><ele>772.0</ele><time>2026-05-01T12:24:56.38Z</time></trkpt><trkpt lat="44.5668278" lon="5.566019"><ele>772.0</ele><time>2026-05-01T12:24:57.382Z</time></trkpt><trkpt lat="44.5669096" lon="5.5658541"><ele>772.0</ele><time>2026-05-01T12:24:58.38Z</time></trkpt><trkpt lat="44.5669856" lon="5.5657305"><ele>772.0</ele><time>2026-05-01T12:24:59.38Z</time></trkpt><trkpt lat="44.5670476" lon="5.5656204"><ele>770.0</ele><time>2026-05-01T12:25:00.381Z</time></trkpt><trkpt lat="44.5670966" lon="5.565492"><ele>768.0</ele><time>2026-05-01T12:25:01.38Z</time></trkpt><trkpt lat="44.5671376" lon="5.5653585"><ele>766.0</ele><time>2026-05-01T12:25:02.381Z</time></trkpt><trkpt lat="44.5671857" lon="5.5652305"><ele>764.0</ele><time>2026-05-01T12:25:03.381Z</time></trkpt><trkpt lat="44.5672393" lon="5.5651021"><ele>762.0</ele><time>2026-05-01T12:25:04.38Z</time></trkpt><trkpt lat="44.567288" lon="5.5649763"><ele>761.6666666666666</ele><time>2026-05-01T12:25:05.38Z</time></trkpt><trkpt lat="44.5673365" lon="5.5648579"><ele>761.3333333333334</ele><time>2026-05-01T12:25:06.38Z</time></trkpt><trkpt lat="44.5673803" lon="5.5647815"><ele>761.0</ele><time>2026-05-01T12:25:07.38Z</time></trkpt><trkpt lat="44.5674545" lon="5.5646767"><ele>760.6666666666667</ele><time>2026-05-01T12:25:09.38Z</time></trkpt><trkpt lat="44.5675108" lon="5.5646339"><ele>760.3333333333334</ele><time>2026-05-01T12:25:10.38Z</time></trkpt><trkpt lat="44.5675836" lon="5.5645865"><ele>760.0</ele><time>2026-05-01T12:25:11.382Z</time></trkpt><trkpt lat="44.5676767" lon="5.5645292"><ele>759.25</ele><time>2026-05-01T12:25:12.38Z</time></trkpt><trkpt lat="44.5677851" lon="5.5644575"><ele>758.5</ele><time>2026-05-01T12:25:13.381Z</time></trkpt><trkpt lat="44.5679057" lon="5.5643673"><ele>757.75</ele><time>2026-05-01T12:25:14.38Z</time></trkpt><trkpt lat="44.5680358" lon="5.56426"><ele>757.0</ele><time>2026-05-01T12:25:15.38Z</time></trkpt><trkpt lat="44.5681744" lon="5.5641352"><ele>757.0</ele><time>2026-05-01T12:25:16.38Z</time></trkpt><trkpt lat="44.5683226" lon="5.5640034"><ele>757.0</ele><time>2026-05-01T12:25:17.38Z</time></trkpt><trkpt lat="44.5684759" lon="5.5638653"><ele>757.0</ele><time>2026-05-01T12:25:18.38Z</time></trkpt><trkpt lat="44.5686343" lon="5.56372"><ele>755.6666666666667</ele><time>2026-05-01T12:25:19.38Z</time></trkpt><trkpt lat="44.5687849" lon="5.5635653"><ele>754.3333333333334</ele><time>2026-05-01T12:25:20.381Z</time></trkpt><trkpt lat="44.5689216" lon="5.5634013"><ele>753.0</ele><time>2026-05-01T12:25:21.38Z</time></trkpt><trkpt lat="44.5690444" lon="5.5632296"><ele>753.0</ele><time>2026-05-01T12:25:22.38Z</time></trkpt><trkpt lat="44.5691507" lon="5.5630622"><ele>753.0</ele><time>2026-05-01T12:25:23.38Z</time></trkpt><trkpt lat="44.5692557" lon="5.5629191"><ele>753.0</ele><time>2026-05-01T12:25:24.381Z</time></trkpt><trkpt lat="44.569363" lon="5.5628019"><ele>753.0</ele><time>2026-05-01T12:25:25.381Z</time></trkpt><trkpt lat="44.569473" lon="5.5627214"><ele>753.4</ele><time>2026-05-01T12:25:26.38Z</time></trkpt><trkpt lat="44.5695814" lon="5.5626851"><ele>753.8</ele><time>2026-05-01T12:25:27.381Z</time></trkpt><trkpt lat="44.5696786" lon="5.5626851"><ele>754.2</ele><time>2026-05-01T12:25:28.38Z</time></trkpt><trkpt lat="44.569768" lon="5.5626622"><ele>754.6</ele><time>2026-05-01T12:25:29.381Z</time></trkpt><trkpt lat="44.5698504" lon="5.562581"><ele>755.0</ele><time>2026-05-01T12:25:30.38Z</time></trkpt><trkpt lat="44.5699163" lon="5.562465"><ele>755.0</ele><time>2026-05-01T12:25:31.38Z</time></trkpt><trkpt lat="44.5699651" lon="5.562314"><ele>755.0</ele><time>2026-05-01T12:25:32.38Z</time></trkpt><trkpt lat="44.5700025" lon="5.5621434"><ele>755.0</ele><time>2026-05-01T12:25:33.38Z</time></trkpt><trkpt lat="44.5700402" lon="5.5619643"><ele>755.0</ele><time>2026-05-01T12:25:34.38Z</time></trkpt><trkpt lat="44.5700748" lon="5.5617889"><ele>753.75</ele><time>2026-05-01T12:25:35.38Z</time></trkpt><trkpt lat="44.5701074" lon="5.5616165"><ele>752.5</ele><time>2026-05-01T12:25:36.38Z</time></trkpt><trkpt lat="44.5701425" lon="5.5614508"><ele>751.25</ele><time>2026-05-01T12:25:37.38Z</time></trkpt><trkpt lat="44.5701782" lon="5.5612914"><ele>750.0</ele><time>2026-05-01T12:25:38.38Z</time></trkpt><trkpt lat="44.5702127" lon="5.561136"><ele>749.6</ele><time>2026-05-01T12:25:39.38Z</time></trkpt><trkpt lat="44.5702439" lon="5.5609814"><ele>749.2</ele><time>2026-05-01T12:25:40.38Z</time></trkpt><trkpt lat="44.5702752" lon="5.5608322"><ele>748.8</ele><time>2026-05-01T12:25:41.38Z</time></trkpt><trkpt lat="44.5703058" lon="5.5606878"><ele>748.4</ele><time>2026-05-01T12:25:42.38Z</time></trkpt><trkpt lat="44.5703338" lon="5.5605479"><ele>748.0</ele><time>2026-05-01T12:25:43.38Z</time></trkpt><trkpt lat="44.5703504" lon="5.5604099"><ele>747.25</ele><time>2026-05-01T12:25:44.38Z</time></trkpt><trkpt lat="44.570359" lon="5.5602722"><ele>746.5</ele><time>2026-05-01T12:25:45.38Z</time></trkpt><trkpt lat="44.5703622" lon="5.5601095"><ele>745.75</ele><time>2026-05-01T12:25:46.38Z</time></trkpt><trkpt lat="44.5703605" lon="5.5599213"><ele>745.0</ele><time>2026-05-01T12:25:47.38Z</time></trkpt><trkpt lat="44.5703603" lon="5.5597296"><ele>744.75</ele><time>2026-05-01T12:25:48.38Z</time></trkpt><trkpt lat="44.5703566" lon="5.559534"><ele>744.5</ele><time>2026-05-01T12:25:49.38Z</time></trkpt><trkpt lat="44.5703525" lon="5.5593289"><ele>744.25</ele><time>2026-05-01T12:25:50.38Z</time></trkpt><trkpt lat="44.5703531" lon="5.559131"><ele>744.0</ele><time>2026-05-01T12:25:51.381Z</time></trkpt><trkpt lat="44.5703504" lon="5.5589434"><ele>743.25</ele><time>2026-05-01T12:25:52.381Z</time></trkpt><trkpt lat="44.5703461" lon="5.5587616"><ele>742.5</ele><time>2026-05-01T12:25:53.38Z</time></trkpt><trkpt lat="44.5703433" lon="5.5585899"><ele>741.75</ele><time>2026-05-01T12:25:54.38Z</time></trkpt><trkpt lat="44.570341" lon="5.5584213"><ele>741.0</ele><time>2026-05-01T12:25:55.38Z</time></trkpt><trkpt lat="44.5703372" lon="5.5582527"><ele>740.75</ele><time>2026-05-01T12:25:56.38Z</time></trkpt><trkpt lat="44.5703347" lon="5.5580719"><ele>740.5</ele><time>2026-05-01T12:25:57.38Z</time></trkpt><trkpt lat="44.5703343" lon="5.5578917"><ele>740.25</ele><time>2026-05-01T12:25:58.38Z</time></trkpt><trkpt lat="44.570333" lon="5.5577174"><ele>740.0</ele><time>2026-05-01T12:25:59.38Z</time></trkpt><trkpt lat="44.5703144" lon="5.557534"><ele>740.0</ele><time>2026-05-01T12:26:00.38Z</time></trkpt><trkpt lat="44.5702749" lon="5.5573486"><ele>740.0</ele><time>2026-05-01T12:26:01.38Z</time></trkpt><trkpt lat="44.5702093" lon="5.5571637"><ele>740.0</ele><time>2026-05-01T12:26:02.38Z</time></trkpt><trkpt lat="44.5701177" lon="5.5569851"><ele>740.0</ele><time>2026-05-01T12:26:03.38Z</time></trkpt><trkpt lat="44.5700156" lon="5.5568188"><ele>740.3333333333333</ele><time>2026-05-01T12:26:04.38Z</time></trkpt><trkpt lat="44.569918" lon="5.5566573"><ele>740.6666666666666</ele><time>2026-05-01T12:26:05.38Z</time></trkpt><trkpt lat="44.5698271" lon="5.5564782"><ele>741.0</ele><time>2026-05-01T12:26:06.38Z</time></trkpt><trkpt lat="44.5697432" lon="5.5562738"><ele>742.6666666666666</ele><time>2026-05-01T12:26:07.38Z</time></trkpt><trkpt lat="44.5696614" lon="5.5560403"><ele>744.3333333333333</ele><time>2026-05-01T12:26:08.381Z</time></trkpt><trkpt lat="44.569576" lon="5.5557922"><ele>746.0</ele><time>2026-05-01T12:26:09.38Z</time></trkpt><trkpt lat="44.5694874" lon="5.555527"><ele>742.3333333333333</ele><time>2026-05-01T12:26:10.38Z</time></trkpt><trkpt lat="44.5693953" lon="5.5552484"><ele>738.6666666666666</ele><time>2026-05-01T12:26:11.38Z</time></trkpt><trkpt lat="44.5693047" lon="5.5549691"><ele>735.0</ele><time>2026-05-01T12:26:12.38Z</time></trkpt><trkpt lat="44.5692126" lon="5.5546846"><ele>736.5</ele><time>2026-05-01T12:26:13.38Z</time></trkpt><trkpt lat="44.5691196" lon="5.5543909"><ele>738.0</ele><time>2026-05-01T12:26:14.38Z</time></trkpt><trkpt lat="44.5690224" lon="5.5540919"><ele>738.0</ele><time>2026-05-01T12:26:15.38Z</time></trkpt><trkpt lat="44.568921" lon="5.5537859"><ele>738.0</ele><time>2026-05-01T12:26:16.38Z</time></trkpt><trkpt lat="44.5688179" lon="5.5534713"><ele>738.5</ele><time>2026-05-01T12:26:17.38Z</time></trkpt><trkpt lat="44.568712" lon="5.5531506"><ele>739.0</ele><time>2026-05-01T12:26:18.38Z</time></trkpt><trkpt lat="44.5686045" lon="5.5528248"><ele>735.5</ele><time>2026-05-01T12:26:19.38Z</time></trkpt><trkpt lat="44.5684975" lon="5.5525027"><ele>732.0</ele><time>2026-05-01T12:26:20.38Z</time></trkpt><trkpt lat="44.5683922" lon="5.5521835"><ele>733.0</ele><time>2026-05-01T12:26:21.38Z</time></trkpt><trkpt lat="44.5682885" lon="5.5518647"><ele>734.0</ele><time>2026-05-01T12:26:22.38Z</time></trkpt><trkpt lat="44.568185" lon="5.5515528"><ele>734.0</ele><time>2026-05-01T12:26:23.38Z</time></trkpt><trkpt lat="44.5680833" lon="5.5512495"><ele>734.0</ele><time>2026-05-01T12:26:24.38Z</time></trkpt><trkpt lat="44.5679845" lon="5.5509533"><ele>735.3333333333333</ele><time>2026-05-01T12:26:25.381Z</time></trkpt><trkpt lat="44.5678904" lon="5.5506674"><ele>736.6666666666666</ele><time>2026-05-01T12:26:26.38Z</time></trkpt><trkpt lat="44.5678026" lon="5.5503889"><ele>738.0</ele><time>2026-05-01T12:26:27.38Z</time></trkpt><trkpt lat="44.5677159" lon="5.5501164"><ele>735.3333333333334</ele><time>2026-05-01T12:26:28.381Z</time></trkpt><trkpt lat="44.5676255" lon="5.5498476"><ele>732.6666666666667</ele><time>2026-05-01T12:26:29.38Z</time></trkpt><trkpt lat="44.5675316" lon="5.5495682"><ele>730.0</ele><time>2026-05-01T12:26:30.38Z</time></trkpt><trkpt lat="44.5674363" lon="5.549277"><ele>730.0</ele><time>2026-05-01T12:26:31.38Z</time></trkpt><trkpt lat="44.5673405" lon="5.5489761"><ele>730.0</ele><time>2026-05-01T12:26:32.38Z</time></trkpt><trkpt lat="44.5672403" lon="5.5486672"><ele>725.5</ele><time>2026-05-01T12:26:33.381Z</time></trkpt><trkpt lat="44.567136" lon="5.5483544"><ele>721.0</ele><time>2026-05-01T12:26:34.38Z</time></trkpt><trkpt lat="44.5670272" lon="5.5480434"><ele>722.0</ele><time>2026-05-01T12:26:35.381Z</time></trkpt><trkpt lat="44.5669104" lon="5.5477402"><ele>723.0</ele><time>2026-05-01T12:26:36.38Z</time></trkpt><trkpt lat="44.5667759" lon="5.5474478"><ele>723.0</ele><time>2026-05-01T12:26:37.38Z</time></trkpt><trkpt lat="44.5666165" lon="5.5471705"><ele>723.0</ele><time>2026-05-01T12:26:38.38Z</time></trkpt><trkpt lat="44.5664351" lon="5.5469042"><ele>720.5</ele><time>2026-05-01T12:26:39.38Z</time></trkpt><trkpt lat="44.5662461" lon="5.546646"><ele>718.0</ele><time>2026-05-01T12:26:40.381Z</time></trkpt><trkpt lat="44.566065" lon="5.5463979"><ele>720.0</ele><time>2026-05-01T12:26:41.38Z</time></trkpt><trkpt lat="44.565889" lon="5.5461568"><ele>722.0</ele><time>2026-05-01T12:26:42.38Z</time></trkpt><trkpt lat="44.5657171" lon="5.5459273"><ele>722.0</ele><time>2026-05-01T12:26:43.38Z</time></trkpt><trkpt lat="44.5655464" lon="5.5457001"><ele>722.0</ele><time>2026-05-01T12:26:44.38Z</time></trkpt><trkpt lat="44.5653691" lon="5.5454623"><ele>718.0</ele><time>2026-05-01T12:26:45.38Z</time></trkpt><trkpt lat="44.5651877" lon="5.5452153"><ele>714.0</ele><time>2026-05-01T12:26:46.38Z</time></trkpt><trkpt lat="44.5650012" lon="5.5449654"><ele>714.0</ele><time>2026-05-01T12:26:47.38Z</time></trkpt><trkpt lat="44.5648169" lon="5.5447214"><ele>714.0</ele><time>2026-05-01T12:26:48.38Z</time></trkpt><trkpt lat="44.5646363" lon="5.5444834"><ele>713.0</ele><time>2026-05-01T12:26:49.38Z</time></trkpt><trkpt lat="44.5644528" lon="5.5442425"><ele>712.0</ele><time>2026-05-01T12:26:50.38Z</time></trkpt><trkpt lat="44.5642729" lon="5.5440024"><ele>712.0</ele><time>2026-05-01T12:26:51.38Z</time></trkpt><trkpt lat="44.5641015" lon="5.5437707"><ele>712.0</ele><time>2026-05-01T12:26:52.38Z</time></trkpt><trkpt lat="44.5639349" lon="5.5435454"><ele>712.3333333333334</ele><time>2026-05-01T12:26:53.38Z</time></trkpt><trkpt lat="44.563776" lon="5.5433289"><ele>712.6666666666666</ele><time>2026-05-01T12:26:54.38Z</time></trkpt><trkpt lat="44.5636249" lon="5.5431194"><ele>713.0</ele><time>2026-05-01T12:26:55.38Z</time></trkpt><trkpt lat="44.5634816" lon="5.5429411"><ele>717.6666666666666</ele><time>2026-05-01T12:26:56.38Z</time></trkpt><trkpt lat="44.5633269" lon="5.5427974"><ele>722.3333333333334</ele><time>2026-05-01T12:26:57.38Z</time></trkpt><trkpt lat="44.5631487" lon="5.542692"><ele>727.0</ele><time>2026-05-01T12:26:58.38Z</time></trkpt><trkpt lat="44.5629505" lon="5.5426193"><ele>724.0</ele><time>2026-05-01T12:26:59.38Z</time></trkpt><trkpt lat="44.5627345" lon="5.5425627"><ele>721.0</ele><time>2026-05-01T12:27:00.38Z</time></trkpt><trkpt lat="44.5625092" lon="5.5425191"><ele>718.0</ele><time>2026-05-01T12:27:01.38Z</time></trkpt><trkpt lat="44.5622825" lon="5.5424986"><ele>718.0</ele><time>2026-05-01T12:27:02.381Z</time></trkpt><trkpt lat="44.5620633" lon="5.542496"><ele>718.0</ele><time>2026-05-01T12:27:03.38Z</time></trkpt><trkpt lat="44.5618572" lon="5.5425031"><ele>718.0</ele><time>2026-05-01T12:27:04.38Z</time></trkpt><trkpt lat="44.5616663" lon="5.5424784"><ele>715.0</ele><time>2026-05-01T12:27:05.38Z</time></trkpt><trkpt lat="44.5614776" lon="5.5424063"><ele>712.0</ele><time>2026-05-01T12:27:06.381Z</time></trkpt><trkpt lat="44.5612803" lon="5.5422959"><ele>709.0</ele><time>2026-05-01T12:27:07.382Z</time></trkpt><trkpt lat="44.5610716" lon="5.5421666"><ele>713.0</ele><time>2026-05-01T12:27:08.38Z</time></trkpt><trkpt lat="44.5608456" lon="5.5420307"><ele>717.0</ele><time>2026-05-01T12:27:09.38Z</time></trkpt><trkpt lat="44.5606097" lon="5.5418851"><ele>717.0</ele><time>2026-05-01T12:27:10.38Z</time></trkpt><trkpt lat="44.5603668" lon="5.541734"><ele>717.0</ele><time>2026-05-01T12:27:11.38Z</time></trkpt><trkpt lat="44.5601218" lon="5.5415812"><ele>711.5</ele><time>2026-05-01T12:27:12.38Z</time></trkpt><trkpt lat="44.5598882" lon="5.5414349"><ele>706.0</ele><time>2026-05-01T12:27:13.38Z</time></trkpt><trkpt lat="44.5596634" lon="5.541296"><ele>706.3333333333334</ele><time>2026-05-01T12:27:14.38Z</time></trkpt><trkpt lat="44.5594579" lon="5.5411714"><ele>706.6666666666666</ele><time>2026-05-01T12:27:15.38Z</time></trkpt><trkpt lat="44.5592642" lon="5.5410752"><ele>707.0</ele><time>2026-05-01T12:27:16.381Z</time></trkpt><trkpt lat="44.5590686" lon="5.5410185"><ele>707.0</ele><time>2026-05-01T12:27:17.38Z</time></trkpt><trkpt lat="44.5588764" lon="5.541019"><ele>707.0</ele><time>2026-05-01T12:27:18.38Z</time></trkpt><trkpt lat="44.5586801" lon="5.541069"><ele>707.0</ele><time>2026-05-01T12:27:19.38Z</time></trkpt><trkpt lat="44.5584794" lon="5.5411611"><ele>705.0</ele><time>2026-05-01T12:27:20.381Z</time></trkpt><trkpt lat="44.5582768" lon="5.5412826"><ele>703.0</ele><time>2026-05-01T12:27:21.382Z</time></trkpt><trkpt lat="44.5580754" lon="5.5414177"><ele>701.0</ele><time>2026-05-01T12:27:22.38Z</time></trkpt><trkpt lat="44.5578765" lon="5.5415492"><ele>701.6666666666666</ele><time>2026-05-01T12:27:23.38Z</time></trkpt><trkpt lat="44.5576838" lon="5.5416746"><ele>702.3333333333334</ele><time>2026-05-01T12:27:24.381Z</time></trkpt><trkpt lat="44.5575014" lon="5.541798"><ele>703.0</ele><time>2026-05-01T12:27:25.38Z</time></trkpt><trkpt lat="44.5573319" lon="5.5419112"><ele>703.0</ele><time>2026-05-01T12:27:26.38Z</time></trkpt><trkpt lat="44.5571746" lon="5.5419928"><ele>703.0</ele><time>2026-05-01T12:27:27.38Z</time></trkpt><trkpt lat="44.5570177" lon="5.5420354"><ele>703.0</ele><time>2026-05-01T12:27:28.38Z</time></trkpt><trkpt lat="44.5568623" lon="5.5420353"><ele>704.6666666666667</ele><time>2026-05-01T12:27:29.38Z</time></trkpt><trkpt lat="44.5567118" lon="5.5419958"><ele>706.3333333333334</ele><time>2026-05-01T12:27:30.38Z</time></trkpt><trkpt lat="44.5565707" lon="5.5419207"><ele>708.0</ele><time>2026-05-01T12:27:31.38Z</time></trkpt><trkpt lat="44.5564274" lon="5.5418103"><ele>708.0</ele><time>2026-05-01T12:27:32.38Z</time></trkpt><trkpt lat="44.5562723" lon="5.5416736"><ele>708.0</ele><time>2026-05-01T12:27:33.381Z</time></trkpt><trkpt lat="44.5560991" lon="5.5415193"><ele>708.0</ele><time>2026-05-01T12:27:34.381Z</time></trkpt><trkpt lat="44.5559029" lon="5.5413558"><ele>704.5</ele><time>2026-05-01T12:27:35.38Z</time></trkpt><trkpt lat="44.555688" lon="5.541178"><ele>701.0</ele><time>2026-05-01T12:27:36.38Z</time></trkpt><trkpt lat="44.5554667" lon="5.5409889"><ele>697.5</ele><time>2026-05-01T12:27:37.38Z</time></trkpt><trkpt lat="44.5552433" lon="5.5408009"><ele>694.0</ele><time>2026-05-01T12:27:38.38Z</time></trkpt><trkpt lat="44.5550207" lon="5.5405999"><ele>694.0</ele><time>2026-05-01T12:27:39.382Z</time></trkpt><trkpt lat="44.5547992" lon="5.5403848"><ele>694.0</ele><time>2026-05-01T12:27:40.38Z</time></trkpt><trkpt lat="44.55458" lon="5.5401754"><ele>692.5</ele><time>2026-05-01T12:27:41.38Z</time></trkpt><trkpt lat="44.5543607" lon="5.5399797"><ele>691.0</ele><time>2026-05-01T12:27:42.381Z</time></trkpt><trkpt lat="44.5541422" lon="5.5397894"><ele>691.0</ele><time>2026-05-01T12:27:43.38Z</time></trkpt><trkpt lat="44.553924" lon="5.5395977"><ele>691.0</ele><time>2026-05-01T12:27:44.38Z</time></trkpt><trkpt lat="44.5537087" lon="5.5394067"><ele>694.5</ele><time>2026-05-01T12:27:45.38Z</time></trkpt><trkpt lat="44.5534911" lon="5.5392262"><ele>698.0</ele><time>2026-05-01T12:27:46.38Z</time></trkpt><trkpt lat="44.5532673" lon="5.539065"><ele>698.0</ele><time>2026-05-01T12:27:47.38Z</time></trkpt><trkpt lat="44.5530312" lon="5.5389207"><ele>698.0</ele><time>2026-05-01T12:27:48.38Z</time></trkpt><trkpt lat="44.5527876" lon="5.5387901"><ele>701.5</ele><time>2026-05-01T12:27:49.38Z</time></trkpt><trkpt lat="44.5525397" lon="5.5386667"><ele>705.0</ele><time>2026-05-01T12:27:50.38Z</time></trkpt><trkpt lat="44.552292" lon="5.5385441"><ele>705.0</ele><time>2026-05-01T12:27:51.381Z</time></trkpt><trkpt lat="44.5520473" lon="5.5384219"><ele>705.0</ele><time>2026-05-01T12:27:52.38Z</time></trkpt><trkpt lat="44.5518078" lon="5.5383028"><ele>696.5</ele><time>2026-05-01T12:27:53.38Z</time></trkpt><trkpt lat="44.5515765" lon="5.5381858"><ele>688.0</ele><time>2026-05-01T12:27:54.38Z</time></trkpt><trkpt lat="44.5513516" lon="5.5380783"><ele>689.3333333333334</ele><time>2026-05-01T12:27:55.38Z</time></trkpt><trkpt lat="44.5511339" lon="5.5379767"><ele>690.6666666666666</ele><time>2026-05-01T12:27:56.38Z</time></trkpt><trkpt lat="44.5509301" lon="5.5378829"><ele>692.0</ele><time>2026-05-01T12:27:57.381Z</time></trkpt><trkpt lat="44.550738" lon="5.5377903"><ele>691.3333333333333</ele><time>2026-05-01T12:27:58.38Z</time></trkpt><trkpt lat="44.5505613" lon="5.5377036"><ele>690.6666666666666</ele><time>2026-05-01T12:27:59.38Z</time></trkpt><trkpt lat="44.5504006" lon="5.5376227"><ele>690.0</ele><time>2026-05-01T12:28:00.38Z</time></trkpt><trkpt lat="44.5502557" lon="5.5375515"><ele>690.0</ele><time>2026-05-01T12:28:01.38Z</time></trkpt><trkpt lat="44.5501249" lon="5.537485"><ele>690.0</ele><time>2026-05-01T12:28:02.38Z</time></trkpt><trkpt lat="44.550002" lon="5.5374215"><ele>690.0</ele><time>2026-05-01T12:28:03.381Z</time></trkpt><trkpt lat="44.5498873" lon="5.5373513"><ele>690.0</ele><time>2026-05-01T12:28:04.38Z</time></trkpt><trkpt lat="44.5497846" lon="5.5372648"><ele>690.0</ele><time>2026-05-01T12:28:05.38Z</time></trkpt><trkpt lat="44.5496984" lon="5.5371459"><ele>690.0</ele><time>2026-05-01T12:28:06.38Z</time></trkpt><trkpt lat="44.5496318" lon="5.5369897"><ele>690.0</ele><time>2026-05-01T12:28:07.381Z</time></trkpt><trkpt lat="44.5495948" lon="5.5368172"><ele>690.0</ele><time>2026-05-01T12:28:08.38Z</time></trkpt><trkpt lat="44.5495878" lon="5.5366358"><ele>689.0</ele><time>2026-05-01T12:28:09.38Z</time></trkpt><trkpt lat="44.5496085" lon="5.5364532"><ele>688.0</ele><time>2026-05-01T12:28:10.38Z</time></trkpt><trkpt lat="44.5496616" lon="5.536273"><ele>687.0</ele><time>2026-05-01T12:28:11.38Z</time></trkpt><trkpt lat="44.5497411" lon="5.5361071"><ele>686.0</ele><time>2026-05-01T12:28:12.38Z</time></trkpt><trkpt lat="44.549847" lon="5.5359512"><ele>686.0</ele><time>2026-05-01T12:28:13.38Z</time></trkpt><trkpt lat="44.5499625" lon="5.5357805"><ele>686.0</ele><time>2026-05-01T12:28:14.381Z</time></trkpt><trkpt lat="44.5500896" lon="5.5355972"><ele>686.0</ele><time>2026-05-01T12:28:15.38Z</time></trkpt><trkpt lat="44.5502251" lon="5.5354"><ele>687.3333333333333</ele><time>2026-05-01T12:28:16.38Z</time></trkpt><trkpt lat="44.5503698" lon="5.5351885"><ele>688.6666666666666</ele><time>2026-05-01T12:28:17.38Z</time></trkpt><trkpt lat="44.550525" lon="5.5349606"><ele>690.0</ele><time>2026-05-01T12:28:18.381Z</time></trkpt><trkpt lat="44.5506929" lon="5.5347177"><ele>686.5</ele><time>2026-05-01T12:28:19.38Z</time></trkpt><trkpt lat="44.5508622" lon="5.534464"><ele>683.0</ele><time>2026-05-01T12:28:20.38Z</time></trkpt><trkpt lat="44.55102" lon="5.5342054"><ele>683.0</ele><time>2026-05-01T12:28:21.381Z</time></trkpt><trkpt lat="44.5511655" lon="5.5339454"><ele>683.0</ele><time>2026-05-01T12:28:22.38Z</time></trkpt><trkpt lat="44.5512991" lon="5.5336844"><ele>686.0</ele><time>2026-05-01T12:28:23.381Z</time></trkpt><trkpt lat="44.5514272" lon="5.5334172"><ele>689.0</ele><time>2026-05-01T12:28:24.38Z</time></trkpt><trkpt lat="44.5515499" lon="5.5331415"><ele>685.5</ele><time>2026-05-01T12:28:25.38Z</time></trkpt><trkpt lat="44.5516662" lon="5.53285"><ele>682.0</ele><time>2026-05-01T12:28:26.38Z</time></trkpt><trkpt lat="44.5517767" lon="5.5325445"><ele>682.0</ele><time>2026-05-01T12:28:27.38Z</time></trkpt><trkpt lat="44.5518815" lon="5.5322284"><ele>682.0</ele><time>2026-05-01T12:28:28.38Z</time></trkpt><trkpt lat="44.5519828" lon="5.5319113"><ele>687.5</ele><time>2026-05-01T12:28:29.38Z</time></trkpt><trkpt lat="44.5520789" lon="5.5316026"><ele>693.0</ele><time>2026-05-01T12:28:30.38Z</time></trkpt><trkpt lat="44.5521734" lon="5.5313012"><ele>690.0</ele><time>2026-05-01T12:28:31.38Z</time></trkpt><trkpt lat="44.5522658" lon="5.5310084"><ele>687.0</ele><time>2026-05-01T12:28:32.38Z</time></trkpt><trkpt lat="44.552353" lon="5.5307217"><ele>687.0</ele><time>2026-05-01T12:28:33.38Z</time></trkpt><trkpt lat="44.5524298" lon="5.5304339"><ele>687.0</ele><time>2026-05-01T12:28:34.38Z</time></trkpt><trkpt lat="44.5524883" lon="5.5301384"><ele>687.0</ele><time>2026-05-01T12:28:35.381Z</time></trkpt><trkpt lat="44.5525225" lon="5.5298376"><ele>685.3333333333334</ele><time>2026-05-01T12:28:36.38Z</time></trkpt><trkpt lat="44.5525387" lon="5.5295327"><ele>683.6666666666667</ele><time>2026-05-01T12:28:37.38Z</time></trkpt><trkpt lat="44.552545" lon="5.5292206"><ele>682.0</ele><time>2026-05-01T12:28:38.38Z</time></trkpt><trkpt lat="44.5525445" lon="5.5289068"><ele>682.0</ele><time>2026-05-01T12:28:39.38Z</time></trkpt><trkpt lat="44.5525415" lon="5.5285967"><ele>682.0</ele><time>2026-05-01T12:28:40.38Z</time></trkpt><trkpt lat="44.5525404" lon="5.5282905"><ele>682.0</ele><time>2026-05-01T12:28:41.38Z</time></trkpt><trkpt lat="44.5525404" lon="5.5279897"><ele>682.0</ele><time>2026-05-01T12:28:42.38Z</time></trkpt><trkpt lat="44.5525384" lon="5.5276908"><ele>682.0</ele><time>2026-05-01T12:28:43.38Z</time></trkpt><trkpt lat="44.5525362" lon="5.5273854"><ele>682.0</ele><time>2026-05-01T12:28:44.38Z</time></trkpt><trkpt lat="44.5525386" lon="5.5270794"><ele>680.3333333333334</ele><time>2026-05-01T12:28:45.38Z</time></trkpt><trkpt lat="44.5525544" lon="5.5267805"><ele>678.6666666666666</ele><time>2026-05-01T12:28:46.38Z</time></trkpt><trkpt lat="44.5525815" lon="5.5264864"><ele>677.0</ele><time>2026-05-01T12:28:47.381Z</time></trkpt><trkpt lat="44.5526262" lon="5.5262085"><ele>675.6666666666666</ele><time>2026-05-01T12:28:48.38Z</time></trkpt><trkpt lat="44.5526936" lon="5.5259389"><ele>674.3333333333334</ele><time>2026-05-01T12:28:49.38Z</time></trkpt><trkpt lat="44.5527911" lon="5.525685"><ele>673.0</ele><time>2026-05-01T12:28:50.381Z</time></trkpt><trkpt lat="44.5529171" lon="5.5254664"><ele>673.6666666666667</ele><time>2026-05-01T12:28:51.38Z</time></trkpt><trkpt lat="44.5530644" lon="5.52528"><ele>674.3333333333334</ele><time>2026-05-01T12:28:52.38Z</time></trkpt><trkpt lat="44.553224" lon="5.52512"><ele>675.0</ele><time>2026-05-01T12:28:53.38Z</time></trkpt><trkpt lat="44.5533982" lon="5.5249743"><ele>675.0</ele><time>2026-05-01T12:28:54.38Z</time></trkpt><trkpt lat="44.5535755" lon="5.5248308"><ele>675.0</ele><time>2026-05-01T12:28:55.38Z</time></trkpt><trkpt lat="44.5537563" lon="5.524681"><ele>675.0</ele><time>2026-05-01T12:28:56.381Z</time></trkpt><trkpt lat="44.5539435" lon="5.5245293"><ele>673.5</ele><time>2026-05-01T12:28:57.38Z</time></trkpt><trkpt lat="44.5541381" lon="5.5243728"><ele>672.0</ele><time>2026-05-01T12:28:58.38Z</time></trkpt><trkpt lat="44.5543394" lon="5.5242144"><ele>673.5</ele><time>2026-05-01T12:28:59.38Z</time></trkpt><trkpt lat="44.5545426" lon="5.5240472"><ele>675.0</ele><time>2026-05-01T12:29:00.38Z</time></trkpt><trkpt lat="44.5547483" lon="5.5238793"><ele>672.5</ele><time>2026-05-01T12:29:01.38Z</time></trkpt><trkpt lat="44.5549652" lon="5.5237032"><ele>670.0</ele><time>2026-05-01T12:29:02.38Z</time></trkpt><trkpt lat="44.5551898" lon="5.5235249"><ele>671.0</ele><time>2026-05-01T12:29:03.38Z</time></trkpt><trkpt lat="44.5554125" lon="5.5233368"><ele>672.0</ele><time>2026-05-01T12:29:04.38Z</time></trkpt><trkpt lat="44.555626" lon="5.5231282"><ele>672.0</ele><time>2026-05-01T12:29:05.381Z</time></trkpt><trkpt lat="44.5558277" lon="5.5229072"><ele>672.0</ele><time>2026-05-01T12:29:06.38Z</time></trkpt><trkpt lat="44.55602" lon="5.5226792"><ele>671.5</ele><time>2026-05-01T12:29:07.38Z</time></trkpt><trkpt lat="44.5562138" lon="5.5224458"><ele>671.0</ele><time>2026-05-01T12:29:08.38Z</time></trkpt><trkpt lat="44.5564072" lon="5.522209"><ele>668.5</ele><time>2026-05-01T12:29:09.38Z</time></trkpt><trkpt lat="44.5566016" lon="5.5219676"><ele>666.0</ele><time>2026-05-01T12:29:10.38Z</time></trkpt><trkpt lat="44.5567999" lon="5.5217211"><ele>666.0</ele><time>2026-05-01T12:29:11.38Z</time></trkpt><trkpt lat="44.5569999" lon="5.5214708"><ele>666.0</ele><time>2026-05-01T12:29:12.38Z</time></trkpt><trkpt lat="44.5572023" lon="5.5212157"><ele>665.0</ele><time>2026-05-01T12:29:13.38Z</time></trkpt><trkpt lat="44.5574065" lon="5.5209536"><ele>664.0</ele><time>2026-05-01T12:29:14.38Z</time></trkpt><trkpt lat="44.5576131" lon="5.520689"><ele>664.0</ele><time>2026-05-01T12:29:15.38Z</time></trkpt><trkpt lat="44.557822" lon="5.5204236"><ele>664.0</ele><time>2026-05-01T12:29:16.381Z</time></trkpt><trkpt lat="44.5580328" lon="5.5201575"><ele>663.0</ele><time>2026-05-01T12:29:17.381Z</time></trkpt><trkpt lat="44.5582424" lon="5.519893"><ele>662.0</ele><time>2026-05-01T12:29:18.38Z</time></trkpt><trkpt lat="44.5584474" lon="5.5196357"><ele>663.0</ele><time>2026-05-01T12:29:19.382Z</time></trkpt><trkpt lat="44.5586515" lon="5.5193795"><ele>664.0</ele><time>2026-05-01T12:29:20.38Z</time></trkpt><trkpt lat="44.5588537" lon="5.5191272"><ele>662.5</ele><time>2026-05-01T12:29:21.38Z</time></trkpt><trkpt lat="44.5590538" lon="5.5188771"><ele>661.0</ele><time>2026-05-01T12:29:22.382Z</time></trkpt><trkpt lat="44.5592547" lon="5.518627"><ele>661.0</ele><time>2026-05-01T12:29:23.381Z</time></trkpt><trkpt lat="44.5594579" lon="5.5183743"><ele>661.0</ele><time>2026-05-01T12:29:24.38Z</time></trkpt><trkpt lat="44.5596636" lon="5.5181197"><ele>662.0</ele><time>2026-05-01T12:29:25.38Z</time></trkpt><trkpt lat="44.5598713" lon="5.5178637"><ele>663.0</ele><time>2026-05-01T12:29:26.38Z</time></trkpt><trkpt lat="44.5600794" lon="5.517605"><ele>663.0</ele><time>2026-05-01T12:29:27.38Z</time></trkpt><trkpt lat="44.5602877" lon="5.5173458"><ele>663.0</ele><time>2026-05-01T12:29:28.381Z</time></trkpt><trkpt lat="44.5604953" lon="5.5170874"><ele>662.0</ele><time>2026-05-01T12:29:29.38Z</time></trkpt><trkpt lat="44.5606997" lon="5.516833"><ele>661.0</ele><time>2026-05-01T12:29:30.38Z</time></trkpt><trkpt lat="44.5608981" lon="5.5165843"><ele>661.0</ele><time>2026-05-01T12:29:31.38Z</time></trkpt><trkpt lat="44.561091" lon="5.5163404"><ele>661.0</ele><time>2026-05-01T12:29:32.38Z</time></trkpt><trkpt lat="44.5612796" lon="5.5161029"><ele>659.0</ele><time>2026-05-01T12:29:33.38Z</time></trkpt><trkpt lat="44.5614689" lon="5.5158678"><ele>657.0</ele><time>2026-05-01T12:29:34.38Z</time></trkpt><trkpt lat="44.5616569" lon="5.5156341"><ele>659.5</ele><time>2026-05-01T12:29:35.38Z</time></trkpt><trkpt lat="44.5618444" lon="5.5154017"><ele>662.0</ele><time>2026-05-01T12:29:36.38Z</time></trkpt><trkpt lat="44.5620306" lon="5.5151662"><ele>659.0</ele><time>2026-05-01T12:29:37.38Z</time></trkpt><trkpt lat="44.5622177" lon="5.5149247"><ele>656.0</ele><time>2026-05-01T12:29:38.38Z</time></trkpt><trkpt lat="44.5624056" lon="5.5146782"><ele>657.5</ele><time>2026-05-01T12:29:39.38Z</time></trkpt><trkpt lat="44.5625881" lon="5.5144213"><ele>659.0</ele><time>2026-05-01T12:29:40.38Z</time></trkpt><trkpt lat="44.562764" lon="5.5141489"><ele>657.5</ele><time>2026-05-01T12:29:41.38Z</time></trkpt><trkpt lat="44.562939" lon="5.513864"><ele>656.0</ele><time>2026-05-01T12:29:42.38Z</time></trkpt><trkpt lat="44.5631125" lon="5.5135752"><ele>656.0</ele><time>2026-05-01T12:29:43.38Z</time></trkpt><trkpt lat="44.5632894" lon="5.5132839"><ele>656.0</ele><time>2026-05-01T12:29:44.38Z</time></trkpt><trkpt lat="44.5634686" lon="5.5129922"><ele>656.5</ele><time>2026-05-01T12:29:45.381Z</time></trkpt><trkpt lat="44.5636486" lon="5.5126969"><ele>657.0</ele><time>2026-05-01T12:29:46.38Z</time></trkpt><trkpt lat="44.5638279" lon="5.5123957"><ele>655.0</ele><time>2026-05-01T12:29:47.38Z</time></trkpt><trkpt lat="44.5640075" lon="5.5120892"><ele>653.0</ele><time>2026-05-01T12:29:48.38Z</time></trkpt><trkpt lat="44.5641895" lon="5.5117781"><ele>653.0</ele><time>2026-05-01T12:29:49.38Z</time></trkpt><trkpt lat="44.5643746" lon="5.5114647"><ele>653.0</ele><time>2026-05-01T12:29:50.38Z</time></trkpt><trkpt lat="44.5645622" lon="5.5111516"><ele>653.0</ele><time>2026-05-01T12:29:51.38Z</time></trkpt><trkpt lat="44.5647519" lon="5.5108368"><ele>653.0</ele><time>2026-05-01T12:29:52.38Z</time></trkpt><trkpt lat="44.5649412" lon="5.5105206"><ele>654.5</ele><time>2026-05-01T12:29:53.38Z</time></trkpt><trkpt lat="44.5651311" lon="5.5102078"><ele>656.0</ele><time>2026-05-01T12:29:54.38Z</time></trkpt><trkpt lat="44.5653181" lon="5.5098998"><ele>654.5</ele><time>2026-05-01T12:29:55.38Z</time></trkpt><trkpt lat="44.5655004" lon="5.5096018"><ele>653.0</ele><time>2026-05-01T12:29:56.38Z</time></trkpt><trkpt lat="44.5656777" lon="5.5093072"><ele>653.0</ele><time>2026-05-01T12:29:57.382Z</time></trkpt><trkpt lat="44.5658535" lon="5.5090122"><ele>653.0</ele><time>2026-05-01T12:29:58.38Z</time></trkpt><trkpt lat="44.566029" lon="5.5087191"><ele>652.5</ele><time>2026-05-01T12:29:59.38Z</time></trkpt><trkpt lat="44.5662052" lon="5.5084253"><ele>652.0</ele><time>2026-05-01T12:30:00.381Z</time></trkpt><trkpt lat="44.5663779" lon="5.5081283"><ele>653.0</ele><time>2026-05-01T12:30:01.38Z</time></trkpt><trkpt lat="44.5665407" lon="5.5078205"><ele>654.0</ele><time>2026-05-01T12:30:02.38Z</time></trkpt><trkpt lat="44.5666922" lon="5.507498"><ele>654.0</ele><time>2026-05-01T12:30:03.381Z</time></trkpt><trkpt lat="44.5668349" lon="5.5071635"><ele>654.0</ele><time>2026-05-01T12:30:04.381Z</time></trkpt><trkpt lat="44.5669667" lon="5.5068178"><ele>654.5</ele><time>2026-05-01T12:30:05.38Z</time></trkpt><trkpt lat="44.567089" lon="5.5064659"><ele>655.0</ele><time>2026-05-01T12:30:06.38Z</time></trkpt><trkpt lat="44.5672017" lon="5.5061199"><ele>653.0</ele><time>2026-05-01T12:30:07.38Z</time></trkpt><trkpt lat="44.5673052" lon="5.5057744"><ele>651.0</ele><time>2026-05-01T12:30:08.38Z</time></trkpt><trkpt lat="44.5673966" lon="5.5054429"><ele>651.3333333333334</ele><time>2026-05-01T12:30:09.38Z</time></trkpt><trkpt lat="44.567469" lon="5.5051402"><ele>651.6666666666667</ele><time>2026-05-01T12:30:10.38Z</time></trkpt><trkpt lat="44.5675289" lon="5.5048719"><ele>652.0</ele><time>2026-05-01T12:30:11.38Z</time></trkpt><trkpt lat="44.5675774" lon="5.5046386"><ele>652.6666666666667</ele><time>2026-05-01T12:30:12.38Z</time></trkpt><trkpt lat="44.5676183" lon="5.5044265"><ele>653.3333333333334</ele><time>2026-05-01T12:30:13.38Z</time></trkpt><trkpt lat="44.5676564" lon="5.5042194"><ele>654.0</ele><time>2026-05-01T12:30:14.38Z</time></trkpt><trkpt lat="44.5676942" lon="5.5040177"><ele>654.0</ele><time>2026-05-01T12:30:15.381Z</time></trkpt><trkpt lat="44.567732" lon="5.5038171"><ele>654.0</ele><time>2026-05-01T12:30:16.38Z</time></trkpt><trkpt lat="44.5677716" lon="5.5036205"><ele>654.0</ele><time>2026-05-01T12:30:17.38Z</time></trkpt><trkpt lat="44.5678212" lon="5.5034308"><ele>654.0</ele><time>2026-05-01T12:30:18.38Z</time></trkpt><trkpt lat="44.5678938" lon="5.5032573"><ele>652.75</ele><time>2026-05-01T12:30:19.38Z</time></trkpt><trkpt lat="44.5679949" lon="5.5031077"><ele>651.5</ele><time>2026-05-01T12:30:20.38Z</time></trkpt><trkpt lat="44.568118" lon="5.5029965"><ele>650.25</ele><time>2026-05-01T12:30:21.38Z</time></trkpt><trkpt lat="44.5682645" lon="5.5029228"><ele>649.0</ele><time>2026-05-01T12:30:22.38Z</time></trkpt><trkpt lat="44.5684317" lon="5.5028828"><ele>649.0</ele><time>2026-05-01T12:30:23.38Z</time></trkpt><trkpt lat="44.5686133" lon="5.5028594"><ele>649.0</ele><time>2026-05-01T12:30:24.38Z</time></trkpt><trkpt lat="44.5688054" lon="5.502838"><ele>649.0</ele><time>2026-05-01T12:30:25.38Z</time></trkpt><trkpt lat="44.5690118" lon="5.5028157"><ele>649.3333333333334</ele><time>2026-05-01T12:30:26.38Z</time></trkpt><trkpt lat="44.569227" lon="5.5027893"><ele>649.6666666666666</ele><time>2026-05-01T12:30:27.38Z</time></trkpt><trkpt lat="44.5694459" lon="5.5027605"><ele>650.0</ele><time>2026-05-01T12:30:28.381Z</time></trkpt><trkpt lat="44.5696661" lon="5.5027323"><ele>649.3333333333333</ele><time>2026-05-01T12:30:29.38Z</time></trkpt><trkpt lat="44.5698849" lon="5.5027028"><ele>648.6666666666666</ele><time>2026-05-01T12:30:30.38Z</time></trkpt><trkpt lat="44.5701056" lon="5.5026662"><ele>648.0</ele><time>2026-05-01T12:30:31.38Z</time></trkpt><trkpt lat="44.5703304" lon="5.5026119"><ele>647.0</ele><time>2026-05-01T12:30:32.381Z</time></trkpt><trkpt lat="44.5705592" lon="5.5025372"><ele>646.0</ele><time>2026-05-01T12:30:33.381Z</time></trkpt><trkpt lat="44.5707902" lon="5.5024426"><ele>646.0</ele><time>2026-05-01T12:30:34.38Z</time></trkpt><trkpt lat="44.5710229" lon="5.502328"><ele>646.0</ele><time>2026-05-01T12:30:35.38Z</time></trkpt><trkpt lat="44.5712539" lon="5.5021982"><ele>645.0</ele><time>2026-05-01T12:30:36.381Z</time></trkpt><trkpt lat="44.5714816" lon="5.5020569"><ele>644.0</ele><time>2026-05-01T12:30:37.38Z</time></trkpt><trkpt lat="44.5717014" lon="5.5019088"><ele>644.0</ele><time>2026-05-01T12:30:38.38Z</time></trkpt><trkpt lat="44.5719124" lon="5.5017523"><ele>644.0</ele><time>2026-05-01T12:30:39.38Z</time></trkpt><trkpt lat="44.5721129" lon="5.5015883"><ele>645.0</ele><time>2026-05-01T12:30:40.38Z</time></trkpt><trkpt lat="44.5723045" lon="5.5014168"><ele>646.0</ele><time>2026-05-01T12:30:41.38Z</time></trkpt><trkpt lat="44.5724916" lon="5.5012395"><ele>646.0</ele><time>2026-05-01T12:30:42.38Z</time></trkpt><trkpt lat="44.5726726" lon="5.5010535"><ele>646.0</ele><time>2026-05-01T12:30:43.38Z</time></trkpt><trkpt lat="44.572847" lon="5.5008533"><ele>645.5</ele><time>2026-05-01T12:30:44.38Z</time></trkpt><trkpt lat="44.5730106" lon="5.500635"><ele>645.0</ele><time>2026-05-01T12:30:45.38Z</time></trkpt><trkpt lat="44.5731651" lon="5.5003927"><ele>645.0</ele><time>2026-05-01T12:30:46.38Z</time></trkpt><trkpt lat="44.5733186" lon="5.5001328"><ele>645.0</ele><time>2026-05-01T12:30:47.38Z</time></trkpt><trkpt lat="44.5734691" lon="5.4998539"><ele>644.0</ele><time>2026-05-01T12:30:48.38Z</time></trkpt><trkpt lat="44.5736152" lon="5.4995553"><ele>643.0</ele><time>2026-05-01T12:30:49.381Z</time></trkpt><trkpt lat="44.5737573" lon="5.4992387"><ele>643.0</ele><time>2026-05-01T12:30:50.381Z</time></trkpt><trkpt lat="44.5738952" lon="5.4989046"><ele>643.0</ele><time>2026-05-01T12:30:51.38Z</time></trkpt><trkpt lat="44.5740306" lon="5.4985605"><ele>642.5</ele><time>2026-05-01T12:30:52.38Z</time></trkpt><trkpt lat="44.5741687" lon="5.4982072"><ele>642.0</ele><time>2026-05-01T12:30:53.38Z</time></trkpt><trkpt lat="44.5743077" lon="5.4978542"><ele>642.0</ele><time>2026-05-01T12:30:54.381Z</time></trkpt><trkpt lat="44.5744453" lon="5.4975036"><ele>642.0</ele><time>2026-05-01T12:30:55.38Z</time></trkpt><trkpt lat="44.5745837" lon="5.4971501"><ele>642.5</ele><time>2026-05-01T12:30:56.38Z</time></trkpt><trkpt lat="44.5747208" lon="5.4967964"><ele>643.0</ele><time>2026-05-01T12:30:57.38Z</time></trkpt><trkpt lat="44.5748577" lon="5.4964444"><ele>643.0</ele><time>2026-05-01T12:30:58.38Z</time></trkpt><trkpt lat="44.5749943" lon="5.4960937"><ele>643.0</ele><time>2026-05-01T12:30:59.38Z</time></trkpt><trkpt lat="44.5751311" lon="5.4957454"><ele>642.5</ele><time>2026-05-01T12:31:00.38Z</time></trkpt><trkpt lat="44.5752647" lon="5.4954024"><ele>642.0</ele><time>2026-05-01T12:31:01.381Z</time></trkpt><trkpt lat="44.575395" lon="5.4950593"><ele>642.0</ele><time>2026-05-01T12:31:02.381Z</time></trkpt><trkpt lat="44.5755249" lon="5.4947201"><ele>642.0</ele><time>2026-05-01T12:31:03.38Z</time></trkpt><trkpt lat="44.575655" lon="5.4943875"><ele>642.0</ele><time>2026-05-01T12:31:04.38Z</time></trkpt><trkpt lat="44.5757834" lon="5.494059"><ele>642.0</ele><time>2026-05-01T12:31:05.38Z</time></trkpt><trkpt lat="44.5759098" lon="5.4937322"><ele>642.0</ele><time>2026-05-01T12:31:06.38Z</time></trkpt><trkpt lat="44.5760366" lon="5.4934066"><ele>642.0</ele><time>2026-05-01T12:31:07.38Z</time></trkpt><trkpt lat="44.5761627" lon="5.4930776"><ele>644.5</ele><time>2026-05-01T12:31:08.38Z</time></trkpt><trkpt lat="44.5762881" lon="5.4927469"><ele>647.0</ele><time>2026-05-01T12:31:09.38Z</time></trkpt><trkpt lat="44.5764145" lon="5.4924116"><ele>645.0</ele><time>2026-05-01T12:31:10.381Z</time></trkpt><trkpt lat="44.576544" lon="5.4920723"><ele>643.0</ele><time>2026-05-01T12:31:11.38Z</time></trkpt><trkpt lat="44.576679" lon="5.4917262"><ele>643.0</ele><time>2026-05-01T12:31:12.38Z</time></trkpt><trkpt lat="44.5768173" lon="5.491364"><ele>643.0</ele><time>2026-05-01T12:31:13.38Z</time></trkpt><trkpt lat="44.5769602" lon="5.4909854"><ele>643.0</ele><time>2026-05-01T12:31:14.381Z</time></trkpt><trkpt lat="44.57711" lon="5.4905903"><ele>643.0</ele><time>2026-05-01T12:31:15.38Z</time></trkpt><trkpt lat="44.5772619" lon="5.4901952"><ele>643.0</ele><time>2026-05-01T12:31:16.38Z</time></trkpt><trkpt lat="44.5774109" lon="5.4898108"><ele>643.0</ele><time>2026-05-01T12:31:17.381Z</time></trkpt><trkpt lat="44.577556" lon="5.4894315"><ele>642.0</ele><time>2026-05-01T12:31:18.38Z</time></trkpt><trkpt lat="44.5776979" lon="5.4890646"><ele>641.0</ele><time>2026-05-01T12:31:19.38Z</time></trkpt><trkpt lat="44.5778376" lon="5.4887139"><ele>642.5</ele><time>2026-05-01T12:31:20.381Z</time></trkpt><trkpt lat="44.5779755" lon="5.4883803"><ele>644.0</ele><time>2026-05-01T12:31:21.381Z</time></trkpt><trkpt lat="44.5781081" lon="5.4880599"><ele>642.5</ele><time>2026-05-01T12:31:22.38Z</time></trkpt><trkpt lat="44.5782325" lon="5.4877546"><ele>641.0</ele><time>2026-05-01T12:31:23.38Z</time></trkpt><trkpt lat="44.5783424" lon="5.4874743"><ele>641.0</ele><time>2026-05-01T12:31:24.38Z</time></trkpt><trkpt lat="44.5784437" lon="5.4872117"><ele>641.0</ele><time>2026-05-01T12:31:25.38Z</time></trkpt><trkpt lat="44.5785437" lon="5.4869602"><ele>641.0</ele><time>2026-05-01T12:31:26.38Z</time></trkpt><trkpt lat="44.578644" lon="5.486713"><ele>641.6666666666666</ele><time>2026-05-01T12:31:27.38Z</time></trkpt><trkpt lat="44.578743" lon="5.4864678"><ele>642.3333333333334</ele><time>2026-05-01T12:31:28.38Z</time></trkpt><trkpt lat="44.5788405" lon="5.4862238"><ele>643.0</ele><time>2026-05-01T12:31:29.38Z</time></trkpt><trkpt lat="44.5789364" lon="5.4859785"><ele>643.0</ele><time>2026-05-01T12:31:30.38Z</time></trkpt><trkpt lat="44.5790335" lon="5.4857306"><ele>643.0</ele><time>2026-05-01T12:31:31.38Z</time></trkpt><trkpt lat="44.5791328" lon="5.4854838"><ele>643.0</ele><time>2026-05-01T12:31:32.38Z</time></trkpt><trkpt lat="44.5792379" lon="5.485241"><ele>643.0</ele><time>2026-05-01T12:31:33.38Z</time></trkpt><trkpt lat="44.5793492" lon="5.4850085"><ele>643.0</ele><time>2026-05-01T12:31:34.38Z</time></trkpt><trkpt lat="44.5794694" lon="5.4847897"><ele>643.0</ele><time>2026-05-01T12:31:35.38Z</time></trkpt><trkpt lat="44.5796031" lon="5.4845797"><ele>643.6666666666667</ele><time>2026-05-01T12:31:36.38Z</time></trkpt><trkpt lat="44.5797493" lon="5.4843792"><ele>644.3333333333334</ele><time>2026-05-01T12:31:37.38Z</time></trkpt><trkpt lat="44.5799068" lon="5.4841836"><ele>645.0</ele><time>2026-05-01T12:31:38.38Z</time></trkpt><trkpt lat="44.5800732" lon="5.4839912"><ele>645.0</ele><time>2026-05-01T12:31:39.38Z</time></trkpt><trkpt lat="44.5802433" lon="5.4837941"><ele>645.0</ele><time>2026-05-01T12:31:40.38Z</time></trkpt><trkpt lat="44.5804145" lon="5.4835893"><ele>645.0</ele><time>2026-05-01T12:31:41.381Z</time></trkpt><trkpt lat="44.5805927" lon="5.4833832"><ele>643.5</ele><time>2026-05-01T12:31:42.381Z</time></trkpt><trkpt lat="44.5807784" lon="5.4831815"><ele>642.0</ele><time>2026-05-01T12:31:43.38Z</time></trkpt><trkpt lat="44.5809707" lon="5.4829821"><ele>640.0</ele><time>2026-05-01T12:31:44.38Z</time></trkpt><trkpt lat="44.581173" lon="5.4827906"><ele>638.0</ele><time>2026-05-01T12:31:45.38Z</time></trkpt><trkpt lat="44.5813813" lon="5.4826118"><ele>638.0</ele><time>2026-05-01T12:31:46.38Z</time></trkpt><trkpt lat="44.5815929" lon="5.4824402"><ele>638.0</ele><time>2026-05-01T12:31:47.38Z</time></trkpt><trkpt lat="44.5818081" lon="5.4822744"><ele>638.5</ele><time>2026-05-01T12:31:48.38Z</time></trkpt><trkpt lat="44.5820258" lon="5.4821148"><ele>639.0</ele><time>2026-05-01T12:31:49.382Z</time></trkpt><trkpt lat="44.5822467" lon="5.4819693"><ele>639.0</ele><time>2026-05-01T12:31:50.38Z</time></trkpt><trkpt lat="44.5824681" lon="5.4818539"><ele>639.0</ele><time>2026-05-01T12:31:51.38Z</time></trkpt><trkpt lat="44.5826916" lon="5.4817647"><ele>638.5</ele><time>2026-05-01T12:31:52.38Z</time></trkpt><trkpt lat="44.5829155" lon="5.4816775"><ele>638.0</ele><time>2026-05-01T12:31:53.38Z</time></trkpt><trkpt lat="44.5831343" lon="5.4815673"><ele>638.0</ele><time>2026-05-01T12:31:54.38Z</time></trkpt><trkpt lat="44.5833508" lon="5.4814337"><ele>638.0</ele><time>2026-05-01T12:31:55.38Z</time></trkpt><trkpt lat="44.5835659" lon="5.4812863"><ele>638.0</ele><time>2026-05-01T12:31:56.38Z</time></trkpt><trkpt lat="44.5837827" lon="5.4811331"><ele>638.0</ele><time>2026-05-01T12:31:57.38Z</time></trkpt><trkpt lat="44.5840001" lon="5.480971"><ele>638.0</ele><time>2026-05-01T12:31:58.38Z</time></trkpt><trkpt lat="44.5842194" lon="5.4808004"><ele>638.0</ele><time>2026-05-01T12:31:59.38Z</time></trkpt><trkpt lat="44.5844414" lon="5.4806257"><ele>638.0</ele><time>2026-05-01T12:32:00.38Z</time></trkpt><trkpt lat="44.5846678" lon="5.4804512"><ele>638.0</ele><time>2026-05-01T12:32:01.38Z</time></trkpt><trkpt lat="44.5848958" lon="5.4802732"><ele>638.0</ele><time>2026-05-01T12:32:02.38Z</time></trkpt><trkpt lat="44.5851249" lon="5.4800924"><ele>638.0</ele><time>2026-05-01T12:32:03.38Z</time></trkpt><trkpt lat="44.5853591" lon="5.4799102"><ele>637.5</ele><time>2026-05-01T12:32:04.38Z</time></trkpt><trkpt lat="44.5855958" lon="5.4797247"><ele>637.0</ele><time>2026-05-01T12:32:05.38Z</time></trkpt><trkpt lat="44.5858358" lon="5.4795361"><ele>637.0</ele><time>2026-05-01T12:32:06.38Z</time></trkpt><trkpt lat="44.5860787" lon="5.4793447"><ele>637.0</ele><time>2026-05-01T12:32:07.381Z</time></trkpt><trkpt lat="44.5863232" lon="5.4791534"><ele>636.5</ele><time>2026-05-01T12:32:08.38Z</time></trkpt><trkpt lat="44.5865695" lon="5.4789605"><ele>636.0</ele><time>2026-05-01T12:32:09.381Z</time></trkpt><trkpt lat="44.5868166" lon="5.4787668"><ele>636.5</ele><time>2026-05-01T12:32:10.38Z</time></trkpt><trkpt lat="44.5870651" lon="5.4785733"><ele>637.0</ele><time>2026-05-01T12:32:11.38Z</time></trkpt><trkpt lat="44.5873141" lon="5.478379"><ele>637.0</ele><time>2026-05-01T12:32:12.38Z</time></trkpt><trkpt lat="44.5875562" lon="5.4781863"><ele>637.0</ele><time>2026-05-01T12:32:13.38Z</time></trkpt><trkpt lat="44.5877891" lon="5.4780015"><ele>637.0</ele><time>2026-05-01T12:32:14.38Z</time></trkpt><trkpt lat="44.5880152" lon="5.4778274"><ele>637.0</ele><time>2026-05-01T12:32:15.38Z</time></trkpt><trkpt lat="44.588232" lon="5.4776581"><ele>637.0</ele><time>2026-05-01T12:32:16.381Z</time></trkpt><trkpt lat="44.5884404" lon="5.4774926"><ele>637.0</ele><time>2026-05-01T12:32:17.38Z</time></trkpt><trkpt lat="44.5886388" lon="5.4773294"><ele>636.3333333333334</ele><time>2026-05-01T12:32:18.38Z</time></trkpt><trkpt lat="44.5888306" lon="5.4771675"><ele>635.6666666666666</ele><time>2026-05-01T12:32:19.38Z</time></trkpt><trkpt lat="44.5890215" lon="5.4770004"><ele>635.0</ele><time>2026-05-01T12:32:20.38Z</time></trkpt><trkpt lat="44.5892032" lon="5.4768375"><ele>635.0</ele><time>2026-05-01T12:32:21.381Z</time></trkpt><trkpt lat="44.5893826" lon="5.476678"><ele>635.0</ele><time>2026-05-01T12:32:22.38Z</time></trkpt><trkpt lat="44.5895735" lon="5.4765098"><ele>635.0</ele><time>2026-05-01T12:32:23.38Z</time></trkpt><trkpt lat="44.5897726" lon="5.4763347"><ele>635.5</ele><time>2026-05-01T12:32:24.38Z</time></trkpt><trkpt lat="44.5899816" lon="5.4761492"><ele>636.0</ele><time>2026-05-01T12:32:25.38Z</time></trkpt><trkpt lat="44.5901983" lon="5.4759554"><ele>635.5</ele><time>2026-05-01T12:32:26.38Z</time></trkpt><trkpt lat="44.5904225" lon="5.4757575"><ele>635.0</ele><time>2026-05-01T12:32:27.381Z</time></trkpt><trkpt lat="44.5906522" lon="5.4755546"><ele>635.0</ele><time>2026-05-01T12:32:28.38Z</time></trkpt><trkpt lat="44.590889" lon="5.4753412"><ele>635.0</ele><time>2026-05-01T12:32:29.38Z</time></trkpt><trkpt lat="44.591133" lon="5.4751209"><ele>635.0</ele><time>2026-05-01T12:32:30.38Z</time></trkpt><trkpt lat="44.5913842" lon="5.4748974"><ele>635.0</ele><time>2026-05-01T12:32:31.38Z</time></trkpt><trkpt lat="44.5916379" lon="5.4746715"><ele>634.5</ele><time>2026-05-01T12:32:32.38Z</time></trkpt><trkpt lat="44.5918911" lon="5.4744464"><ele>634.0</ele><time>2026-05-01T12:32:33.38Z</time></trkpt><trkpt lat="44.5921424" lon="5.4742214"><ele>633.5</ele><time>2026-05-01T12:32:34.38Z</time></trkpt><trkpt lat="44.5923938" lon="5.4739951"><ele>633.0</ele><time>2026-05-01T12:32:35.38Z</time></trkpt><trkpt lat="44.5926378" lon="5.4737773"><ele>633.5</ele><time>2026-05-01T12:32:36.38Z</time></trkpt><trkpt lat="44.5928733" lon="5.4735687"><ele>634.0</ele><time>2026-05-01T12:32:37.38Z</time></trkpt><trkpt lat="44.5931068" lon="5.4733609"><ele>634.0</ele><time>2026-05-01T12:32:38.38Z</time></trkpt><trkpt lat="44.5933376" lon="5.4731542"><ele>634.0</ele><time>2026-05-01T12:32:39.381Z</time></trkpt><trkpt lat="44.5935541" lon="5.4729494"><ele>633.5</ele><time>2026-05-01T12:32:40.38Z</time></trkpt><trkpt lat="44.5937553" lon="5.4727397"><ele>633.0</ele><time>2026-05-01T12:32:41.38Z</time></trkpt><trkpt lat="44.5939409" lon="5.4725246"><ele>633.0</ele><time>2026-05-01T12:32:42.38Z</time></trkpt><trkpt lat="44.594106" lon="5.4723162"><ele>633.0</ele><time>2026-05-01T12:32:43.38Z</time></trkpt><trkpt lat="44.5942635" lon="5.4721149"><ele>633.0</ele><time>2026-05-01T12:32:44.38Z</time></trkpt><trkpt lat="44.5944194" lon="5.4719282"><ele>634.0</ele><time>2026-05-01T12:32:45.38Z</time></trkpt><trkpt lat="44.5945781" lon="5.4717699"><ele>635.0</ele><time>2026-05-01T12:32:46.38Z</time></trkpt><trkpt lat="44.5947299" lon="5.4716514"><ele>636.0</ele><time>2026-05-01T12:32:47.38Z</time></trkpt><trkpt lat="44.5948768" lon="5.4715608"><ele>636.0</ele><time>2026-05-01T12:32:48.38Z</time></trkpt><trkpt lat="44.5950266" lon="5.4714794"><ele>636.0</ele><time>2026-05-01T12:32:49.38Z</time></trkpt><trkpt lat="44.5951811" lon="5.4713878"><ele>636.0</ele><time>2026-05-01T12:32:50.379Z</time></trkpt><trkpt lat="44.5953422" lon="5.4712783"><ele>635.6666666666666</ele><time>2026-05-01T12:32:51.379Z</time></trkpt><trkpt lat="44.595507" lon="5.4711496"><ele>635.3333333333333</ele><time>2026-05-01T12:32:52.379Z</time></trkpt><trkpt lat="44.5956777" lon="5.4710091"><ele>635.0</ele><time>2026-05-01T12:32:53.38Z</time></trkpt><trkpt lat="44.5958542" lon="5.4708593"><ele>635.0</ele><time>2026-05-01T12:32:54.38Z</time></trkpt><trkpt lat="44.596038" lon="5.4707017"><ele>635.0</ele><time>2026-05-01T12:32:55.379Z</time></trkpt><trkpt lat="44.5962289" lon="5.4705316"><ele>635.0</ele><time>2026-05-01T12:32:56.38Z</time></trkpt><trkpt lat="44.5964332" lon="5.4703526"><ele>635.0</ele><time>2026-05-01T12:32:57.379Z</time></trkpt><trkpt lat="44.5966483" lon="5.4701651"><ele>635.0</ele><time>2026-05-01T12:32:58.379Z</time></trkpt><trkpt lat="44.5968669" lon="5.469972"><ele>634.0</ele><time>2026-05-01T12:32:59.379Z</time></trkpt><trkpt lat="44.5970839" lon="5.4697793"><ele>633.0</ele><time>2026-05-01T12:33:00.379Z</time></trkpt><trkpt lat="44.5973066" lon="5.4695809"><ele>633.0</ele><time>2026-05-01T12:33:01.38Z</time></trkpt><trkpt lat="44.5975372" lon="5.4693689"><ele>633.0</ele><time>2026-05-01T12:33:02.379Z</time></trkpt><trkpt lat="44.597777" lon="5.4691412"><ele>633.0</ele><time>2026-05-01T12:33:03.379Z</time></trkpt><trkpt lat="44.5980289" lon="5.4689056"><ele>633.0</ele><time>2026-05-01T12:33:04.379Z</time></trkpt><trkpt lat="44.5982911" lon="5.468666"><ele>633.0</ele><time>2026-05-01T12:33:05.379Z</time></trkpt><trkpt lat="44.5985557" lon="5.4684264"><ele>633.0</ele><time>2026-05-01T12:33:06.379Z</time></trkpt><trkpt lat="44.5988203" lon="5.4681945"><ele>633.5</ele><time>2026-05-01T12:33:07.379Z</time></trkpt><trkpt lat="44.5990818" lon="5.4679752"><ele>634.0</ele><time>2026-05-01T12:33:08.379Z</time></trkpt><trkpt lat="44.5993325" lon="5.4677622"><ele>634.0</ele><time>2026-05-01T12:33:09.379Z</time></trkpt><trkpt lat="44.5995717" lon="5.4675536"><ele>634.0</ele><time>2026-05-01T12:33:10.38Z</time></trkpt><trkpt lat="44.599802" lon="5.4673523"><ele>634.0</ele><time>2026-05-01T12:33:11.379Z</time></trkpt><trkpt lat="44.6000225" lon="5.4671582"><ele>634.0</ele><time>2026-05-01T12:33:12.379Z</time></trkpt><trkpt lat="44.6002328" lon="5.4669697"><ele>635.0</ele><time>2026-05-01T12:33:13.379Z</time></trkpt><trkpt lat="44.6004346" lon="5.4667889"><ele>636.0</ele><time>2026-05-01T12:33:14.379Z</time></trkpt><trkpt lat="44.6006317" lon="5.4666133"><ele>636.0</ele><time>2026-05-01T12:33:15.379Z</time></trkpt><trkpt lat="44.6008258" lon="5.466443"><ele>636.0</ele><time>2026-05-01T12:33:16.38Z</time></trkpt><trkpt lat="44.6010175" lon="5.4662755"><ele>636.5</ele><time>2026-05-01T12:33:17.379Z</time></trkpt><trkpt lat="44.6012102" lon="5.4661063"><ele>637.0</ele><time>2026-05-01T12:33:18.379Z</time></trkpt><trkpt lat="44.6014043" lon="5.465938"><ele>637.0</ele><time>2026-05-01T12:33:19.379Z</time></trkpt><trkpt lat="44.6016025" lon="5.4657648"><ele>637.0</ele><time>2026-05-01T12:33:20.379Z</time></trkpt><trkpt lat="44.6017985" lon="5.4655928"><ele>636.3333333333334</ele><time>2026-05-01T12:33:21.379Z</time></trkpt><trkpt lat="44.6019824" lon="5.4654265"><ele>635.6666666666666</ele><time>2026-05-01T12:33:22.379Z</time></trkpt><trkpt lat="44.6021564" lon="5.4652549"><ele>635.0</ele><time>2026-05-01T12:33:23.379Z</time></trkpt><trkpt lat="44.6023248" lon="5.4650719"><ele>636.0</ele><time>2026-05-01T12:33:24.38Z</time></trkpt><trkpt lat="44.6024841" lon="5.4648757"><ele>637.0</ele><time>2026-05-01T12:33:25.379Z</time></trkpt><trkpt lat="44.6026208" lon="5.4646581"><ele>638.0</ele><time>2026-05-01T12:33:26.379Z</time></trkpt><trkpt lat="44.6027248" lon="5.464429"><ele>638.0</ele><time>2026-05-01T12:33:27.379Z</time></trkpt><trkpt lat="44.6027949" lon="5.4641977"><ele>638.0</ele><time>2026-05-01T12:33:28.379Z</time></trkpt><trkpt lat="44.6028345" lon="5.4639578"><ele>638.0</ele><time>2026-05-01T12:33:29.379Z</time></trkpt><trkpt lat="44.6028462" lon="5.4637044"><ele>637.6666666666666</ele><time>2026-05-01T12:33:30.38Z</time></trkpt><trkpt lat="44.6028297" lon="5.4634443"><ele>637.3333333333334</ele><time>2026-05-01T12:33:31.379Z</time></trkpt><trkpt lat="44.6027838" lon="5.4631941"><ele>637.0</ele><time>2026-05-01T12:33:32.379Z</time></trkpt><trkpt lat="44.6027154" lon="5.4629883"><ele>639.0</ele><time>2026-05-01T12:33:33.379Z</time></trkpt><trkpt lat="44.6026251" lon="5.4628079"><ele>641.0</ele><time>2026-05-01T12:33:34.379Z</time></trkpt><trkpt lat="44.6025105" lon="5.4626471"><ele>643.0</ele><time>2026-05-01T12:33:35.379Z</time></trkpt><trkpt lat="44.6023665" lon="5.4625141"><ele>643.0</ele><time>2026-05-01T12:33:36.379Z</time></trkpt><trkpt lat="44.6022017" lon="5.462409"><ele>643.0</ele><time>2026-05-01T12:33:37.379Z</time></trkpt><trkpt lat="44.6020262" lon="5.4623295"><ele>643.0</ele><time>2026-05-01T12:33:38.379Z</time></trkpt><trkpt lat="44.6018438" lon="5.4622651"><ele>643.25</ele><time>2026-05-01T12:33:39.38Z</time></trkpt><trkpt lat="44.6016746" lon="5.4622124"><ele>643.5</ele><time>2026-05-01T12:33:40.379Z</time></trkpt><trkpt lat="44.601531" lon="5.4621702"><ele>643.75</ele><time>2026-05-01T12:33:41.379Z</time></trkpt><trkpt lat="44.6014111" lon="5.4621638"><ele>644.0</ele><time>2026-05-01T12:33:42.379Z</time></trkpt><trkpt lat="44.6012935" lon="5.4622017"><ele>644.0</ele><time>2026-05-01T12:33:43.38Z</time></trkpt><trkpt lat="44.6011767" lon="5.4622864"><ele>644.0</ele><time>2026-05-01T12:33:44.379Z</time></trkpt><trkpt lat="44.6010449" lon="5.4623821"><ele>644.0</ele><time>2026-05-01T12:33:45.379Z</time></trkpt><trkpt lat="44.6008934" lon="5.4624687"><ele>644.0</ele><time>2026-05-01T12:33:46.379Z</time></trkpt><trkpt lat="44.6007385" lon="5.46258"><ele>646.3333333333333</ele><time>2026-05-01T12:33:47.38Z</time></trkpt><trkpt lat="44.6006039" lon="5.4627307"><ele>648.6666666666666</ele><time>2026-05-01T12:33:48.379Z</time></trkpt><trkpt lat="44.6004869" lon="5.4629045"><ele>651.0</ele><time>2026-05-01T12:33:49.379Z</time></trkpt><trkpt lat="44.6003438" lon="5.4630664"><ele>643.0</ele><time>2026-05-01T12:33:50.379Z</time></trkpt><trkpt lat="44.6001861" lon="5.4632059"><ele>635.0</ele><time>2026-05-01T12:33:51.38Z</time></trkpt><trkpt lat="44.6000184" lon="5.4633263"><ele>627.0</ele><time>2026-05-01T12:33:52.379Z</time></trkpt><trkpt lat="44.599844" lon="5.4634191"><ele>627.0</ele><time>2026-05-01T12:33:53.38Z</time></trkpt><trkpt lat="44.5996671" lon="5.4634945"><ele>627.0</ele><time>2026-05-01T12:33:54.379Z</time></trkpt><trkpt lat="44.5994846" lon="5.4635514"><ele>627.0</ele><time>2026-05-01T12:33:55.379Z</time></trkpt><trkpt lat="44.5993047" lon="5.4635659"><ele>624.6666666666666</ele><time>2026-05-01T12:33:56.379Z</time></trkpt><trkpt lat="44.5991299" lon="5.4635343"><ele>622.3333333333333</ele><time>2026-05-01T12:33:57.38Z</time></trkpt><trkpt lat="44.5989668" lon="5.4634564"><ele>620.0</ele><time>2026-05-01T12:33:58.379Z</time></trkpt><trkpt lat="44.5988206" lon="5.4633421"><ele>620.0</ele><time>2026-05-01T12:33:59.38Z</time></trkpt><trkpt lat="44.5986862" lon="5.4632018"><ele>620.0</ele><time>2026-05-01T12:34:00.379Z</time></trkpt><trkpt lat="44.5985565" lon="5.4630359"><ele>620.0</ele><time>2026-05-01T12:34:01.38Z</time></trkpt><trkpt lat="44.5984272" lon="5.4628486"><ele>619.3333333333333</ele><time>2026-05-01T12:34:02.379Z</time></trkpt><trkpt lat="44.5983021" lon="5.4626538"><ele>618.6666666666666</ele><time>2026-05-01T12:34:03.379Z</time></trkpt><trkpt lat="44.5981898" lon="5.4624498"><ele>618.0</ele><time>2026-05-01T12:34:04.379Z</time></trkpt><trkpt lat="44.598094" lon="5.4622424"><ele>614.0</ele><time>2026-05-01T12:34:05.379Z</time></trkpt><trkpt lat="44.5980218" lon="5.4620217"><ele>610.0</ele><time>2026-05-01T12:34:06.379Z</time></trkpt><trkpt lat="44.5979737" lon="5.4617781"><ele>606.0</ele><time>2026-05-01T12:34:07.379Z</time></trkpt><trkpt lat="44.5979362" lon="5.4615144"><ele>604.3333333333334</ele><time>2026-05-01T12:34:08.38Z</time></trkpt><trkpt lat="44.5979109" lon="5.4612364"><ele>602.6666666666667</ele><time>2026-05-01T12:34:09.379Z</time></trkpt><trkpt lat="44.5979076" lon="5.4609532"><ele>601.0</ele><time>2026-05-01T12:34:10.379Z</time></trkpt><trkpt lat="44.5979226" lon="5.4606753"><ele>601.3333333333334</ele><time>2026-05-01T12:34:11.38Z</time></trkpt><trkpt lat="44.5979405" lon="5.4604082"><ele>601.6666666666666</ele><time>2026-05-01T12:34:12.379Z</time></trkpt><trkpt lat="44.5979531" lon="5.4601568"><ele>602.0</ele><time>2026-05-01T12:34:13.379Z</time></trkpt><trkpt lat="44.5979702" lon="5.4599176"><ele>602.0</ele><time>2026-05-01T12:34:14.379Z</time></trkpt><trkpt lat="44.5980106" lon="5.4596904"><ele>602.0</ele><time>2026-05-01T12:34:15.379Z</time></trkpt><trkpt lat="44.5980798" lon="5.4594886"><ele>602.0</ele><time>2026-05-01T12:34:16.379Z</time></trkpt><trkpt lat="44.5981762" lon="5.4593204"><ele>602.6666666666666</ele><time>2026-05-01T12:34:17.379Z</time></trkpt><trkpt lat="44.5982896" lon="5.4591898"><ele>603.3333333333334</ele><time>2026-05-01T12:34:18.379Z</time></trkpt><trkpt lat="44.5984225" lon="5.4590938"><ele>604.0</ele><time>2026-05-01T12:34:19.379Z</time></trkpt><trkpt lat="44.5985787" lon="5.459027"><ele>604.6666666666667</ele><time>2026-05-01T12:34:20.379Z</time></trkpt><trkpt lat="44.5987487" lon="5.4589931"><ele>605.3333333333334</ele><time>2026-05-01T12:34:21.379Z</time></trkpt><trkpt lat="44.5989271" lon="5.4589861"><ele>606.0</ele><time>2026-05-01T12:34:22.38Z</time></trkpt><trkpt lat="44.5991126" lon="5.4590115"><ele>606.0</ele><time>2026-05-01T12:34:23.379Z</time></trkpt><trkpt lat="44.5993035" lon="5.4590341"><ele>606.0</ele><time>2026-05-01T12:34:24.379Z</time></trkpt><trkpt lat="44.5994991" lon="5.4590378"><ele>606.0</ele><time>2026-05-01T12:34:25.38Z</time></trkpt><trkpt lat="44.5996914" lon="5.4590085"><ele>605.6666666666666</ele><time>2026-05-01T12:34:26.379Z</time></trkpt><trkpt lat="44.5998723" lon="5.4589553"><ele>605.3333333333333</ele><time>2026-05-01T12:34:27.38Z</time></trkpt><trkpt lat="44.600039" lon="5.4588633"><ele>605.0</ele><time>2026-05-01T12:34:28.379Z</time></trkpt><trkpt lat="44.6002011" lon="5.4587385"><ele>607.3333333333333</ele><time>2026-05-01T12:34:29.38Z</time></trkpt><trkpt lat="44.6003603" lon="5.458618"><ele>609.6666666666666</ele><time>2026-05-01T12:34:30.379Z</time></trkpt><trkpt lat="44.6005293" lon="5.4585269"><ele>612.0</ele><time>2026-05-01T12:34:31.379Z</time></trkpt><trkpt lat="44.600699" lon="5.4584703"><ele>612.0</ele><time>2026-05-01T12:34:32.379Z</time></trkpt><trkpt lat="44.6008704" lon="5.45845"><ele>612.0</ele><time>2026-05-01T12:34:33.379Z</time></trkpt><trkpt lat="44.6010091" lon="5.4584559"><ele>612.0</ele><time>2026-05-01T12:34:34.379Z</time></trkpt><trkpt lat="44.6011145" lon="5.458473"><ele>612.0</ele><time>2026-05-01T12:34:35.379Z</time></trkpt><trkpt lat="44.6012032" lon="5.4585288"><ele>609.6</ele><time>2026-05-01T12:34:36.38Z</time></trkpt><trkpt lat="44.6012927" lon="5.4586006"><ele>607.2</ele><time>2026-05-01T12:34:37.379Z</time></trkpt><trkpt lat="44.6013779" lon="5.4587012"><ele>604.8</ele><time>2026-05-01T12:34:38.379Z</time></trkpt><trkpt lat="44.6014547" lon="5.4588023"><ele>602.4</ele><time>2026-05-01T12:34:39.379Z</time></trkpt><trkpt lat="44.6015279" lon="5.458894"><ele>600.0</ele><time>2026-05-01T12:34:40.38Z</time></trkpt><trkpt lat="44.6016081" lon="5.4589587"><ele>599.5</ele><time>2026-05-01T12:34:41.379Z</time></trkpt><trkpt lat="44.6017073" lon="5.4589921"><ele>599.0</ele><time>2026-05-01T12:34:42.379Z</time></trkpt><trkpt lat="44.6018168" lon="5.4589872"><ele>598.5</ele><time>2026-05-01T12:34:43.38Z</time></trkpt><trkpt lat="44.6019328" lon="5.4589405"><ele>598.0</ele><time>2026-05-01T12:34:44.379Z</time></trkpt><trkpt lat="44.6020531" lon="5.4588724"><ele>598.25</ele><time>2026-05-01T12:34:45.379Z</time></trkpt><trkpt lat="44.6021734" lon="5.4587997"><ele>598.5</ele><time>2026-05-01T12:34:46.379Z</time></trkpt><trkpt lat="44.6022888" lon="5.4587285"><ele>598.75</ele><time>2026-05-01T12:34:47.38Z</time></trkpt><trkpt lat="44.6023911" lon="5.4586384"><ele>599.0</ele><time>2026-05-01T12:34:48.379Z</time></trkpt><trkpt lat="44.6024752" lon="5.4585137"><ele>599.0</ele><time>2026-05-01T12:34:49.379Z</time></trkpt><trkpt lat="44.6025537" lon="5.4583658"><ele>599.0</ele><time>2026-05-01T12:34:50.379Z</time></trkpt><trkpt lat="44.6026408" lon="5.4582242"><ele>599.0</ele><time>2026-05-01T12:34:51.379Z</time></trkpt><trkpt lat="44.6027541" lon="5.458108"><ele>599.0</ele><time>2026-05-01T12:34:52.379Z</time></trkpt><trkpt lat="44.6028949" lon="5.458009"><ele>595.0</ele><time>2026-05-01T12:34:53.379Z</time></trkpt><trkpt lat="44.6030465" lon="5.4578888"><ele>591.0</ele><time>2026-05-01T12:34:54.379Z</time></trkpt><trkpt lat="44.6032085" lon="5.4577365"><ele>587.0</ele><time>2026-05-01T12:34:55.379Z</time></trkpt><trkpt lat="44.6033733" lon="5.4575567"><ele>587.0</ele><time>2026-05-01T12:34:56.379Z</time></trkpt><trkpt lat="44.603542" lon="5.4573615"><ele>587.0</ele><time>2026-05-01T12:34:57.379Z</time></trkpt><trkpt lat="44.6037067" lon="5.4571623"><ele>587.0</ele><time>2026-05-01T12:34:58.379Z</time></trkpt><trkpt lat="44.6038604" lon="5.4569659"><ele>589.3333333333333</ele><time>2026-05-01T12:34:59.38Z</time></trkpt><trkpt lat="44.6040109" lon="5.4567768"><ele>591.6666666666666</ele><time>2026-05-01T12:35:00.379Z</time></trkpt><trkpt lat="44.6041543" lon="5.4565946"><ele>594.0</ele><time>2026-05-01T12:35:01.379Z</time></trkpt><trkpt lat="44.6042979" lon="5.4564165"><ele>591.3333333333334</ele><time>2026-05-01T12:35:02.379Z</time></trkpt><trkpt lat="44.6044479" lon="5.4562353"><ele>588.6666666666667</ele><time>2026-05-01T12:35:03.379Z</time></trkpt><trkpt lat="44.6046037" lon="5.4560546"><ele>586.0</ele><time>2026-05-01T12:35:04.379Z</time></trkpt><trkpt lat="44.6047605" lon="5.4558769"><ele>586.0</ele><time>2026-05-01T12:35:05.379Z</time></trkpt><trkpt lat="44.604924" lon="5.4557021"><ele>586.0</ele><time>2026-05-01T12:35:06.38Z</time></trkpt><trkpt lat="44.6051047" lon="5.4555507"><ele>586.0</ele><time>2026-05-01T12:35:07.379Z</time></trkpt><trkpt lat="44.6052951" lon="5.4554314"><ele>583.0</ele><time>2026-05-01T12:35:08.379Z</time></trkpt><trkpt lat="44.6054958" lon="5.4553279"><ele>580.0</ele><time>2026-05-01T12:35:09.379Z</time></trkpt><trkpt lat="44.6056982" lon="5.4552278"><ele>577.0</ele><time>2026-05-01T12:35:10.38Z</time></trkpt><trkpt lat="44.6058983" lon="5.4551352"><ele>577.0</ele><time>2026-05-01T12:35:11.38Z</time></trkpt><trkpt lat="44.6060909" lon="5.4550412"><ele>577.0</ele><time>2026-05-01T12:35:12.38Z</time></trkpt><trkpt lat="44.6062759" lon="5.4549394"><ele>577.0</ele><time>2026-05-01T12:35:13.38Z</time></trkpt><trkpt lat="44.6064449" lon="5.4548058"><ele>573.6666666666667</ele><time>2026-05-01T12:35:14.379Z</time></trkpt><trkpt lat="44.6066014" lon="5.4546485"><ele>570.3333333333334</ele><time>2026-05-01T12:35:15.379Z</time></trkpt><trkpt lat="44.6067548" lon="5.4544808"><ele>567.0</ele><time>2026-05-01T12:35:16.379Z</time></trkpt><trkpt lat="44.6069025" lon="5.4543138"><ele>570.3333333333334</ele><time>2026-05-01T12:35:17.379Z</time></trkpt><trkpt lat="44.6070463" lon="5.454158"><ele>573.6666666666667</ele><time>2026-05-01T12:35:18.38Z</time></trkpt><trkpt lat="44.6071867" lon="5.4540313"><ele>577.0</ele><time>2026-05-01T12:35:19.379Z</time></trkpt><trkpt lat="44.6073362" lon="5.4539357"><ele>577.0</ele><time>2026-05-01T12:35:20.379Z</time></trkpt><trkpt lat="44.6074926" lon="5.4538562"><ele>577.0</ele><time>2026-05-01T12:35:21.379Z</time></trkpt><trkpt lat="44.6076498" lon="5.453784"><ele>577.0</ele><time>2026-05-01T12:35:22.38Z</time></trkpt><trkpt lat="44.6078059" lon="5.4537291"><ele>572.3333333333334</ele><time>2026-05-01T12:35:23.379Z</time></trkpt><trkpt lat="44.6079619" lon="5.4536932"><ele>567.6666666666666</ele><time>2026-05-01T12:35:24.379Z</time></trkpt><trkpt lat="44.6081165" lon="5.4536742"><ele>563.0</ele><time>2026-05-01T12:35:25.379Z</time></trkpt><trkpt lat="44.6082732" lon="5.4537061"><ele>563.0</ele><time>2026-05-01T12:35:26.38Z</time></trkpt><trkpt lat="44.6084354" lon="5.4537653"><ele>563.0</ele><time>2026-05-01T12:35:27.379Z</time></trkpt><trkpt lat="44.6086096" lon="5.4537999"><ele>563.0</ele><time>2026-05-01T12:35:28.379Z</time></trkpt><trkpt lat="44.6087907" lon="5.453792"><ele>563.3333333333333</ele><time>2026-05-01T12:35:29.379Z</time></trkpt><trkpt lat="44.6089578" lon="5.4537475"><ele>563.6666666666666</ele><time>2026-05-01T12:35:30.379Z</time></trkpt><trkpt lat="44.6091171" lon="5.453683"><ele>564.0</ele><time>2026-05-01T12:35:31.379Z</time></trkpt><trkpt lat="44.6092591" lon="5.453614"><ele>564.0</ele><time>2026-05-01T12:35:32.379Z</time></trkpt><trkpt lat="44.6093877" lon="5.4535359"><ele>564.0</ele><time>2026-05-01T12:35:33.379Z</time></trkpt><trkpt lat="44.609501" lon="5.453429"><ele>564.0</ele><time>2026-05-01T12:35:34.379Z</time></trkpt><trkpt lat="44.6096005" lon="5.4532951"><ele>564.0</ele><time>2026-05-01T12:35:35.38Z</time></trkpt><trkpt lat="44.609691" lon="5.4531432"><ele>563.0</ele><time>2026-05-01T12:35:36.379Z</time></trkpt><trkpt lat="44.6097674" lon="5.4529829"><ele>562.0</ele><time>2026-05-01T12:35:37.379Z</time></trkpt><trkpt lat="44.6098261" lon="5.4528224"><ele>561.0</ele><time>2026-05-01T12:35:38.379Z</time></trkpt><trkpt lat="44.6098766" lon="5.4526776"><ele>560.0</ele><time>2026-05-01T12:35:39.379Z</time></trkpt><trkpt lat="44.609941" lon="5.4525482"><ele>560.0</ele><time>2026-05-01T12:35:40.379Z</time></trkpt><trkpt lat="44.6100214" lon="5.4524387"><ele>560.0</ele><time>2026-05-01T12:35:41.379Z</time></trkpt><trkpt lat="44.6101146" lon="5.4523512"><ele>560.0</ele><time>2026-05-01T12:35:42.379Z</time></trkpt><trkpt lat="44.6102216" lon="5.4522794"><ele>560.0</ele><time>2026-05-01T12:35:43.38Z</time></trkpt><trkpt lat="44.6103392" lon="5.4522299"><ele>561.25</ele><time>2026-05-01T12:35:44.381Z</time></trkpt><trkpt lat="44.6104692" lon="5.4522158"><ele>562.5</ele><time>2026-05-01T12:35:45.379Z</time></trkpt><trkpt lat="44.6105938" lon="5.4522289"><ele>563.75</ele><time>2026-05-01T12:35:46.379Z</time></trkpt><trkpt lat="44.6107107" lon="5.4522523"><ele>565.0</ele><time>2026-05-01T12:35:47.38Z</time></trkpt><trkpt lat="44.6108215" lon="5.4522761"><ele>565.0</ele><time>2026-05-01T12:35:48.38Z</time></trkpt><trkpt lat="44.610934" lon="5.4523139"><ele>565.0</ele><time>2026-05-01T12:35:49.379Z</time></trkpt><trkpt lat="44.6110421" lon="5.4523717"><ele>565.0</ele><time>2026-05-01T12:35:50.379Z</time></trkpt><trkpt lat="44.6111523" lon="5.4524467"><ele>565.0</ele><time>2026-05-01T12:35:51.379Z</time></trkpt><trkpt lat="44.6112623" lon="5.4525235"><ele>564.25</ele><time>2026-05-01T12:35:52.379Z</time></trkpt><trkpt lat="44.6113816" lon="5.4525991"><ele>563.5</ele><time>2026-05-01T12:35:53.38Z</time></trkpt><trkpt lat="44.6114986" lon="5.4526613"><ele>562.75</ele><time>2026-05-01T12:35:54.379Z</time></trkpt><trkpt lat="44.6116112" lon="5.4527091"><ele>562.0</ele><time>2026-05-01T12:35:55.38Z</time></trkpt><trkpt lat="44.6117182" lon="5.452745"><ele>562.0</ele><time>2026-05-01T12:35:56.379Z</time></trkpt><trkpt lat="44.6118253" lon="5.4527792"><ele>562.0</ele><time>2026-05-01T12:35:57.379Z</time></trkpt><trkpt lat="44.6119464" lon="5.4528163"><ele>562.0</ele><time>2026-05-01T12:35:58.379Z</time></trkpt><trkpt lat="44.6120734" lon="5.4528599"><ele>562.0</ele><time>2026-05-01T12:35:59.38Z</time></trkpt><trkpt lat="44.6122019" lon="5.4528999"><ele>561.5</ele><time>2026-05-01T12:36:00.379Z</time></trkpt><trkpt lat="44.6123271" lon="5.4529378"><ele>561.0</ele><time>2026-05-01T12:36:01.379Z</time></trkpt><trkpt lat="44.6124493" lon="5.4529749"><ele>560.5</ele><time>2026-05-01T12:36:02.379Z</time></trkpt><trkpt lat="44.6125641" lon="5.4530035"><ele>560.0</ele><time>2026-05-01T12:36:03.381Z</time></trkpt><trkpt lat="44.6126737" lon="5.4530278"><ele>561.4</ele><time>2026-05-01T12:36:04.379Z</time></trkpt><trkpt lat="44.6127773" lon="5.4530458"><ele>562.8</ele><time>2026-05-01T12:36:05.379Z</time></trkpt><trkpt lat="44.6128744" lon="5.453056"><ele>564.2</ele><time>2026-05-01T12:36:06.38Z</time></trkpt><trkpt lat="44.6129683" lon="5.4530622"><ele>565.6</ele><time>2026-05-01T12:36:07.379Z</time></trkpt><trkpt lat="44.6130582" lon="5.4530606"><ele>567.0</ele><time>2026-05-01T12:36:08.379Z</time></trkpt><trkpt lat="44.6131418" lon="5.4530582"><ele>567.0</ele><time>2026-05-01T12:36:09.379Z</time></trkpt><trkpt lat="44.6132245" lon="5.4530577"><ele>567.0</ele><time>2026-05-01T12:36:10.379Z</time></trkpt><trkpt lat="44.6133038" lon="5.4530453"><ele>567.0</ele><time>2026-05-01T12:36:11.379Z</time></trkpt><trkpt lat="44.6133833" lon="5.4530303"><ele>567.0</ele><time>2026-05-01T12:36:12.379Z</time></trkpt><trkpt lat="44.6134613" lon="5.4530209"><ele>567.0</ele><time>2026-05-01T12:36:13.38Z</time></trkpt><trkpt lat="44.613538" lon="5.4530101"><ele>567.0</ele><time>2026-05-01T12:36:14.38Z</time></trkpt><trkpt lat="44.6136127" lon="5.4529978"><ele>567.0</ele><time>2026-05-01T12:36:15.379Z</time></trkpt><trkpt lat="44.6136864" lon="5.4529833"><ele>567.0</ele><time>2026-05-01T12:36:16.379Z</time></trkpt><trkpt lat="44.6137589" lon="5.4529704"><ele>567.0</ele><time>2026-05-01T12:36:17.379Z</time></trkpt><trkpt lat="44.6138326" lon="5.4529587"><ele>567.0</ele><time>2026-05-01T12:36:18.379Z</time></trkpt><trkpt lat="44.6139063" lon="5.4529487"><ele>567.0</ele><time>2026-05-01T12:36:19.379Z</time></trkpt><trkpt lat="44.6139812" lon="5.4529374"><ele>567.0</ele><time>2026-05-01T12:36:20.379Z</time></trkpt><trkpt lat="44.6140589" lon="5.4529271"><ele>567.0</ele><time>2026-05-01T12:36:21.379Z</time></trkpt><trkpt lat="44.6141381" lon="5.4529151"><ele>567.0</ele><time>2026-05-01T12:36:22.379Z</time></trkpt><trkpt lat="44.6142227" lon="5.4528905"><ele>567.0</ele><time>2026-05-01T12:36:23.379Z</time></trkpt><trkpt lat="44.6143062" lon="5.4528626"><ele>567.0</ele><time>2026-05-01T12:36:24.379Z</time></trkpt><trkpt lat="44.6143908" lon="5.4528319"><ele>567.0</ele><time>2026-05-01T12:36:25.379Z</time></trkpt><trkpt lat="44.6144744" lon="5.4527993"><ele>567.0</ele><time>2026-05-01T12:36:26.379Z</time></trkpt><trkpt lat="44.6145584" lon="5.4527673"><ele>567.0</ele><time>2026-05-01T12:36:27.379Z</time></trkpt><trkpt lat="44.6146405" lon="5.452735"><ele>567.1428571428571</ele><time>2026-05-01T12:36:28.379Z</time></trkpt><trkpt lat="44.6147194" lon="5.4527022"><ele>567.2857142857142</ele><time>2026-05-01T12:36:29.379Z</time></trkpt><trkpt lat="44.6147898" lon="5.4526658"><ele>567.4285714285714</ele><time>2026-05-01T12:36:30.379Z</time></trkpt><trkpt lat="44.6148601" lon="5.4526311"><ele>567.5714285714286</ele><time>2026-05-01T12:36:31.379Z</time></trkpt><trkpt lat="44.6149247" lon="5.4526029"><ele>567.7142857142857</ele><time>2026-05-01T12:36:32.38Z</time></trkpt><trkpt lat="44.6149895" lon="5.4525705"><ele>567.8571428571429</ele><time>2026-05-01T12:36:33.379Z</time></trkpt><trkpt lat="44.615049" lon="5.4525198"><ele>568.0</ele><time>2026-05-01T12:36:34.38Z</time></trkpt><trkpt lat="44.6151056" lon="5.4524447"><ele>568.0</ele><time>2026-05-01T12:36:35.379Z</time></trkpt><trkpt lat="44.6151578" lon="5.4523652"><ele>568.0</ele><time>2026-05-01T12:36:36.379Z</time></trkpt><trkpt lat="44.6152097" lon="5.4523004"><ele>568.0</ele><time>2026-05-01T12:36:37.38Z</time></trkpt><trkpt lat="44.6152686" lon="5.4522387"><ele>568.0</ele><time>2026-05-01T12:36:38.38Z</time></trkpt><trkpt lat="44.6153218" lon="5.4521771"><ele>568.0</ele><time>2026-05-01T12:36:39.379Z</time></trkpt><trkpt lat="44.6153742" lon="5.4521082"><ele>568.0</ele><time>2026-05-01T12:36:40.38Z</time></trkpt><trkpt lat="44.6154258" lon="5.4520427"><ele>568.0</ele><time>2026-05-01T12:36:41.379Z</time></trkpt><trkpt lat="44.6154825" lon="5.4519771"><ele>567.2857142857142</ele><time>2026-05-01T12:36:42.379Z</time></trkpt><trkpt lat="44.6155348" lon="5.4519179"><ele>566.5714285714286</ele><time>2026-05-01T12:36:43.379Z</time></trkpt><trkpt lat="44.6155825" lon="5.4518601"><ele>565.8571428571429</ele><time>2026-05-01T12:36:44.379Z</time></trkpt><trkpt lat="44.6156369" lon="5.4518022"><ele>565.1428571428571</ele><time>2026-05-01T12:36:45.38Z</time></trkpt><trkpt lat="44.6156849" lon="5.4517373"><ele>564.4285714285714</ele><time>2026-05-01T12:36:46.379Z</time></trkpt><trkpt lat="44.615732" lon="5.4516711"><ele>563.7142857142857</ele><time>2026-05-01T12:36:47.379Z</time></trkpt><trkpt lat="44.6157805" lon="5.4516143"><ele>563.0</ele><time>2026-05-01T12:36:48.379Z</time></trkpt><trkpt lat="44.615829" lon="5.451554"><ele>563.0</ele><time>2026-05-01T12:36:49.379Z</time></trkpt><trkpt lat="44.615889" lon="5.4514771"><ele>563.0</ele><time>2026-05-01T12:36:50.379Z</time></trkpt><trkpt lat="44.6159692" lon="5.4513774"><ele>563.0</ele><time>2026-05-01T12:36:51.379Z</time></trkpt><trkpt lat="44.6160537" lon="5.4512619"><ele>563.0</ele><time>2026-05-01T12:36:52.379Z</time></trkpt><trkpt lat="44.6161369" lon="5.451129"><ele>563.0</ele><time>2026-05-01T12:36:53.379Z</time></trkpt><trkpt lat="44.6162095" lon="5.450981"><ele>563.0</ele><time>2026-05-01T12:36:54.379Z</time></trkpt><trkpt lat="44.6162717" lon="5.4508119"><ele>563.0</ele><time>2026-05-01T12:36:55.379Z</time></trkpt><trkpt lat="44.6163406" lon="5.4506378"><ele>563.0</ele><time>2026-05-01T12:36:56.379Z</time></trkpt><trkpt lat="44.6164193" lon="5.4504513"><ele>563.0</ele><time>2026-05-01T12:36:57.379Z</time></trkpt><trkpt lat="44.6165041" lon="5.4502581"><ele>562.0</ele><time>2026-05-01T12:36:58.38Z</time></trkpt><trkpt lat="44.6165822" lon="5.4500802"><ele>561.0</ele><time>2026-05-01T12:36:59.379Z</time></trkpt><trkpt lat="44.6166516" lon="5.449914"><ele>560.0</ele><time>2026-05-01T12:37:00.379Z</time></trkpt><trkpt lat="44.6167165" lon="5.4497612"><ele>559.0</ele><time>2026-05-01T12:37:01.379Z</time></trkpt><trkpt lat="44.616783" lon="5.449606"><ele>558.25</ele><time>2026-05-01T12:37:02.38Z</time></trkpt><trkpt lat="44.6168453" lon="5.4494516"><ele>557.5</ele><time>2026-05-01T12:37:03.379Z</time></trkpt><trkpt lat="44.616906" lon="5.4493037"><ele>556.75</ele><time>2026-05-01T12:37:04.38Z</time></trkpt><trkpt lat="44.6169669" lon="5.4491555"><ele>556.0</ele><time>2026-05-01T12:37:05.379Z</time></trkpt><trkpt lat="44.6170346" lon="5.4489954"><ele>555.6666666666667</ele><time>2026-05-01T12:37:06.381Z</time></trkpt><trkpt lat="44.6171083" lon="5.4488176"><ele>555.3333333333334</ele><time>2026-05-01T12:37:07.379Z</time></trkpt><trkpt lat="44.6171888" lon="5.4486111"><ele>555.0</ele><time>2026-05-01T12:37:08.379Z</time></trkpt><trkpt lat="44.6172812" lon="5.448366"><ele>554.0</ele><time>2026-05-01T12:37:09.379Z</time></trkpt><trkpt lat="44.617377" lon="5.4481349"><ele>553.0</ele><time>2026-05-01T12:37:10.379Z</time></trkpt><trkpt lat="44.6174783" lon="5.4478965"><ele>552.0</ele><time>2026-05-01T12:37:11.379Z</time></trkpt><trkpt lat="44.6175818" lon="5.4476544"><ele>551.0</ele><time>2026-05-01T12:37:12.379Z</time></trkpt><trkpt lat="44.617684" lon="5.4474198"><ele>550.0</ele><time>2026-05-01T12:37:13.38Z</time></trkpt><trkpt lat="44.6177915" lon="5.4471743"><ele>549.0</ele><time>2026-05-01T12:37:14.38Z</time></trkpt><trkpt lat="44.6178935" lon="5.4469326"><ele>548.3333333333334</ele><time>2026-05-01T12:37:15.379Z</time></trkpt><trkpt lat="44.6179883" lon="5.4466954"><ele>547.6666666666667</ele><time>2026-05-01T12:37:16.379Z</time></trkpt><trkpt lat="44.6180847" lon="5.4464486"><ele>547.0</ele><time>2026-05-01T12:37:17.379Z</time></trkpt><trkpt lat="44.6181755" lon="5.4462151"><ele>546.0</ele><time>2026-05-01T12:37:18.379Z</time></trkpt><trkpt lat="44.6182701" lon="5.4459982"><ele>545.0</ele><time>2026-05-01T12:37:19.379Z</time></trkpt><trkpt lat="44.6183651" lon="5.4457959"><ele>544.0</ele><time>2026-05-01T12:37:20.379Z</time></trkpt><trkpt lat="44.6184539" lon="5.4455991"><ele>543.6666666666667</ele><time>2026-05-01T12:37:21.38Z</time></trkpt><trkpt lat="44.6185425" lon="5.4453878"><ele>543.3333333333334</ele><time>2026-05-01T12:37:22.379Z</time></trkpt><trkpt lat="44.6186268" lon="5.4451643"><ele>543.0</ele><time>2026-05-01T12:37:23.379Z</time></trkpt><trkpt lat="44.6186967" lon="5.4449252"><ele>542.3333333333334</ele><time>2026-05-01T12:37:24.379Z</time></trkpt><trkpt lat="44.618743" lon="5.4446785"><ele>541.6666666666667</ele><time>2026-05-01T12:37:25.379Z</time></trkpt><trkpt lat="44.6187807" lon="5.4444336"><ele>541.0</ele><time>2026-05-01T12:37:26.381Z</time></trkpt><trkpt lat="44.6188213" lon="5.4442001"><ele>541.0</ele><time>2026-05-01T12:37:27.379Z</time></trkpt><trkpt lat="44.6188829" lon="5.4439735"><ele>541.0</ele><time>2026-05-01T12:37:28.38Z</time></trkpt><trkpt lat="44.6189791" lon="5.4437412"><ele>541.0</ele><time>2026-05-01T12:37:29.379Z</time></trkpt><trkpt lat="44.6191093" lon="5.4435183"><ele>541.3333333333334</ele><time>2026-05-01T12:37:30.379Z</time></trkpt><trkpt lat="44.6192621" lon="5.4433252"><ele>541.6666666666666</ele><time>2026-05-01T12:37:31.38Z</time></trkpt><trkpt lat="44.619427" lon="5.4431458"><ele>542.0</ele><time>2026-05-01T12:37:32.379Z</time></trkpt><trkpt lat="44.6195933" lon="5.4429658"><ele>542.3333333333333</ele><time>2026-05-01T12:37:33.379Z</time></trkpt><trkpt lat="44.619763" lon="5.4427793"><ele>542.6666666666666</ele><time>2026-05-01T12:37:34.379Z</time></trkpt><trkpt lat="44.6199378" lon="5.442592"><ele>543.0</ele><time>2026-05-01T12:37:35.379Z</time></trkpt><trkpt lat="44.6201156" lon="5.4424039"><ele>543.0</ele><time>2026-05-01T12:37:36.379Z</time></trkpt><trkpt lat="44.6202926" lon="5.4422106"><ele>543.0</ele><time>2026-05-01T12:37:37.379Z</time></trkpt><trkpt lat="44.6204693" lon="5.4420164"><ele>543.0</ele><time>2026-05-01T12:37:38.38Z</time></trkpt><trkpt lat="44.6206419" lon="5.4418282"><ele>542.6666666666666</ele><time>2026-05-01T12:37:39.379Z</time></trkpt><trkpt lat="44.6208077" lon="5.4416472"><ele>542.3333333333333</ele><time>2026-05-01T12:37:40.379Z</time></trkpt><trkpt lat="44.6209645" lon="5.4414751"><ele>542.0</ele><time>2026-05-01T12:37:41.379Z</time></trkpt><trkpt lat="44.6211137" lon="5.4413127"><ele>541.0</ele><time>2026-05-01T12:37:42.379Z</time></trkpt><trkpt lat="44.621254" lon="5.4411583"><ele>540.0</ele><time>2026-05-01T12:37:43.38Z</time></trkpt><trkpt lat="44.6213908" lon="5.4410095"><ele>539.0</ele><time>2026-05-01T12:37:44.38Z</time></trkpt><trkpt lat="44.6215434" lon="5.4408465"><ele>539.0</ele><time>2026-05-01T12:37:45.379Z</time></trkpt><trkpt lat="44.6217024" lon="5.4406781"><ele>539.0</ele><time>2026-05-01T12:37:46.379Z</time></trkpt><trkpt lat="44.6218611" lon="5.4405138"><ele>539.0</ele><time>2026-05-01T12:37:47.38Z</time></trkpt><trkpt lat="44.6220199" lon="5.4403452"><ele>539.6666666666666</ele><time>2026-05-01T12:37:48.379Z</time></trkpt><trkpt lat="44.6221709" lon="5.4401822"><ele>540.3333333333334</ele><time>2026-05-01T12:37:49.379Z</time></trkpt><trkpt lat="44.6223137" lon="5.440027"><ele>541.0</ele><time>2026-05-01T12:37:50.379Z</time></trkpt><trkpt lat="44.6224457" lon="5.4398831"><ele>541.0</ele><time>2026-05-01T12:37:51.38Z</time></trkpt><trkpt lat="44.6225637" lon="5.4397608"><ele>541.0</ele><time>2026-05-01T12:37:52.38Z</time></trkpt><trkpt lat="44.6226609" lon="5.4396607"><ele>541.0</ele><time>2026-05-01T12:37:53.379Z</time></trkpt><trkpt lat="44.6227321" lon="5.4395796"><ele>541.0</ele><time>2026-05-01T12:37:54.379Z</time></trkpt><trkpt lat="44.6227724" lon="5.4395056"><ele>541.0</ele><time>2026-05-01T12:37:55.379Z</time></trkpt><trkpt lat="44.622755" lon="5.4393768"><ele>541.1666666666667</ele><time>2026-05-01T12:37:57.379Z</time></trkpt><trkpt lat="44.6226595" lon="5.4392906"><ele>541.3333333333334</ele><time>2026-05-01T12:37:59.379Z</time></trkpt><trkpt lat="44.6225991" lon="5.4392527"><ele>541.5</ele><time>2026-05-01T12:38:00.379Z</time></trkpt><trkpt lat="44.6225339" lon="5.4392031"><ele>541.6666666666666</ele><time>2026-05-01T12:38:01.38Z</time></trkpt><trkpt lat="44.6224625" lon="5.4391556"><ele>541.8333333333333</ele><time>2026-05-01T12:38:02.38Z</time></trkpt><trkpt lat="44.6223944" lon="5.4391144"><ele>542.0</ele><time>2026-05-01T12:38:03.379Z</time></trkpt><trkpt lat="44.6223316" lon="5.439073"><ele>542.0</ele><time>2026-05-01T12:38:04.379Z</time></trkpt><trkpt lat="44.6222532" lon="5.4390251"><ele>542.0</ele><time>2026-05-01T12:38:05.379Z</time></trkpt><trkpt lat="44.622164" lon="5.4389639"><ele>542.0</ele><time>2026-05-01T12:38:06.379Z</time></trkpt><trkpt lat="44.6220696" lon="5.4388861"><ele>542.0</ele><time>2026-05-01T12:38:07.379Z</time></trkpt><trkpt lat="44.6219614" lon="5.4388025"><ele>542.0</ele><time>2026-05-01T12:38:08.379Z</time></trkpt><trkpt lat="44.62184" lon="5.4387131"><ele>543.3333333333333</ele><time>2026-05-01T12:38:09.379Z</time></trkpt><trkpt lat="44.6217066" lon="5.4386159"><ele>544.6666666666666</ele><time>2026-05-01T12:38:10.379Z</time></trkpt><trkpt lat="44.6215638" lon="5.4385103"><ele>546.0</ele><time>2026-05-01T12:38:11.38Z</time></trkpt><trkpt lat="44.6214256" lon="5.4384073"><ele>546.0</ele><time>2026-05-01T12:38:12.38Z</time></trkpt><trkpt lat="44.6212793" lon="5.4383026"><ele>546.0</ele><time>2026-05-01T12:38:13.379Z</time></trkpt><trkpt lat="44.6211314" lon="5.4381996"><ele>546.0</ele><time>2026-05-01T12:38:14.38Z</time></trkpt><trkpt lat="44.6209779" lon="5.4380932"><ele>546.3333333333334</ele><time>2026-05-01T12:38:15.379Z</time></trkpt><trkpt lat="44.620819" lon="5.4379804"><ele>546.6666666666667</ele><time>2026-05-01T12:38:16.379Z</time></trkpt><trkpt lat="44.6206544" lon="5.4378636"><ele>547.0</ele><time>2026-05-01T12:38:17.379Z</time></trkpt><trkpt lat="44.6204839" lon="5.4377416"><ele>548.3333333333334</ele><time>2026-05-01T12:38:18.379Z</time></trkpt><trkpt lat="44.6203067" lon="5.4376172"><ele>549.6666666666666</ele><time>2026-05-01T12:38:19.379Z</time></trkpt><trkpt lat="44.6201242" lon="5.4374889"><ele>551.0</ele><time>2026-05-01T12:38:20.379Z</time></trkpt><trkpt lat="44.6199368" lon="5.4373555"><ele>551.0</ele><time>2026-05-01T12:38:21.379Z</time></trkpt><trkpt lat="44.6197451" lon="5.4372186"><ele>551.0</ele><time>2026-05-01T12:38:22.38Z</time></trkpt><trkpt lat="44.6195476" lon="5.437078"><ele>551.0</ele><time>2026-05-01T12:38:23.379Z</time></trkpt><trkpt lat="44.6193561" lon="5.4369415"><ele>551.6666666666666</ele><time>2026-05-01T12:38:24.379Z</time></trkpt><trkpt lat="44.6191605" lon="5.436803"><ele>552.3333333333334</ele><time>2026-05-01T12:38:25.379Z</time></trkpt><trkpt lat="44.6189669" lon="5.4366641"><ele>553.0</ele><time>2026-05-01T12:38:26.379Z</time></trkpt><trkpt lat="44.6187728" lon="5.4365248"><ele>553.0</ele><time>2026-05-01T12:38:27.38Z</time></trkpt><trkpt lat="44.6185781" lon="5.4363845"><ele>553.0</ele><time>2026-05-01T12:38:28.379Z</time></trkpt><trkpt lat="44.6183838" lon="5.4362442"><ele>553.0</ele><time>2026-05-01T12:38:29.379Z</time></trkpt><trkpt lat="44.6181873" lon="5.4361086"><ele>554.6666666666667</ele><time>2026-05-01T12:38:30.379Z</time></trkpt><trkpt lat="44.6179885" lon="5.4359769"><ele>556.3333333333334</ele><time>2026-05-01T12:38:31.379Z</time></trkpt><trkpt lat="44.6177874" lon="5.4358429"><ele>558.0</ele><time>2026-05-01T12:38:32.379Z</time></trkpt><trkpt lat="44.6175908" lon="5.4357097"><ele>558.0</ele><time>2026-05-01T12:38:33.379Z</time></trkpt><trkpt lat="44.6173979" lon="5.4355762"><ele>558.0</ele><time>2026-05-01T12:38:34.38Z</time></trkpt><trkpt lat="44.6172034" lon="5.4354405"><ele>558.0</ele><time>2026-05-01T12:38:35.379Z</time></trkpt><trkpt lat="44.6170058" lon="5.4353023"><ele>560.0</ele><time>2026-05-01T12:38:36.379Z</time></trkpt><trkpt lat="44.6168051" lon="5.4351579"><ele>562.0</ele><time>2026-05-01T12:38:37.379Z</time></trkpt><trkpt lat="44.6166016" lon="5.4350126"><ele>562.0</ele><time>2026-05-01T12:38:38.379Z</time></trkpt><trkpt lat="44.6163966" lon="5.434864"><ele>562.0</ele><time>2026-05-01T12:38:39.379Z</time></trkpt><trkpt lat="44.6161916" lon="5.4347138"><ele>562.3333333333334</ele><time>2026-05-01T12:38:40.379Z</time></trkpt><trkpt lat="44.6159916" lon="5.4345667"><ele>562.6666666666666</ele><time>2026-05-01T12:38:41.379Z</time></trkpt><trkpt lat="44.6158022" lon="5.4344269"><ele>563.0</ele><time>2026-05-01T12:38:42.379Z</time></trkpt><trkpt lat="44.6156184" lon="5.4342965"><ele>563.0</ele><time>2026-05-01T12:38:43.379Z</time></trkpt><trkpt lat="44.615436" lon="5.4341647"><ele>563.0</ele><time>2026-05-01T12:38:44.379Z</time></trkpt><trkpt lat="44.6152578" lon="5.4340347"><ele>563.0</ele><time>2026-05-01T12:38:45.38Z</time></trkpt><trkpt lat="44.615081" lon="5.4339073"><ele>563.6666666666666</ele><time>2026-05-01T12:38:46.379Z</time></trkpt><trkpt lat="44.6149007" lon="5.4337777"><ele>564.3333333333334</ele><time>2026-05-01T12:38:47.381Z</time></trkpt><trkpt lat="44.6147179" lon="5.4336474"><ele>565.0</ele><time>2026-05-01T12:38:48.379Z</time></trkpt><trkpt lat="44.6145326" lon="5.4335109"><ele>564.6666666666667</ele><time>2026-05-01T12:38:49.379Z</time></trkpt><trkpt lat="44.6143485" lon="5.4333633"><ele>564.3333333333334</ele><time>2026-05-01T12:38:50.379Z</time></trkpt><trkpt lat="44.6141682" lon="5.4331945"><ele>564.0</ele><time>2026-05-01T12:38:51.38Z</time></trkpt><trkpt lat="44.6139934" lon="5.4330073"><ele>565.0</ele><time>2026-05-01T12:38:52.379Z</time></trkpt><trkpt lat="44.6138186" lon="5.4328129"><ele>566.0</ele><time>2026-05-01T12:38:53.379Z</time></trkpt><trkpt lat="44.6136422" lon="5.4326149"><ele>567.0</ele><time>2026-05-01T12:38:54.379Z</time></trkpt><trkpt lat="44.6134657" lon="5.4324172"><ele>567.5</ele><time>2026-05-01T12:38:55.38Z</time></trkpt><trkpt lat="44.6132897" lon="5.43222"><ele>568.0</ele><time>2026-05-01T12:38:56.379Z</time></trkpt><trkpt lat="44.6131137" lon="5.4320227"><ele>568.6666666666667</ele><time>2026-05-01T12:38:57.379Z</time></trkpt><trkpt lat="44.6129379" lon="5.4318256"><ele>569.3333333333334</ele><time>2026-05-01T12:38:58.379Z</time></trkpt><trkpt lat="44.6127623" lon="5.4316309"><ele>570.0</ele><time>2026-05-01T12:38:59.38Z</time></trkpt><trkpt lat="44.6125861" lon="5.4314405"><ele>570.3333333333334</ele><time>2026-05-01T12:39:00.379Z</time></trkpt><trkpt lat="44.612406" lon="5.4312553"><ele>570.6666666666667</ele><time>2026-05-01T12:39:01.38Z</time></trkpt><trkpt lat="44.6122206" lon="5.4310749"><ele>571.0</ele><time>2026-05-01T12:39:02.379Z</time></trkpt><trkpt lat="44.6120278" lon="5.4309006"><ele>572.5</ele><time>2026-05-01T12:39:03.379Z</time></trkpt><trkpt lat="44.6118266" lon="5.4307337"><ele>574.0</ele><time>2026-05-01T12:39:04.38Z</time></trkpt><trkpt lat="44.6116211" lon="5.4305658"><ele>575.0</ele><time>2026-05-01T12:39:05.379Z</time></trkpt><trkpt lat="44.6114139" lon="5.4303958"><ele>576.0</ele><time>2026-05-01T12:39:06.379Z</time></trkpt><trkpt lat="44.6112069" lon="5.4302275"><ele>577.5</ele><time>2026-05-01T12:39:07.379Z</time></trkpt><trkpt lat="44.6109986" lon="5.4300597"><ele>579.0</ele><time>2026-05-01T12:39:08.379Z</time></trkpt><trkpt lat="44.6107896" lon="5.4298933"><ele>579.0</ele><time>2026-05-01T12:39:09.38Z</time></trkpt><trkpt lat="44.6105785" lon="5.4297271"><ele>579.0</ele><time>2026-05-01T12:39:10.379Z</time></trkpt><trkpt lat="44.6103668" lon="5.4295584"><ele>579.5</ele><time>2026-05-01T12:39:11.379Z</time></trkpt><trkpt lat="44.6101555" lon="5.4293879"><ele>580.0</ele><time>2026-05-01T12:39:12.38Z</time></trkpt><trkpt lat="44.6099446" lon="5.4292177"><ele>580.0</ele><time>2026-05-01T12:39:13.379Z</time></trkpt><trkpt lat="44.6097321" lon="5.4290448"><ele>580.0</ele><time>2026-05-01T12:39:14.38Z</time></trkpt><trkpt lat="44.6095185" lon="5.4288686"><ele>582.5</ele><time>2026-05-01T12:39:15.379Z</time></trkpt><trkpt lat="44.6093039" lon="5.428693"><ele>585.0</ele><time>2026-05-01T12:39:16.379Z</time></trkpt><trkpt lat="44.6090872" lon="5.4285158"><ele>585.0</ele><time>2026-05-01T12:39:17.379Z</time></trkpt><trkpt lat="44.6088734" lon="5.4283408"><ele>585.0</ele><time>2026-05-01T12:39:18.379Z</time></trkpt><trkpt lat="44.6086553" lon="5.4281633"><ele>586.5</ele><time>2026-05-01T12:39:19.379Z</time></trkpt><trkpt lat="44.608436" lon="5.4279799"><ele>588.0</ele><time>2026-05-01T12:39:20.379Z</time></trkpt><trkpt lat="44.6082181" lon="5.4277839"><ele>588.0</ele><time>2026-05-01T12:39:21.379Z</time></trkpt><trkpt lat="44.6080033" lon="5.427577"><ele>588.0</ele><time>2026-05-01T12:39:22.38Z</time></trkpt><trkpt lat="44.6077929" lon="5.4273707"><ele>589.5</ele><time>2026-05-01T12:39:23.379Z</time></trkpt><trkpt lat="44.6075921" lon="5.4271743"><ele>591.0</ele><time>2026-05-01T12:39:24.379Z</time></trkpt><trkpt lat="44.6073922" lon="5.4269815"><ele>592.0</ele><time>2026-05-01T12:39:25.379Z</time></trkpt><trkpt lat="44.6071966" lon="5.4267873"><ele>593.0</ele><time>2026-05-01T12:39:26.379Z</time></trkpt><trkpt lat="44.6070084" lon="5.4265788"><ele>593.5</ele><time>2026-05-01T12:39:27.379Z</time></trkpt><trkpt lat="44.6068298" lon="5.4263501"><ele>594.0</ele><time>2026-05-01T12:39:28.379Z</time></trkpt><trkpt lat="44.606662" lon="5.4261019"><ele>597.0</ele><time>2026-05-01T12:39:29.38Z</time></trkpt><trkpt lat="44.6065069" lon="5.4258357"><ele>600.0</ele><time>2026-05-01T12:39:30.379Z</time></trkpt><trkpt lat="44.6063695" lon="5.4255538"><ele>598.5</ele><time>2026-05-01T12:39:31.379Z</time></trkpt><trkpt lat="44.6062491" lon="5.4252627"><ele>597.0</ele><time>2026-05-01T12:39:32.379Z</time></trkpt><trkpt lat="44.6061427" lon="5.4249719"><ele>597.0</ele><time>2026-05-01T12:39:33.379Z</time></trkpt><trkpt lat="44.6060388" lon="5.4246902"><ele>597.0</ele><time>2026-05-01T12:39:34.379Z</time></trkpt><trkpt lat="44.6059219" lon="5.4244197"><ele>600.5</ele><time>2026-05-01T12:39:35.379Z</time></trkpt><trkpt lat="44.6057818" lon="5.4241628"><ele>604.0</ele><time>2026-05-01T12:39:36.379Z</time></trkpt><trkpt lat="44.6056174" lon="5.4239198"><ele>604.5</ele><time>2026-05-01T12:39:37.381Z</time></trkpt><trkpt lat="44.6054424" lon="5.423692"><ele>605.0</ele><time>2026-05-01T12:39:38.379Z</time></trkpt><trkpt lat="44.6052687" lon="5.4234682"><ele>605.0</ele><time>2026-05-01T12:39:39.379Z</time></trkpt><trkpt lat="44.6051057" lon="5.4232467"><ele>605.0</ele><time>2026-05-01T12:39:40.379Z</time></trkpt><trkpt lat="44.6049369" lon="5.423036"><ele>613.5</ele><time>2026-05-01T12:39:41.38Z</time></trkpt><trkpt lat="44.6047494" lon="5.4228537"><ele>622.0</ele><time>2026-05-01T12:39:42.379Z</time></trkpt><trkpt lat="44.6045489" lon="5.4226813"><ele>614.5</ele><time>2026-05-01T12:39:43.38Z</time></trkpt><trkpt lat="44.6043478" lon="5.4225252"><ele>607.0</ele><time>2026-05-01T12:39:44.379Z</time></trkpt><trkpt lat="44.6041471" lon="5.4223926"><ele>607.0</ele><time>2026-05-01T12:39:45.379Z</time></trkpt><trkpt lat="44.603935" lon="5.4222877"><ele>607.0</ele><time>2026-05-01T12:39:46.379Z</time></trkpt><trkpt lat="44.6037105" lon="5.4222124"><ele>606.5</ele><time>2026-05-01T12:39:47.379Z</time></trkpt><trkpt lat="44.6034741" lon="5.4221672"><ele>606.0</ele><time>2026-05-01T12:39:48.379Z</time></trkpt><trkpt lat="44.6032277" lon="5.4221557"><ele>606.0</ele><time>2026-05-01T12:39:49.379Z</time></trkpt><trkpt lat="44.6029707" lon="5.4221714"><ele>606.0</ele><time>2026-05-01T12:39:50.379Z</time></trkpt><trkpt lat="44.6027093" lon="5.4221997"><ele>607.5</ele><time>2026-05-01T12:39:51.379Z</time></trkpt><trkpt lat="44.6024467" lon="5.4222258"><ele>609.0</ele><time>2026-05-01T12:39:52.38Z</time></trkpt><trkpt lat="44.6021797" lon="5.4222381"><ele>611.0</ele><time>2026-05-01T12:39:53.381Z</time></trkpt><trkpt lat="44.6019152" lon="5.42222"><ele>613.0</ele><time>2026-05-01T12:39:54.379Z</time></trkpt><trkpt lat="44.6016612" lon="5.4221727"><ele>613.0</ele><time>2026-05-01T12:39:55.379Z</time></trkpt><trkpt lat="44.6014128" lon="5.42211"><ele>613.0</ele><time>2026-05-01T12:39:56.379Z</time></trkpt><trkpt lat="44.601165" lon="5.4220446"><ele>614.5</ele><time>2026-05-01T12:39:57.38Z</time></trkpt><trkpt lat="44.6009209" lon="5.4219797"><ele>616.0</ele><time>2026-05-01T12:39:58.38Z</time></trkpt><trkpt lat="44.6006771" lon="5.4219199"><ele>616.0</ele><time>2026-05-01T12:39:59.379Z</time></trkpt><trkpt lat="44.6004367" lon="5.4218573"><ele>616.0</ele><time>2026-05-01T12:40:00.379Z</time></trkpt><trkpt lat="44.6001996" lon="5.4217855"><ele>618.5</ele><time>2026-05-01T12:40:01.379Z</time></trkpt><trkpt lat="44.5999662" lon="5.4217094"><ele>621.0</ele><time>2026-05-01T12:40:02.379Z</time></trkpt><trkpt lat="44.5997361" lon="5.4216288"><ele>621.0</ele><time>2026-05-01T12:40:03.379Z</time></trkpt><trkpt lat="44.5995079" lon="5.4215476"><ele>621.0</ele><time>2026-05-01T12:40:04.38Z</time></trkpt><trkpt lat="44.5992792" lon="5.4214688"><ele>622.5</ele><time>2026-05-01T12:40:05.379Z</time></trkpt><trkpt lat="44.5990493" lon="5.4213973"><ele>624.0</ele><time>2026-05-01T12:40:06.379Z</time></trkpt><trkpt lat="44.5988182" lon="5.4213313"><ele>626.0</ele><time>2026-05-01T12:40:07.38Z</time></trkpt><trkpt lat="44.5985867" lon="5.4212723"><ele>628.0</ele><time>2026-05-01T12:40:08.379Z</time></trkpt><trkpt lat="44.5983511" lon="5.4212267"><ele>628.0</ele><time>2026-05-01T12:40:09.38Z</time></trkpt><trkpt lat="44.5981148" lon="5.421192"><ele>628.0</ele><time>2026-05-01T12:40:10.379Z</time></trkpt><trkpt lat="44.597877" lon="5.4211626"><ele>629.0</ele><time>2026-05-01T12:40:11.38Z</time></trkpt><trkpt lat="44.5976348" lon="5.421129"><ele>630.0</ele><time>2026-05-01T12:40:12.379Z</time></trkpt><trkpt lat="44.5973877" lon="5.4210843"><ele>630.0</ele><time>2026-05-01T12:40:13.379Z</time></trkpt><trkpt lat="44.597137" lon="5.4210258"><ele>630.0</ele><time>2026-05-01T12:40:14.379Z</time></trkpt><trkpt lat="44.596883" lon="5.4209592"><ele>632.0</ele><time>2026-05-01T12:40:15.379Z</time></trkpt><trkpt lat="44.5966286" lon="5.4208785"><ele>634.0</ele><time>2026-05-01T12:40:16.379Z</time></trkpt><trkpt lat="44.596379" lon="5.4207694"><ele>637.5</ele><time>2026-05-01T12:40:17.379Z</time></trkpt><trkpt lat="44.5961442" lon="5.4206231"><ele>641.0</ele><time>2026-05-01T12:40:18.381Z</time></trkpt><trkpt lat="44.5959282" lon="5.4204406"><ele>641.0</ele><time>2026-05-01T12:40:19.379Z</time></trkpt><trkpt lat="44.59573" lon="5.4202323"><ele>641.0</ele><time>2026-05-01T12:40:20.379Z</time></trkpt><trkpt lat="44.595542" lon="5.4200233"><ele>641.0</ele><time>2026-05-01T12:40:21.379Z</time></trkpt><trkpt lat="44.595362" lon="5.4198301"><ele>641.0</ele><time>2026-05-01T12:40:22.379Z</time></trkpt><trkpt lat="44.5951795" lon="5.4196554"><ele>641.0</ele><time>2026-05-01T12:40:23.38Z</time></trkpt><trkpt lat="44.5949938" lon="5.4194986"><ele>643.0</ele><time>2026-05-01T12:40:24.379Z</time></trkpt><trkpt lat="44.5948113" lon="5.4193658"><ele>645.0</ele><time>2026-05-01T12:40:25.379Z</time></trkpt><trkpt lat="44.5946349" lon="5.4192512"><ele>647.0</ele><time>2026-05-01T12:40:26.379Z</time></trkpt><trkpt lat="44.5944657" lon="5.419151"><ele>648.3333333333333</ele><time>2026-05-01T12:40:27.38Z</time></trkpt><trkpt lat="44.5943051" lon="5.4190596"><ele>649.6666666666666</ele><time>2026-05-01T12:40:28.379Z</time></trkpt><trkpt lat="44.5941537" lon="5.418975"><ele>651.0</ele><time>2026-05-01T12:40:29.38Z</time></trkpt><trkpt lat="44.5940099" lon="5.4188983"><ele>651.0</ele><time>2026-05-01T12:40:30.379Z</time></trkpt><trkpt lat="44.5938736" lon="5.4188321"><ele>651.0</ele><time>2026-05-01T12:40:31.38Z</time></trkpt><trkpt lat="44.5937443" lon="5.4187686"><ele>651.0</ele><time>2026-05-01T12:40:32.379Z</time></trkpt><trkpt lat="44.5936169" lon="5.4187013"><ele>651.0</ele><time>2026-05-01T12:40:33.38Z</time></trkpt><trkpt lat="44.5934998" lon="5.4186391"><ele>653.0</ele><time>2026-05-01T12:40:34.379Z</time></trkpt><trkpt lat="44.593391" lon="5.4185829"><ele>655.0</ele><time>2026-05-01T12:40:35.379Z</time></trkpt><trkpt lat="44.5932853" lon="5.4185265"><ele>657.0</ele><time>2026-05-01T12:40:36.379Z</time></trkpt><trkpt lat="44.59318" lon="5.41847"><ele>659.0</ele><time>2026-05-01T12:40:37.38Z</time></trkpt><trkpt lat="44.5930748" lon="5.4184131"><ele>659.0</ele><time>2026-05-01T12:40:38.379Z</time></trkpt><trkpt lat="44.5929714" lon="5.418358"><ele>659.0</ele><time>2026-05-01T12:40:39.379Z</time></trkpt><trkpt lat="44.5928699" lon="5.4183031"><ele>659.0</ele><time>2026-05-01T12:40:40.379Z</time></trkpt><trkpt lat="44.5927691" lon="5.4182499"><ele>659.0</ele><time>2026-05-01T12:40:41.379Z</time></trkpt><trkpt lat="44.5926688" lon="5.418199"><ele>659.0</ele><time>2026-05-01T12:40:42.379Z</time></trkpt><trkpt lat="44.5925637" lon="5.4181418"><ele>659.25</ele><time>2026-05-01T12:40:43.378Z</time></trkpt><trkpt lat="44.5924577" lon="5.4180805"><ele>659.5</ele><time>2026-05-01T12:40:44.378Z</time></trkpt><trkpt lat="44.5923545" lon="5.4180094"><ele>659.75</ele><time>2026-05-01T12:40:45.378Z</time></trkpt><trkpt lat="44.5922572" lon="5.4179289"><ele>660.0</ele><time>2026-05-01T12:40:46.379Z</time></trkpt><trkpt lat="44.5921638" lon="5.4178474"><ele>661.4</ele><time>2026-05-01T12:40:47.378Z</time></trkpt><trkpt lat="44.5920707" lon="5.4177654"><ele>662.8</ele><time>2026-05-01T12:40:48.378Z</time></trkpt><trkpt lat="44.5919774" lon="5.4176774"><ele>664.2</ele><time>2026-05-01T12:40:49.379Z</time></trkpt><trkpt lat="44.591889" lon="5.4175881"><ele>665.6</ele><time>2026-05-01T12:40:50.378Z</time></trkpt><trkpt lat="44.5918005" lon="5.417497"><ele>667.0</ele><time>2026-05-01T12:40:51.379Z</time></trkpt><trkpt lat="44.5917128" lon="5.417407"><ele>667.0</ele><time>2026-05-01T12:40:52.378Z</time></trkpt><trkpt lat="44.5916257" lon="5.4173233"><ele>667.0</ele><time>2026-05-01T12:40:53.378Z</time></trkpt><trkpt lat="44.5915436" lon="5.4172439"><ele>667.0</ele><time>2026-05-01T12:40:54.378Z</time></trkpt><trkpt lat="44.5914651" lon="5.4171694"><ele>667.0</ele><time>2026-05-01T12:40:55.378Z</time></trkpt><trkpt lat="44.5913843" lon="5.4170886"><ele>667.0</ele><time>2026-05-01T12:40:56.378Z</time></trkpt><trkpt lat="44.5912983" lon="5.4170062"><ele>668.75</ele><time>2026-05-01T12:40:57.378Z</time></trkpt><trkpt lat="44.591207" lon="5.4169149"><ele>670.5</ele><time>2026-05-01T12:40:58.378Z</time></trkpt><trkpt lat="44.5911117" lon="5.4168215"><ele>672.25</ele><time>2026-05-01T12:40:59.378Z</time></trkpt><trkpt lat="44.5910124" lon="5.4167272"><ele>674.0</ele><time>2026-05-01T12:41:00.379Z</time></trkpt><trkpt lat="44.5909137" lon="5.4166323"><ele>674.2</ele><time>2026-05-01T12:41:01.378Z</time></trkpt><trkpt lat="44.590819" lon="5.4165441"><ele>674.4000000000001</ele><time>2026-05-01T12:41:02.379Z</time></trkpt><trkpt lat="44.5907317" lon="5.4164652"><ele>674.6</ele><time>2026-05-01T12:41:03.378Z</time></trkpt><trkpt lat="44.5906521" lon="5.4163933"><ele>674.8</ele><time>2026-05-01T12:41:04.378Z</time></trkpt><trkpt lat="44.5905805" lon="5.4163248"><ele>675.0</ele><time>2026-05-01T12:41:05.378Z</time></trkpt><trkpt lat="44.590513" lon="5.4162567"><ele>676.3333333333334</ele><time>2026-05-01T12:41:06.378Z</time></trkpt><trkpt lat="44.5904529" lon="5.4161799"><ele>677.6666666666666</ele><time>2026-05-01T12:41:07.378Z</time></trkpt><trkpt lat="44.5904186" lon="5.416091"><ele>679.0</ele><time>2026-05-01T12:41:08.378Z</time></trkpt><trkpt lat="44.5904162" lon="5.4159956"><ele>680.3333333333333</ele><time>2026-05-01T12:41:09.378Z</time></trkpt><trkpt lat="44.590453" lon="5.4159127"><ele>681.6666666666666</ele><time>2026-05-01T12:41:10.378Z</time></trkpt><trkpt lat="44.5905161" lon="5.4158425"><ele>683.0</ele><time>2026-05-01T12:41:11.378Z</time></trkpt><trkpt lat="44.5906091" lon="5.4157777"><ele>683.0</ele><time>2026-05-01T12:41:12.378Z</time></trkpt><trkpt lat="44.5907241" lon="5.415707"><ele>683.0</ele><time>2026-05-01T12:41:13.378Z</time></trkpt><trkpt lat="44.5908425" lon="5.4156275"><ele>683.0</ele><time>2026-05-01T12:41:14.379Z</time></trkpt><trkpt lat="44.5909465" lon="5.415558"><ele>683.0</ele><time>2026-05-01T12:41:15.378Z</time></trkpt><trkpt lat="44.5910349" lon="5.4154842"><ele>684.6666666666666</ele><time>2026-05-01T12:41:16.378Z</time></trkpt><trkpt lat="44.5910895" lon="5.4153902"><ele>686.3333333333333</ele><time>2026-05-01T12:41:17.379Z</time></trkpt><trkpt lat="44.5911094" lon="5.415289"><ele>688.0</ele><time>2026-05-01T12:41:18.378Z</time></trkpt><trkpt lat="44.5910917" lon="5.4152009"><ele>689.6666666666666</ele><time>2026-05-01T12:41:19.378Z</time></trkpt><trkpt lat="44.5910441" lon="5.4151375"><ele>691.3333333333334</ele><time>2026-05-01T12:41:20.378Z</time></trkpt><trkpt lat="44.5909577" lon="5.4150771"><ele>693.0</ele><time>2026-05-01T12:41:21.378Z</time></trkpt><trkpt lat="44.5908406" lon="5.4150012"><ele>693.0</ele><time>2026-05-01T12:41:22.378Z</time></trkpt><trkpt lat="44.5906951" lon="5.4149034"><ele>693.0</ele><time>2026-05-01T12:41:23.378Z</time></trkpt><trkpt lat="44.5905339" lon="5.4147899"><ele>693.0</ele><time>2026-05-01T12:41:24.378Z</time></trkpt><trkpt lat="44.5903662" lon="5.4146684"><ele>696.3333333333334</ele><time>2026-05-01T12:41:25.378Z</time></trkpt><trkpt lat="44.5902031" lon="5.4145507"><ele>699.6666666666667</ele><time>2026-05-01T12:41:26.378Z</time></trkpt><trkpt lat="44.5900399" lon="5.4144305"><ele>703.0</ele><time>2026-05-01T12:41:27.378Z</time></trkpt><trkpt lat="44.5898685" lon="5.4143225"><ele>703.0</ele><time>2026-05-01T12:41:28.378Z</time></trkpt><trkpt lat="44.5896826" lon="5.4142413"><ele>703.0</ele><time>2026-05-01T12:41:29.378Z</time></trkpt><trkpt lat="44.5894896" lon="5.4141826"><ele>703.0</ele><time>2026-05-01T12:41:30.378Z</time></trkpt><trkpt lat="44.5893067" lon="5.4141292"><ele>701.0</ele><time>2026-05-01T12:41:31.379Z</time></trkpt><trkpt lat="44.5891318" lon="5.4140673"><ele>699.0</ele><time>2026-05-01T12:41:32.379Z</time></trkpt><trkpt lat="44.5889547" lon="5.4139741"><ele>697.0</ele><time>2026-05-01T12:41:33.378Z</time></trkpt><trkpt lat="44.5887797" lon="5.413848"><ele>700.0</ele><time>2026-05-01T12:41:34.378Z</time></trkpt><trkpt lat="44.5886122" lon="5.4136947"><ele>703.0</ele><time>2026-05-01T12:41:35.378Z</time></trkpt><trkpt lat="44.5884508" lon="5.4135458"><ele>706.0</ele><time>2026-05-01T12:41:36.378Z</time></trkpt><trkpt lat="44.5883024" lon="5.41341"><ele>706.0</ele><time>2026-05-01T12:41:37.379Z</time></trkpt><trkpt lat="44.5881646" lon="5.4132837"><ele>706.0</ele><time>2026-05-01T12:41:38.378Z</time></trkpt><trkpt lat="44.5880362" lon="5.4131749"><ele>706.0</ele><time>2026-05-01T12:41:39.378Z</time></trkpt><trkpt lat="44.587922" lon="5.4130856"><ele>706.0</ele><time>2026-05-01T12:41:40.378Z</time></trkpt><trkpt lat="44.5878217" lon="5.4130119"><ele>706.8333333333334</ele><time>2026-05-01T12:41:41.379Z</time></trkpt><trkpt lat="44.5877406" lon="5.4129453"><ele>707.6666666666667</ele><time>2026-05-01T12:41:42.378Z</time></trkpt><trkpt lat="44.5876862" lon="5.4128679"><ele>708.5</ele><time>2026-05-01T12:41:43.378Z</time></trkpt><trkpt lat="44.5876694" lon="5.4127818"><ele>709.3333333333334</ele><time>2026-05-01T12:41:44.378Z</time></trkpt><trkpt lat="44.5877373" lon="5.4126493"><ele>710.1666666666666</ele><time>2026-05-01T12:41:46.379Z</time></trkpt><trkpt lat="44.587808" lon="5.4126222"><ele>711.0</ele><time>2026-05-01T12:41:47.378Z</time></trkpt><trkpt lat="44.5878998" lon="5.4126142"><ele>712.25</ele><time>2026-05-01T12:41:48.378Z</time></trkpt><trkpt lat="44.588004" lon="5.4125792"><ele>713.5</ele><time>2026-05-01T12:41:49.378Z</time></trkpt><trkpt lat="44.5881142" lon="5.4125027"><ele>714.75</ele><time>2026-05-01T12:41:50.378Z</time></trkpt><trkpt lat="44.5882239" lon="5.4124158"><ele>716.0</ele><time>2026-05-01T12:41:51.379Z</time></trkpt><trkpt lat="44.5883429" lon="5.4123643"><ele>716.0</ele><time>2026-05-01T12:41:52.378Z</time></trkpt><trkpt lat="44.5884632" lon="5.4123654"><ele>716.0</ele><time>2026-05-01T12:41:53.378Z</time></trkpt><trkpt lat="44.5885756" lon="5.4124077"><ele>716.0</ele><time>2026-05-01T12:41:54.378Z</time></trkpt><trkpt lat="44.5886643" lon="5.412487"><ele>716.0</ele><time>2026-05-01T12:41:55.378Z</time></trkpt><trkpt lat="44.5887391" lon="5.4125617"><ele>716.0</ele><time>2026-05-01T12:41:56.378Z</time></trkpt><trkpt lat="44.5888071" lon="5.4126012"><ele>719.4</ele><time>2026-05-01T12:41:57.378Z</time></trkpt><trkpt lat="44.5889058" lon="5.4125435"><ele>722.8</ele><time>2026-05-01T12:41:59.378Z</time></trkpt><trkpt lat="44.5888781" lon="5.4124089"><ele>726.1999999999999</ele><time>2026-05-01T12:42:01.378Z</time></trkpt><trkpt lat="44.5888073" lon="5.4123414"><ele>729.5999999999999</ele><time>2026-05-01T12:42:02.378Z</time></trkpt><trkpt lat="44.5887119" lon="5.4122605"><ele>733.0</ele><time>2026-05-01T12:42:03.378Z</time></trkpt><trkpt lat="44.5886061" lon="5.412137"><ele>733.0</ele><time>2026-05-01T12:42:04.378Z</time></trkpt><trkpt lat="44.5884935" lon="5.4119695"><ele>733.0</ele><time>2026-05-01T12:42:05.378Z</time></trkpt><trkpt lat="44.5883764" lon="5.4117794"><ele>733.0</ele><time>2026-05-01T12:42:06.378Z</time></trkpt><trkpt lat="44.5882669" lon="5.411599"><ele>733.0</ele><time>2026-05-01T12:42:07.378Z</time></trkpt><trkpt lat="44.5881375" lon="5.4114179"><ele>733.0</ele><time>2026-05-01T12:42:08.378Z</time></trkpt><trkpt lat="44.5879797" lon="5.4112589"><ele>733.0</ele><time>2026-05-01T12:42:09.378Z</time></trkpt><trkpt lat="44.5877966" lon="5.4111026"><ele>735.0</ele><time>2026-05-01T12:42:10.378Z</time></trkpt><trkpt lat="44.5876068" lon="5.4109126"><ele>737.0</ele><time>2026-05-01T12:42:11.378Z</time></trkpt><trkpt lat="44.5874191" lon="5.4107086"><ele>737.0</ele><time>2026-05-01T12:42:12.378Z</time></trkpt><trkpt lat="44.587241" lon="5.4105236"><ele>737.0</ele><time>2026-05-01T12:42:13.379Z</time></trkpt><trkpt lat="44.5870762" lon="5.410351"><ele>737.0</ele><time>2026-05-01T12:42:14.378Z</time></trkpt><trkpt lat="44.5869323" lon="5.4101873"><ele>737.25</ele><time>2026-05-01T12:42:15.379Z</time></trkpt><trkpt lat="44.5868082" lon="5.4100487"><ele>737.5</ele><time>2026-05-01T12:42:16.379Z</time></trkpt><trkpt lat="44.5867082" lon="5.4099415"><ele>737.75</ele><time>2026-05-01T12:42:17.379Z</time></trkpt><trkpt lat="44.586644" lon="5.4098529"><ele>738.0</ele><time>2026-05-01T12:42:18.378Z</time></trkpt><trkpt lat="44.5866299" lon="5.4096883"><ele>738.0</ele><time>2026-05-01T12:42:20.378Z</time></trkpt><trkpt lat="44.5867286" lon="5.4096144"><ele>738.0</ele><time>2026-05-01T12:42:22.378Z</time></trkpt><trkpt lat="44.5867891" lon="5.4096453"><ele>738.0</ele><time>2026-05-01T12:42:23.378Z</time></trkpt><trkpt lat="44.5868478" lon="5.4097134"><ele>738.0</ele><time>2026-05-01T12:42:24.38Z</time></trkpt><trkpt lat="44.5868945" lon="5.4097984"><ele>738.0</ele><time>2026-05-01T12:42:25.378Z</time></trkpt><trkpt lat="44.5869415" lon="5.4098782"><ele>738.0</ele><time>2026-05-01T12:42:26.378Z</time></trkpt><trkpt lat="44.5869984" lon="5.4099469"><ele>741.4</ele><time>2026-05-01T12:42:27.378Z</time></trkpt><trkpt lat="44.5870623" lon="5.4099738"><ele>744.8</ele><time>2026-05-01T12:42:28.379Z</time></trkpt><trkpt lat="44.5871508" lon="5.4098906"><ele>748.2</ele><time>2026-05-01T12:42:30.379Z</time></trkpt><trkpt lat="44.5871186" lon="5.4097578"><ele>751.6</ele><time>2026-05-01T12:42:32.378Z</time></trkpt><trkpt lat="44.5870423" lon="5.4096706"><ele>755.0</ele><time>2026-05-01T12:42:33.378Z</time></trkpt><trkpt lat="44.5869448" lon="5.4095434"><ele>755.0</ele><time>2026-05-01T12:42:34.378Z</time></trkpt><trkpt lat="44.5868459" lon="5.4093666"><ele>755.0</ele><time>2026-05-01T12:42:35.378Z</time></trkpt><trkpt lat="44.5867393" lon="5.4091508"><ele>755.0</ele><time>2026-05-01T12:42:36.378Z</time></trkpt><trkpt lat="44.5866332" lon="5.4089364"><ele>761.3333333333333</ele><time>2026-05-01T12:42:37.378Z</time></trkpt><trkpt lat="44.5865223" lon="5.4087242"><ele>767.6666666666666</ele><time>2026-05-01T12:42:38.379Z</time></trkpt><trkpt lat="44.5864058" lon="5.4085161"><ele>774.0</ele><time>2026-05-01T12:42:39.378Z</time></trkpt><trkpt lat="44.5863016" lon="5.4083056"><ele>774.0</ele><time>2026-05-01T12:42:40.378Z</time></trkpt><trkpt lat="44.5862048" lon="5.4081025"><ele>774.0</ele><time>2026-05-01T12:42:41.378Z</time></trkpt><trkpt lat="44.5861097" lon="5.4079183"><ele>774.0</ele><time>2026-05-01T12:42:42.379Z</time></trkpt><trkpt lat="44.5860168" lon="5.4077506"><ele>771.8000000000001</ele><time>2026-05-01T12:42:43.378Z</time></trkpt><trkpt lat="44.5859569" lon="5.4075959"><ele>769.6</ele><time>2026-05-01T12:42:44.378Z</time></trkpt><trkpt lat="44.5859019" lon="5.4074779"><ele>767.4</ele><time>2026-05-01T12:42:45.378Z</time></trkpt><trkpt lat="44.5858303" lon="5.4073998"><ele>765.2</ele><time>2026-05-01T12:42:46.378Z</time></trkpt><trkpt lat="44.5857431" lon="5.4073671"><ele>763.0</ele><time>2026-05-01T12:42:47.378Z</time></trkpt><trkpt lat="44.5856382" lon="5.4073636"><ele>763.0</ele><time>2026-05-01T12:42:48.378Z</time></trkpt><trkpt lat="44.5855222" lon="5.4073474"><ele>763.0</ele><time>2026-05-01T12:42:49.378Z</time></trkpt><trkpt lat="44.5854176" lon="5.4072845"><ele>763.0</ele><time>2026-05-01T12:42:50.379Z</time></trkpt><trkpt lat="44.5853438" lon="5.4071896"><ele>763.0</ele><time>2026-05-01T12:42:51.378Z</time></trkpt><trkpt lat="44.5853128" lon="5.4070683"><ele>763.0</ele><time>2026-05-01T12:42:52.378Z</time></trkpt><trkpt lat="44.585318" lon="5.4069217"><ele>765.0</ele><time>2026-05-01T12:42:53.378Z</time></trkpt><trkpt lat="44.5853554" lon="5.4067537"><ele>767.0</ele><time>2026-05-01T12:42:54.379Z</time></trkpt><trkpt lat="44.5854106" lon="5.406568"><ele>769.0</ele><time>2026-05-01T12:42:55.378Z</time></trkpt><trkpt lat="44.585466" lon="5.4063994"><ele>771.0</ele><time>2026-05-01T12:42:56.378Z</time></trkpt><trkpt lat="44.5855213" lon="5.40625"><ele>772.0</ele><time>2026-05-01T12:42:57.378Z</time></trkpt><trkpt lat="44.5855542" lon="5.4061292"><ele>773.0</ele><time>2026-05-01T12:42:58.378Z</time></trkpt><trkpt lat="44.5855535" lon="5.4060219"><ele>774.0</ele><time>2026-05-01T12:42:59.378Z</time></trkpt><trkpt lat="44.5855217" lon="5.4059446"><ele>775.0</ele><time>2026-05-01T12:43:00.379Z</time></trkpt><trkpt lat="44.5854154" lon="5.4059314"><ele>776.0</ele><time>2026-05-01T12:43:02.378Z</time></trkpt><trkpt lat="44.5853519" lon="5.4060146"><ele>777.0</ele><time>2026-05-01T12:43:03.378Z</time></trkpt><trkpt lat="44.5852876" lon="5.4061499"><ele>777.0</ele><time>2026-05-01T12:43:04.378Z</time></trkpt><trkpt lat="44.5852387" lon="5.406298"><ele>777.0</ele><time>2026-05-01T12:43:05.378Z</time></trkpt><trkpt lat="44.5852026" lon="5.4064302"><ele>777.0</ele><time>2026-05-01T12:43:06.378Z</time></trkpt><trkpt lat="44.5851578" lon="5.4065372"><ele>777.0</ele><time>2026-05-01T12:43:07.378Z</time></trkpt><trkpt lat="44.5850898" lon="5.4065844"><ele>777.0</ele><time>2026-05-01T12:43:08.378Z</time></trkpt><trkpt lat="44.5849932" lon="5.4065155"><ele>777.0</ele><time>2026-05-01T12:43:10.378Z</time></trkpt><trkpt lat="44.5850067" lon="5.4063308"><ele>777.0</ele><time>2026-05-01T12:43:12.378Z</time></trkpt><trkpt lat="44.5850356" lon="5.40621"><ele>777.0</ele><time>2026-05-01T12:43:13.378Z</time></trkpt><trkpt lat="44.5850577" lon="5.406074"><ele>777.0</ele><time>2026-05-01T12:43:14.378Z</time></trkpt><trkpt lat="44.5850813" lon="5.4059294"><ele>777.0</ele><time>2026-05-01T12:43:15.378Z</time></trkpt><trkpt lat="44.5851045" lon="5.4057855"><ele>777.0</ele><time>2026-05-01T12:43:16.379Z</time></trkpt><trkpt lat="44.5851265" lon="5.40564"><ele>777.0</ele><time>2026-05-01T12:43:17.378Z</time></trkpt><trkpt lat="44.5851435" lon="5.4055041"><ele>777.0</ele><time>2026-05-01T12:43:18.378Z</time></trkpt><trkpt lat="44.5851492" lon="5.4053848"><ele>777.0</ele><time>2026-05-01T12:43:19.378Z</time></trkpt><trkpt lat="44.5851167" lon="5.4052917"><ele>777.0</ele><time>2026-05-01T12:43:20.378Z</time></trkpt><trkpt lat="44.585062" lon="5.4052388"><ele>777.0</ele><time>2026-05-01T12:43:21.378Z</time></trkpt><trkpt lat="44.58499" lon="5.4052309"><ele>777.0</ele><time>2026-05-01T12:43:22.378Z</time></trkpt><trkpt lat="44.5849001" lon="5.4052903"><ele>777.0</ele><time>2026-05-01T12:43:23.378Z</time></trkpt><trkpt lat="44.5848065" lon="5.405381"><ele>777.0</ele><time>2026-05-01T12:43:24.378Z</time></trkpt><trkpt lat="44.5847226" lon="5.4054583"><ele>777.0</ele><time>2026-05-01T12:43:25.379Z</time></trkpt><trkpt lat="44.5846379" lon="5.4055006"><ele>777.0</ele><time>2026-05-01T12:43:26.378Z</time></trkpt><trkpt lat="44.5845628" lon="5.4054948"><ele>778.6</ele><time>2026-05-01T12:43:27.378Z</time></trkpt><trkpt lat="44.5844957" lon="5.4053638"><ele>780.2</ele><time>2026-05-01T12:43:29.378Z</time></trkpt><trkpt lat="44.5845129" lon="5.4052651"><ele>781.8</ele><time>2026-05-01T12:43:30.378Z</time></trkpt><trkpt lat="44.5845651" lon="5.4051481"><ele>783.4</ele><time>2026-05-01T12:43:31.378Z</time></trkpt><trkpt lat="44.5846559" lon="5.4050119"><ele>785.0</ele><time>2026-05-01T12:43:32.378Z</time></trkpt><trkpt lat="44.584748" lon="5.4048629"><ele>785.0</ele><time>2026-05-01T12:43:33.378Z</time></trkpt><trkpt lat="44.5848049" lon="5.4047202"><ele>785.0</ele><time>2026-05-01T12:43:34.378Z</time></trkpt><trkpt lat="44.5848323" lon="5.4045891"><ele>785.0</ele><time>2026-05-01T12:43:35.378Z</time></trkpt><trkpt lat="44.5848225" lon="5.4044709"><ele>785.0</ele><time>2026-05-01T12:43:36.378Z</time></trkpt><trkpt lat="44.5847783" lon="5.404389"><ele>785.0</ele><time>2026-05-01T12:43:37.378Z</time></trkpt><trkpt lat="44.5847047" lon="5.4043402"><ele>785.75</ele><time>2026-05-01T12:43:38.378Z</time></trkpt><trkpt lat="44.5846145" lon="5.4043332"><ele>786.5</ele><time>2026-05-01T12:43:39.378Z</time></trkpt><trkpt lat="44.5845025" lon="5.4043858"><ele>787.25</ele><time>2026-05-01T12:43:40.378Z</time></trkpt><trkpt lat="44.5843797" lon="5.4044872"><ele>788.0</ele><time>2026-05-01T12:43:41.378Z</time></trkpt><trkpt lat="44.5842642" lon="5.4046457"><ele>791.25</ele><time>2026-05-01T12:43:42.378Z</time></trkpt><trkpt lat="44.5841678" lon="5.4048122"><ele>794.5</ele><time>2026-05-01T12:43:43.378Z</time></trkpt><trkpt lat="44.5840917" lon="5.4049672"><ele>797.75</ele><time>2026-05-01T12:43:44.378Z</time></trkpt><trkpt lat="44.5840239" lon="5.405103"><ele>801.0</ele><time>2026-05-01T12:43:45.379Z</time></trkpt><trkpt lat="44.5839664" lon="5.4051993"><ele>801.0</ele><time>2026-05-01T12:43:46.378Z</time></trkpt><trkpt lat="44.5839107" lon="5.4052621"><ele>801.0</ele><time>2026-05-01T12:43:47.378Z</time></trkpt><trkpt lat="44.5838046" lon="5.405245"><ele>801.0</ele><time>2026-05-01T12:43:49.379Z</time></trkpt><trkpt lat="44.5837889" lon="5.4051176"><ele>801.0</ele><time>2026-05-01T12:43:51.378Z</time></trkpt><trkpt lat="44.5838886" lon="5.4049798"><ele>801.0</ele><time>2026-05-01T12:43:53.378Z</time></trkpt><trkpt lat="44.5839632" lon="5.4048767"><ele>801.0</ele><time>2026-05-01T12:43:54.378Z</time></trkpt><trkpt lat="44.5840204" lon="5.4047614"><ele>801.0</ele><time>2026-05-01T12:43:55.378Z</time></trkpt><trkpt lat="44.5840503" lon="5.4046337"><ele>801.0</ele><time>2026-05-01T12:43:56.379Z</time></trkpt><trkpt lat="44.5840427" lon="5.404486"><ele>801.0</ele><time>2026-05-01T12:43:57.378Z</time></trkpt><trkpt lat="44.5840049" lon="5.4043192"><ele>801.0</ele><time>2026-05-01T12:43:58.378Z</time></trkpt><trkpt lat="44.5839606" lon="5.4041258"><ele>803.0</ele><time>2026-05-01T12:43:59.379Z</time></trkpt><trkpt lat="44.5839245" lon="5.4039153"><ele>805.0</ele><time>2026-05-01T12:44:00.378Z</time></trkpt><trkpt lat="44.5838744" lon="5.4036996"><ele>807.0</ele><time>2026-05-01T12:44:01.378Z</time></trkpt><trkpt lat="44.5838039" lon="5.4035034"><ele>807.6666666666667</ele><time>2026-05-01T12:44:02.378Z</time></trkpt><trkpt lat="44.583704" lon="5.4033121"><ele>808.3333333333334</ele><time>2026-05-01T12:44:03.378Z</time></trkpt><trkpt lat="44.5835916" lon="5.4031235"><ele>809.0</ele><time>2026-05-01T12:44:04.379Z</time></trkpt><trkpt lat="44.5834744" lon="5.4029318"><ele>812.3333333333334</ele><time>2026-05-01T12:44:05.378Z</time></trkpt><trkpt lat="44.583353" lon="5.4027322"><ele>815.6666666666667</ele><time>2026-05-01T12:44:06.378Z</time></trkpt><trkpt lat="44.5832182" lon="5.4025325"><ele>819.0</ele><time>2026-05-01T12:44:07.38Z</time></trkpt><trkpt lat="44.5830756" lon="5.4023331"><ele>818.3333333333333</ele><time>2026-05-01T12:44:08.378Z</time></trkpt><trkpt lat="44.5829305" lon="5.402137"><ele>817.6666666666666</ele><time>2026-05-01T12:44:09.379Z</time></trkpt><trkpt lat="44.5827869" lon="5.4019492"><ele>817.0</ele><time>2026-05-01T12:44:10.378Z</time></trkpt><trkpt lat="44.5826476" lon="5.401769"><ele>820.6666666666666</ele><time>2026-05-01T12:44:11.379Z</time></trkpt><trkpt lat="44.5825166" lon="5.401574"><ele>824.3333333333333</ele><time>2026-05-01T12:44:12.378Z</time></trkpt><trkpt lat="44.5824029" lon="5.4013574"><ele>828.0</ele><time>2026-05-01T12:44:13.379Z</time></trkpt><trkpt lat="44.5822933" lon="5.4011375"><ele>828.0</ele><time>2026-05-01T12:44:14.378Z</time></trkpt><trkpt lat="44.5821883" lon="5.400936"><ele>828.0</ele><time>2026-05-01T12:44:15.378Z</time></trkpt><trkpt lat="44.5821016" lon="5.4007752"><ele>828.0</ele><time>2026-05-01T12:44:16.378Z</time></trkpt><trkpt lat="44.5820318" lon="5.4006578"><ele>828.0</ele><time>2026-05-01T12:44:17.378Z</time></trkpt><trkpt lat="44.5819655" lon="5.4005845"><ele>831.1666666666666</ele><time>2026-05-01T12:44:18.378Z</time></trkpt><trkpt lat="44.581901" lon="5.4005615"><ele>834.3333333333333</ele><time>2026-05-01T12:44:19.378Z</time></trkpt><trkpt lat="44.5818166" lon="5.4006526"><ele>837.5</ele><time>2026-05-01T12:44:21.378Z</time></trkpt><trkpt lat="44.5818209" lon="5.4007441"><ele>840.6666666666666</ele><time>2026-05-01T12:44:22.379Z</time></trkpt><trkpt lat="44.5818572" lon="5.4008514"><ele>843.8333333333333</ele><time>2026-05-01T12:44:23.378Z</time></trkpt><trkpt lat="44.5819139" lon="5.4009808"><ele>847.0</ele><time>2026-05-01T12:44:24.379Z</time></trkpt><trkpt lat="44.5819877" lon="5.4011126"><ele>846.9999999999999</ele><time>2026-05-01T12:44:25.378Z</time></trkpt><trkpt lat="44.5820544" lon="5.4012143"><ele>847.0</ele><time>2026-05-01T12:44:26.378Z</time></trkpt><trkpt lat="44.5820898" lon="5.4013039"><ele>847.0</ele><time>2026-05-01T12:44:27.378Z</time></trkpt><trkpt lat="44.582058" lon="5.4014434"><ele>847.0</ele><time>2026-05-01T12:44:29.379Z</time></trkpt><trkpt lat="44.5819653" lon="5.4014366"><ele>846.9999999999999</ele><time>2026-05-01T12:44:31.378Z</time></trkpt><trkpt lat="44.5819122" lon="5.4013738"><ele>847.0</ele><time>2026-05-01T12:44:32.378Z</time></trkpt><trkpt lat="44.5818454" lon="5.4012627"><ele>847.0</ele><time>2026-05-01T12:44:33.378Z</time></trkpt><trkpt lat="44.5817556" lon="5.4011247"><ele>847.0</ele><time>2026-05-01T12:44:34.378Z</time></trkpt><trkpt lat="44.5816361" lon="5.4009664"><ele>847.0</ele><time>2026-05-01T12:44:35.378Z</time></trkpt><trkpt lat="44.5814943" lon="5.4007986"><ele>847.0</ele><time>2026-05-01T12:44:36.379Z</time></trkpt><trkpt lat="44.5813491" lon="5.4006394"><ele>847.0</ele><time>2026-05-01T12:44:37.378Z</time></trkpt><trkpt lat="44.5812076" lon="5.4004913"><ele>847.0</ele><time>2026-05-01T12:44:38.379Z</time></trkpt><trkpt lat="44.5810746" lon="5.4003523"><ele>849.0</ele><time>2026-05-01T12:44:39.379Z</time></trkpt><trkpt lat="44.5809468" lon="5.4002369"><ele>851.0</ele><time>2026-05-01T12:44:40.379Z</time></trkpt><trkpt lat="44.5808238" lon="5.4001501"><ele>853.0</ele><time>2026-05-01T12:44:41.379Z</time></trkpt><trkpt lat="44.5807285" lon="5.4000601"><ele>855.0</ele><time>2026-05-01T12:44:42.379Z</time></trkpt><trkpt lat="44.5806695" lon="5.3999367"><ele>855.0</ele><time>2026-05-01T12:44:43.379Z</time></trkpt><trkpt lat="44.5806435" lon="5.399786"><ele>855.0</ele><time>2026-05-01T12:44:44.378Z</time></trkpt><trkpt lat="44.5806384" lon="5.3996051"><ele>855.0</ele><time>2026-05-01T12:44:45.379Z</time></trkpt><trkpt lat="44.5806368" lon="5.3993966"><ele>855.0</ele><time>2026-05-01T12:44:46.378Z</time></trkpt><trkpt lat="44.5806189" lon="5.3991652"><ele>855.0</ele><time>2026-05-01T12:44:47.378Z</time></trkpt><trkpt lat="44.5805878" lon="5.3989167"><ele>855.0</ele><time>2026-05-01T12:44:48.378Z</time></trkpt><trkpt lat="44.5805528" lon="5.3986584"><ele>855.0</ele><time>2026-05-01T12:44:49.378Z</time></trkpt><trkpt lat="44.5805204" lon="5.3984189"><ele>855.0</ele><time>2026-05-01T12:44:50.379Z</time></trkpt><trkpt lat="44.5804875" lon="5.3982228"><ele>855.0</ele><time>2026-05-01T12:44:51.378Z</time></trkpt><trkpt lat="44.5804389" lon="5.3980663"><ele>855.0</ele><time>2026-05-01T12:44:52.379Z</time></trkpt><trkpt lat="44.5803757" lon="5.3979456"><ele>855.0</ele><time>2026-05-01T12:44:53.378Z</time></trkpt><trkpt lat="44.5803023" lon="5.3978772"><ele>857.8</ele><time>2026-05-01T12:44:54.379Z</time></trkpt><trkpt lat="44.5802197" lon="5.3978569"><ele>860.6</ele><time>2026-05-01T12:44:55.378Z</time></trkpt><trkpt lat="44.5801306" lon="5.3978928"><ele>863.4000000000001</ele><time>2026-05-01T12:44:56.378Z</time></trkpt><trkpt lat="44.5800255" lon="5.3979761"><ele>866.2</ele><time>2026-05-01T12:44:57.378Z</time></trkpt><trkpt lat="44.5799334" lon="5.3980839"><ele>869.0</ele><time>2026-05-01T12:44:58.378Z</time></trkpt><trkpt lat="44.5798657" lon="5.3982156"><ele>869.0</ele><time>2026-05-01T12:44:59.378Z</time></trkpt><trkpt lat="44.5798377" lon="5.398366"><ele>869.0</ele><time>2026-05-01T12:45:00.379Z</time></trkpt><trkpt lat="44.5798432" lon="5.3985501"><ele>869.0</ele><time>2026-05-01T12:45:01.38Z</time></trkpt><trkpt lat="44.5798803" lon="5.3987377"><ele>869.0</ele><time>2026-05-01T12:45:02.378Z</time></trkpt><trkpt lat="44.5799126" lon="5.3988917"><ele>868.8000000000001</ele><time>2026-05-01T12:45:03.378Z</time></trkpt><trkpt lat="44.5799121" lon="5.3990323"><ele>868.6000000000001</ele><time>2026-05-01T12:45:04.378Z</time></trkpt><trkpt lat="44.5798786" lon="5.3991527"><ele>868.4</ele><time>2026-05-01T12:45:05.378Z</time></trkpt><trkpt lat="44.5798131" lon="5.3992338"><ele>868.2</ele><time>2026-05-01T12:45:06.379Z</time></trkpt><trkpt lat="44.5797272" lon="5.399262"><ele>868.0</ele><time>2026-05-01T12:45:07.378Z</time></trkpt><trkpt lat="44.5796355" lon="5.3992406"><ele>868.0</ele><time>2026-05-01T12:45:08.378Z</time></trkpt><trkpt lat="44.579544" lon="5.3991686"><ele>868.0</ele><time>2026-05-01T12:45:09.378Z</time></trkpt><trkpt lat="44.5794502" lon="5.399051"><ele>868.0</ele><time>2026-05-01T12:45:10.378Z</time></trkpt><trkpt lat="44.5793462" lon="5.3988937"><ele>868.0</ele><time>2026-05-01T12:45:11.379Z</time></trkpt><trkpt lat="44.5792364" lon="5.3987246"><ele>871.6666666666666</ele><time>2026-05-01T12:45:12.379Z</time></trkpt><trkpt lat="44.5791199" lon="5.3985812"><ele>875.3333333333333</ele><time>2026-05-01T12:45:13.378Z</time></trkpt><trkpt lat="44.5789872" lon="5.3984784"><ele>879.0</ele><time>2026-05-01T12:45:14.378Z</time></trkpt><trkpt lat="44.5788388" lon="5.3984183"><ele>879.0</ele><time>2026-05-01T12:45:15.379Z</time></trkpt><trkpt lat="44.578688" lon="5.3984209"><ele>879.0</ele><time>2026-05-01T12:45:16.378Z</time></trkpt><trkpt lat="44.5785312" lon="5.3984845"><ele>879.0</ele><time>2026-05-01T12:45:17.378Z</time></trkpt><trkpt lat="44.5783681" lon="5.3986056"><ele>881.5</ele><time>2026-05-01T12:45:18.378Z</time></trkpt><trkpt lat="44.5781849" lon="5.3987624"><ele>884.0</ele><time>2026-05-01T12:45:19.379Z</time></trkpt><trkpt lat="44.5779838" lon="5.3989458"><ele>891.0</ele><time>2026-05-01T12:45:20.378Z</time></trkpt><trkpt lat="44.5777924" lon="5.3991451"><ele>898.0</ele><time>2026-05-01T12:45:21.378Z</time></trkpt><trkpt lat="44.5776114" lon="5.3993522"><ele>898.0</ele><time>2026-05-01T12:45:22.378Z</time></trkpt><trkpt lat="44.5774485" lon="5.399551"><ele>898.0</ele><time>2026-05-01T12:45:23.378Z</time></trkpt><trkpt lat="44.5773125" lon="5.3997629"><ele>898.0</ele><time>2026-05-01T12:45:24.378Z</time></trkpt><trkpt lat="44.5772098" lon="5.3999876"><ele>897.3333333333333</ele><time>2026-05-01T12:45:25.379Z</time></trkpt><trkpt lat="44.5771212" lon="5.4002085"><ele>896.6666666666667</ele><time>2026-05-01T12:45:26.378Z</time></trkpt><trkpt lat="44.5770197" lon="5.4003944"><ele>896.0</ele><time>2026-05-01T12:45:27.378Z</time></trkpt><trkpt lat="44.5768966" lon="5.4005367"><ele>896.0</ele><time>2026-05-01T12:45:28.378Z</time></trkpt><trkpt lat="44.576752" lon="5.4006372"><ele>896.0</ele><time>2026-05-01T12:45:29.378Z</time></trkpt><trkpt lat="44.5765899" lon="5.4006969"><ele>896.0</ele><time>2026-05-01T12:45:30.378Z</time></trkpt><trkpt lat="44.5764076" lon="5.4007316"><ele>896.0</ele><time>2026-05-01T12:45:31.38Z</time></trkpt><trkpt lat="44.5762142" lon="5.4007618"><ele>896.0</ele><time>2026-05-01T12:45:32.378Z</time></trkpt><trkpt lat="44.5760196" lon="5.4008099"><ele>896.0</ele><time>2026-05-01T12:45:33.378Z</time></trkpt><trkpt lat="44.5758324" lon="5.4008981"><ele>898.0</ele><time>2026-05-01T12:45:34.379Z</time></trkpt><trkpt lat="44.5756503" lon="5.4009969"><ele>900.0</ele><time>2026-05-01T12:45:35.378Z</time></trkpt><trkpt lat="44.5754648" lon="5.401082"><ele>902.0</ele><time>2026-05-01T12:45:36.378Z</time></trkpt><trkpt lat="44.5752703" lon="5.4011598"><ele>903.0</ele><time>2026-05-01T12:45:37.378Z</time></trkpt><trkpt lat="44.5750679" lon="5.401221"><ele>904.0</ele><time>2026-05-01T12:45:38.379Z</time></trkpt><trkpt lat="44.574864" lon="5.4012647"><ele>905.0</ele><time>2026-05-01T12:45:39.378Z</time></trkpt><trkpt lat="44.5746608" lon="5.4012972"><ele>906.6666666666667</ele><time>2026-05-01T12:45:40.378Z</time></trkpt><trkpt lat="44.5744667" lon="5.4013243"><ele>908.3333333333333</ele><time>2026-05-01T12:45:41.379Z</time></trkpt><trkpt lat="44.5742841" lon="5.4013473"><ele>910.0</ele><time>2026-05-01T12:45:42.378Z</time></trkpt><trkpt lat="44.5741125" lon="5.4013729"><ele>906.3333333333333</ele><time>2026-05-01T12:45:43.379Z</time></trkpt><trkpt lat="44.5739549" lon="5.4014205"><ele>902.6666666666667</ele><time>2026-05-01T12:45:44.379Z</time></trkpt><trkpt lat="44.5738154" lon="5.4014973"><ele>899.0</ele><time>2026-05-01T12:45:45.378Z</time></trkpt><trkpt lat="44.5736888" lon="5.4015917"><ele>903.6666666666667</ele><time>2026-05-01T12:45:46.379Z</time></trkpt><trkpt lat="44.5735652" lon="5.4016992"><ele>908.3333333333333</ele><time>2026-05-01T12:45:47.378Z</time></trkpt><trkpt lat="44.5734358" lon="5.4018286"><ele>913.0</ele><time>2026-05-01T12:45:48.378Z</time></trkpt><trkpt lat="44.573301" lon="5.4019831"><ele>909.6666666666666</ele><time>2026-05-01T12:45:49.379Z</time></trkpt><trkpt lat="44.5731652" lon="5.4021649"><ele>906.3333333333333</ele><time>2026-05-01T12:45:50.378Z</time></trkpt><trkpt lat="44.5730325" lon="5.4023668"><ele>903.0</ele><time>2026-05-01T12:45:51.378Z</time></trkpt><trkpt lat="44.5729007" lon="5.4025801"><ele>905.0</ele><time>2026-05-01T12:45:52.378Z</time></trkpt><trkpt lat="44.5727731" lon="5.40279"><ele>907.0</ele><time>2026-05-01T12:45:53.38Z</time></trkpt><trkpt lat="44.5726515" lon="5.4029912"><ele>909.0</ele><time>2026-05-01T12:45:54.378Z</time></trkpt><trkpt lat="44.5725378" lon="5.4031785"><ele>909.0</ele><time>2026-05-01T12:45:55.378Z</time></trkpt><trkpt lat="44.5724315" lon="5.4033596"><ele>909.0</ele><time>2026-05-01T12:45:56.378Z</time></trkpt><trkpt lat="44.5723391" lon="5.4035229"><ele>909.0</ele><time>2026-05-01T12:45:57.378Z</time></trkpt><trkpt lat="44.5722557" lon="5.4036659"><ele>909.0</ele><time>2026-05-01T12:45:58.378Z</time></trkpt><trkpt lat="44.5721757" lon="5.4037954"><ele>908.75</ele><time>2026-05-01T12:45:59.378Z</time></trkpt><trkpt lat="44.572094" lon="5.4039177"><ele>908.5</ele><time>2026-05-01T12:46:00.378Z</time></trkpt><trkpt lat="44.5720062" lon="5.4040192"><ele>908.25</ele><time>2026-05-01T12:46:01.378Z</time></trkpt><trkpt lat="44.5719084" lon="5.4041021"><ele>908.0</ele><time>2026-05-01T12:46:02.378Z</time></trkpt><trkpt lat="44.5717943" lon="5.4041665"><ele>908.75</ele><time>2026-05-01T12:46:03.379Z</time></trkpt><trkpt lat="44.5716626" lon="5.4042213"><ele>909.5</ele><time>2026-05-01T12:46:04.378Z</time></trkpt><trkpt lat="44.5715179" lon="5.4042864"><ele>910.25</ele><time>2026-05-01T12:46:05.378Z</time></trkpt><trkpt lat="44.5713796" lon="5.4043604"><ele>911.0</ele><time>2026-05-01T12:46:06.378Z</time></trkpt><trkpt lat="44.571246" lon="5.4044153"><ele>910.0</ele><time>2026-05-01T12:46:07.378Z</time></trkpt><trkpt lat="44.5711186" lon="5.4044451"><ele>909.0</ele><time>2026-05-01T12:46:08.378Z</time></trkpt><trkpt lat="44.5710002" lon="5.4044539"><ele>908.0</ele><time>2026-05-01T12:46:09.38Z</time></trkpt><trkpt lat="44.5708838" lon="5.4044269"><ele>907.0</ele><time>2026-05-01T12:46:10.378Z</time></trkpt><trkpt lat="44.5707663" lon="5.4043691"><ele>907.0</ele><time>2026-05-01T12:46:11.378Z</time></trkpt><trkpt lat="44.5706435" lon="5.4042656"><ele>907.0</ele><time>2026-05-01T12:46:12.379Z</time></trkpt><trkpt lat="44.5705187" lon="5.4041353"><ele>907.0</ele><time>2026-05-01T12:46:13.378Z</time></trkpt><trkpt lat="44.5704024" lon="5.4040028"><ele>907.0</ele><time>2026-05-01T12:46:14.379Z</time></trkpt><trkpt lat="44.5702774" lon="5.4038922"><ele>908.0</ele><time>2026-05-01T12:46:15.379Z</time></trkpt><trkpt lat="44.5701418" lon="5.403833"><ele>909.0</ele><time>2026-05-01T12:46:16.378Z</time></trkpt><trkpt lat="44.5700019" lon="5.403818"><ele>910.0</ele><time>2026-05-01T12:46:17.378Z</time></trkpt><trkpt lat="44.5698517" lon="5.4038456"><ele>911.0</ele><time>2026-05-01T12:46:18.379Z</time></trkpt><trkpt lat="44.569688" lon="5.4038962"><ele>907.0</ele><time>2026-05-01T12:46:19.378Z</time></trkpt><trkpt lat="44.5695268" lon="5.4039289"><ele>903.0</ele><time>2026-05-01T12:46:20.378Z</time></trkpt><trkpt lat="44.5693771" lon="5.4039647"><ele>899.0</ele><time>2026-05-01T12:46:21.378Z</time></trkpt><trkpt lat="44.5692489" lon="5.4040271"><ele>898.0</ele><time>2026-05-01T12:46:22.378Z</time></trkpt><trkpt lat="44.5691394" lon="5.4041232"><ele>897.0000000000001</ele><time>2026-05-01T12:46:23.378Z</time></trkpt><trkpt lat="44.5690611" lon="5.4042382"><ele>896.0000000000001</ele><time>2026-05-01T12:46:24.378Z</time></trkpt><trkpt lat="44.5690126" lon="5.4043681"><ele>895.0</ele><time>2026-05-01T12:46:25.378Z</time></trkpt><trkpt lat="44.5689975" lon="5.4044889"><ele>894.0</ele><time>2026-05-01T12:46:26.378Z</time></trkpt><trkpt lat="44.5690115" lon="5.4045852"><ele>894.0</ele><time>2026-05-01T12:46:27.378Z</time></trkpt><trkpt lat="44.5690527" lon="5.404657"><ele>894.0000000000001</ele><time>2026-05-01T12:46:28.378Z</time></trkpt><trkpt lat="44.5691181" lon="5.4046968"><ele>894.0000000000001</ele><time>2026-05-01T12:46:29.378Z</time></trkpt><trkpt lat="44.5692084" lon="5.4047088"><ele>894.0</ele><time>2026-05-01T12:46:30.378Z</time></trkpt><trkpt lat="44.5693249" lon="5.4047129"><ele>894.0</ele><time>2026-05-01T12:46:31.378Z</time></trkpt><trkpt lat="44.5694555" lon="5.4047364"><ele>893.75</ele><time>2026-05-01T12:46:32.378Z</time></trkpt><trkpt lat="44.5695713" lon="5.4047899"><ele>893.5</ele><time>2026-05-01T12:46:33.38Z</time></trkpt><trkpt lat="44.5696856" lon="5.404883"><ele>893.25</ele><time>2026-05-01T12:46:34.378Z</time></trkpt><trkpt lat="44.5698005" lon="5.4050297"><ele>893.0</ele><time>2026-05-01T12:46:35.378Z</time></trkpt><trkpt lat="44.5699271" lon="5.4052084"><ele>893.0</ele><time>2026-05-01T12:46:36.379Z</time></trkpt><trkpt lat="44.5700463" lon="5.405409"><ele>893.0</ele><time>2026-05-01T12:46:37.378Z</time></trkpt><trkpt lat="44.5701515" lon="5.4056426"><ele>893.0</ele><time>2026-05-01T12:46:38.378Z</time></trkpt><trkpt lat="44.5702446" lon="5.405901"><ele>889.6666666666667</ele><time>2026-05-01T12:46:39.378Z</time></trkpt><trkpt lat="44.570334" lon="5.4061601"><ele>886.3333333333333</ele><time>2026-05-01T12:46:40.378Z</time></trkpt><trkpt lat="44.5704435" lon="5.4063975"><ele>883.0</ele><time>2026-05-01T12:46:41.378Z</time></trkpt><trkpt lat="44.5705624" lon="5.4066124"><ele>883.0</ele><time>2026-05-01T12:46:42.378Z</time></trkpt><trkpt lat="44.5706734" lon="5.406813"><ele>883.0</ele><time>2026-05-01T12:46:43.378Z</time></trkpt><trkpt lat="44.5707499" lon="5.4069991"><ele>883.0</ele><time>2026-05-01T12:46:44.378Z</time></trkpt><trkpt lat="44.5707997" lon="5.4071608"><ele>882.2</ele><time>2026-05-01T12:46:45.378Z</time></trkpt><trkpt lat="44.5708165" lon="5.4072966"><ele>881.4</ele><time>2026-05-01T12:46:46.378Z</time></trkpt><trkpt lat="44.5707928" lon="5.4074222"><ele>880.6000000000001</ele><time>2026-05-01T12:46:47.378Z</time></trkpt><trkpt lat="44.5707368" lon="5.4075082"><ele>879.8000000000001</ele><time>2026-05-01T12:46:48.378Z</time></trkpt><trkpt lat="44.5706615" lon="5.4075434"><ele>879.0</ele><time>2026-05-01T12:46:49.378Z</time></trkpt><trkpt lat="44.5705616" lon="5.4075408"><ele>879.0</ele><time>2026-05-01T12:46:50.378Z</time></trkpt><trkpt lat="44.5704331" lon="5.4075113"><ele>879.0</ele><time>2026-05-01T12:46:51.378Z</time></trkpt><trkpt lat="44.5702906" lon="5.4074667"><ele>879.0</ele><time>2026-05-01T12:46:52.378Z</time></trkpt><trkpt lat="44.5701581" lon="5.4073829"><ele>879.0</ele><time>2026-05-01T12:46:53.378Z</time></trkpt><trkpt lat="44.5700406" lon="5.4072695"><ele>879.25</ele><time>2026-05-01T12:46:54.378Z</time></trkpt><trkpt lat="44.5699111" lon="5.4071846"><ele>879.5</ele><time>2026-05-01T12:46:55.378Z</time></trkpt><trkpt lat="44.5697635" lon="5.4071429"><ele>879.75</ele><time>2026-05-01T12:46:56.378Z</time></trkpt><trkpt lat="44.5696162" lon="5.4071472"><ele>880.0</ele><time>2026-05-01T12:46:57.379Z</time></trkpt><trkpt lat="44.5694742" lon="5.407167"><ele>882.75</ele><time>2026-05-01T12:46:58.378Z</time></trkpt><trkpt lat="44.5693585" lon="5.4071913"><ele>885.5</ele><time>2026-05-01T12:46:59.378Z</time></trkpt><trkpt lat="44.5692677" lon="5.407263"><ele>888.25</ele><time>2026-05-01T12:47:00.378Z</time></trkpt><trkpt lat="44.5691979" lon="5.4073794"><ele>891.0</ele><time>2026-05-01T12:47:01.378Z</time></trkpt><trkpt lat="44.5691366" lon="5.4075418"><ele>891.0</ele><time>2026-05-01T12:47:02.379Z</time></trkpt><trkpt lat="44.5690601" lon="5.4077206"><ele>891.0</ele><time>2026-05-01T12:47:03.379Z</time></trkpt><trkpt lat="44.5689676" lon="5.4078775"><ele>891.0</ele><time>2026-05-01T12:47:04.378Z</time></trkpt><trkpt lat="44.5688556" lon="5.4080123"><ele>891.0</ele><time>2026-05-01T12:47:05.378Z</time></trkpt><trkpt lat="44.5687362" lon="5.4080994"><ele>889.25</ele><time>2026-05-01T12:47:06.379Z</time></trkpt><trkpt lat="44.5686182" lon="5.408124"><ele>887.5</ele><time>2026-05-01T12:47:07.378Z</time></trkpt><trkpt lat="44.5684807" lon="5.408097"><ele>885.75</ele><time>2026-05-01T12:47:08.378Z</time></trkpt><trkpt lat="44.5683231" lon="5.4080324"><ele>884.0</ele><time>2026-05-01T12:47:09.378Z</time></trkpt><trkpt lat="44.5681438" lon="5.407943"><ele>892.0</ele><time>2026-05-01T12:47:10.378Z</time></trkpt><trkpt lat="44.5679514" lon="5.4078757"><ele>900.0</ele><time>2026-05-01T12:47:11.378Z</time></trkpt><trkpt lat="44.5677395" lon="5.4078341"><ele>908.0</ele><time>2026-05-01T12:47:12.378Z</time></trkpt><trkpt lat="44.5675109" lon="5.4078242"><ele>908.0</ele><time>2026-05-01T12:47:13.378Z</time></trkpt><trkpt lat="44.5672739" lon="5.4078356"><ele>908.0</ele><time>2026-05-01T12:47:14.378Z</time></trkpt><trkpt lat="44.5670325" lon="5.4078663"><ele>910.5</ele><time>2026-05-01T12:47:15.378Z</time></trkpt><trkpt lat="44.566795" lon="5.4079046"><ele>913.0</ele><time>2026-05-01T12:47:16.379Z</time></trkpt><trkpt lat="44.5665657" lon="5.4079428"><ele>913.0</ele><time>2026-05-01T12:47:17.378Z</time></trkpt><trkpt lat="44.5663452" lon="5.407977"><ele>913.0</ele><time>2026-05-01T12:47:18.378Z</time></trkpt><trkpt lat="44.5661355" lon="5.408022"><ele>913.0</ele><time>2026-05-01T12:47:19.378Z</time></trkpt><trkpt lat="44.5659418" lon="5.4080714"><ele>904.6666666666666</ele><time>2026-05-01T12:47:20.378Z</time></trkpt><trkpt lat="44.5657536" lon="5.408098"><ele>896.3333333333333</ele><time>2026-05-01T12:47:21.378Z</time></trkpt><trkpt lat="44.5655712" lon="5.4080744"><ele>888.0</ele><time>2026-05-01T12:47:22.378Z</time></trkpt><trkpt lat="44.5653911" lon="5.408016"><ele>895.3333333333333</ele><time>2026-05-01T12:47:23.378Z</time></trkpt><trkpt lat="44.5652119" lon="5.4079437"><ele>902.6666666666666</ele><time>2026-05-01T12:47:24.378Z</time></trkpt><trkpt lat="44.5650304" lon="5.4079067"><ele>910.0</ele><time>2026-05-01T12:47:25.378Z</time></trkpt><trkpt lat="44.5648523" lon="5.4079089"><ele>910.0</ele><time>2026-05-01T12:47:26.378Z</time></trkpt><trkpt lat="44.5646862" lon="5.4079431"><ele>910.0</ele><time>2026-05-01T12:47:27.378Z</time></trkpt><trkpt lat="44.5645331" lon="5.4080062"><ele>910.0</ele><time>2026-05-01T12:47:28.378Z</time></trkpt><trkpt lat="44.5643962" lon="5.408072"><ele>905.0</ele><time>2026-05-01T12:47:29.378Z</time></trkpt><trkpt lat="44.5642736" lon="5.4081384"><ele>900.0</ele><time>2026-05-01T12:47:30.378Z</time></trkpt><trkpt lat="44.5641706" lon="5.4082317"><ele>895.0</ele><time>2026-05-01T12:47:31.379Z</time></trkpt><trkpt lat="44.5640841" lon="5.4083431"><ele>890.0</ele><time>2026-05-01T12:47:32.378Z</time></trkpt><trkpt lat="44.563987" lon="5.4084167"><ele>890.0</ele><time>2026-05-01T12:47:33.378Z</time></trkpt><trkpt lat="44.563878" lon="5.4084382"><ele>890.0</ele><time>2026-05-01T12:47:34.378Z</time></trkpt><trkpt lat="44.5637658" lon="5.4084104"><ele>890.0</ele><time>2026-05-01T12:47:35.378Z</time></trkpt><trkpt lat="44.5636488" lon="5.4083446"><ele>890.0</ele><time>2026-05-01T12:47:36.378Z</time></trkpt><trkpt lat="44.5635207" lon="5.4082671"><ele>893.6666666666667</ele><time>2026-05-01T12:47:37.378Z</time></trkpt><trkpt lat="44.5633676" lon="5.4082025"><ele>897.3333333333333</ele><time>2026-05-01T12:47:38.378Z</time></trkpt><trkpt lat="44.5631949" lon="5.4081414"><ele>901.0</ele><time>2026-05-01T12:47:39.379Z</time></trkpt><trkpt lat="44.5630149" lon="5.4080619"><ele>897.6666666666666</ele><time>2026-05-01T12:47:40.379Z</time></trkpt><trkpt lat="44.5628243" lon="5.4079774"><ele>894.3333333333333</ele><time>2026-05-01T12:47:41.378Z</time></trkpt><trkpt lat="44.5626312" lon="5.4079279"><ele>891.0</ele><time>2026-05-01T12:47:42.378Z</time></trkpt><trkpt lat="44.562439" lon="5.4079148"><ele>891.0</ele><time>2026-05-01T12:47:43.378Z</time></trkpt><trkpt lat="44.5622472" lon="5.4079002"><ele>891.0</ele><time>2026-05-01T12:47:44.378Z</time></trkpt><trkpt lat="44.5620523" lon="5.4078587"><ele>891.0</ele><time>2026-05-01T12:47:45.378Z</time></trkpt><trkpt lat="44.5618515" lon="5.4078125"><ele>893.0</ele><time>2026-05-01T12:47:46.379Z</time></trkpt><trkpt lat="44.5616427" lon="5.4077648"><ele>895.0</ele><time>2026-05-01T12:47:47.378Z</time></trkpt><trkpt lat="44.5614304" lon="5.4077096"><ele>897.0</ele><time>2026-05-01T12:47:48.378Z</time></trkpt><trkpt lat="44.5612151" lon="5.4076518"><ele>898.3333333333333</ele><time>2026-05-01T12:47:49.378Z</time></trkpt><trkpt lat="44.5609934" lon="5.4076103"><ele>899.6666666666666</ele><time>2026-05-01T12:47:50.378Z</time></trkpt><trkpt lat="44.5607723" lon="5.4075874"><ele>901.0</ele><time>2026-05-01T12:47:51.378Z</time></trkpt><trkpt lat="44.5605547" lon="5.4075721"><ele>903.6666666666666</ele><time>2026-05-01T12:47:52.378Z</time></trkpt><trkpt lat="44.5603431" lon="5.4075595"><ele>906.3333333333333</ele><time>2026-05-01T12:47:53.378Z</time></trkpt><trkpt lat="44.5601338" lon="5.4075549"><ele>909.0</ele><time>2026-05-01T12:47:54.378Z</time></trkpt><trkpt lat="44.5599319" lon="5.4075498"><ele>909.0</ele><time>2026-05-01T12:47:55.378Z</time></trkpt><trkpt lat="44.5597464" lon="5.4075302"><ele>909.0</ele><time>2026-05-01T12:47:56.378Z</time></trkpt><trkpt lat="44.5595714" lon="5.4075066"><ele>909.0</ele><time>2026-05-01T12:47:57.378Z</time></trkpt><trkpt lat="44.5594041" lon="5.4075109"><ele>909.6666666666667</ele><time>2026-05-01T12:47:58.379Z</time></trkpt><trkpt lat="44.5592314" lon="5.407548"><ele>910.3333333333334</ele><time>2026-05-01T12:47:59.378Z</time></trkpt><trkpt lat="44.5590698" lon="5.407634"><ele>911.0</ele><time>2026-05-01T12:48:00.378Z</time></trkpt><trkpt lat="44.5589198" lon="5.4077761"><ele>911.0</ele><time>2026-05-01T12:48:01.378Z</time></trkpt><trkpt lat="44.5587807" lon="5.4079457"><ele>911.0</ele><time>2026-05-01T12:48:02.378Z</time></trkpt><trkpt lat="44.5586396" lon="5.4080934"><ele>911.0</ele><time>2026-05-01T12:48:03.378Z</time></trkpt><trkpt lat="44.5585036" lon="5.4082183"><ele>912.5</ele><time>2026-05-01T12:48:04.378Z</time></trkpt><trkpt lat="44.5583865" lon="5.4083535"><ele>914.0</ele><time>2026-05-01T12:48:05.378Z</time></trkpt><trkpt lat="44.5582907" lon="5.4085219"><ele>915.5</ele><time>2026-05-01T12:48:06.378Z</time></trkpt><trkpt lat="44.5582401" lon="5.4087003"><ele>917.0</ele><time>2026-05-01T12:48:07.378Z</time></trkpt><trkpt lat="44.5582386" lon="5.408875"><ele>921.0</ele><time>2026-05-01T12:48:08.378Z</time></trkpt><trkpt lat="44.5582643" lon="5.4090704"><ele>925.0</ele><time>2026-05-01T12:48:09.378Z</time></trkpt><trkpt lat="44.5582856" lon="5.4092993"><ele>929.0</ele><time>2026-05-01T12:48:10.378Z</time></trkpt><trkpt lat="44.5582829" lon="5.4095588"><ele>932.6666666666667</ele><time>2026-05-01T12:48:11.378Z</time></trkpt><trkpt lat="44.5582558" lon="5.4098357"><ele>936.3333333333333</ele><time>2026-05-01T12:48:12.378Z</time></trkpt><trkpt lat="44.5582047" lon="5.4101041"><ele>940.0</ele><time>2026-05-01T12:48:13.378Z</time></trkpt><trkpt lat="44.5581567" lon="5.4103511"><ele>942.5</ele><time>2026-05-01T12:48:14.378Z</time></trkpt><trkpt lat="44.5581215" lon="5.4105778"><ele>945.0</ele><time>2026-05-01T12:48:15.378Z</time></trkpt><trkpt lat="44.5580779" lon="5.4107593"><ele>947.5</ele><time>2026-05-01T12:48:16.378Z</time></trkpt><trkpt lat="44.5580152" lon="5.41091"><ele>950.0</ele><time>2026-05-01T12:48:17.378Z</time></trkpt><trkpt lat="44.5579224" lon="5.410997"><ele>946.5</ele><time>2026-05-01T12:48:18.378Z</time></trkpt><trkpt lat="44.5578152" lon="5.4110455"><ele>943.0</ele><time>2026-05-01T12:48:19.378Z</time></trkpt><trkpt lat="44.5576939" lon="5.411043"><ele>939.5</ele><time>2026-05-01T12:48:20.378Z</time></trkpt><trkpt lat="44.5575545" lon="5.411006"><ele>936.0</ele><time>2026-05-01T12:48:21.378Z</time></trkpt><trkpt lat="44.5573908" lon="5.4109799"><ele>936.0</ele><time>2026-05-01T12:48:22.378Z</time></trkpt><trkpt lat="44.5572099" lon="5.410977"><ele>936.0</ele><time>2026-05-01T12:48:23.379Z</time></trkpt><trkpt lat="44.55703" lon="5.411023"><ele>936.0</ele><time>2026-05-01T12:48:24.378Z</time></trkpt><trkpt lat="44.5568473" lon="5.4111246"><ele>938.3333333333333</ele><time>2026-05-01T12:48:25.378Z</time></trkpt><trkpt lat="44.5566633" lon="5.4112614"><ele>940.6666666666666</ele><time>2026-05-01T12:48:26.378Z</time></trkpt><trkpt lat="44.5564877" lon="5.4113876"><ele>943.0</ele><time>2026-05-01T12:48:27.378Z</time></trkpt><trkpt lat="44.5563256" lon="5.4115106"><ele>945.6666666666666</ele><time>2026-05-01T12:48:28.378Z</time></trkpt><trkpt lat="44.5561723" lon="5.4116657"><ele>948.3333333333333</ele><time>2026-05-01T12:48:29.379Z</time></trkpt><trkpt lat="44.5560407" lon="5.4118617"><ele>951.0</ele><time>2026-05-01T12:48:30.379Z</time></trkpt><trkpt lat="44.5559314" lon="5.4120745"><ele>952.6666666666667</ele><time>2026-05-01T12:48:31.378Z</time></trkpt><trkpt lat="44.5558153" lon="5.4122626"><ele>954.3333333333334</ele><time>2026-05-01T12:48:32.378Z</time></trkpt><trkpt lat="44.5556829" lon="5.4124194"><ele>956.0</ele><time>2026-05-01T12:48:33.378Z</time></trkpt><trkpt lat="44.5555432" lon="5.4125381"><ele>956.0</ele><time>2026-05-01T12:48:34.378Z</time></trkpt><trkpt lat="44.555397" lon="5.4126078"><ele>956.0</ele><time>2026-05-01T12:48:35.378Z</time></trkpt><trkpt lat="44.5552447" lon="5.4126355"><ele>956.0</ele><time>2026-05-01T12:48:36.379Z</time></trkpt><trkpt lat="44.5550909" lon="5.4126146"><ele>956.0</ele><time>2026-05-01T12:48:37.378Z</time></trkpt><trkpt lat="44.554939" lon="5.4125464"><ele>956.0</ele><time>2026-05-01T12:48:38.378Z</time></trkpt><trkpt lat="44.5547924" lon="5.4124399"><ele>956.0</ele><time>2026-05-01T12:48:39.378Z</time></trkpt><trkpt lat="44.5546457" lon="5.4123202"><ele>957.3333333333334</ele><time>2026-05-01T12:48:40.378Z</time></trkpt><trkpt lat="44.5544914" lon="5.4122179"><ele>958.6666666666667</ele><time>2026-05-01T12:48:41.378Z</time></trkpt><trkpt lat="44.5543318" lon="5.412167"><ele>960.0</ele><time>2026-05-01T12:48:42.378Z</time></trkpt><trkpt lat="44.5541718" lon="5.4121571"><ele>960.0</ele><time>2026-05-01T12:48:43.379Z</time></trkpt><trkpt lat="44.5540002" lon="5.4121883"><ele>960.0</ele><time>2026-05-01T12:48:44.378Z</time></trkpt><trkpt lat="44.5538169" lon="5.4122647"><ele>960.0</ele><time>2026-05-01T12:48:45.378Z</time></trkpt><trkpt lat="44.5536229" lon="5.4123662"><ele>959.0</ele><time>2026-05-01T12:48:46.378Z</time></trkpt><trkpt lat="44.5534142" lon="5.4124837"><ele>958.0</ele><time>2026-05-01T12:48:47.378Z</time></trkpt><trkpt lat="44.5531958" lon="5.412606"><ele>958.0</ele><time>2026-05-01T12:48:48.379Z</time></trkpt><trkpt lat="44.5529678" lon="5.4127315"><ele>958.0</ele><time>2026-05-01T12:48:49.378Z</time></trkpt><trkpt lat="44.5527375" lon="5.4128545"><ele>958.5</ele><time>2026-05-01T12:48:50.378Z</time></trkpt><trkpt lat="44.5525132" lon="5.4129759"><ele>959.0</ele><time>2026-05-01T12:48:51.378Z</time></trkpt><trkpt lat="44.5523007" lon="5.4130938"><ele>960.6666666666667</ele><time>2026-05-01T12:48:52.378Z</time></trkpt><trkpt lat="44.5520978" lon="5.4132063"><ele>962.3333333333333</ele><time>2026-05-01T12:48:53.378Z</time></trkpt><trkpt lat="44.5519071" lon="5.4133248"><ele>964.0</ele><time>2026-05-01T12:48:54.379Z</time></trkpt><trkpt lat="44.5517468" lon="5.4134602"><ele>964.3333333333333</ele><time>2026-05-01T12:48:55.379Z</time></trkpt><trkpt lat="44.551606" lon="5.4136283"><ele>964.6666666666667</ele><time>2026-05-01T12:48:56.378Z</time></trkpt><trkpt lat="44.5514762" lon="5.4138347"><ele>965.0</ele><time>2026-05-01T12:48:57.378Z</time></trkpt><trkpt lat="44.5513647" lon="5.4140783"><ele>965.6666666666667</ele><time>2026-05-01T12:48:58.378Z</time></trkpt><trkpt lat="44.5512715" lon="5.414352"><ele>966.3333333333333</ele><time>2026-05-01T12:48:59.378Z</time></trkpt><trkpt lat="44.5511906" lon="5.4146202"><ele>967.0</ele><time>2026-05-01T12:49:00.378Z</time></trkpt><trkpt lat="44.5511131" lon="5.4148621"><ele>962.6666666666666</ele><time>2026-05-01T12:49:01.378Z</time></trkpt><trkpt lat="44.5510207" lon="5.4150776"><ele>958.3333333333333</ele><time>2026-05-01T12:49:02.378Z</time></trkpt><trkpt lat="44.5509034" lon="5.4152623"><ele>954.0</ele><time>2026-05-01T12:49:03.379Z</time></trkpt><trkpt lat="44.5507517" lon="5.4154073"><ele>953.6666666666667</ele><time>2026-05-01T12:49:04.378Z</time></trkpt><trkpt lat="44.550577" lon="5.4155094"><ele>953.3333333333334</ele><time>2026-05-01T12:49:05.378Z</time></trkpt><trkpt lat="44.5503833" lon="5.4155818"><ele>953.0</ele><time>2026-05-01T12:49:06.378Z</time></trkpt><trkpt lat="44.5501754" lon="5.4156334"><ele>953.0</ele><time>2026-05-01T12:49:07.379Z</time></trkpt><trkpt lat="44.5499536" lon="5.4156597"><ele>953.0</ele><time>2026-05-01T12:49:08.378Z</time></trkpt><trkpt lat="44.5497238" lon="5.415668"><ele>950.0</ele><time>2026-05-01T12:49:09.378Z</time></trkpt><trkpt lat="44.5494854" lon="5.4156752"><ele>947.0</ele><time>2026-05-01T12:49:10.379Z</time></trkpt><trkpt lat="44.5492426" lon="5.4156835"><ele>947.0</ele><time>2026-05-01T12:49:11.378Z</time></trkpt><trkpt lat="44.5490055" lon="5.4156888"><ele>947.0</ele><time>2026-05-01T12:49:12.378Z</time></trkpt><trkpt lat="44.5487733" lon="5.4156888"><ele>944.6666666666667</ele><time>2026-05-01T12:49:13.378Z</time></trkpt><trkpt lat="44.548547" lon="5.4156876"><ele>942.3333333333333</ele><time>2026-05-01T12:49:14.378Z</time></trkpt><trkpt lat="44.5483262" lon="5.4156866"><ele>940.0</ele><time>2026-05-01T12:49:15.378Z</time></trkpt><trkpt lat="44.5479351" lon="5.4156698"><ele>937.6666666666666</ele><time>2026-05-01T12:49:17.378Z</time></trkpt><trkpt lat="44.5477635" lon="5.4157015"><ele>935.3333333333333</ele><time>2026-05-01T12:49:18.378Z</time></trkpt><trkpt lat="44.5475989" lon="5.4157787"><ele>933.0</ele><time>2026-05-01T12:49:19.378Z</time></trkpt><trkpt lat="44.5474352" lon="5.4159027"><ele>933.0</ele><time>2026-05-01T12:49:20.38Z</time></trkpt><trkpt lat="44.5472609" lon="5.4160472"><ele>933.0</ele><time>2026-05-01T12:49:21.378Z</time></trkpt><trkpt lat="44.5470702" lon="5.4161833"><ele>933.0</ele><time>2026-05-01T12:49:22.378Z</time></trkpt><trkpt lat="44.546865" lon="5.4163134"><ele>932.5</ele><time>2026-05-01T12:49:23.378Z</time></trkpt><trkpt lat="44.5466558" lon="5.4164526"><ele>932.0</ele><time>2026-05-01T12:49:24.378Z</time></trkpt><trkpt lat="44.5464414" lon="5.4166017"><ele>932.0</ele><time>2026-05-01T12:49:25.378Z</time></trkpt><trkpt lat="44.5462289" lon="5.4167525"><ele>932.0</ele><time>2026-05-01T12:49:26.379Z</time></trkpt><trkpt lat="44.5460189" lon="5.4169031"><ele>931.0</ele><time>2026-05-01T12:49:27.378Z</time></trkpt><trkpt lat="44.5458135" lon="5.4170507"><ele>930.0</ele><time>2026-05-01T12:49:28.378Z</time></trkpt><trkpt lat="44.5456115" lon="5.4171936"><ele>930.0</ele><time>2026-05-01T12:49:29.378Z</time></trkpt><trkpt lat="44.5454119" lon="5.4173226"><ele>930.0</ele><time>2026-05-01T12:49:30.379Z</time></trkpt><trkpt lat="44.5452266" lon="5.417419"><ele>930.0</ele><time>2026-05-01T12:49:31.378Z</time></trkpt><trkpt lat="44.5450734" lon="5.4174871"><ele>926.0</ele><time>2026-05-01T12:49:32.378Z</time></trkpt><trkpt lat="44.5449502" lon="5.4175473"><ele>922.0</ele><time>2026-05-01T12:49:33.378Z</time></trkpt><trkpt lat="44.5448463" lon="5.4176132"><ele>918.0</ele><time>2026-05-01T12:49:34.378Z</time></trkpt><trkpt lat="44.5447575" lon="5.4176974"><ele>914.0</ele><time>2026-05-01T12:49:35.378Z</time></trkpt><trkpt lat="44.5446911" lon="5.4178247"><ele>919.0</ele><time>2026-05-01T12:49:36.378Z</time></trkpt><trkpt lat="44.5446445" lon="5.4179999"><ele>924.0</ele><time>2026-05-01T12:49:37.378Z</time></trkpt><trkpt lat="44.5446066" lon="5.4182168"><ele>929.0</ele><time>2026-05-01T12:49:38.378Z</time></trkpt><trkpt lat="44.5445754" lon="5.4184593"><ele>929.0</ele><time>2026-05-01T12:49:39.379Z</time></trkpt><trkpt lat="44.5445552" lon="5.4187088"><ele>929.0</ele><time>2026-05-01T12:49:40.378Z</time></trkpt><trkpt lat="44.5445359" lon="5.4189587"><ele>929.0</ele><time>2026-05-01T12:49:41.378Z</time></trkpt><trkpt lat="44.5444994" lon="5.4192027"><ele>920.3333333333334</ele><time>2026-05-01T12:49:42.378Z</time></trkpt><trkpt lat="44.5444319" lon="5.4194221"><ele>911.6666666666667</ele><time>2026-05-01T12:49:43.379Z</time></trkpt><trkpt lat="44.5443401" lon="5.4196145"><ele>903.0</ele><time>2026-05-01T12:49:44.378Z</time></trkpt><trkpt lat="44.5442551" lon="5.4197997"><ele>903.0</ele><time>2026-05-01T12:49:45.378Z</time></trkpt><trkpt lat="44.5442023" lon="5.4199988"><ele>903.0</ele><time>2026-05-01T12:49:46.378Z</time></trkpt><trkpt lat="44.5441781" lon="5.4202046"><ele>903.0</ele><time>2026-05-01T12:49:47.378Z</time></trkpt><trkpt lat="44.5441839" lon="5.4204231"><ele>902.0</ele><time>2026-05-01T12:49:48.378Z</time></trkpt><trkpt lat="44.5442062" lon="5.4206584"><ele>901.0</ele><time>2026-05-01T12:49:49.378Z</time></trkpt><trkpt lat="44.5442267" lon="5.4208853"><ele>900.0</ele><time>2026-05-01T12:49:50.378Z</time></trkpt><trkpt lat="44.5442247" lon="5.4210899"><ele>900.0</ele><time>2026-05-01T12:49:51.378Z</time></trkpt><trkpt lat="44.5441958" lon="5.42127"><ele>900.0</ele><time>2026-05-01T12:49:52.378Z</time></trkpt><trkpt lat="44.5441377" lon="5.4214371"><ele>900.0</ele><time>2026-05-01T12:49:53.378Z</time></trkpt><trkpt lat="44.5440541" lon="5.4215864"><ele>900.0</ele><time>2026-05-01T12:49:54.378Z</time></trkpt><trkpt lat="44.5439566" lon="5.4217315"><ele>901.3333333333333</ele><time>2026-05-01T12:49:55.378Z</time></trkpt><trkpt lat="44.5438794" lon="5.4219269"><ele>902.6666666666666</ele><time>2026-05-01T12:49:56.378Z</time></trkpt><trkpt lat="44.5438175" lon="5.422164"><ele>904.0</ele><time>2026-05-01T12:49:57.378Z</time></trkpt><trkpt lat="44.5437714" lon="5.4224171"><ele>909.3333333333333</ele><time>2026-05-01T12:49:58.377Z</time></trkpt><trkpt lat="44.543734" lon="5.4226665"><ele>914.6666666666667</ele><time>2026-05-01T12:49:59.377Z</time></trkpt><trkpt lat="44.5436741" lon="5.4229031"><ele>920.0</ele><time>2026-05-01T12:50:00.377Z</time></trkpt><trkpt lat="44.5435845" lon="5.4231285"><ele>909.3333333333334</ele><time>2026-05-01T12:50:01.377Z</time></trkpt><trkpt lat="44.5434719" lon="5.4233175"><ele>898.6666666666667</ele><time>2026-05-01T12:50:02.379Z</time></trkpt><trkpt lat="44.5433759" lon="5.4234988"><ele>888.0</ele><time>2026-05-01T12:50:03.378Z</time></trkpt><trkpt lat="44.5433137" lon="5.4237042"><ele>889.3333333333333</ele><time>2026-05-01T12:50:04.377Z</time></trkpt><trkpt lat="44.5432537" lon="5.4239026"><ele>890.6666666666666</ele><time>2026-05-01T12:50:05.377Z</time></trkpt><trkpt lat="44.5431586" lon="5.4240799"><ele>892.0</ele><time>2026-05-01T12:50:06.377Z</time></trkpt><trkpt lat="44.5430302" lon="5.4242491"><ele>891.6666666666666</ele><time>2026-05-01T12:50:07.377Z</time></trkpt><trkpt lat="44.5428793" lon="5.4244147"><ele>891.3333333333333</ele><time>2026-05-01T12:50:08.378Z</time></trkpt><trkpt lat="44.5427038" lon="5.4245811"><ele>891.0</ele><time>2026-05-01T12:50:09.377Z</time></trkpt><trkpt lat="44.5425141" lon="5.4247417"><ele>891.0</ele><time>2026-05-01T12:50:10.377Z</time></trkpt><trkpt lat="44.5423085" lon="5.4248803"><ele>891.0</ele><time>2026-05-01T12:50:11.377Z</time></trkpt><trkpt lat="44.5421065" lon="5.4250068"><ele>891.0</ele><time>2026-05-01T12:50:12.377Z</time></trkpt><trkpt lat="44.5419123" lon="5.425139"><ele>890.3333333333333</ele><time>2026-05-01T12:50:13.377Z</time></trkpt><trkpt lat="44.5417262" lon="5.4252726"><ele>889.6666666666666</ele><time>2026-05-01T12:50:14.377Z</time></trkpt><trkpt lat="44.5415467" lon="5.4254042"><ele>889.0</ele><time>2026-05-01T12:50:15.377Z</time></trkpt><trkpt lat="44.5413735" lon="5.4255345"><ele>884.6666666666666</ele><time>2026-05-01T12:50:16.378Z</time></trkpt><trkpt lat="44.541202" lon="5.4256556"><ele>880.3333333333333</ele><time>2026-05-01T12:50:17.377Z</time></trkpt><trkpt lat="44.5410165" lon="5.4257727"><ele>876.0</ele><time>2026-05-01T12:50:18.377Z</time></trkpt><trkpt lat="44.5408153" lon="5.4258716"><ele>876.0</ele><time>2026-05-01T12:50:19.377Z</time></trkpt><trkpt lat="44.5405975" lon="5.4259439"><ele>876.0</ele><time>2026-05-01T12:50:20.377Z</time></trkpt><trkpt lat="44.5403759" lon="5.4259988"><ele>876.0</ele><time>2026-05-01T12:50:21.377Z</time></trkpt><trkpt lat="44.5401569" lon="5.4260478"><ele>872.3333333333333</ele><time>2026-05-01T12:50:22.377Z</time></trkpt><trkpt lat="44.5399449" lon="5.4260886"><ele>868.6666666666666</ele><time>2026-05-01T12:50:23.377Z</time></trkpt><trkpt lat="44.5397374" lon="5.4261093"><ele>865.0</ele><time>2026-05-01T12:50:24.377Z</time></trkpt><trkpt lat="44.5395437" lon="5.4261119"><ele>863.3333333333333</ele><time>2026-05-01T12:50:25.377Z</time></trkpt><trkpt lat="44.5393661" lon="5.4261101"><ele>861.6666666666667</ele><time>2026-05-01T12:50:26.377Z</time></trkpt><trkpt lat="44.5391924" lon="5.4261297"><ele>860.0</ele><time>2026-05-01T12:50:27.377Z</time></trkpt><trkpt lat="44.5390192" lon="5.4261725"><ele>860.0</ele><time>2026-05-01T12:50:28.378Z</time></trkpt><trkpt lat="44.5388526" lon="5.4262238"><ele>860.0</ele><time>2026-05-01T12:50:29.377Z</time></trkpt><trkpt lat="44.5387084" lon="5.4262829"><ele>860.0</ele><time>2026-05-01T12:50:30.377Z</time></trkpt><trkpt lat="44.5385849" lon="5.4263815"><ele>860.0</ele><time>2026-05-01T12:50:31.378Z</time></trkpt><trkpt lat="44.5384879" lon="5.4265064"><ele>860.0</ele><time>2026-05-01T12:50:32.377Z</time></trkpt><trkpt lat="44.5384215" lon="5.4266229"><ele>860.0</ele><time>2026-05-01T12:50:33.377Z</time></trkpt><trkpt lat="44.5383703" lon="5.4267289"><ele>860.0</ele><time>2026-05-01T12:50:34.378Z</time></trkpt><trkpt lat="44.5383294" lon="5.426831"><ele>860.0</ele><time>2026-05-01T12:50:35.378Z</time></trkpt><trkpt lat="44.5382942" lon="5.4269377"><ele>860.0000000000001</ele><time>2026-05-01T12:50:36.377Z</time></trkpt><trkpt lat="44.5382632" lon="5.4270434"><ele>860.0</ele><time>2026-05-01T12:50:37.377Z</time></trkpt><trkpt lat="44.5382396" lon="5.4271309"><ele>860.0</ele><time>2026-05-01T12:50:38.377Z</time></trkpt><trkpt lat="44.5382175" lon="5.427216"><ele>860.0</ele><time>2026-05-01T12:50:39.377Z</time></trkpt><trkpt lat="44.5381753" lon="5.4273676"><ele>860.0000000000001</ele><time>2026-05-01T12:50:41.377Z</time></trkpt><trkpt lat="44.538127" lon="5.4275133"><ele>860.0</ele><time>2026-05-01T12:50:43.377Z</time></trkpt><trkpt lat="44.5380995" lon="5.4275943"><ele>860.3333333333334</ele><time>2026-05-01T12:50:44.378Z</time></trkpt><trkpt lat="44.5380744" lon="5.427676"><ele>860.6666666666667</ele><time>2026-05-01T12:50:45.377Z</time></trkpt><trkpt lat="44.5380275" lon="5.42782"><ele>861.0</ele><time>2026-05-01T12:50:47.378Z</time></trkpt><trkpt lat="44.5379354" lon="5.4279037"><ele>861.3333333333333</ele><time>2026-05-01T12:50:49.377Z</time></trkpt><trkpt lat="44.5378663" lon="5.4279076"><ele>861.6666666666666</ele><time>2026-05-01T12:50:50.378Z</time></trkpt><trkpt lat="44.537794" lon="5.4278846"><ele>862.0</ele><time>2026-05-01T12:50:51.377Z</time></trkpt><trkpt lat="44.5377211" lon="5.4278382"><ele>861.0</ele><time>2026-05-01T12:50:52.377Z</time></trkpt><trkpt lat="44.5376432" lon="5.4277944"><ele>860.0</ele><time>2026-05-01T12:50:53.377Z</time></trkpt><trkpt lat="44.5375612" lon="5.4278012"><ele>859.0</ele><time>2026-05-01T12:50:54.377Z</time></trkpt><trkpt lat="44.5374768" lon="5.4278439"><ele>858.0</ele><time>2026-05-01T12:50:55.377Z</time></trkpt><trkpt lat="44.537387" lon="5.4279304"><ele>857.0</ele><time>2026-05-01T12:50:56.378Z</time></trkpt><trkpt lat="44.5372873" lon="5.4280303"><ele>855.5</ele><time>2026-05-01T12:50:57.377Z</time></trkpt><trkpt lat="44.5371639" lon="5.4281147"><ele>854.0</ele><time>2026-05-01T12:50:58.377Z</time></trkpt><trkpt lat="44.537023" lon="5.4281793"><ele>852.5</ele><time>2026-05-01T12:50:59.377Z</time></trkpt><trkpt lat="44.5368703" lon="5.4282416"><ele>851.0</ele><time>2026-05-01T12:51:00.378Z</time></trkpt><trkpt lat="44.5367091" lon="5.4283077"><ele>851.0</ele><time>2026-05-01T12:51:01.377Z</time></trkpt><trkpt lat="44.5365405" lon="5.4283804"><ele>851.0</ele><time>2026-05-01T12:51:02.378Z</time></trkpt><trkpt lat="44.5363679" lon="5.4284609"><ele>851.0</ele><time>2026-05-01T12:51:03.377Z</time></trkpt><trkpt lat="44.5361936" lon="5.4285453"><ele>852.6666666666667</ele><time>2026-05-01T12:51:04.377Z</time></trkpt><trkpt lat="44.5360168" lon="5.4286318"><ele>854.3333333333333</ele><time>2026-05-01T12:51:05.377Z</time></trkpt><trkpt lat="44.5358388" lon="5.4287186"><ele>856.0</ele><time>2026-05-01T12:51:06.377Z</time></trkpt><trkpt lat="44.5356575" lon="5.4287942"><ele>852.0</ele><time>2026-05-01T12:51:07.378Z</time></trkpt><trkpt lat="44.5354762" lon="5.4288389"><ele>848.0</ele><time>2026-05-01T12:51:08.377Z</time></trkpt><trkpt lat="44.5352991" lon="5.4288626"><ele>844.0</ele><time>2026-05-01T12:51:09.377Z</time></trkpt><trkpt lat="44.5351153" lon="5.4289072"><ele>844.0</ele><time>2026-05-01T12:51:10.378Z</time></trkpt><trkpt lat="44.5349307" lon="5.428992"><ele>844.0</ele><time>2026-05-01T12:51:11.377Z</time></trkpt><trkpt lat="44.5347495" lon="5.4291085"><ele>844.0</ele><time>2026-05-01T12:51:12.378Z</time></trkpt><trkpt lat="44.534571" lon="5.4292466"><ele>842.6666666666666</ele><time>2026-05-01T12:51:13.377Z</time></trkpt><trkpt lat="44.5344003" lon="5.4294"><ele>841.3333333333333</ele><time>2026-05-01T12:51:14.377Z</time></trkpt><trkpt lat="44.534231" lon="5.42956"><ele>840.0</ele><time>2026-05-01T12:51:15.377Z</time></trkpt><trkpt lat="44.5340622" lon="5.4297287"><ele>840.0</ele><time>2026-05-01T12:51:16.377Z</time></trkpt><trkpt lat="44.5339005" lon="5.4299089"><ele>840.0</ele><time>2026-05-01T12:51:17.377Z</time></trkpt><trkpt lat="44.5337458" lon="5.430093"><ele>840.0</ele><time>2026-05-01T12:51:18.377Z</time></trkpt><trkpt lat="44.5335972" lon="5.430275"><ele>841.3333333333333</ele><time>2026-05-01T12:51:19.377Z</time></trkpt><trkpt lat="44.5334504" lon="5.4304541"><ele>842.6666666666666</ele><time>2026-05-01T12:51:20.377Z</time></trkpt><trkpt lat="44.5333047" lon="5.4306302"><ele>844.0</ele><time>2026-05-01T12:51:21.377Z</time></trkpt><trkpt lat="44.5331554" lon="5.4307894"><ele>842.6666666666666</ele><time>2026-05-01T12:51:22.378Z</time></trkpt><trkpt lat="44.5329976" lon="5.4309294"><ele>841.3333333333333</ele><time>2026-05-01T12:51:23.377Z</time></trkpt><trkpt lat="44.5328254" lon="5.431054"><ele>840.0</ele><time>2026-05-01T12:51:24.377Z</time></trkpt><trkpt lat="44.5326431" lon="5.4311684"><ele>840.0</ele><time>2026-05-01T12:51:25.377Z</time></trkpt><trkpt lat="44.5324581" lon="5.4312758"><ele>840.0</ele><time>2026-05-01T12:51:26.377Z</time></trkpt><trkpt lat="44.5322759" lon="5.4313719"><ele>840.0</ele><time>2026-05-01T12:51:27.377Z</time></trkpt><trkpt lat="44.5320962" lon="5.4314597"><ele>838.3333333333333</ele><time>2026-05-01T12:51:28.377Z</time></trkpt><trkpt lat="44.5319223" lon="5.4315474"><ele>836.6666666666666</ele><time>2026-05-01T12:51:29.377Z</time></trkpt><trkpt lat="44.53175" lon="5.4316281"><ele>835.0</ele><time>2026-05-01T12:51:30.377Z</time></trkpt><trkpt lat="44.5315771" lon="5.4316971"><ele>835.0</ele><time>2026-05-01T12:51:31.377Z</time></trkpt><trkpt lat="44.5314051" lon="5.4317548"><ele>835.0</ele><time>2026-05-01T12:51:32.379Z</time></trkpt><trkpt lat="44.5312347" lon="5.4318016"><ele>835.0</ele><time>2026-05-01T12:51:33.377Z</time></trkpt><trkpt lat="44.5310655" lon="5.4318355"><ele>837.3333333333333</ele><time>2026-05-01T12:51:34.377Z</time></trkpt><trkpt lat="44.5308987" lon="5.4318644"><ele>839.6666666666667</ele><time>2026-05-01T12:51:35.377Z</time></trkpt><trkpt lat="44.5307337" lon="5.4318985"><ele>842.0</ele><time>2026-05-01T12:51:36.378Z</time></trkpt><trkpt lat="44.5305545" lon="5.431942"><ele>843.0</ele><time>2026-05-01T12:51:37.377Z</time></trkpt><trkpt lat="44.5303669" lon="5.431991"><ele>844.0</ele><time>2026-05-01T12:51:38.377Z</time></trkpt><trkpt lat="44.5301714" lon="5.4320445"><ele>845.0</ele><time>2026-05-01T12:51:39.377Z</time></trkpt><trkpt lat="44.5299684" lon="5.4320991"><ele>838.3333333333334</ele><time>2026-05-01T12:51:40.377Z</time></trkpt><trkpt lat="44.5297551" lon="5.4321475"><ele>831.6666666666667</ele><time>2026-05-01T12:51:41.378Z</time></trkpt><trkpt lat="44.5295373" lon="5.4321855"><ele>825.0</ele><time>2026-05-01T12:51:42.377Z</time></trkpt><trkpt lat="44.5293192" lon="5.4322211"><ele>825.0</ele><time>2026-05-01T12:51:43.378Z</time></trkpt><trkpt lat="44.5291079" lon="5.4322532"><ele>825.0</ele><time>2026-05-01T12:51:44.377Z</time></trkpt><trkpt lat="44.5289028" lon="5.4322788"><ele>825.0</ele><time>2026-05-01T12:51:45.377Z</time></trkpt><trkpt lat="44.5287019" lon="5.4322904"><ele>825.3333333333333</ele><time>2026-05-01T12:51:46.377Z</time></trkpt><trkpt lat="44.5284968" lon="5.4322816"><ele>825.6666666666666</ele><time>2026-05-01T12:51:47.377Z</time></trkpt><trkpt lat="44.5282846" lon="5.4322589"><ele>826.0</ele><time>2026-05-01T12:51:48.378Z</time></trkpt><trkpt lat="44.5280694" lon="5.4322332"><ele>824.3333333333333</ele><time>2026-05-01T12:51:49.377Z</time></trkpt><trkpt lat="44.527861" lon="5.4322031"><ele>822.6666666666667</ele><time>2026-05-01T12:51:50.377Z</time></trkpt><trkpt lat="44.5276592" lon="5.4321511"><ele>821.0</ele><time>2026-05-01T12:51:51.377Z</time></trkpt><trkpt lat="44.5274611" lon="5.4320638"><ele>823.6666666666667</ele><time>2026-05-01T12:51:52.377Z</time></trkpt><trkpt lat="44.5272593" lon="5.4319592"><ele>826.3333333333333</ele><time>2026-05-01T12:51:53.377Z</time></trkpt><trkpt lat="44.5270458" lon="5.4318644"><ele>829.0</ele><time>2026-05-01T12:51:54.377Z</time></trkpt><trkpt lat="44.5268242" lon="5.4317853"><ele>829.0</ele><time>2026-05-01T12:51:55.378Z</time></trkpt><trkpt lat="44.5265986" lon="5.4317087"><ele>829.0</ele><time>2026-05-01T12:51:56.377Z</time></trkpt><trkpt lat="44.5263715" lon="5.4316335"><ele>823.5</ele><time>2026-05-01T12:51:57.377Z</time></trkpt><trkpt lat="44.526146" lon="5.4315538"><ele>818.0</ele><time>2026-05-01T12:51:58.377Z</time></trkpt><trkpt lat="44.5259303" lon="5.4314677"><ele>818.0</ele><time>2026-05-01T12:51:59.377Z</time></trkpt><trkpt lat="44.5257225" lon="5.4313781"><ele>818.0</ele><time>2026-05-01T12:52:00.377Z</time></trkpt><trkpt lat="44.5255157" lon="5.4312905"><ele>818.0</ele><time>2026-05-01T12:52:01.377Z</time></trkpt><trkpt lat="44.5253085" lon="5.4312049"><ele>820.3333333333334</ele><time>2026-05-01T12:52:02.377Z</time></trkpt><trkpt lat="44.5251116" lon="5.4311168"><ele>822.6666666666667</ele><time>2026-05-01T12:52:03.377Z</time></trkpt><trkpt lat="44.5249228" lon="5.4310177"><ele>825.0</ele><time>2026-05-01T12:52:04.377Z</time></trkpt><trkpt lat="44.5247401" lon="5.4309117"><ele>822.0</ele><time>2026-05-01T12:52:05.377Z</time></trkpt><trkpt lat="44.5245609" lon="5.4308028"><ele>819.0</ele><time>2026-05-01T12:52:06.378Z</time></trkpt><trkpt lat="44.5243774" lon="5.4306934"><ele>816.0</ele><time>2026-05-01T12:52:07.377Z</time></trkpt><trkpt lat="44.5241869" lon="5.430602"><ele>816.0</ele><time>2026-05-01T12:52:08.377Z</time></trkpt><trkpt lat="44.523989" lon="5.4305318"><ele>816.0</ele><time>2026-05-01T12:52:09.377Z</time></trkpt><trkpt lat="44.5237873" lon="5.4304787"><ele>816.0</ele><time>2026-05-01T12:52:10.377Z</time></trkpt><trkpt lat="44.5235841" lon="5.4304557"><ele>814.6666666666667</ele><time>2026-05-01T12:52:11.378Z</time></trkpt><trkpt lat="44.5233779" lon="5.4304761"><ele>813.3333333333334</ele><time>2026-05-01T12:52:12.377Z</time></trkpt><trkpt lat="44.523172" lon="5.4305266"><ele>812.0</ele><time>2026-05-01T12:52:13.378Z</time></trkpt><trkpt lat="44.5229645" lon="5.4305977"><ele>813.0</ele><time>2026-05-01T12:52:14.377Z</time></trkpt><trkpt lat="44.5227589" lon="5.4306797"><ele>814.0</ele><time>2026-05-01T12:52:15.377Z</time></trkpt><trkpt lat="44.5225519" lon="5.43077"><ele>815.0</ele><time>2026-05-01T12:52:16.377Z</time></trkpt><trkpt lat="44.5223416" lon="5.4308659"><ele>815.0</ele><time>2026-05-01T12:52:17.377Z</time></trkpt><trkpt lat="44.5221244" lon="5.4309706"><ele>815.0</ele><time>2026-05-01T12:52:18.377Z</time></trkpt><trkpt lat="44.521903" lon="5.4310844"><ele>815.5</ele><time>2026-05-01T12:52:19.378Z</time></trkpt><trkpt lat="44.5216752" lon="5.4312026"><ele>816.0</ele><time>2026-05-01T12:52:20.378Z</time></trkpt><trkpt lat="44.5214432" lon="5.431324"><ele>813.0</ele><time>2026-05-01T12:52:21.377Z</time></trkpt><trkpt lat="44.5212093" lon="5.4314475"><ele>810.0</ele><time>2026-05-01T12:52:22.377Z</time></trkpt><trkpt lat="44.5209727" lon="5.4315743"><ele>810.0</ele><time>2026-05-01T12:52:23.377Z</time></trkpt><trkpt lat="44.5207397" lon="5.4317035"><ele>810.0</ele><time>2026-05-01T12:52:24.377Z</time></trkpt><trkpt lat="44.52051" lon="5.4318301"><ele>816.5</ele><time>2026-05-01T12:52:25.377Z</time></trkpt><trkpt lat="44.5202853" lon="5.4319475"><ele>823.0</ele><time>2026-05-01T12:52:26.377Z</time></trkpt><trkpt lat="44.520068" lon="5.4320636"><ele>818.3333333333333</ele><time>2026-05-01T12:52:27.377Z</time></trkpt><trkpt lat="44.51986" lon="5.4321847"><ele>813.6666666666667</ele><time>2026-05-01T12:52:28.377Z</time></trkpt><trkpt lat="44.5196607" lon="5.4323069"><ele>809.0</ele><time>2026-05-01T12:52:29.377Z</time></trkpt><trkpt lat="44.5194735" lon="5.4324374"><ele>809.0</ele><time>2026-05-01T12:52:30.377Z</time></trkpt><trkpt lat="44.5193094" lon="5.4325664"><ele>809.0</ele><time>2026-05-01T12:52:31.378Z</time></trkpt><trkpt lat="44.5191617" lon="5.4326795"><ele>809.0</ele><time>2026-05-01T12:52:32.377Z</time></trkpt><trkpt lat="44.5190246" lon="5.4327462"><ele>809.0</ele><time>2026-05-01T12:52:33.377Z</time></trkpt><trkpt lat="44.5188725" lon="5.4327739"><ele>809.0</ele><time>2026-05-01T12:52:34.377Z</time></trkpt><trkpt lat="44.5187111" lon="5.4327599"><ele>809.0</ele><time>2026-05-01T12:52:35.377Z</time></trkpt><trkpt lat="44.5185444" lon="5.4327124"><ele>808.3333333333334</ele><time>2026-05-01T12:52:36.377Z</time></trkpt><trkpt lat="44.5183651" lon="5.432645"><ele>807.6666666666667</ele><time>2026-05-01T12:52:37.378Z</time></trkpt><trkpt lat="44.5181737" lon="5.4325797"><ele>807.0</ele><time>2026-05-01T12:52:38.377Z</time></trkpt><trkpt lat="44.5179721" lon="5.4325309"><ele>805.3333333333333</ele><time>2026-05-01T12:52:39.377Z</time></trkpt><trkpt lat="44.5177608" lon="5.4325065"><ele>803.6666666666666</ele><time>2026-05-01T12:52:40.377Z</time></trkpt><trkpt lat="44.5175413" lon="5.4324781"><ele>802.0</ele><time>2026-05-01T12:52:41.378Z</time></trkpt><trkpt lat="44.5173159" lon="5.4324304"><ele>802.0</ele><time>2026-05-01T12:52:42.377Z</time></trkpt><trkpt lat="44.5170942" lon="5.4323674"><ele>802.0</ele><time>2026-05-01T12:52:43.377Z</time></trkpt><trkpt lat="44.5168799" lon="5.4322924"><ele>802.0</ele><time>2026-05-01T12:52:44.378Z</time></trkpt><trkpt lat="44.5166758" lon="5.432207"><ele>802.6666666666666</ele><time>2026-05-01T12:52:45.378Z</time></trkpt><trkpt lat="44.5164835" lon="5.4321192"><ele>803.3333333333333</ele><time>2026-05-01T12:52:46.377Z</time></trkpt><trkpt lat="44.516316" lon="5.432046"><ele>804.0</ele><time>2026-05-01T12:52:47.377Z</time></trkpt><trkpt lat="44.5161733" lon="5.4319881"><ele>804.0</ele><time>2026-05-01T12:52:48.377Z</time></trkpt><trkpt lat="44.5160406" lon="5.4319584"><ele>804.0</ele><time>2026-05-01T12:52:49.377Z</time></trkpt><trkpt lat="44.5159059" lon="5.4319729"><ele>804.0</ele><time>2026-05-01T12:52:50.377Z</time></trkpt><trkpt lat="44.5157644" lon="5.4320412"><ele>804.0</ele><time>2026-05-01T12:52:51.377Z</time></trkpt><trkpt lat="44.5156128" lon="5.4321524"><ele>803.6666666666667</ele><time>2026-05-01T12:52:52.378Z</time></trkpt><trkpt lat="44.5154441" lon="5.4322869"><ele>803.3333333333334</ele><time>2026-05-01T12:52:53.377Z</time></trkpt><trkpt lat="44.5152558" lon="5.4324253"><ele>803.0</ele><time>2026-05-01T12:52:54.377Z</time></trkpt><trkpt lat="44.5150673" lon="5.4325469"><ele>803.0</ele><time>2026-05-01T12:52:55.378Z</time></trkpt><trkpt lat="44.5148649" lon="5.4326556"><ele>803.0</ele><time>2026-05-01T12:52:56.377Z</time></trkpt><trkpt lat="44.5146587" lon="5.4327673"><ele>803.0</ele><time>2026-05-01T12:52:57.377Z</time></trkpt><trkpt lat="44.5144532" lon="5.432898"><ele>798.6666666666667</ele><time>2026-05-01T12:52:58.377Z</time></trkpt><trkpt lat="44.5142509" lon="5.433034"><ele>794.3333333333333</ele><time>2026-05-01T12:52:59.378Z</time></trkpt><trkpt lat="44.514043" lon="5.4331473"><ele>790.0</ele><time>2026-05-01T12:53:00.377Z</time></trkpt><trkpt lat="44.5138202" lon="5.4332303"><ele>791.5</ele><time>2026-05-01T12:53:01.377Z</time></trkpt><trkpt lat="44.5135859" lon="5.4333034"><ele>793.0</ele><time>2026-05-01T12:53:02.377Z</time></trkpt><trkpt lat="44.5133487" lon="5.4333707"><ele>793.0</ele><time>2026-05-01T12:53:03.377Z</time></trkpt><trkpt lat="44.5131169" lon="5.433429"><ele>793.0</ele><time>2026-05-01T12:53:04.377Z</time></trkpt><trkpt lat="44.512892" lon="5.4334809"><ele>795.6666666666666</ele><time>2026-05-01T12:53:05.377Z</time></trkpt><trkpt lat="44.5126769" lon="5.4335454"><ele>798.3333333333333</ele><time>2026-05-01T12:53:06.377Z</time></trkpt><trkpt lat="44.5124656" lon="5.4336492"><ele>801.0</ele><time>2026-05-01T12:53:07.377Z</time></trkpt><trkpt lat="44.5122572" lon="5.4337855"><ele>799.0</ele><time>2026-05-01T12:53:08.377Z</time></trkpt><trkpt lat="44.512057" lon="5.433956"><ele>797.0</ele><time>2026-05-01T12:53:09.377Z</time></trkpt><trkpt lat="44.5118605" lon="5.4341304"><ele>797.0</ele><time>2026-05-01T12:53:10.377Z</time></trkpt><trkpt lat="44.511673" lon="5.4343108"><ele>797.0</ele><time>2026-05-01T12:53:11.377Z</time></trkpt><trkpt lat="44.5114929" lon="5.434492"><ele>797.0</ele><time>2026-05-01T12:53:12.377Z</time></trkpt><trkpt lat="44.511323" lon="5.4346773"><ele>799.0</ele><time>2026-05-01T12:53:13.377Z</time></trkpt><trkpt lat="44.5111673" lon="5.4348777"><ele>801.0</ele><time>2026-05-01T12:53:14.377Z</time></trkpt><trkpt lat="44.511036" lon="5.4350972"><ele>803.0</ele><time>2026-05-01T12:53:15.377Z</time></trkpt><trkpt lat="44.510927" lon="5.4353305"><ele>797.0</ele><time>2026-05-01T12:53:16.377Z</time></trkpt><trkpt lat="44.5108284" lon="5.4355709"><ele>791.0</ele><time>2026-05-01T12:53:17.377Z</time></trkpt><trkpt lat="44.510741" lon="5.4358337"><ele>785.0</ele><time>2026-05-01T12:53:18.378Z</time></trkpt><trkpt lat="44.5106712" lon="5.4360979"><ele>783.6666666666667</ele><time>2026-05-01T12:53:19.378Z</time></trkpt><trkpt lat="44.5106169" lon="5.4363619"><ele>782.3333333333333</ele><time>2026-05-01T12:53:20.378Z</time></trkpt><trkpt lat="44.5105745" lon="5.4366217"><ele>781.0</ele><time>2026-05-01T12:53:21.377Z</time></trkpt><trkpt lat="44.510532" lon="5.4368703"><ele>781.0</ele><time>2026-05-01T12:53:22.377Z</time></trkpt><trkpt lat="44.5104677" lon="5.4370885"><ele>781.0</ele><time>2026-05-01T12:53:23.378Z</time></trkpt><trkpt lat="44.5103776" lon="5.4372892"><ele>781.0</ele><time>2026-05-01T12:53:24.377Z</time></trkpt><trkpt lat="44.5102597" lon="5.437458"><ele>780.3333333333333</ele><time>2026-05-01T12:53:25.377Z</time></trkpt><trkpt lat="44.510119" lon="5.4375966"><ele>779.6666666666667</ele><time>2026-05-01T12:53:26.378Z</time></trkpt><trkpt lat="44.5099646" lon="5.4376893"><ele>779.0</ele><time>2026-05-01T12:53:27.378Z</time></trkpt><trkpt lat="44.5097925" lon="5.4377444"><ele>779.0</ele><time>2026-05-01T12:53:28.377Z</time></trkpt><trkpt lat="44.5096063" lon="5.4377754"><ele>779.0</ele><time>2026-05-01T12:53:29.377Z</time></trkpt><trkpt lat="44.5094077" lon="5.4377965"><ele>779.0</ele><time>2026-05-01T12:53:30.377Z</time></trkpt><trkpt lat="44.5091977" lon="5.4378149"><ele>779.0</ele><time>2026-05-01T12:53:31.377Z</time></trkpt><trkpt lat="44.5089847" lon="5.4378417"><ele>779.0</ele><time>2026-05-01T12:53:32.377Z</time></trkpt><trkpt lat="44.5087771" lon="5.4378785"><ele>779.0</ele><time>2026-05-01T12:53:33.378Z</time></trkpt><trkpt lat="44.5085767" lon="5.4379264"><ele>777.0</ele><time>2026-05-01T12:53:34.377Z</time></trkpt><trkpt lat="44.5083741" lon="5.4379883"><ele>775.0</ele><time>2026-05-01T12:53:35.378Z</time></trkpt><trkpt lat="44.5081782" lon="5.4380719"><ele>773.0</ele><time>2026-05-01T12:53:36.378Z</time></trkpt><trkpt lat="44.5079945" lon="5.4381677"><ele>773.0</ele><time>2026-05-01T12:53:37.377Z</time></trkpt><trkpt lat="44.5078245" lon="5.4382643"><ele>773.0</ele><time>2026-05-01T12:53:38.377Z</time></trkpt><trkpt lat="44.5076809" lon="5.4383417"><ele>773.0</ele><time>2026-05-01T12:53:39.378Z</time></trkpt><trkpt lat="44.5075578" lon="5.4383955"><ele>773.0</ele><time>2026-05-01T12:53:40.377Z</time></trkpt><trkpt lat="44.5074488" lon="5.4384292"><ele>773.0</ele><time>2026-05-01T12:53:41.377Z</time></trkpt><trkpt lat="44.5073405" lon="5.4384547"><ele>773.0</ele><time>2026-05-01T12:53:42.377Z</time></trkpt><trkpt lat="44.5072343" lon="5.4384748"><ele>773.0</ele><time>2026-05-01T12:53:43.377Z</time></trkpt><trkpt lat="44.5071429" lon="5.4384897"><ele>773.0</ele><time>2026-05-01T12:53:44.377Z</time></trkpt><trkpt lat="44.5070527" lon="5.4385013"><ele>773.1666666666667</ele><time>2026-05-01T12:53:45.378Z</time></trkpt><trkpt lat="44.5069639" lon="5.4385045"><ele>773.3333333333334</ele><time>2026-05-01T12:53:46.377Z</time></trkpt><trkpt lat="44.5068791" lon="5.4385065"><ele>773.5</ele><time>2026-05-01T12:53:47.377Z</time></trkpt><trkpt lat="44.5067954" lon="5.4385051"><ele>773.6666666666667</ele><time>2026-05-01T12:53:48.377Z</time></trkpt><trkpt lat="44.506709" lon="5.4384962"><ele>773.8333333333334</ele><time>2026-05-01T12:53:49.377Z</time></trkpt><trkpt lat="44.5066235" lon="5.4384756"><ele>774.0</ele><time>2026-05-01T12:53:50.377Z</time></trkpt><trkpt lat="44.5065406" lon="5.438447"><ele>774.0</ele><time>2026-05-01T12:53:51.378Z</time></trkpt><trkpt lat="44.506457" lon="5.4384193"><ele>774.0</ele><time>2026-05-01T12:53:52.377Z</time></trkpt><trkpt lat="44.506372" lon="5.4383926"><ele>774.0</ele><time>2026-05-01T12:53:53.378Z</time></trkpt><trkpt lat="44.506288" lon="5.4383672"><ele>774.0</ele><time>2026-05-01T12:53:54.378Z</time></trkpt><trkpt lat="44.5062063" lon="5.4383387"><ele>774.0</ele><time>2026-05-01T12:53:55.377Z</time></trkpt><trkpt lat="44.5061282" lon="5.4383087"><ele>774.0</ele><time>2026-05-01T12:53:56.378Z</time></trkpt><trkpt lat="44.5060469" lon="5.438281"><ele>773.0</ele><time>2026-05-01T12:53:57.377Z</time></trkpt><trkpt lat="44.5059642" lon="5.4382516"><ele>772.0</ele><time>2026-05-01T12:53:58.378Z</time></trkpt><trkpt lat="44.5058776" lon="5.4382202"><ele>771.0</ele><time>2026-05-01T12:53:59.377Z</time></trkpt><trkpt lat="44.5057867" lon="5.4381894"><ele>770.0</ele><time>2026-05-01T12:54:00.378Z</time></trkpt><trkpt lat="44.5056969" lon="5.4381609"><ele>769.0</ele><time>2026-05-01T12:54:01.377Z</time></trkpt><trkpt lat="44.5056074" lon="5.4381445"><ele>769.0</ele><time>2026-05-01T12:54:02.377Z</time></trkpt><trkpt lat="44.5055152" lon="5.4381402"><ele>769.0</ele><time>2026-05-01T12:54:03.377Z</time></trkpt><trkpt lat="44.5054178" lon="5.4381567"><ele>769.0</ele><time>2026-05-01T12:54:04.377Z</time></trkpt><trkpt lat="44.5053138" lon="5.4381948"><ele>769.0</ele><time>2026-05-01T12:54:05.377Z</time></trkpt><trkpt lat="44.5052061" lon="5.4382256"><ele>769.0</ele><time>2026-05-01T12:54:06.378Z</time></trkpt><trkpt lat="44.5050981" lon="5.4382449"><ele>769.0</ele><time>2026-05-01T12:54:07.377Z</time></trkpt><trkpt lat="44.5049888" lon="5.4382565"><ele>769.0</ele><time>2026-05-01T12:54:08.378Z</time></trkpt><trkpt lat="44.5048711" lon="5.4382563"><ele>769.0</ele><time>2026-05-01T12:54:09.377Z</time></trkpt><trkpt lat="44.5047482" lon="5.4382537"><ele>769.0</ele><time>2026-05-01T12:54:10.377Z</time></trkpt><trkpt lat="44.5046165" lon="5.4382643"><ele>770.0</ele><time>2026-05-01T12:54:11.377Z</time></trkpt><trkpt lat="44.5044815" lon="5.4383071"><ele>771.0</ele><time>2026-05-01T12:54:12.378Z</time></trkpt><trkpt lat="44.5043476" lon="5.4383952"><ele>772.0</ele><time>2026-05-01T12:54:13.377Z</time></trkpt><trkpt lat="44.5042206" lon="5.4385182"><ele>773.0</ele><time>2026-05-01T12:54:14.377Z</time></trkpt><trkpt lat="44.5041082" lon="5.4386728"><ele>771.0</ele><time>2026-05-01T12:54:15.377Z</time></trkpt><trkpt lat="44.504" lon="5.4388517"><ele>769.0</ele><time>2026-05-01T12:54:16.377Z</time></trkpt><trkpt lat="44.5038908" lon="5.4390343"><ele>767.0</ele><time>2026-05-01T12:54:17.377Z</time></trkpt><trkpt lat="44.5037829" lon="5.4392178"><ele>767.3333333333333</ele><time>2026-05-01T12:54:18.378Z</time></trkpt><trkpt lat="44.5036767" lon="5.4394006"><ele>767.6666666666666</ele><time>2026-05-01T12:54:19.378Z</time></trkpt><trkpt lat="44.5035699" lon="5.4395836"><ele>768.0</ele><time>2026-05-01T12:54:20.377Z</time></trkpt><trkpt lat="44.5034616" lon="5.4397643"><ele>766.3333333333334</ele><time>2026-05-01T12:54:21.377Z</time></trkpt><trkpt lat="44.5033565" lon="5.4399445"><ele>764.6666666666667</ele><time>2026-05-01T12:54:22.377Z</time></trkpt><trkpt lat="44.5032508" lon="5.4401338"><ele>763.0</ele><time>2026-05-01T12:54:23.377Z</time></trkpt><trkpt lat="44.5031412" lon="5.4403331"><ele>763.0</ele><time>2026-05-01T12:54:24.377Z</time></trkpt><trkpt lat="44.5030234" lon="5.440535"><ele>763.0</ele><time>2026-05-01T12:54:25.378Z</time></trkpt><trkpt lat="44.5028873" lon="5.4407179"><ele>763.0</ele><time>2026-05-01T12:54:26.377Z</time></trkpt><trkpt lat="44.5027266" lon="5.4408653"><ele>763.0</ele><time>2026-05-01T12:54:27.377Z</time></trkpt><trkpt lat="44.5025486" lon="5.4409876"><ele>763.0</ele><time>2026-05-01T12:54:28.377Z</time></trkpt><trkpt lat="44.5023631" lon="5.4410979"><ele>763.0</ele><time>2026-05-01T12:54:29.378Z</time></trkpt><trkpt lat="44.5021861" lon="5.4411976"><ele>763.0</ele><time>2026-05-01T12:54:30.377Z</time></trkpt><trkpt lat="44.502013" lon="5.4412865"><ele>763.0</ele><time>2026-05-01T12:54:31.377Z</time></trkpt><trkpt lat="44.501844" lon="5.4413604"><ele>763.0</ele><time>2026-05-01T12:54:32.378Z</time></trkpt><trkpt lat="44.5016794" lon="5.4414121"><ele>763.0</ele><time>2026-05-01T12:54:33.377Z</time></trkpt><trkpt lat="44.5015173" lon="5.4414288"><ele>763.0</ele><time>2026-05-01T12:54:34.378Z</time></trkpt><trkpt lat="44.5013605" lon="5.441426"><ele>763.0</ele><time>2026-05-01T12:54:35.378Z</time></trkpt><trkpt lat="44.5011966" lon="5.4414515"><ele>763.0</ele><time>2026-05-01T12:54:36.377Z</time></trkpt><trkpt lat="44.5010261" lon="5.4415263"><ele>763.0</ele><time>2026-05-01T12:54:37.377Z</time></trkpt><trkpt lat="44.500847" lon="5.4416279"><ele>763.0</ele><time>2026-05-01T12:54:38.377Z</time></trkpt><trkpt lat="44.5006726" lon="5.4417251"><ele>763.0</ele><time>2026-05-01T12:54:39.377Z</time></trkpt><trkpt lat="44.5005014" lon="5.4418174"><ele>763.0</ele><time>2026-05-01T12:54:40.377Z</time></trkpt><trkpt lat="44.5003328" lon="5.4419055"><ele>763.0</ele><time>2026-05-01T12:54:41.377Z</time></trkpt><trkpt lat="44.500165" lon="5.4419828"><ele>762.6666666666667</ele><time>2026-05-01T12:54:42.377Z</time></trkpt><trkpt lat="44.4999993" lon="5.4420444"><ele>762.3333333333334</ele><time>2026-05-01T12:54:43.377Z</time></trkpt><trkpt lat="44.4998368" lon="5.4420949"><ele>762.0</ele><time>2026-05-01T12:54:44.377Z</time></trkpt><trkpt lat="44.4996818" lon="5.4421491"><ele>762.0</ele><time>2026-05-01T12:54:45.377Z</time></trkpt><trkpt lat="44.4995479" lon="5.4422313"><ele>762.0</ele><time>2026-05-01T12:54:46.378Z</time></trkpt><trkpt lat="44.4994345" lon="5.442356"><ele>762.0</ele><time>2026-05-01T12:54:47.377Z</time></trkpt><trkpt lat="44.4993334" lon="5.4425209"><ele>762.0</ele><time>2026-05-01T12:54:48.377Z</time></trkpt><trkpt lat="44.4992238" lon="5.4426936"><ele>762.0</ele><time>2026-05-01T12:54:49.377Z</time></trkpt><trkpt lat="44.4990876" lon="5.4428329"><ele>762.0</ele><time>2026-05-01T12:54:50.377Z</time></trkpt><trkpt lat="44.4989361" lon="5.4429234"><ele>762.0</ele><time>2026-05-01T12:54:51.377Z</time></trkpt><trkpt lat="44.4987696" lon="5.4429606"><ele>764.3333333333333</ele><time>2026-05-01T12:54:52.378Z</time></trkpt><trkpt lat="44.4985893" lon="5.4429424"><ele>766.6666666666666</ele><time>2026-05-01T12:54:53.377Z</time></trkpt><trkpt lat="44.4983892" lon="5.4429181"><ele>769.0</ele><time>2026-05-01T12:54:54.378Z</time></trkpt><trkpt lat="44.4981779" lon="5.4429293"><ele>767.3333333333333</ele><time>2026-05-01T12:54:55.377Z</time></trkpt><trkpt lat="44.4979639" lon="5.442965"><ele>765.6666666666666</ele><time>2026-05-01T12:54:56.377Z</time></trkpt><trkpt lat="44.4977604" lon="5.4429842"><ele>764.0</ele><time>2026-05-01T12:54:57.377Z</time></trkpt><trkpt lat="44.4975584" lon="5.4429693"><ele>762.3333333333333</ele><time>2026-05-01T12:54:58.377Z</time></trkpt><trkpt lat="44.4973823" lon="5.4429262"><ele>760.6666666666666</ele><time>2026-05-01T12:54:59.377Z</time></trkpt><trkpt lat="44.4972297" lon="5.4429004"><ele>759.0</ele><time>2026-05-01T12:55:00.377Z</time></trkpt><trkpt lat="44.4970836" lon="5.4429122"><ele>758.3333333333334</ele><time>2026-05-01T12:55:01.378Z</time></trkpt><trkpt lat="44.4969568" lon="5.4429727"><ele>757.6666666666667</ele><time>2026-05-01T12:55:02.378Z</time></trkpt><trkpt lat="44.4968333" lon="5.4430913"><ele>757.0</ele><time>2026-05-01T12:55:03.377Z</time></trkpt><trkpt lat="44.4967111" lon="5.4432535"><ele>757.0</ele><time>2026-05-01T12:55:04.377Z</time></trkpt><trkpt lat="44.4965789" lon="5.4434452"><ele>757.0</ele><time>2026-05-01T12:55:05.377Z</time></trkpt><trkpt lat="44.4964346" lon="5.4436377"><ele>757.0</ele><time>2026-05-01T12:55:06.377Z</time></trkpt><trkpt lat="44.4962733" lon="5.4437964"><ele>757.6666666666667</ele><time>2026-05-01T12:55:07.377Z</time></trkpt><trkpt lat="44.496097" lon="5.4439078"><ele>758.3333333333334</ele><time>2026-05-01T12:55:08.378Z</time></trkpt><trkpt lat="44.4959248" lon="5.4440348"><ele>759.0</ele><time>2026-05-01T12:55:09.377Z</time></trkpt><trkpt lat="44.4957569" lon="5.4442089"><ele>759.0</ele><time>2026-05-01T12:55:10.377Z</time></trkpt><trkpt lat="44.4955961" lon="5.4444007"><ele>759.0</ele><time>2026-05-01T12:55:11.377Z</time></trkpt><trkpt lat="44.4954223" lon="5.4445723"><ele>759.0</ele><time>2026-05-01T12:55:12.377Z</time></trkpt><trkpt lat="44.4952234" lon="5.4447097"><ele>761.0</ele><time>2026-05-01T12:55:13.378Z</time></trkpt><trkpt lat="44.4950146" lon="5.4448242"><ele>763.0</ele><time>2026-05-01T12:55:14.378Z</time></trkpt><trkpt lat="44.4948145" lon="5.4449248"><ele>765.0</ele><time>2026-05-01T12:55:15.377Z</time></trkpt><trkpt lat="44.4946268" lon="5.445"><ele>764.3333333333334</ele><time>2026-05-01T12:55:16.377Z</time></trkpt><trkpt lat="44.4944377" lon="5.4450353"><ele>763.6666666666667</ele><time>2026-05-01T12:55:17.377Z</time></trkpt><trkpt lat="44.4942423" lon="5.4450153"><ele>763.0</ele><time>2026-05-01T12:55:18.377Z</time></trkpt><trkpt lat="44.4940407" lon="5.4449571"><ele>763.0</ele><time>2026-05-01T12:55:19.377Z</time></trkpt><trkpt lat="44.4938232" lon="5.4448997"><ele>763.0</ele><time>2026-05-01T12:55:20.377Z</time></trkpt><trkpt lat="44.493598" lon="5.444827"><ele>764.6666666666667</ele><time>2026-05-01T12:55:21.377Z</time></trkpt><trkpt lat="44.4933798" lon="5.4447414"><ele>766.3333333333334</ele><time>2026-05-01T12:55:22.377Z</time></trkpt><trkpt lat="44.4931683" lon="5.4446578"><ele>768.0</ele><time>2026-05-01T12:55:23.377Z</time></trkpt><trkpt lat="44.4929623" lon="5.4445756"><ele>763.0</ele><time>2026-05-01T12:55:24.377Z</time></trkpt><trkpt lat="44.4927646" lon="5.4444889"><ele>758.0</ele><time>2026-05-01T12:55:25.377Z</time></trkpt><trkpt lat="44.4925803" lon="5.4443912"><ele>753.0</ele><time>2026-05-01T12:55:26.377Z</time></trkpt><trkpt lat="44.4924027" lon="5.4442832"><ele>753.0</ele><time>2026-05-01T12:55:27.377Z</time></trkpt><trkpt lat="44.4922211" lon="5.4441668"><ele>753.0</ele><time>2026-05-01T12:55:28.378Z</time></trkpt><trkpt lat="44.4920897" lon="5.4439742"><ele>753.0</ele><time>2026-05-01T12:55:29.377Z</time></trkpt><trkpt lat="44.4919572" lon="5.4437947"><ele>750.3333333333334</ele><time>2026-05-01T12:55:30.377Z</time></trkpt><trkpt lat="44.4918389" lon="5.4436058"><ele>747.6666666666667</ele><time>2026-05-01T12:55:31.378Z</time></trkpt><trkpt lat="44.491732" lon="5.4434218"><ele>745.0</ele><time>2026-05-01T12:55:32.377Z</time></trkpt><trkpt lat="44.4916223" lon="5.4432773"><ele>745.0</ele><time>2026-05-01T12:55:33.377Z</time></trkpt><trkpt lat="44.4914974" lon="5.4431687"><ele>745.0</ele><time>2026-05-01T12:55:34.377Z</time></trkpt><trkpt lat="44.4913629" lon="5.4431107"><ele>745.0</ele><time>2026-05-01T12:55:35.377Z</time></trkpt><trkpt lat="44.4912105" lon="5.4431018"><ele>745.0</ele><time>2026-05-01T12:55:36.377Z</time></trkpt><trkpt lat="44.4910438" lon="5.443142"><ele>745.0</ele><time>2026-05-01T12:55:37.377Z</time></trkpt><trkpt lat="44.4908744" lon="5.4431948"><ele>745.0</ele><time>2026-05-01T12:55:38.377Z</time></trkpt><trkpt lat="44.4907079" lon="5.4432285"><ele>745.0</ele><time>2026-05-01T12:55:39.377Z</time></trkpt><trkpt lat="44.4905415" lon="5.4432348"><ele>744.0</ele><time>2026-05-01T12:55:40.377Z</time></trkpt><trkpt lat="44.490379" lon="5.4432192"><ele>743.0</ele><time>2026-05-01T12:55:41.378Z</time></trkpt><trkpt lat="44.4902197" lon="5.4431967"><ele>742.0</ele><time>2026-05-01T12:55:42.377Z</time></trkpt><trkpt lat="44.4900629" lon="5.4431713"><ele>742.0</ele><time>2026-05-01T12:55:43.377Z</time></trkpt><trkpt lat="44.4899098" lon="5.4431502"><ele>742.0</ele><time>2026-05-01T12:55:44.377Z</time></trkpt><trkpt lat="44.4897525" lon="5.4431488"><ele>742.0</ele><time>2026-05-01T12:55:45.377Z</time></trkpt><trkpt lat="44.4895772" lon="5.4431826"><ele>738.3333333333334</ele><time>2026-05-01T12:55:46.378Z</time></trkpt><trkpt lat="44.4894049" lon="5.4432671"><ele>734.6666666666666</ele><time>2026-05-01T12:55:47.378Z</time></trkpt><trkpt lat="44.4892328" lon="5.4434055"><ele>731.0</ele><time>2026-05-01T12:55:48.377Z</time></trkpt><trkpt lat="44.4890654" lon="5.443585"><ele>731.0</ele><time>2026-05-01T12:55:49.377Z</time></trkpt><trkpt lat="44.4888932" lon="5.4437598"><ele>731.0</ele><time>2026-05-01T12:55:50.377Z</time></trkpt><trkpt lat="44.4887129" lon="5.4439021"><ele>731.0</ele><time>2026-05-01T12:55:51.377Z</time></trkpt><trkpt lat="44.4885404" lon="5.4440676"><ele>732.3333333333333</ele><time>2026-05-01T12:55:52.377Z</time></trkpt><trkpt lat="44.4883821" lon="5.4442823"><ele>733.6666666666666</ele><time>2026-05-01T12:55:53.377Z</time></trkpt><trkpt lat="44.488233" lon="5.4445215"><ele>735.0</ele><time>2026-05-01T12:55:54.377Z</time></trkpt><trkpt lat="44.488073" lon="5.4447448"><ele>726.6666666666666</ele><time>2026-05-01T12:55:55.377Z</time></trkpt><trkpt lat="44.487908" lon="5.4449554"><ele>718.3333333333333</ele><time>2026-05-01T12:55:56.377Z</time></trkpt><trkpt lat="44.4877619" lon="5.4451847"><ele>710.0</ele><time>2026-05-01T12:55:57.377Z</time></trkpt><trkpt lat="44.4876322" lon="5.4454492"><ele>713.3333333333333</ele><time>2026-05-01T12:55:58.378Z</time></trkpt><trkpt lat="44.487518" lon="5.4457171"><ele>716.6666666666666</ele><time>2026-05-01T12:55:59.377Z</time></trkpt><trkpt lat="44.4873874" lon="5.4459447"><ele>720.0</ele><time>2026-05-01T12:56:00.377Z</time></trkpt><trkpt lat="44.4872336" lon="5.4461304"><ele>717.3333333333334</ele><time>2026-05-01T12:56:01.377Z</time></trkpt><trkpt lat="44.4870584" lon="5.4462824"><ele>714.6666666666667</ele><time>2026-05-01T12:56:02.377Z</time></trkpt><trkpt lat="44.4868678" lon="5.4464345"><ele>712.0</ele><time>2026-05-01T12:56:03.377Z</time></trkpt><trkpt lat="44.4866723" lon="5.4466105"><ele>712.0</ele><time>2026-05-01T12:56:04.377Z</time></trkpt><trkpt lat="44.4864791" lon="5.4468008"><ele>712.0</ele><time>2026-05-01T12:56:05.377Z</time></trkpt><trkpt lat="44.4862938" lon="5.4469897"><ele>710.6666666666667</ele><time>2026-05-01T12:56:06.377Z</time></trkpt><trkpt lat="44.4861188" lon="5.4471822"><ele>709.3333333333334</ele><time>2026-05-01T12:56:07.377Z</time></trkpt><trkpt lat="44.4859635" lon="5.4473957"><ele>708.0</ele><time>2026-05-01T12:56:08.377Z</time></trkpt><trkpt lat="44.4858297" lon="5.4476232"><ele>708.0</ele><time>2026-05-01T12:56:09.377Z</time></trkpt><trkpt lat="44.4857125" lon="5.4478524"><ele>708.0</ele><time>2026-05-01T12:56:10.377Z</time></trkpt><trkpt lat="44.4856099" lon="5.4480375"><ele>708.0</ele><time>2026-05-01T12:56:11.377Z</time></trkpt><trkpt lat="44.4855053" lon="5.4481789"><ele>708.25</ele><time>2026-05-01T12:56:12.377Z</time></trkpt><trkpt lat="44.4853889" lon="5.4482723"><ele>708.5</ele><time>2026-05-01T12:56:13.377Z</time></trkpt><trkpt lat="44.4852572" lon="5.4483108"><ele>708.75</ele><time>2026-05-01T12:56:14.378Z</time></trkpt><trkpt lat="44.4851135" lon="5.4482924"><ele>709.0</ele><time>2026-05-01T12:56:15.378Z</time></trkpt><trkpt lat="44.4849492" lon="5.4482402"><ele>709.0</ele><time>2026-05-01T12:56:16.377Z</time></trkpt><trkpt lat="44.4847612" lon="5.4482098"><ele>709.0</ele><time>2026-05-01T12:56:17.377Z</time></trkpt><trkpt lat="44.4845654" lon="5.4481876"><ele>709.0</ele><time>2026-05-01T12:56:18.379Z</time></trkpt><trkpt lat="44.4843721" lon="5.4481512"><ele>706.6666666666667</ele><time>2026-05-01T12:56:19.377Z</time></trkpt><trkpt lat="44.4841743" lon="5.4481328"><ele>704.3333333333334</ele><time>2026-05-01T12:56:20.377Z</time></trkpt><trkpt lat="44.4839633" lon="5.4481571"><ele>702.0</ele><time>2026-05-01T12:56:21.378Z</time></trkpt><trkpt lat="44.4837516" lon="5.4482264"><ele>697.3333333333334</ele><time>2026-05-01T12:56:22.378Z</time></trkpt><trkpt lat="44.4835409" lon="5.4483396"><ele>692.6666666666667</ele><time>2026-05-01T12:56:23.377Z</time></trkpt><trkpt lat="44.4833464" lon="5.4484793"><ele>688.0</ele><time>2026-05-01T12:56:24.377Z</time></trkpt><trkpt lat="44.4831659" lon="5.4486185"><ele>688.0</ele><time>2026-05-01T12:56:25.377Z</time></trkpt><trkpt lat="44.4829933" lon="5.4487096"><ele>688.0</ele><time>2026-05-01T12:56:26.378Z</time></trkpt><trkpt lat="44.4828252" lon="5.4487483"><ele>688.0</ele><time>2026-05-01T12:56:27.377Z</time></trkpt><trkpt lat="44.4826598" lon="5.4487398"><ele>684.3333333333334</ele><time>2026-05-01T12:56:28.377Z</time></trkpt><trkpt lat="44.4824993" lon="5.4487162"><ele>680.6666666666666</ele><time>2026-05-01T12:56:29.377Z</time></trkpt><trkpt lat="44.4823413" lon="5.4487328"><ele>677.0</ele><time>2026-05-01T12:56:30.378Z</time></trkpt><trkpt lat="44.4821925" lon="5.4487916"><ele>675.6666666666666</ele><time>2026-05-01T12:56:31.377Z</time></trkpt><trkpt lat="44.4820561" lon="5.448896"><ele>674.3333333333334</ele><time>2026-05-01T12:56:32.377Z</time></trkpt><trkpt lat="44.4819339" lon="5.4490527"><ele>673.0</ele><time>2026-05-01T12:56:33.379Z</time></trkpt><trkpt lat="44.4818412" lon="5.4492468"><ele>673.0</ele><time>2026-05-01T12:56:34.377Z</time></trkpt><trkpt lat="44.4817589" lon="5.4494768"><ele>673.0</ele><time>2026-05-01T12:56:35.379Z</time></trkpt><trkpt lat="44.4816578" lon="5.4497215"><ele>673.0</ele><time>2026-05-01T12:56:36.377Z</time></trkpt><trkpt lat="44.481529" lon="5.4499609"><ele>673.6666666666667</ele><time>2026-05-01T12:56:37.377Z</time></trkpt><trkpt lat="44.4813849" lon="5.4501868"><ele>674.3333333333334</ele><time>2026-05-01T12:56:38.377Z</time></trkpt><trkpt lat="44.4812409" lon="5.4504001"><ele>675.0</ele><time>2026-05-01T12:56:39.377Z</time></trkpt><trkpt lat="44.481097" lon="5.4506102"><ele>670.0</ele><time>2026-05-01T12:56:40.377Z</time></trkpt><trkpt lat="44.4809558" lon="5.4508153"><ele>665.0</ele><time>2026-05-01T12:56:41.377Z</time></trkpt><trkpt lat="44.4808124" lon="5.4510047"><ele>660.0</ele><time>2026-05-01T12:56:42.377Z</time></trkpt><trkpt lat="44.4806576" lon="5.4511679"><ele>660.6666666666666</ele><time>2026-05-01T12:56:43.377Z</time></trkpt><trkpt lat="44.4804946" lon="5.4513031"><ele>661.3333333333333</ele><time>2026-05-01T12:56:44.377Z</time></trkpt><trkpt lat="44.4803245" lon="5.4514062"><ele>662.0</ele><time>2026-05-01T12:56:45.377Z</time></trkpt><trkpt lat="44.4801467" lon="5.451459"><ele>662.0</ele><time>2026-05-01T12:56:46.378Z</time></trkpt><trkpt lat="44.4799565" lon="5.4514744"><ele>662.0</ele><time>2026-05-01T12:56:47.377Z</time></trkpt><trkpt lat="44.4797649" lon="5.4514768"><ele>662.0</ele><time>2026-05-01T12:56:48.377Z</time></trkpt><trkpt lat="44.4795953" lon="5.4514883"><ele>659.75</ele><time>2026-05-01T12:56:49.377Z</time></trkpt><trkpt lat="44.4794429" lon="5.4515291"><ele>657.5</ele><time>2026-05-01T12:56:50.378Z</time></trkpt><trkpt lat="44.479304" lon="5.4516081"><ele>655.25</ele><time>2026-05-01T12:56:51.377Z</time></trkpt><trkpt lat="44.4791985" lon="5.4517163"><ele>653.0</ele><time>2026-05-01T12:56:52.377Z</time></trkpt><trkpt lat="44.4791231" lon="5.4518343"><ele>653.0</ele><time>2026-05-01T12:56:53.377Z</time></trkpt><trkpt lat="44.4790588" lon="5.4519479"><ele>653.0</ele><time>2026-05-01T12:56:54.377Z</time></trkpt><trkpt lat="44.4790006" lon="5.4520203"><ele>653.0</ele><time>2026-05-01T12:56:55.378Z</time></trkpt><trkpt lat="44.4789408" lon="5.4520683"><ele>653.0</ele><time>2026-05-01T12:56:56.377Z</time></trkpt><trkpt lat="44.4788724" lon="5.452098"><ele>653.0</ele><time>2026-05-01T12:56:57.378Z</time></trkpt><trkpt lat="44.4787915" lon="5.452122"><ele>653.0</ele><time>2026-05-01T12:56:58.377Z</time></trkpt><trkpt lat="44.4786942" lon="5.4521625"><ele>654.0</ele><time>2026-05-01T12:56:59.377Z</time></trkpt><trkpt lat="44.47858" lon="5.4521978"><ele>655.0</ele><time>2026-05-01T12:57:00.378Z</time></trkpt><trkpt lat="44.478452" lon="5.4522147"><ele>656.0</ele><time>2026-05-01T12:57:01.377Z</time></trkpt><trkpt lat="44.4783244" lon="5.4522096"><ele>657.0</ele><time>2026-05-01T12:57:02.377Z</time></trkpt><trkpt lat="44.4781898" lon="5.4521849"><ele>657.0</ele><time>2026-05-01T12:57:03.377Z</time></trkpt><trkpt lat="44.4780494" lon="5.4521451"><ele>657.0</ele><time>2026-05-01T12:57:04.377Z</time></trkpt><trkpt lat="44.4779084" lon="5.4521054"><ele>657.0</ele><time>2026-05-01T12:57:05.377Z</time></trkpt><trkpt lat="44.4777741" lon="5.4520789"><ele>657.0</ele><time>2026-05-01T12:57:06.377Z</time></trkpt><trkpt lat="44.4776474" lon="5.4520872"><ele>655.5</ele><time>2026-05-01T12:57:07.377Z</time></trkpt><trkpt lat="44.4775307" lon="5.452136"><ele>654.0</ele><time>2026-05-01T12:57:08.377Z</time></trkpt><trkpt lat="44.4774257" lon="5.4522169"><ele>652.5</ele><time>2026-05-01T12:57:09.377Z</time></trkpt><trkpt lat="44.4773212" lon="5.4523205"><ele>651.0</ele><time>2026-05-01T12:57:10.377Z</time></trkpt><trkpt lat="44.4772086" lon="5.4524267"><ele>653.3333333333334</ele><time>2026-05-01T12:57:11.378Z</time></trkpt><trkpt lat="44.4770766" lon="5.4525155"><ele>655.6666666666667</ele><time>2026-05-01T12:57:12.378Z</time></trkpt><trkpt lat="44.4769326" lon="5.4525887"><ele>658.0</ele><time>2026-05-01T12:57:13.377Z</time></trkpt><trkpt lat="44.4767873" lon="5.4526871"><ele>658.0</ele><time>2026-05-01T12:57:14.377Z</time></trkpt><trkpt lat="44.4766491" lon="5.4528178"><ele>658.0</ele><time>2026-05-01T12:57:15.378Z</time></trkpt><trkpt lat="44.4765252" lon="5.4529716"><ele>658.0</ele><time>2026-05-01T12:57:16.377Z</time></trkpt><trkpt lat="44.4764093" lon="5.4531272"><ele>653.6666666666667</ele><time>2026-05-01T12:57:17.377Z</time></trkpt><trkpt lat="44.4763035" lon="5.4532874"><ele>649.3333333333334</ele><time>2026-05-01T12:57:18.378Z</time></trkpt><trkpt lat="44.4762075" lon="5.4534474"><ele>645.0</ele><time>2026-05-01T12:57:19.377Z</time></trkpt><trkpt lat="44.4761145" lon="5.4536027"><ele>644.3333333333334</ele><time>2026-05-01T12:57:20.377Z</time></trkpt><trkpt lat="44.4760253" lon="5.4537585"><ele>643.6666666666667</ele><time>2026-05-01T12:57:21.377Z</time></trkpt><trkpt lat="44.4759274" lon="5.4539307"><ele>643.0</ele><time>2026-05-01T12:57:22.378Z</time></trkpt><trkpt lat="44.4758196" lon="5.4541239"><ele>641.3333333333334</ele><time>2026-05-01T12:57:23.377Z</time></trkpt><trkpt lat="44.4757055" lon="5.4543259"><ele>639.6666666666666</ele><time>2026-05-01T12:57:24.378Z</time></trkpt><trkpt lat="44.4755939" lon="5.4545176"><ele>638.0</ele><time>2026-05-01T12:57:25.378Z</time></trkpt><trkpt lat="44.4754802" lon="5.4546682"><ele>635.0</ele><time>2026-05-01T12:57:26.377Z</time></trkpt><trkpt lat="44.4753533" lon="5.4547638"><ele>632.0</ele><time>2026-05-01T12:57:27.377Z</time></trkpt><trkpt lat="44.4752118" lon="5.4548029"><ele>629.0</ele><time>2026-05-01T12:57:28.377Z</time></trkpt><trkpt lat="44.4750626" lon="5.4547919"><ele>626.0</ele><time>2026-05-01T12:57:29.377Z</time></trkpt><trkpt lat="44.4749029" lon="5.4547114"><ele>626.0</ele><time>2026-05-01T12:57:30.378Z</time></trkpt><trkpt lat="44.4747325" lon="5.4546145"><ele>626.0</ele><time>2026-05-01T12:57:31.377Z</time></trkpt><trkpt lat="44.4745518" lon="5.4545147"><ele>626.0</ele><time>2026-05-01T12:57:32.377Z</time></trkpt><trkpt lat="44.4743667" lon="5.4544116"><ele>624.0</ele><time>2026-05-01T12:57:33.378Z</time></trkpt><trkpt lat="44.4741897" lon="5.4543023"><ele>622.0</ele><time>2026-05-01T12:57:34.378Z</time></trkpt><trkpt lat="44.4740223" lon="5.4541674"><ele>620.0</ele><time>2026-05-01T12:57:35.377Z</time></trkpt><trkpt lat="44.4738648" lon="5.4540014"><ele>619.6666666666666</ele><time>2026-05-01T12:57:36.377Z</time></trkpt><trkpt lat="44.4737355" lon="5.4538048"><ele>619.3333333333334</ele><time>2026-05-01T12:57:37.378Z</time></trkpt><trkpt lat="44.4736341" lon="5.4535938"><ele>619.0</ele><time>2026-05-01T12:57:38.377Z</time></trkpt><trkpt lat="44.4735319" lon="5.4533975"><ele>619.0</ele><time>2026-05-01T12:57:39.377Z</time></trkpt><trkpt lat="44.4734064" lon="5.453228"><ele>619.0</ele><time>2026-05-01T12:57:40.377Z</time></trkpt><trkpt lat="44.4732629" lon="5.4530864"><ele>619.0</ele><time>2026-05-01T12:57:41.377Z</time></trkpt><trkpt lat="44.4731038" lon="5.4529753"><ele>618.6666666666667</ele><time>2026-05-01T12:57:42.377Z</time></trkpt><trkpt lat="44.472933" lon="5.4528986"><ele>618.3333333333334</ele><time>2026-05-01T12:57:43.377Z</time></trkpt><trkpt lat="44.472759" lon="5.4528412"><ele>618.0</ele><time>2026-05-01T12:57:44.379Z</time></trkpt><trkpt lat="44.4725908" lon="5.4527731"><ele>618.0</ele><time>2026-05-01T12:57:45.377Z</time></trkpt><trkpt lat="44.4724387" lon="5.452674"><ele>618.0</ele><time>2026-05-01T12:57:46.377Z</time></trkpt><trkpt lat="44.4723023" lon="5.4525611"><ele>618.0</ele><time>2026-05-01T12:57:47.377Z</time></trkpt><trkpt lat="44.4721886" lon="5.4524526"><ele>617.75</ele><time>2026-05-01T12:57:48.378Z</time></trkpt><trkpt lat="44.4720867" lon="5.4523475"><ele>617.5</ele><time>2026-05-01T12:57:49.377Z</time></trkpt><trkpt lat="44.471993" lon="5.4522468"><ele>617.25</ele><time>2026-05-01T12:57:50.377Z</time></trkpt><trkpt lat="44.4719046" lon="5.4521482"><ele>617.0</ele><time>2026-05-01T12:57:51.377Z</time></trkpt><trkpt lat="44.4718203" lon="5.4520533"><ele>617.0</ele><time>2026-05-01T12:57:52.377Z</time></trkpt><trkpt lat="44.4717293" lon="5.451963"><ele>617.0</ele><time>2026-05-01T12:57:53.377Z</time></trkpt><trkpt lat="44.4716348" lon="5.451873"><ele>617.0</ele><time>2026-05-01T12:57:54.377Z</time></trkpt><trkpt lat="44.4715463" lon="5.4517827"><ele>617.0</ele><time>2026-05-01T12:57:55.377Z</time></trkpt><trkpt lat="44.4714691" lon="5.4516897"><ele>617.0</ele><time>2026-05-01T12:57:56.377Z</time></trkpt><trkpt lat="44.4714039" lon="5.45159"><ele>617.0</ele><time>2026-05-01T12:57:57.377Z</time></trkpt><trkpt lat="44.4713486" lon="5.4514745"><ele>617.0</ele><time>2026-05-01T12:57:58.377Z</time></trkpt><trkpt lat="44.4712999" lon="5.4513498"><ele>617.0</ele><time>2026-05-01T12:57:59.377Z</time></trkpt><trkpt lat="44.471255" lon="5.4512174"><ele>617.0</ele><time>2026-05-01T12:58:00.377Z</time></trkpt><trkpt lat="44.4712064" lon="5.4510736"><ele>617.0</ele><time>2026-05-01T12:58:01.377Z</time></trkpt><trkpt lat="44.4711553" lon="5.4509119"><ele>616.5</ele><time>2026-05-01T12:58:02.377Z</time></trkpt><trkpt lat="44.4710996" lon="5.4507339"><ele>616.0</ele><time>2026-05-01T12:58:03.378Z</time></trkpt><trkpt lat="44.4710414" lon="5.4505425"><ele>615.5</ele><time>2026-05-01T12:58:04.377Z</time></trkpt><trkpt lat="44.4709834" lon="5.4503394"><ele>615.0</ele><time>2026-05-01T12:58:05.377Z</time></trkpt><trkpt lat="44.4709234" lon="5.4501338"><ele>615.0</ele><time>2026-05-01T12:58:06.377Z</time></trkpt><trkpt lat="44.4708598" lon="5.4499292"><ele>615.0</ele><time>2026-05-01T12:58:07.378Z</time></trkpt><trkpt lat="44.4707922" lon="5.4497288"><ele>615.0</ele><time>2026-05-01T12:58:08.377Z</time></trkpt><trkpt lat="44.4707325" lon="5.4495436"><ele>614.25</ele><time>2026-05-01T12:58:09.378Z</time></trkpt><trkpt lat="44.4706778" lon="5.4493719"><ele>613.5</ele><time>2026-05-01T12:58:10.377Z</time></trkpt><trkpt lat="44.4706259" lon="5.4492086"><ele>612.75</ele><time>2026-05-01T12:58:11.377Z</time></trkpt><trkpt lat="44.4705728" lon="5.4490497"><ele>612.0</ele><time>2026-05-01T12:58:12.377Z</time></trkpt><trkpt lat="44.4705195" lon="5.4488805"><ele>612.0</ele><time>2026-05-01T12:58:13.377Z</time></trkpt><trkpt lat="44.4704682" lon="5.4486915"><ele>612.0</ele><time>2026-05-01T12:58:14.377Z</time></trkpt><trkpt lat="44.470421" lon="5.4484857"><ele>612.0</ele><time>2026-05-01T12:58:15.377Z</time></trkpt><trkpt lat="44.4703835" lon="5.4482601"><ele>612.0</ele><time>2026-05-01T12:58:16.377Z</time></trkpt><trkpt lat="44.4703538" lon="5.448012"><ele>612.0</ele><time>2026-05-01T12:58:17.377Z</time></trkpt><trkpt lat="44.4703303" lon="5.4477468"><ele>612.0</ele><time>2026-05-01T12:58:18.377Z</time></trkpt><trkpt lat="44.4703064" lon="5.4474692"><ele>611.3333333333334</ele><time>2026-05-01T12:58:19.377Z</time></trkpt><trkpt lat="44.470279" lon="5.4471811"><ele>610.6666666666667</ele><time>2026-05-01T12:58:20.377Z</time></trkpt><trkpt lat="44.4702522" lon="5.4468903"><ele>610.0</ele><time>2026-05-01T12:58:21.377Z</time></trkpt><trkpt lat="44.4702254" lon="5.4466063"><ele>610.0</ele><time>2026-05-01T12:58:22.377Z</time></trkpt><trkpt lat="44.4701969" lon="5.4463247"><ele>610.0</ele><time>2026-05-01T12:58:23.377Z</time></trkpt><trkpt lat="44.4701638" lon="5.4460505"><ele>610.0</ele><time>2026-05-01T12:58:24.377Z</time></trkpt><trkpt lat="44.4701152" lon="5.4457873"><ele>609.6666666666667</ele><time>2026-05-01T12:58:25.378Z</time></trkpt><trkpt lat="44.4700488" lon="5.445533"><ele>609.3333333333334</ele><time>2026-05-01T12:58:26.377Z</time></trkpt><trkpt lat="44.4699805" lon="5.4452781"><ele>609.0</ele><time>2026-05-01T12:58:27.377Z</time></trkpt><trkpt lat="44.4699114" lon="5.4450273"><ele>609.0</ele><time>2026-05-01T12:58:28.377Z</time></trkpt><trkpt lat="44.4698227" lon="5.4447868"><ele>609.0</ele><time>2026-05-01T12:58:29.378Z</time></trkpt><trkpt lat="44.4697139" lon="5.4445734"><ele>609.0</ele><time>2026-05-01T12:58:30.377Z</time></trkpt><trkpt lat="44.4695831" lon="5.4443838"><ele>609.6666666666666</ele><time>2026-05-01T12:58:31.377Z</time></trkpt><trkpt lat="44.4694331" lon="5.4442266"><ele>610.3333333333333</ele><time>2026-05-01T12:58:32.377Z</time></trkpt><trkpt lat="44.4692632" lon="5.4441016"><ele>611.0</ele><time>2026-05-01T12:58:33.377Z</time></trkpt><trkpt lat="44.4690794" lon="5.4440075"><ele>611.0</ele><time>2026-05-01T12:58:34.377Z</time></trkpt><trkpt lat="44.4688923" lon="5.4439389"><ele>611.0</ele><time>2026-05-01T12:58:35.377Z</time></trkpt><trkpt lat="44.4687071" lon="5.4438668"><ele>611.0</ele><time>2026-05-01T12:58:36.377Z</time></trkpt><trkpt lat="44.4685258" lon="5.4437648"><ele>614.0</ele><time>2026-05-01T12:58:37.378Z</time></trkpt><trkpt lat="44.4683549" lon="5.4436373"><ele>617.0</ele><time>2026-05-01T12:58:38.377Z</time></trkpt><trkpt lat="44.4681977" lon="5.443482"><ele>620.0</ele><time>2026-05-01T12:58:39.377Z</time></trkpt><trkpt lat="44.4680501" lon="5.4432886"><ele>618.3333333333333</ele><time>2026-05-01T12:58:40.377Z</time></trkpt><trkpt lat="44.4679149" lon="5.4430638"><ele>616.6666666666666</ele><time>2026-05-01T12:58:41.377Z</time></trkpt><trkpt lat="44.4677799" lon="5.4428316"><ele>615.0</ele><time>2026-05-01T12:58:42.377Z</time></trkpt><trkpt lat="44.4676406" lon="5.4426249"><ele>615.0</ele><time>2026-05-01T12:58:43.377Z</time></trkpt><trkpt lat="44.4675012" lon="5.4424344"><ele>615.0</ele><time>2026-05-01T12:58:44.379Z</time></trkpt><trkpt lat="44.4673697" lon="5.4422331"><ele>615.0</ele><time>2026-05-01T12:58:45.377Z</time></trkpt><trkpt lat="44.4672496" lon="5.4420057"><ele>612.3333333333334</ele><time>2026-05-01T12:58:46.377Z</time></trkpt><trkpt lat="44.4671463" lon="5.4417514"><ele>609.6666666666667</ele><time>2026-05-01T12:58:47.377Z</time></trkpt><trkpt lat="44.4670578" lon="5.441475"><ele>607.0</ele><time>2026-05-01T12:58:48.377Z</time></trkpt><trkpt lat="44.4669681" lon="5.4411899"><ele>607.0</ele><time>2026-05-01T12:58:49.378Z</time></trkpt><trkpt lat="44.4668803" lon="5.4409041"><ele>607.0</ele><time>2026-05-01T12:58:50.378Z</time></trkpt><trkpt lat="44.4667996" lon="5.4406307"><ele>607.0</ele><time>2026-05-01T12:58:51.377Z</time></trkpt><trkpt lat="44.4667229" lon="5.440368"><ele>609.3333333333334</ele><time>2026-05-01T12:58:52.377Z</time></trkpt><trkpt lat="44.466651" lon="5.4401168"><ele>611.6666666666666</ele><time>2026-05-01T12:58:53.377Z</time></trkpt><trkpt lat="44.4665752" lon="5.4398791"><ele>614.0</ele><time>2026-05-01T12:58:54.378Z</time></trkpt><trkpt lat="44.4664773" lon="5.439664"><ele>610.6666666666666</ele><time>2026-05-01T12:58:55.377Z</time></trkpt><trkpt lat="44.4663626" lon="5.4394737"><ele>607.3333333333334</ele><time>2026-05-01T12:58:56.378Z</time></trkpt><trkpt lat="44.4662492" lon="5.4392911"><ele>604.0</ele><time>2026-05-01T12:58:57.377Z</time></trkpt><trkpt lat="44.4661463" lon="5.4390993"><ele>604.0</ele><time>2026-05-01T12:58:58.377Z</time></trkpt><trkpt lat="44.4660602" lon="5.4388811"><ele>604.0</ele><time>2026-05-01T12:58:59.377Z</time></trkpt><trkpt lat="44.4659977" lon="5.4386315"><ele>604.0</ele><time>2026-05-01T12:59:00.377Z</time></trkpt><trkpt lat="44.4659496" lon="5.4383639"><ele>604.6666666666667</ele><time>2026-05-01T12:59:01.377Z</time></trkpt><trkpt lat="44.4659167" lon="5.4380814"><ele>605.3333333333334</ele><time>2026-05-01T12:59:02.377Z</time></trkpt><trkpt lat="44.4659069" lon="5.4377887"><ele>606.0</ele><time>2026-05-01T12:59:03.377Z</time></trkpt><trkpt lat="44.4659164" lon="5.4374944"><ele>606.0</ele><time>2026-05-01T12:59:04.377Z</time></trkpt><trkpt lat="44.4659416" lon="5.437205"><ele>606.0</ele><time>2026-05-01T12:59:05.377Z</time></trkpt><trkpt lat="44.4659861" lon="5.4369241"><ele>606.0</ele><time>2026-05-01T12:59:06.377Z</time></trkpt><trkpt lat="44.4660538" lon="5.436663"><ele>604.6666666666666</ele><time>2026-05-01T12:59:07.377Z</time></trkpt><trkpt lat="44.4661232" lon="5.4364154"><ele>603.3333333333333</ele><time>2026-05-01T12:59:08.378Z</time></trkpt><trkpt lat="44.4661612" lon="5.4361618"><ele>602.0</ele><time>2026-05-01T12:59:09.377Z</time></trkpt><trkpt lat="44.4661711" lon="5.4358991"><ele>601.3333333333333</ele><time>2026-05-01T12:59:10.377Z</time></trkpt><trkpt lat="44.4661707" lon="5.4356324"><ele>600.6666666666666</ele><time>2026-05-01T12:59:11.377Z</time></trkpt><trkpt lat="44.4661911" lon="5.4353622"><ele>600.0</ele><time>2026-05-01T12:59:12.378Z</time></trkpt><trkpt lat="44.466248" lon="5.4350979"><ele>603.3333333333334</ele><time>2026-05-01T12:59:13.378Z</time></trkpt><trkpt lat="44.4663349" lon="5.4348357"><ele>606.6666666666667</ele><time>2026-05-01T12:59:14.377Z</time></trkpt><trkpt lat="44.4664382" lon="5.4345945"><ele>610.0</ele><time>2026-05-01T12:59:15.377Z</time></trkpt><trkpt lat="44.4665449" lon="5.4343727"><ele>610.0</ele><time>2026-05-01T12:59:16.377Z</time></trkpt><trkpt lat="44.4666403" lon="5.4341513"><ele>610.0</ele><time>2026-05-01T12:59:17.377Z</time></trkpt><trkpt lat="44.4667092" lon="5.4339236"><ele>610.0</ele><time>2026-05-01T12:59:18.377Z</time></trkpt><trkpt lat="44.466752" lon="5.4337004"><ele>609.0</ele><time>2026-05-01T12:59:19.378Z</time></trkpt><trkpt lat="44.4667693" lon="5.4334876"><ele>608.0</ele><time>2026-05-01T12:59:20.378Z</time></trkpt><trkpt lat="44.4667534" lon="5.4332894"><ele>607.0</ele><time>2026-05-01T12:59:21.378Z</time></trkpt><trkpt lat="44.4667039" lon="5.4331111"><ele>606.0</ele><time>2026-05-01T12:59:22.377Z</time></trkpt><trkpt lat="44.4666266" lon="5.432954"><ele>606.0</ele><time>2026-05-01T12:59:23.378Z</time></trkpt><trkpt lat="44.4665254" lon="5.4327889"><ele>606.0</ele><time>2026-05-01T12:59:24.377Z</time></trkpt><trkpt lat="44.4664218" lon="5.4326017"><ele>606.0</ele><time>2026-05-01T12:59:25.377Z</time></trkpt><trkpt lat="44.4663215" lon="5.4323806"><ele>602.6666666666666</ele><time>2026-05-01T12:59:26.377Z</time></trkpt><trkpt lat="44.4662213" lon="5.432137"><ele>599.3333333333333</ele><time>2026-05-01T12:59:27.377Z</time></trkpt><trkpt lat="44.4661285" lon="5.4318771"><ele>596.0</ele><time>2026-05-01T12:59:28.377Z</time></trkpt><trkpt lat="44.4660623" lon="5.4316138"><ele>596.0</ele><time>2026-05-01T12:59:29.377Z</time></trkpt><trkpt lat="44.4660194" lon="5.4313486"><ele>596.0</ele><time>2026-05-01T12:59:30.378Z</time></trkpt><trkpt lat="44.4659978" lon="5.4310721"><ele>596.0</ele><time>2026-05-01T12:59:31.378Z</time></trkpt><trkpt lat="44.4660032" lon="5.430801"><ele>596.0</ele><time>2026-05-01T12:59:32.377Z</time></trkpt><trkpt lat="44.4660354" lon="5.430518"><ele>596.0</ele><time>2026-05-01T12:59:33.377Z</time></trkpt><trkpt lat="44.4660831" lon="5.4302197"><ele>596.0</ele><time>2026-05-01T12:59:34.377Z</time></trkpt><trkpt lat="44.4661333" lon="5.4299097"><ele>593.5</ele><time>2026-05-01T12:59:35.378Z</time></trkpt><trkpt lat="44.4661795" lon="5.4295967"><ele>591.0</ele><time>2026-05-01T12:59:36.377Z</time></trkpt><trkpt lat="44.4662257" lon="5.4292899"><ele>591.0</ele><time>2026-05-01T12:59:37.378Z</time></trkpt><trkpt lat="44.466274" lon="5.4289898"><ele>591.0</ele><time>2026-05-01T12:59:38.377Z</time></trkpt><trkpt lat="44.466322" lon="5.428694"><ele>591.0</ele><time>2026-05-01T12:59:39.377Z</time></trkpt><trkpt lat="44.4663671" lon="5.4283969"><ele>596.0</ele><time>2026-05-01T12:59:40.378Z</time></trkpt><trkpt lat="44.4664068" lon="5.428098"><ele>601.0</ele><time>2026-05-01T12:59:41.377Z</time></trkpt><trkpt lat="44.4664439" lon="5.4277999"><ele>606.0</ele><time>2026-05-01T12:59:42.379Z</time></trkpt><trkpt lat="44.4664744" lon="5.4275073"><ele>606.0</ele><time>2026-05-01T12:59:43.377Z</time></trkpt><trkpt lat="44.4664935" lon="5.427215"><ele>606.0</ele><time>2026-05-01T12:59:44.377Z</time></trkpt><trkpt lat="44.4664972" lon="5.4269234"><ele>606.0</ele><time>2026-05-01T12:59:45.377Z</time></trkpt><trkpt lat="44.4664921" lon="5.4266396"><ele>604.6666666666666</ele><time>2026-05-01T12:59:46.377Z</time></trkpt><trkpt lat="44.4664918" lon="5.42636"><ele>603.3333333333333</ele><time>2026-05-01T12:59:47.378Z</time></trkpt><trkpt lat="44.4665147" lon="5.4260873"><ele>602.0</ele><time>2026-05-01T12:59:48.377Z</time></trkpt><trkpt lat="44.4665635" lon="5.4258277"><ele>601.3333333333333</ele><time>2026-05-01T12:59:49.377Z</time></trkpt><trkpt lat="44.4666468" lon="5.4255891"><ele>600.6666666666666</ele><time>2026-05-01T12:59:50.377Z</time></trkpt><trkpt lat="44.4667577" lon="5.4253624"><ele>600.0</ele><time>2026-05-01T12:59:51.377Z</time></trkpt><trkpt lat="44.466874" lon="5.4251303"><ele>598.0</ele><time>2026-05-01T12:59:52.378Z</time></trkpt><trkpt lat="44.4669733" lon="5.424864"><ele>596.0</ele><time>2026-05-01T12:59:53.378Z</time></trkpt><trkpt lat="44.4670548" lon="5.4245679"><ele>594.0</ele><time>2026-05-01T12:59:54.378Z</time></trkpt><trkpt lat="44.4671309" lon="5.4242543"><ele>597.5</ele><time>2026-05-01T12:59:55.377Z</time></trkpt><trkpt lat="44.4672069" lon="5.4239347"><ele>601.0</ele><time>2026-05-01T12:59:56.377Z</time></trkpt><trkpt lat="44.4672809" lon="5.423615"><ele>601.0</ele><time>2026-05-01T12:59:57.376Z</time></trkpt><trkpt lat="44.4673537" lon="5.4233068"><ele>601.0</ele><time>2026-05-01T12:59:58.377Z</time></trkpt><trkpt lat="44.4674242" lon="5.4230054"><ele>597.5</ele><time>2026-05-01T12:59:59.376Z</time></trkpt><trkpt lat="44.4675072" lon="5.4227126"><ele>594.0</ele><time>2026-05-01T13:00:00.377Z</time></trkpt><trkpt lat="44.467613" lon="5.4224306"><ele>594.0</ele><time>2026-05-01T13:00:01.377Z</time></trkpt><trkpt lat="44.4677312" lon="5.4221776"><ele>594.0</ele><time>2026-05-01T13:00:02.376Z</time></trkpt><trkpt lat="44.467854" lon="5.4219518"><ele>594.0</ele><time>2026-05-01T13:00:03.376Z</time></trkpt><trkpt lat="44.4679923" lon="5.42177"><ele>595.0</ele><time>2026-05-01T13:00:04.376Z</time></trkpt><trkpt lat="44.4681567" lon="5.4216236"><ele>596.0</ele><time>2026-05-01T13:00:05.376Z</time></trkpt><trkpt lat="44.4683325" lon="5.4214943"><ele>597.0</ele><time>2026-05-01T13:00:06.376Z</time></trkpt><trkpt lat="44.468494" lon="5.4213547"><ele>593.0</ele><time>2026-05-01T13:00:07.377Z</time></trkpt><trkpt lat="44.4686338" lon="5.4211893"><ele>589.0</ele><time>2026-05-01T13:00:08.376Z</time></trkpt><trkpt lat="44.4687516" lon="5.4210152"><ele>585.0</ele><time>2026-05-01T13:00:09.376Z</time></trkpt><trkpt lat="44.468865" lon="5.4208704"><ele>585.0</ele><time>2026-05-01T13:00:10.376Z</time></trkpt><trkpt lat="44.4689929" lon="5.4207612"><ele>585.0</ele><time>2026-05-01T13:00:11.376Z</time></trkpt><trkpt lat="44.4691417" lon="5.4206908"><ele>585.0</ele><time>2026-05-01T13:00:12.376Z</time></trkpt><trkpt lat="44.4693034" lon="5.4206653"><ele>585.0</ele><time>2026-05-01T13:00:13.376Z</time></trkpt><trkpt lat="44.4694712" lon="5.4206625"><ele>585.0</ele><time>2026-05-01T13:00:14.376Z</time></trkpt><trkpt lat="44.4696414" lon="5.420616"><ele>585.0</ele><time>2026-05-01T13:00:15.376Z</time></trkpt><trkpt lat="44.4698212" lon="5.4205161"><ele>583.6666666666666</ele><time>2026-05-01T13:00:16.376Z</time></trkpt><trkpt lat="44.4699993" lon="5.4203841"><ele>582.3333333333333</ele><time>2026-05-01T13:00:17.376Z</time></trkpt><trkpt lat="44.4701801" lon="5.420236"><ele>581.0</ele><time>2026-05-01T13:00:18.376Z</time></trkpt><trkpt lat="44.4703669" lon="5.420085"><ele>583.0</ele><time>2026-05-01T13:00:19.377Z</time></trkpt><trkpt lat="44.4705619" lon="5.4199302"><ele>585.0</ele><time>2026-05-01T13:00:20.376Z</time></trkpt><trkpt lat="44.4707599" lon="5.4197689"><ele>582.5</ele><time>2026-05-01T13:00:21.376Z</time></trkpt><trkpt lat="44.4709612" lon="5.419602"><ele>580.0</ele><time>2026-05-01T13:00:22.377Z</time></trkpt><trkpt lat="44.4711641" lon="5.4194314"><ele>583.0</ele><time>2026-05-01T13:00:23.376Z</time></trkpt><trkpt lat="44.4713612" lon="5.4192668"><ele>586.0</ele><time>2026-05-01T13:00:24.376Z</time></trkpt><trkpt lat="44.4715529" lon="5.4191062"><ele>586.0</ele><time>2026-05-01T13:00:25.376Z</time></trkpt><trkpt lat="44.4717434" lon="5.4189461"><ele>586.0</ele><time>2026-05-01T13:00:26.376Z</time></trkpt><trkpt lat="44.4719292" lon="5.4187879"><ele>586.0</ele><time>2026-05-01T13:00:27.376Z</time></trkpt><trkpt lat="44.4721095" lon="5.4186342"><ele>584.6666666666667</ele><time>2026-05-01T13:00:28.376Z</time></trkpt><trkpt lat="44.472285" lon="5.4184867"><ele>583.3333333333334</ele><time>2026-05-01T13:00:29.376Z</time></trkpt><trkpt lat="44.4724546" lon="5.4183455"><ele>582.0</ele><time>2026-05-01T13:00:30.377Z</time></trkpt><trkpt lat="44.4726132" lon="5.4182103"><ele>582.0</ele><time>2026-05-01T13:00:31.377Z</time></trkpt><trkpt lat="44.4727546" lon="5.4180705"><ele>582.0</ele><time>2026-05-01T13:00:32.376Z</time></trkpt><trkpt lat="44.4728748" lon="5.4179073"><ele>582.0</ele><time>2026-05-01T13:00:33.376Z</time></trkpt><trkpt lat="44.4729699" lon="5.4177228"><ele>586.3333333333334</ele><time>2026-05-01T13:00:34.377Z</time></trkpt><trkpt lat="44.473036" lon="5.4175144"><ele>590.6666666666667</ele><time>2026-05-01T13:00:35.376Z</time></trkpt><trkpt lat="44.4730759" lon="5.4172787"><ele>595.0</ele><time>2026-05-01T13:00:36.376Z</time></trkpt><trkpt lat="44.4731026" lon="5.4170139"><ele>595.0</ele><time>2026-05-01T13:00:37.376Z</time></trkpt><trkpt lat="44.4731318" lon="5.4167353"><ele>595.0</ele><time>2026-05-01T13:00:38.376Z</time></trkpt><trkpt lat="44.4731657" lon="5.4164506"><ele>595.0</ele><time>2026-05-01T13:00:39.377Z</time></trkpt><trkpt lat="44.4731992" lon="5.4161761"><ele>591.6666666666667</ele><time>2026-05-01T13:00:40.376Z</time></trkpt><trkpt lat="44.473232" lon="5.4159082"><ele>588.3333333333334</ele><time>2026-05-01T13:00:41.376Z</time></trkpt><trkpt lat="44.4732641" lon="5.4156488"><ele>585.0</ele><time>2026-05-01T13:00:42.376Z</time></trkpt><trkpt lat="44.4733012" lon="5.4153962"><ele>582.3333333333334</ele><time>2026-05-01T13:00:43.376Z</time></trkpt><trkpt lat="44.4733653" lon="5.4151497"><ele>579.6666666666667</ele><time>2026-05-01T13:00:44.376Z</time></trkpt><trkpt lat="44.4734497" lon="5.4149103"><ele>577.0</ele><time>2026-05-01T13:00:45.376Z</time></trkpt><trkpt lat="44.473539" lon="5.4146662"><ele>577.3333333333334</ele><time>2026-05-01T13:00:46.377Z</time></trkpt><trkpt lat="44.47363" lon="5.4144127"><ele>577.6666666666666</ele><time>2026-05-01T13:00:47.376Z</time></trkpt><trkpt lat="44.4737226" lon="5.4141547"><ele>578.0</ele><time>2026-05-01T13:00:48.377Z</time></trkpt><trkpt lat="44.4738153" lon="5.413899"><ele>577.3333333333333</ele><time>2026-05-01T13:00:49.376Z</time></trkpt><trkpt lat="44.4739061" lon="5.4136478"><ele>576.6666666666666</ele><time>2026-05-01T13:00:50.376Z</time></trkpt><trkpt lat="44.4739966" lon="5.4134019"><ele>576.0</ele><time>2026-05-01T13:00:51.376Z</time></trkpt><trkpt lat="44.4740879" lon="5.4131577"><ele>575.3333333333334</ele><time>2026-05-01T13:00:52.377Z</time></trkpt><trkpt lat="44.4741783" lon="5.4129142"><ele>574.6666666666667</ele><time>2026-05-01T13:00:53.376Z</time></trkpt><trkpt lat="44.4742694" lon="5.412666"><ele>574.0</ele><time>2026-05-01T13:00:54.376Z</time></trkpt><trkpt lat="44.4743603" lon="5.4124163"><ele>574.0</ele><time>2026-05-01T13:00:55.376Z</time></trkpt><trkpt lat="44.4744464" lon="5.4121785"><ele>574.0</ele><time>2026-05-01T13:00:56.377Z</time></trkpt><trkpt lat="44.4745284" lon="5.4119483"><ele>574.0</ele><time>2026-05-01T13:00:57.376Z</time></trkpt><trkpt lat="44.4746081" lon="5.4117288"><ele>576.3333333333334</ele><time>2026-05-01T13:00:58.376Z</time></trkpt><trkpt lat="44.4746862" lon="5.4115173"><ele>578.6666666666666</ele><time>2026-05-01T13:00:59.376Z</time></trkpt><trkpt lat="44.4747545" lon="5.4113092"><ele>581.0</ele><time>2026-05-01T13:01:00.377Z</time></trkpt><trkpt lat="44.4748051" lon="5.4111019"><ele>581.0</ele><time>2026-05-01T13:01:01.377Z</time></trkpt><trkpt lat="44.4748393" lon="5.4108887"><ele>581.0</ele><time>2026-05-01T13:01:02.376Z</time></trkpt><trkpt lat="44.4748598" lon="5.4106633"><ele>581.0</ele><time>2026-05-01T13:01:03.376Z</time></trkpt><trkpt lat="44.4748752" lon="5.4104234"><ele>580.6666666666666</ele><time>2026-05-01T13:01:04.376Z</time></trkpt><trkpt lat="44.4748877" lon="5.4101719"><ele>580.3333333333334</ele><time>2026-05-01T13:01:05.376Z</time></trkpt><trkpt lat="44.4748935" lon="5.4099284"><ele>580.0</ele><time>2026-05-01T13:01:06.376Z</time></trkpt><trkpt lat="44.4748993" lon="5.4097048"><ele>578.0</ele><time>2026-05-01T13:01:07.376Z</time></trkpt><trkpt lat="44.4749172" lon="5.4095083"><ele>576.0</ele><time>2026-05-01T13:01:08.376Z</time></trkpt><trkpt lat="44.4749554" lon="5.4093204"><ele>574.0</ele><time>2026-05-01T13:01:09.376Z</time></trkpt><trkpt lat="44.4750198" lon="5.4091577"><ele>572.0</ele><time>2026-05-01T13:01:10.377Z</time></trkpt><trkpt lat="44.4751139" lon="5.4090303"><ele>572.0</ele><time>2026-05-01T13:01:11.376Z</time></trkpt><trkpt lat="44.4752355" lon="5.4089336"><ele>572.0</ele><time>2026-05-01T13:01:12.376Z</time></trkpt><trkpt lat="44.4753735" lon="5.4088353"><ele>572.0</ele><time>2026-05-01T13:01:13.376Z</time></trkpt><trkpt lat="44.4755126" lon="5.4087011"><ele>572.6666666666666</ele><time>2026-05-01T13:01:14.376Z</time></trkpt><trkpt lat="44.4756471" lon="5.4085213"><ele>573.3333333333334</ele><time>2026-05-01T13:01:15.376Z</time></trkpt><trkpt lat="44.4757834" lon="5.4083161"><ele>574.0</ele><time>2026-05-01T13:01:16.377Z</time></trkpt><trkpt lat="44.4759218" lon="5.4080945"><ele>573.6666666666667</ele><time>2026-05-01T13:01:17.377Z</time></trkpt><trkpt lat="44.47606" lon="5.4078596"><ele>573.3333333333334</ele><time>2026-05-01T13:01:18.376Z</time></trkpt><trkpt lat="44.4762001" lon="5.4076162"><ele>573.0</ele><time>2026-05-01T13:01:19.376Z</time></trkpt><trkpt lat="44.4763444" lon="5.4073667"><ele>571.5</ele><time>2026-05-01T13:01:20.376Z</time></trkpt><trkpt lat="44.4764909" lon="5.407114"><ele>570.0</ele><time>2026-05-01T13:01:21.377Z</time></trkpt><trkpt lat="44.4766387" lon="5.4068562"><ele>570.0</ele><time>2026-05-01T13:01:22.376Z</time></trkpt><trkpt lat="44.4767892" lon="5.4065929"><ele>570.0</ele><time>2026-05-01T13:01:23.376Z</time></trkpt><trkpt lat="44.4769399" lon="5.406326"><ele>568.0</ele><time>2026-05-01T13:01:24.377Z</time></trkpt><trkpt lat="44.4770884" lon="5.4060615"><ele>566.0</ele><time>2026-05-01T13:01:25.376Z</time></trkpt><trkpt lat="44.4772371" lon="5.4057963"><ele>567.5</ele><time>2026-05-01T13:01:26.376Z</time></trkpt><trkpt lat="44.4773817" lon="5.4055405"><ele>569.0</ele><time>2026-05-01T13:01:27.377Z</time></trkpt><trkpt lat="44.4775191" lon="5.4052904"><ele>569.0</ele><time>2026-05-01T13:01:28.376Z</time></trkpt><trkpt lat="44.4776464" lon="5.4050284"><ele>569.0</ele><time>2026-05-01T13:01:29.376Z</time></trkpt><trkpt lat="44.4777525" lon="5.404747"><ele>567.5</ele><time>2026-05-01T13:01:30.376Z</time></trkpt><trkpt lat="44.4778425" lon="5.4044495"><ele>566.0</ele><time>2026-05-01T13:01:31.376Z</time></trkpt><trkpt lat="44.4779234" lon="5.4041505"><ele>567.6666666666666</ele><time>2026-05-01T13:01:32.376Z</time></trkpt><trkpt lat="44.4779987" lon="5.4038635"><ele>569.3333333333334</ele><time>2026-05-01T13:01:33.377Z</time></trkpt><trkpt lat="44.4780712" lon="5.4035936"><ele>571.0</ele><time>2026-05-01T13:01:34.376Z</time></trkpt><trkpt lat="44.4781428" lon="5.4033616"><ele>571.0</ele><time>2026-05-01T13:01:35.377Z</time></trkpt><trkpt lat="44.4782218" lon="5.4031677"><ele>571.0</ele><time>2026-05-01T13:01:36.376Z</time></trkpt><trkpt lat="44.4783201" lon="5.4030112"><ele>571.0</ele><time>2026-05-01T13:01:37.376Z</time></trkpt><trkpt lat="44.4784445" lon="5.4028906"><ele>570.6666666666667</ele><time>2026-05-01T13:01:38.376Z</time></trkpt><trkpt lat="44.4785984" lon="5.4027979"><ele>570.3333333333334</ele><time>2026-05-01T13:01:39.377Z</time></trkpt><trkpt lat="44.4787603" lon="5.4027096"><ele>570.0</ele><time>2026-05-01T13:01:40.376Z</time></trkpt><trkpt lat="44.4789222" lon="5.4025855"><ele>570.0</ele><time>2026-05-01T13:01:41.376Z</time></trkpt><trkpt lat="44.4790821" lon="5.4024138"><ele>570.0</ele><time>2026-05-01T13:01:42.376Z</time></trkpt><trkpt lat="44.479228" lon="5.4022046"><ele>570.0</ele><time>2026-05-01T13:01:43.376Z</time></trkpt><trkpt lat="44.4793558" lon="5.401957"><ele>567.5</ele><time>2026-05-01T13:01:44.376Z</time></trkpt><trkpt lat="44.4794729" lon="5.4016732"><ele>565.0</ele><time>2026-05-01T13:01:45.377Z</time></trkpt><trkpt lat="44.4795855" lon="5.4013707"><ele>569.0</ele><time>2026-05-01T13:01:46.377Z</time></trkpt><trkpt lat="44.4797008" lon="5.401055"><ele>573.0</ele><time>2026-05-01T13:01:47.376Z</time></trkpt><trkpt lat="44.4798191" lon="5.4007324"><ele>569.0</ele><time>2026-05-01T13:01:48.376Z</time></trkpt><trkpt lat="44.4799382" lon="5.4004093"><ele>565.0</ele><time>2026-05-01T13:01:49.377Z</time></trkpt><trkpt lat="44.4800531" lon="5.4000968"><ele>565.0</ele><time>2026-05-01T13:01:50.376Z</time></trkpt><trkpt lat="44.4801638" lon="5.3997928"><ele>565.0</ele><time>2026-05-01T13:01:51.376Z</time></trkpt><trkpt lat="44.4802716" lon="5.3995006"><ele>564.0</ele><time>2026-05-01T13:01:52.377Z</time></trkpt><trkpt lat="44.480377" lon="5.399219"><ele>563.0</ele><time>2026-05-01T13:01:53.378Z</time></trkpt><trkpt lat="44.4804665" lon="5.3989401"><ele>562.0</ele><time>2026-05-01T13:01:54.376Z</time></trkpt><trkpt lat="44.4805304" lon="5.3986566"><ele>565.3333333333334</ele><time>2026-05-01T13:01:55.376Z</time></trkpt><trkpt lat="44.4805529" lon="5.3983618"><ele>568.6666666666666</ele><time>2026-05-01T13:01:56.376Z</time></trkpt><trkpt lat="44.4805532" lon="5.3980537"><ele>572.0</ele><time>2026-05-01T13:01:57.377Z</time></trkpt><trkpt lat="44.4805431" lon="5.3977341"><ele>572.0</ele><time>2026-05-01T13:01:58.376Z</time></trkpt><trkpt lat="44.4805347" lon="5.3973973"><ele>572.0</ele><time>2026-05-01T13:01:59.376Z</time></trkpt><trkpt lat="44.4805391" lon="5.3970491"><ele>571.0</ele><time>2026-05-01T13:02:00.377Z</time></trkpt><trkpt lat="44.4805495" lon="5.396707"><ele>570.0</ele><time>2026-05-01T13:02:01.376Z</time></trkpt><trkpt lat="44.4805553" lon="5.3963798"><ele>570.0</ele><time>2026-05-01T13:02:02.376Z</time></trkpt><trkpt lat="44.4805677" lon="5.3960653"><ele>570.0</ele><time>2026-05-01T13:02:03.376Z</time></trkpt><trkpt lat="44.480589" lon="5.3957723"><ele>570.0</ele><time>2026-05-01T13:02:04.376Z</time></trkpt><trkpt lat="44.4806258" lon="5.3955124"><ele>568.6666666666666</ele><time>2026-05-01T13:02:05.376Z</time></trkpt><trkpt lat="44.4806806" lon="5.3952687"><ele>567.3333333333333</ele><time>2026-05-01T13:02:06.376Z</time></trkpt><trkpt lat="44.4807624" lon="5.3950309"><ele>566.0</ele><time>2026-05-01T13:02:07.376Z</time></trkpt><trkpt lat="44.4808636" lon="5.3947883"><ele>564.0</ele><time>2026-05-01T13:02:08.376Z</time></trkpt><trkpt lat="44.4809804" lon="5.3945365"><ele>562.0</ele><time>2026-05-01T13:02:09.376Z</time></trkpt><trkpt lat="44.4811065" lon="5.3942918"><ele>560.0</ele><time>2026-05-01T13:02:10.376Z</time></trkpt><trkpt lat="44.48124" lon="5.3940658"><ele>559.3333333333333</ele><time>2026-05-01T13:02:11.376Z</time></trkpt><trkpt lat="44.4813952" lon="5.3938626"><ele>558.6666666666666</ele><time>2026-05-01T13:02:12.376Z</time></trkpt><trkpt lat="44.4815663" lon="5.3936781"><ele>558.0</ele><time>2026-05-01T13:02:13.377Z</time></trkpt><trkpt lat="44.4817454" lon="5.3934952"><ele>558.0</ele><time>2026-05-01T13:02:14.376Z</time></trkpt><trkpt lat="44.4819282" lon="5.3933067"><ele>558.0</ele><time>2026-05-01T13:02:15.376Z</time></trkpt><trkpt lat="44.4821116" lon="5.3931157"><ele>557.0</ele><time>2026-05-01T13:02:16.376Z</time></trkpt><trkpt lat="44.4822908" lon="5.3929293"><ele>556.0</ele><time>2026-05-01T13:02:17.376Z</time></trkpt><trkpt lat="44.4824669" lon="5.3927497"><ele>555.0</ele><time>2026-05-01T13:02:18.376Z</time></trkpt><trkpt lat="44.4826474" lon="5.392592"><ele>555.0</ele><time>2026-05-01T13:02:19.376Z</time></trkpt><trkpt lat="44.482835" lon="5.3924725"><ele>555.0</ele><time>2026-05-01T13:02:20.376Z</time></trkpt><trkpt lat="44.4830202" lon="5.3923695"><ele>555.0</ele><time>2026-05-01T13:02:21.376Z</time></trkpt><trkpt lat="44.4831862" lon="5.3922311"><ele>553.6666666666666</ele><time>2026-05-01T13:02:22.377Z</time></trkpt><trkpt lat="44.4833291" lon="5.3920619"><ele>552.3333333333333</ele><time>2026-05-01T13:02:23.376Z</time></trkpt><trkpt lat="44.4834437" lon="5.3918632"><ele>551.0</ele><time>2026-05-01T13:02:24.376Z</time></trkpt><trkpt lat="44.4835365" lon="5.3916271"><ele>551.0</ele><time>2026-05-01T13:02:25.377Z</time></trkpt><trkpt lat="44.48362" lon="5.3913598"><ele>551.0</ele><time>2026-05-01T13:02:26.377Z</time></trkpt><trkpt lat="44.4837072" lon="5.3910716"><ele>551.0</ele><time>2026-05-01T13:02:27.376Z</time></trkpt><trkpt lat="44.4837925" lon="5.3907757"><ele>551.6666666666666</ele><time>2026-05-01T13:02:28.377Z</time></trkpt><trkpt lat="44.4838696" lon="5.390486"><ele>552.3333333333334</ele><time>2026-05-01T13:02:29.376Z</time></trkpt><trkpt lat="44.4839464" lon="5.3902221"><ele>553.0</ele><time>2026-05-01T13:02:30.377Z</time></trkpt><trkpt lat="44.4840327" lon="5.3900001"><ele>553.0</ele><time>2026-05-01T13:02:31.376Z</time></trkpt><trkpt lat="44.4841406" lon="5.389813"><ele>553.0</ele><time>2026-05-01T13:02:32.376Z</time></trkpt><trkpt lat="44.4842611" lon="5.3896751"><ele>553.0</ele><time>2026-05-01T13:02:33.376Z</time></trkpt><trkpt lat="44.4843931" lon="5.3895932"><ele>553.0</ele><time>2026-05-01T13:02:34.377Z</time></trkpt><trkpt lat="44.4845352" lon="5.3895594"><ele>553.0</ele><time>2026-05-01T13:02:35.376Z</time></trkpt><trkpt lat="44.4846774" lon="5.3895433"><ele>553.0</ele><time>2026-05-01T13:02:36.376Z</time></trkpt><trkpt lat="44.4848162" lon="5.3894974"><ele>553.0</ele><time>2026-05-01T13:02:37.376Z</time></trkpt><trkpt lat="44.4849485" lon="5.3894068"><ele>553.0</ele><time>2026-05-01T13:02:38.377Z</time></trkpt><trkpt lat="44.4850623" lon="5.3892815"><ele>553.0</ele><time>2026-05-01T13:02:39.376Z</time></trkpt><trkpt lat="44.4851529" lon="5.3891174"><ele>553.0</ele><time>2026-05-01T13:02:40.377Z</time></trkpt><trkpt lat="44.4852145" lon="5.3889196"><ele>553.0</ele><time>2026-05-01T13:02:41.376Z</time></trkpt><trkpt lat="44.4852404" lon="5.3886986"><ele>552.0</ele><time>2026-05-01T13:02:42.376Z</time></trkpt><trkpt lat="44.4852508" lon="5.3884544"><ele>551.0</ele><time>2026-05-01T13:02:43.376Z</time></trkpt><trkpt lat="44.4852747" lon="5.3881947"><ele>550.0</ele><time>2026-05-01T13:02:44.376Z</time></trkpt><trkpt lat="44.4853219" lon="5.3879444"><ele>549.3333333333334</ele><time>2026-05-01T13:02:45.376Z</time></trkpt><trkpt lat="44.4853641" lon="5.3876977"><ele>548.6666666666666</ele><time>2026-05-01T13:02:46.376Z</time></trkpt><trkpt lat="44.485373" lon="5.3874539"><ele>548.0</ele><time>2026-05-01T13:02:47.376Z</time></trkpt><trkpt lat="44.4853424" lon="5.3872135"><ele>547.6666666666666</ele><time>2026-05-01T13:02:48.377Z</time></trkpt><trkpt lat="44.4852846" lon="5.3869649"><ele>547.3333333333334</ele><time>2026-05-01T13:02:49.377Z</time></trkpt><trkpt lat="44.4852213" lon="5.3867211"><ele>547.0</ele><time>2026-05-01T13:02:50.376Z</time></trkpt><trkpt lat="44.4851746" lon="5.3864784"><ele>546.6666666666667</ele><time>2026-05-01T13:02:51.376Z</time></trkpt><trkpt lat="44.4851568" lon="5.3862361"><ele>546.3333333333334</ele><time>2026-05-01T13:02:52.377Z</time></trkpt><trkpt lat="44.4851717" lon="5.3859988"><ele>546.0</ele><time>2026-05-01T13:02:53.376Z</time></trkpt><trkpt lat="44.4852217" lon="5.3857571"><ele>546.0</ele><time>2026-05-01T13:02:54.376Z</time></trkpt><trkpt lat="44.4852954" lon="5.3855213"><ele>546.0</ele><time>2026-05-01T13:02:55.376Z</time></trkpt><trkpt lat="44.4853681" lon="5.3853013"><ele>546.0</ele><time>2026-05-01T13:02:56.376Z</time></trkpt><trkpt lat="44.4854359" lon="5.3850921"><ele>547.0</ele><time>2026-05-01T13:02:57.377Z</time></trkpt><trkpt lat="44.4854973" lon="5.3849044"><ele>548.0</ele><time>2026-05-01T13:02:58.377Z</time></trkpt><trkpt lat="44.4855567" lon="5.3847252"><ele>549.0</ele><time>2026-05-01T13:02:59.376Z</time></trkpt><trkpt lat="44.4856126" lon="5.3845569"><ele>550.0</ele><time>2026-05-01T13:03:00.376Z</time></trkpt><trkpt lat="44.485663" lon="5.3844007"><ele>550.0</ele><time>2026-05-01T13:03:01.376Z</time></trkpt><trkpt lat="44.4857095" lon="5.3842618"><ele>550.0</ele><time>2026-05-01T13:03:02.376Z</time></trkpt><trkpt lat="44.4857524" lon="5.3841344"><ele>550.0</ele><time>2026-05-01T13:03:03.376Z</time></trkpt><trkpt lat="44.4857921" lon="5.3840217"><ele>550.0</ele><time>2026-05-01T13:03:04.376Z</time></trkpt><trkpt lat="44.4858295" lon="5.3839166"><ele>550.0</ele><time>2026-05-01T13:03:05.376Z</time></trkpt><trkpt lat="44.4858557" lon="5.3838322"><ele>550.0</ele><time>2026-05-01T13:03:06.377Z</time></trkpt><trkpt lat="44.4858944" lon="5.3837224"><ele>550.1666666666667</ele><time>2026-05-01T13:03:08.376Z</time></trkpt><trkpt lat="44.4859225" lon="5.3836243"><ele>550.3333333333334</ele><time>2026-05-01T13:03:11.376Z</time></trkpt><trkpt lat="44.4859611" lon="5.3835104"><ele>550.5</ele><time>2026-05-01T13:03:14.376Z</time></trkpt><trkpt lat="44.4859899" lon="5.3834023"><ele>550.6666666666666</ele><time>2026-05-01T13:03:17.376Z</time></trkpt><trkpt lat="44.4860001" lon="5.3832693"><ele>550.8333333333333</ele><time>2026-05-01T13:03:20.376Z</time></trkpt><trkpt lat="44.4860007" lon="5.383163"><ele>551.0</ele><time>2026-05-01T13:03:22.376Z</time></trkpt><trkpt lat="44.48599" lon="5.3830301"><ele>551.0</ele><time>2026-05-01T13:03:24.377Z</time></trkpt><trkpt lat="44.4859568" lon="5.3828675"><ele>551.0</ele><time>2026-05-01T13:03:26.376Z</time></trkpt><trkpt lat="44.4859135" lon="5.3827307"><ele>551.0</ele><time>2026-05-01T13:03:28.376Z</time></trkpt><trkpt lat="44.4858782" lon="5.3826099"><ele>551.0</ele><time>2026-05-01T13:03:30.377Z</time></trkpt><trkpt lat="44.4858435" lon="5.3824644"><ele>551.0</ele><time>2026-05-01T13:03:32.376Z</time></trkpt><trkpt lat="44.4858117" lon="5.3823195"><ele>551.2</ele><time>2026-05-01T13:03:34.376Z</time></trkpt><trkpt lat="44.4857714" lon="5.3821751"><ele>551.4000000000001</ele><time>2026-05-01T13:03:36.376Z</time></trkpt><trkpt lat="44.4857393" lon="5.3820366"><ele>551.6</ele><time>2026-05-01T13:03:38.376Z</time></trkpt><trkpt lat="44.4857021" lon="5.3818914"><ele>551.8000000000001</ele><time>2026-05-01T13:03:40.377Z</time></trkpt><trkpt lat="44.4856769" lon="5.3818101"><ele>552.0</ele><time>2026-05-01T13:03:41.376Z</time></trkpt><trkpt lat="44.4856554" lon="5.3817257"><ele>552.0</ele><time>2026-05-01T13:03:42.377Z</time></trkpt><trkpt lat="44.4856351" lon="5.3816418"><ele>552.0</ele><time>2026-05-01T13:03:43.376Z</time></trkpt><trkpt lat="44.4855961" lon="5.3814832"><ele>552.0</ele><time>2026-05-01T13:03:45.377Z</time></trkpt><trkpt lat="44.485555" lon="5.3813396"><ele>552.0</ele><time>2026-05-01T13:03:47.377Z</time></trkpt><trkpt lat="44.4855195" lon="5.3812116"><ele>552.0</ele><time>2026-05-01T13:03:49.376Z</time></trkpt><trkpt lat="44.4854856" lon="5.3810876"><ele>551.8000000000001</ele><time>2026-05-01T13:03:51.376Z</time></trkpt><trkpt lat="44.4854306" lon="5.3809672"><ele>551.6</ele><time>2026-05-01T13:03:53.376Z</time></trkpt><trkpt lat="44.4853603" lon="5.3808478"><ele>551.4000000000001</ele><time>2026-05-01T13:03:55.376Z</time></trkpt><trkpt lat="44.4852797" lon="5.3807366"><ele>551.2</ele><time>2026-05-01T13:03:57.376Z</time></trkpt><trkpt lat="44.4851822" lon="5.3806302"><ele>551.0</ele><time>2026-05-01T13:03:59.377Z</time></trkpt><trkpt lat="44.4851298" lon="5.3805806"><ele>552.0</ele><time>2026-05-01T13:04:00.376Z</time></trkpt><trkpt lat="44.4850338" lon="5.380478"><ele>553.0</ele><time>2026-05-01T13:04:02.376Z</time></trkpt><trkpt lat="44.4849374" lon="5.3803766"><ele>554.0</ele><time>2026-05-01T13:04:04.376Z</time></trkpt><trkpt lat="44.4848786" lon="5.3803124"><ele>555.0</ele><time>2026-05-01T13:04:05.377Z</time></trkpt><trkpt lat="44.4848141" lon="5.3802431"><ele>556.0</ele><time>2026-05-01T13:04:06.376Z</time></trkpt><trkpt lat="44.4847509" lon="5.3801753"><ele>556.0</ele><time>2026-05-01T13:04:07.377Z</time></trkpt><trkpt lat="44.484689" lon="5.3801045"><ele>556.0</ele><time>2026-05-01T13:04:08.376Z</time></trkpt><trkpt lat="44.484634" lon="5.3800227"><ele>556.0</ele><time>2026-05-01T13:04:09.377Z</time></trkpt><trkpt lat="44.4845835" lon="5.3799367"><ele>556.0</ele><time>2026-05-01T13:04:10.377Z</time></trkpt><trkpt lat="44.4845428" lon="5.3798447"><ele>556.0</ele><time>2026-05-01T13:04:11.376Z</time></trkpt><trkpt lat="44.4845099" lon="5.3797509"><ele>556.0</ele><time>2026-05-01T13:04:12.376Z</time></trkpt><trkpt lat="44.4844828" lon="5.379661"><ele>555.0</ele><time>2026-05-01T13:04:13.376Z</time></trkpt><trkpt lat="44.4844587" lon="5.3795295"><ele>554.0</ele><time>2026-05-01T13:04:15.376Z</time></trkpt><trkpt lat="44.4844461" lon="5.3794344"><ele>553.0</ele><time>2026-05-01T13:04:18.376Z</time></trkpt><trkpt lat="44.4844451" lon="5.3793417"><ele>552.0</ele><time>2026-05-01T13:04:20.376Z</time></trkpt><trkpt lat="44.4844409" lon="5.3792429"><ele>551.0</ele><time>2026-05-01T13:04:22.376Z</time></trkpt><trkpt lat="44.484439" lon="5.3791485"><ele>550.0</ele><time>2026-05-01T13:04:24.376Z</time></trkpt><trkpt lat="44.4844411" lon="5.3790578"><ele>549.0</ele><time>2026-05-01T13:04:26.376Z</time></trkpt><trkpt lat="44.4844437" lon="5.3789619"><ele>548.1666666666666</ele><time>2026-05-01T13:04:28.376Z</time></trkpt><trkpt lat="44.4844496" lon="5.3788306"><ele>547.3333333333334</ele><time>2026-05-01T13:04:31.376Z</time></trkpt><trkpt lat="44.4844482" lon="5.3787399"><ele>546.5</ele><time>2026-05-01T13:04:33.378Z</time></trkpt><trkpt lat="44.4844832" lon="5.3786292"><ele>545.6666666666667</ele><time>2026-05-01T13:04:36.376Z</time></trkpt><trkpt lat="44.4845481" lon="5.3785915"><ele>544.8333333333334</ele><time>2026-05-01T13:04:39.376Z</time></trkpt><trkpt lat="44.4845811" lon="5.3784987"><ele>544.0</ele><time>2026-05-01T13:04:44.377Z</time></trkpt><trkpt lat="44.4845342" lon="5.3784313"><ele>543.9999999999999</ele><time>2026-05-01T13:04:58.376Z</time></trkpt><trkpt lat="44.4844684" lon="5.3784686"><ele>544.0</ele><time>2026-05-01T13:05:04.377Z</time></trkpt><trkpt lat="44.4845341" lon="5.3784684"><ele>544.0</ele><time>2026-05-01T13:07:58.388Z</time></trkpt><trkpt lat="44.4845861" lon="5.3785303"><ele>544.0</ele><time>2026-05-01T13:08:07.376Z</time></trkpt><trkpt lat="44.4845514" lon="5.3784439"><ele>544.0</ele><time>2026-05-01T13:12:03.375Z</time></trkpt><trkpt lat="44.4845387" lon="5.3785437"><ele>543.9999999999999</ele><time>2026-05-01T13:12:33.385Z</time></trkpt><trkpt lat="44.4845024" lon="5.3786198"><ele>544.0</ele><time>2026-05-01T13:12:41.375Z</time></trkpt><trkpt lat="44.4844583" lon="5.3786862"><ele>543.9999999999999</ele><time>2026-05-01T13:12:52.403Z</time></trkpt><trkpt lat="44.484465" lon="5.3788299"><ele>544.0</ele><time>2026-05-01T13:30:58.35Z</time></trkpt><trkpt lat="44.4844385" lon="5.3787282"><ele>544.0</ele><time>2026-05-01T13:31:04.372Z</time></trkpt><trkpt lat="44.4844418" lon="5.3786297"><ele>544.0</ele><time>2026-05-01T13:31:10.372Z</time></trkpt><trkpt lat="44.4844778" lon="5.3785569"><ele>544.0</ele><time>2026-05-01T13:31:16.372Z</time></trkpt><trkpt lat="44.484469" lon="5.3784624"><ele>543.9999999999999</ele><time>2026-05-01T13:32:45.373Z</time></trkpt><trkpt lat="44.4845011" lon="5.3783816"><ele>544.0</ele><time>2026-05-01T13:32:55.379Z</time></trkpt><trkpt lat="44.4844584" lon="5.3784503"><ele>543.9999999999999</ele><time>2026-05-01T13:36:11.372Z</time></trkpt><trkpt lat="44.4845178" lon="5.3784175"><ele>544.0</ele><time>2026-05-01T13:39:03.37Z</time></trkpt><trkpt lat="44.4845725" lon="5.3784792"><ele>544.0</ele><time>2026-05-01T13:42:45.371Z</time></trkpt><trkpt lat="44.4845733" lon="5.3785768"><ele>544.0</ele><time>2026-05-01T13:42:49.37Z</time></trkpt><trkpt lat="44.4845116" lon="5.3786239"><ele>544.0</ele><time>2026-05-01T13:42:57.37Z</time></trkpt><trkpt lat="44.4844344" lon="5.378644"><ele>543.9999999999999</ele><time>2026-05-01T13:43:01.37Z</time></trkpt><trkpt lat="44.4843727" lon="5.3786184"><ele>544.0</ele><time>2026-05-01T13:43:04.37Z</time></trkpt><trkpt lat="44.4843561" lon="5.3785181"><ele>544.0</ele><time>2026-05-01T13:43:08.37Z</time></trkpt><trkpt lat="44.4843256" lon="5.3784152"><ele>544.0</ele><time>2026-05-01T13:43:12.37Z</time></trkpt><trkpt lat="44.4843249" lon="5.3783123"><ele>544.0</ele><time>2026-05-01T13:43:15.369Z</time></trkpt><trkpt lat="44.4843294" lon="5.3782"><ele>544.0</ele><time>2026-05-01T13:43:18.369Z</time></trkpt><trkpt lat="44.4843486" lon="5.3780844"><ele>544.0</ele><time>2026-05-01T13:43:20.369Z</time></trkpt><trkpt lat="44.4843959" lon="5.3779475"><ele>544.0</ele><time>2026-05-01T13:43:22.369Z</time></trkpt><trkpt lat="44.4844369" lon="5.3778089"><ele>544.2</ele><time>2026-05-01T13:43:24.369Z</time></trkpt><trkpt lat="44.4844731" lon="5.3776597"><ele>544.4</ele><time>2026-05-01T13:43:26.369Z</time></trkpt><trkpt lat="44.484491" lon="5.3775193"><ele>544.6</ele><time>2026-05-01T13:43:28.369Z</time></trkpt><trkpt lat="44.4844886" lon="5.377402"><ele>544.8</ele><time>2026-05-01T13:43:30.37Z</time></trkpt><trkpt lat="44.4844767" lon="5.3772908"><ele>545.0</ele><time>2026-05-01T13:43:32.369Z</time></trkpt><trkpt lat="44.4844488" lon="5.3771771"><ele>545.0</ele><time>2026-05-01T13:43:34.369Z</time></trkpt><trkpt lat="44.484401" lon="5.3770468"><ele>545.0</ele><time>2026-05-01T13:43:36.369Z</time></trkpt><trkpt lat="44.4843317" lon="5.3769297"><ele>545.0</ele><time>2026-05-01T13:43:38.37Z</time></trkpt><trkpt lat="44.484248" lon="5.37684"><ele>545.0</ele><time>2026-05-01T13:43:40.37Z</time></trkpt><trkpt lat="44.4841607" lon="5.3767715"><ele>545.0</ele><time>2026-05-01T13:43:42.369Z</time></trkpt><trkpt lat="44.4840724" lon="5.3767105"><ele>545.0</ele><time>2026-05-01T13:43:44.369Z</time></trkpt><trkpt lat="44.4839786" lon="5.3766544"><ele>545.0</ele><time>2026-05-01T13:43:46.369Z</time></trkpt><trkpt lat="44.4838742" lon="5.3765953"><ele>545.0</ele><time>2026-05-01T13:43:48.369Z</time></trkpt><trkpt lat="44.4838012" lon="5.3765542"><ele>545.0</ele><time>2026-05-01T13:43:49.369Z</time></trkpt><trkpt lat="44.4837245" lon="5.3765087"><ele>545.0</ele><time>2026-05-01T13:43:50.369Z</time></trkpt><trkpt lat="44.4836416" lon="5.3764572"><ele>544.4</ele><time>2026-05-01T13:43:51.369Z</time></trkpt><trkpt lat="44.4835519" lon="5.376399"><ele>543.8</ele><time>2026-05-01T13:43:52.369Z</time></trkpt><trkpt lat="44.4834598" lon="5.3763409"><ele>543.2</ele><time>2026-05-01T13:43:53.369Z</time></trkpt><trkpt lat="44.483361" lon="5.3762796"><ele>542.6</ele><time>2026-05-01T13:43:54.369Z</time></trkpt><trkpt lat="44.4832627" lon="5.3762151"><ele>542.0</ele><time>2026-05-01T13:43:55.369Z</time></trkpt><trkpt lat="44.4831612" lon="5.3761516"><ele>542.75</ele><time>2026-05-01T13:43:56.371Z</time></trkpt><trkpt lat="44.4830543" lon="5.3760914"><ele>543.5</ele><time>2026-05-01T13:43:57.369Z</time></trkpt><trkpt lat="44.4829499" lon="5.3760415"><ele>544.25</ele><time>2026-05-01T13:43:58.369Z</time></trkpt><trkpt lat="44.4828436" lon="5.3759906"><ele>545.0</ele><time>2026-05-01T13:43:59.369Z</time></trkpt><trkpt lat="44.4827397" lon="5.3759327"><ele>545.0</ele><time>2026-05-01T13:44:00.369Z</time></trkpt><trkpt lat="44.4826316" lon="5.3758749"><ele>545.0</ele><time>2026-05-01T13:44:01.369Z</time></trkpt><trkpt lat="44.4825175" lon="5.3758128"><ele>545.0</ele><time>2026-05-01T13:44:02.37Z</time></trkpt><trkpt lat="44.4824002" lon="5.3757459"><ele>545.0</ele><time>2026-05-01T13:44:03.37Z</time></trkpt><trkpt lat="44.4822812" lon="5.3756723"><ele>545.0</ele><time>2026-05-01T13:44:04.369Z</time></trkpt><trkpt lat="44.4821596" lon="5.3755916"><ele>545.0</ele><time>2026-05-01T13:44:05.369Z</time></trkpt><trkpt lat="44.4820339" lon="5.3755077"><ele>545.0</ele><time>2026-05-01T13:44:06.369Z</time></trkpt><trkpt lat="44.4819014" lon="5.3754278"><ele>545.0</ele><time>2026-05-01T13:44:07.369Z</time></trkpt><trkpt lat="44.4817613" lon="5.3753441"><ele>546.0</ele><time>2026-05-01T13:44:08.37Z</time></trkpt><trkpt lat="44.4816176" lon="5.375258"><ele>547.0</ele><time>2026-05-01T13:44:09.37Z</time></trkpt><trkpt lat="44.4814687" lon="5.3751745"><ele>548.0</ele><time>2026-05-01T13:44:10.369Z</time></trkpt><trkpt lat="44.4813161" lon="5.3750866"><ele>545.3333333333333</ele><time>2026-05-01T13:44:11.369Z</time></trkpt><trkpt lat="44.4811606" lon="5.3749969"><ele>542.6666666666666</ele><time>2026-05-01T13:44:12.37Z</time></trkpt><trkpt lat="44.4810036" lon="5.3749059"><ele>540.0</ele><time>2026-05-01T13:44:13.369Z</time></trkpt><trkpt lat="44.4808476" lon="5.3748152"><ele>540.0</ele><time>2026-05-01T13:44:14.37Z</time></trkpt><trkpt lat="44.4806896" lon="5.3747221"><ele>540.0</ele><time>2026-05-01T13:44:15.369Z</time></trkpt><trkpt lat="44.4805277" lon="5.3746289"><ele>540.0</ele><time>2026-05-01T13:44:16.369Z</time></trkpt><trkpt lat="44.4803661" lon="5.374532"><ele>541.3333333333334</ele><time>2026-05-01T13:44:17.37Z</time></trkpt><trkpt lat="44.4802066" lon="5.3744347"><ele>542.6666666666667</ele><time>2026-05-01T13:44:18.369Z</time></trkpt><trkpt lat="44.480048" lon="5.3743401"><ele>544.0</ele><time>2026-05-01T13:44:19.371Z</time></trkpt><trkpt lat="44.4798912" lon="5.3742498"><ele>544.0</ele><time>2026-05-01T13:44:20.369Z</time></trkpt><trkpt lat="44.4797342" lon="5.3741631"><ele>544.0</ele><time>2026-05-01T13:44:21.37Z</time></trkpt><trkpt lat="44.4795742" lon="5.374074"><ele>544.0</ele><time>2026-05-01T13:44:22.369Z</time></trkpt><trkpt lat="44.4794104" lon="5.3739816"><ele>542.0</ele><time>2026-05-01T13:44:23.369Z</time></trkpt><trkpt lat="44.4792439" lon="5.3738869"><ele>540.0</ele><time>2026-05-01T13:44:24.37Z</time></trkpt><trkpt lat="44.4790773" lon="5.373803"><ele>538.0</ele><time>2026-05-01T13:44:25.369Z</time></trkpt><trkpt lat="44.4789064" lon="5.3737473"><ele>542.3333333333334</ele><time>2026-05-01T13:44:26.369Z</time></trkpt><trkpt lat="44.4787286" lon="5.3737178"><ele>546.6666666666666</ele><time>2026-05-01T13:44:27.369Z</time></trkpt><trkpt lat="44.4785455" lon="5.3737214"><ele>551.0</ele><time>2026-05-01T13:44:28.369Z</time></trkpt><trkpt lat="44.4783616" lon="5.3737501"><ele>551.0</ele><time>2026-05-01T13:44:29.369Z</time></trkpt><trkpt lat="44.4781857" lon="5.3737978"><ele>551.0</ele><time>2026-05-01T13:44:30.369Z</time></trkpt><trkpt lat="44.4780138" lon="5.3738367"><ele>551.0</ele><time>2026-05-01T13:44:31.37Z</time></trkpt><trkpt lat="44.4778341" lon="5.3738494"><ele>550.0</ele><time>2026-05-01T13:44:32.369Z</time></trkpt><trkpt lat="44.4776512" lon="5.3738481"><ele>549.0</ele><time>2026-05-01T13:44:33.369Z</time></trkpt><trkpt lat="44.4774766" lon="5.3738358"><ele>548.0</ele><time>2026-05-01T13:44:34.369Z</time></trkpt><trkpt lat="44.4773063" lon="5.3738082"><ele>548.0</ele><time>2026-05-01T13:44:35.369Z</time></trkpt><trkpt lat="44.4771358" lon="5.3737635"><ele>548.0</ele><time>2026-05-01T13:44:36.369Z</time></trkpt><trkpt lat="44.4769693" lon="5.3736912"><ele>548.0</ele><time>2026-05-01T13:44:37.369Z</time></trkpt><trkpt lat="44.4768084" lon="5.373603"><ele>545.3333333333333</ele><time>2026-05-01T13:44:38.369Z</time></trkpt><trkpt lat="44.4766499" lon="5.3735107"><ele>542.6666666666666</ele><time>2026-05-01T13:44:39.37Z</time></trkpt><trkpt lat="44.4764923" lon="5.3734216"><ele>540.0</ele><time>2026-05-01T13:44:40.37Z</time></trkpt><trkpt lat="44.4763303" lon="5.3733302"><ele>539.0</ele><time>2026-05-01T13:44:41.37Z</time></trkpt><trkpt lat="44.4761631" lon="5.3732329"><ele>538.0</ele><time>2026-05-01T13:44:42.369Z</time></trkpt><trkpt lat="44.4759891" lon="5.3731343"><ele>537.0</ele><time>2026-05-01T13:44:43.369Z</time></trkpt><trkpt lat="44.4758107" lon="5.3730354"><ele>538.3333333333334</ele><time>2026-05-01T13:44:44.369Z</time></trkpt><trkpt lat="44.4756277" lon="5.3729342"><ele>539.6666666666667</ele><time>2026-05-01T13:44:45.37Z</time></trkpt><trkpt lat="44.4754434" lon="5.3728335"><ele>541.0</ele><time>2026-05-01T13:44:46.369Z</time></trkpt><trkpt lat="44.4752608" lon="5.3727336"><ele>541.0</ele><time>2026-05-01T13:44:47.369Z</time></trkpt><trkpt lat="44.4750844" lon="5.3726292"><ele>541.0</ele><time>2026-05-01T13:44:48.369Z</time></trkpt><trkpt lat="44.4749147" lon="5.3725138"><ele>541.0</ele><time>2026-05-01T13:44:49.369Z</time></trkpt><trkpt lat="44.4747537" lon="5.3723908"><ele>540.6666666666667</ele><time>2026-05-01T13:44:50.369Z</time></trkpt><trkpt lat="44.4746007" lon="5.3722688"><ele>540.3333333333334</ele><time>2026-05-01T13:44:51.369Z</time></trkpt><trkpt lat="44.4744569" lon="5.3721558"><ele>540.0</ele><time>2026-05-01T13:44:52.369Z</time></trkpt><trkpt lat="44.4743243" lon="5.3720416"><ele>540.0</ele><time>2026-05-01T13:44:53.369Z</time></trkpt><trkpt lat="44.4742033" lon="5.3719179"><ele>540.0</ele><time>2026-05-01T13:44:54.369Z</time></trkpt><trkpt lat="44.4740979" lon="5.3717845"><ele>540.0</ele><time>2026-05-01T13:44:55.37Z</time></trkpt><trkpt lat="44.4740015" lon="5.3716464"><ele>540.0</ele><time>2026-05-01T13:44:56.369Z</time></trkpt><trkpt lat="44.4739066" lon="5.3715077"><ele>540.0</ele><time>2026-05-01T13:44:57.37Z</time></trkpt><trkpt lat="44.4737995" lon="5.3713761"><ele>540.0</ele><time>2026-05-01T13:44:58.369Z</time></trkpt><trkpt lat="44.473675" lon="5.3712644"><ele>540.0</ele><time>2026-05-01T13:44:59.369Z</time></trkpt><trkpt lat="44.473529" lon="5.3711812"><ele>540.0</ele><time>2026-05-01T13:45:00.369Z</time></trkpt><trkpt lat="44.4733652" lon="5.3711203"><ele>540.0</ele><time>2026-05-01T13:45:01.369Z</time></trkpt><trkpt lat="44.4731867" lon="5.371075"><ele>540.0</ele><time>2026-05-01T13:45:02.369Z</time></trkpt><trkpt lat="44.4729992" lon="5.3710388"><ele>540.0</ele><time>2026-05-01T13:45:03.369Z</time></trkpt><trkpt lat="44.4728057" lon="5.3709983"><ele>538.3333333333334</ele><time>2026-05-01T13:45:04.369Z</time></trkpt><trkpt lat="44.4726077" lon="5.3709554"><ele>536.6666666666667</ele><time>2026-05-01T13:45:05.369Z</time></trkpt><trkpt lat="44.4724082" lon="5.3709149"><ele>535.0</ele><time>2026-05-01T13:45:06.369Z</time></trkpt><trkpt lat="44.4722059" lon="5.3708772"><ele>533.6666666666667</ele><time>2026-05-01T13:45:07.369Z</time></trkpt><trkpt lat="44.4720059" lon="5.3708326"><ele>532.3333333333334</ele><time>2026-05-01T13:45:08.369Z</time></trkpt><trkpt lat="44.4718054" lon="5.3707653"><ele>531.0</ele><time>2026-05-01T13:45:09.369Z</time></trkpt><trkpt lat="44.4716074" lon="5.3706697"><ele>531.0</ele><time>2026-05-01T13:45:10.369Z</time></trkpt><trkpt lat="44.4714089" lon="5.3705651"><ele>531.0</ele><time>2026-05-01T13:45:11.37Z</time></trkpt><trkpt lat="44.4712103" lon="5.3704584"><ele>531.0</ele><time>2026-05-01T13:45:12.37Z</time></trkpt><trkpt lat="44.471014" lon="5.3703533"><ele>531.0</ele><time>2026-05-01T13:45:13.369Z</time></trkpt><trkpt lat="44.4708207" lon="5.3702483"><ele>531.0</ele><time>2026-05-01T13:45:14.37Z</time></trkpt><trkpt lat="44.4706275" lon="5.3701348"><ele>531.0</ele><time>2026-05-01T13:45:15.369Z</time></trkpt><trkpt lat="44.4704327" lon="5.3700084"><ele>531.3333333333334</ele><time>2026-05-01T13:45:16.369Z</time></trkpt><trkpt lat="44.4702435" lon="5.3698712"><ele>531.6666666666667</ele><time>2026-05-01T13:45:17.369Z</time></trkpt><trkpt lat="44.4700615" lon="5.3697243"><ele>532.0</ele><time>2026-05-01T13:45:18.369Z</time></trkpt><trkpt lat="44.4698916" lon="5.3695643"><ele>532.0</ele><time>2026-05-01T13:45:19.369Z</time></trkpt><trkpt lat="44.4697365" lon="5.3693868"><ele>532.0</ele><time>2026-05-01T13:45:20.369Z</time></trkpt><trkpt lat="44.4695983" lon="5.3691963"><ele>532.0</ele><time>2026-05-01T13:45:21.369Z</time></trkpt><trkpt lat="44.4694655" lon="5.369002"><ele>531.0</ele><time>2026-05-01T13:45:22.369Z</time></trkpt><trkpt lat="44.4693368" lon="5.3688126"><ele>530.0</ele><time>2026-05-01T13:45:23.369Z</time></trkpt><trkpt lat="44.4692131" lon="5.3686269"><ele>529.0</ele><time>2026-05-01T13:45:24.369Z</time></trkpt><trkpt lat="44.4690908" lon="5.3684415"><ele>529.0</ele><time>2026-05-01T13:45:25.369Z</time></trkpt><trkpt lat="44.4689714" lon="5.368262"><ele>529.0</ele><time>2026-05-01T13:45:26.369Z</time></trkpt><trkpt lat="44.4688534" lon="5.3680852"><ele>529.0</ele><time>2026-05-01T13:45:27.369Z</time></trkpt><trkpt lat="44.468737" lon="5.3679157"><ele>528.3333333333334</ele><time>2026-05-01T13:45:28.369Z</time></trkpt><trkpt lat="44.4686231" lon="5.3677482"><ele>527.6666666666666</ele><time>2026-05-01T13:45:29.37Z</time></trkpt><trkpt lat="44.4685116" lon="5.3675828"><ele>527.0</ele><time>2026-05-01T13:45:30.369Z</time></trkpt><trkpt lat="44.4684031" lon="5.3674113"><ele>527.0</ele><time>2026-05-01T13:45:31.37Z</time></trkpt><trkpt lat="44.4682991" lon="5.3672345"><ele>527.0</ele><time>2026-05-01T13:45:32.369Z</time></trkpt><trkpt lat="44.4682057" lon="5.3670583"><ele>527.0</ele><time>2026-05-01T13:45:33.369Z</time></trkpt><trkpt lat="44.4681203" lon="5.3668772"><ele>530.25</ele><time>2026-05-01T13:45:34.37Z</time></trkpt><trkpt lat="44.4680494" lon="5.3666995"><ele>533.5</ele><time>2026-05-01T13:45:35.369Z</time></trkpt><trkpt lat="44.467999" lon="5.3665177"><ele>536.75</ele><time>2026-05-01T13:45:36.37Z</time></trkpt><trkpt lat="44.4679723" lon="5.3663261"><ele>540.0</ele><time>2026-05-01T13:45:37.369Z</time></trkpt><trkpt lat="44.4679647" lon="5.3661386"><ele>538.6</ele><time>2026-05-01T13:45:38.369Z</time></trkpt><trkpt lat="44.4679486" lon="5.3659775"><ele>537.2</ele><time>2026-05-01T13:45:39.369Z</time></trkpt><trkpt lat="44.4678967" lon="5.3658516"><ele>535.8</ele><time>2026-05-01T13:45:40.369Z</time></trkpt><trkpt lat="44.4678233" lon="5.3657619"><ele>534.4</ele><time>2026-05-01T13:45:41.369Z</time></trkpt><trkpt lat="44.4677329" lon="5.3656941"><ele>533.0</ele><time>2026-05-01T13:45:42.369Z</time></trkpt><trkpt lat="44.467638" lon="5.3656123"><ele>535.8</ele><time>2026-05-01T13:45:43.369Z</time></trkpt><trkpt lat="44.4675574" lon="5.365494"><ele>538.5999999999999</ele><time>2026-05-01T13:45:44.369Z</time></trkpt><trkpt lat="44.467509" lon="5.365353"><ele>541.4000000000001</ele><time>2026-05-01T13:45:45.37Z</time></trkpt><trkpt lat="44.4674978" lon="5.3652069"><ele>544.2</ele><time>2026-05-01T13:45:46.37Z</time></trkpt><trkpt lat="44.4675019" lon="5.3650745"><ele>547.0</ele><time>2026-05-01T13:45:47.369Z</time></trkpt><trkpt lat="44.4674819" lon="5.3649619"><ele>547.0</ele><time>2026-05-01T13:45:48.369Z</time></trkpt><trkpt lat="44.4674347" lon="5.3648816"><ele>547.0</ele><time>2026-05-01T13:45:49.369Z</time></trkpt><trkpt lat="44.4673678" lon="5.364839"><ele>547.0</ele><time>2026-05-01T13:45:50.369Z</time></trkpt><trkpt lat="44.4672821" lon="5.3648376"><ele>547.0</ele><time>2026-05-01T13:45:51.37Z</time></trkpt><trkpt lat="44.4671781" lon="5.3648674"><ele>547.0</ele><time>2026-05-01T13:45:52.369Z</time></trkpt><trkpt lat="44.4670583" lon="5.3649164"><ele>546.0</ele><time>2026-05-01T13:45:53.369Z</time></trkpt><trkpt lat="44.4669217" lon="5.3649723"><ele>545.0</ele><time>2026-05-01T13:45:54.369Z</time></trkpt><trkpt lat="44.4667702" lon="5.3650105"><ele>544.0</ele><time>2026-05-01T13:45:55.369Z</time></trkpt><trkpt lat="44.4666049" lon="5.3650061"><ele>544.0</ele><time>2026-05-01T13:45:56.369Z</time></trkpt><trkpt lat="44.4664448" lon="5.3649681"><ele>544.0</ele><time>2026-05-01T13:45:57.37Z</time></trkpt><trkpt lat="44.4663061" lon="5.3649059"><ele>544.0</ele><time>2026-05-01T13:45:58.37Z</time></trkpt><trkpt lat="44.466201" lon="5.3648259"><ele>544.0</ele><time>2026-05-01T13:45:59.369Z</time></trkpt><trkpt lat="44.4661313" lon="5.3647148"><ele>544.8</ele><time>2026-05-01T13:46:00.37Z</time></trkpt><trkpt lat="44.4661089" lon="5.3646047"><ele>545.5999999999999</ele><time>2026-05-01T13:46:01.369Z</time></trkpt><trkpt lat="44.4661285" lon="5.3645036"><ele>546.4</ele><time>2026-05-01T13:46:02.369Z</time></trkpt><trkpt lat="44.4661805" lon="5.3644187"><ele>547.1999999999999</ele><time>2026-05-01T13:46:03.37Z</time></trkpt><trkpt lat="44.4662641" lon="5.3643417"><ele>548.0</ele><time>2026-05-01T13:46:04.369Z</time></trkpt><trkpt lat="44.466377" lon="5.3642622"><ele>548.0</ele><time>2026-05-01T13:46:05.369Z</time></trkpt><trkpt lat="44.4665187" lon="5.36419"><ele>548.0</ele><time>2026-05-01T13:46:06.371Z</time></trkpt><trkpt lat="44.4666841" lon="5.3641351"><ele>548.0</ele><time>2026-05-01T13:46:07.369Z</time></trkpt><trkpt lat="44.4668531" lon="5.364088"><ele>548.0</ele><time>2026-05-01T13:46:08.369Z</time></trkpt><trkpt lat="44.4670298" lon="5.364055"><ele>548.0</ele><time>2026-05-01T13:46:09.37Z</time></trkpt><trkpt lat="44.4672076" lon="5.3640527"><ele>548.0</ele><time>2026-05-01T13:46:10.369Z</time></trkpt><trkpt lat="44.4673766" lon="5.3640757"><ele>550.75</ele><time>2026-05-01T13:46:11.369Z</time></trkpt><trkpt lat="44.4675253" lon="5.3641321"><ele>553.5</ele><time>2026-05-01T13:46:12.369Z</time></trkpt><trkpt lat="44.4676426" lon="5.3641995"><ele>556.25</ele><time>2026-05-01T13:46:13.369Z</time></trkpt><trkpt lat="44.4677314" lon="5.3642268"><ele>559.0</ele><time>2026-05-01T13:46:14.37Z</time></trkpt><trkpt lat="44.4678152" lon="5.3642009"><ele>559.0</ele><time>2026-05-01T13:46:15.37Z</time></trkpt><trkpt lat="44.4678667" lon="5.3641339"><ele>559.0</ele><time>2026-05-01T13:46:16.369Z</time></trkpt><trkpt lat="44.4678938" lon="5.3640441"><ele>559.0</ele><time>2026-05-01T13:46:17.37Z</time></trkpt><trkpt lat="44.4679258" lon="5.3639372"><ele>559.0</ele><time>2026-05-01T13:46:18.369Z</time></trkpt><trkpt lat="44.4679926" lon="5.3638543"><ele>559.0</ele><time>2026-05-01T13:46:19.37Z</time></trkpt><trkpt lat="44.4680814" lon="5.3638196"><ele>559.0</ele><time>2026-05-01T13:46:20.369Z</time></trkpt><trkpt lat="44.4681776" lon="5.3638334"><ele>561.8</ele><time>2026-05-01T13:46:21.369Z</time></trkpt><trkpt lat="44.4682689" lon="5.3638545"><ele>564.5999999999999</ele><time>2026-05-01T13:46:22.369Z</time></trkpt><trkpt lat="44.4683486" lon="5.3638358"><ele>567.4</ele><time>2026-05-01T13:46:23.369Z</time></trkpt><trkpt lat="44.4684096" lon="5.3637737"><ele>570.1999999999999</ele><time>2026-05-01T13:46:24.37Z</time></trkpt><trkpt lat="44.4684356" lon="5.3636883"><ele>573.0</ele><time>2026-05-01T13:46:25.369Z</time></trkpt><trkpt lat="44.4683928" lon="5.3635032"><ele>573.0</ele><time>2026-05-01T13:46:27.369Z</time></trkpt><trkpt lat="44.4683618" lon="5.3633692"><ele>573.0</ele><time>2026-05-01T13:46:28.369Z</time></trkpt><trkpt lat="44.4683685" lon="5.3632215"><ele>573.0</ele><time>2026-05-01T13:46:29.369Z</time></trkpt><trkpt lat="44.4684142" lon="5.3631164"><ele>573.0</ele><time>2026-05-01T13:46:30.369Z</time></trkpt><trkpt lat="44.4684818" lon="5.3630559"><ele>573.0</ele><time>2026-05-01T13:46:31.369Z</time></trkpt><trkpt lat="44.4685779" lon="5.3630106"><ele>577.75</ele><time>2026-05-01T13:46:32.37Z</time></trkpt><trkpt lat="44.4686929" lon="5.3629724"><ele>582.5</ele><time>2026-05-01T13:46:33.369Z</time></trkpt><trkpt lat="44.4688122" lon="5.3629126"><ele>587.25</ele><time>2026-05-01T13:46:34.37Z</time></trkpt><trkpt lat="44.4689038" lon="5.362817"><ele>592.0</ele><time>2026-05-01T13:46:35.369Z</time></trkpt><trkpt lat="44.4689964" lon="5.3627209"><ele>592.0</ele><time>2026-05-01T13:46:36.37Z</time></trkpt><trkpt lat="44.4690943" lon="5.3626373"><ele>592.0</ele><time>2026-05-01T13:46:37.369Z</time></trkpt><trkpt lat="44.4691655" lon="5.3625314"><ele>592.0</ele><time>2026-05-01T13:46:38.369Z</time></trkpt><trkpt lat="44.4692004" lon="5.3624056"><ele>592.0</ele><time>2026-05-01T13:46:39.369Z</time></trkpt><trkpt lat="44.4692128" lon="5.3622667"><ele>592.0</ele><time>2026-05-01T13:46:40.369Z</time></trkpt><trkpt lat="44.4692209" lon="5.3621049"><ele>588.75</ele><time>2026-05-01T13:46:41.369Z</time></trkpt><trkpt lat="44.4692352" lon="5.3619252"><ele>585.5</ele><time>2026-05-01T13:46:42.369Z</time></trkpt><trkpt lat="44.4692564" lon="5.3617491"><ele>582.25</ele><time>2026-05-01T13:46:43.37Z</time></trkpt><trkpt lat="44.4693021" lon="5.361607"><ele>579.0</ele><time>2026-05-01T13:46:44.369Z</time></trkpt><trkpt lat="44.4693697" lon="5.3615072"><ele>579.0</ele><time>2026-05-01T13:46:45.369Z</time></trkpt><trkpt lat="44.4694411" lon="5.3614378"><ele>579.0</ele><time>2026-05-01T13:46:46.369Z</time></trkpt><trkpt lat="44.4694995" lon="5.3613598"><ele>579.0</ele><time>2026-05-01T13:46:47.369Z</time></trkpt><trkpt lat="44.4695345" lon="5.3612594"><ele>579.0</ele><time>2026-05-01T13:46:48.369Z</time></trkpt><trkpt lat="44.4695471" lon="5.3611352"><ele>579.0</ele><time>2026-05-01T13:46:49.369Z</time></trkpt><trkpt lat="44.4695311" lon="5.36099"><ele>579.0</ele><time>2026-05-01T13:46:50.369Z</time></trkpt><trkpt lat="44.4694944" lon="5.3608226"><ele>579.2</ele><time>2026-05-01T13:46:51.369Z</time></trkpt><trkpt lat="44.4694564" lon="5.3606564"><ele>579.4</ele><time>2026-05-01T13:46:52.369Z</time></trkpt><trkpt lat="44.4694376" lon="5.3605061"><ele>579.6</ele><time>2026-05-01T13:46:53.369Z</time></trkpt><trkpt lat="44.4694057" lon="5.3603809"><ele>579.8</ele><time>2026-05-01T13:46:54.37Z</time></trkpt><trkpt lat="44.4693441" lon="5.3602793"><ele>580.0</ele><time>2026-05-01T13:46:55.369Z</time></trkpt><trkpt lat="44.4692659" lon="5.3601747"><ele>585.0</ele><time>2026-05-01T13:46:56.37Z</time></trkpt><trkpt lat="44.4692072" lon="5.3600439"><ele>590.0</ele><time>2026-05-01T13:46:57.37Z</time></trkpt><trkpt lat="44.4691582" lon="5.3598846"><ele>595.0</ele><time>2026-05-01T13:46:58.369Z</time></trkpt><trkpt lat="44.4690926" lon="5.359716"><ele>600.0</ele><time>2026-05-01T13:46:59.369Z</time></trkpt><trkpt lat="44.4689982" lon="5.3595653"><ele>606.6</ele><time>2026-05-01T13:47:00.369Z</time></trkpt><trkpt lat="44.4689176" lon="5.359432"><ele>613.2</ele><time>2026-05-01T13:47:01.37Z</time></trkpt><trkpt lat="44.468863" lon="5.3592978"><ele>619.8</ele><time>2026-05-01T13:47:02.369Z</time></trkpt><trkpt lat="44.468841" lon="5.3591635"><ele>626.4</ele><time>2026-05-01T13:47:03.369Z</time></trkpt><trkpt lat="44.4688405" lon="5.3590312"><ele>633.0</ele><time>2026-05-01T13:47:04.369Z</time></trkpt><trkpt lat="44.4688356" lon="5.358892"><ele>634.5999999999999</ele><time>2026-05-01T13:47:05.369Z</time></trkpt><trkpt lat="44.4688029" lon="5.3587522"><ele>636.1999999999999</ele><time>2026-05-01T13:47:06.369Z</time></trkpt><trkpt lat="44.4687443" lon="5.3586215"><ele>637.8</ele><time>2026-05-01T13:47:07.369Z</time></trkpt><trkpt lat="44.4686753" lon="5.3585143"><ele>639.4</ele><time>2026-05-01T13:47:08.369Z</time></trkpt><trkpt lat="44.4686329" lon="5.3584095"><ele>641.0</ele><time>2026-05-01T13:47:09.369Z</time></trkpt><trkpt lat="44.4686185" lon="5.3582995"><ele>640.1666666666666</ele><time>2026-05-01T13:47:10.369Z</time></trkpt><trkpt lat="44.4686217" lon="5.3581952"><ele>639.3333333333333</ele><time>2026-05-01T13:47:11.37Z</time></trkpt><trkpt lat="44.4686344" lon="5.3580877"><ele>638.5</ele><time>2026-05-01T13:47:12.369Z</time></trkpt><trkpt lat="44.4686519" lon="5.3579867"><ele>637.6666666666666</ele><time>2026-05-01T13:47:13.369Z</time></trkpt><trkpt lat="44.4686813" lon="5.3578901"><ele>636.8333333333334</ele><time>2026-05-01T13:47:14.369Z</time></trkpt><trkpt lat="44.4687345" lon="5.3578135"><ele>636.0</ele><time>2026-05-01T13:47:15.369Z</time></trkpt><trkpt lat="44.4688207" lon="5.357744"><ele>632.5</ele><time>2026-05-01T13:47:16.369Z</time></trkpt><trkpt lat="44.4689318" lon="5.3576795"><ele>629.0</ele><time>2026-05-01T13:47:17.369Z</time></trkpt><trkpt lat="44.4690521" lon="5.3576271"><ele>625.5</ele><time>2026-05-01T13:47:18.369Z</time></trkpt><trkpt lat="44.469162" lon="5.3575543"><ele>622.0</ele><time>2026-05-01T13:47:19.369Z</time></trkpt><trkpt lat="44.4692478" lon="5.3574389"><ele>622.0</ele><time>2026-05-01T13:47:20.37Z</time></trkpt><trkpt lat="44.4693194" lon="5.3573093"><ele>622.0</ele><time>2026-05-01T13:47:21.369Z</time></trkpt><trkpt lat="44.4693949" lon="5.3571906"><ele>622.0</ele><time>2026-05-01T13:47:22.369Z</time></trkpt><trkpt lat="44.4694917" lon="5.3571031"><ele>622.0</ele><time>2026-05-01T13:47:23.369Z</time></trkpt><trkpt lat="44.4696168" lon="5.3570139"><ele>623.3333333333334</ele><time>2026-05-01T13:47:24.369Z</time></trkpt><trkpt lat="44.4697761" lon="5.3569158"><ele>624.6666666666666</ele><time>2026-05-01T13:47:25.369Z</time></trkpt><trkpt lat="44.4699487" lon="5.3568092"><ele>626.0</ele><time>2026-05-01T13:47:26.37Z</time></trkpt><trkpt lat="44.4701233" lon="5.3567074"><ele>626.0</ele><time>2026-05-01T13:47:27.369Z</time></trkpt><trkpt lat="44.4702838" lon="5.3566135"><ele>626.0</ele><time>2026-05-01T13:47:28.369Z</time></trkpt><trkpt lat="44.4704264" lon="5.3565147"><ele>626.0</ele><time>2026-05-01T13:47:29.369Z</time></trkpt><trkpt lat="44.4705424" lon="5.3564165"><ele>626.1666666666666</ele><time>2026-05-01T13:47:30.369Z</time></trkpt><trkpt lat="44.470629" lon="5.3563322"><ele>626.3333333333333</ele><time>2026-05-01T13:47:31.369Z</time></trkpt><trkpt lat="44.4706877" lon="5.3562305"><ele>626.5</ele><time>2026-05-01T13:47:32.369Z</time></trkpt><trkpt lat="44.4707123" lon="5.3561152"><ele>626.6666666666666</ele><time>2026-05-01T13:47:33.369Z</time></trkpt><trkpt lat="44.4707392" lon="5.3560116"><ele>626.8333333333334</ele><time>2026-05-01T13:47:34.369Z</time></trkpt><trkpt lat="44.4707955" lon="5.3559268"><ele>627.0</ele><time>2026-05-01T13:47:35.37Z</time></trkpt><trkpt lat="44.4708871" lon="5.3558607"><ele>627.0</ele><time>2026-05-01T13:47:36.369Z</time></trkpt><trkpt lat="44.4709946" lon="5.3557914"><ele>627.0</ele><time>2026-05-01T13:47:37.369Z</time></trkpt><trkpt lat="44.4710855" lon="5.3556869"><ele>627.0</ele><time>2026-05-01T13:47:38.369Z</time></trkpt><trkpt lat="44.4711483" lon="5.3555467"><ele>627.0</ele><time>2026-05-01T13:47:39.369Z</time></trkpt><trkpt lat="44.4711842" lon="5.3553764"><ele>628.75</ele><time>2026-05-01T13:47:40.37Z</time></trkpt><trkpt lat="44.4712219" lon="5.3552063"><ele>630.5</ele><time>2026-05-01T13:47:41.369Z</time></trkpt><trkpt lat="44.4712988" lon="5.3550667"><ele>632.25</ele><time>2026-05-01T13:47:42.369Z</time></trkpt><trkpt lat="44.4713945" lon="5.3549461"><ele>634.0</ele><time>2026-05-01T13:47:43.37Z</time></trkpt><trkpt lat="44.4715112" lon="5.3548472"><ele>634.3333333333334</ele><time>2026-05-01T13:47:44.369Z</time></trkpt><trkpt lat="44.4716509" lon="5.3547794"><ele>634.6666666666666</ele><time>2026-05-01T13:47:45.369Z</time></trkpt><trkpt lat="44.4718026" lon="5.3547275"><ele>635.0</ele><time>2026-05-01T13:47:46.369Z</time></trkpt><trkpt lat="44.4719484" lon="5.3546914"><ele>635.0</ele><time>2026-05-01T13:47:47.369Z</time></trkpt><trkpt lat="44.4720968" lon="5.3546937"><ele>635.0</ele><time>2026-05-01T13:47:48.369Z</time></trkpt><trkpt lat="44.4722494" lon="5.3547065"><ele>635.0</ele><time>2026-05-01T13:47:49.369Z</time></trkpt><trkpt lat="44.4724086" lon="5.3546866"><ele>635.0</ele><time>2026-05-01T13:47:50.369Z</time></trkpt><trkpt lat="44.4725655" lon="5.3546221"><ele>635.0</ele><time>2026-05-01T13:47:51.369Z</time></trkpt><trkpt lat="44.472725" lon="5.3545155"><ele>635.0</ele><time>2026-05-01T13:47:52.369Z</time></trkpt><trkpt lat="44.4728984" lon="5.3543967"><ele>636.6666666666666</ele><time>2026-05-01T13:47:53.37Z</time></trkpt><trkpt lat="44.473085" lon="5.3542914"><ele>638.3333333333334</ele><time>2026-05-01T13:47:54.369Z</time></trkpt><trkpt lat="44.4732706" lon="5.3542033"><ele>640.0</ele><time>2026-05-01T13:47:55.37Z</time></trkpt><trkpt lat="44.4734579" lon="5.3541154"><ele>640.0</ele><time>2026-05-01T13:47:56.369Z</time></trkpt><trkpt lat="44.4736372" lon="5.3540302"><ele>640.0</ele><time>2026-05-01T13:47:57.369Z</time></trkpt><trkpt lat="44.4738015" lon="5.3539268"><ele>640.0</ele><time>2026-05-01T13:47:58.369Z</time></trkpt><trkpt lat="44.4739523" lon="5.3537986"><ele>641.0</ele><time>2026-05-01T13:47:59.37Z</time></trkpt><trkpt lat="44.474084" lon="5.3536396"><ele>642.0</ele><time>2026-05-01T13:48:00.37Z</time></trkpt><trkpt lat="44.4742009" lon="5.3534486"><ele>643.0</ele><time>2026-05-01T13:48:01.369Z</time></trkpt><trkpt lat="44.4743115" lon="5.353237"><ele>642.0</ele><time>2026-05-01T13:48:02.369Z</time></trkpt><trkpt lat="44.4744171" lon="5.3530144"><ele>641.0</ele><time>2026-05-01T13:48:03.369Z</time></trkpt><trkpt lat="44.4745112" lon="5.3527911"><ele>640.0</ele><time>2026-05-01T13:48:04.369Z</time></trkpt><trkpt lat="44.4746062" lon="5.3525775"><ele>639.3333333333334</ele><time>2026-05-01T13:48:05.369Z</time></trkpt><trkpt lat="44.474721" lon="5.3523862"><ele>638.6666666666666</ele><time>2026-05-01T13:48:06.369Z</time></trkpt><trkpt lat="44.474857" lon="5.3522164"><ele>638.0</ele><time>2026-05-01T13:48:07.369Z</time></trkpt><trkpt lat="44.4750084" lon="5.3520664"><ele>638.0</ele><time>2026-05-01T13:48:08.37Z</time></trkpt><trkpt lat="44.4751827" lon="5.3519434"><ele>638.0</ele><time>2026-05-01T13:48:09.369Z</time></trkpt><trkpt lat="44.4753513" lon="5.351792"><ele>638.0</ele><time>2026-05-01T13:48:10.369Z</time></trkpt><trkpt lat="44.4755144" lon="5.3515995"><ele>640.0</ele><time>2026-05-01T13:48:11.369Z</time></trkpt><trkpt lat="44.475671" lon="5.3513774"><ele>642.0</ele><time>2026-05-01T13:48:12.369Z</time></trkpt><trkpt lat="44.4758352" lon="5.3511461"><ele>642.0</ele><time>2026-05-01T13:48:13.369Z</time></trkpt><trkpt lat="44.4760034" lon="5.3509169"><ele>642.0</ele><time>2026-05-01T13:48:14.369Z</time></trkpt><trkpt lat="44.4761722" lon="5.3506933"><ele>645.0</ele><time>2026-05-01T13:48:15.369Z</time></trkpt><trkpt lat="44.4763411" lon="5.3504742"><ele>648.0</ele><time>2026-05-01T13:48:16.369Z</time></trkpt><trkpt lat="44.4764944" lon="5.3502568"><ele>651.0</ele><time>2026-05-01T13:48:17.369Z</time></trkpt><trkpt lat="44.4766349" lon="5.3500518"><ele>651.0</ele><time>2026-05-01T13:48:18.369Z</time></trkpt><trkpt lat="44.4767642" lon="5.3498724"><ele>651.0</ele><time>2026-05-01T13:48:19.37Z</time></trkpt><trkpt lat="44.4769058" lon="5.3497286"><ele>651.0</ele><time>2026-05-01T13:48:20.37Z</time></trkpt><trkpt lat="44.4770655" lon="5.3495974"><ele>652.3333333333334</ele><time>2026-05-01T13:48:21.369Z</time></trkpt><trkpt lat="44.477232" lon="5.3494697"><ele>653.6666666666667</ele><time>2026-05-01T13:48:22.369Z</time></trkpt><trkpt lat="44.4774014" lon="5.3493409"><ele>655.0</ele><time>2026-05-01T13:48:23.369Z</time></trkpt><trkpt lat="44.4775732" lon="5.3492142"><ele>655.0</ele><time>2026-05-01T13:48:24.369Z</time></trkpt><trkpt lat="44.4777487" lon="5.3491003"><ele>655.0</ele><time>2026-05-01T13:48:25.369Z</time></trkpt><trkpt lat="44.4779246" lon="5.3489984"><ele>655.0</ele><time>2026-05-01T13:48:26.369Z</time></trkpt><trkpt lat="44.4780876" lon="5.3488937"><ele>655.6666666666667</ele><time>2026-05-01T13:48:27.371Z</time></trkpt><trkpt lat="44.4782412" lon="5.3487525"><ele>656.3333333333334</ele><time>2026-05-01T13:48:28.37Z</time></trkpt><trkpt lat="44.4783863" lon="5.3485768"><ele>657.0</ele><time>2026-05-01T13:48:29.369Z</time></trkpt><trkpt lat="44.4785179" lon="5.3483734"><ele>657.0</ele><time>2026-05-01T13:48:30.37Z</time></trkpt><trkpt lat="44.4786437" lon="5.3481626"><ele>657.0</ele><time>2026-05-01T13:48:31.37Z</time></trkpt><trkpt lat="44.4787742" lon="5.347966"><ele>657.0</ele><time>2026-05-01T13:48:32.369Z</time></trkpt><trkpt lat="44.4789161" lon="5.3477997"><ele>658.0</ele><time>2026-05-01T13:48:33.369Z</time></trkpt><trkpt lat="44.4790589" lon="5.3476656"><ele>659.0</ele><time>2026-05-01T13:48:34.369Z</time></trkpt><trkpt lat="44.4792028" lon="5.3475624"><ele>660.0</ele><time>2026-05-01T13:48:35.369Z</time></trkpt><trkpt lat="44.4793482" lon="5.3474786"><ele>660.0</ele><time>2026-05-01T13:48:36.369Z</time></trkpt><trkpt lat="44.4794966" lon="5.3473962"><ele>660.0</ele><time>2026-05-01T13:48:37.37Z</time></trkpt><trkpt lat="44.4796444" lon="5.3473106"><ele>660.0</ele><time>2026-05-01T13:48:38.368Z</time></trkpt><trkpt lat="44.479789" lon="5.3472282"><ele>659.25</ele><time>2026-05-01T13:48:39.368Z</time></trkpt><trkpt lat="44.4799206" lon="5.3471505"><ele>658.5</ele><time>2026-05-01T13:48:40.368Z</time></trkpt><trkpt lat="44.4800391" lon="5.3470561"><ele>657.75</ele><time>2026-05-01T13:48:41.369Z</time></trkpt><trkpt lat="44.4801405" lon="5.3469238"><ele>657.0</ele><time>2026-05-01T13:48:42.368Z</time></trkpt><trkpt lat="44.4802165" lon="5.3467658"><ele>657.0</ele><time>2026-05-01T13:48:43.368Z</time></trkpt><trkpt lat="44.4802777" lon="5.3465901"><ele>657.0</ele><time>2026-05-01T13:48:44.368Z</time></trkpt><trkpt lat="44.4803375" lon="5.3464209"><ele>657.0</ele><time>2026-05-01T13:48:45.369Z</time></trkpt><trkpt lat="44.4804053" lon="5.3462716"><ele>657.0</ele><time>2026-05-01T13:48:46.368Z</time></trkpt><trkpt lat="44.480478" lon="5.3461383"><ele>659.75</ele><time>2026-05-01T13:48:47.368Z</time></trkpt><trkpt lat="44.4805597" lon="5.346009"><ele>662.5</ele><time>2026-05-01T13:48:48.368Z</time></trkpt><trkpt lat="44.4806603" lon="5.3458907"><ele>665.25</ele><time>2026-05-01T13:48:49.368Z</time></trkpt><trkpt lat="44.4807826" lon="5.345798"><ele>668.0</ele><time>2026-05-01T13:48:50.368Z</time></trkpt><trkpt lat="44.4809176" lon="5.3457295"><ele>668.0</ele><time>2026-05-01T13:48:51.369Z</time></trkpt><trkpt lat="44.4810576" lon="5.3456902"><ele>668.0</ele><time>2026-05-01T13:48:52.368Z</time></trkpt><trkpt lat="44.4811979" lon="5.3456669"><ele>668.0</ele><time>2026-05-01T13:48:53.368Z</time></trkpt><trkpt lat="44.4813363" lon="5.3456451"><ele>668.0</ele><time>2026-05-01T13:48:54.368Z</time></trkpt><trkpt lat="44.4814625" lon="5.3456133"><ele>667.25</ele><time>2026-05-01T13:48:55.368Z</time></trkpt><trkpt lat="44.4815763" lon="5.3455531"><ele>666.5</ele><time>2026-05-01T13:48:56.368Z</time></trkpt><trkpt lat="44.4816808" lon="5.3454391"><ele>665.75</ele><time>2026-05-01T13:48:57.369Z</time></trkpt><trkpt lat="44.4817731" lon="5.3452824"><ele>665.0</ele><time>2026-05-01T13:48:58.368Z</time></trkpt><trkpt lat="44.4818683" lon="5.3451025"><ele>665.0</ele><time>2026-05-01T13:48:59.368Z</time></trkpt><trkpt lat="44.481974" lon="5.3449291"><ele>665.0</ele><time>2026-05-01T13:49:00.369Z</time></trkpt><trkpt lat="44.4820828" lon="5.3447798"><ele>665.0</ele><time>2026-05-01T13:49:01.368Z</time></trkpt><trkpt lat="44.482191" lon="5.3446368"><ele>666.0</ele><time>2026-05-01T13:49:02.368Z</time></trkpt><trkpt lat="44.4823003" lon="5.3444866"><ele>667.0</ele><time>2026-05-01T13:49:03.369Z</time></trkpt><trkpt lat="44.4824046" lon="5.3443327"><ele>668.0</ele><time>2026-05-01T13:49:04.369Z</time></trkpt><trkpt lat="44.4824922" lon="5.3441761"><ele>669.0</ele><time>2026-05-01T13:49:05.368Z</time></trkpt><trkpt lat="44.482543" lon="5.3440046"><ele>671.0</ele><time>2026-05-01T13:49:06.369Z</time></trkpt><trkpt lat="44.482553" lon="5.3438247"><ele>673.0</ele><time>2026-05-01T13:49:07.368Z</time></trkpt><trkpt lat="44.4825368" lon="5.3436285"><ele>675.0</ele><time>2026-05-01T13:49:08.368Z</time></trkpt><trkpt lat="44.482517" lon="5.3433989"><ele>677.0</ele><time>2026-05-01T13:49:09.369Z</time></trkpt><trkpt lat="44.4825024" lon="5.3431417"><ele>678.3333333333333</ele><time>2026-05-01T13:49:10.368Z</time></trkpt><trkpt lat="44.4824825" lon="5.3428589"><ele>679.6666666666666</ele><time>2026-05-01T13:49:11.368Z</time></trkpt><trkpt lat="44.4824569" lon="5.3425734"><ele>681.0</ele><time>2026-05-01T13:49:12.368Z</time></trkpt><trkpt lat="44.4824556" lon="5.3422938"><ele>681.0</ele><time>2026-05-01T13:49:13.37Z</time></trkpt><trkpt lat="44.4824808" lon="5.3420141"><ele>681.0</ele><time>2026-05-01T13:49:14.369Z</time></trkpt><trkpt lat="44.4825213" lon="5.3417355"><ele>681.0</ele><time>2026-05-01T13:49:15.368Z</time></trkpt><trkpt lat="44.4825701" lon="5.3414524"><ele>681.6666666666666</ele><time>2026-05-01T13:49:16.368Z</time></trkpt><trkpt lat="44.4826259" lon="5.3411659"><ele>682.3333333333333</ele><time>2026-05-01T13:49:17.368Z</time></trkpt><trkpt lat="44.4826964" lon="5.3408852"><ele>683.0</ele><time>2026-05-01T13:49:18.368Z</time></trkpt><trkpt lat="44.4827707" lon="5.3406062"><ele>684.3333333333333</ele><time>2026-05-01T13:49:19.368Z</time></trkpt><trkpt lat="44.4828267" lon="5.34032"><ele>685.6666666666666</ele><time>2026-05-01T13:49:20.369Z</time></trkpt><trkpt lat="44.4828602" lon="5.3400216"><ele>687.0</ele><time>2026-05-01T13:49:21.368Z</time></trkpt><trkpt lat="44.4828719" lon="5.3397093"><ele>688.6666666666666</ele><time>2026-05-01T13:49:22.369Z</time></trkpt><trkpt lat="44.4828725" lon="5.3394004"><ele>690.3333333333333</ele><time>2026-05-01T13:49:23.368Z</time></trkpt><trkpt lat="44.4828654" lon="5.3391078"><ele>692.0</ele><time>2026-05-01T13:49:24.368Z</time></trkpt><trkpt lat="44.4828685" lon="5.3388319"><ele>694.3333333333333</ele><time>2026-05-01T13:49:25.368Z</time></trkpt><trkpt lat="44.482899" lon="5.3385787"><ele>696.6666666666666</ele><time>2026-05-01T13:49:26.368Z</time></trkpt><trkpt lat="44.4829583" lon="5.3383512"><ele>699.0</ele><time>2026-05-01T13:49:27.369Z</time></trkpt><trkpt lat="44.4830467" lon="5.3381444"><ele>698.0</ele><time>2026-05-01T13:49:28.368Z</time></trkpt><trkpt lat="44.483158" lon="5.3379719"><ele>697.0</ele><time>2026-05-01T13:49:29.368Z</time></trkpt><trkpt lat="44.4832603" lon="5.3378026"><ele>696.0</ele><time>2026-05-01T13:49:30.368Z</time></trkpt><trkpt lat="44.4833308" lon="5.3376081"><ele>696.0</ele><time>2026-05-01T13:49:31.368Z</time></trkpt><trkpt lat="44.4833664" lon="5.3373897"><ele>696.0</ele><time>2026-05-01T13:49:32.368Z</time></trkpt><trkpt lat="44.4833709" lon="5.3371477"><ele>696.0</ele><time>2026-05-01T13:49:33.368Z</time></trkpt><trkpt lat="44.4833526" lon="5.3368866"><ele>695.0</ele><time>2026-05-01T13:49:34.368Z</time></trkpt><trkpt lat="44.483334" lon="5.3366293"><ele>694.0</ele><time>2026-05-01T13:49:35.368Z</time></trkpt><trkpt lat="44.4833426" lon="5.336391"><ele>693.0</ele><time>2026-05-01T13:49:36.368Z</time></trkpt><trkpt lat="44.4833772" lon="5.3361812"><ele>692.0</ele><time>2026-05-01T13:49:37.368Z</time></trkpt><trkpt lat="44.4834461" lon="5.3360036"><ele>691.0</ele><time>2026-05-01T13:49:38.368Z</time></trkpt><trkpt lat="44.4835467" lon="5.3358492"><ele>690.0</ele><time>2026-05-01T13:49:39.368Z</time></trkpt><trkpt lat="44.4836595" lon="5.335687"><ele>692.0</ele><time>2026-05-01T13:49:40.369Z</time></trkpt><trkpt lat="44.4837504" lon="5.3354922"><ele>694.0</ele><time>2026-05-01T13:49:41.368Z</time></trkpt><trkpt lat="44.4838377" lon="5.3353068"><ele>696.0</ele><time>2026-05-01T13:49:42.368Z</time></trkpt><trkpt lat="44.4839465" lon="5.3351719"><ele>696.5</ele><time>2026-05-01T13:49:43.368Z</time></trkpt><trkpt lat="44.484072" lon="5.3350794"><ele>697.0</ele><time>2026-05-01T13:49:44.368Z</time></trkpt><trkpt lat="44.4842108" lon="5.3350089"><ele>697.5</ele><time>2026-05-01T13:49:45.368Z</time></trkpt><trkpt lat="44.4843452" lon="5.3349254"><ele>698.0</ele><time>2026-05-01T13:49:46.369Z</time></trkpt><trkpt lat="44.4844623" lon="5.3348086"><ele>696.5</ele><time>2026-05-01T13:49:47.369Z</time></trkpt><trkpt lat="44.4845574" lon="5.3346593"><ele>695.0</ele><time>2026-05-01T13:49:48.368Z</time></trkpt><trkpt lat="44.4846194" lon="5.3344833"><ele>693.5</ele><time>2026-05-01T13:49:49.368Z</time></trkpt><trkpt lat="44.484656" lon="5.3342807"><ele>692.0</ele><time>2026-05-01T13:49:50.368Z</time></trkpt><trkpt lat="44.4846907" lon="5.3340614"><ele>695.0</ele><time>2026-05-01T13:49:51.368Z</time></trkpt><trkpt lat="44.4847441" lon="5.3338319"><ele>698.0</ele><time>2026-05-01T13:49:52.369Z</time></trkpt><trkpt lat="44.4847978" lon="5.3335984"><ele>701.0</ele><time>2026-05-01T13:49:53.368Z</time></trkpt><trkpt lat="44.4848493" lon="5.3333706"><ele>701.0</ele><time>2026-05-01T13:49:54.368Z</time></trkpt><trkpt lat="44.4849227" lon="5.333163"><ele>701.0</ele><time>2026-05-01T13:49:55.368Z</time></trkpt><trkpt lat="44.4850309" lon="5.3329879"><ele>701.0</ele><time>2026-05-01T13:49:56.368Z</time></trkpt><trkpt lat="44.4851598" lon="5.3328428"><ele>700.6666666666666</ele><time>2026-05-01T13:49:57.368Z</time></trkpt><trkpt lat="44.4852982" lon="5.3327074"><ele>700.3333333333334</ele><time>2026-05-01T13:49:58.368Z</time></trkpt><trkpt lat="44.4854344" lon="5.3325577"><ele>700.0</ele><time>2026-05-01T13:49:59.368Z</time></trkpt><trkpt lat="44.485566" lon="5.3324049"><ele>702.3333333333334</ele><time>2026-05-01T13:50:00.368Z</time></trkpt><trkpt lat="44.4856815" lon="5.3322443"><ele>704.6666666666666</ele><time>2026-05-01T13:50:01.368Z</time></trkpt><trkpt lat="44.4857699" lon="5.3320627"><ele>707.0</ele><time>2026-05-01T13:50:02.368Z</time></trkpt><trkpt lat="44.4858373" lon="5.3318561"><ele>707.0</ele><time>2026-05-01T13:50:03.368Z</time></trkpt><trkpt lat="44.4859023" lon="5.3316489"><ele>707.0</ele><time>2026-05-01T13:50:04.368Z</time></trkpt><trkpt lat="44.4859823" lon="5.3314464"><ele>707.0</ele><time>2026-05-01T13:50:05.368Z</time></trkpt><trkpt lat="44.4860845" lon="5.3312557"><ele>707.3333333333333</ele><time>2026-05-01T13:50:06.369Z</time></trkpt><trkpt lat="44.4862186" lon="5.3310939"><ele>707.6666666666666</ele><time>2026-05-01T13:50:07.369Z</time></trkpt><trkpt lat="44.4863706" lon="5.3309513"><ele>708.0</ele><time>2026-05-01T13:50:08.368Z</time></trkpt><trkpt lat="44.4865186" lon="5.3307796"><ele>709.6666666666666</ele><time>2026-05-01T13:50:09.368Z</time></trkpt><trkpt lat="44.486667" lon="5.3305801"><ele>711.3333333333333</ele><time>2026-05-01T13:50:10.368Z</time></trkpt><trkpt lat="44.4868233" lon="5.3303783"><ele>713.0</ele><time>2026-05-01T13:50:11.368Z</time></trkpt><trkpt lat="44.4869898" lon="5.330194"><ele>717.0</ele><time>2026-05-01T13:50:12.368Z</time></trkpt><trkpt lat="44.4871564" lon="5.3300354"><ele>721.0</ele><time>2026-05-01T13:50:13.369Z</time></trkpt><trkpt lat="44.4873169" lon="5.3298946"><ele>725.0</ele><time>2026-05-01T13:50:14.368Z</time></trkpt><trkpt lat="44.4874589" lon="5.3297398"><ele>722.3333333333333</ele><time>2026-05-01T13:50:15.368Z</time></trkpt><trkpt lat="44.4875869" lon="5.329561"><ele>719.6666666666666</ele><time>2026-05-01T13:50:16.368Z</time></trkpt><trkpt lat="44.4877064" lon="5.329376"><ele>717.0</ele><time>2026-05-01T13:50:17.368Z</time></trkpt><trkpt lat="44.4878305" lon="5.3292097"><ele>718.6666666666666</ele><time>2026-05-01T13:50:18.368Z</time></trkpt><trkpt lat="44.487975" lon="5.3290794"><ele>720.3333333333333</ele><time>2026-05-01T13:50:19.368Z</time></trkpt><trkpt lat="44.4881305" lon="5.3289854"><ele>722.0</ele><time>2026-05-01T13:50:20.368Z</time></trkpt><trkpt lat="44.4882732" lon="5.3288893"><ele>722.0</ele><time>2026-05-01T13:50:21.368Z</time></trkpt><trkpt lat="44.4884049" lon="5.3287609"><ele>722.0</ele><time>2026-05-01T13:50:22.369Z</time></trkpt><trkpt lat="44.4885257" lon="5.3285941"><ele>722.0</ele><time>2026-05-01T13:50:23.368Z</time></trkpt><trkpt lat="44.4886399" lon="5.3284103"><ele>722.0</ele><time>2026-05-01T13:50:24.368Z</time></trkpt><trkpt lat="44.4887551" lon="5.3282235"><ele>722.0</ele><time>2026-05-01T13:50:25.368Z</time></trkpt><trkpt lat="44.4888817" lon="5.3280487"><ele>722.0</ele><time>2026-05-01T13:50:26.368Z</time></trkpt><trkpt lat="44.4890323" lon="5.3278937"><ele>723.3333333333333</ele><time>2026-05-01T13:50:27.369Z</time></trkpt><trkpt lat="44.4892008" lon="5.3277458"><ele>724.6666666666666</ele><time>2026-05-01T13:50:28.368Z</time></trkpt><trkpt lat="44.4893755" lon="5.3275959"><ele>726.0</ele><time>2026-05-01T13:50:29.368Z</time></trkpt><trkpt lat="44.489545" lon="5.3274509"><ele>726.0</ele><time>2026-05-01T13:50:30.369Z</time></trkpt><trkpt lat="44.4897047" lon="5.3272966"><ele>726.0</ele><time>2026-05-01T13:50:31.368Z</time></trkpt><trkpt lat="44.4898455" lon="5.3271033"><ele>726.0</ele><time>2026-05-01T13:50:32.368Z</time></trkpt><trkpt lat="44.4899746" lon="5.3268847"><ele>726.0</ele><time>2026-05-01T13:50:33.368Z</time></trkpt><trkpt lat="44.4900934" lon="5.3266618"><ele>726.0</ele><time>2026-05-01T13:50:34.368Z</time></trkpt><trkpt lat="44.4901905" lon="5.3264338"><ele>726.0</ele><time>2026-05-01T13:50:35.368Z</time></trkpt><trkpt lat="44.4902539" lon="5.326196"><ele>725.6666666666666</ele><time>2026-05-01T13:50:36.368Z</time></trkpt><trkpt lat="44.4902884" lon="5.3259629"><ele>725.3333333333333</ele><time>2026-05-01T13:50:37.368Z</time></trkpt><trkpt lat="44.490306" lon="5.325742"><ele>725.0</ele><time>2026-05-01T13:50:38.368Z</time></trkpt><trkpt lat="44.4903395" lon="5.3255374"><ele>726.25</ele><time>2026-05-01T13:50:39.368Z</time></trkpt><trkpt lat="44.4904015" lon="5.3253618"><ele>727.5</ele><time>2026-05-01T13:50:40.368Z</time></trkpt><trkpt lat="44.4904857" lon="5.3252173"><ele>728.75</ele><time>2026-05-01T13:50:41.368Z</time></trkpt><trkpt lat="44.490593" lon="5.3250968"><ele>730.0</ele><time>2026-05-01T13:50:42.368Z</time></trkpt><trkpt lat="44.4907239" lon="5.3249961"><ele>730.0</ele><time>2026-05-01T13:50:43.368Z</time></trkpt><trkpt lat="44.4908648" lon="5.3249135"><ele>730.0</ele><time>2026-05-01T13:50:44.368Z</time></trkpt><trkpt lat="44.4910056" lon="5.3248231"><ele>730.0</ele><time>2026-05-01T13:50:45.368Z</time></trkpt><trkpt lat="44.4911315" lon="5.3246935"><ele>729.0</ele><time>2026-05-01T13:50:46.369Z</time></trkpt><trkpt lat="44.4912425" lon="5.3245247"><ele>728.0</ele><time>2026-05-01T13:50:47.368Z</time></trkpt><trkpt lat="44.4913496" lon="5.3243303"><ele>727.0</ele><time>2026-05-01T13:50:48.368Z</time></trkpt><trkpt lat="44.4914662" lon="5.3241344"><ele>729.0</ele><time>2026-05-01T13:50:49.368Z</time></trkpt><trkpt lat="44.4915944" lon="5.3239419"><ele>731.0</ele><time>2026-05-01T13:50:50.368Z</time></trkpt><trkpt lat="44.4917171" lon="5.3237371"><ele>733.0</ele><time>2026-05-01T13:50:51.368Z</time></trkpt><trkpt lat="44.491826" lon="5.3235173"><ele>733.0</ele><time>2026-05-01T13:50:52.368Z</time></trkpt><trkpt lat="44.4919122" lon="5.3232962"><ele>733.0</ele><time>2026-05-01T13:50:53.369Z</time></trkpt><trkpt lat="44.4919829" lon="5.3230781"><ele>733.0</ele><time>2026-05-01T13:50:54.37Z</time></trkpt><trkpt lat="44.4920668" lon="5.3228641"><ele>735.6666666666667</ele><time>2026-05-01T13:50:55.368Z</time></trkpt><trkpt lat="44.492189" lon="5.322686"><ele>738.3333333333334</ele><time>2026-05-01T13:50:56.369Z</time></trkpt><trkpt lat="44.4923363" lon="5.3225496"><ele>741.0</ele><time>2026-05-01T13:50:57.368Z</time></trkpt><trkpt lat="44.4925051" lon="5.322456"><ele>741.0</ele><time>2026-05-01T13:50:58.368Z</time></trkpt><trkpt lat="44.4926815" lon="5.3223881"><ele>741.0</ele><time>2026-05-01T13:50:59.368Z</time></trkpt><trkpt lat="44.4928388" lon="5.3223028"><ele>741.0</ele><time>2026-05-01T13:51:00.368Z</time></trkpt><trkpt lat="44.4929767" lon="5.3221871"><ele>741.25</ele><time>2026-05-01T13:51:01.368Z</time></trkpt><trkpt lat="44.4930813" lon="5.3220471"><ele>741.5</ele><time>2026-05-01T13:51:02.368Z</time></trkpt><trkpt lat="44.4931442" lon="5.3218979"><ele>741.75</ele><time>2026-05-01T13:51:03.369Z</time></trkpt><trkpt lat="44.4931737" lon="5.3217204"><ele>742.0</ele><time>2026-05-01T13:51:04.368Z</time></trkpt><trkpt lat="44.4931664" lon="5.3215148"><ele>743.3333333333334</ele><time>2026-05-01T13:51:05.369Z</time></trkpt><trkpt lat="44.4931319" lon="5.3212928"><ele>744.6666666666666</ele><time>2026-05-01T13:51:06.369Z</time></trkpt><trkpt lat="44.4930849" lon="5.3210393"><ele>746.0</ele><time>2026-05-01T13:51:07.368Z</time></trkpt><trkpt lat="44.4930332" lon="5.3207726"><ele>744.6666666666666</ele><time>2026-05-01T13:51:08.368Z</time></trkpt><trkpt lat="44.4929701" lon="5.3204983"><ele>743.3333333333334</ele><time>2026-05-01T13:51:09.368Z</time></trkpt><trkpt lat="44.4929208" lon="5.3202384"><ele>742.0</ele><time>2026-05-01T13:51:10.368Z</time></trkpt><trkpt lat="44.4929101" lon="5.3199853"><ele>747.6666666666667</ele><time>2026-05-01T13:51:11.368Z</time></trkpt><trkpt lat="44.4929368" lon="5.3197206"><ele>753.3333333333334</ele><time>2026-05-01T13:51:12.37Z</time></trkpt><trkpt lat="44.4929858" lon="5.319451"><ele>759.0</ele><time>2026-05-01T13:51:13.368Z</time></trkpt><trkpt lat="44.4930476" lon="5.3191821"><ele>759.0</ele><time>2026-05-01T13:51:14.368Z</time></trkpt><trkpt lat="44.4931328" lon="5.3189129"><ele>759.0</ele><time>2026-05-01T13:51:15.368Z</time></trkpt><trkpt lat="44.4932355" lon="5.3186694"><ele>759.0</ele><time>2026-05-01T13:51:16.368Z</time></trkpt><trkpt lat="44.4933591" lon="5.3184672"><ele>756.6666666666666</ele><time>2026-05-01T13:51:17.368Z</time></trkpt><trkpt lat="44.4935001" lon="5.3182973"><ele>754.3333333333333</ele><time>2026-05-01T13:51:18.368Z</time></trkpt><trkpt lat="44.4936381" lon="5.3181348"><ele>752.0</ele><time>2026-05-01T13:51:19.368Z</time></trkpt><trkpt lat="44.4937436" lon="5.3179478"><ele>756.0</ele><time>2026-05-01T13:51:20.368Z</time></trkpt><trkpt lat="44.4938234" lon="5.3177298"><ele>760.0</ele><time>2026-05-01T13:51:21.368Z</time></trkpt><trkpt lat="44.4938776" lon="5.3174886"><ele>764.0</ele><time>2026-05-01T13:51:22.368Z</time></trkpt><trkpt lat="44.4939235" lon="5.3172416"><ele>764.6666666666666</ele><time>2026-05-01T13:51:23.368Z</time></trkpt><trkpt lat="44.4939807" lon="5.3169968"><ele>765.3333333333334</ele><time>2026-05-01T13:51:24.368Z</time></trkpt><trkpt lat="44.4940481" lon="5.3167577"><ele>766.0</ele><time>2026-05-01T13:51:25.368Z</time></trkpt><trkpt lat="44.4941152" lon="5.3165184"><ele>767.0</ele><time>2026-05-01T13:51:26.368Z</time></trkpt><trkpt lat="44.4941703" lon="5.3162745"><ele>768.0</ele><time>2026-05-01T13:51:27.368Z</time></trkpt><trkpt lat="44.4942077" lon="5.3160264"><ele>769.0</ele><time>2026-05-01T13:51:28.368Z</time></trkpt><trkpt lat="44.4942324" lon="5.3157673"><ele>769.0</ele><time>2026-05-01T13:51:29.368Z</time></trkpt><trkpt lat="44.4942463" lon="5.3155029"><ele>769.0</ele><time>2026-05-01T13:51:30.368Z</time></trkpt><trkpt lat="44.4942629" lon="5.3152407"><ele>769.0</ele><time>2026-05-01T13:51:31.368Z</time></trkpt><trkpt lat="44.4942942" lon="5.3150035"><ele>769.0</ele><time>2026-05-01T13:51:32.369Z</time></trkpt><trkpt lat="44.4943247" lon="5.3148176"><ele>769.0</ele><time>2026-05-01T13:51:33.368Z</time></trkpt><trkpt lat="44.4943558" lon="5.3146446"><ele>769.0</ele><time>2026-05-01T13:51:34.368Z</time></trkpt><trkpt lat="44.4943848" lon="5.3144866"><ele>769.0</ele><time>2026-05-01T13:51:35.368Z</time></trkpt><trkpt lat="44.494415" lon="5.314343"><ele>769.4999999999999</ele><time>2026-05-01T13:51:36.368Z</time></trkpt><trkpt lat="44.4944485" lon="5.3142171"><ele>770.0</ele><time>2026-05-01T13:51:37.369Z</time></trkpt><trkpt lat="44.4944802" lon="5.3141152"><ele>770.5</ele><time>2026-05-01T13:51:38.368Z</time></trkpt><trkpt lat="44.4945095" lon="5.3140286"><ele>771.0</ele><time>2026-05-01T13:51:39.368Z</time></trkpt><trkpt lat="44.4945658" lon="5.3138748"><ele>771.4999999999999</ele><time>2026-05-01T13:51:41.368Z</time></trkpt><trkpt lat="44.4945997" lon="5.3137903"><ele>772.0</ele><time>2026-05-01T13:51:42.368Z</time></trkpt><trkpt lat="44.4946316" lon="5.3137129"><ele>773.7142857142858</ele><time>2026-05-01T13:51:43.368Z</time></trkpt><trkpt lat="44.4946642" lon="5.3136335"><ele>775.4285714285714</ele><time>2026-05-01T13:51:44.369Z</time></trkpt><trkpt lat="44.4947024" lon="5.3135134"><ele>777.1428571428571</ele><time>2026-05-01T13:51:46.369Z</time></trkpt><trkpt lat="44.4947051" lon="5.313417"><ele>778.8571428571429</ele><time>2026-05-01T13:51:49.368Z</time></trkpt><trkpt lat="44.494685" lon="5.3133207"><ele>780.5714285714286</ele><time>2026-05-01T13:52:06.368Z</time></trkpt><trkpt lat="44.4946531" lon="5.3132439"><ele>782.2857142857143</ele><time>2026-05-01T13:52:07.369Z</time></trkpt><trkpt lat="44.4946065" lon="5.3131532"><ele>784.0</ele><time>2026-05-01T13:52:08.368Z</time></trkpt><trkpt lat="44.4945462" lon="5.3130682"><ele>785.8000000000001</ele><time>2026-05-01T13:52:09.368Z</time></trkpt><trkpt lat="44.4944653" lon="5.3129882"><ele>787.6</ele><time>2026-05-01T13:52:10.368Z</time></trkpt><trkpt lat="44.4943684" lon="5.3129161"><ele>789.4</ele><time>2026-05-01T13:52:11.368Z</time></trkpt><trkpt lat="44.4942628" lon="5.3128487"><ele>791.2</ele><time>2026-05-01T13:52:12.368Z</time></trkpt><trkpt lat="44.4941523" lon="5.3127683"><ele>793.0</ele><time>2026-05-01T13:52:13.368Z</time></trkpt><trkpt lat="44.4940639" lon="5.3126525"><ele>793.0</ele><time>2026-05-01T13:52:14.369Z</time></trkpt><trkpt lat="44.493977" lon="5.3125067"><ele>793.0</ele><time>2026-05-01T13:52:15.368Z</time></trkpt><trkpt lat="44.4938972" lon="5.3123453"><ele>793.0</ele><time>2026-05-01T13:52:16.368Z</time></trkpt><trkpt lat="44.4938217" lon="5.3121834"><ele>793.0</ele><time>2026-05-01T13:52:17.369Z</time></trkpt><trkpt lat="44.4937545" lon="5.3120182"><ele>792.25</ele><time>2026-05-01T13:52:18.368Z</time></trkpt><trkpt lat="44.4937107" lon="5.3118491"><ele>791.5</ele><time>2026-05-01T13:52:19.368Z</time></trkpt><trkpt lat="44.4936889" lon="5.3116604"><ele>790.75</ele><time>2026-05-01T13:52:20.368Z</time></trkpt><trkpt lat="44.4936938" lon="5.3114716"><ele>790.0</ele><time>2026-05-01T13:52:21.369Z</time></trkpt><trkpt lat="44.4937233" lon="5.3112983"><ele>790.0</ele><time>2026-05-01T13:52:22.368Z</time></trkpt><trkpt lat="44.4937603" lon="5.3111369"><ele>790.0</ele><time>2026-05-01T13:52:23.368Z</time></trkpt><trkpt lat="44.4937789" lon="5.3109803"><ele>790.0</ele><time>2026-05-01T13:52:24.368Z</time></trkpt><trkpt lat="44.493769" lon="5.3108131"><ele>790.0</ele><time>2026-05-01T13:52:25.368Z</time></trkpt><trkpt lat="44.4937323" lon="5.3106493"><ele>792.25</ele><time>2026-05-01T13:52:26.368Z</time></trkpt><trkpt lat="44.4936724" lon="5.3104916"><ele>794.5</ele><time>2026-05-01T13:52:27.368Z</time></trkpt><trkpt lat="44.4935866" lon="5.310351"><ele>796.75</ele><time>2026-05-01T13:52:28.368Z</time></trkpt><trkpt lat="44.4934801" lon="5.3102272"><ele>799.0</ele><time>2026-05-01T13:52:29.369Z</time></trkpt><trkpt lat="44.4933695" lon="5.3101081"><ele>799.0</ele><time>2026-05-01T13:52:30.369Z</time></trkpt><trkpt lat="44.4932619" lon="5.3099567"><ele>799.0</ele><time>2026-05-01T13:52:31.368Z</time></trkpt><trkpt lat="44.4931555" lon="5.3097674"><ele>799.0</ele><time>2026-05-01T13:52:32.369Z</time></trkpt><trkpt lat="44.4930445" lon="5.3095491"><ele>799.3333333333333</ele><time>2026-05-01T13:52:33.368Z</time></trkpt><trkpt lat="44.4929267" lon="5.3093001"><ele>799.6666666666667</ele><time>2026-05-01T13:52:34.369Z</time></trkpt><trkpt lat="44.4928051" lon="5.3090253"><ele>800.0</ele><time>2026-05-01T13:52:35.368Z</time></trkpt><trkpt lat="44.4926909" lon="5.3087491"><ele>802.6666666666667</ele><time>2026-05-01T13:52:36.368Z</time></trkpt><trkpt lat="44.4925844" lon="5.3084869"><ele>805.3333333333333</ele><time>2026-05-01T13:52:37.368Z</time></trkpt><trkpt lat="44.4924829" lon="5.3082426"><ele>808.0</ele><time>2026-05-01T13:52:38.368Z</time></trkpt><trkpt lat="44.4924019" lon="5.3080418"><ele>809.5</ele><time>2026-05-01T13:52:39.368Z</time></trkpt><trkpt lat="44.4923503" lon="5.3078604"><ele>811.0</ele><time>2026-05-01T13:52:40.368Z</time></trkpt><trkpt lat="44.4923327" lon="5.3076792"><ele>812.5</ele><time>2026-05-01T13:52:41.369Z</time></trkpt><trkpt lat="44.4923485" lon="5.3074968"><ele>814.0</ele><time>2026-05-01T13:52:42.368Z</time></trkpt><trkpt lat="44.4924008" lon="5.3073297"><ele>813.5</ele><time>2026-05-01T13:52:43.368Z</time></trkpt><trkpt lat="44.4924766" lon="5.3071792"><ele>813.0</ele><time>2026-05-01T13:52:44.368Z</time></trkpt><trkpt lat="44.4925648" lon="5.3070235"><ele>812.5</ele><time>2026-05-01T13:52:45.368Z</time></trkpt><trkpt lat="44.4926578" lon="5.3068414"><ele>812.0</ele><time>2026-05-01T13:52:46.369Z</time></trkpt><trkpt lat="44.4927441" lon="5.3066486"><ele>812.0</ele><time>2026-05-01T13:52:47.368Z</time></trkpt><trkpt lat="44.4928129" lon="5.306459"><ele>812.0</ele><time>2026-05-01T13:52:48.368Z</time></trkpt><trkpt lat="44.4928508" lon="5.3062619"><ele>812.0</ele><time>2026-05-01T13:52:49.368Z</time></trkpt><trkpt lat="44.4928679" lon="5.3060479"><ele>812.3333333333334</ele><time>2026-05-01T13:52:50.369Z</time></trkpt><trkpt lat="44.4928605" lon="5.305834"><ele>812.6666666666667</ele><time>2026-05-01T13:52:51.368Z</time></trkpt><trkpt lat="44.492836" lon="5.3056046"><ele>813.0</ele><time>2026-05-01T13:52:52.368Z</time></trkpt><trkpt lat="44.4927973" lon="5.3053673"><ele>813.0</ele><time>2026-05-01T13:52:53.368Z</time></trkpt><trkpt lat="44.4927487" lon="5.3051097"><ele>813.0</ele><time>2026-05-01T13:52:54.369Z</time></trkpt><trkpt lat="44.4926977" lon="5.3048436"><ele>813.0</ele><time>2026-05-01T13:52:55.368Z</time></trkpt><trkpt lat="44.4926435" lon="5.304586"><ele>816.0</ele><time>2026-05-01T13:52:56.368Z</time></trkpt><trkpt lat="44.4925889" lon="5.304342"><ele>819.0</ele><time>2026-05-01T13:52:57.368Z</time></trkpt><trkpt lat="44.4925418" lon="5.3041142"><ele>822.0</ele><time>2026-05-01T13:52:58.368Z</time></trkpt><trkpt lat="44.4925039" lon="5.3039002"><ele>823.0</ele><time>2026-05-01T13:52:59.368Z</time></trkpt><trkpt lat="44.4924837" lon="5.3037038"><ele>824.0</ele><time>2026-05-01T13:53:00.368Z</time></trkpt><trkpt lat="44.4924874" lon="5.3035154"><ele>825.0</ele><time>2026-05-01T13:53:01.368Z</time></trkpt><trkpt lat="44.4925162" lon="5.3033352"><ele>826.0</ele><time>2026-05-01T13:53:02.369Z</time></trkpt><trkpt lat="44.4925669" lon="5.3031683"><ele>825.4</ele><time>2026-05-01T13:53:03.368Z</time></trkpt><trkpt lat="44.492607" lon="5.3030019"><ele>824.8</ele><time>2026-05-01T13:53:04.368Z</time></trkpt><trkpt lat="44.4926349" lon="5.3028417"><ele>824.1999999999999</ele><time>2026-05-01T13:53:05.369Z</time></trkpt><trkpt lat="44.4926499" lon="5.3027045"><ele>823.5999999999999</ele><time>2026-05-01T13:53:06.368Z</time></trkpt><trkpt lat="44.4926562" lon="5.3025963"><ele>823.0</ele><time>2026-05-01T13:53:07.369Z</time></trkpt><trkpt lat="44.4926785" lon="5.3025137"><ele>823.0</ele><time>2026-05-01T13:53:08.368Z</time></trkpt><trkpt lat="44.4927637" lon="5.3024684"><ele>823.0</ele><time>2026-05-01T13:53:10.368Z</time></trkpt><trkpt lat="44.4928088" lon="5.3025504"><ele>823.0</ele><time>2026-05-01T13:53:12.368Z</time></trkpt><trkpt lat="44.4927821" lon="5.3027204"><ele>823.0</ele><time>2026-05-01T13:53:14.368Z</time></trkpt><trkpt lat="44.4927466" lon="5.3028622"><ele>823.0</ele><time>2026-05-01T13:53:15.368Z</time></trkpt><trkpt lat="44.492718" lon="5.3030373"><ele>823.75</ele><time>2026-05-01T13:53:16.368Z</time></trkpt><trkpt lat="44.4926886" lon="5.3032337"><ele>824.5</ele><time>2026-05-01T13:53:17.368Z</time></trkpt><trkpt lat="44.4926692" lon="5.3034218"><ele>825.25</ele><time>2026-05-01T13:53:18.368Z</time></trkpt><trkpt lat="44.4926721" lon="5.3036178"><ele>826.0</ele><time>2026-05-01T13:53:19.368Z</time></trkpt><trkpt lat="44.4927008" lon="5.3038099"><ele>824.6666666666666</ele><time>2026-05-01T13:53:20.368Z</time></trkpt><trkpt lat="44.4927522" lon="5.3039948"><ele>823.3333333333333</ele><time>2026-05-01T13:53:21.368Z</time></trkpt><trkpt lat="44.4928305" lon="5.3041784"><ele>822.0</ele><time>2026-05-01T13:53:22.368Z</time></trkpt><trkpt lat="44.4929236" lon="5.3043648"><ele>828.0</ele><time>2026-05-01T13:53:23.368Z</time></trkpt><trkpt lat="44.4930287" lon="5.3045494"><ele>834.0</ele><time>2026-05-01T13:53:24.369Z</time></trkpt><trkpt lat="44.4931399" lon="5.3047395"><ele>840.0</ele><time>2026-05-01T13:53:25.368Z</time></trkpt><trkpt lat="44.493249" lon="5.3049308"><ele>840.0</ele><time>2026-05-01T13:53:26.368Z</time></trkpt><trkpt lat="44.4933517" lon="5.3051217"><ele>840.0</ele><time>2026-05-01T13:53:27.369Z</time></trkpt><trkpt lat="44.4934488" lon="5.3052942"><ele>840.0</ele><time>2026-05-01T13:53:28.368Z</time></trkpt><trkpt lat="44.4935551" lon="5.3054417"><ele>840.0</ele><time>2026-05-01T13:53:29.369Z</time></trkpt><trkpt lat="44.4936792" lon="5.3055695"><ele>840.0</ele><time>2026-05-01T13:53:30.369Z</time></trkpt><trkpt lat="44.4938229" lon="5.3056788"><ele>840.0</ele><time>2026-05-01T13:53:31.368Z</time></trkpt><trkpt lat="44.4939827" lon="5.3057761"><ele>842.0</ele><time>2026-05-01T13:53:32.368Z</time></trkpt><trkpt lat="44.4941498" lon="5.3058466"><ele>844.0</ele><time>2026-05-01T13:53:33.368Z</time></trkpt><trkpt lat="44.4943252" lon="5.3058938"><ele>846.0</ele><time>2026-05-01T13:53:34.368Z</time></trkpt><trkpt lat="44.4945007" lon="5.3059434"><ele>851.3333333333333</ele><time>2026-05-01T13:53:35.368Z</time></trkpt><trkpt lat="44.494671" lon="5.3060234"><ele>856.6666666666666</ele><time>2026-05-01T13:53:36.368Z</time></trkpt><trkpt lat="44.4948266" lon="5.3061422"><ele>862.0</ele><time>2026-05-01T13:53:37.368Z</time></trkpt><trkpt lat="44.494965" lon="5.3062936"><ele>858.0</ele><time>2026-05-01T13:53:38.368Z</time></trkpt><trkpt lat="44.4950933" lon="5.3064652"><ele>854.0</ele><time>2026-05-01T13:53:39.368Z</time></trkpt><trkpt lat="44.4952261" lon="5.3066703"><ele>850.0</ele><time>2026-05-01T13:53:40.369Z</time></trkpt><trkpt lat="44.4953534" lon="5.306873"><ele>855.0</ele><time>2026-05-01T13:53:41.369Z</time></trkpt><trkpt lat="44.4954595" lon="5.3070584"><ele>860.0</ele><time>2026-05-01T13:53:42.368Z</time></trkpt><trkpt lat="44.4955392" lon="5.3072381"><ele>865.0</ele><time>2026-05-01T13:53:43.368Z</time></trkpt><trkpt lat="44.4956048" lon="5.3074104"><ele>865.0</ele><time>2026-05-01T13:53:44.368Z</time></trkpt><trkpt lat="44.4956706" lon="5.307571"><ele>865.0</ele><time>2026-05-01T13:53:45.368Z</time></trkpt><trkpt lat="44.4957395" lon="5.3077353"><ele>865.0</ele><time>2026-05-01T13:53:46.368Z</time></trkpt><trkpt lat="44.4958078" lon="5.3079049"><ele>865.0</ele><time>2026-05-01T13:53:47.368Z</time></trkpt><trkpt lat="44.495873" lon="5.3080642"><ele>864.5</ele><time>2026-05-01T13:53:48.368Z</time></trkpt><trkpt lat="44.495938" lon="5.3082046"><ele>864.0</ele><time>2026-05-01T13:53:49.368Z</time></trkpt><trkpt lat="44.4960068" lon="5.3083368"><ele>863.5</ele><time>2026-05-01T13:53:50.368Z</time></trkpt><trkpt lat="44.4960854" lon="5.3084642"><ele>863.0</ele><time>2026-05-01T13:53:51.369Z</time></trkpt><trkpt lat="44.4961777" lon="5.3085858"><ele>867.75</ele><time>2026-05-01T13:53:52.368Z</time></trkpt><trkpt lat="44.4962824" lon="5.3086944"><ele>872.5</ele><time>2026-05-01T13:53:53.368Z</time></trkpt><trkpt lat="44.4964015" lon="5.3087768"><ele>877.25</ele><time>2026-05-01T13:53:54.369Z</time></trkpt><trkpt lat="44.4965318" lon="5.3088273"><ele>882.0</ele><time>2026-05-01T13:53:55.368Z</time></trkpt><trkpt lat="44.49667" lon="5.3088502"><ele>882.0</ele><time>2026-05-01T13:53:56.368Z</time></trkpt><trkpt lat="44.4968209" lon="5.3088406"><ele>882.0</ele><time>2026-05-01T13:53:57.368Z</time></trkpt><trkpt lat="44.4969758" lon="5.3087958"><ele>882.0</ele><time>2026-05-01T13:53:58.368Z</time></trkpt><trkpt lat="44.4971215" lon="5.3087224"><ele>884.25</ele><time>2026-05-01T13:53:59.368Z</time></trkpt><trkpt lat="44.4972468" lon="5.3086179"><ele>886.5</ele><time>2026-05-01T13:54:00.368Z</time></trkpt><trkpt lat="44.4973541" lon="5.3085249"><ele>888.75</ele><time>2026-05-01T13:54:01.368Z</time></trkpt><trkpt lat="44.4974512" lon="5.3084712"><ele>891.0</ele><time>2026-05-01T13:54:02.369Z</time></trkpt><trkpt lat="44.4975485" lon="5.3084756"><ele>891.0</ele><time>2026-05-01T13:54:03.368Z</time></trkpt><trkpt lat="44.4976234" lon="5.3085345"><ele>890.9999999999999</ele><time>2026-05-01T13:54:04.368Z</time></trkpt><trkpt lat="44.4976772" lon="5.3086352"><ele>890.9999999999999</ele><time>2026-05-01T13:54:05.369Z</time></trkpt><trkpt lat="44.4977206" lon="5.3087691"><ele>891.0</ele><time>2026-05-01T13:54:06.368Z</time></trkpt><trkpt lat="44.4977705" lon="5.3089213"><ele>891.0</ele><time>2026-05-01T13:54:07.368Z</time></trkpt><trkpt lat="44.4978231" lon="5.3090706"><ele>891.5999999999999</ele><time>2026-05-01T13:54:08.368Z</time></trkpt><trkpt lat="44.497872" lon="5.3092157"><ele>892.1999999999999</ele><time>2026-05-01T13:54:09.368Z</time></trkpt><trkpt lat="44.497921" lon="5.3093553"><ele>892.8000000000001</ele><time>2026-05-01T13:54:10.368Z</time></trkpt><trkpt lat="44.4979834" lon="5.3094733"><ele>893.4000000000001</ele><time>2026-05-01T13:54:11.368Z</time></trkpt><trkpt lat="44.4980652" lon="5.3095617"><ele>894.0</ele><time>2026-05-01T13:54:12.368Z</time></trkpt><trkpt lat="44.4981658" lon="5.3096293"><ele>894.0</ele><time>2026-05-01T13:54:13.368Z</time></trkpt><trkpt lat="44.4982879" lon="5.3096698"><ele>894.0</ele><time>2026-05-01T13:54:14.368Z</time></trkpt><trkpt lat="44.498416" lon="5.309685"><ele>894.0</ele><time>2026-05-01T13:54:15.369Z</time></trkpt><trkpt lat="44.4985409" lon="5.3096595"><ele>894.0</ele><time>2026-05-01T13:54:16.368Z</time></trkpt><trkpt lat="44.4986609" lon="5.3095877"><ele>891.6666666666667</ele><time>2026-05-01T13:54:17.368Z</time></trkpt><trkpt lat="44.4987791" lon="5.3094738"><ele>889.3333333333334</ele><time>2026-05-01T13:54:18.368Z</time></trkpt><trkpt lat="44.4989051" lon="5.3093471"><ele>887.0</ele><time>2026-05-01T13:54:19.368Z</time></trkpt><trkpt lat="44.4990429" lon="5.3092267"><ele>887.0</ele><time>2026-05-01T13:54:20.37Z</time></trkpt><trkpt lat="44.4992024" lon="5.3091364"><ele>887.0</ele><time>2026-05-01T13:54:21.368Z</time></trkpt><trkpt lat="44.4993753" lon="5.3090726"><ele>887.0</ele><time>2026-05-01T13:54:22.368Z</time></trkpt><trkpt lat="44.4995537" lon="5.3089995"><ele>891.0</ele><time>2026-05-01T13:54:23.368Z</time></trkpt><trkpt lat="44.499724" lon="5.3088854"><ele>895.0</ele><time>2026-05-01T13:54:24.368Z</time></trkpt><trkpt lat="44.4998929" lon="5.3087603"><ele>899.0</ele><time>2026-05-01T13:54:25.368Z</time></trkpt><trkpt lat="44.5000661" lon="5.3086475"><ele>899.0</ele><time>2026-05-01T13:54:26.368Z</time></trkpt><trkpt lat="44.5002349" lon="5.3085624"><ele>899.0</ele><time>2026-05-01T13:54:27.368Z</time></trkpt><trkpt lat="44.5003994" lon="5.3085081"><ele>899.0</ele><time>2026-05-01T13:54:28.368Z</time></trkpt><trkpt lat="44.5005642" lon="5.3084898"><ele>898.6666666666667</ele><time>2026-05-01T13:54:29.368Z</time></trkpt><trkpt lat="44.500734" lon="5.3085123"><ele>898.3333333333333</ele><time>2026-05-01T13:54:30.369Z</time></trkpt><trkpt lat="44.5009029" lon="5.3085707"><ele>898.0</ele><time>2026-05-01T13:54:31.368Z</time></trkpt><trkpt lat="44.5010703" lon="5.3086332"><ele>898.0</ele><time>2026-05-01T13:54:32.368Z</time></trkpt><trkpt lat="44.5012461" lon="5.3086611"><ele>898.0</ele><time>2026-05-01T13:54:33.368Z</time></trkpt><trkpt lat="44.5014298" lon="5.3086478"><ele>898.0</ele><time>2026-05-01T13:54:34.368Z</time></trkpt><trkpt lat="44.501607" lon="5.3086095"><ele>898.0</ele><time>2026-05-01T13:54:35.368Z</time></trkpt><trkpt lat="44.5017669" lon="5.3085541"><ele>898.0</ele><time>2026-05-01T13:54:36.368Z</time></trkpt><trkpt lat="44.5019177" lon="5.308469"><ele>898.0</ele><time>2026-05-01T13:54:37.368Z</time></trkpt><trkpt lat="44.5020571" lon="5.3083449"><ele>897.6666666666666</ele><time>2026-05-01T13:54:38.368Z</time></trkpt><trkpt lat="44.5021903" lon="5.3081964"><ele>897.3333333333333</ele><time>2026-05-01T13:54:39.368Z</time></trkpt><trkpt lat="44.5023263" lon="5.308036"><ele>897.0</ele><time>2026-05-01T13:54:40.368Z</time></trkpt><trkpt lat="44.5024702" lon="5.3078728"><ele>899.0</ele><time>2026-05-01T13:54:41.368Z</time></trkpt><trkpt lat="44.502622" lon="5.307712"><ele>901.0</ele><time>2026-05-01T13:54:42.368Z</time></trkpt><trkpt lat="44.502783" lon="5.3075583"><ele>903.0</ele><time>2026-05-01T13:54:43.37Z</time></trkpt><trkpt lat="44.5029543" lon="5.3074162"><ele>903.0</ele><time>2026-05-01T13:54:44.368Z</time></trkpt><trkpt lat="44.5031356" lon="5.3072877"><ele>903.0</ele><time>2026-05-01T13:54:45.368Z</time></trkpt><trkpt lat="44.5033173" lon="5.3071587"><ele>903.0</ele><time>2026-05-01T13:54:46.368Z</time></trkpt><trkpt lat="44.5034983" lon="5.3070249"><ele>904.3333333333333</ele><time>2026-05-01T13:54:47.368Z</time></trkpt><trkpt lat="44.503678" lon="5.3068948"><ele>905.6666666666666</ele><time>2026-05-01T13:54:48.369Z</time></trkpt><trkpt lat="44.5038541" lon="5.3067641"><ele>907.0</ele><time>2026-05-01T13:54:49.368Z</time></trkpt><trkpt lat="44.5040248" lon="5.3066209"><ele>907.0</ele><time>2026-05-01T13:54:50.368Z</time></trkpt><trkpt lat="44.5041885" lon="5.3064734"><ele>907.0</ele><time>2026-05-01T13:54:51.368Z</time></trkpt><trkpt lat="44.5043418" lon="5.3063326"><ele>907.0</ele><time>2026-05-01T13:54:52.37Z</time></trkpt><trkpt lat="44.5044848" lon="5.3062048"><ele>908.0</ele><time>2026-05-01T13:54:53.368Z</time></trkpt><trkpt lat="44.5046102" lon="5.3060645"><ele>909.0</ele><time>2026-05-01T13:54:54.368Z</time></trkpt><trkpt lat="44.5047078" lon="5.305912"><ele>910.0</ele><time>2026-05-01T13:54:55.368Z</time></trkpt><trkpt lat="44.5047766" lon="5.3057475"><ele>911.0</ele><time>2026-05-01T13:54:56.369Z</time></trkpt><trkpt lat="44.5048135" lon="5.3055749"><ele>911.0</ele><time>2026-05-01T13:54:57.368Z</time></trkpt><trkpt lat="44.5048192" lon="5.3053829"><ele>911.0</ele><time>2026-05-01T13:54:58.368Z</time></trkpt><trkpt lat="44.5047963" lon="5.3051744"><ele>911.0</ele><time>2026-05-01T13:54:59.368Z</time></trkpt><trkpt lat="44.5047505" lon="5.3049567"><ele>911.0</ele><time>2026-05-01T13:55:00.368Z</time></trkpt><trkpt lat="44.50468" lon="5.3047329"><ele>910.3333333333334</ele><time>2026-05-01T13:55:01.368Z</time></trkpt><trkpt lat="44.504612" lon="5.3044955"><ele>909.6666666666667</ele><time>2026-05-01T13:55:02.368Z</time></trkpt><trkpt lat="44.5045628" lon="5.3042421"><ele>909.0</ele><time>2026-05-01T13:55:03.368Z</time></trkpt><trkpt lat="44.5045349" lon="5.3039818"><ele>914.0</ele><time>2026-05-01T13:55:04.368Z</time></trkpt><trkpt lat="44.5045242" lon="5.3037154"><ele>919.0</ele><time>2026-05-01T13:55:05.368Z</time></trkpt><trkpt lat="44.5045312" lon="5.3034489"><ele>924.0</ele><time>2026-05-01T13:55:06.368Z</time></trkpt><trkpt lat="44.5045656" lon="5.3031917"><ele>920.0</ele><time>2026-05-01T13:55:07.368Z</time></trkpt><trkpt lat="44.5046133" lon="5.3029448"><ele>916.0</ele><time>2026-05-01T13:55:08.368Z</time></trkpt><trkpt lat="44.5046588" lon="5.3027045"><ele>912.0</ele><time>2026-05-01T13:55:09.368Z</time></trkpt><trkpt lat="44.5047004" lon="5.3024718"><ele>912.0</ele><time>2026-05-01T13:55:10.368Z</time></trkpt><trkpt lat="44.5047379" lon="5.3022521"><ele>912.0</ele><time>2026-05-01T13:55:11.368Z</time></trkpt><trkpt lat="44.5047824" lon="5.3020491"><ele>912.0</ele><time>2026-05-01T13:55:12.368Z</time></trkpt><trkpt lat="44.5048467" lon="5.3018823"><ele>912.0</ele><time>2026-05-01T13:55:13.368Z</time></trkpt><trkpt lat="44.5049282" lon="5.3017628"><ele>913.5</ele><time>2026-05-01T13:55:14.368Z</time></trkpt><trkpt lat="44.5050257" lon="5.3016935"><ele>915.0</ele><time>2026-05-01T13:55:15.368Z</time></trkpt><trkpt lat="44.5051285" lon="5.3016516"><ele>916.5</ele><time>2026-05-01T13:55:16.368Z</time></trkpt><trkpt lat="44.5052335" lon="5.3015983"><ele>918.0</ele><time>2026-05-01T13:55:17.368Z</time></trkpt><trkpt lat="44.5053429" lon="5.3015166"><ele>917.25</ele><time>2026-05-01T13:55:18.368Z</time></trkpt><trkpt lat="44.5054452" lon="5.3013987"><ele>916.5</ele><time>2026-05-01T13:55:19.369Z</time></trkpt><trkpt lat="44.5055387" lon="5.3012457"><ele>915.75</ele><time>2026-05-01T13:55:20.368Z</time></trkpt><trkpt lat="44.5056225" lon="5.3010565"><ele>915.0</ele><time>2026-05-01T13:55:21.368Z</time></trkpt><trkpt lat="44.5057112" lon="5.300855"><ele>915.0</ele><time>2026-05-01T13:55:22.368Z</time></trkpt><trkpt lat="44.5058085" lon="5.3006458"><ele>915.0</ele><time>2026-05-01T13:55:23.369Z</time></trkpt><trkpt lat="44.5059122" lon="5.3004288"><ele>915.0</ele><time>2026-05-01T13:55:24.368Z</time></trkpt><trkpt lat="44.5060112" lon="5.3002049"><ele>914.0</ele><time>2026-05-01T13:55:25.368Z</time></trkpt><trkpt lat="44.5061067" lon="5.2999717"><ele>913.0</ele><time>2026-05-01T13:55:26.368Z</time></trkpt><trkpt lat="44.5061958" lon="5.2997336"><ele>912.0</ele><time>2026-05-01T13:55:27.368Z</time></trkpt><trkpt lat="44.5062841" lon="5.2995047"><ele>912.0</ele><time>2026-05-01T13:55:28.368Z</time></trkpt><trkpt lat="44.5063616" lon="5.2992817"><ele>912.0</ele><time>2026-05-01T13:55:29.369Z</time></trkpt><trkpt lat="44.5064126" lon="5.2990568"><ele>912.0</ele><time>2026-05-01T13:55:30.368Z</time></trkpt><trkpt lat="44.5064378" lon="5.2988372"><ele>910.3333333333333</ele><time>2026-05-01T13:55:31.368Z</time></trkpt><trkpt lat="44.5064285" lon="5.2986143"><ele>908.6666666666666</ele><time>2026-05-01T13:55:32.368Z</time></trkpt><trkpt lat="44.5063931" lon="5.2983768"><ele>907.0</ele><time>2026-05-01T13:55:33.368Z</time></trkpt><trkpt lat="44.506338" lon="5.298129"><ele>904.6666666666666</ele><time>2026-05-01T13:55:34.369Z</time></trkpt><trkpt lat="44.5062756" lon="5.2978622"><ele>902.3333333333333</ele><time>2026-05-01T13:55:35.368Z</time></trkpt><trkpt lat="44.5062149" lon="5.2975872"><ele>900.0</ele><time>2026-05-01T13:55:36.368Z</time></trkpt><trkpt lat="44.5061532" lon="5.2973103"><ele>908.3333333333333</ele><time>2026-05-01T13:55:37.368Z</time></trkpt><trkpt lat="44.5060937" lon="5.2970395"><ele>916.6666666666666</ele><time>2026-05-01T13:55:38.368Z</time></trkpt><trkpt lat="44.5060445" lon="5.2967769"><ele>925.0</ele><time>2026-05-01T13:55:39.368Z</time></trkpt><trkpt lat="44.5060167" lon="5.296522"><ele>927.25</ele><time>2026-05-01T13:55:40.368Z</time></trkpt><trkpt lat="44.5060235" lon="5.2962965"><ele>929.5</ele><time>2026-05-01T13:55:41.368Z</time></trkpt><trkpt lat="44.5060635" lon="5.2961117"><ele>931.75</ele><time>2026-05-01T13:55:42.369Z</time></trkpt><trkpt lat="44.5061316" lon="5.29597"><ele>934.0</ele><time>2026-05-01T13:55:43.368Z</time></trkpt><trkpt lat="44.5062242" lon="5.2958705"><ele>927.75</ele><time>2026-05-01T13:55:44.368Z</time></trkpt><trkpt lat="44.5063366" lon="5.2958075"><ele>921.5</ele><time>2026-05-01T13:55:45.369Z</time></trkpt><trkpt lat="44.5064638" lon="5.2957713"><ele>915.25</ele><time>2026-05-01T13:55:46.368Z</time></trkpt><trkpt lat="44.5066003" lon="5.2957434"><ele>909.0</ele><time>2026-05-01T13:55:47.368Z</time></trkpt><trkpt lat="44.5067428" lon="5.2957152"><ele>909.0</ele><time>2026-05-01T13:55:48.368Z</time></trkpt><trkpt lat="44.5068904" lon="5.2956946"><ele>909.0</ele><time>2026-05-01T13:55:49.368Z</time></trkpt><trkpt lat="44.5070335" lon="5.2956856"><ele>909.0</ele><time>2026-05-01T13:55:50.368Z</time></trkpt><trkpt lat="44.5071663" lon="5.2956601"><ele>909.0</ele><time>2026-05-01T13:55:51.368Z</time></trkpt><trkpt lat="44.5072815" lon="5.2955975"><ele>912.0</ele><time>2026-05-01T13:55:52.368Z</time></trkpt><trkpt lat="44.5073919" lon="5.2955037"><ele>915.0</ele><time>2026-05-01T13:55:53.368Z</time></trkpt><trkpt lat="44.5074901" lon="5.2953706"><ele>918.0</ele><time>2026-05-01T13:55:54.368Z</time></trkpt><trkpt lat="44.5075858" lon="5.2952228"><ele>921.0</ele><time>2026-05-01T13:55:55.368Z</time></trkpt><trkpt lat="44.507688" lon="5.295099"><ele>921.0</ele><time>2026-05-01T13:55:56.368Z</time></trkpt><trkpt lat="44.5077812" lon="5.2949823"><ele>921.0</ele><time>2026-05-01T13:55:57.368Z</time></trkpt><trkpt lat="44.5078569" lon="5.2948433"><ele>921.0</ele><time>2026-05-01T13:55:58.368Z</time></trkpt><trkpt lat="44.5079205" lon="5.2946761"><ele>921.0</ele><time>2026-05-01T13:55:59.37Z</time></trkpt><trkpt lat="44.5079692" lon="5.2944776"><ele>919.25</ele><time>2026-05-01T13:56:00.368Z</time></trkpt><trkpt lat="44.5080026" lon="5.2942855"><ele>917.5</ele><time>2026-05-01T13:56:01.369Z</time></trkpt><trkpt lat="44.5080096" lon="5.294109"><ele>915.75</ele><time>2026-05-01T13:56:02.368Z</time></trkpt><trkpt lat="44.5079779" lon="5.293936"><ele>914.0</ele><time>2026-05-01T13:56:03.368Z</time></trkpt><trkpt lat="44.5079088" lon="5.2937774"><ele>914.0</ele><time>2026-05-01T13:56:04.368Z</time></trkpt><trkpt lat="44.5078146" lon="5.2936214"><ele>914.0</ele><time>2026-05-01T13:56:05.369Z</time></trkpt><trkpt lat="44.5077306" lon="5.2934359"><ele>914.0</ele><time>2026-05-01T13:56:06.368Z</time></trkpt><trkpt lat="44.5076667" lon="5.2932317"><ele>912.3333333333334</ele><time>2026-05-01T13:56:07.369Z</time></trkpt><trkpt lat="44.5076236" lon="5.2930208"><ele>910.6666666666667</ele><time>2026-05-01T13:56:08.369Z</time></trkpt><trkpt lat="44.5076148" lon="5.2927931"><ele>909.0</ele><time>2026-05-01T13:56:09.368Z</time></trkpt><trkpt lat="44.5076374" lon="5.2925728"><ele>909.0</ele><time>2026-05-01T13:56:10.368Z</time></trkpt><trkpt lat="44.5076663" lon="5.2923708"><ele>909.0</ele><time>2026-05-01T13:56:11.37Z</time></trkpt><trkpt lat="44.5076651" lon="5.2921761"><ele>909.0</ele><time>2026-05-01T13:56:12.368Z</time></trkpt><trkpt lat="44.5076284" lon="5.2919746"><ele>909.0</ele><time>2026-05-01T13:56:13.368Z</time></trkpt><trkpt lat="44.5075593" lon="5.2917625"><ele>906.6666666666667</ele><time>2026-05-01T13:56:14.368Z</time></trkpt><trkpt lat="44.5074738" lon="5.2915492"><ele>904.3333333333334</ele><time>2026-05-01T13:56:15.368Z</time></trkpt><trkpt lat="44.5073884" lon="5.2913406"><ele>902.0</ele><time>2026-05-01T13:56:16.368Z</time></trkpt><trkpt lat="44.5072943" lon="5.2911487"><ele>903.0</ele><time>2026-05-01T13:56:17.368Z</time></trkpt><trkpt lat="44.5071766" lon="5.2910022"><ele>904.0</ele><time>2026-05-01T13:56:18.367Z</time></trkpt><trkpt lat="44.5070492" lon="5.2908717"><ele>905.0</ele><time>2026-05-01T13:56:19.367Z</time></trkpt><trkpt lat="44.5069367" lon="5.2906897"><ele>902.6666666666667</ele><time>2026-05-01T13:56:20.367Z</time></trkpt><trkpt lat="44.5068483" lon="5.2904662"><ele>900.3333333333333</ele><time>2026-05-01T13:56:21.367Z</time></trkpt><trkpt lat="44.506781" lon="5.2902112"><ele>898.0</ele><time>2026-05-01T13:56:22.367Z</time></trkpt><trkpt lat="44.5067243" lon="5.2899492"><ele>896.0</ele><time>2026-05-01T13:56:23.367Z</time></trkpt><trkpt lat="44.506656" lon="5.289708"><ele>894.0</ele><time>2026-05-01T13:56:24.367Z</time></trkpt><trkpt lat="44.5065824" lon="5.2894973"><ele>892.0</ele><time>2026-05-01T13:56:25.368Z</time></trkpt><trkpt lat="44.5065344" lon="5.2893065"><ele>892.0</ele><time>2026-05-01T13:56:26.367Z</time></trkpt><trkpt lat="44.5065208" lon="5.2891185"><ele>892.0</ele><time>2026-05-01T13:56:27.367Z</time></trkpt><trkpt lat="44.5065408" lon="5.2889347"><ele>892.0</ele><time>2026-05-01T13:56:28.367Z</time></trkpt><trkpt lat="44.5065885" lon="5.2887536"><ele>892.0</ele><time>2026-05-01T13:56:29.367Z</time></trkpt><trkpt lat="44.5066682" lon="5.2885829"><ele>892.6666666666666</ele><time>2026-05-01T13:56:30.367Z</time></trkpt><trkpt lat="44.5067716" lon="5.2884371"><ele>893.3333333333333</ele><time>2026-05-01T13:56:31.367Z</time></trkpt><trkpt lat="44.5068867" lon="5.2883007"><ele>894.0</ele><time>2026-05-01T13:56:32.367Z</time></trkpt><trkpt lat="44.507012" lon="5.2881624"><ele>895.0</ele><time>2026-05-01T13:56:33.367Z</time></trkpt><trkpt lat="44.5071506" lon="5.2880303"><ele>896.0</ele><time>2026-05-01T13:56:34.368Z</time></trkpt><trkpt lat="44.5073071" lon="5.287924"><ele>897.0</ele><time>2026-05-01T13:56:35.367Z</time></trkpt><trkpt lat="44.5074782" lon="5.2878507"><ele>897.0</ele><time>2026-05-01T13:56:36.367Z</time></trkpt><trkpt lat="44.5076569" lon="5.2877735"><ele>897.0</ele><time>2026-05-01T13:56:37.367Z</time></trkpt><trkpt lat="44.507837" lon="5.2876771"><ele>897.0</ele><time>2026-05-01T13:56:38.367Z</time></trkpt><trkpt lat="44.5080106" lon="5.2875696"><ele>893.3333333333333</ele><time>2026-05-01T13:56:39.367Z</time></trkpt><trkpt lat="44.5081817" lon="5.2874757"><ele>889.6666666666666</ele><time>2026-05-01T13:56:40.367Z</time></trkpt><trkpt lat="44.5083527" lon="5.2874324"><ele>886.0</ele><time>2026-05-01T13:56:41.367Z</time></trkpt><trkpt lat="44.5085065" lon="5.2874443"><ele>886.0</ele><time>2026-05-01T13:56:42.367Z</time></trkpt><trkpt lat="44.5086497" lon="5.2875076"><ele>886.0</ele><time>2026-05-01T13:56:43.367Z</time></trkpt><trkpt lat="44.5087797" lon="5.2875952"><ele>886.0</ele><time>2026-05-01T13:56:44.368Z</time></trkpt><trkpt lat="44.5089132" lon="5.2876676"><ele>886.0</ele><time>2026-05-01T13:56:45.367Z</time></trkpt><trkpt lat="44.509046" lon="5.2877275"><ele>884.5999999999999</ele><time>2026-05-01T13:56:46.368Z</time></trkpt><trkpt lat="44.5091637" lon="5.2877707"><ele>883.1999999999999</ele><time>2026-05-01T13:56:47.367Z</time></trkpt><trkpt lat="44.5092718" lon="5.2877667"><ele>881.8000000000001</ele><time>2026-05-01T13:56:48.368Z</time></trkpt><trkpt lat="44.5093639" lon="5.2877197"><ele>880.4000000000001</ele><time>2026-05-01T13:56:49.369Z</time></trkpt><trkpt lat="44.5094282" lon="5.2876288"><ele>879.0</ele><time>2026-05-01T13:56:50.367Z</time></trkpt><trkpt lat="44.5094689" lon="5.2875015"><ele>879.0</ele><time>2026-05-01T13:56:51.367Z</time></trkpt><trkpt lat="44.5094923" lon="5.2873294"><ele>879.0</ele><time>2026-05-01T13:56:52.367Z</time></trkpt><trkpt lat="44.5095096" lon="5.2871281"><ele>879.0</ele><time>2026-05-01T13:56:53.367Z</time></trkpt><trkpt lat="44.5095363" lon="5.2869048"><ele>879.0</ele><time>2026-05-01T13:56:54.367Z</time></trkpt><trkpt lat="44.5095634" lon="5.2866687"><ele>882.6666666666667</ele><time>2026-05-01T13:56:55.368Z</time></trkpt><trkpt lat="44.5095744" lon="5.2864264"><ele>886.3333333333334</ele><time>2026-05-01T13:56:56.368Z</time></trkpt><trkpt lat="44.5095699" lon="5.2861932"><ele>890.0</ele><time>2026-05-01T13:56:57.367Z</time></trkpt><trkpt lat="44.5095696" lon="5.285965"><ele>885.25</ele><time>2026-05-01T13:56:58.367Z</time></trkpt><trkpt lat="44.5095967" lon="5.285749"><ele>880.5</ele><time>2026-05-01T13:56:59.367Z</time></trkpt><trkpt lat="44.5096515" lon="5.285558"><ele>875.75</ele><time>2026-05-01T13:57:00.367Z</time></trkpt><trkpt lat="44.5097246" lon="5.2853908"><ele>871.0</ele><time>2026-05-01T13:57:01.367Z</time></trkpt><trkpt lat="44.5098206" lon="5.285246"><ele>871.0</ele><time>2026-05-01T13:57:02.367Z</time></trkpt><trkpt lat="44.5099454" lon="5.2851223"><ele>871.0</ele><time>2026-05-01T13:57:03.367Z</time></trkpt><trkpt lat="44.5100894" lon="5.2850124"><ele>871.0</ele><time>2026-05-01T13:57:04.367Z</time></trkpt><trkpt lat="44.5102398" lon="5.2848945"><ele>867.6666666666666</ele><time>2026-05-01T13:57:05.367Z</time></trkpt><trkpt lat="44.5103776" lon="5.2847566"><ele>864.3333333333333</ele><time>2026-05-01T13:57:06.368Z</time></trkpt><trkpt lat="44.510501" lon="5.2846023"><ele>861.0</ele><time>2026-05-01T13:57:07.367Z</time></trkpt><trkpt lat="44.5106131" lon="5.284447"><ele>861.0</ele><time>2026-05-01T13:57:08.367Z</time></trkpt><trkpt lat="44.5107027" lon="5.2843042"><ele>861.0</ele><time>2026-05-01T13:57:09.367Z</time></trkpt><trkpt lat="44.510766" lon="5.2841517"><ele>861.0</ele><time>2026-05-01T13:57:10.367Z</time></trkpt><trkpt lat="44.5108033" lon="5.2839806"><ele>861.0</ele><time>2026-05-01T13:57:11.367Z</time></trkpt><trkpt lat="44.51082" lon="5.2838004"><ele>859.5</ele><time>2026-05-01T13:57:12.367Z</time></trkpt><trkpt lat="44.5108174" lon="5.2836211"><ele>858.0</ele><time>2026-05-01T13:57:13.367Z</time></trkpt><trkpt lat="44.5107884" lon="5.28345"><ele>856.5</ele><time>2026-05-01T13:57:14.368Z</time></trkpt><trkpt lat="44.5107278" lon="5.2832999"><ele>855.0</ele><time>2026-05-01T13:57:15.368Z</time></trkpt><trkpt lat="44.5106381" lon="5.283155"><ele>857.6666666666667</ele><time>2026-05-01T13:57:16.368Z</time></trkpt><trkpt lat="44.5105309" lon="5.2829993"><ele>860.3333333333334</ele><time>2026-05-01T13:57:17.368Z</time></trkpt><trkpt lat="44.5104179" lon="5.2828263"><ele>863.0</ele><time>2026-05-01T13:57:18.367Z</time></trkpt><trkpt lat="44.5102988" lon="5.2826441"><ele>863.0</ele><time>2026-05-01T13:57:19.367Z</time></trkpt><trkpt lat="44.5101728" lon="5.2824661"><ele>863.0</ele><time>2026-05-01T13:57:20.368Z</time></trkpt><trkpt lat="44.5100572" lon="5.2822884"><ele>863.0</ele><time>2026-05-01T13:57:21.367Z</time></trkpt><trkpt lat="44.5099659" lon="5.2820931"><ele>858.3333333333334</ele><time>2026-05-01T13:57:22.368Z</time></trkpt><trkpt lat="44.5099025" lon="5.2818841"><ele>853.6666666666667</ele><time>2026-05-01T13:57:23.367Z</time></trkpt><trkpt lat="44.5098571" lon="5.2816659"><ele>849.0</ele><time>2026-05-01T13:57:24.367Z</time></trkpt><trkpt lat="44.5098155" lon="5.2814295"><ele>847.3333333333333</ele><time>2026-05-01T13:57:25.368Z</time></trkpt><trkpt lat="44.5097688" lon="5.2811997"><ele>845.6666666666666</ele><time>2026-05-01T13:57:26.367Z</time></trkpt><trkpt lat="44.5097395" lon="5.2809718"><ele>844.0</ele><time>2026-05-01T13:57:27.367Z</time></trkpt><trkpt lat="44.5097447" lon="5.280743"><ele>844.3333333333333</ele><time>2026-05-01T13:57:28.368Z</time></trkpt><trkpt lat="44.509762" lon="5.2805124"><ele>844.6666666666667</ele><time>2026-05-01T13:57:29.368Z</time></trkpt><trkpt lat="44.5097553" lon="5.2802742"><ele>845.0</ele><time>2026-05-01T13:57:30.367Z</time></trkpt><trkpt lat="44.5097123" lon="5.2800302"><ele>845.0</ele><time>2026-05-01T13:57:31.367Z</time></trkpt><trkpt lat="44.5096336" lon="5.2797884"><ele>845.0</ele><time>2026-05-01T13:57:32.367Z</time></trkpt><trkpt lat="44.5095355" lon="5.2795423"><ele>845.0</ele><time>2026-05-01T13:57:33.367Z</time></trkpt><trkpt lat="44.5094398" lon="5.279301"><ele>840.3333333333334</ele><time>2026-05-01T13:57:34.367Z</time></trkpt><trkpt lat="44.5093521" lon="5.2790656"><ele>835.6666666666667</ele><time>2026-05-01T13:57:35.367Z</time></trkpt><trkpt lat="44.5092926" lon="5.2788283"><ele>831.0</ele><time>2026-05-01T13:57:36.367Z</time></trkpt><trkpt lat="44.5092651" lon="5.2785788"><ele>830.6666666666667</ele><time>2026-05-01T13:57:37.367Z</time></trkpt><trkpt lat="44.5092561" lon="5.2783238"><ele>830.3333333333334</ele><time>2026-05-01T13:57:38.368Z</time></trkpt><trkpt lat="44.5092615" lon="5.2780918"><ele>830.0</ele><time>2026-05-01T13:57:39.367Z</time></trkpt><trkpt lat="44.5092932" lon="5.2778914"><ele>828.75</ele><time>2026-05-01T13:57:40.367Z</time></trkpt><trkpt lat="44.5093631" lon="5.2777066"><ele>827.5</ele><time>2026-05-01T13:57:41.368Z</time></trkpt><trkpt lat="44.5094566" lon="5.2775465"><ele>826.25</ele><time>2026-05-01T13:57:42.367Z</time></trkpt><trkpt lat="44.5095554" lon="5.2773846"><ele>825.0</ele><time>2026-05-01T13:57:43.367Z</time></trkpt><trkpt lat="44.5096564" lon="5.2772289"><ele>825.0</ele><time>2026-05-01T13:57:44.367Z</time></trkpt><trkpt lat="44.509754" lon="5.2770817"><ele>825.0</ele><time>2026-05-01T13:57:45.367Z</time></trkpt><trkpt lat="44.5098355" lon="5.2769504"><ele>825.0</ele><time>2026-05-01T13:57:46.368Z</time></trkpt><trkpt lat="44.5098984" lon="5.2768295"><ele>825.0</ele><time>2026-05-01T13:57:47.367Z</time></trkpt><trkpt lat="44.5099299" lon="5.2767076"><ele>825.0</ele><time>2026-05-01T13:57:48.368Z</time></trkpt><trkpt lat="44.5099297" lon="5.276577"><ele>825.0</ele><time>2026-05-01T13:57:49.367Z</time></trkpt><trkpt lat="44.5098941" lon="5.2764569"><ele>825.0</ele><time>2026-05-01T13:57:50.367Z</time></trkpt><trkpt lat="44.5098251" lon="5.2763476"><ele>825.0</ele><time>2026-05-01T13:57:51.367Z</time></trkpt><trkpt lat="44.5097331" lon="5.2762375"><ele>825.0</ele><time>2026-05-01T13:57:52.367Z</time></trkpt><trkpt lat="44.5096339" lon="5.2761083"><ele>819.6666666666667</ele><time>2026-05-01T13:57:53.369Z</time></trkpt><trkpt lat="44.5095372" lon="5.2759483"><ele>814.3333333333334</ele><time>2026-05-01T13:57:54.367Z</time></trkpt><trkpt lat="44.5094469" lon="5.2757717"><ele>809.0</ele><time>2026-05-01T13:57:55.368Z</time></trkpt><trkpt lat="44.5093644" lon="5.27559"><ele>808.6666666666667</ele><time>2026-05-01T13:57:56.367Z</time></trkpt><trkpt lat="44.5092902" lon="5.2754024"><ele>808.3333333333333</ele><time>2026-05-01T13:57:57.367Z</time></trkpt><trkpt lat="44.5092308" lon="5.2751992"><ele>808.0</ele><time>2026-05-01T13:57:58.367Z</time></trkpt><trkpt lat="44.5091921" lon="5.2749769"><ele>807.0</ele><time>2026-05-01T13:57:59.367Z</time></trkpt><trkpt lat="44.5091726" lon="5.2747421"><ele>806.0</ele><time>2026-05-01T13:58:00.367Z</time></trkpt><trkpt lat="44.5091632" lon="5.2744956"><ele>805.0</ele><time>2026-05-01T13:58:01.367Z</time></trkpt><trkpt lat="44.5091618" lon="5.2742383"><ele>805.0</ele><time>2026-05-01T13:58:02.367Z</time></trkpt><trkpt lat="44.5091652" lon="5.2739816"><ele>805.0</ele><time>2026-05-01T13:58:03.367Z</time></trkpt><trkpt lat="44.5091635" lon="5.2737247"><ele>805.0</ele><time>2026-05-01T13:58:04.367Z</time></trkpt><trkpt lat="44.5091479" lon="5.2734712"><ele>803.6666666666666</ele><time>2026-05-01T13:58:05.367Z</time></trkpt><trkpt lat="44.5091187" lon="5.2732302"><ele>802.3333333333333</ele><time>2026-05-01T13:58:06.367Z</time></trkpt><trkpt lat="44.5090962" lon="5.2730119"><ele>801.0</ele><time>2026-05-01T13:58:07.368Z</time></trkpt><trkpt lat="44.5090997" lon="5.272817"><ele>800.25</ele><time>2026-05-01T13:58:08.368Z</time></trkpt><trkpt lat="44.5091306" lon="5.2726455"><ele>799.5</ele><time>2026-05-01T13:58:09.367Z</time></trkpt><trkpt lat="44.509172" lon="5.2724782"><ele>798.75</ele><time>2026-05-01T13:58:10.367Z</time></trkpt><trkpt lat="44.509187" lon="5.2723038"><ele>798.0</ele><time>2026-05-01T13:58:11.367Z</time></trkpt><trkpt lat="44.5091717" lon="5.2721101"><ele>796.0</ele><time>2026-05-01T13:58:12.367Z</time></trkpt><trkpt lat="44.5091189" lon="5.271915"><ele>794.0</ele><time>2026-05-01T13:58:13.367Z</time></trkpt><trkpt lat="44.5090417" lon="5.2717126"><ele>792.0</ele><time>2026-05-01T13:58:14.367Z</time></trkpt><trkpt lat="44.5089513" lon="5.2714976"><ele>792.6666666666667</ele><time>2026-05-01T13:58:15.367Z</time></trkpt><trkpt lat="44.5088537" lon="5.2712725"><ele>793.3333333333334</ele><time>2026-05-01T13:58:16.367Z</time></trkpt><trkpt lat="44.5087543" lon="5.2710392"><ele>794.0</ele><time>2026-05-01T13:58:17.367Z</time></trkpt><trkpt lat="44.508654" lon="5.2708004"><ele>790.3333333333334</ele><time>2026-05-01T13:58:18.367Z</time></trkpt><trkpt lat="44.5085533" lon="5.2705632"><ele>786.6666666666667</ele><time>2026-05-01T13:58:19.367Z</time></trkpt><trkpt lat="44.5084568" lon="5.2703302"><ele>783.0</ele><time>2026-05-01T13:58:20.367Z</time></trkpt><trkpt lat="44.5083643" lon="5.2701029"><ele>783.0</ele><time>2026-05-01T13:58:21.367Z</time></trkpt><trkpt lat="44.508274" lon="5.2698798"><ele>783.0</ele><time>2026-05-01T13:58:22.367Z</time></trkpt><trkpt lat="44.5081861" lon="5.2696619"><ele>783.0</ele><time>2026-05-01T13:58:23.368Z</time></trkpt><trkpt lat="44.508098" lon="5.26945"><ele>782.75</ele><time>2026-05-01T13:58:24.367Z</time></trkpt><trkpt lat="44.5080146" lon="5.2692582"><ele>782.5</ele><time>2026-05-01T13:58:25.367Z</time></trkpt><trkpt lat="44.5079394" lon="5.2691"><ele>782.25</ele><time>2026-05-01T13:58:26.367Z</time></trkpt><trkpt lat="44.5078642" lon="5.2689782"><ele>782.0</ele><time>2026-05-01T13:58:27.367Z</time></trkpt><trkpt lat="44.5077875" lon="5.2688913"><ele>782.0</ele><time>2026-05-01T13:58:28.367Z</time></trkpt><trkpt lat="44.5077153" lon="5.2688162"><ele>782.0</ele><time>2026-05-01T13:58:29.367Z</time></trkpt><trkpt lat="44.5076642" lon="5.2687135"><ele>782.0</ele><time>2026-05-01T13:58:30.367Z</time></trkpt><trkpt lat="44.5076242" lon="5.2685679"><ele>782.0</ele><time>2026-05-01T13:58:31.367Z</time></trkpt><trkpt lat="44.5075891" lon="5.2683903"><ele>782.0</ele><time>2026-05-01T13:58:32.368Z</time></trkpt><trkpt lat="44.5075725" lon="5.268183"><ele>784.6666666666667</ele><time>2026-05-01T13:58:33.367Z</time></trkpt><trkpt lat="44.5075781" lon="5.2679406"><ele>787.3333333333333</ele><time>2026-05-01T13:58:34.367Z</time></trkpt><trkpt lat="44.5075934" lon="5.2676903"><ele>790.0</ele><time>2026-05-01T13:58:35.367Z</time></trkpt><trkpt lat="44.5076262" lon="5.2674421"><ele>795.3333333333333</ele><time>2026-05-01T13:58:36.367Z</time></trkpt><trkpt lat="44.5076858" lon="5.2671854"><ele>800.6666666666667</ele><time>2026-05-01T13:58:37.367Z</time></trkpt><trkpt lat="44.5077662" lon="5.266921"><ele>806.0</ele><time>2026-05-01T13:58:38.367Z</time></trkpt><trkpt lat="44.5078548" lon="5.2666404"><ele>797.0</ele><time>2026-05-01T13:58:39.368Z</time></trkpt><trkpt lat="44.5079397" lon="5.2663619"><ele>788.0</ele><time>2026-05-01T13:58:40.367Z</time></trkpt><trkpt lat="44.5080109" lon="5.2661027"><ele>779.0</ele><time>2026-05-01T13:58:41.367Z</time></trkpt><trkpt lat="44.5080814" lon="5.2658603"><ele>779.0</ele><time>2026-05-01T13:58:42.367Z</time></trkpt><trkpt lat="44.5081428" lon="5.265644"><ele>779.0</ele><time>2026-05-01T13:58:43.368Z</time></trkpt><trkpt lat="44.5081733" lon="5.2654419"><ele>779.0</ele><time>2026-05-01T13:58:44.367Z</time></trkpt><trkpt lat="44.5081696" lon="5.2652429"><ele>778.6666666666667</ele><time>2026-05-01T13:58:45.368Z</time></trkpt><trkpt lat="44.5081371" lon="5.2650371"><ele>778.3333333333333</ele><time>2026-05-01T13:58:46.367Z</time></trkpt><trkpt lat="44.5080976" lon="5.2648123"><ele>778.0</ele><time>2026-05-01T13:58:47.367Z</time></trkpt><trkpt lat="44.5080595" lon="5.2645727"><ele>778.0</ele><time>2026-05-01T13:58:48.367Z</time></trkpt><trkpt lat="44.5080295" lon="5.2643197"><ele>778.0</ele><time>2026-05-01T13:58:49.367Z</time></trkpt><trkpt lat="44.508008" lon="5.2640649"><ele>778.0</ele><time>2026-05-01T13:58:50.367Z</time></trkpt><trkpt lat="44.5079888" lon="5.2638223"><ele>776.0</ele><time>2026-05-01T13:58:51.367Z</time></trkpt><trkpt lat="44.5079608" lon="5.2635926"><ele>774.0</ele><time>2026-05-01T13:58:52.367Z</time></trkpt><trkpt lat="44.5079139" lon="5.2633727"><ele>772.0</ele><time>2026-05-01T13:58:53.367Z</time></trkpt><trkpt lat="44.5078351" lon="5.2631649"><ele>778.25</ele><time>2026-05-01T13:58:54.367Z</time></trkpt><trkpt lat="44.5077431" lon="5.2629837"><ele>784.5</ele><time>2026-05-01T13:58:55.367Z</time></trkpt><trkpt lat="44.5076653" lon="5.2628049"><ele>790.75</ele><time>2026-05-01T13:58:56.367Z</time></trkpt><trkpt lat="44.5076037" lon="5.2626414"><ele>797.0</ele><time>2026-05-01T13:58:57.367Z</time></trkpt><trkpt lat="44.5075256" lon="5.2625165"><ele>797.0</ele><time>2026-05-01T13:58:58.368Z</time></trkpt><trkpt lat="44.5074289" lon="5.2624326"><ele>797.0</ele><time>2026-05-01T13:58:59.368Z</time></trkpt><trkpt lat="44.507335" lon="5.2623626"><ele>797.0</ele><time>2026-05-01T13:59:00.367Z</time></trkpt><trkpt lat="44.5072627" lon="5.2622598"><ele>797.0</ele><time>2026-05-01T13:59:01.367Z</time></trkpt><trkpt lat="44.5072261" lon="5.2621276"><ele>797.0</ele><time>2026-05-01T13:59:02.367Z</time></trkpt><trkpt lat="44.5072279" lon="5.2619864"><ele>794.75</ele><time>2026-05-01T13:59:03.368Z</time></trkpt><trkpt lat="44.5072583" lon="5.2618397"><ele>792.5</ele><time>2026-05-01T13:59:04.367Z</time></trkpt><trkpt lat="44.5072914" lon="5.2616804"><ele>790.25</ele><time>2026-05-01T13:59:05.367Z</time></trkpt><trkpt lat="44.5072992" lon="5.2614916"><ele>788.0</ele><time>2026-05-01T13:59:06.368Z</time></trkpt><trkpt lat="44.5072886" lon="5.2612796"><ele>788.0</ele><time>2026-05-01T13:59:07.367Z</time></trkpt><trkpt lat="44.5072645" lon="5.2610581"><ele>788.0</ele><time>2026-05-01T13:59:08.368Z</time></trkpt><trkpt lat="44.5072243" lon="5.2608211"><ele>788.0</ele><time>2026-05-01T13:59:09.367Z</time></trkpt><trkpt lat="44.5071774" lon="5.2605814"><ele>788.0</ele><time>2026-05-01T13:59:10.367Z</time></trkpt><trkpt lat="44.5071229" lon="5.2603414"><ele>788.0</ele><time>2026-05-01T13:59:11.367Z</time></trkpt><trkpt lat="44.5070639" lon="5.2601046"><ele>788.0</ele><time>2026-05-01T13:59:12.368Z</time></trkpt><trkpt lat="44.5070037" lon="5.2598772"><ele>792.0</ele><time>2026-05-01T13:59:13.367Z</time></trkpt><trkpt lat="44.5069454" lon="5.2596575"><ele>796.0</ele><time>2026-05-01T13:59:14.368Z</time></trkpt><trkpt lat="44.5069032" lon="5.2594468"><ele>800.0</ele><time>2026-05-01T13:59:15.367Z</time></trkpt><trkpt lat="44.5068758" lon="5.2592442"><ele>800.0</ele><time>2026-05-01T13:59:16.367Z</time></trkpt><trkpt lat="44.5068589" lon="5.2590452"><ele>800.0</ele><time>2026-05-01T13:59:17.367Z</time></trkpt><trkpt lat="44.5068448" lon="5.2588476"><ele>800.0</ele><time>2026-05-01T13:59:18.367Z</time></trkpt><trkpt lat="44.5068285" lon="5.2586446"><ele>800.0</ele><time>2026-05-01T13:59:19.368Z</time></trkpt><trkpt lat="44.5068131" lon="5.2584366"><ele>800.0</ele><time>2026-05-01T13:59:20.367Z</time></trkpt><trkpt lat="44.5067962" lon="5.2582282"><ele>800.0</ele><time>2026-05-01T13:59:21.367Z</time></trkpt><trkpt lat="44.5067781" lon="5.2580288"><ele>800.0</ele><time>2026-05-01T13:59:22.368Z</time></trkpt><trkpt lat="44.5067583" lon="5.2578418"><ele>800.0</ele><time>2026-05-01T13:59:23.367Z</time></trkpt><trkpt lat="44.5067241" lon="5.257668"><ele>800.0</ele><time>2026-05-01T13:59:24.367Z</time></trkpt><trkpt lat="44.5066639" lon="5.2574991"><ele>800.0</ele><time>2026-05-01T13:59:25.367Z</time></trkpt><trkpt lat="44.5065756" lon="5.2573367"><ele>800.0</ele><time>2026-05-01T13:59:26.367Z</time></trkpt><trkpt lat="44.5064643" lon="5.2571708"><ele>800.0</ele><time>2026-05-01T13:59:27.367Z</time></trkpt><trkpt lat="44.5063397" lon="5.2570085"><ele>800.3333333333334</ele><time>2026-05-01T13:59:28.367Z</time></trkpt><trkpt lat="44.5062124" lon="5.2568564"><ele>800.6666666666667</ele><time>2026-05-01T13:59:29.367Z</time></trkpt><trkpt lat="44.5060872" lon="5.2567189"><ele>801.0</ele><time>2026-05-01T13:59:30.367Z</time></trkpt><trkpt lat="44.5059546" lon="5.2566236"><ele>801.0</ele><time>2026-05-01T13:59:31.369Z</time></trkpt><trkpt lat="44.5058027" lon="5.2565618"><ele>801.0</ele><time>2026-05-01T13:59:32.368Z</time></trkpt><trkpt lat="44.5056419" lon="5.2565271"><ele>801.0</ele><time>2026-05-01T13:59:33.367Z</time></trkpt><trkpt lat="44.5054857" lon="5.2564997"><ele>803.25</ele><time>2026-05-01T13:59:34.367Z</time></trkpt><trkpt lat="44.5053446" lon="5.256443"><ele>805.5</ele><time>2026-05-01T13:59:35.367Z</time></trkpt><trkpt lat="44.5052259" lon="5.2563448"><ele>807.75</ele><time>2026-05-01T13:59:36.367Z</time></trkpt><trkpt lat="44.5051326" lon="5.2562079"><ele>810.0</ele><time>2026-05-01T13:59:37.367Z</time></trkpt><trkpt lat="44.505071" lon="5.256044"><ele>810.0</ele><time>2026-05-01T13:59:38.367Z</time></trkpt><trkpt lat="44.5050305" lon="5.2558589"><ele>810.0</ele><time>2026-05-01T13:59:39.367Z</time></trkpt><trkpt lat="44.5050038" lon="5.2556528"><ele>810.0</ele><time>2026-05-01T13:59:40.367Z</time></trkpt><trkpt lat="44.5049989" lon="5.2554219"><ele>811.0</ele><time>2026-05-01T13:59:41.367Z</time></trkpt><trkpt lat="44.5050171" lon="5.2551803"><ele>812.0</ele><time>2026-05-01T13:59:42.367Z</time></trkpt><trkpt lat="44.5050472" lon="5.254941"><ele>813.0</ele><time>2026-05-01T13:59:43.369Z</time></trkpt><trkpt lat="44.5050913" lon="5.2547181"><ele>819.3333333333333</ele><time>2026-05-01T13:59:44.367Z</time></trkpt><trkpt lat="44.5051601" lon="5.2545134"><ele>825.6666666666666</ele><time>2026-05-01T13:59:45.367Z</time></trkpt><trkpt lat="44.5052615" lon="5.2543248"><ele>832.0</ele><time>2026-05-01T13:59:46.368Z</time></trkpt><trkpt lat="44.5053843" lon="5.2541514"><ele>829.6666666666666</ele><time>2026-05-01T13:59:47.367Z</time></trkpt><trkpt lat="44.505516" lon="5.2539736"><ele>827.3333333333333</ele><time>2026-05-01T13:59:48.367Z</time></trkpt><trkpt lat="44.5056452" lon="5.2537767"><ele>825.0</ele><time>2026-05-01T13:59:49.367Z</time></trkpt><trkpt lat="44.505778" lon="5.2535689"><ele>825.0</ele><time>2026-05-01T13:59:50.368Z</time></trkpt><trkpt lat="44.5059287" lon="5.253373"><ele>825.0</ele><time>2026-05-01T13:59:51.367Z</time></trkpt><trkpt lat="44.5060843" lon="5.2531738"><ele>825.0</ele><time>2026-05-01T13:59:52.367Z</time></trkpt><trkpt lat="44.5062306" lon="5.2529624"><ele>824.3333333333333</ele><time>2026-05-01T13:59:53.367Z</time></trkpt><trkpt lat="44.5063733" lon="5.2527547"><ele>823.6666666666666</ele><time>2026-05-01T13:59:54.367Z</time></trkpt><trkpt lat="44.5065116" lon="5.2525631"><ele>823.0</ele><time>2026-05-01T13:59:55.367Z</time></trkpt><trkpt lat="44.5066503" lon="5.2523912"><ele>831.6666666666666</ele><time>2026-05-01T13:59:56.368Z</time></trkpt><trkpt lat="44.506785" lon="5.2522265"><ele>840.3333333333333</ele><time>2026-05-01T13:59:57.367Z</time></trkpt><trkpt lat="44.5069127" lon="5.2520589"><ele>849.0</ele><time>2026-05-01T13:59:58.367Z</time></trkpt><trkpt lat="44.5070275" lon="5.2518705"><ele>842.3333333333333</ele><time>2026-05-01T13:59:59.367Z</time></trkpt><trkpt lat="44.5071267" lon="5.2516559"><ele>835.6666666666666</ele><time>2026-05-01T14:00:00.367Z</time></trkpt><trkpt lat="44.5072145" lon="5.2514185"><ele>829.0</ele><time>2026-05-01T14:00:01.367Z</time></trkpt><trkpt lat="44.5073002" lon="5.2511697"><ele>829.0</ele><time>2026-05-01T14:00:02.368Z</time></trkpt><trkpt lat="44.5073725" lon="5.2509427"><ele>829.0</ele><time>2026-05-01T14:00:03.368Z</time></trkpt><trkpt lat="44.5074231" lon="5.250742"><ele>829.0</ele><time>2026-05-01T14:00:04.367Z</time></trkpt><trkpt lat="44.5074527" lon="5.2505712"><ele>831.0</ele><time>2026-05-01T14:00:05.367Z</time></trkpt><trkpt lat="44.5074785" lon="5.2504288"><ele>833.0</ele><time>2026-05-01T14:00:06.367Z</time></trkpt><trkpt lat="44.5075121" lon="5.2502983"><ele>835.0</ele><time>2026-05-01T14:00:07.368Z</time></trkpt><trkpt lat="44.507558" lon="5.2501812"><ele>837.0</ele><time>2026-05-01T14:00:08.367Z</time></trkpt><trkpt lat="44.5076182" lon="5.2500776"><ele>839.0</ele><time>2026-05-01T14:00:09.367Z</time></trkpt><trkpt lat="44.5076912" lon="5.2499907"><ele>839.0</ele><time>2026-05-01T14:00:10.367Z</time></trkpt><trkpt lat="44.5077725" lon="5.2499078"><ele>839.0</ele><time>2026-05-01T14:00:11.367Z</time></trkpt><trkpt lat="44.5078442" lon="5.249813"><ele>839.0</ele><time>2026-05-01T14:00:12.367Z</time></trkpt><trkpt lat="44.5078989" lon="5.2497027"><ele>839.0</ele><time>2026-05-01T14:00:13.367Z</time></trkpt><trkpt lat="44.5079307" lon="5.249558"><ele>839.0</ele><time>2026-05-01T14:00:14.367Z</time></trkpt><trkpt lat="44.5079391" lon="5.2493915"><ele>839.0</ele><time>2026-05-01T14:00:15.367Z</time></trkpt><trkpt lat="44.5079293" lon="5.2491957"><ele>839.0</ele><time>2026-05-01T14:00:16.367Z</time></trkpt><trkpt lat="44.507909" lon="5.2489722"><ele>839.0</ele><time>2026-05-01T14:00:17.367Z</time></trkpt><trkpt lat="44.5078857" lon="5.2487323"><ele>836.6666666666667</ele><time>2026-05-01T14:00:18.367Z</time></trkpt><trkpt lat="44.5078557" lon="5.2484826"><ele>834.3333333333333</ele><time>2026-05-01T14:00:19.367Z</time></trkpt><trkpt lat="44.5078229" lon="5.2482243"><ele>832.0</ele><time>2026-05-01T14:00:20.367Z</time></trkpt><trkpt lat="44.5077909" lon="5.2479644"><ele>830.0</ele><time>2026-05-01T14:00:21.367Z</time></trkpt><trkpt lat="44.5077635" lon="5.2476973"><ele>828.0</ele><time>2026-05-01T14:00:22.368Z</time></trkpt><trkpt lat="44.5077451" lon="5.2474186"><ele>826.0</ele><time>2026-05-01T14:00:23.368Z</time></trkpt><trkpt lat="44.5077345" lon="5.2471344"><ele>825.0</ele><time>2026-05-01T14:00:24.367Z</time></trkpt><trkpt lat="44.5077268" lon="5.2468457"><ele>824.0</ele><time>2026-05-01T14:00:25.368Z</time></trkpt><trkpt lat="44.5077237" lon="5.2465489"><ele>823.0</ele><time>2026-05-01T14:00:26.367Z</time></trkpt><trkpt lat="44.5077249" lon="5.2462465"><ele>821.3333333333333</ele><time>2026-05-01T14:00:27.367Z</time></trkpt><trkpt lat="44.5077328" lon="5.2459418"><ele>819.6666666666667</ele><time>2026-05-01T14:00:28.367Z</time></trkpt><trkpt lat="44.5077438" lon="5.2456423"><ele>818.0</ele><time>2026-05-01T14:00:29.368Z</time></trkpt><trkpt lat="44.5077549" lon="5.2453432"><ele>815.6666666666667</ele><time>2026-05-01T14:00:30.367Z</time></trkpt><trkpt lat="44.5077713" lon="5.2450474"><ele>813.3333333333333</ele><time>2026-05-01T14:00:31.368Z</time></trkpt><trkpt lat="44.5077971" lon="5.2447529"><ele>811.0</ele><time>2026-05-01T14:00:32.367Z</time></trkpt><trkpt lat="44.5078386" lon="5.2444593"><ele>808.0</ele><time>2026-05-01T14:00:33.368Z</time></trkpt><trkpt lat="44.5078862" lon="5.2441692"><ele>805.0</ele><time>2026-05-01T14:00:34.367Z</time></trkpt><trkpt lat="44.5079239" lon="5.2438756"><ele>802.0</ele><time>2026-05-01T14:00:35.368Z</time></trkpt><trkpt lat="44.5079475" lon="5.2435781"><ele>810.0</ele><time>2026-05-01T14:00:36.367Z</time></trkpt><trkpt lat="44.5079617" lon="5.2432887"><ele>818.0</ele><time>2026-05-01T14:00:37.368Z</time></trkpt><trkpt lat="44.5079774" lon="5.2430171"><ele>826.0</ele><time>2026-05-01T14:00:38.367Z</time></trkpt><trkpt lat="44.5080137" lon="5.2427734"><ele>826.0</ele><time>2026-05-01T14:00:39.368Z</time></trkpt><trkpt lat="44.508054" lon="5.2425431"><ele>826.0</ele><time>2026-05-01T14:00:40.367Z</time></trkpt><trkpt lat="44.5080683" lon="5.2423032"><ele>826.0</ele><time>2026-05-01T14:00:41.367Z</time></trkpt><trkpt lat="44.5080598" lon="5.2420524"><ele>823.0</ele><time>2026-05-01T14:00:42.367Z</time></trkpt><trkpt lat="44.5080473" lon="5.2418127"><ele>820.0</ele><time>2026-05-01T14:00:43.367Z</time></trkpt><trkpt lat="44.5080445" lon="5.2416015"><ele>817.0</ele><time>2026-05-01T14:00:44.367Z</time></trkpt><trkpt lat="44.508059" lon="5.2414203"><ele>813.4000000000001</ele><time>2026-05-01T14:00:45.367Z</time></trkpt><trkpt lat="44.5080897" lon="5.2412614"><ele>809.8000000000001</ele><time>2026-05-01T14:00:46.368Z</time></trkpt><trkpt lat="44.5081394" lon="5.2411375"><ele>806.2</ele><time>2026-05-01T14:00:47.367Z</time></trkpt><trkpt lat="44.5081785" lon="5.2410338"><ele>802.6</ele><time>2026-05-01T14:00:48.367Z</time></trkpt><trkpt lat="44.5081806" lon="5.2409374"><ele>799.0</ele><time>2026-05-01T14:00:49.367Z</time></trkpt><trkpt lat="44.5080991" lon="5.2408219"><ele>799.0</ele><time>2026-05-01T14:00:51.368Z</time></trkpt><trkpt lat="44.5080024" lon="5.2409055"><ele>799.0</ele><time>2026-05-01T14:00:53.367Z</time></trkpt><trkpt lat="44.5079842" lon="5.2410084"><ele>799.0</ele><time>2026-05-01T14:00:54.368Z</time></trkpt><trkpt lat="44.5079684" lon="5.2411538"><ele>799.0</ele><time>2026-05-01T14:00:55.367Z</time></trkpt><trkpt lat="44.5079535" lon="5.2413348"><ele>799.0</ele><time>2026-05-01T14:00:56.367Z</time></trkpt><trkpt lat="44.5079419" lon="5.2415557"><ele>805.0</ele><time>2026-05-01T14:00:57.367Z</time></trkpt><trkpt lat="44.5079307" lon="5.2417897"><ele>811.0</ele><time>2026-05-01T14:00:58.368Z</time></trkpt><trkpt lat="44.5079121" lon="5.2420241"><ele>817.0</ele><time>2026-05-01T14:00:59.367Z</time></trkpt><trkpt lat="44.5078746" lon="5.2422609"><ele>805.3333333333333</ele><time>2026-05-01T14:01:00.367Z</time></trkpt><trkpt lat="44.5078162" lon="5.2424883"><ele>793.6666666666667</ele><time>2026-05-01T14:01:01.367Z</time></trkpt><trkpt lat="44.5077606" lon="5.2427105"><ele>782.0</ele><time>2026-05-01T14:01:02.368Z</time></trkpt><trkpt lat="44.5077086" lon="5.2429257"><ele>782.0</ele><time>2026-05-01T14:01:03.367Z</time></trkpt><trkpt lat="44.507661" lon="5.2431284"><ele>782.0</ele><time>2026-05-01T14:01:04.368Z</time></trkpt><trkpt lat="44.5076224" lon="5.2432874"><ele>782.0</ele><time>2026-05-01T14:01:05.368Z</time></trkpt><trkpt lat="44.507587" lon="5.2434083"><ele>782.0</ele><time>2026-05-01T14:01:06.367Z</time></trkpt><trkpt lat="44.5075438" lon="5.2434843"><ele>782.0</ele><time>2026-05-01T14:01:07.367Z</time></trkpt><trkpt lat="44.5074406" lon="5.2434763"><ele>782.0</ele><time>2026-05-01T14:01:09.367Z</time></trkpt><trkpt lat="44.5074352" lon="5.2432922"><ele>782.0</ele><time>2026-05-01T14:01:11.368Z</time></trkpt><trkpt lat="44.5074714" lon="5.2431429"><ele>782.0</ele><time>2026-05-01T14:01:12.367Z</time></trkpt><trkpt lat="44.5075119" lon="5.2429552"><ele>782.0</ele><time>2026-05-01T14:01:13.367Z</time></trkpt><trkpt lat="44.5075453" lon="5.2427397"><ele>782.0</ele><time>2026-05-01T14:01:14.368Z</time></trkpt><trkpt lat="44.5075766" lon="5.2425064"><ele>782.0</ele><time>2026-05-01T14:01:15.367Z</time></trkpt><trkpt lat="44.5076061" lon="5.2422682"><ele>782.0</ele><time>2026-05-01T14:01:16.367Z</time></trkpt><trkpt lat="44.5076305" lon="5.2420096"><ele>778.6666666666667</ele><time>2026-05-01T14:01:17.367Z</time></trkpt><trkpt lat="44.5076424" lon="5.2417404"><ele>775.3333333333333</ele><time>2026-05-01T14:01:18.367Z</time></trkpt><trkpt lat="44.5076367" lon="5.2414648"><ele>772.0</ele><time>2026-05-01T14:01:19.367Z</time></trkpt><trkpt lat="44.507619" lon="5.2412008"><ele>770.0</ele><time>2026-05-01T14:01:20.367Z</time></trkpt><trkpt lat="44.5075933" lon="5.2409469"><ele>768.0</ele><time>2026-05-01T14:01:21.367Z</time></trkpt><trkpt lat="44.5075776" lon="5.2407144"><ele>766.0</ele><time>2026-05-01T14:01:22.367Z</time></trkpt><trkpt lat="44.5075733" lon="5.2405095"><ele>764.0</ele><time>2026-05-01T14:01:23.367Z</time></trkpt><trkpt lat="44.5075867" lon="5.2403182"><ele>762.0</ele><time>2026-05-01T14:01:24.368Z</time></trkpt><trkpt lat="44.5076329" lon="5.2401378"><ele>760.0</ele><time>2026-05-01T14:01:25.367Z</time></trkpt><trkpt lat="44.5077132" lon="5.2399788"><ele>758.0</ele><time>2026-05-01T14:01:26.367Z</time></trkpt><trkpt lat="44.5078025" lon="5.2398173"><ele>756.25</ele><time>2026-05-01T14:01:27.367Z</time></trkpt><trkpt lat="44.5078661" lon="5.2396386"><ele>754.5</ele><time>2026-05-01T14:01:28.367Z</time></trkpt><trkpt lat="44.5078956" lon="5.2394485"><ele>752.75</ele><time>2026-05-01T14:01:29.367Z</time></trkpt><trkpt lat="44.5078973" lon="5.2392472"><ele>751.0</ele><time>2026-05-01T14:01:30.367Z</time></trkpt><trkpt lat="44.5078713" lon="5.239047"><ele>749.0</ele><time>2026-05-01T14:01:31.367Z</time></trkpt><trkpt lat="44.5078404" lon="5.2388691"><ele>747.0</ele><time>2026-05-01T14:01:32.368Z</time></trkpt><trkpt lat="44.5078313" lon="5.2387044"><ele>745.0</ele><time>2026-05-01T14:01:33.367Z</time></trkpt><trkpt lat="44.5078485" lon="5.2385493"><ele>743.0</ele><time>2026-05-01T14:01:34.367Z</time></trkpt><trkpt lat="44.5079028" lon="5.2384074"><ele>741.75</ele><time>2026-05-01T14:01:35.367Z</time></trkpt><trkpt lat="44.5079937" lon="5.2382818"><ele>740.5</ele><time>2026-05-01T14:01:36.367Z</time></trkpt><trkpt lat="44.5081085" lon="5.2381555"><ele>739.25</ele><time>2026-05-01T14:01:37.367Z</time></trkpt><trkpt lat="44.5082413" lon="5.2380177"><ele>738.0</ele><time>2026-05-01T14:01:38.368Z</time></trkpt><trkpt lat="44.50838" lon="5.2378583"><ele>738.0</ele><time>2026-05-01T14:01:39.367Z</time></trkpt><trkpt lat="44.5085244" lon="5.2376861"><ele>738.0</ele><time>2026-05-01T14:01:40.367Z</time></trkpt><trkpt lat="44.5086825" lon="5.2375239"><ele>738.0</ele><time>2026-05-01T14:01:41.367Z</time></trkpt><trkpt lat="44.5088532" lon="5.237379"><ele>734.6666666666666</ele><time>2026-05-01T14:01:42.367Z</time></trkpt><trkpt lat="44.5090359" lon="5.23725"><ele>731.3333333333333</ele><time>2026-05-01T14:01:43.367Z</time></trkpt><trkpt lat="44.5092305" lon="5.2371275"><ele>728.0</ele><time>2026-05-01T14:01:44.367Z</time></trkpt><trkpt lat="44.5094277" lon="5.2370015"><ele>732.6666666666666</ele><time>2026-05-01T14:01:45.367Z</time></trkpt><trkpt lat="44.5096258" lon="5.2368748"><ele>737.3333333333334</ele><time>2026-05-01T14:01:46.367Z</time></trkpt><trkpt lat="44.5098189" lon="5.2367461"><ele>742.0</ele><time>2026-05-01T14:01:47.367Z</time></trkpt><trkpt lat="44.5100021" lon="5.2366051"><ele>739.6666666666667</ele><time>2026-05-01T14:01:48.367Z</time></trkpt><trkpt lat="44.5101762" lon="5.2364555"><ele>737.3333333333334</ele><time>2026-05-01T14:01:49.367Z</time></trkpt><trkpt lat="44.5103453" lon="5.2363039"><ele>735.0</ele><time>2026-05-01T14:01:50.367Z</time></trkpt><trkpt lat="44.5105143" lon="5.2361601"><ele>735.0</ele><time>2026-05-01T14:01:51.367Z</time></trkpt><trkpt lat="44.5106881" lon="5.2360381"><ele>735.0</ele><time>2026-05-01T14:01:52.367Z</time></trkpt><trkpt lat="44.5108635" lon="5.235937"><ele>735.0</ele><time>2026-05-01T14:01:53.367Z</time></trkpt><trkpt lat="44.5110309" lon="5.2358239"><ele>735.0</ele><time>2026-05-01T14:01:54.368Z</time></trkpt><trkpt lat="44.5111823" lon="5.2356817"><ele>735.0</ele><time>2026-05-01T14:01:55.367Z</time></trkpt><trkpt lat="44.5113103" lon="5.2355132"><ele>735.0</ele><time>2026-05-01T14:01:56.367Z</time></trkpt><trkpt lat="44.5114135" lon="5.2353262"><ele>734.3333333333334</ele><time>2026-05-01T14:01:57.367Z</time></trkpt><trkpt lat="44.51149" lon="5.2351214"><ele>733.6666666666667</ele><time>2026-05-01T14:01:58.367Z</time></trkpt><trkpt lat="44.5115411" lon="5.2349144"><ele>733.0</ele><time>2026-05-01T14:01:59.367Z</time></trkpt><trkpt lat="44.5116044" lon="5.2347388"><ele>731.75</ele><time>2026-05-01T14:02:00.368Z</time></trkpt><trkpt lat="44.5116975" lon="5.2346026"><ele>730.5</ele><time>2026-05-01T14:02:01.367Z</time></trkpt><trkpt lat="44.5118188" lon="5.2345"><ele>729.25</ele><time>2026-05-01T14:02:02.367Z</time></trkpt><trkpt lat="44.5119597" lon="5.2344151"><ele>728.0</ele><time>2026-05-01T14:02:03.367Z</time></trkpt><trkpt lat="44.5121002" lon="5.2343164"><ele>728.0</ele><time>2026-05-01T14:02:04.368Z</time></trkpt><trkpt lat="44.5122309" lon="5.2341706"><ele>728.0</ele><time>2026-05-01T14:02:05.367Z</time></trkpt><trkpt lat="44.5123586" lon="5.2339828"><ele>728.0</ele><time>2026-05-01T14:02:06.367Z</time></trkpt><trkpt lat="44.5124789" lon="5.2337722"><ele>723.6666666666666</ele><time>2026-05-01T14:02:07.369Z</time></trkpt><trkpt lat="44.5125946" lon="5.2335692"><ele>719.3333333333334</ele><time>2026-05-01T14:02:08.367Z</time></trkpt><trkpt lat="44.5126966" lon="5.2333575"><ele>715.0</ele><time>2026-05-01T14:02:09.367Z</time></trkpt><trkpt lat="44.5127748" lon="5.2331084"><ele>712.6666666666667</ele><time>2026-05-01T14:02:10.367Z</time></trkpt><trkpt lat="44.5128436" lon="5.2328424"><ele>710.3333333333334</ele><time>2026-05-01T14:02:11.367Z</time></trkpt><trkpt lat="44.5129188" lon="5.2325922"><ele>708.0</ele><time>2026-05-01T14:02:12.367Z</time></trkpt><trkpt lat="44.512981" lon="5.2323438"><ele>711.3333333333334</ele><time>2026-05-01T14:02:13.367Z</time></trkpt><trkpt lat="44.5130157" lon="5.2320908"><ele>714.6666666666667</ele><time>2026-05-01T14:02:14.367Z</time></trkpt><trkpt lat="44.5130306" lon="5.2318413"><ele>718.0</ele><time>2026-05-01T14:02:15.367Z</time></trkpt><trkpt lat="44.5130252" lon="5.2315952"><ele>715.0</ele><time>2026-05-01T14:02:16.367Z</time></trkpt><trkpt lat="44.5130094" lon="5.2313641"><ele>712.0</ele><time>2026-05-01T14:02:17.367Z</time></trkpt><trkpt lat="44.5130021" lon="5.231164"><ele>709.0</ele><time>2026-05-01T14:02:18.368Z</time></trkpt><trkpt lat="44.5130208" lon="5.2309834"><ele>706.0</ele><time>2026-05-01T14:02:19.367Z</time></trkpt><trkpt lat="44.5130743" lon="5.2308328"><ele>706.0</ele><time>2026-05-01T14:02:20.368Z</time></trkpt><trkpt lat="44.5131613" lon="5.2307144"><ele>706.0</ele><time>2026-05-01T14:02:21.367Z</time></trkpt><trkpt lat="44.5132823" lon="5.2306206"><ele>706.0</ele><time>2026-05-01T14:02:22.367Z</time></trkpt><trkpt lat="44.5134327" lon="5.230553"><ele>706.0</ele><time>2026-05-01T14:02:23.367Z</time></trkpt><trkpt lat="44.5136" lon="5.2305026"><ele>703.25</ele><time>2026-05-01T14:02:24.367Z</time></trkpt><trkpt lat="44.513763" lon="5.2304638"><ele>700.5</ele><time>2026-05-01T14:02:25.367Z</time></trkpt><trkpt lat="44.5139178" lon="5.2304511"><ele>697.75</ele><time>2026-05-01T14:02:26.367Z</time></trkpt><trkpt lat="44.5140465" lon="5.2304577"><ele>695.0</ele><time>2026-05-01T14:02:27.367Z</time></trkpt><trkpt lat="44.5141449" lon="5.2304399"><ele>695.0</ele><time>2026-05-01T14:02:28.367Z</time></trkpt><trkpt lat="44.5142165" lon="5.230382"><ele>695.0</ele><time>2026-05-01T14:02:29.368Z</time></trkpt><trkpt lat="44.5142535" lon="5.2302959"><ele>695.0</ele><time>2026-05-01T14:02:30.367Z</time></trkpt><trkpt lat="44.5142463" lon="5.2302072"><ele>695.0</ele><time>2026-05-01T14:02:31.367Z</time></trkpt><trkpt lat="44.5141531" lon="5.2301429"><ele>695.0</ele><time>2026-05-01T14:02:33.367Z</time></trkpt><trkpt lat="44.5140719" lon="5.2301644"><ele>695.0</ele><time>2026-05-01T14:02:34.367Z</time></trkpt><trkpt lat="44.5139635" lon="5.2301953"><ele>695.0</ele><time>2026-05-01T14:02:35.367Z</time></trkpt><trkpt lat="44.5138317" lon="5.2302252"><ele>695.0</ele><time>2026-05-01T14:02:36.368Z</time></trkpt><trkpt lat="44.5136781" lon="5.2302525"><ele>695.0</ele><time>2026-05-01T14:02:37.367Z</time></trkpt><trkpt lat="44.5135093" lon="5.2302785"><ele>691.6666666666666</ele><time>2026-05-01T14:02:38.368Z</time></trkpt><trkpt lat="44.5133299" lon="5.2303038"><ele>688.3333333333334</ele><time>2026-05-01T14:02:39.367Z</time></trkpt><trkpt lat="44.513158" lon="5.23033"><ele>685.0</ele><time>2026-05-01T14:02:40.367Z</time></trkpt><trkpt lat="44.5129921" lon="5.2303788"><ele>685.3333333333334</ele><time>2026-05-01T14:02:41.367Z</time></trkpt><trkpt lat="44.5128395" lon="5.2304611"><ele>685.6666666666666</ele><time>2026-05-01T14:02:42.367Z</time></trkpt><trkpt lat="44.5127001" lon="5.2305723"><ele>686.0</ele><time>2026-05-01T14:02:43.368Z</time></trkpt><trkpt lat="44.5125717" lon="5.230696"><ele>686.0</ele><time>2026-05-01T14:02:44.367Z</time></trkpt><trkpt lat="44.512447" lon="5.2308229"><ele>686.0</ele><time>2026-05-01T14:02:45.367Z</time></trkpt><trkpt lat="44.5123266" lon="5.2309414"><ele>686.0</ele><time>2026-05-01T14:02:46.367Z</time></trkpt><trkpt lat="44.5122177" lon="5.2310403"><ele>686.0</ele><time>2026-05-01T14:02:47.368Z</time></trkpt><trkpt lat="44.5121248" lon="5.2311075"><ele>686.0</ele><time>2026-05-01T14:02:48.367Z</time></trkpt><trkpt lat="44.5120508" lon="5.2311245"><ele>686.0</ele><time>2026-05-01T14:02:49.367Z</time></trkpt><trkpt lat="44.5119805" lon="5.2310263"><ele>686.0</ele><time>2026-05-01T14:02:51.367Z</time></trkpt><trkpt lat="44.5120488" lon="5.2309047"><ele>686.0</ele><time>2026-05-01T14:02:53.367Z</time></trkpt><trkpt lat="44.5121281" lon="5.2308592"><ele>686.0</ele><time>2026-05-01T14:02:54.368Z</time></trkpt><trkpt lat="44.5122259" lon="5.2307947"><ele>686.0</ele><time>2026-05-01T14:02:55.367Z</time></trkpt><trkpt lat="44.5123271" lon="5.2306803"><ele>686.0</ele><time>2026-05-01T14:02:56.367Z</time></trkpt><trkpt lat="44.5124344" lon="5.2305237"><ele>686.0</ele><time>2026-05-01T14:02:57.367Z</time></trkpt><trkpt lat="44.5125498" lon="5.2303476"><ele>685.6666666666666</ele><time>2026-05-01T14:02:58.367Z</time></trkpt><trkpt lat="44.5126766" lon="5.2301807"><ele>685.3333333333334</ele><time>2026-05-01T14:02:59.367Z</time></trkpt><trkpt lat="44.5128134" lon="5.2300446"><ele>685.0</ele><time>2026-05-01T14:03:00.367Z</time></trkpt><trkpt lat="44.5129422" lon="5.2299326"><ele>685.0</ele><time>2026-05-01T14:03:01.367Z</time></trkpt><trkpt lat="44.5130414" lon="5.2298173"><ele>685.0</ele><time>2026-05-01T14:03:02.367Z</time></trkpt><trkpt lat="44.5131139" lon="5.2296857"><ele>685.0</ele><time>2026-05-01T14:03:03.367Z</time></trkpt><trkpt lat="44.5131567" lon="5.2295344"><ele>685.0</ele><time>2026-05-01T14:03:04.368Z</time></trkpt><trkpt lat="44.5131627" lon="5.2293692"><ele>684.0</ele><time>2026-05-01T14:03:05.367Z</time></trkpt><trkpt lat="44.5131268" lon="5.229193"><ele>683.0</ele><time>2026-05-01T14:03:06.367Z</time></trkpt><trkpt lat="44.5130532" lon="5.2290087"><ele>682.0</ele><time>2026-05-01T14:03:07.367Z</time></trkpt><trkpt lat="44.5129526" lon="5.2288113"><ele>676.0</ele><time>2026-05-01T14:03:08.368Z</time></trkpt><trkpt lat="44.5128393" lon="5.2286036"><ele>670.0</ele><time>2026-05-01T14:03:09.368Z</time></trkpt><trkpt lat="44.512725" lon="5.2284078"><ele>664.0</ele><time>2026-05-01T14:03:10.367Z</time></trkpt><trkpt lat="44.5126224" lon="5.228235"><ele>664.0</ele><time>2026-05-01T14:03:11.367Z</time></trkpt><trkpt lat="44.5125494" lon="5.228064"><ele>664.0</ele><time>2026-05-01T14:03:12.367Z</time></trkpt><trkpt lat="44.5125085" lon="5.2278768"><ele>664.0</ele><time>2026-05-01T14:03:13.367Z</time></trkpt><trkpt lat="44.5125025" lon="5.2276876"><ele>664.0</ele><time>2026-05-01T14:03:14.367Z</time></trkpt><trkpt lat="44.5125276" lon="5.2274987"><ele>661.0</ele><time>2026-05-01T14:03:15.367Z</time></trkpt><trkpt lat="44.512591" lon="5.227296"><ele>658.0</ele><time>2026-05-01T14:03:16.367Z</time></trkpt><trkpt lat="44.5126892" lon="5.2271084"><ele>655.0</ele><time>2026-05-01T14:03:17.367Z</time></trkpt><trkpt lat="44.5127987" lon="5.2269464"><ele>655.0</ele><time>2026-05-01T14:03:18.368Z</time></trkpt><trkpt lat="44.512886" lon="5.2267571"><ele>655.0</ele><time>2026-05-01T14:03:19.367Z</time></trkpt><trkpt lat="44.5129518" lon="5.2265293"><ele>655.0</ele><time>2026-05-01T14:03:20.368Z</time></trkpt><trkpt lat="44.5129906" lon="5.2262712"><ele>659.0</ele><time>2026-05-01T14:03:21.367Z</time></trkpt><trkpt lat="44.5129995" lon="5.2260128"><ele>663.0</ele><time>2026-05-01T14:03:22.368Z</time></trkpt><trkpt lat="44.512988" lon="5.2257663"><ele>667.0</ele><time>2026-05-01T14:03:23.367Z</time></trkpt><trkpt lat="44.5129935" lon="5.2255135"><ele>667.0</ele><time>2026-05-01T14:03:24.367Z</time></trkpt><trkpt lat="44.5130334" lon="5.2252461"><ele>667.0</ele><time>2026-05-01T14:03:25.367Z</time></trkpt><trkpt lat="44.513091" lon="5.2249706"><ele>667.0</ele><time>2026-05-01T14:03:26.368Z</time></trkpt><trkpt lat="44.5131434" lon="5.2246891"><ele>662.3333333333334</ele><time>2026-05-01T14:03:27.367Z</time></trkpt><trkpt lat="44.5131961" lon="5.2244146"><ele>657.6666666666666</ele><time>2026-05-01T14:03:28.369Z</time></trkpt><trkpt lat="44.5132696" lon="5.2241488"><ele>653.0</ele><time>2026-05-01T14:03:29.368Z</time></trkpt><trkpt lat="44.5133692" lon="5.2238945"><ele>656.3333333333333</ele><time>2026-05-01T14:03:30.367Z</time></trkpt><trkpt lat="44.5134886" lon="5.2236524"><ele>659.6666666666666</ele><time>2026-05-01T14:03:31.367Z</time></trkpt><trkpt lat="44.5136159" lon="5.2234093"><ele>663.0</ele><time>2026-05-01T14:03:32.368Z</time></trkpt><trkpt lat="44.5137451" lon="5.2231629"><ele>657.3333333333334</ele><time>2026-05-01T14:03:33.367Z</time></trkpt><trkpt lat="44.5138694" lon="5.2229129"><ele>651.6666666666667</ele><time>2026-05-01T14:03:34.367Z</time></trkpt><trkpt lat="44.5139793" lon="5.2226497"><ele>646.0</ele><time>2026-05-01T14:03:35.368Z</time></trkpt><trkpt lat="44.514073" lon="5.2223708"><ele>643.3333333333334</ele><time>2026-05-01T14:03:36.367Z</time></trkpt><trkpt lat="44.5141514" lon="5.222085"><ele>640.6666666666666</ele><time>2026-05-01T14:03:37.368Z</time></trkpt><trkpt lat="44.5142237" lon="5.2217967"><ele>638.0</ele><time>2026-05-01T14:03:38.367Z</time></trkpt><trkpt lat="44.5142887" lon="5.2215057"><ele>636.6666666666666</ele><time>2026-05-01T14:03:39.367Z</time></trkpt><trkpt lat="44.5143472" lon="5.2212129"><ele>635.3333333333334</ele><time>2026-05-01T14:03:40.368Z</time></trkpt><trkpt lat="44.5144029" lon="5.2209253"><ele>634.0</ele><time>2026-05-01T14:03:41.367Z</time></trkpt><trkpt lat="44.514474" lon="5.2206498"><ele>637.3333333333334</ele><time>2026-05-01T14:03:42.367Z</time></trkpt><trkpt lat="44.5145646" lon="5.2203864"><ele>640.6666666666666</ele><time>2026-05-01T14:03:43.367Z</time></trkpt><trkpt lat="44.5146641" lon="5.2201311"><ele>644.0</ele><time>2026-05-01T14:03:44.368Z</time></trkpt><trkpt lat="44.5147649" lon="5.2198762"><ele>639.3333333333333</ele><time>2026-05-01T14:03:45.367Z</time></trkpt><trkpt lat="44.5148629" lon="5.2196267"><ele>634.6666666666666</ele><time>2026-05-01T14:03:46.368Z</time></trkpt><trkpt lat="44.5149621" lon="5.2193876"><ele>630.0</ele><time>2026-05-01T14:03:47.367Z</time></trkpt><trkpt lat="44.5150679" lon="5.2191764"><ele>630.0</ele><time>2026-05-01T14:03:48.367Z</time></trkpt><trkpt lat="44.5151816" lon="5.2189982"><ele>630.0</ele><time>2026-05-01T14:03:49.367Z</time></trkpt><trkpt lat="44.5152872" lon="5.2188341"><ele>630.0</ele><time>2026-05-01T14:03:50.368Z</time></trkpt><trkpt lat="44.5153626" lon="5.2186587"><ele>631.25</ele><time>2026-05-01T14:03:51.368Z</time></trkpt><trkpt lat="44.5154084" lon="5.2184697"><ele>632.5</ele><time>2026-05-01T14:03:52.368Z</time></trkpt><trkpt lat="44.5154355" lon="5.2182752"><ele>633.75</ele><time>2026-05-01T14:03:53.367Z</time></trkpt><trkpt lat="44.515478" lon="5.2180809"><ele>635.0</ele><time>2026-05-01T14:03:54.367Z</time></trkpt><trkpt lat="44.515546" lon="5.2178851"><ele>630.6666666666666</ele><time>2026-05-01T14:03:55.367Z</time></trkpt><trkpt lat="44.5156216" lon="5.2176915"><ele>626.3333333333334</ele><time>2026-05-01T14:03:56.367Z</time></trkpt><trkpt lat="44.5156787" lon="5.2174918"><ele>622.0</ele><time>2026-05-01T14:03:57.367Z</time></trkpt><trkpt lat="44.5157251" lon="5.2173031"><ele>621.75</ele><time>2026-05-01T14:03:58.367Z</time></trkpt><trkpt lat="44.5157752" lon="5.2171508"><ele>621.5</ele><time>2026-05-01T14:03:59.368Z</time></trkpt><trkpt lat="44.5158386" lon="5.2170129"><ele>621.25</ele><time>2026-05-01T14:04:00.367Z</time></trkpt><trkpt lat="44.5159108" lon="5.2168924"><ele>621.0</ele><time>2026-05-01T14:04:01.368Z</time></trkpt><trkpt lat="44.5159834" lon="5.2167814"><ele>621.0</ele><time>2026-05-01T14:04:02.367Z</time></trkpt><trkpt lat="44.5160626" lon="5.2166836"><ele>621.0</ele><time>2026-05-01T14:04:03.367Z</time></trkpt><trkpt lat="44.5161522" lon="5.2165956"><ele>621.0</ele><time>2026-05-01T14:04:04.368Z</time></trkpt><trkpt lat="44.516244" lon="5.2165009"><ele>621.0</ele><time>2026-05-01T14:04:05.368Z</time></trkpt><trkpt lat="44.5163266" lon="5.2163948"><ele>621.0</ele><time>2026-05-01T14:04:06.367Z</time></trkpt><trkpt lat="44.5164114" lon="5.2162856"><ele>619.8</ele><time>2026-05-01T14:04:07.367Z</time></trkpt><trkpt lat="44.5165017" lon="5.2161807"><ele>618.6</ele><time>2026-05-01T14:04:08.368Z</time></trkpt><trkpt lat="44.5165929" lon="5.2160863"><ele>617.4</ele><time>2026-05-01T14:04:09.367Z</time></trkpt><trkpt lat="44.5166822" lon="5.2160123"><ele>616.2</ele><time>2026-05-01T14:04:10.367Z</time></trkpt><trkpt lat="44.516756" lon="5.2159407"><ele>615.0</ele><time>2026-05-01T14:04:11.367Z</time></trkpt><trkpt lat="44.5168152" lon="5.215861"><ele>615.0</ele><time>2026-05-01T14:04:12.367Z</time></trkpt><trkpt lat="44.516859" lon="5.2157915"><ele>615.0</ele><time>2026-05-01T14:04:13.367Z</time></trkpt><trkpt lat="44.5169394" lon="5.2156988"><ele>615.0</ele><time>2026-05-01T14:04:15.368Z</time></trkpt><trkpt lat="44.5170135" lon="5.2156691"><ele>615.0</ele><time>2026-05-01T14:04:16.367Z</time></trkpt><trkpt lat="44.5171179" lon="5.2156521"><ele>615.0</ele><time>2026-05-01T14:04:17.367Z</time></trkpt><trkpt lat="44.517239" lon="5.2156297"><ele>615.0</ele><time>2026-05-01T14:04:18.368Z</time></trkpt><trkpt lat="44.5173579" lon="5.2155964"><ele>615.0</ele><time>2026-05-01T14:04:19.367Z</time></trkpt><trkpt lat="44.5174707" lon="5.2155724"><ele>615.0</ele><time>2026-05-01T14:04:20.367Z</time></trkpt><trkpt lat="44.5175862" lon="5.2155705"><ele>615.0</ele><time>2026-05-01T14:04:21.367Z</time></trkpt><trkpt lat="44.5177133" lon="5.2155946"><ele>615.0</ele><time>2026-05-01T14:04:22.367Z</time></trkpt><trkpt lat="44.5178452" lon="5.2156208"><ele>615.0</ele><time>2026-05-01T14:04:23.367Z</time></trkpt><trkpt lat="44.5179833" lon="5.2156541"><ele>615.0</ele><time>2026-05-01T14:04:24.367Z</time></trkpt><trkpt lat="44.518126" lon="5.2156946"><ele>615.0</ele><time>2026-05-01T14:04:25.367Z</time></trkpt><trkpt lat="44.5182709" lon="5.2157338"><ele>614.5</ele><time>2026-05-01T14:04:26.367Z</time></trkpt><trkpt lat="44.5184093" lon="5.2157715"><ele>614.0</ele><time>2026-05-01T14:04:27.367Z</time></trkpt><trkpt lat="44.5185383" lon="5.2158147"><ele>613.5</ele><time>2026-05-01T14:04:28.367Z</time></trkpt><trkpt lat="44.518661" lon="5.2158735"><ele>613.0</ele><time>2026-05-01T14:04:29.367Z</time></trkpt><trkpt lat="44.5187759" lon="5.2159432"><ele>613.0</ele><time>2026-05-01T14:04:30.367Z</time></trkpt><trkpt lat="44.518888" lon="5.2160203"><ele>613.0</ele><time>2026-05-01T14:04:31.367Z</time></trkpt><trkpt lat="44.519002" lon="5.2160956"><ele>613.0</ele><time>2026-05-01T14:04:32.367Z</time></trkpt><trkpt lat="44.5191151" lon="5.2161815"><ele>613.0</ele><time>2026-05-01T14:04:33.367Z</time></trkpt><trkpt lat="44.519221" lon="5.2162719"><ele>613.0</ele><time>2026-05-01T14:04:34.367Z</time></trkpt><trkpt lat="44.5193177" lon="5.2163668"><ele>613.0</ele><time>2026-05-01T14:04:35.368Z</time></trkpt><trkpt lat="44.5194008" lon="5.2164617"><ele>613.0</ele><time>2026-05-01T14:04:36.367Z</time></trkpt><trkpt lat="44.5194806" lon="5.2165456"><ele>613.0</ele><time>2026-05-01T14:04:37.367Z</time></trkpt><trkpt lat="44.5195679" lon="5.2166238"><ele>613.0</ele><time>2026-05-01T14:04:38.367Z</time></trkpt><trkpt lat="44.5196705" lon="5.2166962"><ele>612.0</ele><time>2026-05-01T14:04:39.367Z</time></trkpt><trkpt lat="44.5197876" lon="5.2167605"><ele>611.0</ele><time>2026-05-01T14:04:40.367Z</time></trkpt><trkpt lat="44.5199184" lon="5.2168099"><ele>610.0</ele><time>2026-05-01T14:04:41.367Z</time></trkpt><trkpt lat="44.5200677" lon="5.2168616"><ele>609.0</ele><time>2026-05-01T14:04:42.367Z</time></trkpt><trkpt lat="44.5202265" lon="5.2169226"><ele>609.0</ele><time>2026-05-01T14:04:43.368Z</time></trkpt><trkpt lat="44.5203945" lon="5.2169921"><ele>609.0</ele><time>2026-05-01T14:04:44.367Z</time></trkpt><trkpt lat="44.5205662" lon="5.217066"><ele>609.0</ele><time>2026-05-01T14:04:45.368Z</time></trkpt><trkpt lat="44.5207476" lon="5.2171507"><ele>607.0</ele><time>2026-05-01T14:04:46.367Z</time></trkpt><trkpt lat="44.5209296" lon="5.2172331"><ele>605.0</ele><time>2026-05-01T14:04:47.367Z</time></trkpt><trkpt lat="44.5211177" lon="5.2173159"><ele>603.0</ele><time>2026-05-01T14:04:48.367Z</time></trkpt><trkpt lat="44.521307" lon="5.2174009"><ele>602.0</ele><time>2026-05-01T14:04:49.367Z</time></trkpt><trkpt lat="44.5214898" lon="5.2174872"><ele>601.0</ele><time>2026-05-01T14:04:50.367Z</time></trkpt><trkpt lat="44.5216662" lon="5.2175697"><ele>600.0</ele><time>2026-05-01T14:04:51.367Z</time></trkpt><trkpt lat="44.5218382" lon="5.2176298"><ele>600.0</ele><time>2026-05-01T14:04:52.367Z</time></trkpt><trkpt lat="44.5220083" lon="5.2176446"><ele>600.0</ele><time>2026-05-01T14:04:53.367Z</time></trkpt><trkpt lat="44.5221765" lon="5.2176242"><ele>600.0</ele><time>2026-05-01T14:04:54.368Z</time></trkpt><trkpt lat="44.5223394" lon="5.2175789"><ele>599.0</ele><time>2026-05-01T14:04:55.368Z</time></trkpt><trkpt lat="44.5225034" lon="5.2175277"><ele>598.0</ele><time>2026-05-01T14:04:56.367Z</time></trkpt><trkpt lat="44.5226669" lon="5.2174996"><ele>597.0</ele><time>2026-05-01T14:04:57.367Z</time></trkpt><trkpt lat="44.5228281" lon="5.2175222"><ele>596.0</ele><time>2026-05-01T14:04:58.367Z</time></trkpt><trkpt lat="44.5229855" lon="5.2175885"><ele>595.0</ele><time>2026-05-01T14:04:59.367Z</time></trkpt><trkpt lat="44.5231379" lon="5.2177053"><ele>594.0</ele><time>2026-05-01T14:05:00.367Z</time></trkpt><trkpt lat="44.5232942" lon="5.2178477"><ele>594.0</ele><time>2026-05-01T14:05:01.367Z</time></trkpt><trkpt lat="44.5234662" lon="5.2179873"><ele>594.0</ele><time>2026-05-01T14:05:02.367Z</time></trkpt><trkpt lat="44.5236547" lon="5.2180965"><ele>594.0</ele><time>2026-05-01T14:05:03.367Z</time></trkpt><trkpt lat="44.5238592" lon="5.2181682"><ele>595.0</ele><time>2026-05-01T14:05:04.367Z</time></trkpt><trkpt lat="44.5240737" lon="5.2182085"><ele>596.0</ele><time>2026-05-01T14:05:05.367Z</time></trkpt><trkpt lat="44.5242989" lon="5.2182276"><ele>597.0</ele><time>2026-05-01T14:05:06.367Z</time></trkpt><trkpt lat="44.5245144" lon="5.2182445"><ele>595.3333333333334</ele><time>2026-05-01T14:05:07.368Z</time></trkpt><trkpt lat="44.5247269" lon="5.2182719"><ele>593.6666666666667</ele><time>2026-05-01T14:05:08.367Z</time></trkpt><trkpt lat="44.5249296" lon="5.218314"><ele>592.0</ele><time>2026-05-01T14:05:09.367Z</time></trkpt><trkpt lat="44.5251232" lon="5.2183612"><ele>592.0</ele><time>2026-05-01T14:05:10.367Z</time></trkpt><trkpt lat="44.5253098" lon="5.2184042"><ele>592.0</ele><time>2026-05-01T14:05:11.367Z</time></trkpt><trkpt lat="44.5254893" lon="5.2184484"><ele>592.0</ele><time>2026-05-01T14:05:12.367Z</time></trkpt><trkpt lat="44.5256623" lon="5.2184908"><ele>591.0</ele><time>2026-05-01T14:05:13.366Z</time></trkpt><trkpt lat="44.5258315" lon="5.2185322"><ele>590.0</ele><time>2026-05-01T14:05:14.366Z</time></trkpt><trkpt lat="44.5260029" lon="5.2185745"><ele>589.0</ele><time>2026-05-01T14:05:15.366Z</time></trkpt><trkpt lat="44.5261919" lon="5.2186181"><ele>589.0</ele><time>2026-05-01T14:05:16.366Z</time></trkpt><trkpt lat="44.5263927" lon="5.2186631"><ele>589.0</ele><time>2026-05-01T14:05:17.366Z</time></trkpt><trkpt lat="44.5266091" lon="5.2187113"><ele>589.0</ele><time>2026-05-01T14:05:18.367Z</time></trkpt><trkpt lat="44.5268212" lon="5.2187657"><ele>589.0</ele><time>2026-05-01T14:05:19.366Z</time></trkpt><trkpt lat="44.527022" lon="5.2188209"><ele>589.0</ele><time>2026-05-01T14:05:20.366Z</time></trkpt><trkpt lat="44.5272184" lon="5.2188462"><ele>589.0</ele><time>2026-05-01T14:05:21.366Z</time></trkpt><trkpt lat="44.5274199" lon="5.2188271"><ele>589.3333333333334</ele><time>2026-05-01T14:05:22.366Z</time></trkpt><trkpt lat="44.5276231" lon="5.2187598"><ele>589.6666666666666</ele><time>2026-05-01T14:05:23.366Z</time></trkpt><trkpt lat="44.5278245" lon="5.2186636"><ele>590.0</ele><time>2026-05-01T14:05:24.366Z</time></trkpt><trkpt lat="44.5280253" lon="5.2185661"><ele>590.0</ele><time>2026-05-01T14:05:25.367Z</time></trkpt><trkpt lat="44.528217" lon="5.2184717"><ele>590.0</ele><time>2026-05-01T14:05:26.367Z</time></trkpt><trkpt lat="44.5284006" lon="5.2183809"><ele>590.0</ele><time>2026-05-01T14:05:27.366Z</time></trkpt><trkpt lat="44.528575" lon="5.2182893"><ele>589.3333333333333</ele><time>2026-05-01T14:05:28.367Z</time></trkpt><trkpt lat="44.5287422" lon="5.2182017"><ele>588.6666666666666</ele><time>2026-05-01T14:05:29.366Z</time></trkpt><trkpt lat="44.5289045" lon="5.2181252"><ele>588.0</ele><time>2026-05-01T14:05:30.366Z</time></trkpt><trkpt lat="44.5290608" lon="5.2180524"><ele>588.0</ele><time>2026-05-01T14:05:31.366Z</time></trkpt><trkpt lat="44.5292096" lon="5.2179777"><ele>588.0</ele><time>2026-05-01T14:05:32.366Z</time></trkpt><trkpt lat="44.5293599" lon="5.2179043"><ele>588.0</ele><time>2026-05-01T14:05:33.367Z</time></trkpt><trkpt lat="44.5295117" lon="5.2178262"><ele>588.3333333333334</ele><time>2026-05-01T14:05:34.366Z</time></trkpt><trkpt lat="44.5296658" lon="5.2177503"><ele>588.6666666666667</ele><time>2026-05-01T14:05:35.366Z</time></trkpt><trkpt lat="44.5298225" lon="5.2176717"><ele>589.0</ele><time>2026-05-01T14:05:36.366Z</time></trkpt><trkpt lat="44.5299812" lon="5.2175916"><ele>589.0</ele><time>2026-05-01T14:05:37.367Z</time></trkpt><trkpt lat="44.530143" lon="5.2175095"><ele>589.0</ele><time>2026-05-01T14:05:38.366Z</time></trkpt><trkpt lat="44.5303118" lon="5.2174245"><ele>589.0</ele><time>2026-05-01T14:05:39.366Z</time></trkpt><trkpt lat="44.5304899" lon="5.217336"><ele>587.3333333333334</ele><time>2026-05-01T14:05:40.366Z</time></trkpt><trkpt lat="44.5306751" lon="5.2172426"><ele>585.6666666666666</ele><time>2026-05-01T14:05:41.367Z</time></trkpt><trkpt lat="44.5308672" lon="5.2171457"><ele>584.0</ele><time>2026-05-01T14:05:42.366Z</time></trkpt><trkpt lat="44.5310663" lon="5.2170438"><ele>585.0</ele><time>2026-05-01T14:05:43.366Z</time></trkpt><trkpt lat="44.5312696" lon="5.2169362"><ele>586.0</ele><time>2026-05-01T14:05:44.366Z</time></trkpt><trkpt lat="44.531472" lon="5.2168178"><ele>587.0</ele><time>2026-05-01T14:05:45.366Z</time></trkpt><trkpt lat="44.5316774" lon="5.2166921"><ele>587.0</ele><time>2026-05-01T14:05:46.366Z</time></trkpt><trkpt lat="44.5318789" lon="5.2165617"><ele>587.0</ele><time>2026-05-01T14:05:47.366Z</time></trkpt><trkpt lat="44.5320816" lon="5.2164266"><ele>587.0</ele><time>2026-05-01T14:05:48.366Z</time></trkpt><trkpt lat="44.5322807" lon="5.2162975"><ele>587.0</ele><time>2026-05-01T14:05:49.366Z</time></trkpt><trkpt lat="44.5324785" lon="5.2161647"><ele>587.0</ele><time>2026-05-01T14:05:50.366Z</time></trkpt><trkpt lat="44.5326823" lon="5.2160265"><ele>587.0</ele><time>2026-05-01T14:05:51.366Z</time></trkpt><trkpt lat="44.5328926" lon="5.2158849"><ele>586.0</ele><time>2026-05-01T14:05:52.366Z</time></trkpt><trkpt lat="44.5331005" lon="5.2157465"><ele>585.0</ele><time>2026-05-01T14:05:53.366Z</time></trkpt><trkpt lat="44.5333007" lon="5.2156146"><ele>585.0</ele><time>2026-05-01T14:05:54.368Z</time></trkpt><trkpt lat="44.5334932" lon="5.215487"><ele>585.0</ele><time>2026-05-01T14:05:55.366Z</time></trkpt><trkpt lat="44.5336708" lon="5.2153489"><ele>585.0</ele><time>2026-05-01T14:05:56.366Z</time></trkpt><trkpt lat="44.5338268" lon="5.2151737"><ele>585.6666666666666</ele><time>2026-05-01T14:05:57.366Z</time></trkpt><trkpt lat="44.5339709" lon="5.2149669"><ele>586.3333333333333</ele><time>2026-05-01T14:05:58.366Z</time></trkpt><trkpt lat="44.5341028" lon="5.2147616"><ele>587.0</ele><time>2026-05-01T14:05:59.366Z</time></trkpt><trkpt lat="44.5342296" lon="5.2145655"><ele>585.6666666666666</ele><time>2026-05-01T14:06:00.367Z</time></trkpt><trkpt lat="44.5343496" lon="5.2143761"><ele>584.3333333333334</ele><time>2026-05-01T14:06:01.366Z</time></trkpt><trkpt lat="44.5344614" lon="5.2141979"><ele>583.0</ele><time>2026-05-01T14:06:02.366Z</time></trkpt><trkpt lat="44.5345531" lon="5.2140435"><ele>586.5</ele><time>2026-05-01T14:06:03.366Z</time></trkpt><trkpt lat="44.5346121" lon="5.2138801"><ele>590.0</ele><time>2026-05-01T14:06:04.367Z</time></trkpt><trkpt lat="44.5346355" lon="5.2136922"><ele>593.5</ele><time>2026-05-01T14:06:05.366Z</time></trkpt><trkpt lat="44.5346208" lon="5.2134891"><ele>597.0</ele><time>2026-05-01T14:06:06.366Z</time></trkpt><trkpt lat="44.5345684" lon="5.2132858"><ele>593.3333333333334</ele><time>2026-05-01T14:06:07.367Z</time></trkpt><trkpt lat="44.5344758" lon="5.2130819"><ele>589.6666666666667</ele><time>2026-05-01T14:06:08.366Z</time></trkpt><trkpt lat="44.5343641" lon="5.2128712"><ele>586.0</ele><time>2026-05-01T14:06:09.366Z</time></trkpt><trkpt lat="44.5342371" lon="5.2126612"><ele>586.0</ele><time>2026-05-01T14:06:10.366Z</time></trkpt><trkpt lat="44.5340937" lon="5.2124672"><ele>586.0</ele><time>2026-05-01T14:06:11.367Z</time></trkpt><trkpt lat="44.5339434" lon="5.2122885"><ele>586.0</ele><time>2026-05-01T14:06:12.366Z</time></trkpt><trkpt lat="44.533794" lon="5.2121249"><ele>584.0</ele><time>2026-05-01T14:06:13.366Z</time></trkpt><trkpt lat="44.5336544" lon="5.2119612"><ele>582.0</ele><time>2026-05-01T14:06:14.366Z</time></trkpt><trkpt lat="44.5335352" lon="5.2117582"><ele>580.0</ele><time>2026-05-01T14:06:15.366Z</time></trkpt><trkpt lat="44.5334304" lon="5.2115191"><ele>581.0</ele><time>2026-05-01T14:06:16.366Z</time></trkpt><trkpt lat="44.5333387" lon="5.21128"><ele>582.0</ele><time>2026-05-01T14:06:17.367Z</time></trkpt><trkpt lat="44.5332545" lon="5.2110438"><ele>583.0</ele><time>2026-05-01T14:06:18.367Z</time></trkpt><trkpt lat="44.5331721" lon="5.2108173"><ele>583.3333333333334</ele><time>2026-05-01T14:06:19.366Z</time></trkpt><trkpt lat="44.5330937" lon="5.2105989"><ele>583.6666666666666</ele><time>2026-05-01T14:06:20.366Z</time></trkpt><trkpt lat="44.5330252" lon="5.2103844"><ele>584.0</ele><time>2026-05-01T14:06:21.367Z</time></trkpt><trkpt lat="44.5329612" lon="5.2101714"><ele>584.0</ele><time>2026-05-01T14:06:22.366Z</time></trkpt><trkpt lat="44.5329157" lon="5.2099542"><ele>584.0</ele><time>2026-05-01T14:06:23.366Z</time></trkpt><trkpt lat="44.5329102" lon="5.2097198"><ele>584.0</ele><time>2026-05-01T14:06:24.367Z</time></trkpt><trkpt lat="44.5329438" lon="5.2094769"><ele>584.0</ele><time>2026-05-01T14:06:25.366Z</time></trkpt><trkpt lat="44.5330079" lon="5.2092262"><ele>584.0</ele><time>2026-05-01T14:06:26.367Z</time></trkpt><trkpt lat="44.533085" lon="5.2089683"><ele>584.0</ele><time>2026-05-01T14:06:27.366Z</time></trkpt><trkpt lat="44.5331576" lon="5.2087053"><ele>582.0</ele><time>2026-05-01T14:06:28.366Z</time></trkpt><trkpt lat="44.5332184" lon="5.2084502"><ele>580.0</ele><time>2026-05-01T14:06:29.366Z</time></trkpt><trkpt lat="44.5332635" lon="5.2081953"><ele>578.0</ele><time>2026-05-01T14:06:30.367Z</time></trkpt><trkpt lat="44.5332917" lon="5.2079469"><ele>576.0</ele><time>2026-05-01T14:06:31.366Z</time></trkpt><trkpt lat="44.5333177" lon="5.2077049"><ele>574.0</ele><time>2026-05-01T14:06:32.366Z</time></trkpt><trkpt lat="44.5333539" lon="5.2074645"><ele>572.0</ele><time>2026-05-01T14:06:33.367Z</time></trkpt><trkpt lat="44.533392" lon="5.2072211"><ele>571.0</ele><time>2026-05-01T14:06:34.366Z</time></trkpt><trkpt lat="44.5334291" lon="5.2069747"><ele>570.0</ele><time>2026-05-01T14:06:35.367Z</time></trkpt><trkpt lat="44.5334716" lon="5.2067308"><ele>569.0</ele><time>2026-05-01T14:06:36.366Z</time></trkpt><trkpt lat="44.5335231" lon="5.2065188"><ele>570.0</ele><time>2026-05-01T14:06:37.366Z</time></trkpt><trkpt lat="44.5335958" lon="5.2063363"><ele>571.0</ele><time>2026-05-01T14:06:38.366Z</time></trkpt><trkpt lat="44.533691" lon="5.2061708"><ele>572.0</ele><time>2026-05-01T14:06:39.367Z</time></trkpt><trkpt lat="44.5338096" lon="5.2060242"><ele>572.0</ele><time>2026-05-01T14:06:40.366Z</time></trkpt><trkpt lat="44.5339465" lon="5.2059286"><ele>572.0</ele><time>2026-05-01T14:06:41.366Z</time></trkpt><trkpt lat="44.5341006" lon="5.2058603"><ele>572.0</ele><time>2026-05-01T14:06:42.367Z</time></trkpt><trkpt lat="44.5342642" lon="5.2057973"><ele>572.0</ele><time>2026-05-01T14:06:43.366Z</time></trkpt><trkpt lat="44.5344333" lon="5.2057282"><ele>572.0</ele><time>2026-05-01T14:06:44.366Z</time></trkpt><trkpt lat="44.5346041" lon="5.2056536"><ele>572.0</ele><time>2026-05-01T14:06:45.367Z</time></trkpt><trkpt lat="44.5347698" lon="5.2055576"><ele>571.0</ele><time>2026-05-01T14:06:46.366Z</time></trkpt><trkpt lat="44.5349162" lon="5.2054305"><ele>570.0</ele><time>2026-05-01T14:06:47.367Z</time></trkpt><trkpt lat="44.5350418" lon="5.2052694"><ele>569.0</ele><time>2026-05-01T14:06:48.366Z</time></trkpt><trkpt lat="44.5351396" lon="5.205078"><ele>569.0</ele><time>2026-05-01T14:06:49.367Z</time></trkpt><trkpt lat="44.5352131" lon="5.2048506"><ele>569.0</ele><time>2026-05-01T14:06:50.366Z</time></trkpt><trkpt lat="44.5352621" lon="5.2045958"><ele>569.0</ele><time>2026-05-01T14:06:51.367Z</time></trkpt><trkpt lat="44.5352928" lon="5.2043262"><ele>567.3333333333333</ele><time>2026-05-01T14:06:52.366Z</time></trkpt><trkpt lat="44.5353075" lon="5.2040485"><ele>565.6666666666666</ele><time>2026-05-01T14:06:53.366Z</time></trkpt><trkpt lat="44.535308" lon="5.2037664"><ele>564.0</ele><time>2026-05-01T14:06:54.366Z</time></trkpt><trkpt lat="44.5353079" lon="5.2034947"><ele>563.0</ele><time>2026-05-01T14:06:55.366Z</time></trkpt><trkpt lat="44.5353222" lon="5.2032371"><ele>562.0</ele><time>2026-05-01T14:06:56.366Z</time></trkpt><trkpt lat="44.5353503" lon="5.2029979"><ele>561.0</ele><time>2026-05-01T14:06:57.366Z</time></trkpt><trkpt lat="44.5353966" lon="5.2027863"><ele>560.75</ele><time>2026-05-01T14:06:58.366Z</time></trkpt><trkpt lat="44.535471" lon="5.2026077"><ele>560.5</ele><time>2026-05-01T14:06:59.366Z</time></trkpt><trkpt lat="44.5355607" lon="5.2024547"><ele>560.25</ele><time>2026-05-01T14:07:00.366Z</time></trkpt><trkpt lat="44.5356569" lon="5.2023184"><ele>560.0</ele><time>2026-05-01T14:07:01.367Z</time></trkpt><trkpt lat="44.5357503" lon="5.2021593"><ele>560.0</ele><time>2026-05-01T14:07:02.366Z</time></trkpt><trkpt lat="44.5358449" lon="5.2019902"><ele>560.0</ele><time>2026-05-01T14:07:03.366Z</time></trkpt><trkpt lat="44.5359442" lon="5.2018115"><ele>560.0</ele><time>2026-05-01T14:07:04.366Z</time></trkpt><trkpt lat="44.5360473" lon="5.201638"><ele>558.0</ele><time>2026-05-01T14:07:05.366Z</time></trkpt><trkpt lat="44.5361511" lon="5.2014758"><ele>556.0</ele><time>2026-05-01T14:07:06.366Z</time></trkpt><trkpt lat="44.5362537" lon="5.2013213"><ele>554.0</ele><time>2026-05-01T14:07:07.367Z</time></trkpt><trkpt lat="44.5363506" lon="5.2011691"><ele>555.25</ele><time>2026-05-01T14:07:08.366Z</time></trkpt><trkpt lat="44.5364411" lon="5.2010196"><ele>556.5</ele><time>2026-05-01T14:07:09.366Z</time></trkpt><trkpt lat="44.5365309" lon="5.2008678"><ele>557.75</ele><time>2026-05-01T14:07:10.366Z</time></trkpt><trkpt lat="44.5366254" lon="5.2006861"><ele>559.0</ele><time>2026-05-01T14:07:11.366Z</time></trkpt><trkpt lat="44.5367197" lon="5.2004805"><ele>559.0</ele><time>2026-05-01T14:07:12.367Z</time></trkpt><trkpt lat="44.5368242" lon="5.2002662"><ele>559.0</ele><time>2026-05-01T14:07:13.366Z</time></trkpt><trkpt lat="44.5369626" lon="5.2000608"><ele>559.0</ele><time>2026-05-01T14:07:14.366Z</time></trkpt><trkpt lat="44.5371215" lon="5.1998507"><ele>560.6666666666667</ele><time>2026-05-01T14:07:15.366Z</time></trkpt><trkpt lat="44.5372828" lon="5.1996312"><ele>562.3333333333334</ele><time>2026-05-01T14:07:16.366Z</time></trkpt><trkpt lat="44.537435" lon="5.1994085"><ele>564.0</ele><time>2026-05-01T14:07:17.366Z</time></trkpt><trkpt lat="44.5375794" lon="5.1991899"><ele>564.6666666666666</ele><time>2026-05-01T14:07:18.366Z</time></trkpt><trkpt lat="44.5377211" lon="5.1989918"><ele>565.3333333333333</ele><time>2026-05-01T14:07:19.366Z</time></trkpt><trkpt lat="44.537852" lon="5.1988207"><ele>566.0</ele><time>2026-05-01T14:07:20.367Z</time></trkpt><trkpt lat="44.5379753" lon="5.1986641"><ele>566.0</ele><time>2026-05-01T14:07:21.366Z</time></trkpt><trkpt lat="44.5381014" lon="5.1985141"><ele>566.0</ele><time>2026-05-01T14:07:22.366Z</time></trkpt><trkpt lat="44.5382311" lon="5.1983568"><ele>566.0</ele><time>2026-05-01T14:07:23.366Z</time></trkpt><trkpt lat="44.5383543" lon="5.1981777"><ele>560.6666666666666</ele><time>2026-05-01T14:07:24.366Z</time></trkpt><trkpt lat="44.5384681" lon="5.1979767"><ele>555.3333333333334</ele><time>2026-05-01T14:07:25.367Z</time></trkpt><trkpt lat="44.538571" lon="5.1977571"><ele>550.0</ele><time>2026-05-01T14:07:26.366Z</time></trkpt><trkpt lat="44.5386678" lon="5.197534"><ele>553.3333333333334</ele><time>2026-05-01T14:07:27.366Z</time></trkpt><trkpt lat="44.5387602" lon="5.197318"><ele>556.6666666666666</ele><time>2026-05-01T14:07:28.366Z</time></trkpt><trkpt lat="44.5388515" lon="5.1971032"><ele>560.0</ele><time>2026-05-01T14:07:29.366Z</time></trkpt><trkpt lat="44.5389396" lon="5.1968989"><ele>560.0</ele><time>2026-05-01T14:07:30.367Z</time></trkpt><trkpt lat="44.539022" lon="5.1966972"><ele>560.0</ele><time>2026-05-01T14:07:31.367Z</time></trkpt><trkpt lat="44.5390989" lon="5.1965016"><ele>560.0</ele><time>2026-05-01T14:07:32.366Z</time></trkpt><trkpt lat="44.5391635" lon="5.1963029"><ele>558.0</ele><time>2026-05-01T14:07:33.367Z</time></trkpt><trkpt lat="44.5392103" lon="5.1961007"><ele>556.0</ele><time>2026-05-01T14:07:34.366Z</time></trkpt><trkpt lat="44.539254" lon="5.1958982"><ele>554.0</ele><time>2026-05-01T14:07:35.366Z</time></trkpt><trkpt lat="44.5393178" lon="5.1957116"><ele>551.3333333333333</ele><time>2026-05-01T14:07:36.366Z</time></trkpt><trkpt lat="44.5394116" lon="5.1955498"><ele>548.6666666666666</ele><time>2026-05-01T14:07:37.366Z</time></trkpt><trkpt lat="44.5395279" lon="5.1954042"><ele>546.0</ele><time>2026-05-01T14:07:38.366Z</time></trkpt><trkpt lat="44.539656" lon="5.1952649"><ele>547.6666666666666</ele><time>2026-05-01T14:07:39.367Z</time></trkpt><trkpt lat="44.5397813" lon="5.1951351"><ele>549.3333333333333</ele><time>2026-05-01T14:07:40.366Z</time></trkpt><trkpt lat="44.5399058" lon="5.1949928"><ele>551.0</ele><time>2026-05-01T14:07:41.366Z</time></trkpt><trkpt lat="44.5400266" lon="5.1948294"><ele>551.0</ele><time>2026-05-01T14:07:42.366Z</time></trkpt><trkpt lat="44.5401297" lon="5.1946381"><ele>551.0</ele><time>2026-05-01T14:07:43.366Z</time></trkpt><trkpt lat="44.5402062" lon="5.1944309"><ele>551.0</ele><time>2026-05-01T14:07:44.367Z</time></trkpt><trkpt lat="44.5402579" lon="5.1942219"><ele>551.0</ele><time>2026-05-01T14:07:45.366Z</time></trkpt><trkpt lat="44.5402896" lon="5.1940228"><ele>551.0</ele><time>2026-05-01T14:07:46.367Z</time></trkpt><trkpt lat="44.5403132" lon="5.1938364"><ele>551.0</ele><time>2026-05-01T14:07:47.366Z</time></trkpt><trkpt lat="44.5403417" lon="5.1936633"><ele>551.0</ele><time>2026-05-01T14:07:48.366Z</time></trkpt><trkpt lat="44.5403902" lon="5.1935047"><ele>552.5</ele><time>2026-05-01T14:07:49.367Z</time></trkpt><trkpt lat="44.5404639" lon="5.1933434"><ele>554.0</ele><time>2026-05-01T14:07:50.366Z</time></trkpt><trkpt lat="44.5405559" lon="5.1931891"><ele>555.5</ele><time>2026-05-01T14:07:51.366Z</time></trkpt><trkpt lat="44.5406473" lon="5.1930454"><ele>557.0</ele><time>2026-05-01T14:07:52.366Z</time></trkpt><trkpt lat="44.5407312" lon="5.1929099"><ele>557.0</ele><time>2026-05-01T14:07:53.366Z</time></trkpt><trkpt lat="44.5408048" lon="5.1927702"><ele>557.0</ele><time>2026-05-01T14:07:54.366Z</time></trkpt><trkpt lat="44.540864" lon="5.1926274"><ele>557.0</ele><time>2026-05-01T14:07:55.366Z</time></trkpt><trkpt lat="44.5409089" lon="5.1924832"><ele>557.0</ele><time>2026-05-01T14:07:56.366Z</time></trkpt><trkpt lat="44.5409552" lon="5.1923343"><ele>557.75</ele><time>2026-05-01T14:07:57.366Z</time></trkpt><trkpt lat="44.5410044" lon="5.1921865"><ele>558.5</ele><time>2026-05-01T14:07:58.366Z</time></trkpt><trkpt lat="44.5410721" lon="5.1920331"><ele>559.25</ele><time>2026-05-01T14:07:59.366Z</time></trkpt><trkpt lat="44.5411677" lon="5.1919022"><ele>560.0</ele><time>2026-05-01T14:08:00.367Z</time></trkpt><trkpt lat="44.5412839" lon="5.1917796"><ele>560.0</ele><time>2026-05-01T14:08:01.367Z</time></trkpt><trkpt lat="44.541411" lon="5.191661"><ele>560.0</ele><time>2026-05-01T14:08:02.366Z</time></trkpt><trkpt lat="44.5415409" lon="5.1915428"><ele>560.0</ele><time>2026-05-01T14:08:03.366Z</time></trkpt><trkpt lat="44.541671" lon="5.1914331"><ele>559.25</ele><time>2026-05-01T14:08:04.366Z</time></trkpt><trkpt lat="44.541804" lon="5.1913335"><ele>558.5</ele><time>2026-05-01T14:08:05.366Z</time></trkpt><trkpt lat="44.5419415" lon="5.1912447"><ele>557.75</ele><time>2026-05-01T14:08:06.366Z</time></trkpt><trkpt lat="44.5420778" lon="5.1911783"><ele>557.0</ele><time>2026-05-01T14:08:07.366Z</time></trkpt><trkpt lat="44.5422137" lon="5.1911219"><ele>557.0</ele><time>2026-05-01T14:08:08.366Z</time></trkpt><trkpt lat="44.542346" lon="5.191033"><ele>557.0</ele><time>2026-05-01T14:08:09.366Z</time></trkpt><trkpt lat="44.5424967" lon="5.1908984"><ele>557.0</ele><time>2026-05-01T14:08:10.366Z</time></trkpt><trkpt lat="44.5426665" lon="5.1907385"><ele>553.5</ele><time>2026-05-01T14:08:11.366Z</time></trkpt><trkpt lat="44.5428572" lon="5.190572"><ele>550.0</ele><time>2026-05-01T14:08:12.367Z</time></trkpt><trkpt lat="44.5430544" lon="5.1903995"><ele>550.0</ele><time>2026-05-01T14:08:13.366Z</time></trkpt><trkpt lat="44.5432393" lon="5.1902038"><ele>550.0</ele><time>2026-05-01T14:08:14.366Z</time></trkpt><trkpt lat="44.5434125" lon="5.18998"><ele>542.5</ele><time>2026-05-01T14:08:15.366Z</time></trkpt><trkpt lat="44.5435684" lon="5.1897328"><ele>535.0</ele><time>2026-05-01T14:08:16.366Z</time></trkpt><trkpt lat="44.5437078" lon="5.1894876"><ele>535.3333333333334</ele><time>2026-05-01T14:08:17.366Z</time></trkpt><trkpt lat="44.5438425" lon="5.1892543"><ele>535.6666666666666</ele><time>2026-05-01T14:08:18.366Z</time></trkpt><trkpt lat="44.5439748" lon="5.1890527"><ele>536.0</ele><time>2026-05-01T14:08:19.367Z</time></trkpt><trkpt lat="44.5441095" lon="5.1888816"><ele>536.0</ele><time>2026-05-01T14:08:20.367Z</time></trkpt><trkpt lat="44.5442549" lon="5.1887428"><ele>536.0</ele><time>2026-05-01T14:08:21.366Z</time></trkpt><trkpt lat="44.5444006" lon="5.1886414"><ele>536.0</ele><time>2026-05-01T14:08:22.366Z</time></trkpt><trkpt lat="44.5445487" lon="5.1885746"><ele>539.3333333333333</ele><time>2026-05-01T14:08:23.366Z</time></trkpt><trkpt lat="44.5447076" lon="5.1885526"><ele>542.6666666666666</ele><time>2026-05-01T14:08:24.366Z</time></trkpt><trkpt lat="44.5448796" lon="5.1885539"><ele>546.0</ele><time>2026-05-01T14:08:25.366Z</time></trkpt><trkpt lat="44.5450526" lon="5.1885538"><ele>546.0</ele><time>2026-05-01T14:08:26.366Z</time></trkpt><trkpt lat="44.5452207" lon="5.1885431"><ele>546.0</ele><time>2026-05-01T14:08:27.367Z</time></trkpt><trkpt lat="44.5453874" lon="5.1885219"><ele>546.0</ele><time>2026-05-01T14:08:28.366Z</time></trkpt><trkpt lat="44.54555" lon="5.1884822"><ele>549.3333333333334</ele><time>2026-05-01T14:08:29.367Z</time></trkpt><trkpt lat="44.5457032" lon="5.1884194"><ele>552.6666666666667</ele><time>2026-05-01T14:08:30.366Z</time></trkpt><trkpt lat="44.5458362" lon="5.1883228"><ele>556.0</ele><time>2026-05-01T14:08:31.367Z</time></trkpt><trkpt lat="44.5459589" lon="5.188187"><ele>550.6666666666667</ele><time>2026-05-01T14:08:32.366Z</time></trkpt><trkpt lat="44.546081" lon="5.1880242"><ele>545.3333333333334</ele><time>2026-05-01T14:08:33.366Z</time></trkpt><trkpt lat="44.5461999" lon="5.1878624"><ele>540.0</ele><time>2026-05-01T14:08:34.366Z</time></trkpt><trkpt lat="44.546313" lon="5.1877169"><ele>540.0</ele><time>2026-05-01T14:08:35.366Z</time></trkpt><trkpt lat="44.5464329" lon="5.1875958"><ele>540.0</ele><time>2026-05-01T14:08:36.367Z</time></trkpt><trkpt lat="44.5465557" lon="5.1875032"><ele>540.0</ele><time>2026-05-01T14:08:37.366Z</time></trkpt><trkpt lat="44.5466881" lon="5.1874379"><ele>540.0</ele><time>2026-05-01T14:08:38.366Z</time></trkpt><trkpt lat="44.5468306" lon="5.1873915"><ele>540.0</ele><time>2026-05-01T14:08:39.366Z</time></trkpt><trkpt lat="44.5469781" lon="5.1873591"><ele>540.0</ele><time>2026-05-01T14:08:40.366Z</time></trkpt><trkpt lat="44.5471279" lon="5.1873292"><ele>540.0</ele><time>2026-05-01T14:08:41.366Z</time></trkpt><trkpt lat="44.5472745" lon="5.1873096"><ele>540.0</ele><time>2026-05-01T14:08:42.367Z</time></trkpt><trkpt lat="44.5474179" lon="5.1872973"><ele>541.0</ele><time>2026-05-01T14:08:43.367Z</time></trkpt><trkpt lat="44.5475611" lon="5.1873095"><ele>542.0</ele><time>2026-05-01T14:08:44.366Z</time></trkpt><trkpt lat="44.5476944" lon="5.1873447"><ele>543.0</ele><time>2026-05-01T14:08:45.366Z</time></trkpt><trkpt lat="44.5478178" lon="5.1873877"><ele>544.0</ele><time>2026-05-01T14:08:46.366Z</time></trkpt><trkpt lat="44.5479355" lon="5.1873946"><ele>545.0</ele><time>2026-05-01T14:08:47.366Z</time></trkpt><trkpt lat="44.5480458" lon="5.1873627"><ele>546.0</ele><time>2026-05-01T14:08:48.366Z</time></trkpt><trkpt lat="44.5481492" lon="5.1872842"><ele>547.0</ele><time>2026-05-01T14:08:49.366Z</time></trkpt><trkpt lat="44.5482481" lon="5.1871703"><ele>548.0</ele><time>2026-05-01T14:08:50.366Z</time></trkpt><trkpt lat="44.5483489" lon="5.1870397"><ele>546.3333333333333</ele><time>2026-05-01T14:08:51.366Z</time></trkpt><trkpt lat="44.5484622" lon="5.186911"><ele>544.6666666666666</ele><time>2026-05-01T14:08:52.366Z</time></trkpt><trkpt lat="44.5485887" lon="5.1867854"><ele>543.0</ele><time>2026-05-01T14:08:53.366Z</time></trkpt><trkpt lat="44.5487286" lon="5.1866654"><ele>543.0</ele><time>2026-05-01T14:08:54.366Z</time></trkpt><trkpt lat="44.5488827" lon="5.1865628"><ele>543.0</ele><time>2026-05-01T14:08:55.366Z</time></trkpt><trkpt lat="44.5490423" lon="5.186457"><ele>543.0</ele><time>2026-05-01T14:08:56.366Z</time></trkpt><trkpt lat="44.5491989" lon="5.1863404"><ele>543.0</ele><time>2026-05-01T14:08:57.366Z</time></trkpt><trkpt lat="44.5493499" lon="5.1862253"><ele>543.0</ele><time>2026-05-01T14:08:58.366Z</time></trkpt><trkpt lat="44.5494971" lon="5.1861213"><ele>543.0</ele><time>2026-05-01T14:08:59.366Z</time></trkpt><trkpt lat="44.5496308" lon="5.1860238"><ele>543.0</ele><time>2026-05-01T14:09:00.366Z</time></trkpt><trkpt lat="44.5497409" lon="5.1859128"><ele>543.0</ele><time>2026-05-01T14:09:01.366Z</time></trkpt><trkpt lat="44.5498311" lon="5.1857823"><ele>543.0</ele><time>2026-05-01T14:09:02.366Z</time></trkpt><trkpt lat="44.5499049" lon="5.1856326"><ele>543.0</ele><time>2026-05-01T14:09:03.367Z</time></trkpt><trkpt lat="44.5499686" lon="5.1854691"><ele>537.75</ele><time>2026-05-01T14:09:04.366Z</time></trkpt><trkpt lat="44.5500381" lon="5.1853053"><ele>532.5</ele><time>2026-05-01T14:09:05.366Z</time></trkpt><trkpt lat="44.5501193" lon="5.1851383"><ele>527.25</ele><time>2026-05-01T14:09:06.366Z</time></trkpt><trkpt lat="44.5502221" lon="5.1849842"><ele>522.0</ele><time>2026-05-01T14:09:07.366Z</time></trkpt><trkpt lat="44.5503456" lon="5.1848267"><ele>524.0</ele><time>2026-05-01T14:09:08.366Z</time></trkpt><trkpt lat="44.5504672" lon="5.1846538"><ele>526.0</ele><time>2026-05-01T14:09:09.366Z</time></trkpt><trkpt lat="44.5505783" lon="5.1844718"><ele>528.0</ele><time>2026-05-01T14:09:10.366Z</time></trkpt><trkpt lat="44.5506839" lon="5.1842907"><ele>528.0</ele><time>2026-05-01T14:09:11.367Z</time></trkpt><trkpt lat="44.5507807" lon="5.1841184"><ele>528.0</ele><time>2026-05-01T14:09:12.366Z</time></trkpt><trkpt lat="44.550868" lon="5.1839538"><ele>528.0</ele><time>2026-05-01T14:09:13.366Z</time></trkpt><trkpt lat="44.5509482" lon="5.1837977"><ele>528.0</ele><time>2026-05-01T14:09:14.366Z</time></trkpt><trkpt lat="44.5510205" lon="5.1836514"><ele>526.25</ele><time>2026-05-01T14:09:15.366Z</time></trkpt><trkpt lat="44.5510765" lon="5.1835085"><ele>524.5</ele><time>2026-05-01T14:09:16.367Z</time></trkpt><trkpt lat="44.5511104" lon="5.1833607"><ele>522.75</ele><time>2026-05-01T14:09:17.366Z</time></trkpt><trkpt lat="44.5511134" lon="5.1832"><ele>521.0</ele><time>2026-05-01T14:09:18.366Z</time></trkpt><trkpt lat="44.5510955" lon="5.1830183"><ele>521.0</ele><time>2026-05-01T14:09:19.366Z</time></trkpt><trkpt lat="44.5510618" lon="5.1828297"><ele>521.0</ele><time>2026-05-01T14:09:20.366Z</time></trkpt><trkpt lat="44.5510099" lon="5.1826526"><ele>521.0</ele><time>2026-05-01T14:09:21.367Z</time></trkpt><trkpt lat="44.5509373" lon="5.182497"><ele>521.0</ele><time>2026-05-01T14:09:22.366Z</time></trkpt><trkpt lat="44.5508531" lon="5.1823585"><ele>524.75</ele><time>2026-05-01T14:09:23.366Z</time></trkpt><trkpt lat="44.5507651" lon="5.1822249"><ele>528.5</ele><time>2026-05-01T14:09:24.366Z</time></trkpt><trkpt lat="44.550687" lon="5.1821016"><ele>532.25</ele><time>2026-05-01T14:09:25.366Z</time></trkpt><trkpt lat="44.5506282" lon="5.1819726"><ele>536.0</ele><time>2026-05-01T14:09:26.366Z</time></trkpt><trkpt lat="44.5505961" lon="5.1818263"><ele>536.0</ele><time>2026-05-01T14:09:27.366Z</time></trkpt><trkpt lat="44.5505932" lon="5.1816482"><ele>536.0</ele><time>2026-05-01T14:09:28.366Z</time></trkpt><trkpt lat="44.5506236" lon="5.1814556"><ele>536.0</ele><time>2026-05-01T14:09:29.366Z</time></trkpt><trkpt lat="44.5506659" lon="5.1812646"><ele>536.0</ele><time>2026-05-01T14:09:30.366Z</time></trkpt><trkpt lat="44.5507062" lon="5.1810389"><ele>533.0</ele><time>2026-05-01T14:09:31.366Z</time></trkpt><trkpt lat="44.5507348" lon="5.1807626"><ele>530.0</ele><time>2026-05-01T14:09:32.366Z</time></trkpt><trkpt lat="44.5507811" lon="5.1804466"><ele>527.0</ele><time>2026-05-01T14:09:33.366Z</time></trkpt><trkpt lat="44.5508378" lon="5.1801236"><ele>523.0</ele><time>2026-05-01T14:09:34.366Z</time></trkpt><trkpt lat="44.5508944" lon="5.1798207"><ele>519.0</ele><time>2026-05-01T14:09:35.366Z</time></trkpt><trkpt lat="44.5509677" lon="5.1795265"><ele>515.0</ele><time>2026-05-01T14:09:36.366Z</time></trkpt><trkpt lat="44.5510611" lon="5.1792577"><ele>515.0</ele><time>2026-05-01T14:09:37.366Z</time></trkpt><trkpt lat="44.551162" lon="5.1790266"><ele>515.0</ele><time>2026-05-01T14:09:38.366Z</time></trkpt><trkpt lat="44.5512407" lon="5.1787995"><ele>515.0</ele><time>2026-05-01T14:09:39.366Z</time></trkpt><trkpt lat="44.5512884" lon="5.1785605"><ele>514.6666666666666</ele><time>2026-05-01T14:09:40.366Z</time></trkpt><trkpt lat="44.551309" lon="5.178303"><ele>514.3333333333334</ele><time>2026-05-01T14:09:41.366Z</time></trkpt><trkpt lat="44.5513504" lon="5.1780463"><ele>514.0</ele><time>2026-05-01T14:09:42.367Z</time></trkpt><trkpt lat="44.5514271" lon="5.177787"><ele>514.0</ele><time>2026-05-01T14:09:43.366Z</time></trkpt><trkpt lat="44.551497" lon="5.1775199"><ele>514.0</ele><time>2026-05-01T14:09:44.367Z</time></trkpt><trkpt lat="44.5515447" lon="5.1772555"><ele>514.0</ele><time>2026-05-01T14:09:45.366Z</time></trkpt><trkpt lat="44.5516112" lon="5.1770134"><ele>510.0</ele><time>2026-05-01T14:09:46.366Z</time></trkpt><trkpt lat="44.5516746" lon="5.1767643"><ele>506.0</ele><time>2026-05-01T14:09:47.366Z</time></trkpt><trkpt lat="44.5518077" lon="5.1765242"><ele>502.0</ele><time>2026-05-01T14:09:48.366Z</time></trkpt><trkpt lat="44.5519235" lon="5.1762809"><ele>502.0</ele><time>2026-05-01T14:09:49.366Z</time></trkpt><trkpt lat="44.5520493" lon="5.1760191"><ele>502.0</ele><time>2026-05-01T14:09:50.367Z</time></trkpt><trkpt lat="44.5521726" lon="5.1757491"><ele>498.6666666666667</ele><time>2026-05-01T14:09:51.367Z</time></trkpt><trkpt lat="44.552288" lon="5.1754851"><ele>495.33333333333337</ele><time>2026-05-01T14:09:52.367Z</time></trkpt><trkpt lat="44.552403" lon="5.1752379"><ele>492.0</ele><time>2026-05-01T14:09:53.366Z</time></trkpt><trkpt lat="44.5525341" lon="5.1749921"><ele>488.5</ele><time>2026-05-01T14:09:54.366Z</time></trkpt><trkpt lat="44.5526843" lon="5.1747523"><ele>485.0</ele><time>2026-05-01T14:09:55.366Z</time></trkpt><trkpt lat="44.5528405" lon="5.174512"><ele>485.0</ele><time>2026-05-01T14:09:56.366Z</time></trkpt><trkpt lat="44.5529899" lon="5.1742855"><ele>485.0</ele><time>2026-05-01T14:09:57.366Z</time></trkpt><trkpt lat="44.5531316" lon="5.1740619"><ele>485.0</ele><time>2026-05-01T14:09:58.366Z</time></trkpt><trkpt lat="44.5532682" lon="5.1738486"><ele>485.0</ele><time>2026-05-01T14:09:59.367Z</time></trkpt><trkpt lat="44.5534009" lon="5.1736432"><ele>485.0</ele><time>2026-05-01T14:10:00.366Z</time></trkpt><trkpt lat="44.5535259" lon="5.1734408"><ele>485.0</ele><time>2026-05-01T14:10:01.366Z</time></trkpt><trkpt lat="44.553648" lon="5.1732479"><ele>485.3333333333333</ele><time>2026-05-01T14:10:02.366Z</time></trkpt><trkpt lat="44.5537701" lon="5.1730616"><ele>485.66666666666663</ele><time>2026-05-01T14:10:03.366Z</time></trkpt><trkpt lat="44.5538942" lon="5.1728712"><ele>486.0</ele><time>2026-05-01T14:10:04.367Z</time></trkpt><trkpt lat="44.5540176" lon="5.1726736"><ele>486.0</ele><time>2026-05-01T14:10:05.366Z</time></trkpt><trkpt lat="44.5541359" lon="5.1724877"><ele>486.0</ele><time>2026-05-01T14:10:06.366Z</time></trkpt><trkpt lat="44.5542429" lon="5.1723176"><ele>486.0</ele><time>2026-05-01T14:10:07.366Z</time></trkpt><trkpt lat="44.5543348" lon="5.1721501"><ele>484.33333333333337</ele><time>2026-05-01T14:10:08.366Z</time></trkpt><trkpt lat="44.5544091" lon="5.1719773"><ele>482.6666666666667</ele><time>2026-05-01T14:10:09.366Z</time></trkpt><trkpt lat="44.5544747" lon="5.17178"><ele>481.0</ele><time>2026-05-01T14:10:10.366Z</time></trkpt><trkpt lat="44.5545364" lon="5.1715598"><ele>480.6666666666667</ele><time>2026-05-01T14:10:11.367Z</time></trkpt><trkpt lat="44.5545982" lon="5.1713223"><ele>480.33333333333337</ele><time>2026-05-01T14:10:12.366Z</time></trkpt><trkpt lat="44.5546661" lon="5.1710564"><ele>480.0</ele><time>2026-05-01T14:10:13.366Z</time></trkpt><trkpt lat="44.5547482" lon="5.1707493"><ele>480.0</ele><time>2026-05-01T14:10:14.366Z</time></trkpt><trkpt lat="44.5548468" lon="5.1704302"><ele>480.0</ele><time>2026-05-01T14:10:15.366Z</time></trkpt><trkpt lat="44.5549453" lon="5.1701037"><ele>478.5</ele><time>2026-05-01T14:10:16.366Z</time></trkpt><trkpt lat="44.5550472" lon="5.169756"><ele>477.0</ele><time>2026-05-01T14:10:17.367Z</time></trkpt><trkpt lat="44.5551471" lon="5.1694085"><ele>477.0</ele><time>2026-05-01T14:10:18.366Z</time></trkpt><trkpt lat="44.5552394" lon="5.1690751"><ele>477.0</ele><time>2026-05-01T14:10:19.366Z</time></trkpt><trkpt lat="44.5553291" lon="5.1687561"><ele>483.0</ele><time>2026-05-01T14:10:20.366Z</time></trkpt><trkpt lat="44.5554144" lon="5.16845"><ele>489.0</ele><time>2026-05-01T14:10:21.366Z</time></trkpt><trkpt lat="44.555482" lon="5.1681513"><ele>489.0</ele><time>2026-05-01T14:10:22.367Z</time></trkpt><trkpt lat="44.5555257" lon="5.1678465"><ele>489.0</ele><time>2026-05-01T14:10:23.366Z</time></trkpt><trkpt lat="44.5555502" lon="5.1675354"><ele>489.0</ele><time>2026-05-01T14:10:24.366Z</time></trkpt><trkpt lat="44.5555684" lon="5.1672319"><ele>486.66666666666663</ele><time>2026-05-01T14:10:25.367Z</time></trkpt><trkpt lat="44.5555993" lon="5.166948"><ele>484.3333333333333</ele><time>2026-05-01T14:10:26.366Z</time></trkpt><trkpt lat="44.5556526" lon="5.1666902"><ele>482.0</ele><time>2026-05-01T14:10:27.366Z</time></trkpt><trkpt lat="44.5557216" lon="5.1664708"><ele>479.66666666666663</ele><time>2026-05-01T14:10:28.367Z</time></trkpt><trkpt lat="44.5558185" lon="5.166286"><ele>477.33333333333337</ele><time>2026-05-01T14:10:29.366Z</time></trkpt><trkpt lat="44.5559477" lon="5.1661375"><ele>475.0</ele><time>2026-05-01T14:10:30.366Z</time></trkpt><trkpt lat="44.5561049" lon="5.1660079"><ele>477.6666666666667</ele><time>2026-05-01T14:10:31.366Z</time></trkpt><trkpt lat="44.5562821" lon="5.1658709"><ele>480.33333333333337</ele><time>2026-05-01T14:10:32.366Z</time></trkpt><trkpt lat="44.5564701" lon="5.1657179"><ele>483.0</ele><time>2026-05-01T14:10:33.366Z</time></trkpt><trkpt lat="44.5566708" lon="5.165551"><ele>480.5</ele><time>2026-05-01T14:10:34.366Z</time></trkpt><trkpt lat="44.556874" lon="5.1653751"><ele>478.0</ele><time>2026-05-01T14:10:35.367Z</time></trkpt><trkpt lat="44.5570663" lon="5.1651821"><ele>478.0</ele><time>2026-05-01T14:10:36.366Z</time></trkpt><trkpt lat="44.5572422" lon="5.1649662"><ele>478.0</ele><time>2026-05-01T14:10:37.366Z</time></trkpt><trkpt lat="44.5574044" lon="5.1647412"><ele>475.6666666666667</ele><time>2026-05-01T14:10:38.367Z</time></trkpt><trkpt lat="44.5575634" lon="5.1645304"><ele>473.33333333333337</ele><time>2026-05-01T14:10:39.366Z</time></trkpt><trkpt lat="44.5577258" lon="5.1643399"><ele>471.0</ele><time>2026-05-01T14:10:40.367Z</time></trkpt><trkpt lat="44.5578979" lon="5.1641722"><ele>468.33333333333337</ele><time>2026-05-01T14:10:41.366Z</time></trkpt><trkpt lat="44.5580806" lon="5.1640233"><ele>465.6666666666667</ele><time>2026-05-01T14:10:42.366Z</time></trkpt><trkpt lat="44.5582733" lon="5.1638831"><ele>463.0</ele><time>2026-05-01T14:10:43.366Z</time></trkpt><trkpt lat="44.5584742" lon="5.1637431"><ele>463.0</ele><time>2026-05-01T14:10:44.366Z</time></trkpt><trkpt lat="44.5586831" lon="5.1635982"><ele>463.0</ele><time>2026-05-01T14:10:45.366Z</time></trkpt><trkpt lat="44.5589019" lon="5.1634494"><ele>463.5</ele><time>2026-05-01T14:10:46.367Z</time></trkpt><trkpt lat="44.5591287" lon="5.1633011"><ele>464.0</ele><time>2026-05-01T14:10:47.366Z</time></trkpt><trkpt lat="44.5593634" lon="5.163158"><ele>462.0</ele><time>2026-05-01T14:10:48.366Z</time></trkpt><trkpt lat="44.5596022" lon="5.163014"><ele>460.0</ele><time>2026-05-01T14:10:49.366Z</time></trkpt><trkpt lat="44.5598401" lon="5.1628738"><ele>460.0</ele><time>2026-05-01T14:10:50.366Z</time></trkpt><trkpt lat="44.5600758" lon="5.1627401"><ele>460.0</ele><time>2026-05-01T14:10:51.366Z</time></trkpt><trkpt lat="44.5603051" lon="5.1626117"><ele>459.5</ele><time>2026-05-01T14:10:52.366Z</time></trkpt><trkpt lat="44.5605266" lon="5.1624865"><ele>459.0</ele><time>2026-05-01T14:10:53.367Z</time></trkpt><trkpt lat="44.560741" lon="5.1623556"><ele>459.0</ele><time>2026-05-01T14:10:54.367Z</time></trkpt><trkpt lat="44.5609445" lon="5.1622059"><ele>459.0</ele><time>2026-05-01T14:10:55.366Z</time></trkpt><trkpt lat="44.5611333" lon="5.1620238"><ele>459.5</ele><time>2026-05-01T14:10:56.366Z</time></trkpt><trkpt lat="44.5613135" lon="5.1618083"><ele>460.0</ele><time>2026-05-01T14:10:57.366Z</time></trkpt><trkpt lat="44.5614962" lon="5.1615784"><ele>458.0</ele><time>2026-05-01T14:10:58.366Z</time></trkpt><trkpt lat="44.5616858" lon="5.1613479"><ele>456.0</ele><time>2026-05-01T14:10:59.366Z</time></trkpt><trkpt lat="44.5618785" lon="5.1611184"><ele>455.5</ele><time>2026-05-01T14:11:00.366Z</time></trkpt><trkpt lat="44.5620637" lon="5.1608723"><ele>455.0</ele><time>2026-05-01T14:11:01.367Z</time></trkpt><trkpt lat="44.5622367" lon="5.1606095"><ele>455.0</ele><time>2026-05-01T14:11:02.366Z</time></trkpt><trkpt lat="44.5623964" lon="5.1603461"><ele>455.0</ele><time>2026-05-01T14:11:03.366Z</time></trkpt><trkpt lat="44.5625469" lon="5.160102"><ele>455.0</ele><time>2026-05-01T14:11:04.366Z</time></trkpt><trkpt lat="44.5626949" lon="5.1598894"><ele>455.0</ele><time>2026-05-01T14:11:05.366Z</time></trkpt><trkpt lat="44.5628461" lon="5.1597081"><ele>455.0</ele><time>2026-05-01T14:11:06.366Z</time></trkpt><trkpt lat="44.5630008" lon="5.159578"><ele>454.3333333333333</ele><time>2026-05-01T14:11:07.366Z</time></trkpt><trkpt lat="44.5631701" lon="5.1595059"><ele>453.66666666666663</ele><time>2026-05-01T14:11:08.366Z</time></trkpt><trkpt lat="44.563355" lon="5.1594829"><ele>453.0</ele><time>2026-05-01T14:11:09.368Z</time></trkpt><trkpt lat="44.5635334" lon="5.1595038"><ele>453.0</ele><time>2026-05-01T14:11:10.366Z</time></trkpt><trkpt lat="44.5636804" lon="5.1595526"><ele>453.0</ele><time>2026-05-01T14:11:11.366Z</time></trkpt><trkpt lat="44.5638117" lon="5.1596565"><ele>453.0</ele><time>2026-05-01T14:11:12.367Z</time></trkpt><trkpt lat="44.5639284" lon="5.1598235"><ele>453.33333333333337</ele><time>2026-05-01T14:11:13.366Z</time></trkpt><trkpt lat="44.5640322" lon="5.1600355"><ele>453.6666666666667</ele><time>2026-05-01T14:11:14.366Z</time></trkpt><trkpt lat="44.5641351" lon="5.1602669"><ele>454.0</ele><time>2026-05-01T14:11:15.366Z</time></trkpt><trkpt lat="44.5642303" lon="5.1604982"><ele>451.33333333333337</ele><time>2026-05-01T14:11:16.366Z</time></trkpt><trkpt lat="44.5643231" lon="5.1607214"><ele>448.66666666666663</ele><time>2026-05-01T14:11:17.366Z</time></trkpt><trkpt lat="44.5644289" lon="5.1609261"><ele>446.0</ele><time>2026-05-01T14:11:18.367Z</time></trkpt><trkpt lat="44.5645505" lon="5.1611021"><ele>446.0</ele><time>2026-05-01T14:11:19.366Z</time></trkpt><trkpt lat="44.5646822" lon="5.1612536"><ele>446.0</ele><time>2026-05-01T14:11:20.366Z</time></trkpt><trkpt lat="44.564824" lon="5.1613852"><ele>446.0</ele><time>2026-05-01T14:11:21.366Z</time></trkpt><trkpt lat="44.5649678" lon="5.1614931"><ele>447.3333333333333</ele><time>2026-05-01T14:11:22.366Z</time></trkpt><trkpt lat="44.5651126" lon="5.1615982"><ele>448.66666666666663</ele><time>2026-05-01T14:11:23.366Z</time></trkpt><trkpt lat="44.5652718" lon="5.1616953"><ele>450.0</ele><time>2026-05-01T14:11:24.366Z</time></trkpt><trkpt lat="44.5654476" lon="5.1617725"><ele>450.0</ele><time>2026-05-01T14:11:25.366Z</time></trkpt><trkpt lat="44.5656275" lon="5.1618026"><ele>450.0</ele><time>2026-05-01T14:11:26.367Z</time></trkpt><trkpt lat="44.5658057" lon="5.161779"><ele>450.0</ele><time>2026-05-01T14:11:27.366Z</time></trkpt><trkpt lat="44.5659914" lon="5.1617055"><ele>450.0</ele><time>2026-05-01T14:11:28.366Z</time></trkpt><trkpt lat="44.5661886" lon="5.1615951"><ele>450.0</ele><time>2026-05-01T14:11:29.366Z</time></trkpt><trkpt lat="44.566398" lon="5.1614734"><ele>450.0</ele><time>2026-05-01T14:11:30.366Z</time></trkpt><trkpt lat="44.5666158" lon="5.1613481"><ele>448.0</ele><time>2026-05-01T14:11:31.366Z</time></trkpt><trkpt lat="44.5668387" lon="5.1612134"><ele>446.0</ele><time>2026-05-01T14:11:32.366Z</time></trkpt><trkpt lat="44.5670503" lon="5.1610788"><ele>445.3333333333333</ele><time>2026-05-01T14:11:33.367Z</time></trkpt><trkpt lat="44.567245" lon="5.1609619"><ele>444.66666666666663</ele><time>2026-05-01T14:11:34.367Z</time></trkpt><trkpt lat="44.5674268" lon="5.1608715"><ele>444.0</ele><time>2026-05-01T14:11:35.366Z</time></trkpt><trkpt lat="44.5676026" lon="5.1608315"><ele>444.0</ele><time>2026-05-01T14:11:36.366Z</time></trkpt><trkpt lat="44.5677781" lon="5.1608276"><ele>444.0</ele><time>2026-05-01T14:11:37.367Z</time></trkpt><trkpt lat="44.5679538" lon="5.1608598"><ele>444.0</ele><time>2026-05-01T14:11:38.367Z</time></trkpt><trkpt lat="44.5681379" lon="5.1609126"><ele>443.0</ele><time>2026-05-01T14:11:39.366Z</time></trkpt><trkpt lat="44.5683303" lon="5.1609708"><ele>442.0</ele><time>2026-05-01T14:11:40.366Z</time></trkpt><trkpt lat="44.5685328" lon="5.1610289"><ele>441.0</ele><time>2026-05-01T14:11:41.366Z</time></trkpt><trkpt lat="44.5687442" lon="5.1610907"><ele>440.0</ele><time>2026-05-01T14:11:42.367Z</time></trkpt><trkpt lat="44.5689635" lon="5.1611567"><ele>439.0</ele><time>2026-05-01T14:11:43.366Z</time></trkpt><trkpt lat="44.5691796" lon="5.1612229"><ele>438.0</ele><time>2026-05-01T14:11:44.366Z</time></trkpt><trkpt lat="44.569384" lon="5.1612885"><ele>438.33333333333337</ele><time>2026-05-01T14:11:45.366Z</time></trkpt><trkpt lat="44.5695811" lon="5.1613456"><ele>438.6666666666667</ele><time>2026-05-01T14:11:46.367Z</time></trkpt><trkpt lat="44.5697652" lon="5.1613616"><ele>439.0</ele><time>2026-05-01T14:11:47.366Z</time></trkpt><trkpt lat="44.569942" lon="5.1613311"><ele>439.0</ele><time>2026-05-01T14:11:48.366Z</time></trkpt><trkpt lat="44.5701152" lon="5.1612557"><ele>439.0</ele><time>2026-05-01T14:11:49.366Z</time></trkpt><trkpt lat="44.570291" lon="5.161142"><ele>439.0</ele><time>2026-05-01T14:11:50.366Z</time></trkpt><trkpt lat="44.5704712" lon="5.161006"><ele>439.6666666666667</ele><time>2026-05-01T14:11:51.367Z</time></trkpt><trkpt lat="44.5706589" lon="5.1608676"><ele>440.33333333333337</ele><time>2026-05-01T14:11:52.367Z</time></trkpt><trkpt lat="44.5708485" lon="5.1607224"><ele>441.0</ele><time>2026-05-01T14:11:53.366Z</time></trkpt><trkpt lat="44.5710282" lon="5.1605801"><ele>442.33333333333337</ele><time>2026-05-01T14:11:54.366Z</time></trkpt><trkpt lat="44.5711994" lon="5.1604463"><ele>443.6666666666667</ele><time>2026-05-01T14:11:55.366Z</time></trkpt><trkpt lat="44.5713563" lon="5.1603298"><ele>445.0</ele><time>2026-05-01T14:11:56.366Z</time></trkpt><trkpt lat="44.5714845" lon="5.1602042"><ele>445.0</ele><time>2026-05-01T14:11:57.367Z</time></trkpt><trkpt lat="44.5715863" lon="5.1600478"><ele>445.0</ele><time>2026-05-01T14:11:58.367Z</time></trkpt><trkpt lat="44.5716534" lon="5.1598764"><ele>445.0</ele><time>2026-05-01T14:11:59.367Z</time></trkpt><trkpt lat="44.5716888" lon="5.1596795"><ele>445.0</ele><time>2026-05-01T14:12:00.366Z</time></trkpt><trkpt lat="44.5717146" lon="5.1594602"><ele>445.0</ele><time>2026-05-01T14:12:01.367Z</time></trkpt><trkpt lat="44.571742" lon="5.1592087"><ele>445.0</ele><time>2026-05-01T14:12:02.366Z</time></trkpt><trkpt lat="44.5717764" lon="5.1589449"><ele>445.0</ele><time>2026-05-01T14:12:03.366Z</time></trkpt><trkpt lat="44.5717906" lon="5.1586732"><ele>443.6666666666667</ele><time>2026-05-01T14:12:04.366Z</time></trkpt><trkpt lat="44.5717633" lon="5.1583893"><ele>442.33333333333337</ele><time>2026-05-01T14:12:05.366Z</time></trkpt><trkpt lat="44.5717163" lon="5.1581069"><ele>441.0</ele><time>2026-05-01T14:12:06.366Z</time></trkpt><trkpt lat="44.571649" lon="5.1578153"><ele>440.66666666666663</ele><time>2026-05-01T14:12:07.366Z</time></trkpt><trkpt lat="44.5715908" lon="5.1575199"><ele>440.3333333333333</ele><time>2026-05-01T14:12:08.366Z</time></trkpt><trkpt lat="44.5715548" lon="5.1572316"><ele>440.0</ele><time>2026-05-01T14:12:09.366Z</time></trkpt><trkpt lat="44.5715408" lon="5.1569456"><ele>438.66666666666663</ele><time>2026-05-01T14:12:10.366Z</time></trkpt><trkpt lat="44.5715363" lon="5.156667"><ele>437.33333333333337</ele><time>2026-05-01T14:12:11.366Z</time></trkpt><trkpt lat="44.5715378" lon="5.1563991"><ele>436.0</ele><time>2026-05-01T14:12:12.366Z</time></trkpt><trkpt lat="44.5715576" lon="5.1561458"><ele>435.33333333333337</ele><time>2026-05-01T14:12:13.367Z</time></trkpt><trkpt lat="44.5716012" lon="5.1559051"><ele>434.66666666666663</ele><time>2026-05-01T14:12:14.366Z</time></trkpt><trkpt lat="44.5716772" lon="5.155679"><ele>434.0</ele><time>2026-05-01T14:12:15.366Z</time></trkpt><trkpt lat="44.5717785" lon="5.1554647"><ele>434.0</ele><time>2026-05-01T14:12:16.366Z</time></trkpt><trkpt lat="44.5718988" lon="5.1552621"><ele>434.0</ele><time>2026-05-01T14:12:17.367Z</time></trkpt><trkpt lat="44.5720352" lon="5.1550628"><ele>434.0</ele><time>2026-05-01T14:12:18.366Z</time></trkpt><trkpt lat="44.5721813" lon="5.1548495"><ele>433.0</ele><time>2026-05-01T14:12:19.366Z</time></trkpt><trkpt lat="44.5723361" lon="5.1546198"><ele>432.0</ele><time>2026-05-01T14:12:20.366Z</time></trkpt><trkpt lat="44.5725019" lon="5.1543737"><ele>432.0</ele><time>2026-05-01T14:12:21.366Z</time></trkpt><trkpt lat="44.5726774" lon="5.1541157"><ele>432.0</ele><time>2026-05-01T14:12:22.366Z</time></trkpt><trkpt lat="44.5728604" lon="5.1538507"><ele>433.0</ele><time>2026-05-01T14:12:23.366Z</time></trkpt><trkpt lat="44.5730486" lon="5.153582"><ele>434.0</ele><time>2026-05-01T14:12:24.366Z</time></trkpt><trkpt lat="44.5732317" lon="5.153315"><ele>433.0</ele><time>2026-05-01T14:12:25.366Z</time></trkpt><trkpt lat="44.5734019" lon="5.1530604"><ele>432.0</ele><time>2026-05-01T14:12:26.366Z</time></trkpt><trkpt lat="44.5735635" lon="5.1528157"><ele>431.66666666666663</ele><time>2026-05-01T14:12:27.366Z</time></trkpt><trkpt lat="44.5737202" lon="5.1525992"><ele>431.3333333333333</ele><time>2026-05-01T14:12:28.366Z</time></trkpt><trkpt lat="44.5738794" lon="5.1524166"><ele>431.0</ele><time>2026-05-01T14:12:29.366Z</time></trkpt><trkpt lat="44.5740487" lon="5.1522725"><ele>431.0</ele><time>2026-05-01T14:12:30.366Z</time></trkpt><trkpt lat="44.5742318" lon="5.1521621"><ele>431.0</ele><time>2026-05-01T14:12:31.366Z</time></trkpt><trkpt lat="44.5744162" lon="5.1520608"><ele>431.0</ele><time>2026-05-01T14:12:32.367Z</time></trkpt><trkpt lat="44.574589" lon="5.1519543"><ele>431.0</ele><time>2026-05-01T14:12:33.367Z</time></trkpt><trkpt lat="44.574745" lon="5.1518344"><ele>431.0</ele><time>2026-05-01T14:12:34.366Z</time></trkpt><trkpt lat="44.5748758" lon="5.1516807"><ele>431.0</ele><time>2026-05-01T14:12:35.366Z</time></trkpt><trkpt lat="44.5749814" lon="5.1514896"><ele>431.0</ele><time>2026-05-01T14:12:36.366Z</time></trkpt><trkpt lat="44.5750718" lon="5.1512605"><ele>431.0</ele><time>2026-05-01T14:12:37.367Z</time></trkpt><trkpt lat="44.5751559" lon="5.1510029"><ele>431.0</ele><time>2026-05-01T14:12:38.366Z</time></trkpt><trkpt lat="44.5752478" lon="5.1507199"><ele>435.5</ele><time>2026-05-01T14:12:39.366Z</time></trkpt><trkpt lat="44.5753588" lon="5.1504256"><ele>440.0</ele><time>2026-05-01T14:12:40.366Z</time></trkpt><trkpt lat="44.5754935" lon="5.1501276"><ele>436.0</ele><time>2026-05-01T14:12:41.366Z</time></trkpt><trkpt lat="44.5756411" lon="5.1498227"><ele>432.0</ele><time>2026-05-01T14:12:42.366Z</time></trkpt><trkpt lat="44.5757944" lon="5.1495015"><ele>432.0</ele><time>2026-05-01T14:12:43.366Z</time></trkpt><trkpt lat="44.575952" lon="5.1491646"><ele>432.0</ele><time>2026-05-01T14:12:44.366Z</time></trkpt><trkpt lat="44.5761154" lon="5.1488212"><ele>432.0</ele><time>2026-05-01T14:12:45.366Z</time></trkpt><trkpt lat="44.5762774" lon="5.14849"><ele>432.0</ele><time>2026-05-01T14:12:46.367Z</time></trkpt><trkpt lat="44.5764386" lon="5.1481564"><ele>432.0</ele><time>2026-05-01T14:12:47.367Z</time></trkpt><trkpt lat="44.5765964" lon="5.147821"><ele>432.0</ele><time>2026-05-01T14:12:48.366Z</time></trkpt><trkpt lat="44.5767545" lon="5.1474916"><ele>428.0</ele><time>2026-05-01T14:12:49.367Z</time></trkpt><trkpt lat="44.5769135" lon="5.1471604"><ele>424.0</ele><time>2026-05-01T14:12:50.366Z</time></trkpt><trkpt lat="44.5770725" lon="5.1468409"><ele>427.5</ele><time>2026-05-01T14:12:51.366Z</time></trkpt><trkpt lat="44.577229" lon="5.1465281"><ele>431.0</ele><time>2026-05-01T14:12:52.366Z</time></trkpt><trkpt lat="44.577386" lon="5.1462146"><ele>431.0</ele><time>2026-05-01T14:12:53.366Z</time></trkpt><trkpt lat="44.5775447" lon="5.1459"><ele>431.0</ele><time>2026-05-01T14:12:54.366Z</time></trkpt><trkpt lat="44.5777066" lon="5.1455885"><ele>435.0</ele><time>2026-05-01T14:12:55.366Z</time></trkpt><trkpt lat="44.5778622" lon="5.1452698"><ele>439.0</ele><time>2026-05-01T14:12:56.367Z</time></trkpt><trkpt lat="44.5780061" lon="5.1449515"><ele>434.0</ele><time>2026-05-01T14:12:57.366Z</time></trkpt><trkpt lat="44.5781447" lon="5.1446401"><ele>429.0</ele><time>2026-05-01T14:12:58.366Z</time></trkpt><trkpt lat="44.5782877" lon="5.1443448"><ele>429.0</ele><time>2026-05-01T14:12:59.366Z</time></trkpt><trkpt lat="44.5784427" lon="5.1440745"><ele>429.0</ele><time>2026-05-01T14:13:00.366Z</time></trkpt><trkpt lat="44.5786031" lon="5.1438241"><ele>430.0</ele><time>2026-05-01T14:13:01.366Z</time></trkpt><trkpt lat="44.5787763" lon="5.1435904"><ele>431.0</ele><time>2026-05-01T14:13:02.366Z</time></trkpt><trkpt lat="44.578965" lon="5.1433682"><ele>426.0</ele><time>2026-05-01T14:13:03.366Z</time></trkpt><trkpt lat="44.579162" lon="5.1431493"><ele>421.0</ele><time>2026-05-01T14:13:04.366Z</time></trkpt><trkpt lat="44.579359" lon="5.1429304"><ele>424.5</ele><time>2026-05-01T14:13:05.366Z</time></trkpt><trkpt lat="44.5795552" lon="5.142712"><ele>428.0</ele><time>2026-05-01T14:13:06.367Z</time></trkpt><trkpt lat="44.5797509" lon="5.1424988"><ele>423.5</ele><time>2026-05-01T14:13:07.366Z</time></trkpt><trkpt lat="44.5799482" lon="5.1422806"><ele>419.0</ele><time>2026-05-01T14:13:08.366Z</time></trkpt><trkpt lat="44.5801505" lon="5.1420586"><ele>420.5</ele><time>2026-05-01T14:13:09.366Z</time></trkpt><trkpt lat="44.5803543" lon="5.1418345"><ele>422.0</ele><time>2026-05-01T14:13:10.367Z</time></trkpt><trkpt lat="44.5805546" lon="5.1416099"><ele>417.5</ele><time>2026-05-01T14:13:11.366Z</time></trkpt><trkpt lat="44.5807518" lon="5.1413903"><ele>413.0</ele><time>2026-05-01T14:13:12.367Z</time></trkpt><trkpt lat="44.5809481" lon="5.1411756"><ele>413.0</ele><time>2026-05-01T14:13:13.366Z</time></trkpt><trkpt lat="44.5811438" lon="5.1409599"><ele>413.0</ele><time>2026-05-01T14:13:14.367Z</time></trkpt><trkpt lat="44.5813385" lon="5.1407464"><ele>414.5</ele><time>2026-05-01T14:13:15.366Z</time></trkpt><trkpt lat="44.5815265" lon="5.1405394"><ele>416.0</ele><time>2026-05-01T14:13:16.366Z</time></trkpt><trkpt lat="44.5817108" lon="5.1403414"><ele>416.0</ele><time>2026-05-01T14:13:17.366Z</time></trkpt><trkpt lat="44.5818915" lon="5.1401521"><ele>416.0</ele><time>2026-05-01T14:13:18.366Z</time></trkpt><trkpt lat="44.5820632" lon="5.1399677"><ele>416.0</ele><time>2026-05-01T14:13:19.366Z</time></trkpt><trkpt lat="44.582218" lon="5.1397922"><ele>415.66666666666663</ele><time>2026-05-01T14:13:20.366Z</time></trkpt><trkpt lat="44.5823761" lon="5.1396234"><ele>415.33333333333337</ele><time>2026-05-01T14:13:21.367Z</time></trkpt><trkpt lat="44.582544" lon="5.1394836"><ele>415.0</ele><time>2026-05-01T14:13:22.366Z</time></trkpt><trkpt lat="44.5827236" lon="5.1393624"><ele>414.33333333333337</ele><time>2026-05-01T14:13:23.366Z</time></trkpt><trkpt lat="44.5829159" lon="5.1392341"><ele>413.66666666666663</ele><time>2026-05-01T14:13:24.366Z</time></trkpt><trkpt lat="44.5831183" lon="5.1390911"><ele>413.0</ele><time>2026-05-01T14:13:25.367Z</time></trkpt><trkpt lat="44.5833384" lon="5.1389314"><ele>411.5</ele><time>2026-05-01T14:13:26.366Z</time></trkpt><trkpt lat="44.5835635" lon="5.1387816"><ele>410.0</ele><time>2026-05-01T14:13:27.367Z</time></trkpt><trkpt lat="44.5837858" lon="5.1386468"><ele>410.0</ele><time>2026-05-01T14:13:28.366Z</time></trkpt><trkpt lat="44.5839993" lon="5.1385101"><ele>410.0</ele><time>2026-05-01T14:13:29.367Z</time></trkpt><trkpt lat="44.5842053" lon="5.1383747"><ele>410.0</ele><time>2026-05-01T14:13:30.366Z</time></trkpt><trkpt lat="44.5844039" lon="5.1382414"><ele>410.0</ele><time>2026-05-01T14:13:31.366Z</time></trkpt><trkpt lat="44.584595" lon="5.1381094"><ele>410.0</ele><time>2026-05-01T14:13:32.366Z</time></trkpt><trkpt lat="44.5847807" lon="5.1379806"><ele>409.3333333333333</ele><time>2026-05-01T14:13:33.366Z</time></trkpt><trkpt lat="44.5849578" lon="5.1378574"><ele>408.66666666666663</ele><time>2026-05-01T14:13:34.366Z</time></trkpt><trkpt lat="44.5851252" lon="5.1377335"><ele>408.0</ele><time>2026-05-01T14:13:35.367Z</time></trkpt><trkpt lat="44.5852745" lon="5.1375986"><ele>407.66666666666663</ele><time>2026-05-01T14:13:36.366Z</time></trkpt><trkpt lat="44.5854067" lon="5.1374401"><ele>407.3333333333333</ele><time>2026-05-01T14:13:37.367Z</time></trkpt><trkpt lat="44.5855289" lon="5.1372623"><ele>407.0</ele><time>2026-05-01T14:13:38.367Z</time></trkpt><trkpt lat="44.5856466" lon="5.1370728"><ele>407.0</ele><time>2026-05-01T14:13:39.366Z</time></trkpt><trkpt lat="44.5857555" lon="5.1368891"><ele>407.0</ele><time>2026-05-01T14:13:40.366Z</time></trkpt><trkpt lat="44.585846" lon="5.1367175"><ele>407.0</ele><time>2026-05-01T14:13:41.366Z</time></trkpt><trkpt lat="44.5859229" lon="5.1365479"><ele>407.0</ele><time>2026-05-01T14:13:42.366Z</time></trkpt><trkpt lat="44.5859954" lon="5.1363849"><ele>407.0</ele><time>2026-05-01T14:13:43.367Z</time></trkpt><trkpt lat="44.5860771" lon="5.1362367"><ele>407.0</ele><time>2026-05-01T14:13:44.367Z</time></trkpt><trkpt lat="44.5861603" lon="5.1360978"><ele>407.0</ele><time>2026-05-01T14:13:45.366Z</time></trkpt><trkpt lat="44.5862452" lon="5.1359667"><ele>407.20000000000005</ele><time>2026-05-01T14:13:46.366Z</time></trkpt><trkpt lat="44.5863291" lon="5.1358473"><ele>407.4</ele><time>2026-05-01T14:13:47.366Z</time></trkpt><trkpt lat="44.5863964" lon="5.1357308"><ele>407.6</ele><time>2026-05-01T14:13:48.366Z</time></trkpt><trkpt lat="44.5864331" lon="5.135612"><ele>407.79999999999995</ele><time>2026-05-01T14:13:49.366Z</time></trkpt><trkpt lat="44.5864369" lon="5.1354866"><ele>408.0</ele><time>2026-05-01T14:13:50.366Z</time></trkpt><trkpt lat="44.5864148" lon="5.1353719"><ele>408.0</ele><time>2026-05-01T14:13:51.367Z</time></trkpt><trkpt lat="44.5863923" lon="5.135263"><ele>408.0</ele><time>2026-05-01T14:13:52.366Z</time></trkpt><trkpt lat="44.5864014" lon="5.1351624"><ele>408.0</ele><time>2026-05-01T14:13:53.366Z</time></trkpt><trkpt lat="44.5864325" lon="5.1350721"><ele>408.0</ele><time>2026-05-01T14:13:54.366Z</time></trkpt><trkpt lat="44.58649" lon="5.1350038"><ele>408.0</ele><time>2026-05-01T14:13:55.367Z</time></trkpt><trkpt lat="44.5865593" lon="5.1349506"><ele>408.0</ele><time>2026-05-01T14:13:56.366Z</time></trkpt><trkpt lat="44.5866355" lon="5.1348978"><ele>407.8333333333333</ele><time>2026-05-01T14:13:57.366Z</time></trkpt><trkpt lat="44.5867095" lon="5.1348412"><ele>407.66666666666663</ele><time>2026-05-01T14:13:58.366Z</time></trkpt><trkpt lat="44.586781" lon="5.1347904"><ele>407.5</ele><time>2026-05-01T14:13:59.366Z</time></trkpt><trkpt lat="44.586845" lon="5.1347353"><ele>407.3333333333333</ele><time>2026-05-01T14:14:00.366Z</time></trkpt><trkpt lat="44.5869392" lon="5.1346565"><ele>407.16666666666663</ele><time>2026-05-01T14:14:02.366Z</time></trkpt><trkpt lat="44.5870126" lon="5.1346058"><ele>407.0</ele><time>2026-05-01T14:14:05.367Z</time></trkpt><trkpt lat="44.5870768" lon="5.134561"><ele>406.8333333333333</ele><time>2026-05-01T14:14:07.366Z</time></trkpt><trkpt lat="44.5871526" lon="5.1345022"><ele>406.66666666666663</ele><time>2026-05-01T14:14:09.366Z</time></trkpt><trkpt lat="44.5872252" lon="5.1344527"><ele>406.5</ele><time>2026-05-01T14:14:11.366Z</time></trkpt><trkpt lat="44.5872876" lon="5.1343631"><ele>406.33333333333337</ele><time>2026-05-01T14:14:14.366Z</time></trkpt><trkpt lat="44.5872745" lon="5.1342759"><ele>406.1666666666667</ele><time>2026-05-01T14:14:16.367Z</time></trkpt><trkpt lat="44.5872286" lon="5.1341945"><ele>406.0</ele><time>2026-05-01T14:14:18.366Z</time></trkpt><trkpt lat="44.587191" lon="5.1341087"><ele>406.00000000000006</ele><time>2026-05-01T14:14:20.366Z</time></trkpt><trkpt lat="44.5871504" lon="5.1340284"><ele>406.0</ele><time>2026-05-01T14:14:22.366Z</time></trkpt><trkpt lat="44.5870986" lon="5.1339236"><ele>406.0</ele><time>2026-05-01T14:14:25.366Z</time></trkpt><trkpt lat="44.587051" lon="5.1338302"><ele>406.0</ele><time>2026-05-01T14:14:28.367Z</time></trkpt><trkpt lat="44.5870107" lon="5.1337238"><ele>406.00000000000006</ele><time>2026-05-01T14:14:31.365Z</time></trkpt><trkpt lat="44.5869552" lon="5.1336513"><ele>406.0</ele><time>2026-05-01T14:14:40.365Z</time></trkpt><trkpt lat="44.5868732" lon="5.1336476"><ele>406.0</ele><time>2026-05-01T14:14:49.365Z</time></trkpt><trkpt lat="44.5867974" lon="5.1337243"><ele>406.0</ele><time>2026-05-01T14:14:51.365Z</time></trkpt><trkpt lat="44.5867204" lon="5.133809"><ele>406.0</ele><time>2026-05-01T14:14:53.365Z</time></trkpt><trkpt lat="44.5866326" lon="5.1338982"><ele>406.0</ele><time>2026-05-01T14:14:55.367Z</time></trkpt><trkpt lat="44.5865409" lon="5.1339699"><ele>406.0</ele><time>2026-05-01T14:14:57.365Z</time></trkpt><trkpt lat="44.5864344" lon="5.1340269"><ele>406.0</ele><time>2026-05-01T14:14:59.365Z</time></trkpt><trkpt lat="44.5863696" lon="5.1340484"><ele>406.0</ele><time>2026-05-01T14:15:00.365Z</time></trkpt><trkpt lat="44.5862994" lon="5.1340549"><ele>406.0</ele><time>2026-05-01T14:15:01.366Z</time></trkpt><trkpt lat="44.5862304" lon="5.1340451"><ele>406.0</ele><time>2026-05-01T14:15:02.365Z</time></trkpt><trkpt lat="44.586162" lon="5.1340357"><ele>406.0</ele><time>2026-05-01T14:15:03.365Z</time></trkpt><trkpt lat="44.5860948" lon="5.1340209"><ele>406.0</ele><time>2026-05-01T14:15:04.365Z</time></trkpt><trkpt lat="44.5860263" lon="5.1340023"><ele>406.0</ele><time>2026-05-01T14:15:05.365Z</time></trkpt><trkpt lat="44.5859628" lon="5.1339844"><ele>405.75</ele><time>2026-05-01T14:15:06.365Z</time></trkpt><trkpt lat="44.585841" lon="5.133953"><ele>405.5</ele><time>2026-05-01T14:15:08.365Z</time></trkpt><trkpt lat="44.5857239" lon="5.133925"><ele>405.25</ele><time>2026-05-01T14:15:10.365Z</time></trkpt><trkpt lat="44.5856185" lon="5.1338955"><ele>405.0</ele><time>2026-05-01T14:15:12.366Z</time></trkpt><trkpt lat="44.5855132" lon="5.1338766"><ele>405.0</ele><time>2026-05-01T14:15:14.365Z</time></trkpt><trkpt lat="44.5854113" lon="5.1338572"><ele>405.0</ele><time>2026-05-01T14:15:16.365Z</time></trkpt><trkpt lat="44.5853059" lon="5.1338344"><ele>405.0</ele><time>2026-05-01T14:15:18.365Z</time></trkpt><trkpt lat="44.5851848" lon="5.1338653"><ele>405.0</ele><time>2026-05-01T14:15:20.365Z</time></trkpt><trkpt lat="44.5851128" lon="5.1339085"><ele>405.0</ele><time>2026-05-01T14:15:21.365Z</time></trkpt><trkpt lat="44.58503" lon="5.1339643"><ele>406.0</ele><time>2026-05-01T14:15:22.365Z</time></trkpt><trkpt lat="44.584935" lon="5.1340257"><ele>407.0</ele><time>2026-05-01T14:15:23.365Z</time></trkpt><trkpt lat="44.5848306" lon="5.134082"><ele>408.0</ele><time>2026-05-01T14:15:24.365Z</time></trkpt><trkpt lat="44.5847211" lon="5.1341292"><ele>409.0</ele><time>2026-05-01T14:15:25.365Z</time></trkpt><trkpt lat="44.5846146" lon="5.1341614"><ele>410.0</ele><time>2026-05-01T14:15:26.365Z</time></trkpt><trkpt lat="44.5845113" lon="5.1341917"><ele>410.8</ele><time>2026-05-01T14:15:27.365Z</time></trkpt><trkpt lat="44.5844068" lon="5.134219"><ele>411.6</ele><time>2026-05-01T14:15:28.365Z</time></trkpt><trkpt lat="44.5843044" lon="5.134249"><ele>412.4</ele><time>2026-05-01T14:15:29.365Z</time></trkpt><trkpt lat="44.5842033" lon="5.1342834"><ele>413.2</ele><time>2026-05-01T14:15:30.365Z</time></trkpt><trkpt lat="44.5841027" lon="5.1343226"><ele>414.0</ele><time>2026-05-01T14:15:31.365Z</time></trkpt><trkpt lat="44.5840027" lon="5.134347"><ele>414.0</ele><time>2026-05-01T14:15:32.365Z</time></trkpt><trkpt lat="44.5839068" lon="5.1343765"><ele>414.0</ele><time>2026-05-01T14:15:33.365Z</time></trkpt><trkpt lat="44.5838064" lon="5.134421"><ele>414.0</ele><time>2026-05-01T14:15:34.365Z</time></trkpt><trkpt lat="44.5837025" lon="5.1344845"><ele>414.0</ele><time>2026-05-01T14:15:35.365Z</time></trkpt><trkpt lat="44.5836004" lon="5.1345671"><ele>414.0</ele><time>2026-05-01T14:15:36.366Z</time></trkpt><trkpt lat="44.5834948" lon="5.1346538"><ele>414.75</ele><time>2026-05-01T14:15:37.365Z</time></trkpt><trkpt lat="44.5833838" lon="5.1347357"><ele>415.5</ele><time>2026-05-01T14:15:38.365Z</time></trkpt><trkpt lat="44.5832674" lon="5.1348132"><ele>416.25</ele><time>2026-05-01T14:15:39.365Z</time></trkpt><trkpt lat="44.5831459" lon="5.1348914"><ele>417.0</ele><time>2026-05-01T14:15:40.365Z</time></trkpt><trkpt lat="44.5830202" lon="5.1349634"><ele>417.0</ele><time>2026-05-01T14:15:41.366Z</time></trkpt><trkpt lat="44.5829052" lon="5.1350054"><ele>417.0</ele><time>2026-05-01T14:15:42.365Z</time></trkpt><trkpt lat="44.582799" lon="5.1350111"><ele>417.0</ele><time>2026-05-01T14:15:43.365Z</time></trkpt><trkpt lat="44.5827226" lon="5.1349683"><ele>417.0</ele><time>2026-05-01T14:15:44.365Z</time></trkpt><trkpt lat="44.5826788" lon="5.1348953"><ele>417.0</ele><time>2026-05-01T14:15:45.365Z</time></trkpt><trkpt lat="44.5826557" lon="5.1347952"><ele>419.75</ele><time>2026-05-01T14:15:46.365Z</time></trkpt><trkpt lat="44.58264" lon="5.1346619"><ele>422.5</ele><time>2026-05-01T14:15:47.365Z</time></trkpt><trkpt lat="44.5826119" lon="5.134483"><ele>425.25</ele><time>2026-05-01T14:15:48.365Z</time></trkpt><trkpt lat="44.5825563" lon="5.1342975"><ele>428.0</ele><time>2026-05-01T14:15:49.365Z</time></trkpt><trkpt lat="44.5824827" lon="5.1341154"><ele>435.3333333333333</ele><time>2026-05-01T14:15:50.365Z</time></trkpt><trkpt lat="44.5823966" lon="5.1339476"><ele>442.66666666666663</ele><time>2026-05-01T14:15:51.366Z</time></trkpt><trkpt lat="44.5822909" lon="5.1337885"><ele>450.0</ele><time>2026-05-01T14:15:52.365Z</time></trkpt><trkpt lat="44.5821663" lon="5.1336605"><ele>450.0</ele><time>2026-05-01T14:15:53.365Z</time></trkpt><trkpt lat="44.582032" lon="5.1335677"><ele>450.0</ele><time>2026-05-01T14:15:54.365Z</time></trkpt><trkpt lat="44.5819147" lon="5.1334801"><ele>450.0</ele><time>2026-05-01T14:15:55.365Z</time></trkpt><trkpt lat="44.5818179" lon="5.1333605"><ele>450.0</ele><time>2026-05-01T14:15:56.365Z</time></trkpt><trkpt lat="44.5817414" lon="5.1332201"><ele>447.75</ele><time>2026-05-01T14:15:57.365Z</time></trkpt><trkpt lat="44.5816909" lon="5.1330732"><ele>445.5</ele><time>2026-05-01T14:15:58.365Z</time></trkpt><trkpt lat="44.5816616" lon="5.1329216"><ele>443.25</ele><time>2026-05-01T14:15:59.365Z</time></trkpt><trkpt lat="44.5816534" lon="5.1327534"><ele>441.0</ele><time>2026-05-01T14:16:00.366Z</time></trkpt><trkpt lat="44.5816621" lon="5.1325712"><ele>441.0</ele><time>2026-05-01T14:16:01.366Z</time></trkpt><trkpt lat="44.5816947" lon="5.132392"><ele>441.0</ele><time>2026-05-01T14:16:02.365Z</time></trkpt><trkpt lat="44.5817321" lon="5.1322212"><ele>441.0</ele><time>2026-05-01T14:16:03.366Z</time></trkpt><trkpt lat="44.5817359" lon="5.1320531"><ele>441.0</ele><time>2026-05-01T14:16:04.365Z</time></trkpt><trkpt lat="44.5817015" lon="5.1318896"><ele>442.75</ele><time>2026-05-01T14:16:05.365Z</time></trkpt><trkpt lat="44.5816319" lon="5.1317573"><ele>444.5</ele><time>2026-05-01T14:16:06.366Z</time></trkpt><trkpt lat="44.5815367" lon="5.131664"><ele>446.25</ele><time>2026-05-01T14:16:07.365Z</time></trkpt><trkpt lat="44.5814226" lon="5.1316008"><ele>448.0</ele><time>2026-05-01T14:16:08.365Z</time></trkpt><trkpt lat="44.5813025" lon="5.1315245"><ele>448.75</ele><time>2026-05-01T14:16:09.365Z</time></trkpt><trkpt lat="44.5811878" lon="5.1314069"><ele>449.5</ele><time>2026-05-01T14:16:10.366Z</time></trkpt><trkpt lat="44.5810934" lon="5.1312447"><ele>450.25</ele><time>2026-05-01T14:16:11.365Z</time></trkpt><trkpt lat="44.5810142" lon="5.1310538"><ele>451.0</ele><time>2026-05-01T14:16:12.365Z</time></trkpt><trkpt lat="44.5809369" lon="5.13085"><ele>456.33333333333337</ele><time>2026-05-01T14:16:13.365Z</time></trkpt><trkpt lat="44.580851" lon="5.1306489"><ele>461.66666666666663</ele><time>2026-05-01T14:16:14.365Z</time></trkpt><trkpt lat="44.5807447" lon="5.1304625"><ele>467.0</ele><time>2026-05-01T14:16:15.365Z</time></trkpt><trkpt lat="44.5806198" lon="5.1302984"><ele>467.0</ele><time>2026-05-01T14:16:16.365Z</time></trkpt><trkpt lat="44.5804911" lon="5.1301688"><ele>467.0</ele><time>2026-05-01T14:16:17.365Z</time></trkpt><trkpt lat="44.5803749" lon="5.1300481"><ele>467.0</ele><time>2026-05-01T14:16:18.365Z</time></trkpt><trkpt lat="44.5802919" lon="5.1299068"><ele>467.0</ele><time>2026-05-01T14:16:19.365Z</time></trkpt><trkpt lat="44.580248" lon="5.1297488"><ele>466.0</ele><time>2026-05-01T14:16:20.365Z</time></trkpt><trkpt lat="44.5802283" lon="5.1295686"><ele>465.0</ele><time>2026-05-01T14:16:21.366Z</time></trkpt><trkpt lat="44.5802165" lon="5.1293779"><ele>464.0</ele><time>2026-05-01T14:16:22.365Z</time></trkpt><trkpt lat="44.5802096" lon="5.1291828"><ele>463.0</ele><time>2026-05-01T14:16:23.365Z</time></trkpt><trkpt lat="44.580227" lon="5.1289709"><ele>466.0</ele><time>2026-05-01T14:16:24.366Z</time></trkpt><trkpt lat="44.5802765" lon="5.1287513"><ele>469.0</ele><time>2026-05-01T14:16:25.365Z</time></trkpt><trkpt lat="44.5803472" lon="5.1285314"><ele>472.0</ele><time>2026-05-01T14:16:26.365Z</time></trkpt><trkpt lat="44.580414" lon="5.1283097"><ele>473.5</ele><time>2026-05-01T14:16:27.366Z</time></trkpt><trkpt lat="44.5804663" lon="5.1281032"><ele>475.0</ele><time>2026-05-01T14:16:28.365Z</time></trkpt><trkpt lat="44.580496" lon="5.1279046"><ele>476.5</ele><time>2026-05-01T14:16:29.365Z</time></trkpt><trkpt lat="44.5804891" lon="5.1277024"><ele>478.0</ele><time>2026-05-01T14:16:30.365Z</time></trkpt><trkpt lat="44.5804436" lon="5.1275102"><ele>480.5</ele><time>2026-05-01T14:16:31.365Z</time></trkpt><trkpt lat="44.580378" lon="5.1273358"><ele>483.0</ele><time>2026-05-01T14:16:32.366Z</time></trkpt><trkpt lat="44.5803063" lon="5.1271906"><ele>485.5</ele><time>2026-05-01T14:16:33.365Z</time></trkpt><trkpt lat="44.5802166" lon="5.1270911"><ele>488.0</ele><time>2026-05-01T14:16:34.365Z</time></trkpt><trkpt lat="44.5801041" lon="5.1270464"><ele>488.0</ele><time>2026-05-01T14:16:35.365Z</time></trkpt><trkpt lat="44.5799876" lon="5.1270491"><ele>488.0</ele><time>2026-05-01T14:16:36.365Z</time></trkpt><trkpt lat="44.5798729" lon="5.1271017"><ele>488.0</ele><time>2026-05-01T14:16:37.365Z</time></trkpt><trkpt lat="44.5797735" lon="5.1272026"><ele>488.0</ele><time>2026-05-01T14:16:38.365Z</time></trkpt><trkpt lat="44.5796939" lon="5.1273427"><ele>488.2</ele><time>2026-05-01T14:16:39.365Z</time></trkpt><trkpt lat="44.5796259" lon="5.1274799"><ele>488.4</ele><time>2026-05-01T14:16:40.365Z</time></trkpt><trkpt lat="44.5795435" lon="5.1275794"><ele>488.59999999999997</ele><time>2026-05-01T14:16:41.366Z</time></trkpt><trkpt lat="44.5794506" lon="5.1276355"><ele>488.79999999999995</ele><time>2026-05-01T14:16:42.365Z</time></trkpt><trkpt lat="44.579355" lon="5.1276466"><ele>489.0</ele><time>2026-05-01T14:16:43.366Z</time></trkpt><trkpt lat="44.5792662" lon="5.127623"><ele>489.0</ele><time>2026-05-01T14:16:44.365Z</time></trkpt><trkpt lat="44.5791738" lon="5.1275869"><ele>489.0</ele><time>2026-05-01T14:16:45.365Z</time></trkpt><trkpt lat="44.5790832" lon="5.1275532"><ele>489.0</ele><time>2026-05-01T14:16:46.365Z</time></trkpt><trkpt lat="44.5790003" lon="5.1275317"><ele>489.0</ele><time>2026-05-01T14:16:47.365Z</time></trkpt><trkpt lat="44.5789089" lon="5.1275301"><ele>489.0</ele><time>2026-05-01T14:16:48.365Z</time></trkpt><trkpt lat="44.5787971" lon="5.127578"><ele>489.0</ele><time>2026-05-01T14:16:49.365Z</time></trkpt><trkpt lat="44.5786883" lon="5.1276389"><ele>489.0</ele><time>2026-05-01T14:16:50.365Z</time></trkpt><trkpt lat="44.5785907" lon="5.1276791"><ele>489.0</ele><time>2026-05-01T14:16:51.365Z</time></trkpt><trkpt lat="44.5785043" lon="5.1276845"><ele>489.0</ele><time>2026-05-01T14:16:52.365Z</time></trkpt><trkpt lat="44.578446" lon="5.1276453"><ele>489.0</ele><time>2026-05-01T14:16:53.366Z</time></trkpt><trkpt lat="44.5784145" lon="5.1275018"><ele>489.4</ele><time>2026-05-01T14:16:55.365Z</time></trkpt><trkpt lat="44.5784483" lon="5.1274154"><ele>489.79999999999995</ele><time>2026-05-01T14:16:56.365Z</time></trkpt><trkpt lat="44.5785096" lon="5.1273295"><ele>490.20000000000005</ele><time>2026-05-01T14:16:57.365Z</time></trkpt><trkpt lat="44.5785959" lon="5.1272344"><ele>490.6</ele><time>2026-05-01T14:16:58.365Z</time></trkpt><trkpt lat="44.5787052" lon="5.1271193"><ele>491.0</ele><time>2026-05-01T14:16:59.365Z</time></trkpt><trkpt lat="44.5788407" lon="5.1269966"><ele>494.66666666666663</ele><time>2026-05-01T14:17:00.365Z</time></trkpt><trkpt lat="44.578991" lon="5.1268708"><ele>498.33333333333337</ele><time>2026-05-01T14:17:01.365Z</time></trkpt><trkpt lat="44.5791432" lon="5.1267582"><ele>502.0</ele><time>2026-05-01T14:17:02.365Z</time></trkpt><trkpt lat="44.5792956" lon="5.1266417"><ele>503.6666666666667</ele><time>2026-05-01T14:17:03.365Z</time></trkpt><trkpt lat="44.5794356" lon="5.126496"><ele>505.33333333333337</ele><time>2026-05-01T14:17:04.366Z</time></trkpt><trkpt lat="44.579553" lon="5.1263177"><ele>507.0</ele><time>2026-05-01T14:17:05.366Z</time></trkpt><trkpt lat="44.5796658" lon="5.1261235"><ele>507.0</ele><time>2026-05-01T14:17:06.366Z</time></trkpt><trkpt lat="44.5797827" lon="5.1259297"><ele>507.0</ele><time>2026-05-01T14:17:07.366Z</time></trkpt><trkpt lat="44.5798986" lon="5.1257332"><ele>507.0</ele><time>2026-05-01T14:17:08.365Z</time></trkpt><trkpt lat="44.5800077" lon="5.1255509"><ele>511.75</ele><time>2026-05-01T14:17:09.365Z</time></trkpt><trkpt lat="44.5801197" lon="5.1254001"><ele>516.5</ele><time>2026-05-01T14:17:10.365Z</time></trkpt><trkpt lat="44.580245" lon="5.1253061"><ele>521.25</ele><time>2026-05-01T14:17:11.366Z</time></trkpt><trkpt lat="44.5803925" lon="5.1252574"><ele>526.0</ele><time>2026-05-01T14:17:12.365Z</time></trkpt><trkpt lat="44.5805531" lon="5.125231"><ele>526.0</ele><time>2026-05-01T14:17:13.365Z</time></trkpt><trkpt lat="44.5807202" lon="5.1252342"><ele>526.0</ele><time>2026-05-01T14:17:14.366Z</time></trkpt><trkpt lat="44.5808703" lon="5.1252851"><ele>526.0</ele><time>2026-05-01T14:17:15.366Z</time></trkpt><trkpt lat="44.5810036" lon="5.1253635"><ele>526.0</ele><time>2026-05-01T14:17:16.366Z</time></trkpt><trkpt lat="44.5811273" lon="5.1254404"><ele>526.0</ele><time>2026-05-01T14:17:17.366Z</time></trkpt><trkpt lat="44.5812439" lon="5.1254951"><ele>526.0</ele><time>2026-05-01T14:17:18.365Z</time></trkpt><trkpt lat="44.5813648" lon="5.1255091"><ele>526.0</ele><time>2026-05-01T14:17:19.365Z</time></trkpt><trkpt lat="44.5814853" lon="5.1254686"><ele>526.5</ele><time>2026-05-01T14:17:20.365Z</time></trkpt><trkpt lat="44.5815977" lon="5.1253724"><ele>527.0</ele><time>2026-05-01T14:17:21.365Z</time></trkpt><trkpt lat="44.5816915" lon="5.1252212"><ele>527.5</ele><time>2026-05-01T14:17:22.365Z</time></trkpt><trkpt lat="44.5817732" lon="5.1250467"><ele>528.0</ele><time>2026-05-01T14:17:23.366Z</time></trkpt><trkpt lat="44.5818771" lon="5.1248923"><ele>529.25</ele><time>2026-05-01T14:17:24.366Z</time></trkpt><trkpt lat="44.5820001" lon="5.12479"><ele>530.5</ele><time>2026-05-01T14:17:25.365Z</time></trkpt><trkpt lat="44.5821266" lon="5.1247274"><ele>531.75</ele><time>2026-05-01T14:17:26.365Z</time></trkpt><trkpt lat="44.5822418" lon="5.1246903"><ele>533.0</ele><time>2026-05-01T14:17:27.365Z</time></trkpt><trkpt lat="44.5823409" lon="5.1246623"><ele>533.0</ele><time>2026-05-01T14:17:28.366Z</time></trkpt><trkpt lat="44.5824097" lon="5.1246192"><ele>533.0</ele><time>2026-05-01T14:17:29.366Z</time></trkpt><trkpt lat="44.5824537" lon="5.1244954"><ele>533.0</ele><time>2026-05-01T14:17:31.365Z</time></trkpt><trkpt lat="44.5823906" lon="5.1244115"><ele>533.0</ele><time>2026-05-01T14:17:33.366Z</time></trkpt><trkpt lat="44.5822651" lon="5.1244106"><ele>533.0</ele><time>2026-05-01T14:17:35.365Z</time></trkpt><trkpt lat="44.582153" lon="5.124428"><ele>533.0</ele><time>2026-05-01T14:17:37.365Z</time></trkpt><trkpt lat="44.582076" lon="5.1244335"><ele>533.0</ele><time>2026-05-01T14:17:39.366Z</time></trkpt><trkpt lat="44.5820051" lon="5.1244401"><ele>533.0</ele><time>2026-05-01T14:17:42.365Z</time></trkpt><trkpt lat="44.581871" lon="5.1244557"><ele>533.0</ele><time>2026-05-01T14:17:55.365Z</time></trkpt><trkpt lat="44.5817835" lon="5.1244704"><ele>533.0</ele><time>2026-05-01T14:17:56.366Z</time></trkpt><trkpt lat="44.5816939" lon="5.1244924"><ele>535.4</ele><time>2026-05-01T14:17:57.365Z</time></trkpt><trkpt lat="44.5815957" lon="5.1245194"><ele>537.8</ele><time>2026-05-01T14:17:58.365Z</time></trkpt><trkpt lat="44.5814896" lon="5.1245443"><ele>540.2</ele><time>2026-05-01T14:17:59.365Z</time></trkpt><trkpt lat="44.5813761" lon="5.1245535"><ele>542.6</ele><time>2026-05-01T14:18:00.365Z</time></trkpt><trkpt lat="44.5812572" lon="5.1245335"><ele>545.0</ele><time>2026-05-01T14:18:01.366Z</time></trkpt><trkpt lat="44.5811338" lon="5.1245124"><ele>547.25</ele><time>2026-05-01T14:18:02.365Z</time></trkpt><trkpt lat="44.5810148" lon="5.1244945"><ele>549.5</ele><time>2026-05-01T14:18:03.367Z</time></trkpt><trkpt lat="44.5809002" lon="5.1244745"><ele>551.75</ele><time>2026-05-01T14:18:04.366Z</time></trkpt><trkpt lat="44.580784" lon="5.1244533"><ele>554.0</ele><time>2026-05-01T14:18:05.365Z</time></trkpt><trkpt lat="44.5806687" lon="5.1244283"><ele>554.0</ele><time>2026-05-01T14:18:06.365Z</time></trkpt><trkpt lat="44.5805545" lon="5.124393"><ele>554.0</ele><time>2026-05-01T14:18:07.365Z</time></trkpt><trkpt lat="44.5804411" lon="5.124353"><ele>554.0</ele><time>2026-05-01T14:18:08.366Z</time></trkpt><trkpt lat="44.5803361" lon="5.124312"><ele>554.0</ele><time>2026-05-01T14:18:09.365Z</time></trkpt><trkpt lat="44.5802344" lon="5.1242612"><ele>555.2</ele><time>2026-05-01T14:18:10.365Z</time></trkpt><trkpt lat="44.5801445" lon="5.1241986"><ele>556.4</ele><time>2026-05-01T14:18:11.366Z</time></trkpt><trkpt lat="44.580057" lon="5.124147"><ele>557.6</ele><time>2026-05-01T14:18:12.365Z</time></trkpt><trkpt lat="44.5799672" lon="5.1241289"><ele>558.8</ele><time>2026-05-01T14:18:13.365Z</time></trkpt><trkpt lat="44.5798757" lon="5.1241556"><ele>560.0</ele><time>2026-05-01T14:18:14.365Z</time></trkpt><trkpt lat="44.5797764" lon="5.1242253"><ele>560.0</ele><time>2026-05-01T14:18:15.366Z</time></trkpt><trkpt lat="44.579665" lon="5.1242967"><ele>560.0</ele><time>2026-05-01T14:18:16.365Z</time></trkpt><trkpt lat="44.5795475" lon="5.1243687"><ele>560.0</ele><time>2026-05-01T14:18:17.365Z</time></trkpt><trkpt lat="44.5794426" lon="5.124457"><ele>560.0</ele><time>2026-05-01T14:18:18.365Z</time></trkpt><trkpt lat="44.5793481" lon="5.1245417"><ele>562.8</ele><time>2026-05-01T14:18:19.365Z</time></trkpt><trkpt lat="44.5792535" lon="5.1245852"><ele>565.6</ele><time>2026-05-01T14:18:20.365Z</time></trkpt><trkpt lat="44.5791502" lon="5.1245882"><ele>568.4</ele><time>2026-05-01T14:18:21.365Z</time></trkpt><trkpt lat="44.5790495" lon="5.1245517"><ele>571.2</ele><time>2026-05-01T14:18:22.365Z</time></trkpt><trkpt lat="44.5789557" lon="5.1245266"><ele>574.0</ele><time>2026-05-01T14:18:23.366Z</time></trkpt><trkpt lat="44.5788608" lon="5.1245315"><ele>574.0</ele><time>2026-05-01T14:18:24.365Z</time></trkpt><trkpt lat="44.5787702" lon="5.1245578"><ele>574.0</ele><time>2026-05-01T14:18:25.365Z</time></trkpt><trkpt lat="44.5786693" lon="5.1246014"><ele>574.0</ele><time>2026-05-01T14:18:26.365Z</time></trkpt><trkpt lat="44.5785598" lon="5.1246358"><ele>574.0</ele><time>2026-05-01T14:18:27.365Z</time></trkpt><trkpt lat="44.5784476" lon="5.124635"><ele>574.0</ele><time>2026-05-01T14:18:28.365Z</time></trkpt><trkpt lat="44.5783379" lon="5.124601"><ele>576.0</ele><time>2026-05-01T14:18:29.365Z</time></trkpt><trkpt lat="44.5782237" lon="5.1245432"><ele>578.0</ele><time>2026-05-01T14:18:30.365Z</time></trkpt><trkpt lat="44.5781121" lon="5.1244626"><ele>580.0</ele><time>2026-05-01T14:18:31.365Z</time></trkpt><trkpt lat="44.5780079" lon="5.1243626"><ele>582.0</ele><time>2026-05-01T14:18:32.365Z</time></trkpt><trkpt lat="44.5779049" lon="5.1242429"><ele>584.5</ele><time>2026-05-01T14:18:33.365Z</time></trkpt><trkpt lat="44.5778021" lon="5.124109"><ele>587.0</ele><time>2026-05-01T14:18:34.366Z</time></trkpt><trkpt lat="44.5777064" lon="5.1239646"><ele>589.5</ele><time>2026-05-01T14:18:35.365Z</time></trkpt><trkpt lat="44.5776182" lon="5.1238095"><ele>592.0</ele><time>2026-05-01T14:18:36.365Z</time></trkpt><trkpt lat="44.5775367" lon="5.1236622"><ele>592.0</ele><time>2026-05-01T14:18:37.366Z</time></trkpt><trkpt lat="44.5774505" lon="5.1235477"><ele>592.0</ele><time>2026-05-01T14:18:38.365Z</time></trkpt><trkpt lat="44.577347" lon="5.1234624"><ele>592.0</ele><time>2026-05-01T14:18:39.365Z</time></trkpt><trkpt lat="44.5772255" lon="5.1233924"><ele>592.0</ele><time>2026-05-01T14:18:40.365Z</time></trkpt><trkpt lat="44.5771036" lon="5.1233205"><ele>590.6</ele><time>2026-05-01T14:18:41.365Z</time></trkpt><trkpt lat="44.5770048" lon="5.1232416"><ele>589.2</ele><time>2026-05-01T14:18:42.365Z</time></trkpt><trkpt lat="44.5769137" lon="5.1231753"><ele>587.8</ele><time>2026-05-01T14:18:43.365Z</time></trkpt><trkpt lat="44.5768106" lon="5.1231396"><ele>586.4</ele><time>2026-05-01T14:18:44.366Z</time></trkpt><trkpt lat="44.5766893" lon="5.1231447"><ele>585.0</ele><time>2026-05-01T14:18:45.365Z</time></trkpt><trkpt lat="44.576548" lon="5.1231741"><ele>591.0</ele><time>2026-05-01T14:18:46.365Z</time></trkpt><trkpt lat="44.5763884" lon="5.1231894"><ele>597.0</ele><time>2026-05-01T14:18:47.365Z</time></trkpt><trkpt lat="44.576226" lon="5.1232019"><ele>603.0</ele><time>2026-05-01T14:18:48.365Z</time></trkpt><trkpt lat="44.5760729" lon="5.12322"><ele>603.0</ele><time>2026-05-01T14:18:49.365Z</time></trkpt><trkpt lat="44.5759246" lon="5.1232231"><ele>603.0</ele><time>2026-05-01T14:18:50.365Z</time></trkpt><trkpt lat="44.5757874" lon="5.1231985"><ele>603.0</ele><time>2026-05-01T14:18:51.365Z</time></trkpt><trkpt lat="44.5756626" lon="5.1231549"><ele>603.0</ele><time>2026-05-01T14:18:52.366Z</time></trkpt><trkpt lat="44.575546" lon="5.1230902"><ele>603.0</ele><time>2026-05-01T14:18:53.365Z</time></trkpt><trkpt lat="44.575441" lon="5.122987"><ele>603.0</ele><time>2026-05-01T14:18:54.365Z</time></trkpt><trkpt lat="44.575336" lon="5.1228508"><ele>603.0</ele><time>2026-05-01T14:18:55.365Z</time></trkpt><trkpt lat="44.5752262" lon="5.1226966"><ele>603.0</ele><time>2026-05-01T14:18:56.365Z</time></trkpt><trkpt lat="44.5751129" lon="5.1225244"><ele>607.75</ele><time>2026-05-01T14:18:57.366Z</time></trkpt><trkpt lat="44.5750091" lon="5.1223691"><ele>612.5</ele><time>2026-05-01T14:18:58.365Z</time></trkpt><trkpt lat="44.5749066" lon="5.1222412"><ele>617.25</ele><time>2026-05-01T14:18:59.365Z</time></trkpt><trkpt lat="44.5747866" lon="5.1221392"><ele>622.0</ele><time>2026-05-01T14:19:00.365Z</time></trkpt><trkpt lat="44.5746493" lon="5.1220654"><ele>620.3333333333334</ele><time>2026-05-01T14:19:01.365Z</time></trkpt><trkpt lat="44.5745011" lon="5.121998"><ele>618.6666666666666</ele><time>2026-05-01T14:19:02.366Z</time></trkpt><trkpt lat="44.5743453" lon="5.1219261"><ele>617.0</ele><time>2026-05-01T14:19:03.365Z</time></trkpt><trkpt lat="44.5741872" lon="5.1218555"><ele>617.0</ele><time>2026-05-01T14:19:04.365Z</time></trkpt><trkpt lat="44.5740429" lon="5.1217873"><ele>617.0</ele><time>2026-05-01T14:19:05.365Z</time></trkpt><trkpt lat="44.5739158" lon="5.1216948"><ele>617.0</ele><time>2026-05-01T14:19:06.366Z</time></trkpt><trkpt lat="44.5737912" lon="5.1215737"><ele>617.0</ele><time>2026-05-01T14:19:07.365Z</time></trkpt><trkpt lat="44.5736545" lon="5.1214542"><ele>620.0</ele><time>2026-05-01T14:19:08.365Z</time></trkpt><trkpt lat="44.5735076" lon="5.1213559"><ele>623.0</ele><time>2026-05-01T14:19:09.365Z</time></trkpt><trkpt lat="44.5733486" lon="5.1212689"><ele>626.0</ele><time>2026-05-01T14:19:10.365Z</time></trkpt><trkpt lat="44.5731852" lon="5.121188"><ele>626.0</ele><time>2026-05-01T14:19:11.365Z</time></trkpt><trkpt lat="44.5730232" lon="5.1211015"><ele>626.0</ele><time>2026-05-01T14:19:12.366Z</time></trkpt><trkpt lat="44.5728725" lon="5.1210131"><ele>626.0</ele><time>2026-05-01T14:19:13.365Z</time></trkpt><trkpt lat="44.5727346" lon="5.120932"><ele>625.8</ele><time>2026-05-01T14:19:14.365Z</time></trkpt><trkpt lat="44.5726119" lon="5.1208473"><ele>625.6</ele><time>2026-05-01T14:19:15.365Z</time></trkpt><trkpt lat="44.5725132" lon="5.1207777"><ele>625.4</ele><time>2026-05-01T14:19:16.365Z</time></trkpt><trkpt lat="44.57242" lon="5.1207482"><ele>625.2</ele><time>2026-05-01T14:19:17.365Z</time></trkpt><trkpt lat="44.5723355" lon="5.120766"><ele>625.0</ele><time>2026-05-01T14:19:18.365Z</time></trkpt><trkpt lat="44.5722551" lon="5.1208289"><ele>625.0</ele><time>2026-05-01T14:19:19.365Z</time></trkpt><trkpt lat="44.572163" lon="5.1209248"><ele>625.0</ele><time>2026-05-01T14:19:20.365Z</time></trkpt><trkpt lat="44.5720696" lon="5.1210486"><ele>625.0</ele><time>2026-05-01T14:19:21.365Z</time></trkpt><trkpt lat="44.5719804" lon="5.121183"><ele>625.0</ele><time>2026-05-01T14:19:22.365Z</time></trkpt><trkpt lat="44.571896" lon="5.1213124"><ele>627.4</ele><time>2026-05-01T14:19:23.365Z</time></trkpt><trkpt lat="44.5718056" lon="5.1214124"><ele>629.8</ele><time>2026-05-01T14:19:24.365Z</time></trkpt><trkpt lat="44.5717109" lon="5.1214732"><ele>632.2</ele><time>2026-05-01T14:19:25.365Z</time></trkpt><trkpt lat="44.5716077" lon="5.121488"><ele>634.6</ele><time>2026-05-01T14:19:26.365Z</time></trkpt><trkpt lat="44.5715089" lon="5.1214499"><ele>637.0</ele><time>2026-05-01T14:19:27.366Z</time></trkpt><trkpt lat="44.5714001" lon="5.1213684"><ele>637.0</ele><time>2026-05-01T14:19:28.365Z</time></trkpt><trkpt lat="44.5712767" lon="5.1212673"><ele>637.0</ele><time>2026-05-01T14:19:29.366Z</time></trkpt><trkpt lat="44.5711388" lon="5.1211805"><ele>637.0</ele><time>2026-05-01T14:19:30.365Z</time></trkpt><trkpt lat="44.5709974" lon="5.1211105"><ele>637.0</ele><time>2026-05-01T14:19:31.365Z</time></trkpt><trkpt lat="44.5708641" lon="5.1210744"><ele>638.6666666666667</ele><time>2026-05-01T14:19:32.366Z</time></trkpt><trkpt lat="44.5707207" lon="5.1210817"><ele>640.3333333333334</ele><time>2026-05-01T14:19:33.365Z</time></trkpt><trkpt lat="44.5705678" lon="5.1211303"><ele>642.0</ele><time>2026-05-01T14:19:34.365Z</time></trkpt><trkpt lat="44.570406" lon="5.1211951"><ele>645.6666666666666</ele><time>2026-05-01T14:19:35.365Z</time></trkpt><trkpt lat="44.5702446" lon="5.1212851"><ele>649.3333333333333</ele><time>2026-05-01T14:19:36.365Z</time></trkpt><trkpt lat="44.5700919" lon="5.121415"><ele>653.0</ele><time>2026-05-01T14:19:37.365Z</time></trkpt><trkpt lat="44.5699411" lon="5.1215485"><ele>652.6666666666666</ele><time>2026-05-01T14:19:38.365Z</time></trkpt><trkpt lat="44.5697858" lon="5.1216593"><ele>652.3333333333334</ele><time>2026-05-01T14:19:39.365Z</time></trkpt><trkpt lat="44.5696155" lon="5.1217521"><ele>652.0</ele><time>2026-05-01T14:19:40.365Z</time></trkpt><trkpt lat="44.5694441" lon="5.1218502"><ele>652.0</ele><time>2026-05-01T14:19:41.365Z</time></trkpt><trkpt lat="44.5692779" lon="5.1219749"><ele>652.0</ele><time>2026-05-01T14:19:42.365Z</time></trkpt><trkpt lat="44.5691247" lon="5.1221091"><ele>652.0</ele><time>2026-05-01T14:19:43.365Z</time></trkpt><trkpt lat="44.5689769" lon="5.1222349"><ele>652.0</ele><time>2026-05-01T14:19:44.365Z</time></trkpt><trkpt lat="44.5688275" lon="5.1223265"><ele>652.0</ele><time>2026-05-01T14:19:45.367Z</time></trkpt><trkpt lat="44.5686793" lon="5.1223887"><ele>652.0</ele><time>2026-05-01T14:19:46.365Z</time></trkpt><trkpt lat="44.5685246" lon="5.1224202"><ele>649.3333333333334</ele><time>2026-05-01T14:19:47.365Z</time></trkpt><trkpt lat="44.5683647" lon="5.1224232"><ele>646.6666666666666</ele><time>2026-05-01T14:19:48.365Z</time></trkpt><trkpt lat="44.5682043" lon="5.1224088"><ele>644.0</ele><time>2026-05-01T14:19:49.365Z</time></trkpt><trkpt lat="44.5680434" lon="5.1223814"><ele>649.3333333333333</ele><time>2026-05-01T14:19:50.365Z</time></trkpt><trkpt lat="44.5678845" lon="5.1223422"><ele>654.6666666666666</ele><time>2026-05-01T14:19:51.365Z</time></trkpt><trkpt lat="44.5677195" lon="5.1222781"><ele>660.0</ele><time>2026-05-01T14:19:52.365Z</time></trkpt><trkpt lat="44.5675466" lon="5.1221943"><ele>661.6666666666666</ele><time>2026-05-01T14:19:53.365Z</time></trkpt><trkpt lat="44.5673656" lon="5.1221228"><ele>663.3333333333333</ele><time>2026-05-01T14:19:54.366Z</time></trkpt><trkpt lat="44.5671962" lon="5.1220566"><ele>665.0</ele><time>2026-05-01T14:19:55.365Z</time></trkpt><trkpt lat="44.5670428" lon="5.1219706"><ele>664.3333333333333</ele><time>2026-05-01T14:19:56.365Z</time></trkpt><trkpt lat="44.566884" lon="5.1218621"><ele>663.6666666666666</ele><time>2026-05-01T14:19:57.365Z</time></trkpt><trkpt lat="44.5667135" lon="5.1217476"><ele>663.0</ele><time>2026-05-01T14:19:58.365Z</time></trkpt><trkpt lat="44.5665335" lon="5.1216305"><ele>664.6666666666666</ele><time>2026-05-01T14:19:59.365Z</time></trkpt><trkpt lat="44.5663644" lon="5.1215242"><ele>666.3333333333333</ele><time>2026-05-01T14:20:00.366Z</time></trkpt><trkpt lat="44.5662117" lon="5.1214265"><ele>668.0</ele><time>2026-05-01T14:20:01.365Z</time></trkpt><trkpt lat="44.5660833" lon="5.1213428"><ele>668.0</ele><time>2026-05-01T14:20:02.365Z</time></trkpt><trkpt lat="44.5659747" lon="5.1212561"><ele>668.0</ele><time>2026-05-01T14:20:03.365Z</time></trkpt><trkpt lat="44.5658755" lon="5.1211484"><ele>668.0</ele><time>2026-05-01T14:20:04.365Z</time></trkpt><trkpt lat="44.5657891" lon="5.1210154"><ele>668.0</ele><time>2026-05-01T14:20:05.366Z</time></trkpt><trkpt lat="44.5657204" lon="5.1208499"><ele>671.75</ele><time>2026-05-01T14:20:06.365Z</time></trkpt><trkpt lat="44.565654" lon="5.1206636"><ele>675.5</ele><time>2026-05-01T14:20:07.365Z</time></trkpt><trkpt lat="44.5655822" lon="5.1204808"><ele>679.25</ele><time>2026-05-01T14:20:08.366Z</time></trkpt><trkpt lat="44.5655063" lon="5.1203086"><ele>683.0</ele><time>2026-05-01T14:20:09.365Z</time></trkpt><trkpt lat="44.5654221" lon="5.1201558"><ele>684.5</ele><time>2026-05-01T14:20:10.365Z</time></trkpt><trkpt lat="44.5653299" lon="5.1200338"><ele>686.0</ele><time>2026-05-01T14:20:11.365Z</time></trkpt><trkpt lat="44.5652223" lon="5.119932"><ele>687.5</ele><time>2026-05-01T14:20:12.365Z</time></trkpt><trkpt lat="44.5650917" lon="5.1198496"><ele>689.0</ele><time>2026-05-01T14:20:13.365Z</time></trkpt><trkpt lat="44.5649455" lon="5.1197764"><ele>689.0</ele><time>2026-05-01T14:20:14.365Z</time></trkpt><trkpt lat="44.5647934" lon="5.119701"><ele>689.0</ele><time>2026-05-01T14:20:15.365Z</time></trkpt><trkpt lat="44.5646361" lon="5.1196202"><ele>689.0</ele><time>2026-05-01T14:20:16.365Z</time></trkpt><trkpt lat="44.5644726" lon="5.1195498"><ele>689.6666666666666</ele><time>2026-05-01T14:20:17.365Z</time></trkpt><trkpt lat="44.5643098" lon="5.1195029"><ele>690.3333333333334</ele><time>2026-05-01T14:20:18.365Z</time></trkpt><trkpt lat="44.5641534" lon="5.1194845"><ele>691.0</ele><time>2026-05-01T14:20:19.365Z</time></trkpt><trkpt lat="44.5640055" lon="5.1194539"><ele>691.0</ele><time>2026-05-01T14:20:20.365Z</time></trkpt><trkpt lat="44.5638619" lon="5.1194055"><ele>691.0</ele><time>2026-05-01T14:20:21.366Z</time></trkpt><trkpt lat="44.5637224" lon="5.1193542"><ele>691.0</ele><time>2026-05-01T14:20:22.365Z</time></trkpt><trkpt lat="44.5635861" lon="5.1192987"><ele>691.0</ele><time>2026-05-01T14:20:23.366Z</time></trkpt><trkpt lat="44.5634474" lon="5.1192419"><ele>690.75</ele><time>2026-05-01T14:20:24.365Z</time></trkpt><trkpt lat="44.5633063" lon="5.1191873"><ele>690.5</ele><time>2026-05-01T14:20:25.365Z</time></trkpt><trkpt lat="44.563171" lon="5.1191305"><ele>690.25</ele><time>2026-05-01T14:20:26.365Z</time></trkpt><trkpt lat="44.5630425" lon="5.1190765"><ele>690.0</ele><time>2026-05-01T14:20:27.365Z</time></trkpt><trkpt lat="44.5629177" lon="5.1190167"><ele>693.5</ele><time>2026-05-01T14:20:28.365Z</time></trkpt><trkpt lat="44.5627997" lon="5.1189445"><ele>697.0</ele><time>2026-05-01T14:20:29.366Z</time></trkpt><trkpt lat="44.5626821" lon="5.1188692"><ele>700.5</ele><time>2026-05-01T14:20:30.365Z</time></trkpt><trkpt lat="44.5625672" lon="5.1187919"><ele>704.0</ele><time>2026-05-01T14:20:31.366Z</time></trkpt><trkpt lat="44.5624503" lon="5.1187195"><ele>704.0</ele><time>2026-05-01T14:20:32.365Z</time></trkpt><trkpt lat="44.5623271" lon="5.1186606"><ele>704.0</ele><time>2026-05-01T14:20:33.365Z</time></trkpt><trkpt lat="44.5622044" lon="5.1186189"><ele>704.0</ele><time>2026-05-01T14:20:34.365Z</time></trkpt><trkpt lat="44.5620801" lon="5.1185878"><ele>704.0</ele><time>2026-05-01T14:20:35.366Z</time></trkpt><trkpt lat="44.5619535" lon="5.118565"><ele>703.25</ele><time>2026-05-01T14:20:36.365Z</time></trkpt><trkpt lat="44.5618233" lon="5.1185449"><ele>702.5</ele><time>2026-05-01T14:20:37.365Z</time></trkpt><trkpt lat="44.5616917" lon="5.1185278"><ele>701.75</ele><time>2026-05-01T14:20:38.365Z</time></trkpt><trkpt lat="44.5615569" lon="5.1184995"><ele>701.0</ele><time>2026-05-01T14:20:39.365Z</time></trkpt><trkpt lat="44.5614298" lon="5.1184572"><ele>701.0</ele><time>2026-05-01T14:20:40.366Z</time></trkpt><trkpt lat="44.5613106" lon="5.1184076"><ele>701.0</ele><time>2026-05-01T14:20:41.365Z</time></trkpt><trkpt lat="44.5612014" lon="5.1183587"><ele>701.0</ele><time>2026-05-01T14:20:42.365Z</time></trkpt><trkpt lat="44.5611082" lon="5.1183156"><ele>701.0</ele><time>2026-05-01T14:20:43.365Z</time></trkpt><trkpt lat="44.5610343" lon="5.1182794"><ele>701.0</ele><time>2026-05-01T14:20:44.365Z</time></trkpt><trkpt lat="44.5609671" lon="5.1182471"><ele>701.5</ele><time>2026-05-01T14:20:45.365Z</time></trkpt><trkpt lat="44.5609081" lon="5.1182137"><ele>702.0</ele><time>2026-05-01T14:20:46.365Z</time></trkpt><trkpt lat="44.5607951" lon="5.118135"><ele>702.5</ele><time>2026-05-01T14:20:48.367Z</time></trkpt><trkpt lat="44.5607251" lon="5.1180957"><ele>703.0</ele><time>2026-05-01T14:20:49.366Z</time></trkpt><trkpt lat="44.5606432" lon="5.1180603"><ele>703.5</ele><time>2026-05-01T14:20:50.365Z</time></trkpt><trkpt lat="44.5605496" lon="5.1180259"><ele>704.0</ele><time>2026-05-01T14:20:51.366Z</time></trkpt><trkpt lat="44.5604451" lon="5.1179886"><ele>703.5</ele><time>2026-05-01T14:20:52.365Z</time></trkpt><trkpt lat="44.5603311" lon="5.1179526"><ele>703.0</ele><time>2026-05-01T14:20:53.365Z</time></trkpt><trkpt lat="44.5602076" lon="5.1179319"><ele>702.5</ele><time>2026-05-01T14:20:54.365Z</time></trkpt><trkpt lat="44.5600783" lon="5.1179178"><ele>702.0</ele><time>2026-05-01T14:20:55.365Z</time></trkpt><trkpt lat="44.5599447" lon="5.1178984"><ele>702.0</ele><time>2026-05-01T14:20:56.365Z</time></trkpt><trkpt lat="44.5598151" lon="5.1178624"><ele>702.0</ele><time>2026-05-01T14:20:57.365Z</time></trkpt><trkpt lat="44.5596958" lon="5.1178098"><ele>702.0</ele><time>2026-05-01T14:20:58.365Z</time></trkpt><trkpt lat="44.559584" lon="5.1177473"><ele>702.0</ele><time>2026-05-01T14:20:59.366Z</time></trkpt><trkpt lat="44.5594866" lon="5.117665"><ele>701.25</ele><time>2026-05-01T14:21:00.365Z</time></trkpt><trkpt lat="44.5594162" lon="5.1175565"><ele>700.5</ele><time>2026-05-01T14:21:01.365Z</time></trkpt><trkpt lat="44.5593723" lon="5.1174218"><ele>699.75</ele><time>2026-05-01T14:21:02.365Z</time></trkpt><trkpt lat="44.559341" lon="5.1172601"><ele>699.0</ele><time>2026-05-01T14:21:03.365Z</time></trkpt><trkpt lat="44.5593034" lon="5.1170864"><ele>698.75</ele><time>2026-05-01T14:21:04.365Z</time></trkpt><trkpt lat="44.5592386" lon="5.1169174"><ele>698.5</ele><time>2026-05-01T14:21:05.366Z</time></trkpt><trkpt lat="44.5591462" lon="5.1167552"><ele>698.25</ele><time>2026-05-01T14:21:06.365Z</time></trkpt><trkpt lat="44.5590357" lon="5.1165968"><ele>698.0</ele><time>2026-05-01T14:21:07.365Z</time></trkpt><trkpt lat="44.5589154" lon="5.1164407"><ele>697.0</ele><time>2026-05-01T14:21:08.365Z</time></trkpt><trkpt lat="44.5587926" lon="5.1162854"><ele>696.0</ele><time>2026-05-01T14:21:09.365Z</time></trkpt><trkpt lat="44.5586695" lon="5.1161302"><ele>695.0</ele><time>2026-05-01T14:21:10.365Z</time></trkpt><trkpt lat="44.5585469" lon="5.1159741"><ele>693.6666666666666</ele><time>2026-05-01T14:21:11.365Z</time></trkpt><trkpt lat="44.5584292" lon="5.1158174"><ele>692.3333333333334</ele><time>2026-05-01T14:21:12.365Z</time></trkpt><trkpt lat="44.5583285" lon="5.115646"><ele>691.0</ele><time>2026-05-01T14:21:13.365Z</time></trkpt><trkpt lat="44.5582538" lon="5.1154554"><ele>690.0</ele><time>2026-05-01T14:21:14.365Z</time></trkpt><trkpt lat="44.5581974" lon="5.1152406"><ele>689.0</ele><time>2026-05-01T14:21:15.365Z</time></trkpt><trkpt lat="44.5581462" lon="5.1150135"><ele>688.0</ele><time>2026-05-01T14:21:16.366Z</time></trkpt><trkpt lat="44.5580984" lon="5.1148094"><ele>687.5</ele><time>2026-05-01T14:21:17.365Z</time></trkpt><trkpt lat="44.5580577" lon="5.1146342"><ele>687.0</ele><time>2026-05-01T14:21:18.367Z</time></trkpt><trkpt lat="44.55801" lon="5.1144796"><ele>686.5</ele><time>2026-05-01T14:21:19.365Z</time></trkpt><trkpt lat="44.5579388" lon="5.1143433"><ele>686.0</ele><time>2026-05-01T14:21:20.365Z</time></trkpt><trkpt lat="44.5578404" lon="5.1142036"><ele>683.6666666666666</ele><time>2026-05-01T14:21:21.365Z</time></trkpt><trkpt lat="44.5577265" lon="5.1140581"><ele>681.3333333333334</ele><time>2026-05-01T14:21:22.366Z</time></trkpt><trkpt lat="44.5575954" lon="5.1139079"><ele>679.0</ele><time>2026-05-01T14:21:23.365Z</time></trkpt><trkpt lat="44.5574432" lon="5.1137652"><ele>679.0</ele><time>2026-05-01T14:21:24.365Z</time></trkpt><trkpt lat="44.5572743" lon="5.1136264"><ele>679.0</ele><time>2026-05-01T14:21:25.366Z</time></trkpt><trkpt lat="44.5570968" lon="5.1134887"><ele>679.0</ele><time>2026-05-01T14:21:26.365Z</time></trkpt><trkpt lat="44.5569223" lon="5.1133556"><ele>678.3333333333334</ele><time>2026-05-01T14:21:27.365Z</time></trkpt><trkpt lat="44.5567518" lon="5.1132295"><ele>677.6666666666666</ele><time>2026-05-01T14:21:28.366Z</time></trkpt><trkpt lat="44.5565744" lon="5.1131048"><ele>677.0</ele><time>2026-05-01T14:21:29.365Z</time></trkpt><trkpt lat="44.5563983" lon="5.1129889"><ele>677.0</ele><time>2026-05-01T14:21:30.366Z</time></trkpt><trkpt lat="44.5562215" lon="5.1128796"><ele>677.0</ele><time>2026-05-01T14:21:31.365Z</time></trkpt><trkpt lat="44.5560488" lon="5.1127705"><ele>677.0</ele><time>2026-05-01T14:21:32.365Z</time></trkpt><trkpt lat="44.5558836" lon="5.1126642"><ele>677.0</ele><time>2026-05-01T14:21:33.365Z</time></trkpt><trkpt lat="44.5557238" lon="5.1125624"><ele>677.0</ele><time>2026-05-01T14:21:34.365Z</time></trkpt><trkpt lat="44.5555688" lon="5.1124636"><ele>677.0</ele><time>2026-05-01T14:21:35.366Z</time></trkpt><trkpt lat="44.5554199" lon="5.1123643"><ele>675.6666666666666</ele><time>2026-05-01T14:21:36.365Z</time></trkpt><trkpt lat="44.5552708" lon="5.1122647"><ele>674.3333333333334</ele><time>2026-05-01T14:21:37.367Z</time></trkpt><trkpt lat="44.5551227" lon="5.1121655"><ele>673.0</ele><time>2026-05-01T14:21:38.365Z</time></trkpt><trkpt lat="44.5549816" lon="5.1120707"><ele>673.0</ele><time>2026-05-01T14:21:39.365Z</time></trkpt><trkpt lat="44.5548463" lon="5.1119789"><ele>673.0</ele><time>2026-05-01T14:21:40.365Z</time></trkpt><trkpt lat="44.5547159" lon="5.1118913"><ele>673.0</ele><time>2026-05-01T14:21:41.365Z</time></trkpt><trkpt lat="44.5545902" lon="5.1118093"><ele>673.0</ele><time>2026-05-01T14:21:42.365Z</time></trkpt><trkpt lat="44.5544697" lon="5.1117307"><ele>673.25</ele><time>2026-05-01T14:21:43.365Z</time></trkpt><trkpt lat="44.5543545" lon="5.1116539"><ele>673.5</ele><time>2026-05-01T14:21:44.365Z</time></trkpt><trkpt lat="44.5542443" lon="5.1115793"><ele>673.75</ele><time>2026-05-01T14:21:45.365Z</time></trkpt><trkpt lat="44.554138" lon="5.1115077"><ele>674.0</ele><time>2026-05-01T14:21:46.366Z</time></trkpt><trkpt lat="44.5540312" lon="5.1114379"><ele>673.25</ele><time>2026-05-01T14:21:47.365Z</time></trkpt><trkpt lat="44.5539136" lon="5.1113614"><ele>672.5</ele><time>2026-05-01T14:21:48.366Z</time></trkpt><trkpt lat="44.5537897" lon="5.1112816"><ele>671.75</ele><time>2026-05-01T14:21:49.365Z</time></trkpt><trkpt lat="44.5536612" lon="5.1111931"><ele>671.0</ele><time>2026-05-01T14:21:50.365Z</time></trkpt><trkpt lat="44.5535275" lon="5.1111016"><ele>671.0</ele><time>2026-05-01T14:21:51.365Z</time></trkpt><trkpt lat="44.5533913" lon="5.111008"><ele>671.0</ele><time>2026-05-01T14:21:52.365Z</time></trkpt><trkpt lat="44.5532683" lon="5.110922"><ele>671.0</ele><time>2026-05-01T14:21:53.365Z</time></trkpt><trkpt lat="44.5531625" lon="5.1108591"><ele>671.0</ele><time>2026-05-01T14:21:54.365Z</time></trkpt><trkpt lat="44.5530662" lon="5.1108306"><ele>671.0</ele><time>2026-05-01T14:21:55.365Z</time></trkpt><trkpt lat="44.5529836" lon="5.110843"><ele>671.0</ele><time>2026-05-01T14:21:56.365Z</time></trkpt><trkpt lat="44.5529148" lon="5.1108919"><ele>671.0</ele><time>2026-05-01T14:21:57.365Z</time></trkpt><trkpt lat="44.5528562" lon="5.1109806"><ele>671.0</ele><time>2026-05-01T14:21:58.365Z</time></trkpt><trkpt lat="44.5528016" lon="5.11111"><ele>671.0</ele><time>2026-05-01T14:21:59.365Z</time></trkpt><trkpt lat="44.5527481" lon="5.1112762"><ele>670.0</ele><time>2026-05-01T14:22:00.365Z</time></trkpt><trkpt lat="44.5526851" lon="5.1114771"><ele>669.0</ele><time>2026-05-01T14:22:01.365Z</time></trkpt><trkpt lat="44.5526108" lon="5.1116989"><ele>668.0</ele><time>2026-05-01T14:22:02.365Z</time></trkpt><trkpt lat="44.5525325" lon="5.1119315"><ele>670.0</ele><time>2026-05-01T14:22:03.365Z</time></trkpt><trkpt lat="44.5524585" lon="5.1121575"><ele>672.0</ele><time>2026-05-01T14:22:04.365Z</time></trkpt><trkpt lat="44.552386" lon="5.112368"><ele>674.0</ele><time>2026-05-01T14:22:05.365Z</time></trkpt><trkpt lat="44.5523105" lon="5.1125485"><ele>673.0</ele><time>2026-05-01T14:22:06.365Z</time></trkpt><trkpt lat="44.5522292" lon="5.1127011"><ele>672.0</ele><time>2026-05-01T14:22:07.365Z</time></trkpt><trkpt lat="44.5521352" lon="5.1128257"><ele>671.0</ele><time>2026-05-01T14:22:08.365Z</time></trkpt><trkpt lat="44.5520262" lon="5.1129101"><ele>670.0</ele><time>2026-05-01T14:22:09.365Z</time></trkpt><trkpt lat="44.5519024" lon="5.1129783"><ele>670.0</ele><time>2026-05-01T14:22:10.365Z</time></trkpt><trkpt lat="44.5517721" lon="5.1130434"><ele>670.0</ele><time>2026-05-01T14:22:11.366Z</time></trkpt><trkpt lat="44.5516291" lon="5.1130985"><ele>670.0</ele><time>2026-05-01T14:22:12.365Z</time></trkpt><trkpt lat="44.5514766" lon="5.11314"><ele>670.0</ele><time>2026-05-01T14:22:13.365Z</time></trkpt><trkpt lat="44.5513144" lon="5.1131605"><ele>669.3333333333334</ele><time>2026-05-01T14:22:14.365Z</time></trkpt><trkpt lat="44.5511493" lon="5.1131766"><ele>668.6666666666666</ele><time>2026-05-01T14:22:15.366Z</time></trkpt><trkpt lat="44.5509897" lon="5.1131975"><ele>668.0</ele><time>2026-05-01T14:22:16.365Z</time></trkpt><trkpt lat="44.550838" lon="5.1132366"><ele>670.25</ele><time>2026-05-01T14:22:17.366Z</time></trkpt><trkpt lat="44.5507195" lon="5.1132974"><ele>672.5</ele><time>2026-05-01T14:22:18.365Z</time></trkpt><trkpt lat="44.5506143" lon="5.1133821"><ele>674.75</ele><time>2026-05-01T14:22:19.365Z</time></trkpt><trkpt lat="44.5505175" lon="5.1134893"><ele>677.0</ele><time>2026-05-01T14:22:20.365Z</time></trkpt><trkpt lat="44.5504214" lon="5.1136256"><ele>676.5</ele><time>2026-05-01T14:22:21.365Z</time></trkpt><trkpt lat="44.5503248" lon="5.113772"><ele>676.0</ele><time>2026-05-01T14:22:22.365Z</time></trkpt><trkpt lat="44.5502273" lon="5.1138932"><ele>675.5</ele><time>2026-05-01T14:22:23.366Z</time></trkpt><trkpt lat="44.5501274" lon="5.1139824"><ele>675.0</ele><time>2026-05-01T14:22:24.365Z</time></trkpt><trkpt lat="44.5500202" lon="5.1140249"><ele>675.0</ele><time>2026-05-01T14:22:25.365Z</time></trkpt><trkpt lat="44.5499107" lon="5.1140177"><ele>675.0</ele><time>2026-05-01T14:22:26.365Z</time></trkpt><trkpt lat="44.5497977" lon="5.1139707"><ele>675.0</ele><time>2026-05-01T14:22:27.364Z</time></trkpt><trkpt lat="44.5496792" lon="5.113896"><ele>675.0</ele><time>2026-05-01T14:22:28.365Z</time></trkpt><trkpt lat="44.5495683" lon="5.1137979"><ele>674.0</ele><time>2026-05-01T14:22:29.364Z</time></trkpt><trkpt lat="44.5494759" lon="5.1136661"><ele>673.0</ele><time>2026-05-01T14:22:30.366Z</time></trkpt><trkpt lat="44.5494057" lon="5.1135036"><ele>672.0</ele><time>2026-05-01T14:22:31.365Z</time></trkpt><trkpt lat="44.5493523" lon="5.1133333"><ele>671.0</ele><time>2026-05-01T14:22:32.365Z</time></trkpt><trkpt lat="44.5492917" lon="5.1131844"><ele>671.0</ele><time>2026-05-01T14:22:33.364Z</time></trkpt><trkpt lat="44.5492223" lon="5.1130667"><ele>671.0</ele><time>2026-05-01T14:22:34.365Z</time></trkpt><trkpt lat="44.5491484" lon="5.1129799"><ele>671.0</ele><time>2026-05-01T14:22:35.364Z</time></trkpt><trkpt lat="44.5490698" lon="5.1129306"><ele>671.0</ele><time>2026-05-01T14:22:36.364Z</time></trkpt><trkpt lat="44.5489829" lon="5.1129181"><ele>671.0</ele><time>2026-05-01T14:22:37.364Z</time></trkpt><trkpt lat="44.5488812" lon="5.1129273"><ele>671.0</ele><time>2026-05-01T14:22:38.364Z</time></trkpt><trkpt lat="44.5487617" lon="5.1129471"><ele>671.0</ele><time>2026-05-01T14:22:39.365Z</time></trkpt><trkpt lat="44.548627" lon="5.1129766"><ele>671.0</ele><time>2026-05-01T14:22:40.364Z</time></trkpt><trkpt lat="44.5484852" lon="5.1130166"><ele>671.0</ele><time>2026-05-01T14:22:41.364Z</time></trkpt><trkpt lat="44.548348" lon="5.1130607"><ele>671.25</ele><time>2026-05-01T14:22:42.364Z</time></trkpt><trkpt lat="44.5482171" lon="5.1131063"><ele>671.5</ele><time>2026-05-01T14:22:43.364Z</time></trkpt><trkpt lat="44.5480919" lon="5.1131586"><ele>671.75</ele><time>2026-05-01T14:22:44.364Z</time></trkpt><trkpt lat="44.5479747" lon="5.1132238"><ele>672.0</ele><time>2026-05-01T14:22:45.365Z</time></trkpt><trkpt lat="44.5478668" lon="5.1132841"><ele>671.8</ele><time>2026-05-01T14:22:46.364Z</time></trkpt><trkpt lat="44.5477665" lon="5.1133029"><ele>671.6</ele><time>2026-05-01T14:22:47.364Z</time></trkpt><trkpt lat="44.5476744" lon="5.1132636"><ele>671.4</ele><time>2026-05-01T14:22:48.364Z</time></trkpt><trkpt lat="44.5475976" lon="5.1131811"><ele>671.1999999999999</ele><time>2026-05-01T14:22:49.365Z</time></trkpt><trkpt lat="44.5475261" lon="5.1130768"><ele>671.0</ele><time>2026-05-01T14:22:50.364Z</time></trkpt><trkpt lat="44.5474525" lon="5.1129562"><ele>671.0</ele><time>2026-05-01T14:22:51.364Z</time></trkpt><trkpt lat="44.5473501" lon="5.1128631"><ele>671.0</ele><time>2026-05-01T14:22:52.364Z</time></trkpt><trkpt lat="44.5472314" lon="5.1127762"><ele>671.0</ele><time>2026-05-01T14:22:53.364Z</time></trkpt><trkpt lat="44.5471016" lon="5.1126874"><ele>671.0</ele><time>2026-05-01T14:22:54.364Z</time></trkpt><trkpt lat="44.5469601" lon="5.1125924"><ele>667.6666666666666</ele><time>2026-05-01T14:22:55.365Z</time></trkpt><trkpt lat="44.5468136" lon="5.1124818"><ele>664.3333333333334</ele><time>2026-05-01T14:22:56.364Z</time></trkpt><trkpt lat="44.5466729" lon="5.1123664"><ele>661.0</ele><time>2026-05-01T14:22:57.364Z</time></trkpt><trkpt lat="44.5465378" lon="5.1122513"><ele>661.0</ele><time>2026-05-01T14:22:58.364Z</time></trkpt><trkpt lat="44.5464071" lon="5.1121318"><ele>661.0</ele><time>2026-05-01T14:22:59.364Z</time></trkpt><trkpt lat="44.5462802" lon="5.1120162"><ele>661.0</ele><time>2026-05-01T14:23:00.364Z</time></trkpt><trkpt lat="44.5461585" lon="5.1119027"><ele>664.0</ele><time>2026-05-01T14:23:01.364Z</time></trkpt><trkpt lat="44.546044" lon="5.1118099"><ele>667.0</ele><time>2026-05-01T14:23:02.364Z</time></trkpt><trkpt lat="44.54593" lon="5.1117436"><ele>670.0</ele><time>2026-05-01T14:23:03.364Z</time></trkpt><trkpt lat="44.5458087" lon="5.1117021"><ele>673.0</ele><time>2026-05-01T14:23:04.364Z</time></trkpt><trkpt lat="44.5456871" lon="5.1116887"><ele>673.0</ele><time>2026-05-01T14:23:05.364Z</time></trkpt><trkpt lat="44.5455647" lon="5.1116878"><ele>673.0</ele><time>2026-05-01T14:23:06.365Z</time></trkpt><trkpt lat="44.5454399" lon="5.1116989"><ele>673.0</ele><time>2026-05-01T14:23:07.364Z</time></trkpt><trkpt lat="44.5453131" lon="5.1117167"><ele>673.0</ele><time>2026-05-01T14:23:08.364Z</time></trkpt><trkpt lat="44.5451829" lon="5.1117383"><ele>672.5</ele><time>2026-05-01T14:23:09.364Z</time></trkpt><trkpt lat="44.5450509" lon="5.1117721"><ele>672.0</ele><time>2026-05-01T14:23:10.364Z</time></trkpt><trkpt lat="44.5449189" lon="5.1118234"><ele>671.5</ele><time>2026-05-01T14:23:11.364Z</time></trkpt><trkpt lat="44.544783" lon="5.1118869"><ele>671.0</ele><time>2026-05-01T14:23:12.364Z</time></trkpt><trkpt lat="44.5446544" lon="5.1119699"><ele>668.25</ele><time>2026-05-01T14:23:13.365Z</time></trkpt><trkpt lat="44.5445356" lon="5.1120632"><ele>665.5</ele><time>2026-05-01T14:23:14.364Z</time></trkpt><trkpt lat="44.5444179" lon="5.1121517"><ele>662.75</ele><time>2026-05-01T14:23:15.364Z</time></trkpt><trkpt lat="44.5443017" lon="5.1122336"><ele>660.0</ele><time>2026-05-01T14:23:16.364Z</time></trkpt><trkpt lat="44.5441796" lon="5.1123054"><ele>660.0</ele><time>2026-05-01T14:23:17.366Z</time></trkpt><trkpt lat="44.544048" lon="5.1123517"><ele>660.0</ele><time>2026-05-01T14:23:18.364Z</time></trkpt><trkpt lat="44.5439138" lon="5.112388"><ele>660.0</ele><time>2026-05-01T14:23:19.364Z</time></trkpt><trkpt lat="44.5437817" lon="5.1124088"><ele>660.0</ele><time>2026-05-01T14:23:20.364Z</time></trkpt><trkpt lat="44.543652" lon="5.1124044"><ele>659.5</ele><time>2026-05-01T14:23:21.365Z</time></trkpt><trkpt lat="44.5435277" lon="5.1123726"><ele>659.0</ele><time>2026-05-01T14:23:22.364Z</time></trkpt><trkpt lat="44.543404" lon="5.1123033"><ele>658.5</ele><time>2026-05-01T14:23:23.364Z</time></trkpt><trkpt lat="44.5432796" lon="5.1122052"><ele>658.0</ele><time>2026-05-01T14:23:24.364Z</time></trkpt><trkpt lat="44.5431576" lon="5.1120947"><ele>658.0</ele><time>2026-05-01T14:23:25.364Z</time></trkpt><trkpt lat="44.5430411" lon="5.1119725"><ele>658.0</ele><time>2026-05-01T14:23:26.365Z</time></trkpt><trkpt lat="44.5429294" lon="5.1118287"><ele>658.0</ele><time>2026-05-01T14:23:27.364Z</time></trkpt><trkpt lat="44.5428222" lon="5.1116643"><ele>655.0</ele><time>2026-05-01T14:23:28.364Z</time></trkpt><trkpt lat="44.5427215" lon="5.111499"><ele>652.0</ele><time>2026-05-01T14:23:29.364Z</time></trkpt><trkpt lat="44.5426235" lon="5.1113331"><ele>649.0</ele><time>2026-05-01T14:23:30.365Z</time></trkpt><trkpt lat="44.5425291" lon="5.11117"><ele>649.0</ele><time>2026-05-01T14:23:31.364Z</time></trkpt><trkpt lat="44.5424425" lon="5.1110116"><ele>649.0</ele><time>2026-05-01T14:23:32.364Z</time></trkpt><trkpt lat="44.5423685" lon="5.110867"><ele>649.0</ele><time>2026-05-01T14:23:33.364Z</time></trkpt><trkpt lat="44.5423043" lon="5.1107166"><ele>649.0</ele><time>2026-05-01T14:23:34.364Z</time></trkpt><trkpt lat="44.542259" lon="5.1105554"><ele>648.5</ele><time>2026-05-01T14:23:35.365Z</time></trkpt><trkpt lat="44.5422421" lon="5.1103836"><ele>648.0</ele><time>2026-05-01T14:23:36.364Z</time></trkpt><trkpt lat="44.5422441" lon="5.1101946"><ele>647.5</ele><time>2026-05-01T14:23:37.364Z</time></trkpt><trkpt lat="44.5422485" lon="5.1100087"><ele>647.0</ele><time>2026-05-01T14:23:38.364Z</time></trkpt><trkpt lat="44.5422549" lon="5.1098295"><ele>646.4000000000001</ele><time>2026-05-01T14:23:39.364Z</time></trkpt><trkpt lat="44.5422617" lon="5.1096664"><ele>645.8000000000001</ele><time>2026-05-01T14:23:40.364Z</time></trkpt><trkpt lat="44.5422714" lon="5.109514"><ele>645.2</ele><time>2026-05-01T14:23:41.365Z</time></trkpt><trkpt lat="44.5422818" lon="5.1093673"><ele>644.6</ele><time>2026-05-01T14:23:42.364Z</time></trkpt><trkpt lat="44.5422906" lon="5.1092304"><ele>644.0</ele><time>2026-05-01T14:23:43.364Z</time></trkpt><trkpt lat="44.5422992" lon="5.1091103"><ele>643.2</ele><time>2026-05-01T14:23:44.364Z</time></trkpt><trkpt lat="44.5423051" lon="5.1089978"><ele>642.4000000000001</ele><time>2026-05-01T14:23:45.364Z</time></trkpt><trkpt lat="44.5423058" lon="5.1088961"><ele>641.6</ele><time>2026-05-01T14:23:46.364Z</time></trkpt><trkpt lat="44.542289" lon="5.1088079"><ele>640.8</ele><time>2026-05-01T14:23:47.364Z</time></trkpt><trkpt lat="44.5421903" lon="5.1087252"><ele>640.0</ele><time>2026-05-01T14:23:49.365Z</time></trkpt><trkpt lat="44.542079" lon="5.1088194"><ele>637.75</ele><time>2026-05-01T14:23:51.364Z</time></trkpt><trkpt lat="44.5420247" lon="5.1089258"><ele>635.5</ele><time>2026-05-01T14:23:52.364Z</time></trkpt><trkpt lat="44.5419653" lon="5.1090536"><ele>633.25</ele><time>2026-05-01T14:23:53.365Z</time></trkpt><trkpt lat="44.5418996" lon="5.1091973"><ele>631.0</ele><time>2026-05-01T14:23:54.365Z</time></trkpt><trkpt lat="44.5418329" lon="5.1093565"><ele>631.0</ele><time>2026-05-01T14:23:55.364Z</time></trkpt><trkpt lat="44.541768" lon="5.1095145"><ele>631.0</ele><time>2026-05-01T14:23:56.364Z</time></trkpt><trkpt lat="44.5417111" lon="5.1096722"><ele>631.0</ele><time>2026-05-01T14:23:57.364Z</time></trkpt><trkpt lat="44.5416581" lon="5.1098272"><ele>631.0</ele><time>2026-05-01T14:23:58.365Z</time></trkpt><trkpt lat="44.5416008" lon="5.1099638"><ele>632.0</ele><time>2026-05-01T14:23:59.364Z</time></trkpt><trkpt lat="44.5415333" lon="5.1100768"><ele>633.0</ele><time>2026-05-01T14:24:00.365Z</time></trkpt><trkpt lat="44.5414519" lon="5.1101622"><ele>634.0</ele><time>2026-05-01T14:24:01.364Z</time></trkpt><trkpt lat="44.5413601" lon="5.110207"><ele>635.0</ele><time>2026-05-01T14:24:02.364Z</time></trkpt><trkpt lat="44.5412601" lon="5.1102073"><ele>636.0</ele><time>2026-05-01T14:24:03.364Z</time></trkpt><trkpt lat="44.5411573" lon="5.1102021"><ele>634.0</ele><time>2026-05-01T14:24:04.364Z</time></trkpt><trkpt lat="44.5410386" lon="5.1101911"><ele>632.0</ele><time>2026-05-01T14:24:05.364Z</time></trkpt><trkpt lat="44.5409341" lon="5.1102064"><ele>630.0</ele><time>2026-05-01T14:24:06.365Z</time></trkpt><trkpt lat="44.5408407" lon="5.1102272"><ele>628.0</ele><time>2026-05-01T14:24:07.365Z</time></trkpt><trkpt lat="44.5407643" lon="5.1102808"><ele>626.0</ele><time>2026-05-01T14:24:08.364Z</time></trkpt><trkpt lat="44.5407074" lon="5.110366"><ele>626.0</ele><time>2026-05-01T14:24:09.364Z</time></trkpt><trkpt lat="44.5406838" lon="5.1104759"><ele>626.0</ele><time>2026-05-01T14:24:10.365Z</time></trkpt><trkpt lat="44.5406898" lon="5.1106071"><ele>626.0</ele><time>2026-05-01T14:24:11.364Z</time></trkpt><trkpt lat="44.5407153" lon="5.1107682"><ele>626.0</ele><time>2026-05-01T14:24:12.364Z</time></trkpt><trkpt lat="44.5407499" lon="5.110959"><ele>626.0</ele><time>2026-05-01T14:24:13.364Z</time></trkpt><trkpt lat="44.5407734" lon="5.1111526"><ele>626.5</ele><time>2026-05-01T14:24:14.364Z</time></trkpt><trkpt lat="44.5407771" lon="5.1113473"><ele>627.0</ele><time>2026-05-01T14:24:15.364Z</time></trkpt><trkpt lat="44.5407602" lon="5.111528"><ele>627.5</ele><time>2026-05-01T14:24:16.364Z</time></trkpt><trkpt lat="44.5407114" lon="5.1116823"><ele>628.0</ele><time>2026-05-01T14:24:17.364Z</time></trkpt><trkpt lat="44.5406342" lon="5.1118269"><ele>628.75</ele><time>2026-05-01T14:24:18.365Z</time></trkpt><trkpt lat="44.5405456" lon="5.1119732"><ele>629.5</ele><time>2026-05-01T14:24:19.364Z</time></trkpt><trkpt lat="44.5404777" lon="5.1121365"><ele>630.25</ele><time>2026-05-01T14:24:20.364Z</time></trkpt><trkpt lat="44.5404271" lon="5.1122978"><ele>631.0</ele><time>2026-05-01T14:24:21.364Z</time></trkpt><trkpt lat="44.5403611" lon="5.1124292"><ele>629.5</ele><time>2026-05-01T14:24:22.364Z</time></trkpt><trkpt lat="44.540267" lon="5.1125345"><ele>628.0</ele><time>2026-05-01T14:24:23.364Z</time></trkpt><trkpt lat="44.5401623" lon="5.1125984"><ele>626.5</ele><time>2026-05-01T14:24:24.364Z</time></trkpt><trkpt lat="44.5400501" lon="5.1126158"><ele>625.0</ele><time>2026-05-01T14:24:25.366Z</time></trkpt><trkpt lat="44.5399484" lon="5.1125919"><ele>625.0</ele><time>2026-05-01T14:24:26.365Z</time></trkpt><trkpt lat="44.5398627" lon="5.1125206"><ele>625.0</ele><time>2026-05-01T14:24:27.364Z</time></trkpt><trkpt lat="44.5397934" lon="5.1124063"><ele>625.0</ele><time>2026-05-01T14:24:28.364Z</time></trkpt><trkpt lat="44.5397463" lon="5.1122568"><ele>625.0</ele><time>2026-05-01T14:24:29.364Z</time></trkpt><trkpt lat="44.5397287" lon="5.1120782"><ele>622.75</ele><time>2026-05-01T14:24:30.364Z</time></trkpt><trkpt lat="44.5397289" lon="5.1118862"><ele>620.5</ele><time>2026-05-01T14:24:31.364Z</time></trkpt><trkpt lat="44.5397278" lon="5.1116985"><ele>618.25</ele><time>2026-05-01T14:24:32.364Z</time></trkpt><trkpt lat="44.5397252" lon="5.1115216"><ele>616.0</ele><time>2026-05-01T14:24:33.364Z</time></trkpt><trkpt lat="44.5397026" lon="5.1113552"><ele>616.5</ele><time>2026-05-01T14:24:34.364Z</time></trkpt><trkpt lat="44.5396773" lon="5.1111874"><ele>617.0</ele><time>2026-05-01T14:24:35.365Z</time></trkpt><trkpt lat="44.5395445" lon="5.1110532"><ele>617.5</ele><time>2026-05-01T14:24:36.364Z</time></trkpt><trkpt lat="44.5394352" lon="5.1109046"><ele>618.0</ele><time>2026-05-01T14:24:37.365Z</time></trkpt><trkpt lat="44.5393265" lon="5.110772"><ele>612.0</ele><time>2026-05-01T14:24:38.365Z</time></trkpt><trkpt lat="44.5392127" lon="5.1106528"><ele>606.0</ele><time>2026-05-01T14:24:39.364Z</time></trkpt><trkpt lat="44.5390922" lon="5.1105578"><ele>600.0</ele><time>2026-05-01T14:24:40.364Z</time></trkpt><trkpt lat="44.5389558" lon="5.1105009"><ele>594.0</ele><time>2026-05-01T14:24:41.364Z</time></trkpt><trkpt lat="44.5388046" lon="5.1104679"><ele>593.3333333333334</ele><time>2026-05-01T14:24:42.364Z</time></trkpt><trkpt lat="44.5386438" lon="5.1104518"><ele>592.6666666666667</ele><time>2026-05-01T14:24:43.364Z</time></trkpt><trkpt lat="44.5384821" lon="5.1104528"><ele>592.0</ele><time>2026-05-01T14:24:44.364Z</time></trkpt><trkpt lat="44.5383256" lon="5.1104672"><ele>592.0</ele><time>2026-05-01T14:24:45.364Z</time></trkpt><trkpt lat="44.5381702" lon="5.110507"><ele>592.0</ele><time>2026-05-01T14:24:46.365Z</time></trkpt><trkpt lat="44.5380171" lon="5.1105671"><ele>592.0</ele><time>2026-05-01T14:24:47.364Z</time></trkpt><trkpt lat="44.5378763" lon="5.1106338"><ele>593.8000000000001</ele><time>2026-05-01T14:24:48.364Z</time></trkpt><trkpt lat="44.5377556" lon="5.1106927"><ele>595.6</ele><time>2026-05-01T14:24:49.364Z</time></trkpt><trkpt lat="44.5376591" lon="5.1107551"><ele>597.4000000000001</ele><time>2026-05-01T14:24:50.364Z</time></trkpt><trkpt lat="44.5375926" lon="5.1108184"><ele>599.2</ele><time>2026-05-01T14:24:51.364Z</time></trkpt><trkpt lat="44.5374892" lon="5.1108763"><ele>601.0</ele><time>2026-05-01T14:24:53.364Z</time></trkpt><trkpt lat="44.5374325" lon="5.11079"><ele>597.2</ele><time>2026-05-01T14:24:55.364Z</time></trkpt><trkpt lat="44.5374901" lon="5.1106756"><ele>593.4000000000001</ele><time>2026-05-01T14:24:57.365Z</time></trkpt><trkpt lat="44.537559" lon="5.1106415"><ele>589.6</ele><time>2026-05-01T14:24:58.365Z</time></trkpt><trkpt lat="44.5376478" lon="5.1105992"><ele>585.8000000000001</ele><time>2026-05-01T14:24:59.365Z</time></trkpt><trkpt lat="44.5377541" lon="5.1105241"><ele>582.0</ele><time>2026-05-01T14:25:00.364Z</time></trkpt><trkpt lat="44.5378629" lon="5.1104137"><ele>584.5</ele><time>2026-05-01T14:25:01.364Z</time></trkpt><trkpt lat="44.5379716" lon="5.1102751"><ele>587.0</ele><time>2026-05-01T14:25:02.364Z</time></trkpt><trkpt lat="44.53809" lon="5.1101621"><ele>589.5</ele><time>2026-05-01T14:25:03.364Z</time></trkpt><trkpt lat="44.5382223" lon="5.1100915"><ele>592.0</ele><time>2026-05-01T14:25:04.365Z</time></trkpt><trkpt lat="44.5383559" lon="5.1100596"><ele>592.0</ele><time>2026-05-01T14:25:05.364Z</time></trkpt><trkpt lat="44.5384849" lon="5.1100521"><ele>592.0</ele><time>2026-05-01T14:25:06.365Z</time></trkpt><trkpt lat="44.538608" lon="5.1100511"><ele>592.0</ele><time>2026-05-01T14:25:07.364Z</time></trkpt><trkpt lat="44.5387136" lon="5.1100434"><ele>592.0</ele><time>2026-05-01T14:25:08.364Z</time></trkpt><trkpt lat="44.5387928" lon="5.1100155"><ele>592.0</ele><time>2026-05-01T14:25:09.364Z</time></trkpt><trkpt lat="44.5388618" lon="5.1098936"><ele>590.0</ele><time>2026-05-01T14:25:11.364Z</time></trkpt><trkpt lat="44.5388084" lon="5.1097743"><ele>588.0</ele><time>2026-05-01T14:25:13.364Z</time></trkpt><trkpt lat="44.5387433" lon="5.1097632"><ele>586.0</ele><time>2026-05-01T14:25:14.364Z</time></trkpt><trkpt lat="44.5386557" lon="5.1097884"><ele>584.0</ele><time>2026-05-01T14:25:15.364Z</time></trkpt><trkpt lat="44.5385483" lon="5.1098148"><ele>582.0</ele><time>2026-05-01T14:25:16.364Z</time></trkpt><trkpt lat="44.5384256" lon="5.1098158"><ele>579.25</ele><time>2026-05-01T14:25:17.364Z</time></trkpt><trkpt lat="44.538302" lon="5.1097814"><ele>576.5</ele><time>2026-05-01T14:25:18.364Z</time></trkpt><trkpt lat="44.5381897" lon="5.1097398"><ele>573.75</ele><time>2026-05-01T14:25:19.364Z</time></trkpt><trkpt lat="44.5380768" lon="5.1097161"><ele>571.0</ele><time>2026-05-01T14:25:20.365Z</time></trkpt><trkpt lat="44.5379639" lon="5.1097351"><ele>573.75</ele><time>2026-05-01T14:25:21.364Z</time></trkpt><trkpt lat="44.5378469" lon="5.1097924"><ele>576.5</ele><time>2026-05-01T14:25:22.364Z</time></trkpt><trkpt lat="44.537725" lon="5.1098738"><ele>579.25</ele><time>2026-05-01T14:25:23.364Z</time></trkpt><trkpt lat="44.537598" lon="5.1099481"><ele>582.0</ele><time>2026-05-01T14:25:24.364Z</time></trkpt><trkpt lat="44.5374663" lon="5.1099989"><ele>582.0</ele><time>2026-05-01T14:25:25.364Z</time></trkpt><trkpt lat="44.5373382" lon="5.110033"><ele>582.0</ele><time>2026-05-01T14:25:26.365Z</time></trkpt><trkpt lat="44.537215" lon="5.1100578"><ele>582.0</ele><time>2026-05-01T14:25:27.365Z</time></trkpt><trkpt lat="44.5371061" lon="5.1100886"><ele>582.0</ele><time>2026-05-01T14:25:28.364Z</time></trkpt><trkpt lat="44.5370135" lon="5.1101435"><ele>576.75</ele><time>2026-05-01T14:25:29.364Z</time></trkpt><trkpt lat="44.536933" lon="5.1102212"><ele>571.5</ele><time>2026-05-01T14:25:30.364Z</time></trkpt><trkpt lat="44.5368708" lon="5.1103263"><ele>566.25</ele><time>2026-05-01T14:25:31.364Z</time></trkpt><trkpt lat="44.5368259" lon="5.1104928"><ele>561.0</ele><time>2026-05-01T14:25:32.364Z</time></trkpt><trkpt lat="44.5367927" lon="5.1106801"><ele>563.25</ele><time>2026-05-01T14:25:33.364Z</time></trkpt><trkpt lat="44.536765" lon="5.1108651"><ele>565.5</ele><time>2026-05-01T14:25:34.364Z</time></trkpt><trkpt lat="44.5367423" lon="5.1110464"><ele>567.75</ele><time>2026-05-01T14:25:35.365Z</time></trkpt><trkpt lat="44.5367194" lon="5.1112034"><ele>570.0</ele><time>2026-05-01T14:25:36.365Z</time></trkpt><trkpt lat="44.5366888" lon="5.1113193"><ele>570.0</ele><time>2026-05-01T14:25:37.364Z</time></trkpt><trkpt lat="44.5366542" lon="5.1114022"><ele>570.0</ele><time>2026-05-01T14:25:38.364Z</time></trkpt><trkpt lat="44.5365639" lon="5.1114428"><ele>570.0</ele><time>2026-05-01T14:25:40.364Z</time></trkpt><trkpt lat="44.5365272" lon="5.1113303"><ele>570.0</ele><time>2026-05-01T14:25:42.365Z</time></trkpt><trkpt lat="44.5365459" lon="5.1112248"><ele>570.0</ele><time>2026-05-01T14:25:43.364Z</time></trkpt><trkpt lat="44.5365812" lon="5.1110868"><ele>570.0</ele><time>2026-05-01T14:25:44.364Z</time></trkpt><trkpt lat="44.5365813" lon="5.1109369"><ele>570.0</ele><time>2026-05-01T14:25:45.364Z</time></trkpt><trkpt lat="44.5365391" lon="5.1107632"><ele>570.0</ele><time>2026-05-01T14:25:46.365Z</time></trkpt><trkpt lat="44.5364858" lon="5.1105829"><ele>570.0</ele><time>2026-05-01T14:25:47.364Z</time></trkpt><trkpt lat="44.5364415" lon="5.1104081"><ele>570.0</ele><time>2026-05-01T14:25:48.364Z</time></trkpt><trkpt lat="44.5363853" lon="5.110244"><ele>568.2</ele><time>2026-05-01T14:25:49.364Z</time></trkpt><trkpt lat="44.5363117" lon="5.1100991"><ele>566.4</ele><time>2026-05-01T14:25:50.365Z</time></trkpt><trkpt lat="44.5362592" lon="5.1099574"><ele>564.6</ele><time>2026-05-01T14:25:51.364Z</time></trkpt><trkpt lat="44.5362487" lon="5.109818"><ele>562.8</ele><time>2026-05-01T14:25:52.364Z</time></trkpt><trkpt lat="44.5362703" lon="5.1096743"><ele>561.0</ele><time>2026-05-01T14:25:53.364Z</time></trkpt><trkpt lat="44.5363315" lon="5.1095284"><ele>557.5</ele><time>2026-05-01T14:25:54.364Z</time></trkpt><trkpt lat="44.5364228" lon="5.1093892"><ele>554.0</ele><time>2026-05-01T14:25:55.364Z</time></trkpt><trkpt lat="44.5365279" lon="5.1092584"><ele>550.5</ele><time>2026-05-01T14:25:56.364Z</time></trkpt><trkpt lat="44.5366275" lon="5.1091364"><ele>547.0</ele><time>2026-05-01T14:25:57.364Z</time></trkpt><trkpt lat="44.5367165" lon="5.1090283"><ele>546.6666666666667</ele><time>2026-05-01T14:25:58.364Z</time></trkpt><trkpt lat="44.5367876" lon="5.1089412"><ele>546.3333333333334</ele><time>2026-05-01T14:25:59.364Z</time></trkpt><trkpt lat="44.5368309" lon="5.1088614"><ele>546.0</ele><time>2026-05-01T14:26:00.364Z</time></trkpt><trkpt lat="44.5368406" lon="5.1087724"><ele>545.6666666666666</ele><time>2026-05-01T14:26:01.365Z</time></trkpt><trkpt lat="44.5368153" lon="5.1086891"><ele>545.3333333333333</ele><time>2026-05-01T14:26:02.364Z</time></trkpt><trkpt lat="44.5367526" lon="5.1086026"><ele>545.0</ele><time>2026-05-01T14:26:03.364Z</time></trkpt><trkpt lat="44.5366629" lon="5.108517"><ele>545.0</ele><time>2026-05-01T14:26:04.364Z</time></trkpt><trkpt lat="44.5365521" lon="5.1084231"><ele>545.0</ele><time>2026-05-01T14:26:05.364Z</time></trkpt><trkpt lat="44.5364249" lon="5.1083165"><ele>545.0</ele><time>2026-05-01T14:26:06.364Z</time></trkpt><trkpt lat="44.5362855" lon="5.1081992"><ele>545.0</ele><time>2026-05-01T14:26:07.364Z</time></trkpt><trkpt lat="44.5361406" lon="5.1080764"><ele>543.3333333333333</ele><time>2026-05-01T14:26:08.366Z</time></trkpt><trkpt lat="44.535995" lon="5.107954"><ele>541.6666666666666</ele><time>2026-05-01T14:26:09.364Z</time></trkpt><trkpt lat="44.5358514" lon="5.1078354"><ele>540.0</ele><time>2026-05-01T14:26:10.364Z</time></trkpt><trkpt lat="44.5357092" lon="5.1077201"><ele>540.0</ele><time>2026-05-01T14:26:11.365Z</time></trkpt><trkpt lat="44.5355687" lon="5.1076077"><ele>540.0</ele><time>2026-05-01T14:26:12.364Z</time></trkpt><trkpt lat="44.5354332" lon="5.1074853"><ele>540.0</ele><time>2026-05-01T14:26:13.364Z</time></trkpt><trkpt lat="44.5353019" lon="5.1073418"><ele>538.3333333333334</ele><time>2026-05-01T14:26:14.364Z</time></trkpt><trkpt lat="44.5351731" lon="5.1071793"><ele>536.6666666666667</ele><time>2026-05-01T14:26:15.364Z</time></trkpt><trkpt lat="44.5350445" lon="5.1070063"><ele>535.0</ele><time>2026-05-01T14:26:16.364Z</time></trkpt><trkpt lat="44.5349135" lon="5.1068266"><ele>535.0</ele><time>2026-05-01T14:26:17.364Z</time></trkpt><trkpt lat="44.5347778" lon="5.1066446"><ele>535.0</ele><time>2026-05-01T14:26:18.364Z</time></trkpt><trkpt lat="44.5346333" lon="5.1064711"><ele>535.0</ele><time>2026-05-01T14:26:19.365Z</time></trkpt><trkpt lat="44.5344767" lon="5.1063053"><ele>533.0</ele><time>2026-05-01T14:26:20.364Z</time></trkpt><trkpt lat="44.5343093" lon="5.1061488"><ele>531.0</ele><time>2026-05-01T14:26:21.365Z</time></trkpt><trkpt lat="44.5341434" lon="5.1060071"><ele>529.0</ele><time>2026-05-01T14:26:22.364Z</time></trkpt><trkpt lat="44.5339782" lon="5.1058661"><ele>527.6666666666667</ele><time>2026-05-01T14:26:23.364Z</time></trkpt><trkpt lat="44.5338138" lon="5.1057348"><ele>526.3333333333334</ele><time>2026-05-01T14:26:24.364Z</time></trkpt><trkpt lat="44.5336491" lon="5.1056079"><ele>525.0</ele><time>2026-05-01T14:26:25.364Z</time></trkpt><trkpt lat="44.5334849" lon="5.1054695"><ele>525.0</ele><time>2026-05-01T14:26:26.365Z</time></trkpt><trkpt lat="44.533324" lon="5.1053164"><ele>525.0</ele><time>2026-05-01T14:26:27.364Z</time></trkpt><trkpt lat="44.5331615" lon="5.1051444"><ele>525.0</ele><time>2026-05-01T14:26:28.364Z</time></trkpt><trkpt lat="44.5330021" lon="5.1049641"><ele>524.6666666666666</ele><time>2026-05-01T14:26:29.364Z</time></trkpt><trkpt lat="44.5328475" lon="5.1047928"><ele>524.3333333333333</ele><time>2026-05-01T14:26:30.364Z</time></trkpt><trkpt lat="44.5326972" lon="5.1046351"><ele>524.0</ele><time>2026-05-01T14:26:31.365Z</time></trkpt><trkpt lat="44.5325589" lon="5.1045004"><ele>524.0</ele><time>2026-05-01T14:26:32.364Z</time></trkpt><trkpt lat="44.5324264" lon="5.1043722"><ele>524.0</ele><time>2026-05-01T14:26:33.364Z</time></trkpt><trkpt lat="44.5323022" lon="5.104257"><ele>524.0</ele><time>2026-05-01T14:26:34.364Z</time></trkpt><trkpt lat="44.5321941" lon="5.104161"><ele>524.0</ele><time>2026-05-01T14:26:35.366Z</time></trkpt><trkpt lat="44.5320873" lon="5.1040743"><ele>523.25</ele><time>2026-05-01T14:26:36.365Z</time></trkpt><trkpt lat="44.5319893" lon="5.1039872"><ele>522.5</ele><time>2026-05-01T14:26:37.364Z</time></trkpt><trkpt lat="44.531894" lon="5.1038809"><ele>521.75</ele><time>2026-05-01T14:26:38.364Z</time></trkpt><trkpt lat="44.5318063" lon="5.1037459"><ele>521.0</ele><time>2026-05-01T14:26:39.364Z</time></trkpt><trkpt lat="44.5317458" lon="5.1035919"><ele>521.0</ele><time>2026-05-01T14:26:40.364Z</time></trkpt><trkpt lat="44.5317072" lon="5.1034063"><ele>521.0</ele><time>2026-05-01T14:26:41.365Z</time></trkpt><trkpt lat="44.5316874" lon="5.1031948"><ele>521.0</ele><time>2026-05-01T14:26:42.364Z</time></trkpt><trkpt lat="44.5316874" lon="5.1029606"><ele>520.6666666666666</ele><time>2026-05-01T14:26:43.365Z</time></trkpt><trkpt lat="44.5316749" lon="5.1027205"><ele>520.3333333333334</ele><time>2026-05-01T14:26:44.364Z</time></trkpt><trkpt lat="44.5316507" lon="5.1024779"><ele>520.0</ele><time>2026-05-01T14:26:45.364Z</time></trkpt><trkpt lat="44.5316184" lon="5.1022462"><ele>523.0</ele><time>2026-05-01T14:26:46.364Z</time></trkpt><trkpt lat="44.5315721" lon="5.1020141"><ele>526.0</ele><time>2026-05-01T14:26:47.364Z</time></trkpt><trkpt lat="44.5315044" lon="5.101785"><ele>529.0</ele><time>2026-05-01T14:26:48.364Z</time></trkpt><trkpt lat="44.5314162" lon="5.1015626"><ele>530.6666666666667</ele><time>2026-05-01T14:26:49.364Z</time></trkpt><trkpt lat="44.5313217" lon="5.1013318"><ele>532.3333333333334</ele><time>2026-05-01T14:26:50.365Z</time></trkpt><trkpt lat="44.5312289" lon="5.1010936"><ele>534.0</ele><time>2026-05-01T14:26:51.365Z</time></trkpt><trkpt lat="44.5311426" lon="5.1008644"><ele>527.3333333333334</ele><time>2026-05-01T14:26:52.364Z</time></trkpt><trkpt lat="44.5310611" lon="5.1006419"><ele>520.6666666666667</ele><time>2026-05-01T14:26:53.364Z</time></trkpt><trkpt lat="44.5309717" lon="5.1004339"><ele>514.0</ele><time>2026-05-01T14:26:54.364Z</time></trkpt><trkpt lat="44.5308756" lon="5.1002468"><ele>514.0</ele><time>2026-05-01T14:26:55.365Z</time></trkpt><trkpt lat="44.530784" lon="5.100049"><ele>514.0</ele><time>2026-05-01T14:26:56.364Z</time></trkpt><trkpt lat="44.5307058" lon="5.0998247"><ele>514.0</ele><time>2026-05-01T14:26:57.365Z</time></trkpt><trkpt lat="44.5306323" lon="5.0995906"><ele>517.6666666666667</ele><time>2026-05-01T14:26:58.364Z</time></trkpt><trkpt lat="44.5305334" lon="5.0993714"><ele>521.3333333333334</ele><time>2026-05-01T14:26:59.364Z</time></trkpt><trkpt lat="44.5304241" lon="5.0991669"><ele>525.0</ele><time>2026-05-01T14:27:00.365Z</time></trkpt><trkpt lat="44.530327" lon="5.098932"><ele>518.6666666666666</ele><time>2026-05-01T14:27:01.364Z</time></trkpt><trkpt lat="44.5302255" lon="5.0986912"><ele>512.3333333333333</ele><time>2026-05-01T14:27:02.364Z</time></trkpt><trkpt lat="44.5301048" lon="5.0984579"><ele>506.0</ele><time>2026-05-01T14:27:03.364Z</time></trkpt><trkpt lat="44.5299984" lon="5.0982138"><ele>506.0</ele><time>2026-05-01T14:27:04.365Z</time></trkpt><trkpt lat="44.5299035" lon="5.0979617"><ele>506.0</ele><time>2026-05-01T14:27:05.364Z</time></trkpt><trkpt lat="44.5298108" lon="5.0977176"><ele>506.0</ele><time>2026-05-01T14:27:06.365Z</time></trkpt><trkpt lat="44.5297253" lon="5.0974783"><ele>511.3333333333333</ele><time>2026-05-01T14:27:07.364Z</time></trkpt><trkpt lat="44.5296477" lon="5.0972439"><ele>516.6666666666666</ele><time>2026-05-01T14:27:08.364Z</time></trkpt><trkpt lat="44.5295732" lon="5.0970126"><ele>522.0</ele><time>2026-05-01T14:27:09.364Z</time></trkpt><trkpt lat="44.5294959" lon="5.0967786"><ele>514.3333333333334</ele><time>2026-05-01T14:27:10.364Z</time></trkpt><trkpt lat="44.5294073" lon="5.0965545"><ele>506.6666666666667</ele><time>2026-05-01T14:27:11.364Z</time></trkpt><trkpt lat="44.5292984" lon="5.0963526"><ele>499.0</ele><time>2026-05-01T14:27:12.364Z</time></trkpt><trkpt lat="44.5291787" lon="5.0961669"><ele>499.0</ele><time>2026-05-01T14:27:13.364Z</time></trkpt><trkpt lat="44.5290563" lon="5.0959858"><ele>499.0</ele><time>2026-05-01T14:27:14.364Z</time></trkpt><trkpt lat="44.5289386" lon="5.0958004"><ele>499.0</ele><time>2026-05-01T14:27:15.364Z</time></trkpt><trkpt lat="44.5288238" lon="5.0956106"><ele>493.6666666666667</ele><time>2026-05-01T14:27:16.364Z</time></trkpt><trkpt lat="44.5287096" lon="5.09542"><ele>488.33333333333337</ele><time>2026-05-01T14:27:17.364Z</time></trkpt><trkpt lat="44.5285967" lon="5.0952296"><ele>483.0</ele><time>2026-05-01T14:27:18.364Z</time></trkpt><trkpt lat="44.5284872" lon="5.0950455"><ele>486.66666666666663</ele><time>2026-05-01T14:27:19.364Z</time></trkpt><trkpt lat="44.5283834" lon="5.0948671"><ele>490.3333333333333</ele><time>2026-05-01T14:27:20.365Z</time></trkpt><trkpt lat="44.5282856" lon="5.0946917"><ele>494.0</ele><time>2026-05-01T14:27:21.364Z</time></trkpt><trkpt lat="44.5281938" lon="5.0945182"><ele>494.0</ele><time>2026-05-01T14:27:22.365Z</time></trkpt><trkpt lat="44.5281085" lon="5.0943471"><ele>494.0</ele><time>2026-05-01T14:27:23.364Z</time></trkpt><trkpt lat="44.5280252" lon="5.0941795"><ele>494.0</ele><time>2026-05-01T14:27:24.364Z</time></trkpt><trkpt lat="44.5279407" lon="5.0940141"><ele>494.0</ele><time>2026-05-01T14:27:25.364Z</time></trkpt><trkpt lat="44.5278561" lon="5.0938453"><ele>486.66666666666663</ele><time>2026-05-01T14:27:26.364Z</time></trkpt><trkpt lat="44.5277684" lon="5.093662"><ele>479.33333333333337</ele><time>2026-05-01T14:27:27.365Z</time></trkpt><trkpt lat="44.5276881" lon="5.0934522"><ele>472.0</ele><time>2026-05-01T14:27:28.364Z</time></trkpt><trkpt lat="44.5276159" lon="5.0932194"><ele>472.0</ele><time>2026-05-01T14:27:29.364Z</time></trkpt><trkpt lat="44.5275453" lon="5.0929769"><ele>472.0</ele><time>2026-05-01T14:27:30.364Z</time></trkpt><trkpt lat="44.5274653" lon="5.0927296"><ele>472.0</ele><time>2026-05-01T14:27:31.364Z</time></trkpt><trkpt lat="44.5273661" lon="5.0924907"><ele>469.6666666666667</ele><time>2026-05-01T14:27:32.365Z</time></trkpt><trkpt lat="44.5272628" lon="5.0922557"><ele>467.33333333333337</ele><time>2026-05-01T14:27:33.364Z</time></trkpt><trkpt lat="44.5271601" lon="5.0920332"><ele>465.0</ele><time>2026-05-01T14:27:34.364Z</time></trkpt><trkpt lat="44.5270569" lon="5.0918168"><ele>465.0</ele><time>2026-05-01T14:27:35.364Z</time></trkpt><trkpt lat="44.5269548" lon="5.0916108"><ele>465.0</ele><time>2026-05-01T14:27:36.364Z</time></trkpt><trkpt lat="44.5268547" lon="5.0914066"><ele>465.0</ele><time>2026-05-01T14:27:37.364Z</time></trkpt><trkpt lat="44.5267559" lon="5.0912056"><ele>466.33333333333337</ele><time>2026-05-01T14:27:38.365Z</time></trkpt><trkpt lat="44.5266577" lon="5.0910054"><ele>467.6666666666667</ele><time>2026-05-01T14:27:39.364Z</time></trkpt><trkpt lat="44.5265636" lon="5.0908103"><ele>469.0</ele><time>2026-05-01T14:27:40.364Z</time></trkpt><trkpt lat="44.5264721" lon="5.0906194"><ele>470.33333333333337</ele><time>2026-05-01T14:27:41.364Z</time></trkpt><trkpt lat="44.5263813" lon="5.090435"><ele>471.66666666666663</ele><time>2026-05-01T14:27:42.364Z</time></trkpt><trkpt lat="44.5262913" lon="5.0902461"><ele>473.0</ele><time>2026-05-01T14:27:43.365Z</time></trkpt><trkpt lat="44.5261959" lon="5.0900505"><ele>469.0</ele><time>2026-05-01T14:27:44.364Z</time></trkpt><trkpt lat="44.5260861" lon="5.0898564"><ele>465.0</ele><time>2026-05-01T14:27:45.364Z</time></trkpt><trkpt lat="44.525956" lon="5.0896679"><ele>461.0</ele><time>2026-05-01T14:27:46.364Z</time></trkpt><trkpt lat="44.5258108" lon="5.089491"><ele>461.0</ele><time>2026-05-01T14:27:47.364Z</time></trkpt><trkpt lat="44.525651" lon="5.0893324"><ele>461.0</ele><time>2026-05-01T14:27:48.364Z</time></trkpt><trkpt lat="44.5254782" lon="5.0891951"><ele>461.0</ele><time>2026-05-01T14:27:49.364Z</time></trkpt><trkpt lat="44.5252964" lon="5.0890803"><ele>460.0</ele><time>2026-05-01T14:27:50.364Z</time></trkpt><trkpt lat="44.525106" lon="5.0889911"><ele>459.0</ele><time>2026-05-01T14:27:51.364Z</time></trkpt><trkpt lat="44.5249085" lon="5.0889099"><ele>458.0</ele><time>2026-05-01T14:27:52.364Z</time></trkpt><trkpt lat="44.52471" lon="5.0888275"><ele>454.3333333333333</ele><time>2026-05-01T14:27:53.364Z</time></trkpt><trkpt lat="44.524515" lon="5.0887493"><ele>450.66666666666663</ele><time>2026-05-01T14:27:54.364Z</time></trkpt><trkpt lat="44.5243154" lon="5.0886704"><ele>447.0</ele><time>2026-05-01T14:27:55.364Z</time></trkpt><trkpt lat="44.5241138" lon="5.088586"><ele>447.0</ele><time>2026-05-01T14:27:56.364Z</time></trkpt><trkpt lat="44.5239136" lon="5.0885"><ele>447.0</ele><time>2026-05-01T14:27:57.365Z</time></trkpt><trkpt lat="44.5237175" lon="5.0884161"><ele>447.0</ele><time>2026-05-01T14:27:58.364Z</time></trkpt><trkpt lat="44.5235181" lon="5.0883335"><ele>446.66666666666663</ele><time>2026-05-01T14:27:59.364Z</time></trkpt><trkpt lat="44.5233249" lon="5.088252"><ele>446.3333333333333</ele><time>2026-05-01T14:28:00.364Z</time></trkpt><trkpt lat="44.5231341" lon="5.0881725"><ele>446.0</ele><time>2026-05-01T14:28:01.364Z</time></trkpt><trkpt lat="44.5229498" lon="5.0880953"><ele>443.66666666666663</ele><time>2026-05-01T14:28:02.364Z</time></trkpt><trkpt lat="44.5227716" lon="5.0880255"><ele>441.33333333333337</ele><time>2026-05-01T14:28:03.364Z</time></trkpt><trkpt lat="44.5226019" lon="5.0879555"><ele>439.0</ele><time>2026-05-01T14:28:04.364Z</time></trkpt><trkpt lat="44.5224383" lon="5.0878931"><ele>439.0</ele><time>2026-05-01T14:28:05.364Z</time></trkpt><trkpt lat="44.522277" lon="5.0878324"><ele>439.0</ele><time>2026-05-01T14:28:06.364Z</time></trkpt><trkpt lat="44.5221133" lon="5.0877682"><ele>439.0</ele><time>2026-05-01T14:28:07.365Z</time></trkpt><trkpt lat="44.5219454" lon="5.0876996"><ele>438.0</ele><time>2026-05-01T14:28:08.364Z</time></trkpt><trkpt lat="44.5217764" lon="5.0876248"><ele>437.0</ele><time>2026-05-01T14:28:09.364Z</time></trkpt><trkpt lat="44.5216134" lon="5.087553"><ele>436.0</ele><time>2026-05-01T14:28:10.364Z</time></trkpt><trkpt lat="44.521455" lon="5.0874829"><ele>436.0</ele><time>2026-05-01T14:28:11.364Z</time></trkpt><trkpt lat="44.5213033" lon="5.0874005"><ele>436.0</ele><time>2026-05-01T14:28:12.365Z</time></trkpt><trkpt lat="44.5211603" lon="5.087296"><ele>436.0</ele><time>2026-05-01T14:28:13.364Z</time></trkpt><trkpt lat="44.52102" lon="5.0871652"><ele>434.33333333333337</ele><time>2026-05-01T14:28:14.364Z</time></trkpt><trkpt lat="44.520883" lon="5.0870187"><ele>432.66666666666663</ele><time>2026-05-01T14:28:15.364Z</time></trkpt><trkpt lat="44.5207513" lon="5.0868726"><ele>431.0</ele><time>2026-05-01T14:28:16.364Z</time></trkpt><trkpt lat="44.5206344" lon="5.0867321"><ele>431.25</ele><time>2026-05-01T14:28:17.364Z</time></trkpt><trkpt lat="44.5205306" lon="5.0865945"><ele>431.5</ele><time>2026-05-01T14:28:18.364Z</time></trkpt><trkpt lat="44.5204385" lon="5.0864369"><ele>431.75</ele><time>2026-05-01T14:28:19.364Z</time></trkpt><trkpt lat="44.5203584" lon="5.0862541"><ele>432.0</ele><time>2026-05-01T14:28:20.364Z</time></trkpt><trkpt lat="44.5202836" lon="5.0860527"><ele>430.33333333333337</ele><time>2026-05-01T14:28:21.364Z</time></trkpt><trkpt lat="44.5202036" lon="5.0858448"><ele>428.6666666666667</ele><time>2026-05-01T14:28:22.364Z</time></trkpt><trkpt lat="44.5201132" lon="5.0856325"><ele>427.0</ele><time>2026-05-01T14:28:23.364Z</time></trkpt><trkpt lat="44.5200173" lon="5.0854359"><ele>427.0</ele><time>2026-05-01T14:28:24.364Z</time></trkpt><trkpt lat="44.5199095" lon="5.0852429"><ele>427.0</ele><time>2026-05-01T14:28:25.365Z</time></trkpt><trkpt lat="44.5197944" lon="5.085049"><ele>427.0</ele><time>2026-05-01T14:28:26.364Z</time></trkpt><trkpt lat="44.5196819" lon="5.0848584"><ele>427.6666666666667</ele><time>2026-05-01T14:28:27.365Z</time></trkpt><trkpt lat="44.5195678" lon="5.0846704"><ele>428.33333333333337</ele><time>2026-05-01T14:28:28.365Z</time></trkpt><trkpt lat="44.5194514" lon="5.0844832"><ele>429.0</ele><time>2026-05-01T14:28:29.364Z</time></trkpt><trkpt lat="44.5193369" lon="5.084297"><ele>428.0</ele><time>2026-05-01T14:28:30.364Z</time></trkpt><trkpt lat="44.51923" lon="5.0841177"><ele>427.0</ele><time>2026-05-01T14:28:31.365Z</time></trkpt><trkpt lat="44.5191283" lon="5.0839423"><ele>426.0</ele><time>2026-05-01T14:28:32.365Z</time></trkpt><trkpt lat="44.5190328" lon="5.0837642"><ele>426.0</ele><time>2026-05-01T14:28:33.364Z</time></trkpt><trkpt lat="44.5189422" lon="5.083575"><ele>426.0</ele><time>2026-05-01T14:28:34.364Z</time></trkpt><trkpt lat="44.5188517" lon="5.0833831"><ele>426.0</ele><time>2026-05-01T14:28:35.364Z</time></trkpt><trkpt lat="44.5187617" lon="5.0831978"><ele>424.0</ele><time>2026-05-01T14:28:36.366Z</time></trkpt><trkpt lat="44.5186751" lon="5.0830184"><ele>422.0</ele><time>2026-05-01T14:28:37.364Z</time></trkpt><trkpt lat="44.5185934" lon="5.0828439"><ele>420.0</ele><time>2026-05-01T14:28:38.364Z</time></trkpt><trkpt lat="44.5185172" lon="5.0826724"><ele>418.0</ele><time>2026-05-01T14:28:39.364Z</time></trkpt><trkpt lat="44.5184477" lon="5.0825044"><ele>417.75</ele><time>2026-05-01T14:28:40.364Z</time></trkpt><trkpt lat="44.5183866" lon="5.0823359"><ele>417.5</ele><time>2026-05-01T14:28:41.364Z</time></trkpt><trkpt lat="44.518333" lon="5.0821697"><ele>417.25</ele><time>2026-05-01T14:28:42.364Z</time></trkpt><trkpt lat="44.518286" lon="5.0820064"><ele>417.0</ele><time>2026-05-01T14:28:43.364Z</time></trkpt><trkpt lat="44.5182451" lon="5.0818549"><ele>417.0</ele><time>2026-05-01T14:28:44.364Z</time></trkpt><trkpt lat="44.5182097" lon="5.0817135"><ele>417.0</ele><time>2026-05-01T14:28:45.365Z</time></trkpt><trkpt lat="44.5181817" lon="5.0816007"><ele>417.0</ele><time>2026-05-01T14:28:46.364Z</time></trkpt><trkpt lat="44.51816" lon="5.081509"><ele>417.0</ele><time>2026-05-01T14:28:47.364Z</time></trkpt><trkpt lat="44.5181206" lon="5.0813532"><ele>417.0</ele><time>2026-05-01T14:28:49.364Z</time></trkpt><trkpt lat="44.5180823" lon="5.0812135"><ele>417.0</ele><time>2026-05-01T14:28:51.365Z</time></trkpt><trkpt lat="44.5180443" lon="5.0810935"><ele>417.0</ele><time>2026-05-01T14:28:53.364Z</time></trkpt><trkpt lat="44.5180019" lon="5.0809618"><ele>417.0</ele><time>2026-05-01T14:28:55.364Z</time></trkpt><trkpt lat="44.5179716" lon="5.0808471"><ele>417.0</ele><time>2026-05-01T14:28:57.364Z</time></trkpt><trkpt lat="44.5179487" lon="5.0807544"><ele>417.0</ele><time>2026-05-01T14:28:59.364Z</time></trkpt><trkpt lat="44.517921" lon="5.0806662"><ele>417.0</ele><time>2026-05-01T14:29:01.364Z</time></trkpt><trkpt lat="44.5178889" lon="5.0805829"><ele>417.0</ele><time>2026-05-01T14:29:15.364Z</time></trkpt><trkpt lat="44.517867" lon="5.0804499"><ele>417.0</ele><time>2026-05-01T14:29:17.365Z</time></trkpt><trkpt lat="44.5178352" lon="5.0803188"><ele>417.0</ele><time>2026-05-01T14:29:19.364Z</time></trkpt><trkpt lat="44.5178311" lon="5.0801959"><ele>417.0</ele><time>2026-05-01T14:29:21.365Z</time></trkpt><trkpt lat="44.5178966" lon="5.0800413"><ele>417.0</ele><time>2026-05-01T14:29:23.364Z</time></trkpt><trkpt lat="44.5179699" lon="5.079951"><ele>415.0</ele><time>2026-05-01T14:29:24.364Z</time></trkpt><trkpt lat="44.5180625" lon="5.0798445"><ele>413.0</ele><time>2026-05-01T14:29:25.364Z</time></trkpt><trkpt lat="44.5181546" lon="5.0797249"><ele>411.0</ele><time>2026-05-01T14:29:26.364Z</time></trkpt><trkpt lat="44.5182457" lon="5.0795831"><ele>409.0</ele><time>2026-05-01T14:29:27.365Z</time></trkpt><trkpt lat="44.5183304" lon="5.0794196"><ele>409.0</ele><time>2026-05-01T14:29:28.364Z</time></trkpt><trkpt lat="44.5184003" lon="5.0792285"><ele>409.0</ele><time>2026-05-01T14:29:29.365Z</time></trkpt><trkpt lat="44.5184602" lon="5.0790238"><ele>409.0</ele><time>2026-05-01T14:29:30.364Z</time></trkpt><trkpt lat="44.518517" lon="5.0788178"><ele>408.25</ele><time>2026-05-01T14:29:31.365Z</time></trkpt><trkpt lat="44.5185785" lon="5.0786326"><ele>407.5</ele><time>2026-05-01T14:29:32.364Z</time></trkpt><trkpt lat="44.5186458" lon="5.0784633"><ele>406.75</ele><time>2026-05-01T14:29:33.364Z</time></trkpt><trkpt lat="44.5187207" lon="5.0783142"><ele>406.0</ele><time>2026-05-01T14:29:34.364Z</time></trkpt><trkpt lat="44.518795" lon="5.0781642"><ele>409.0</ele><time>2026-05-01T14:29:35.366Z</time></trkpt><trkpt lat="44.518862" lon="5.0779977"><ele>412.0</ele><time>2026-05-01T14:29:36.366Z</time></trkpt><trkpt lat="44.5189201" lon="5.077831"><ele>415.0</ele><time>2026-05-01T14:29:37.365Z</time></trkpt><trkpt lat="44.5189755" lon="5.0776602"><ele>418.0</ele><time>2026-05-01T14:29:38.364Z</time></trkpt><trkpt lat="44.5190263" lon="5.077486"><ele>416.5</ele><time>2026-05-01T14:29:39.364Z</time></trkpt><trkpt lat="44.519068" lon="5.0773106"><ele>415.0</ele><time>2026-05-01T14:29:40.364Z</time></trkpt><trkpt lat="44.5191064" lon="5.0771361"><ele>413.5</ele><time>2026-05-01T14:29:41.365Z</time></trkpt><trkpt lat="44.5191404" lon="5.076965"><ele>412.0</ele><time>2026-05-01T14:29:42.364Z</time></trkpt><trkpt lat="44.519169" lon="5.0767971"><ele>412.0</ele><time>2026-05-01T14:29:43.364Z</time></trkpt><trkpt lat="44.5191995" lon="5.0766207"><ele>412.0</ele><time>2026-05-01T14:29:44.364Z</time></trkpt><trkpt lat="44.5192354" lon="5.076435"><ele>412.0</ele><time>2026-05-01T14:29:45.365Z</time></trkpt><trkpt lat="44.5192696" lon="5.0762466"><ele>412.0</ele><time>2026-05-01T14:29:46.364Z</time></trkpt><trkpt lat="44.5193016" lon="5.0760661"><ele>411.20000000000005</ele><time>2026-05-01T14:29:47.364Z</time></trkpt><trkpt lat="44.5193336" lon="5.0759007"><ele>410.4</ele><time>2026-05-01T14:29:48.364Z</time></trkpt><trkpt lat="44.5193594" lon="5.0757676"><ele>409.6</ele><time>2026-05-01T14:29:49.364Z</time></trkpt><trkpt lat="44.5193862" lon="5.075647"><ele>408.79999999999995</ele><time>2026-05-01T14:29:50.365Z</time></trkpt><trkpt lat="44.5194139" lon="5.0755301"><ele>408.0</ele><time>2026-05-01T14:29:51.364Z</time></trkpt><trkpt lat="44.5194407" lon="5.0754104"><ele>407.4</ele><time>2026-05-01T14:29:52.364Z</time></trkpt><trkpt lat="44.5194683" lon="5.07529"><ele>406.79999999999995</ele><time>2026-05-01T14:29:53.364Z</time></trkpt><trkpt lat="44.5194966" lon="5.0751583"><ele>406.2</ele><time>2026-05-01T14:29:54.364Z</time></trkpt><trkpt lat="44.5195303" lon="5.075017"><ele>405.6</ele><time>2026-05-01T14:29:55.365Z</time></trkpt><trkpt lat="44.5195664" lon="5.0748662"><ele>405.0</ele><time>2026-05-01T14:29:56.364Z</time></trkpt><trkpt lat="44.5196048" lon="5.0747087"><ele>405.8</ele><time>2026-05-01T14:29:57.364Z</time></trkpt><trkpt lat="44.5196434" lon="5.0745526"><ele>406.6</ele><time>2026-05-01T14:29:58.365Z</time></trkpt><trkpt lat="44.5196799" lon="5.0744022"><ele>407.4</ele><time>2026-05-01T14:29:59.364Z</time></trkpt><trkpt lat="44.5197112" lon="5.0742739"><ele>408.2</ele><time>2026-05-01T14:30:00.363Z</time></trkpt><trkpt lat="44.5197373" lon="5.0741612"><ele>409.0</ele><time>2026-05-01T14:30:01.363Z</time></trkpt><trkpt lat="44.5197641" lon="5.0740456"><ele>409.00000000000006</ele><time>2026-05-01T14:30:02.364Z</time></trkpt><trkpt lat="44.5197893" lon="5.073934"><ele>409.0</ele><time>2026-05-01T14:30:03.364Z</time></trkpt><trkpt lat="44.5198107" lon="5.0738323"><ele>409.0</ele><time>2026-05-01T14:30:04.363Z</time></trkpt><trkpt lat="44.5198323" lon="5.0737327"><ele>409.0</ele><time>2026-05-01T14:30:05.363Z</time></trkpt><trkpt lat="44.5198533" lon="5.0736271"><ele>409.00000000000006</ele><time>2026-05-01T14:30:06.363Z</time></trkpt><trkpt lat="44.5198785" lon="5.0735141"><ele>409.0</ele><time>2026-05-01T14:30:07.364Z</time></trkpt><trkpt lat="44.519906" lon="5.0734057"><ele>409.00000000000006</ele><time>2026-05-01T14:30:08.363Z</time></trkpt><trkpt lat="44.5199329" lon="5.0732971"><ele>409.0</ele><time>2026-05-01T14:30:09.363Z</time></trkpt><trkpt lat="44.5199586" lon="5.073197"><ele>409.0</ele><time>2026-05-01T14:30:10.363Z</time></trkpt><trkpt lat="44.5199785" lon="5.0731102"><ele>409.0</ele><time>2026-05-01T14:30:11.364Z</time></trkpt><trkpt lat="44.5200112" lon="5.0729579"><ele>409.00000000000006</ele><time>2026-05-01T14:30:13.364Z</time></trkpt><trkpt lat="44.5200458" lon="5.0728116"><ele>409.0</ele><time>2026-05-01T14:30:15.363Z</time></trkpt><trkpt lat="44.5200838" lon="5.0726498"><ele>408.1666666666667</ele><time>2026-05-01T14:30:17.363Z</time></trkpt><trkpt lat="44.5201067" lon="5.0725531"><ele>407.33333333333337</ele><time>2026-05-01T14:30:18.363Z</time></trkpt><trkpt lat="44.5201306" lon="5.0724424"><ele>406.5</ele><time>2026-05-01T14:30:19.363Z</time></trkpt><trkpt lat="44.5201542" lon="5.0723246"><ele>405.66666666666663</ele><time>2026-05-01T14:30:20.363Z</time></trkpt><trkpt lat="44.520179" lon="5.0722005"><ele>404.8333333333333</ele><time>2026-05-01T14:30:21.364Z</time></trkpt><trkpt lat="44.5202031" lon="5.072072"><ele>404.0</ele><time>2026-05-01T14:30:22.364Z</time></trkpt><trkpt lat="44.5202283" lon="5.0719542"><ele>403.1428571428571</ele><time>2026-05-01T14:30:23.363Z</time></trkpt><trkpt lat="44.5202579" lon="5.0718514"><ele>402.2857142857143</ele><time>2026-05-01T14:30:24.363Z</time></trkpt><trkpt lat="44.5202926" lon="5.071768"><ele>401.42857142857144</ele><time>2026-05-01T14:30:25.364Z</time></trkpt><trkpt lat="44.5203232" lon="5.0716902"><ele>400.57142857142856</ele><time>2026-05-01T14:30:26.363Z</time></trkpt><trkpt lat="44.5203561" lon="5.071614"><ele>399.7142857142857</ele><time>2026-05-01T14:30:27.363Z</time></trkpt><trkpt lat="44.5203882" lon="5.0715378"><ele>398.85714285714283</ele><time>2026-05-01T14:30:28.363Z</time></trkpt><trkpt lat="44.5204237" lon="5.0714516"><ele>398.0</ele><time>2026-05-01T14:30:29.363Z</time></trkpt><trkpt lat="44.5204632" lon="5.0713648"><ele>398.0</ele><time>2026-05-01T14:30:30.363Z</time></trkpt><trkpt lat="44.5205044" lon="5.0712838"><ele>398.0</ele><time>2026-05-01T14:30:31.363Z</time></trkpt><trkpt lat="44.5205396" lon="5.0712087"><ele>398.0</ele><time>2026-05-01T14:30:32.364Z</time></trkpt><trkpt lat="44.5206031" lon="5.0710687"><ele>398.0</ele><time>2026-05-01T14:30:34.363Z</time></trkpt><trkpt lat="44.520668" lon="5.0709225"><ele>398.0</ele><time>2026-05-01T14:30:36.364Z</time></trkpt><trkpt lat="44.5207232" lon="5.0707757"><ele>397.2</ele><time>2026-05-01T14:30:38.363Z</time></trkpt><trkpt lat="44.5207638" lon="5.070613"><ele>396.4</ele><time>2026-05-01T14:30:40.364Z</time></trkpt><trkpt lat="44.5207844" lon="5.0705294"><ele>395.59999999999997</ele><time>2026-05-01T14:30:41.363Z</time></trkpt><trkpt lat="44.5208316" lon="5.0703466"><ele>394.79999999999995</ele><time>2026-05-01T14:30:43.363Z</time></trkpt><trkpt lat="44.5208635" lon="5.0702393"><ele>394.0</ele><time>2026-05-01T14:30:44.364Z</time></trkpt><trkpt lat="44.5208966" lon="5.0701256"><ele>394.00000000000006</ele><time>2026-05-01T14:30:45.363Z</time></trkpt><trkpt lat="44.5209318" lon="5.0700043"><ele>394.0</ele><time>2026-05-01T14:30:46.363Z</time></trkpt><trkpt lat="44.5209653" lon="5.0698934"><ele>394.0</ele><time>2026-05-01T14:30:47.364Z</time></trkpt><trkpt lat="44.5210006" lon="5.0697809"><ele>394.0</ele><time>2026-05-01T14:30:48.363Z</time></trkpt><trkpt lat="44.5210319" lon="5.0696796"><ele>394.00000000000006</ele><time>2026-05-01T14:30:49.363Z</time></trkpt><trkpt lat="44.52106" lon="5.0695724"><ele>394.0</ele><time>2026-05-01T14:30:50.363Z</time></trkpt><trkpt lat="44.5210892" lon="5.0694722"><ele>394.00000000000006</ele><time>2026-05-01T14:30:51.363Z</time></trkpt><trkpt lat="44.5211205" lon="5.0693676"><ele>394.0</ele><time>2026-05-01T14:30:52.363Z</time></trkpt><trkpt lat="44.5211558" lon="5.0692599"><ele>394.0</ele><time>2026-05-01T14:30:53.363Z</time></trkpt><trkpt lat="44.5211986" lon="5.0691492"><ele>394.0</ele><time>2026-05-01T14:30:54.363Z</time></trkpt><trkpt lat="44.5212474" lon="5.0690419"><ele>394.00000000000006</ele><time>2026-05-01T14:30:55.363Z</time></trkpt><trkpt lat="44.5213001" lon="5.0689228"><ele>394.0</ele><time>2026-05-01T14:30:56.363Z</time></trkpt><trkpt lat="44.5213545" lon="5.0687997"><ele>393.79999999999995</ele><time>2026-05-01T14:30:57.364Z</time></trkpt><trkpt lat="44.5214097" lon="5.0686782"><ele>393.59999999999997</ele><time>2026-05-01T14:30:58.363Z</time></trkpt><trkpt lat="44.521468" lon="5.0685461"><ele>393.4</ele><time>2026-05-01T14:30:59.364Z</time></trkpt><trkpt lat="44.521521" lon="5.0684165"><ele>393.2</ele><time>2026-05-01T14:31:00.363Z</time></trkpt><trkpt lat="44.5215733" lon="5.0682849"><ele>393.0</ele><time>2026-05-01T14:31:01.363Z</time></trkpt><trkpt lat="44.5216208" lon="5.0681533"><ele>392.79999999999995</ele><time>2026-05-01T14:31:02.363Z</time></trkpt><trkpt lat="44.521664" lon="5.0680134"><ele>392.6</ele><time>2026-05-01T14:31:03.364Z</time></trkpt><trkpt lat="44.5216976" lon="5.0678659"><ele>392.4</ele><time>2026-05-01T14:31:04.363Z</time></trkpt><trkpt lat="44.5217301" lon="5.0677137"><ele>392.20000000000005</ele><time>2026-05-01T14:31:05.364Z</time></trkpt><trkpt lat="44.5217572" lon="5.0675746"><ele>392.0</ele><time>2026-05-01T14:31:06.364Z</time></trkpt><trkpt lat="44.5217804" lon="5.0674496"><ele>391.66666666666663</ele><time>2026-05-01T14:31:07.363Z</time></trkpt><trkpt lat="44.5217998" lon="5.0673502"><ele>391.3333333333333</ele><time>2026-05-01T14:31:08.363Z</time></trkpt><trkpt lat="44.5218279" lon="5.067199"><ele>391.0</ele><time>2026-05-01T14:31:10.363Z</time></trkpt><trkpt lat="44.5218538" lon="5.0670858"><ele>390.66666666666663</ele><time>2026-05-01T14:31:12.364Z</time></trkpt><trkpt lat="44.5218796" lon="5.0669327"><ele>390.3333333333333</ele><time>2026-05-01T14:31:14.363Z</time></trkpt><trkpt lat="44.5218948" lon="5.0668442"><ele>390.0</ele><time>2026-05-01T14:31:15.363Z</time></trkpt><trkpt lat="44.5219168" lon="5.0667433"><ele>390.0</ele><time>2026-05-01T14:31:16.363Z</time></trkpt><trkpt lat="44.5219586" lon="5.0666498"><ele>390.0</ele><time>2026-05-01T14:31:17.363Z</time></trkpt><trkpt lat="44.522013" lon="5.066573"><ele>390.0</ele><time>2026-05-01T14:31:18.363Z</time></trkpt><trkpt lat="44.5220709" lon="5.0665035"><ele>390.0</ele><time>2026-05-01T14:31:19.363Z</time></trkpt><trkpt lat="44.5221274" lon="5.0664368"><ele>390.0</ele><time>2026-05-01T14:31:20.363Z</time></trkpt><trkpt lat="44.5221838" lon="5.0663694"><ele>390.0</ele><time>2026-05-01T14:31:21.363Z</time></trkpt><trkpt lat="44.5222334" lon="5.0663085"><ele>390.0</ele><time>2026-05-01T14:31:22.363Z</time></trkpt><trkpt lat="44.5223128" lon="5.0662137"><ele>390.2</ele><time>2026-05-01T14:31:24.363Z</time></trkpt><trkpt lat="44.5223904" lon="5.0661184"><ele>390.4</ele><time>2026-05-01T14:31:26.363Z</time></trkpt><trkpt lat="44.5224701" lon="5.0660319"><ele>390.6</ele><time>2026-05-01T14:31:28.364Z</time></trkpt><trkpt lat="44.5225485" lon="5.0659592"><ele>390.8</ele><time>2026-05-01T14:31:30.363Z</time></trkpt><trkpt lat="44.5226356" lon="5.065869"><ele>391.0</ele><time>2026-05-01T14:31:32.364Z</time></trkpt><trkpt lat="44.5227543" lon="5.0657848"><ele>390.00000000000006</ele><time>2026-05-01T14:31:34.363Z</time></trkpt><trkpt lat="44.522826" lon="5.0657424"><ele>389.0</ele><time>2026-05-01T14:31:35.363Z</time></trkpt><trkpt lat="44.5228981" lon="5.065702"><ele>388.0</ele><time>2026-05-01T14:31:36.363Z</time></trkpt><trkpt lat="44.522968" lon="5.0656694"><ele>387.0</ele><time>2026-05-01T14:31:37.364Z</time></trkpt><trkpt lat="44.5230335" lon="5.0656405"><ele>386.00000000000006</ele><time>2026-05-01T14:31:38.364Z</time></trkpt><trkpt lat="44.5231361" lon="5.065596"><ele>385.0</ele><time>2026-05-01T14:31:40.363Z</time></trkpt><trkpt lat="44.5232045" lon="5.0655502"><ele>385.0</ele><time>2026-05-01T14:31:42.364Z</time></trkpt><trkpt lat="44.5231801" lon="5.0654403"><ele>385.0</ele><time>2026-05-01T14:31:45.363Z</time></trkpt><trkpt lat="44.5230983" lon="5.0653812"><ele>385.0</ele><time>2026-05-01T14:31:47.363Z</time></trkpt><trkpt lat="44.522998" lon="5.0652922"><ele>385.0</ele><time>2026-05-01T14:31:49.364Z</time></trkpt><trkpt lat="44.5229043" lon="5.065218"><ele>385.0</ele><time>2026-05-01T14:31:51.363Z</time></trkpt><trkpt lat="44.522836" lon="5.0651086"><ele>385.0</ele><time>2026-05-01T14:31:53.363Z</time></trkpt><trkpt lat="44.5228037" lon="5.0649684"><ele>385.0</ele><time>2026-05-01T14:31:55.364Z</time></trkpt><trkpt lat="44.5228012" lon="5.0647973"><ele>385.0</ele><time>2026-05-01T14:31:57.363Z</time></trkpt><trkpt lat="44.5227988" lon="5.0646165"><ele>385.0</ele><time>2026-05-01T14:31:59.363Z</time></trkpt><trkpt lat="44.5228051" lon="5.0645188"><ele>385.0</ele><time>2026-05-01T14:32:00.364Z</time></trkpt><trkpt lat="44.5228178" lon="5.0644136"><ele>384.50000000000006</ele><time>2026-05-01T14:32:01.363Z</time></trkpt><trkpt lat="44.5228364" lon="5.0643044"><ele>384.0</ele><time>2026-05-01T14:32:02.363Z</time></trkpt><trkpt lat="44.5228674" lon="5.0641989"><ele>383.5</ele><time>2026-05-01T14:32:03.364Z</time></trkpt><trkpt lat="44.5229067" lon="5.0640989"><ele>383.0</ele><time>2026-05-01T14:32:04.363Z</time></trkpt><trkpt lat="44.5229489" lon="5.0640047"><ele>382.5</ele><time>2026-05-01T14:32:05.363Z</time></trkpt><trkpt lat="44.522991" lon="5.0639154"><ele>382.0</ele><time>2026-05-01T14:32:06.363Z</time></trkpt><trkpt lat="44.5230292" lon="5.0638447"><ele>381.0</ele><time>2026-05-01T14:32:07.364Z</time></trkpt><trkpt lat="44.5230821" lon="5.0637512"><ele>380.0</ele><time>2026-05-01T14:32:09.364Z</time></trkpt><trkpt lat="44.5231293" lon="5.0636722"><ele>379.0</ele><time>2026-05-01T14:32:11.363Z</time></trkpt><trkpt lat="44.5231708" lon="5.0635956"><ele>378.0</ele><time>2026-05-01T14:32:13.363Z</time></trkpt><trkpt lat="44.523205" lon="5.0635174"><ele>377.0</ele><time>2026-05-01T14:32:15.364Z</time></trkpt><trkpt lat="44.5232677" lon="5.0634152"><ele>376.0</ele><time>2026-05-01T14:32:18.363Z</time></trkpt><trkpt lat="44.5233258" lon="5.0633305"><ele>376.6</ele><time>2026-05-01T14:32:20.364Z</time></trkpt><trkpt lat="44.5233816" lon="5.0632146"><ele>377.20000000000005</ele><time>2026-05-01T14:32:22.364Z</time></trkpt><trkpt lat="44.5234551" lon="5.0630919"><ele>377.79999999999995</ele><time>2026-05-01T14:32:24.363Z</time></trkpt><trkpt lat="44.5235353" lon="5.0629517"><ele>378.4</ele><time>2026-05-01T14:32:26.363Z</time></trkpt><trkpt lat="44.52358" lon="5.0628742"><ele>379.0</ele><time>2026-05-01T14:32:27.363Z</time></trkpt><trkpt lat="44.5236285" lon="5.0627887"><ele>379.0</ele><time>2026-05-01T14:32:28.363Z</time></trkpt><trkpt lat="44.5236772" lon="5.0626975"><ele>379.0</ele><time>2026-05-01T14:32:29.363Z</time></trkpt><trkpt lat="44.5237293" lon="5.0626005"><ele>379.0</ele><time>2026-05-01T14:32:30.363Z</time></trkpt><trkpt lat="44.5237837" lon="5.0625035"><ele>379.0</ele><time>2026-05-01T14:32:31.365Z</time></trkpt><trkpt lat="44.5238388" lon="5.0624049"><ele>379.0</ele><time>2026-05-01T14:32:32.363Z</time></trkpt><trkpt lat="44.5238956" lon="5.0623051"><ele>379.0</ele><time>2026-05-01T14:32:33.363Z</time></trkpt><trkpt lat="44.5239529" lon="5.0622067"><ele>379.5</ele><time>2026-05-01T14:32:34.363Z</time></trkpt><trkpt lat="44.5240081" lon="5.062106"><ele>380.0</ele><time>2026-05-01T14:32:35.363Z</time></trkpt><trkpt lat="44.5240647" lon="5.062011"><ele>380.5</ele><time>2026-05-01T14:32:36.363Z</time></trkpt><trkpt lat="44.524118" lon="5.0619152"><ele>381.0</ele><time>2026-05-01T14:32:37.363Z</time></trkpt><trkpt lat="44.5241719" lon="5.0618239"><ele>381.5</ele><time>2026-05-01T14:32:38.365Z</time></trkpt><trkpt lat="44.524223" lon="5.0617325"><ele>382.0</ele><time>2026-05-01T14:32:39.363Z</time></trkpt><trkpt lat="44.5242751" lon="5.0616498"><ele>382.0</ele><time>2026-05-01T14:32:40.363Z</time></trkpt><trkpt lat="44.5243223" lon="5.0615729"><ele>382.0</ele><time>2026-05-01T14:32:41.364Z</time></trkpt><trkpt lat="44.5243933" lon="5.0614654"><ele>382.0</ele><time>2026-05-01T14:32:43.364Z</time></trkpt><trkpt lat="44.5244494" lon="5.0613985"><ele>382.0</ele><time>2026-05-01T14:32:45.364Z</time></trkpt><trkpt lat="44.5245148" lon="5.0613544"><ele>382.0</ele><time>2026-05-01T14:32:47.363Z</time></trkpt><trkpt lat="44.5245636" lon="5.0612707"><ele>382.0</ele><time>2026-05-01T14:32:49.363Z</time></trkpt><trkpt lat="44.5245417" lon="5.0611748"><ele>382.0</ele><time>2026-05-01T14:32:51.363Z</time></trkpt><trkpt lat="44.5244243" lon="5.0611203"><ele>382.0</ele><time>2026-05-01T14:32:53.363Z</time></trkpt><trkpt lat="44.5243548" lon="5.0610521"><ele>382.0</ele><time>2026-05-01T14:32:54.363Z</time></trkpt><trkpt lat="44.5242883" lon="5.0609739"><ele>382.0</ele><time>2026-05-01T14:32:55.364Z</time></trkpt><trkpt lat="44.5242203" lon="5.060893"><ele>382.0</ele><time>2026-05-01T14:32:56.363Z</time></trkpt><trkpt lat="44.52416" lon="5.0608178"><ele>382.16666666666663</ele><time>2026-05-01T14:32:57.363Z</time></trkpt><trkpt lat="44.5241005" lon="5.0607453"><ele>382.3333333333333</ele><time>2026-05-01T14:32:58.363Z</time></trkpt><trkpt lat="44.5240399" lon="5.0606741"><ele>382.5</ele><time>2026-05-01T14:32:59.363Z</time></trkpt><trkpt lat="44.5239809" lon="5.0605985"><ele>382.6666666666667</ele><time>2026-05-01T14:33:00.363Z</time></trkpt><trkpt lat="44.5239204" lon="5.0605249"><ele>382.83333333333337</ele><time>2026-05-01T14:33:01.363Z</time></trkpt><trkpt lat="44.5238638" lon="5.0604547"><ele>383.0</ele><time>2026-05-01T14:33:02.363Z</time></trkpt><trkpt lat="44.5238075" lon="5.0603879"><ele>383.0</ele><time>2026-05-01T14:33:03.363Z</time></trkpt><trkpt lat="44.5237499" lon="5.0603219"><ele>383.0</ele><time>2026-05-01T14:33:04.363Z</time></trkpt><trkpt lat="44.5236914" lon="5.060246"><ele>383.0</ele><time>2026-05-01T14:33:05.363Z</time></trkpt><trkpt lat="44.523632" lon="5.0601712"><ele>383.0</ele><time>2026-05-01T14:33:06.363Z</time></trkpt><trkpt lat="44.5235715" lon="5.0600949"><ele>383.0</ele><time>2026-05-01T14:33:07.363Z</time></trkpt><trkpt lat="44.5235097" lon="5.0600123"><ele>383.0</ele><time>2026-05-01T14:33:08.364Z</time></trkpt><trkpt lat="44.5234437" lon="5.0599293"><ele>382.5</ele><time>2026-05-01T14:33:09.363Z</time></trkpt><trkpt lat="44.5233766" lon="5.0598454"><ele>382.0</ele><time>2026-05-01T14:33:10.363Z</time></trkpt><trkpt lat="44.5233112" lon="5.0597662"><ele>381.5</ele><time>2026-05-01T14:33:11.363Z</time></trkpt><trkpt lat="44.5232525" lon="5.0596884"><ele>381.0</ele><time>2026-05-01T14:33:12.363Z</time></trkpt><trkpt lat="44.5231958" lon="5.0596188"><ele>380.5</ele><time>2026-05-01T14:33:13.363Z</time></trkpt><trkpt lat="44.5231424" lon="5.0595483"><ele>380.0</ele><time>2026-05-01T14:33:14.364Z</time></trkpt><trkpt lat="44.523088" lon="5.0594906"><ele>380.0</ele><time>2026-05-01T14:33:15.363Z</time></trkpt><trkpt lat="44.5230301" lon="5.0594204"><ele>380.0</ele><time>2026-05-01T14:33:16.363Z</time></trkpt><trkpt lat="44.5229688" lon="5.059343"><ele>380.0</ele><time>2026-05-01T14:33:17.364Z</time></trkpt><trkpt lat="44.5229066" lon="5.0592588"><ele>380.0</ele><time>2026-05-01T14:33:18.364Z</time></trkpt><trkpt lat="44.5228419" lon="5.0591726"><ele>380.0</ele><time>2026-05-01T14:33:19.363Z</time></trkpt><trkpt lat="44.522772" lon="5.0590917"><ele>380.0</ele><time>2026-05-01T14:33:20.363Z</time></trkpt><trkpt lat="44.5227069" lon="5.0590168"><ele>379.2857142857143</ele><time>2026-05-01T14:33:21.363Z</time></trkpt><trkpt lat="44.522647" lon="5.0589436"><ele>378.57142857142856</ele><time>2026-05-01T14:33:22.363Z</time></trkpt><trkpt lat="44.5225891" lon="5.0588728"><ele>377.8571428571429</ele><time>2026-05-01T14:33:23.363Z</time></trkpt><trkpt lat="44.5225356" lon="5.0588052"><ele>377.1428571428571</ele><time>2026-05-01T14:33:24.363Z</time></trkpt><trkpt lat="44.5224827" lon="5.0587405"><ele>376.4285714285714</ele><time>2026-05-01T14:33:25.364Z</time></trkpt><trkpt lat="44.5224331" lon="5.05868"><ele>375.7142857142857</ele><time>2026-05-01T14:33:26.364Z</time></trkpt><trkpt lat="44.5223846" lon="5.058619"><ele>375.0</ele><time>2026-05-01T14:33:27.363Z</time></trkpt><trkpt lat="44.522341" lon="5.0585529"><ele>375.0</ele><time>2026-05-01T14:33:28.363Z</time></trkpt><trkpt lat="44.5222599" lon="5.0584523"><ele>375.0</ele><time>2026-05-01T14:33:30.364Z</time></trkpt><trkpt lat="44.5221847" lon="5.0584536"><ele>375.0</ele><time>2026-05-01T14:33:32.363Z</time></trkpt><trkpt lat="44.5220915" lon="5.0584851"><ele>375.0</ele><time>2026-05-01T14:33:34.363Z</time></trkpt><trkpt lat="44.5220024" lon="5.0585012"><ele>375.0</ele><time>2026-05-01T14:33:36.363Z</time></trkpt><trkpt lat="44.5219393" lon="5.0585175"><ele>375.0</ele><time>2026-05-01T14:33:39.363Z</time></trkpt><trkpt lat="44.5218483" lon="5.0585361"><ele>374.6666666666667</ele><time>2026-05-01T14:33:42.363Z</time></trkpt><trkpt lat="44.5217739" lon="5.0585248"><ele>374.3333333333333</ele><time>2026-05-01T14:33:44.363Z</time></trkpt><trkpt lat="44.5217081" lon="5.0584512"><ele>374.0</ele><time>2026-05-01T14:33:46.363Z</time></trkpt><trkpt lat="44.5216531" lon="5.0583089"><ele>373.66666666666663</ele><time>2026-05-01T14:33:48.364Z</time></trkpt><trkpt lat="44.5216193" lon="5.0582148"><ele>373.3333333333333</ele><time>2026-05-01T14:33:49.363Z</time></trkpt><trkpt lat="44.5215767" lon="5.0581023"><ele>373.0</ele><time>2026-05-01T14:33:50.363Z</time></trkpt><trkpt lat="44.521531" lon="5.0579617"><ele>373.0</ele><time>2026-05-01T14:33:51.363Z</time></trkpt><trkpt lat="44.521485" lon="5.0578181"><ele>373.0</ele><time>2026-05-01T14:33:52.363Z</time></trkpt><trkpt lat="44.5214374" lon="5.0576712"><ele>373.0</ele><time>2026-05-01T14:33:53.364Z</time></trkpt><trkpt lat="44.5213874" lon="5.057529"><ele>373.0</ele><time>2026-05-01T14:33:54.364Z</time></trkpt><trkpt lat="44.52134" lon="5.0573879"><ele>373.25</ele><time>2026-05-01T14:33:55.364Z</time></trkpt><trkpt lat="44.5213004" lon="5.0572425"><ele>373.5</ele><time>2026-05-01T14:33:56.363Z</time></trkpt><trkpt lat="44.5212735" lon="5.0570895"><ele>373.75</ele><time>2026-05-01T14:33:57.363Z</time></trkpt><trkpt lat="44.521256" lon="5.0569289"><ele>374.0</ele><time>2026-05-01T14:33:58.363Z</time></trkpt><trkpt lat="44.5212502" lon="5.0567611"><ele>373.0</ele><time>2026-05-01T14:33:59.363Z</time></trkpt><trkpt lat="44.5212534" lon="5.0565839"><ele>372.0</ele><time>2026-05-01T14:34:00.363Z</time></trkpt><trkpt lat="44.5212611" lon="5.0563988"><ele>371.0</ele><time>2026-05-01T14:34:01.363Z</time></trkpt><trkpt lat="44.5212696" lon="5.0562011"><ele>370.0</ele><time>2026-05-01T14:34:02.363Z</time></trkpt><trkpt lat="44.5212764" lon="5.0559913"><ele>368.66666666666663</ele><time>2026-05-01T14:34:03.363Z</time></trkpt><trkpt lat="44.5212809" lon="5.0557698"><ele>367.3333333333333</ele><time>2026-05-01T14:34:04.363Z</time></trkpt><trkpt lat="44.521284" lon="5.0555455"><ele>366.0</ele><time>2026-05-01T14:34:05.363Z</time></trkpt><trkpt lat="44.5212879" lon="5.055325"><ele>366.0</ele><time>2026-05-01T14:34:06.363Z</time></trkpt><trkpt lat="44.5212934" lon="5.0551028"><ele>366.0</ele><time>2026-05-01T14:34:07.363Z</time></trkpt><trkpt lat="44.5212977" lon="5.0548779"><ele>366.0</ele><time>2026-05-01T14:34:08.363Z</time></trkpt><trkpt lat="44.5213055" lon="5.0546532"><ele>364.3333333333333</ele><time>2026-05-01T14:34:09.364Z</time></trkpt><trkpt lat="44.5213119" lon="5.0544196"><ele>362.66666666666663</ele><time>2026-05-01T14:34:10.363Z</time></trkpt><trkpt lat="44.5213167" lon="5.0541884"><ele>361.0</ele><time>2026-05-01T14:34:11.363Z</time></trkpt><trkpt lat="44.5213244" lon="5.053954"><ele>360.0</ele><time>2026-05-01T14:34:12.363Z</time></trkpt><trkpt lat="44.5213328" lon="5.0537188"><ele>359.0</ele><time>2026-05-01T14:34:13.363Z</time></trkpt><trkpt lat="44.5213409" lon="5.0534852"><ele>358.0</ele><time>2026-05-01T14:34:14.364Z</time></trkpt><trkpt lat="44.5213476" lon="5.0532479"><ele>357.75</ele><time>2026-05-01T14:34:15.363Z</time></trkpt><trkpt lat="44.5213554" lon="5.0530212"><ele>357.5</ele><time>2026-05-01T14:34:16.364Z</time></trkpt><trkpt lat="44.521362" lon="5.0528139"><ele>357.25</ele><time>2026-05-01T14:34:17.363Z</time></trkpt><trkpt lat="44.5213691" lon="5.0526185"><ele>357.0</ele><time>2026-05-01T14:34:18.363Z</time></trkpt><trkpt lat="44.5213751" lon="5.0524269"><ele>357.0</ele><time>2026-05-01T14:34:19.364Z</time></trkpt><trkpt lat="44.521383" lon="5.0522392"><ele>357.0</ele><time>2026-05-01T14:34:20.363Z</time></trkpt><trkpt lat="44.5213913" lon="5.0520478"><ele>357.0</ele><time>2026-05-01T14:34:21.363Z</time></trkpt><trkpt lat="44.5214012" lon="5.0518519"><ele>357.0</ele><time>2026-05-01T14:34:22.364Z</time></trkpt><trkpt lat="44.5214097" lon="5.0516527"><ele>355.6666666666667</ele><time>2026-05-01T14:34:23.363Z</time></trkpt><trkpt lat="44.5214252" lon="5.0514468"><ele>354.33333333333337</ele><time>2026-05-01T14:34:24.363Z</time></trkpt><trkpt lat="44.5214474" lon="5.0512271"><ele>353.0</ele><time>2026-05-01T14:34:25.363Z</time></trkpt><trkpt lat="44.5214705" lon="5.0509981"><ele>351.6666666666667</ele><time>2026-05-01T14:34:26.363Z</time></trkpt><trkpt lat="44.5214903" lon="5.0507543"><ele>350.3333333333333</ele><time>2026-05-01T14:34:27.364Z</time></trkpt><trkpt lat="44.5215085" lon="5.0505006"><ele>349.0</ele><time>2026-05-01T14:34:28.363Z</time></trkpt><trkpt lat="44.5215267" lon="5.0502392"><ele>349.0</ele><time>2026-05-01T14:34:29.363Z</time></trkpt><trkpt lat="44.521547" lon="5.0499767"><ele>349.0</ele><time>2026-05-01T14:34:30.363Z</time></trkpt><trkpt lat="44.5215705" lon="5.0497075"><ele>349.0</ele><time>2026-05-01T14:34:31.363Z</time></trkpt><trkpt lat="44.5215932" lon="5.0494417"><ele>348.0</ele><time>2026-05-01T14:34:32.363Z</time></trkpt><trkpt lat="44.5216144" lon="5.0491852"><ele>347.0</ele><time>2026-05-01T14:34:33.363Z</time></trkpt><trkpt lat="44.5216371" lon="5.0489343"><ele>346.0</ele><time>2026-05-01T14:34:34.363Z</time></trkpt><trkpt lat="44.5216781" lon="5.0486938"><ele>345.0</ele><time>2026-05-01T14:34:35.363Z</time></trkpt><trkpt lat="44.5217429" lon="5.0484698"><ele>344.0</ele><time>2026-05-01T14:34:36.364Z</time></trkpt><trkpt lat="44.521831" lon="5.0482671"><ele>343.0</ele><time>2026-05-01T14:34:37.363Z</time></trkpt><trkpt lat="44.5219387" lon="5.0480828"><ele>343.0</ele><time>2026-05-01T14:34:38.363Z</time></trkpt><trkpt lat="44.522057" lon="5.0479073"><ele>343.0</ele><time>2026-05-01T14:34:39.363Z</time></trkpt><trkpt lat="44.5221748" lon="5.0477395"><ele>343.0</ele><time>2026-05-01T14:34:40.363Z</time></trkpt><trkpt lat="44.5222891" lon="5.0475803"><ele>342.75</ele><time>2026-05-01T14:34:41.364Z</time></trkpt><trkpt lat="44.5223925" lon="5.0474342"><ele>342.5</ele><time>2026-05-01T14:34:42.363Z</time></trkpt><trkpt lat="44.5224847" lon="5.0473008"><ele>342.25</ele><time>2026-05-01T14:34:43.363Z</time></trkpt><trkpt lat="44.5225702" lon="5.0471867"><ele>342.0</ele><time>2026-05-01T14:34:44.363Z</time></trkpt><trkpt lat="44.5226512" lon="5.0471123"><ele>342.0</ele><time>2026-05-01T14:34:45.363Z</time></trkpt><trkpt lat="44.5227283" lon="5.047071"><ele>342.0</ele><time>2026-05-01T14:34:46.364Z</time></trkpt><trkpt lat="44.5227974" lon="5.0470348"><ele>342.0</ele><time>2026-05-01T14:34:47.363Z</time></trkpt><trkpt lat="44.5228583" lon="5.0469639"><ele>342.0</ele><time>2026-05-01T14:34:48.363Z</time></trkpt><trkpt lat="44.5229045" lon="5.0468538"><ele>342.0</ele><time>2026-05-01T14:34:49.363Z</time></trkpt><trkpt lat="44.5229471" lon="5.0467104"><ele>342.0</ele><time>2026-05-01T14:34:50.363Z</time></trkpt><trkpt lat="44.5230086" lon="5.0465624"><ele>341.5</ele><time>2026-05-01T14:34:51.363Z</time></trkpt><trkpt lat="44.5230853" lon="5.046409"><ele>341.0</ele><time>2026-05-01T14:34:52.363Z</time></trkpt><trkpt lat="44.5231502" lon="5.0462395"><ele>340.5</ele><time>2026-05-01T14:34:53.363Z</time></trkpt><trkpt lat="44.5232043" lon="5.0460672"><ele>340.0</ele><time>2026-05-01T14:34:54.363Z</time></trkpt><trkpt lat="44.5232504" lon="5.0458958"><ele>339.75</ele><time>2026-05-01T14:34:55.363Z</time></trkpt><trkpt lat="44.5232909" lon="5.0457184"><ele>339.5</ele><time>2026-05-01T14:34:56.363Z</time></trkpt><trkpt lat="44.5233272" lon="5.0455328"><ele>339.25</ele><time>2026-05-01T14:34:57.363Z</time></trkpt><trkpt lat="44.5233634" lon="5.0453401"><ele>339.0</ele><time>2026-05-01T14:34:58.363Z</time></trkpt><trkpt lat="44.5233957" lon="5.0451545"><ele>339.0</ele><time>2026-05-01T14:34:59.364Z</time></trkpt><trkpt lat="44.5234227" lon="5.0449696"><ele>339.0</ele><time>2026-05-01T14:35:00.363Z</time></trkpt><trkpt lat="44.5234476" lon="5.0447784"><ele>339.0</ele><time>2026-05-01T14:35:01.363Z</time></trkpt><trkpt lat="44.5234755" lon="5.0445862"><ele>339.0</ele><time>2026-05-01T14:35:02.364Z</time></trkpt><trkpt lat="44.5235074" lon="5.0443966"><ele>338.5</ele><time>2026-05-01T14:35:03.363Z</time></trkpt><trkpt lat="44.523539" lon="5.0442066"><ele>338.0</ele><time>2026-05-01T14:35:04.363Z</time></trkpt><trkpt lat="44.5235713" lon="5.0440161"><ele>337.5</ele><time>2026-05-01T14:35:05.363Z</time></trkpt><trkpt lat="44.5236026" lon="5.0438238"><ele>337.0</ele><time>2026-05-01T14:35:06.363Z</time></trkpt><trkpt lat="44.5236346" lon="5.0436297"><ele>337.0</ele><time>2026-05-01T14:35:07.363Z</time></trkpt><trkpt lat="44.5236671" lon="5.0434275"><ele>337.0</ele><time>2026-05-01T14:35:08.363Z</time></trkpt><trkpt lat="44.5237044" lon="5.0432221"><ele>337.0</ele><time>2026-05-01T14:35:09.364Z</time></trkpt><trkpt lat="44.5237466" lon="5.0430142"><ele>339.0</ele><time>2026-05-01T14:35:10.363Z</time></trkpt><trkpt lat="44.5237921" lon="5.0427959"><ele>341.0</ele><time>2026-05-01T14:35:11.363Z</time></trkpt><trkpt lat="44.523838" lon="5.0425719"><ele>343.0</ele><time>2026-05-01T14:35:12.363Z</time></trkpt><trkpt lat="44.523888" lon="5.0423441"><ele>343.0</ele><time>2026-05-01T14:35:13.364Z</time></trkpt><trkpt lat="44.5239418" lon="5.0421182"><ele>343.0</ele><time>2026-05-01T14:35:14.364Z</time></trkpt><trkpt lat="44.5240005" lon="5.0418945"><ele>343.0</ele><time>2026-05-01T14:35:15.363Z</time></trkpt><trkpt lat="44.524067" lon="5.0416746"><ele>342.0</ele><time>2026-05-01T14:35:16.364Z</time></trkpt><trkpt lat="44.5241405" lon="5.0414621"><ele>341.0</ele><time>2026-05-01T14:35:17.363Z</time></trkpt><trkpt lat="44.5242197" lon="5.0412531"><ele>340.0</ele><time>2026-05-01T14:35:18.365Z</time></trkpt><trkpt lat="44.5243016" lon="5.0410481"><ele>340.0</ele><time>2026-05-01T14:35:19.363Z</time></trkpt><trkpt lat="44.5243831" lon="5.0408435"><ele>340.0</ele><time>2026-05-01T14:35:20.364Z</time></trkpt><trkpt lat="44.5244679" lon="5.0406379"><ele>340.0</ele><time>2026-05-01T14:35:21.363Z</time></trkpt><trkpt lat="44.5245534" lon="5.0404299"><ele>340.66666666666663</ele><time>2026-05-01T14:35:22.363Z</time></trkpt><trkpt lat="44.5246387" lon="5.0402204"><ele>341.3333333333333</ele><time>2026-05-01T14:35:23.364Z</time></trkpt><trkpt lat="44.5247261" lon="5.0400096"><ele>342.0</ele><time>2026-05-01T14:35:24.363Z</time></trkpt><trkpt lat="44.5248159" lon="5.0398005"><ele>342.0</ele><time>2026-05-01T14:35:25.365Z</time></trkpt><trkpt lat="44.5249078" lon="5.0395889"><ele>342.0</ele><time>2026-05-01T14:35:26.363Z</time></trkpt><trkpt lat="44.5249996" lon="5.0393673"><ele>342.0</ele><time>2026-05-01T14:35:27.363Z</time></trkpt><trkpt lat="44.525088" lon="5.0391352"><ele>341.6666666666667</ele><time>2026-05-01T14:35:28.364Z</time></trkpt><trkpt lat="44.5251692" lon="5.038891"><ele>341.33333333333337</ele><time>2026-05-01T14:35:29.363Z</time></trkpt><trkpt lat="44.5252425" lon="5.0386414"><ele>341.0</ele><time>2026-05-01T14:35:30.363Z</time></trkpt><trkpt lat="44.5253044" lon="5.0383812"><ele>340.33333333333337</ele><time>2026-05-01T14:35:31.364Z</time></trkpt><trkpt lat="44.5253573" lon="5.0381116"><ele>339.6666666666667</ele><time>2026-05-01T14:35:32.363Z</time></trkpt><trkpt lat="44.525402" lon="5.0378297"><ele>339.0</ele><time>2026-05-01T14:35:33.362Z</time></trkpt><trkpt lat="44.5254434" lon="5.0375384"><ele>338.6666666666667</ele><time>2026-05-01T14:35:34.362Z</time></trkpt><trkpt lat="44.5254812" lon="5.0372351"><ele>338.33333333333337</ele><time>2026-05-01T14:35:35.362Z</time></trkpt><trkpt lat="44.5255156" lon="5.036923"><ele>338.0</ele><time>2026-05-01T14:35:36.362Z</time></trkpt><trkpt lat="44.5255461" lon="5.0366047"><ele>337.0</ele><time>2026-05-01T14:35:37.362Z</time></trkpt><trkpt lat="44.5255728" lon="5.0362834"><ele>336.0</ele><time>2026-05-01T14:35:38.362Z</time></trkpt><trkpt lat="44.5255955" lon="5.035969"><ele>335.6666666666667</ele><time>2026-05-01T14:35:39.362Z</time></trkpt><trkpt lat="44.5256148" lon="5.0356629"><ele>335.33333333333337</ele><time>2026-05-01T14:35:40.362Z</time></trkpt><trkpt lat="44.5256313" lon="5.0353668"><ele>335.0</ele><time>2026-05-01T14:35:41.362Z</time></trkpt><trkpt lat="44.5256446" lon="5.0350791"><ele>335.0</ele><time>2026-05-01T14:35:42.363Z</time></trkpt><trkpt lat="44.5256544" lon="5.0347919"><ele>335.0</ele><time>2026-05-01T14:35:43.362Z</time></trkpt><trkpt lat="44.5256643" lon="5.034502"><ele>335.0</ele><time>2026-05-01T14:35:44.362Z</time></trkpt><trkpt lat="44.5256768" lon="5.0342176"><ele>334.33333333333337</ele><time>2026-05-01T14:35:45.362Z</time></trkpt><trkpt lat="44.5256928" lon="5.0339421"><ele>333.6666666666667</ele><time>2026-05-01T14:35:46.362Z</time></trkpt><trkpt lat="44.5257132" lon="5.0336759"><ele>333.0</ele><time>2026-05-01T14:35:47.363Z</time></trkpt><trkpt lat="44.5257414" lon="5.0334172"><ele>332.3333333333333</ele><time>2026-05-01T14:35:48.362Z</time></trkpt><trkpt lat="44.5257778" lon="5.0331679"><ele>331.66666666666663</ele><time>2026-05-01T14:35:49.363Z</time></trkpt><trkpt lat="44.5258176" lon="5.0329198"><ele>331.0</ele><time>2026-05-01T14:35:50.362Z</time></trkpt><trkpt lat="44.5258556" lon="5.0326728"><ele>330.3333333333333</ele><time>2026-05-01T14:35:51.362Z</time></trkpt><trkpt lat="44.5258914" lon="5.0324354"><ele>329.6666666666667</ele><time>2026-05-01T14:35:52.362Z</time></trkpt><trkpt lat="44.5259247" lon="5.032202"><ele>329.0</ele><time>2026-05-01T14:35:53.363Z</time></trkpt><trkpt lat="44.5259589" lon="5.0319644"><ele>329.0</ele><time>2026-05-01T14:35:54.362Z</time></trkpt><trkpt lat="44.5259959" lon="5.0317276"><ele>329.0</ele><time>2026-05-01T14:35:55.362Z</time></trkpt><trkpt lat="44.5260361" lon="5.0314866"><ele>329.0</ele><time>2026-05-01T14:35:56.362Z</time></trkpt><trkpt lat="44.5260778" lon="5.0312494"><ele>328.6666666666667</ele><time>2026-05-01T14:35:57.362Z</time></trkpt><trkpt lat="44.5261208" lon="5.0310184"><ele>328.3333333333333</ele><time>2026-05-01T14:35:58.363Z</time></trkpt><trkpt lat="44.526164" lon="5.0308012"><ele>328.0</ele><time>2026-05-01T14:35:59.362Z</time></trkpt><trkpt lat="44.5262034" lon="5.030605"><ele>329.0</ele><time>2026-05-01T14:36:00.362Z</time></trkpt><trkpt lat="44.5262422" lon="5.0304218"><ele>330.0</ele><time>2026-05-01T14:36:01.363Z</time></trkpt><trkpt lat="44.5262828" lon="5.0302441"><ele>331.0</ele><time>2026-05-01T14:36:02.362Z</time></trkpt><trkpt lat="44.5263258" lon="5.0300634"><ele>332.0</ele><time>2026-05-01T14:36:03.362Z</time></trkpt><trkpt lat="44.5263737" lon="5.0298755"><ele>332.0</ele><time>2026-05-01T14:36:04.362Z</time></trkpt><trkpt lat="44.5264268" lon="5.0296824"><ele>332.0</ele><time>2026-05-01T14:36:05.362Z</time></trkpt><trkpt lat="44.5264825" lon="5.0294867"><ele>332.0</ele><time>2026-05-01T14:36:06.362Z</time></trkpt><trkpt lat="44.5265397" lon="5.029295"><ele>332.0</ele><time>2026-05-01T14:36:07.362Z</time></trkpt><trkpt lat="44.5266016" lon="5.0290972"><ele>331.0</ele><time>2026-05-01T14:36:08.362Z</time></trkpt><trkpt lat="44.5266641" lon="5.0288941"><ele>330.0</ele><time>2026-05-01T14:36:09.362Z</time></trkpt><trkpt lat="44.5267296" lon="5.0286907"><ele>329.0</ele><time>2026-05-01T14:36:10.362Z</time></trkpt><trkpt lat="44.5268036" lon="5.0284929"><ele>328.33333333333337</ele><time>2026-05-01T14:36:11.363Z</time></trkpt><trkpt lat="44.526891" lon="5.0283013"><ele>327.6666666666667</ele><time>2026-05-01T14:36:12.363Z</time></trkpt><trkpt lat="44.5269969" lon="5.0281166"><ele>327.0</ele><time>2026-05-01T14:36:13.362Z</time></trkpt><trkpt lat="44.5271204" lon="5.0279366"><ele>327.0</ele><time>2026-05-01T14:36:14.362Z</time></trkpt><trkpt lat="44.5272547" lon="5.027763"><ele>327.0</ele><time>2026-05-01T14:36:15.362Z</time></trkpt><trkpt lat="44.5273962" lon="5.0275863"><ele>327.0</ele><time>2026-05-01T14:36:16.363Z</time></trkpt><trkpt lat="44.5275417" lon="5.0274047"><ele>327.3333333333333</ele><time>2026-05-01T14:36:17.362Z</time></trkpt><trkpt lat="44.5276892" lon="5.0272216"><ele>327.66666666666663</ele><time>2026-05-01T14:36:18.363Z</time></trkpt><trkpt lat="44.5278383" lon="5.027038"><ele>328.0</ele><time>2026-05-01T14:36:19.363Z</time></trkpt><trkpt lat="44.5279919" lon="5.0268541"><ele>328.0</ele><time>2026-05-01T14:36:20.362Z</time></trkpt><trkpt lat="44.5281449" lon="5.026665"><ele>328.0</ele><time>2026-05-01T14:36:21.362Z</time></trkpt><trkpt lat="44.5282983" lon="5.0264749"><ele>328.0</ele><time>2026-05-01T14:36:22.362Z</time></trkpt><trkpt lat="44.5284469" lon="5.0262876"><ele>328.0</ele><time>2026-05-01T14:36:23.362Z</time></trkpt><trkpt lat="44.5285936" lon="5.0261062"><ele>328.0</ele><time>2026-05-01T14:36:24.362Z</time></trkpt><trkpt lat="44.5287393" lon="5.0259295"><ele>328.0</ele><time>2026-05-01T14:36:25.362Z</time></trkpt><trkpt lat="44.5288785" lon="5.0257496"><ele>327.3333333333333</ele><time>2026-05-01T14:36:26.362Z</time></trkpt><trkpt lat="44.5290073" lon="5.0255593"><ele>326.6666666666667</ele><time>2026-05-01T14:36:27.362Z</time></trkpt><trkpt lat="44.5291239" lon="5.0253581"><ele>326.0</ele><time>2026-05-01T14:36:28.362Z</time></trkpt><trkpt lat="44.5292322" lon="5.0251487"><ele>325.6666666666667</ele><time>2026-05-01T14:36:29.362Z</time></trkpt><trkpt lat="44.5293338" lon="5.0249305"><ele>325.3333333333333</ele><time>2026-05-01T14:36:30.363Z</time></trkpt><trkpt lat="44.5294288" lon="5.0247032"><ele>325.0</ele><time>2026-05-01T14:36:31.362Z</time></trkpt><trkpt lat="44.5295058" lon="5.024464"><ele>325.0</ele><time>2026-05-01T14:36:32.362Z</time></trkpt><trkpt lat="44.5295599" lon="5.0242109"><ele>325.0</ele><time>2026-05-01T14:36:33.363Z</time></trkpt><trkpt lat="44.5295892" lon="5.0239446"><ele>325.0</ele><time>2026-05-01T14:36:34.362Z</time></trkpt><trkpt lat="44.5296043" lon="5.0236779"><ele>324.66666666666663</ele><time>2026-05-01T14:36:35.362Z</time></trkpt><trkpt lat="44.5296096" lon="5.0234187"><ele>324.3333333333333</ele><time>2026-05-01T14:36:36.362Z</time></trkpt><trkpt lat="44.5296129" lon="5.0231628"><ele>324.0</ele><time>2026-05-01T14:36:37.363Z</time></trkpt><trkpt lat="44.5296173" lon="5.0229154"><ele>323.0</ele><time>2026-05-01T14:36:38.362Z</time></trkpt><trkpt lat="44.5296239" lon="5.0226709"><ele>322.0</ele><time>2026-05-01T14:36:39.362Z</time></trkpt><trkpt lat="44.5296308" lon="5.0224369"><ele>321.0</ele><time>2026-05-01T14:36:40.362Z</time></trkpt><trkpt lat="44.5296356" lon="5.0222069"><ele>320.6666666666667</ele><time>2026-05-01T14:36:41.362Z</time></trkpt><trkpt lat="44.5296409" lon="5.0219731"><ele>320.33333333333337</ele><time>2026-05-01T14:36:42.362Z</time></trkpt><trkpt lat="44.5296483" lon="5.0217382"><ele>320.0</ele><time>2026-05-01T14:36:43.363Z</time></trkpt><trkpt lat="44.529654" lon="5.0215006"><ele>318.6666666666667</ele><time>2026-05-01T14:36:44.362Z</time></trkpt><trkpt lat="44.5296594" lon="5.0212643"><ele>317.3333333333333</ele><time>2026-05-01T14:36:45.362Z</time></trkpt><trkpt lat="44.5296647" lon="5.0210283"><ele>316.0</ele><time>2026-05-01T14:36:46.362Z</time></trkpt><trkpt lat="44.5296682" lon="5.0207904"><ele>315.0</ele><time>2026-05-01T14:36:47.362Z</time></trkpt><trkpt lat="44.5296669" lon="5.0205517"><ele>314.0</ele><time>2026-05-01T14:36:48.362Z</time></trkpt><trkpt lat="44.529662" lon="5.0203119"><ele>313.0</ele><time>2026-05-01T14:36:49.363Z</time></trkpt><trkpt lat="44.5296547" lon="5.0200743"><ele>313.66666666666663</ele><time>2026-05-01T14:36:50.362Z</time></trkpt><trkpt lat="44.5296473" lon="5.0198375"><ele>314.3333333333333</ele><time>2026-05-01T14:36:51.362Z</time></trkpt><trkpt lat="44.5296395" lon="5.0195981"><ele>315.0</ele><time>2026-05-01T14:36:52.362Z</time></trkpt><trkpt lat="44.5296306" lon="5.0193505"><ele>315.0</ele><time>2026-05-01T14:36:53.362Z</time></trkpt><trkpt lat="44.5296238" lon="5.0190939"><ele>315.0</ele><time>2026-05-01T14:36:54.362Z</time></trkpt><trkpt lat="44.5296146" lon="5.0188271"><ele>315.0</ele><time>2026-05-01T14:36:55.362Z</time></trkpt><trkpt lat="44.5296051" lon="5.0185515"><ele>314.6666666666667</ele><time>2026-05-01T14:36:56.362Z</time></trkpt><trkpt lat="44.5295951" lon="5.0182699"><ele>314.33333333333337</ele><time>2026-05-01T14:36:57.363Z</time></trkpt><trkpt lat="44.529585" lon="5.0179879"><ele>314.0</ele><time>2026-05-01T14:36:58.363Z</time></trkpt><trkpt lat="44.5295759" lon="5.0177142"><ele>314.0</ele><time>2026-05-01T14:36:59.362Z</time></trkpt><trkpt lat="44.5295652" lon="5.0174483"><ele>314.0</ele><time>2026-05-01T14:37:00.363Z</time></trkpt><trkpt lat="44.5295552" lon="5.0171947"><ele>314.0</ele><time>2026-05-01T14:37:01.362Z</time></trkpt><trkpt lat="44.5295593" lon="5.0169386"><ele>314.0</ele><time>2026-05-01T14:37:02.362Z</time></trkpt><trkpt lat="44.5295934" lon="5.0166878"><ele>314.0</ele><time>2026-05-01T14:37:03.362Z</time></trkpt><trkpt lat="44.5296484" lon="5.0164473"><ele>314.0</ele><time>2026-05-01T14:37:04.363Z</time></trkpt><trkpt lat="44.5297159" lon="5.0162037"><ele>314.0</ele><time>2026-05-01T14:37:05.362Z</time></trkpt><trkpt lat="44.5297831" lon="5.0159583"><ele>314.0</ele><time>2026-05-01T14:37:06.362Z</time></trkpt><trkpt lat="44.5298491" lon="5.0157154"><ele>314.0</ele><time>2026-05-01T14:37:07.362Z</time></trkpt><trkpt lat="44.5299157" lon="5.0154771"><ele>314.0</ele><time>2026-05-01T14:37:08.363Z</time></trkpt><trkpt lat="44.5299812" lon="5.0152409"><ele>314.0</ele><time>2026-05-01T14:37:09.363Z</time></trkpt><trkpt lat="44.5300438" lon="5.0150099"><ele>314.0</ele><time>2026-05-01T14:37:10.362Z</time></trkpt><trkpt lat="44.5301058" lon="5.0147832"><ele>314.0</ele><time>2026-05-01T14:37:11.362Z</time></trkpt><trkpt lat="44.5301661" lon="5.0145595"><ele>314.0</ele><time>2026-05-01T14:37:12.362Z</time></trkpt><trkpt lat="44.5302264" lon="5.0143438"><ele>314.0</ele><time>2026-05-01T14:37:13.362Z</time></trkpt><trkpt lat="44.5302856" lon="5.0141278"><ele>313.33333333333337</ele><time>2026-05-01T14:37:14.362Z</time></trkpt><trkpt lat="44.5303466" lon="5.0139032"><ele>312.6666666666667</ele><time>2026-05-01T14:37:15.362Z</time></trkpt><trkpt lat="44.5304072" lon="5.0136731"><ele>312.0</ele><time>2026-05-01T14:37:16.362Z</time></trkpt><trkpt lat="44.5304685" lon="5.0134383"><ele>312.3333333333333</ele><time>2026-05-01T14:37:17.362Z</time></trkpt><trkpt lat="44.5305315" lon="5.0132"><ele>312.66666666666663</ele><time>2026-05-01T14:37:18.362Z</time></trkpt><trkpt lat="44.5305958" lon="5.0129554"><ele>313.0</ele><time>2026-05-01T14:37:19.362Z</time></trkpt><trkpt lat="44.5306598" lon="5.0127058"><ele>312.0</ele><time>2026-05-01T14:37:20.362Z</time></trkpt><trkpt lat="44.5307255" lon="5.0124518"><ele>311.0</ele><time>2026-05-01T14:37:21.364Z</time></trkpt><trkpt lat="44.5307899" lon="5.012197"><ele>310.0</ele><time>2026-05-01T14:37:22.362Z</time></trkpt><trkpt lat="44.5308513" lon="5.0119289"><ele>309.66666666666663</ele><time>2026-05-01T14:37:23.363Z</time></trkpt><trkpt lat="44.5309045" lon="5.0116513"><ele>309.3333333333333</ele><time>2026-05-01T14:37:24.362Z</time></trkpt><trkpt lat="44.530954" lon="5.0113617"><ele>309.0</ele><time>2026-05-01T14:37:25.362Z</time></trkpt><trkpt lat="44.5310023" lon="5.0110643"><ele>308.6666666666667</ele><time>2026-05-01T14:37:26.364Z</time></trkpt><trkpt lat="44.5310456" lon="5.0107588"><ele>308.33333333333337</ele><time>2026-05-01T14:37:27.362Z</time></trkpt><trkpt lat="44.5310796" lon="5.0104564"><ele>308.0</ele><time>2026-05-01T14:37:28.363Z</time></trkpt><trkpt lat="44.5311113" lon="5.0101681"><ele>307.6666666666667</ele><time>2026-05-01T14:37:29.362Z</time></trkpt><trkpt lat="44.5311373" lon="5.0098889"><ele>307.3333333333333</ele><time>2026-05-01T14:37:30.362Z</time></trkpt><trkpt lat="44.5311619" lon="5.0096273"><ele>307.0</ele><time>2026-05-01T14:37:31.362Z</time></trkpt><trkpt lat="44.5311852" lon="5.0093696"><ele>307.3333333333333</ele><time>2026-05-01T14:37:32.362Z</time></trkpt><trkpt lat="44.5312052" lon="5.0091309"><ele>307.6666666666667</ele><time>2026-05-01T14:37:33.362Z</time></trkpt><trkpt lat="44.5312243" lon="5.0089076"><ele>308.0</ele><time>2026-05-01T14:37:34.363Z</time></trkpt><trkpt lat="44.5312432" lon="5.0086905"><ele>308.33333333333337</ele><time>2026-05-01T14:37:35.362Z</time></trkpt><trkpt lat="44.5312606" lon="5.0084803"><ele>308.6666666666667</ele><time>2026-05-01T14:37:36.364Z</time></trkpt><trkpt lat="44.5312773" lon="5.0082695"><ele>309.0</ele><time>2026-05-01T14:37:37.362Z</time></trkpt><trkpt lat="44.5312939" lon="5.0080543"><ele>308.0</ele><time>2026-05-01T14:37:38.362Z</time></trkpt><trkpt lat="44.5313096" lon="5.007837"><ele>307.0</ele><time>2026-05-01T14:37:39.363Z</time></trkpt><trkpt lat="44.5313251" lon="5.0076207"><ele>306.0</ele><time>2026-05-01T14:37:40.363Z</time></trkpt><trkpt lat="44.5313411" lon="5.0074245"><ele>305.40000000000003</ele><time>2026-05-01T14:37:41.362Z</time></trkpt><trkpt lat="44.5313545" lon="5.0072607"><ele>304.8</ele><time>2026-05-01T14:37:42.362Z</time></trkpt><trkpt lat="44.531367" lon="5.0071185"><ele>304.20000000000005</ele><time>2026-05-01T14:37:43.362Z</time></trkpt><trkpt lat="44.5313782" lon="5.0069787"><ele>303.6</ele><time>2026-05-01T14:37:44.362Z</time></trkpt><trkpt lat="44.5313899" lon="5.0068377"><ele>303.0</ele><time>2026-05-01T14:37:45.362Z</time></trkpt><trkpt lat="44.5314009" lon="5.0067043"><ele>302.75</ele><time>2026-05-01T14:37:46.362Z</time></trkpt><trkpt lat="44.5314109" lon="5.0065637"><ele>302.5</ele><time>2026-05-01T14:37:47.362Z</time></trkpt><trkpt lat="44.5314219" lon="5.0064066"><ele>302.25</ele><time>2026-05-01T14:37:48.362Z</time></trkpt><trkpt lat="44.5314313" lon="5.0062333"><ele>302.0</ele><time>2026-05-01T14:37:49.362Z</time></trkpt><trkpt lat="44.5314467" lon="5.006042"><ele>302.0</ele><time>2026-05-01T14:37:50.363Z</time></trkpt><trkpt lat="44.5314609" lon="5.0058369"><ele>302.0</ele><time>2026-05-01T14:37:51.362Z</time></trkpt><trkpt lat="44.531477" lon="5.0056199"><ele>302.0</ele><time>2026-05-01T14:37:52.362Z</time></trkpt><trkpt lat="44.5314977" lon="5.0053962"><ele>301.75</ele><time>2026-05-01T14:37:53.362Z</time></trkpt><trkpt lat="44.5315211" lon="5.0051822"><ele>301.5</ele><time>2026-05-01T14:37:54.363Z</time></trkpt><trkpt lat="44.531545" lon="5.0049786"><ele>301.25</ele><time>2026-05-01T14:37:55.362Z</time></trkpt><trkpt lat="44.5315677" lon="5.0047893"><ele>301.0</ele><time>2026-05-01T14:37:56.362Z</time></trkpt><trkpt lat="44.5315899" lon="5.0046162"><ele>300.5</ele><time>2026-05-01T14:37:57.362Z</time></trkpt><trkpt lat="44.5316128" lon="5.0044387"><ele>300.0</ele><time>2026-05-01T14:37:58.362Z</time></trkpt><trkpt lat="44.5316364" lon="5.0042561"><ele>299.5</ele><time>2026-05-01T14:37:59.362Z</time></trkpt><trkpt lat="44.5316639" lon="5.0040753"><ele>299.0</ele><time>2026-05-01T14:38:00.363Z</time></trkpt><trkpt lat="44.5316911" lon="5.003908"><ele>298.75</ele><time>2026-05-01T14:38:01.362Z</time></trkpt><trkpt lat="44.5317158" lon="5.003759"><ele>298.5</ele><time>2026-05-01T14:38:02.362Z</time></trkpt><trkpt lat="44.5317403" lon="5.0036183"><ele>298.25</ele><time>2026-05-01T14:38:03.363Z</time></trkpt><trkpt lat="44.531764" lon="5.0034651"><ele>298.0</ele><time>2026-05-01T14:38:04.362Z</time></trkpt><trkpt lat="44.5317903" lon="5.0032809"><ele>298.0</ele><time>2026-05-01T14:38:05.363Z</time></trkpt><trkpt lat="44.5318295" lon="5.0030748"><ele>298.0</ele><time>2026-05-01T14:38:06.362Z</time></trkpt><trkpt lat="44.5318852" lon="5.0028546"><ele>298.0</ele><time>2026-05-01T14:38:07.363Z</time></trkpt><trkpt lat="44.531951" lon="5.0025987"><ele>298.3333333333333</ele><time>2026-05-01T14:38:08.363Z</time></trkpt><trkpt lat="44.5320229" lon="5.0023136"><ele>298.6666666666667</ele><time>2026-05-01T14:38:09.362Z</time></trkpt><trkpt lat="44.5320942" lon="5.0020189"><ele>299.0</ele><time>2026-05-01T14:38:10.363Z</time></trkpt><trkpt lat="44.5321631" lon="5.0017127"><ele>298.0</ele><time>2026-05-01T14:38:11.362Z</time></trkpt><trkpt lat="44.5322333" lon="5.0013998"><ele>297.0</ele><time>2026-05-01T14:38:12.364Z</time></trkpt><trkpt lat="44.5322972" lon="5.0010808"><ele>296.0</ele><time>2026-05-01T14:38:13.363Z</time></trkpt><trkpt lat="44.532361" lon="5.0007589"><ele>295.0</ele><time>2026-05-01T14:38:14.363Z</time></trkpt><trkpt lat="44.5324173" lon="5.0004327"><ele>295.0</ele><time>2026-05-01T14:38:15.362Z</time></trkpt><trkpt lat="44.5324585" lon="5.0001014"><ele>295.0</ele><time>2026-05-01T14:38:16.362Z</time></trkpt><trkpt lat="44.532482" lon="4.9997608"><ele>295.0</ele><time>2026-05-01T14:38:17.362Z</time></trkpt><trkpt lat="44.5324907" lon="4.9994177"><ele>295.0</ele><time>2026-05-01T14:38:18.363Z</time></trkpt><trkpt lat="44.5324814" lon="4.9990638"><ele>294.0</ele><time>2026-05-01T14:38:19.362Z</time></trkpt><trkpt lat="44.5324564" lon="4.9987137"><ele>293.0</ele><time>2026-05-01T14:38:20.362Z</time></trkpt><trkpt lat="44.5324127" lon="4.9983657"><ele>293.0</ele><time>2026-05-01T14:38:21.363Z</time></trkpt><trkpt lat="44.5323484" lon="4.9980257"><ele>293.0</ele><time>2026-05-01T14:38:22.362Z</time></trkpt><trkpt lat="44.5322708" lon="4.9976879"><ele>292.5</ele><time>2026-05-01T14:38:23.362Z</time></trkpt><trkpt lat="44.5321809" lon="4.9973476"><ele>292.0</ele><time>2026-05-01T14:38:24.362Z</time></trkpt><trkpt lat="44.5320871" lon="4.9970044"><ele>289.0</ele><time>2026-05-01T14:38:25.363Z</time></trkpt><trkpt lat="44.5319926" lon="4.9966561"><ele>286.0</ele><time>2026-05-01T14:38:26.362Z</time></trkpt><trkpt lat="44.5319002" lon="4.9963058"><ele>286.0</ele><time>2026-05-01T14:38:27.362Z</time></trkpt><trkpt lat="44.5318081" lon="4.9959543"><ele>286.0</ele><time>2026-05-01T14:38:28.362Z</time></trkpt><trkpt lat="44.5317177" lon="4.9956096"><ele>286.5</ele><time>2026-05-01T14:38:29.362Z</time></trkpt><trkpt lat="44.5316302" lon="4.9952687"><ele>287.0</ele><time>2026-05-01T14:38:30.363Z</time></trkpt><trkpt lat="44.5315441" lon="4.9949378"><ele>287.5</ele><time>2026-05-01T14:38:31.362Z</time></trkpt><trkpt lat="44.5314581" lon="4.9946121"><ele>288.0</ele><time>2026-05-01T14:38:32.362Z</time></trkpt><trkpt lat="44.5313709" lon="4.9942905"><ele>287.5</ele><time>2026-05-01T14:38:33.362Z</time></trkpt><trkpt lat="44.5312873" lon="4.9939751"><ele>287.0</ele><time>2026-05-01T14:38:34.362Z</time></trkpt><trkpt lat="44.531205" lon="4.993665"><ele>286.0</ele><time>2026-05-01T14:38:35.362Z</time></trkpt><trkpt lat="44.5311249" lon="4.9933521"><ele>285.0</ele><time>2026-05-01T14:38:36.362Z</time></trkpt><trkpt lat="44.5310416" lon="4.993035"><ele>284.5</ele><time>2026-05-01T14:38:37.362Z</time></trkpt><trkpt lat="44.530957" lon="4.9927235"><ele>284.0</ele><time>2026-05-01T14:38:38.363Z</time></trkpt><trkpt lat="44.5308748" lon="4.9924253"><ele>283.6666666666667</ele><time>2026-05-01T14:38:39.362Z</time></trkpt><trkpt lat="44.5307939" lon="4.992138"><ele>283.3333333333333</ele><time>2026-05-01T14:38:40.362Z</time></trkpt><trkpt lat="44.5307131" lon="4.9918565"><ele>283.0</ele><time>2026-05-01T14:38:41.362Z</time></trkpt><trkpt lat="44.530631" lon="4.9915784"><ele>283.66666666666663</ele><time>2026-05-01T14:38:42.362Z</time></trkpt><trkpt lat="44.5305451" lon="4.9913002"><ele>284.3333333333333</ele><time>2026-05-01T14:38:43.362Z</time></trkpt><trkpt lat="44.5304483" lon="4.9910256"><ele>285.0</ele><time>2026-05-01T14:38:44.362Z</time></trkpt><trkpt lat="44.5303393" lon="4.9907542"><ele>286.0</ele><time>2026-05-01T14:38:45.362Z</time></trkpt><trkpt lat="44.5302148" lon="4.9904886"><ele>287.0</ele><time>2026-05-01T14:38:46.362Z</time></trkpt><trkpt lat="44.5300779" lon="4.9902259"><ele>286.5</ele><time>2026-05-01T14:38:47.363Z</time></trkpt><trkpt lat="44.5299293" lon="4.9899709"><ele>286.0</ele><time>2026-05-01T14:38:48.363Z</time></trkpt><trkpt lat="44.5297647" lon="4.9897269"><ele>286.0</ele><time>2026-05-01T14:38:49.362Z</time></trkpt><trkpt lat="44.5295852" lon="4.9894873"><ele>286.0</ele><time>2026-05-01T14:38:50.363Z</time></trkpt><trkpt lat="44.5293986" lon="4.9892495"><ele>285.5</ele><time>2026-05-01T14:38:51.362Z</time></trkpt><trkpt lat="44.5292084" lon="4.989005"><ele>285.0</ele><time>2026-05-01T14:38:52.362Z</time></trkpt><trkpt lat="44.5290161" lon="4.9887581"><ele>285.0</ele><time>2026-05-01T14:38:53.363Z</time></trkpt><trkpt lat="44.5288216" lon="4.9885067"><ele>285.0</ele><time>2026-05-01T14:38:54.362Z</time></trkpt><trkpt lat="44.5286262" lon="4.9882538"><ele>283.5</ele><time>2026-05-01T14:38:55.362Z</time></trkpt><trkpt lat="44.5284296" lon="4.9879922"><ele>282.0</ele><time>2026-05-01T14:38:56.363Z</time></trkpt><trkpt lat="44.528233" lon="4.9877344"><ele>280.5</ele><time>2026-05-01T14:38:57.362Z</time></trkpt><trkpt lat="44.5280369" lon="4.9874797"><ele>279.0</ele><time>2026-05-01T14:38:58.362Z</time></trkpt><trkpt lat="44.5278455" lon="4.9872336"><ele>279.0</ele><time>2026-05-01T14:38:59.362Z</time></trkpt><trkpt lat="44.5276592" lon="4.9869973"><ele>279.0</ele><time>2026-05-01T14:39:00.362Z</time></trkpt><trkpt lat="44.5274807" lon="4.9867647"><ele>282.0</ele><time>2026-05-01T14:39:01.362Z</time></trkpt><trkpt lat="44.5273097" lon="4.9865328"><ele>285.0</ele><time>2026-05-01T14:39:02.362Z</time></trkpt><trkpt lat="44.5271499" lon="4.9862838"><ele>281.5</ele><time>2026-05-01T14:39:03.362Z</time></trkpt><trkpt lat="44.5270053" lon="4.9860129"><ele>278.0</ele><time>2026-05-01T14:39:04.362Z</time></trkpt><trkpt lat="44.5268795" lon="4.9857222"><ele>278.0</ele><time>2026-05-01T14:39:05.362Z</time></trkpt><trkpt lat="44.5267742" lon="4.9854089"><ele>278.0</ele><time>2026-05-01T14:39:06.362Z</time></trkpt><trkpt lat="44.5266773" lon="4.9850824"><ele>281.0</ele><time>2026-05-01T14:39:07.362Z</time></trkpt><trkpt lat="44.5265769" lon="4.9847531"><ele>284.0</ele><time>2026-05-01T14:39:08.362Z</time></trkpt><trkpt lat="44.5264761" lon="4.9844206"><ele>285.5</ele><time>2026-05-01T14:39:09.362Z</time></trkpt><trkpt lat="44.5263744" lon="4.984087"><ele>287.0</ele><time>2026-05-01T14:39:10.362Z</time></trkpt><trkpt lat="44.526274" lon="4.9837561"><ele>280.5</ele><time>2026-05-01T14:39:11.362Z</time></trkpt><trkpt lat="44.5261749" lon="4.9834412"><ele>274.0</ele><time>2026-05-01T14:39:12.362Z</time></trkpt><trkpt lat="44.5260817" lon="4.9831328"><ele>274.0</ele><time>2026-05-01T14:39:13.362Z</time></trkpt><trkpt lat="44.5259874" lon="4.9828264"><ele>274.0</ele><time>2026-05-01T14:39:14.362Z</time></trkpt><trkpt lat="44.5258895" lon="4.9825162"><ele>274.5</ele><time>2026-05-01T14:39:15.362Z</time></trkpt><trkpt lat="44.5257989" lon="4.9822017"><ele>275.0</ele><time>2026-05-01T14:39:16.362Z</time></trkpt><trkpt lat="44.52572" lon="4.9818818"><ele>276.0</ele><time>2026-05-01T14:39:17.362Z</time></trkpt><trkpt lat="44.5256552" lon="4.9815558"><ele>277.0</ele><time>2026-05-01T14:39:18.364Z</time></trkpt><trkpt lat="44.5256094" lon="4.9812248"><ele>277.0</ele><time>2026-05-01T14:39:19.362Z</time></trkpt><trkpt lat="44.5255821" lon="4.9808907"><ele>277.0</ele><time>2026-05-01T14:39:20.362Z</time></trkpt><trkpt lat="44.5255676" lon="4.980555"><ele>276.5</ele><time>2026-05-01T14:39:21.362Z</time></trkpt><trkpt lat="44.5255648" lon="4.9802254"><ele>276.0</ele><time>2026-05-01T14:39:22.362Z</time></trkpt><trkpt lat="44.5255631" lon="4.9798972"><ele>275.0</ele><time>2026-05-01T14:39:23.362Z</time></trkpt><trkpt lat="44.5255614" lon="4.9795652"><ele>274.0</ele><time>2026-05-01T14:39:24.362Z</time></trkpt><trkpt lat="44.5255624" lon="4.9792278"><ele>272.0</ele><time>2026-05-01T14:39:25.363Z</time></trkpt><trkpt lat="44.5255633" lon="4.9788849"><ele>270.0</ele><time>2026-05-01T14:39:26.362Z</time></trkpt><trkpt lat="44.5255636" lon="4.9785395"><ele>268.5</ele><time>2026-05-01T14:39:27.363Z</time></trkpt><trkpt lat="44.5255684" lon="4.9781953"><ele>267.0</ele><time>2026-05-01T14:39:28.362Z</time></trkpt><trkpt lat="44.5255823" lon="4.9778529"><ele>266.5</ele><time>2026-05-01T14:39:29.363Z</time></trkpt><trkpt lat="44.5256157" lon="4.9775157"><ele>266.0</ele><time>2026-05-01T14:39:30.362Z</time></trkpt><trkpt lat="44.5256699" lon="4.9771876"><ele>266.0</ele><time>2026-05-01T14:39:31.362Z</time></trkpt><trkpt lat="44.5257422" lon="4.9768697"><ele>266.0</ele><time>2026-05-01T14:39:32.363Z</time></trkpt><trkpt lat="44.525832" lon="4.9765671"><ele>265.5</ele><time>2026-05-01T14:39:33.362Z</time></trkpt><trkpt lat="44.5259394" lon="4.9762731"><ele>265.0</ele><time>2026-05-01T14:39:34.362Z</time></trkpt><trkpt lat="44.5260613" lon="4.975987"><ele>265.5</ele><time>2026-05-01T14:39:35.362Z</time></trkpt><trkpt lat="44.5261987" lon="4.9757174"><ele>266.0</ele><time>2026-05-01T14:39:36.362Z</time></trkpt><trkpt lat="44.5263444" lon="4.9754687"><ele>266.0</ele><time>2026-05-01T14:39:37.362Z</time></trkpt><trkpt lat="44.5264946" lon="4.9752322"><ele>266.0</ele><time>2026-05-01T14:39:38.362Z</time></trkpt><trkpt lat="44.5266479" lon="4.9749962"><ele>264.0</ele><time>2026-05-01T14:39:39.362Z</time></trkpt><trkpt lat="44.5268008" lon="4.9747572"><ele>262.0</ele><time>2026-05-01T14:39:40.362Z</time></trkpt><trkpt lat="44.5269545" lon="4.9745139"><ele>264.0</ele><time>2026-05-01T14:39:41.362Z</time></trkpt><trkpt lat="44.5271115" lon="4.974269"><ele>266.0</ele><time>2026-05-01T14:39:42.362Z</time></trkpt><trkpt lat="44.5272707" lon="4.9740231"><ele>266.0</ele><time>2026-05-01T14:39:43.362Z</time></trkpt><trkpt lat="44.527429" lon="4.9737812"><ele>266.0</ele><time>2026-05-01T14:39:44.362Z</time></trkpt><trkpt lat="44.5275847" lon="4.9735483"><ele>265.0</ele><time>2026-05-01T14:39:45.362Z</time></trkpt><trkpt lat="44.5277376" lon="4.9733243"><ele>264.0</ele><time>2026-05-01T14:39:46.362Z</time></trkpt><trkpt lat="44.527887" lon="4.9730992"><ele>263.0</ele><time>2026-05-01T14:39:47.363Z</time></trkpt><trkpt lat="44.5280352" lon="4.9728727"><ele>263.33333333333337</ele><time>2026-05-01T14:39:48.362Z</time></trkpt><trkpt lat="44.5281822" lon="4.9726447"><ele>263.6666666666667</ele><time>2026-05-01T14:39:49.362Z</time></trkpt><trkpt lat="44.5283306" lon="4.9724133"><ele>264.0</ele><time>2026-05-01T14:39:50.363Z</time></trkpt><trkpt lat="44.5284806" lon="4.9721785"><ele>264.0</ele><time>2026-05-01T14:39:51.362Z</time></trkpt><trkpt lat="44.5286315" lon="4.9719355"><ele>264.0</ele><time>2026-05-01T14:39:52.362Z</time></trkpt><trkpt lat="44.5287868" lon="4.9716912"><ele>269.0</ele><time>2026-05-01T14:39:53.363Z</time></trkpt><trkpt lat="44.5289462" lon="4.971445"><ele>274.0</ele><time>2026-05-01T14:39:54.363Z</time></trkpt><trkpt lat="44.5291098" lon="4.971195"><ele>274.0</ele><time>2026-05-01T14:39:55.364Z</time></trkpt><trkpt lat="44.5292737" lon="4.9709382"><ele>274.0</ele><time>2026-05-01T14:39:56.362Z</time></trkpt><trkpt lat="44.5294397" lon="4.9706772"><ele>279.0</ele><time>2026-05-01T14:39:57.362Z</time></trkpt><trkpt lat="44.5296073" lon="4.9704156"><ele>284.0</ele><time>2026-05-01T14:39:58.362Z</time></trkpt><trkpt lat="44.5297762" lon="4.9701541"><ele>276.0</ele><time>2026-05-01T14:39:59.362Z</time></trkpt><trkpt lat="44.5299413" lon="4.9698991"><ele>268.0</ele><time>2026-05-01T14:40:00.363Z</time></trkpt><trkpt lat="44.5301022" lon="4.969641"><ele>268.0</ele><time>2026-05-01T14:40:01.362Z</time></trkpt><trkpt lat="44.5302632" lon="4.9693847"><ele>268.0</ele><time>2026-05-01T14:40:02.362Z</time></trkpt><trkpt lat="44.5304245" lon="4.9691287"><ele>268.0</ele><time>2026-05-01T14:40:03.362Z</time></trkpt><trkpt lat="44.5305856" lon="4.9688756"><ele>268.0</ele><time>2026-05-01T14:40:04.362Z</time></trkpt><trkpt lat="44.5307405" lon="4.9686228"><ele>268.0</ele><time>2026-05-01T14:40:05.362Z</time></trkpt><trkpt lat="44.5308882" lon="4.9683661"><ele>268.0</ele><time>2026-05-01T14:40:06.362Z</time></trkpt><trkpt lat="44.5310378" lon="4.9681143"><ele>265.5</ele><time>2026-05-01T14:40:07.363Z</time></trkpt><trkpt lat="44.5311998" lon="4.9678747"><ele>263.0</ele><time>2026-05-01T14:40:08.362Z</time></trkpt><trkpt lat="44.5313738" lon="4.9676576"><ele>266.5</ele><time>2026-05-01T14:40:09.362Z</time></trkpt><trkpt lat="44.5315616" lon="4.9674551"><ele>270.0</ele><time>2026-05-01T14:40:10.362Z</time></trkpt><trkpt lat="44.5317616" lon="4.9672737"><ele>270.0</ele><time>2026-05-01T14:40:11.363Z</time></trkpt><trkpt lat="44.5319714" lon="4.9671215"><ele>270.0</ele><time>2026-05-01T14:40:12.363Z</time></trkpt><trkpt lat="44.5321883" lon="4.9669983"><ele>280.5</ele><time>2026-05-01T14:40:13.362Z</time></trkpt><trkpt lat="44.5324088" lon="4.9668823"><ele>291.0</ele><time>2026-05-01T14:40:14.362Z</time></trkpt><trkpt lat="44.5326299" lon="4.9667639"><ele>277.5</ele><time>2026-05-01T14:40:15.362Z</time></trkpt><trkpt lat="44.5328529" lon="4.9666408"><ele>264.0</ele><time>2026-05-01T14:40:16.363Z</time></trkpt><trkpt lat="44.5330805" lon="4.9665182"><ele>264.0</ele><time>2026-05-01T14:40:17.362Z</time></trkpt><trkpt lat="44.5333111" lon="4.9663995"><ele>264.0</ele><time>2026-05-01T14:40:18.364Z</time></trkpt><trkpt lat="44.5335408" lon="4.9662817"><ele>272.5</ele><time>2026-05-01T14:40:19.362Z</time></trkpt><trkpt lat="44.5337682" lon="4.9661536"><ele>281.0</ele><time>2026-05-01T14:40:20.362Z</time></trkpt><trkpt lat="44.5339865" lon="4.9660008"><ele>268.0</ele><time>2026-05-01T14:40:21.362Z</time></trkpt><trkpt lat="44.5341964" lon="4.9658103"><ele>255.0</ele><time>2026-05-01T14:40:22.362Z</time></trkpt><trkpt lat="44.5343963" lon="4.9655823"><ele>259.5</ele><time>2026-05-01T14:40:23.362Z</time></trkpt><trkpt lat="44.534584" lon="4.9653398"><ele>264.0</ele><time>2026-05-01T14:40:24.362Z</time></trkpt><trkpt lat="44.5347599" lon="4.9650892"><ele>257.5</ele><time>2026-05-01T14:40:25.362Z</time></trkpt><trkpt lat="44.534929" lon="4.9648437"><ele>251.0</ele><time>2026-05-01T14:40:26.362Z</time></trkpt><trkpt lat="44.5351061" lon="4.9646251"><ele>251.0</ele><time>2026-05-01T14:40:27.362Z</time></trkpt><trkpt lat="44.5352975" lon="4.9644459"><ele>251.0</ele><time>2026-05-01T14:40:28.363Z</time></trkpt><trkpt lat="44.5355075" lon="4.9642989"><ele>248.5</ele><time>2026-05-01T14:40:29.362Z</time></trkpt><trkpt lat="44.5357342" lon="4.9641807"><ele>246.0</ele><time>2026-05-01T14:40:30.362Z</time></trkpt><trkpt lat="44.5359698" lon="4.9640769"><ele>246.0</ele><time>2026-05-01T14:40:31.362Z</time></trkpt><trkpt lat="44.5361996" lon="4.9639789"><ele>246.0</ele><time>2026-05-01T14:40:32.363Z</time></trkpt><trkpt lat="44.5364212" lon="4.9638735"><ele>250.5</ele><time>2026-05-01T14:40:33.362Z</time></trkpt><trkpt lat="44.5366341" lon="4.9637582"><ele>255.0</ele><time>2026-05-01T14:40:34.363Z</time></trkpt><trkpt lat="44.5368384" lon="4.9636377"><ele>255.0</ele><time>2026-05-01T14:40:35.362Z</time></trkpt><trkpt lat="44.5370359" lon="4.9635122"><ele>255.0</ele><time>2026-05-01T14:40:36.362Z</time></trkpt><trkpt lat="44.5372252" lon="4.9633815"><ele>255.0</ele><time>2026-05-01T14:40:37.362Z</time></trkpt><trkpt lat="44.5374032" lon="4.9632414"><ele>253.33333333333331</ele><time>2026-05-01T14:40:38.362Z</time></trkpt><trkpt lat="44.5375722" lon="4.963095"><ele>251.66666666666666</ele><time>2026-05-01T14:40:39.362Z</time></trkpt><trkpt lat="44.5377291" lon="4.9629327"><ele>250.0</ele><time>2026-05-01T14:40:40.362Z</time></trkpt><trkpt lat="44.5378887" lon="4.9627587"><ele>251.0</ele><time>2026-05-01T14:40:41.362Z</time></trkpt><trkpt lat="44.5380496" lon="4.9625721"><ele>252.0</ele><time>2026-05-01T14:40:42.363Z</time></trkpt><trkpt lat="44.5381997" lon="4.962357"><ele>253.0</ele><time>2026-05-01T14:40:43.362Z</time></trkpt><trkpt lat="44.5383236" lon="4.9621137"><ele>253.0</ele><time>2026-05-01T14:40:44.363Z</time></trkpt><trkpt lat="44.5384187" lon="4.9618432"><ele>253.0</ele><time>2026-05-01T14:40:45.362Z</time></trkpt><trkpt lat="44.5384845" lon="4.961549"><ele>253.0</ele><time>2026-05-01T14:40:46.363Z</time></trkpt><trkpt lat="44.5385319" lon="4.9612382"><ele>248.66666666666666</ele><time>2026-05-01T14:40:47.362Z</time></trkpt><trkpt lat="44.538585" lon="4.9609328"><ele>244.33333333333331</ele><time>2026-05-01T14:40:48.363Z</time></trkpt><trkpt lat="44.5386595" lon="4.9606469"><ele>240.0</ele><time>2026-05-01T14:40:49.362Z</time></trkpt><trkpt lat="44.5387454" lon="4.9603742"><ele>240.0</ele><time>2026-05-01T14:40:50.363Z</time></trkpt><trkpt lat="44.5388504" lon="4.9601161"><ele>240.0</ele><time>2026-05-01T14:40:51.362Z</time></trkpt><trkpt lat="44.5389814" lon="4.9598737"><ele>240.0</ele><time>2026-05-01T14:40:52.362Z</time></trkpt><trkpt lat="44.5391303" lon="4.9596438"><ele>239.0</ele><time>2026-05-01T14:40:53.362Z</time></trkpt><trkpt lat="44.5392828" lon="4.9594079"><ele>238.0</ele><time>2026-05-01T14:40:54.362Z</time></trkpt><trkpt lat="44.5394404" lon="4.9591673"><ele>240.0</ele><time>2026-05-01T14:40:55.362Z</time></trkpt><trkpt lat="44.5396008" lon="4.9589187"><ele>242.0</ele><time>2026-05-01T14:40:56.362Z</time></trkpt><trkpt lat="44.5397577" lon="4.9586566"><ele>242.0</ele><time>2026-05-01T14:40:57.362Z</time></trkpt><trkpt lat="44.5399099" lon="4.9583828"><ele>242.0</ele><time>2026-05-01T14:40:58.362Z</time></trkpt><trkpt lat="44.540057" lon="4.9581083"><ele>240.5</ele><time>2026-05-01T14:40:59.363Z</time></trkpt><trkpt lat="44.5401981" lon="4.9578444"><ele>239.0</ele><time>2026-05-01T14:41:00.362Z</time></trkpt><trkpt lat="44.5403396" lon="4.957592"><ele>241.66666666666669</ele><time>2026-05-01T14:41:01.362Z</time></trkpt><trkpt lat="44.5404713" lon="4.9573421"><ele>244.33333333333331</ele><time>2026-05-01T14:41:02.363Z</time></trkpt><trkpt lat="44.5405824" lon="4.9570836"><ele>247.0</ele><time>2026-05-01T14:41:03.363Z</time></trkpt><trkpt lat="44.5406729" lon="4.9568211"><ele>243.33333333333331</ele><time>2026-05-01T14:41:04.362Z</time></trkpt><trkpt lat="44.5407484" lon="4.9565584"><ele>239.66666666666669</ele><time>2026-05-01T14:41:05.362Z</time></trkpt><trkpt lat="44.5408101" lon="4.9562943"><ele>236.0</ele><time>2026-05-01T14:41:06.364Z</time></trkpt><trkpt lat="44.5408697" lon="4.9560284"><ele>235.0</ele><time>2026-05-01T14:41:07.362Z</time></trkpt><trkpt lat="44.5409225" lon="4.9557594"><ele>234.0</ele><time>2026-05-01T14:41:08.362Z</time></trkpt><trkpt lat="44.5409508" lon="4.9554834"><ele>233.0</ele><time>2026-05-01T14:41:09.362Z</time></trkpt><trkpt lat="44.5409512" lon="4.9551991"><ele>233.66666666666669</ele><time>2026-05-01T14:41:10.363Z</time></trkpt><trkpt lat="44.5409331" lon="4.9549236"><ele>234.33333333333331</ele><time>2026-05-01T14:41:11.362Z</time></trkpt><trkpt lat="44.5409123" lon="4.9546571"><ele>235.0</ele><time>2026-05-01T14:41:12.363Z</time></trkpt><trkpt lat="44.5409186" lon="4.9544091"><ele>234.66666666666666</ele><time>2026-05-01T14:41:13.362Z</time></trkpt><trkpt lat="44.540955" lon="4.9541773"><ele>234.33333333333331</ele><time>2026-05-01T14:41:14.362Z</time></trkpt><trkpt lat="44.541017" lon="4.9539588"><ele>234.0</ele><time>2026-05-01T14:41:15.362Z</time></trkpt><trkpt lat="44.541107" lon="4.953752"><ele>236.0</ele><time>2026-05-01T14:41:16.362Z</time></trkpt><trkpt lat="44.5412187" lon="4.9535517"><ele>238.0</ele><time>2026-05-01T14:41:17.363Z</time></trkpt><trkpt lat="44.5413437" lon="4.9533523"><ele>240.0</ele><time>2026-05-01T14:41:18.362Z</time></trkpt><trkpt lat="44.541473" lon="4.9531442"><ele>240.0</ele><time>2026-05-01T14:41:19.363Z</time></trkpt><trkpt lat="44.5416042" lon="4.9529285"><ele>240.0</ele><time>2026-05-01T14:41:20.362Z</time></trkpt><trkpt lat="44.541729" lon="4.9527195"><ele>240.0</ele><time>2026-05-01T14:41:21.364Z</time></trkpt><trkpt lat="44.5418538" lon="4.9525188"><ele>237.0</ele><time>2026-05-01T14:41:22.362Z</time></trkpt><trkpt lat="44.5419747" lon="4.9523228"><ele>234.0</ele><time>2026-05-01T14:41:23.363Z</time></trkpt><trkpt lat="44.5420727" lon="4.9521018"><ele>231.0</ele><time>2026-05-01T14:41:24.362Z</time></trkpt><trkpt lat="44.5421396" lon="4.9518578"><ele>235.0</ele><time>2026-05-01T14:41:25.363Z</time></trkpt><trkpt lat="44.5421703" lon="4.9516118"><ele>239.0</ele><time>2026-05-01T14:41:26.363Z</time></trkpt><trkpt lat="44.5421854" lon="4.9513492"><ele>243.0</ele><time>2026-05-01T14:41:27.362Z</time></trkpt><trkpt lat="44.5421941" lon="4.9510713"><ele>240.66666666666669</ele><time>2026-05-01T14:41:28.362Z</time></trkpt><trkpt lat="44.5422086" lon="4.9507732"><ele>238.33333333333334</ele><time>2026-05-01T14:41:29.362Z</time></trkpt><trkpt lat="44.542229" lon="4.9504696"><ele>236.0</ele><time>2026-05-01T14:41:30.362Z</time></trkpt><trkpt lat="44.5422541" lon="4.9501695"><ele>235.33333333333334</ele><time>2026-05-01T14:41:31.362Z</time></trkpt><trkpt lat="44.5422866" lon="4.9498781"><ele>234.66666666666669</ele><time>2026-05-01T14:41:32.363Z</time></trkpt><trkpt lat="44.5423228" lon="4.9495887"><ele>234.0</ele><time>2026-05-01T14:41:33.362Z</time></trkpt><trkpt lat="44.5423608" lon="4.9493055"><ele>233.0</ele><time>2026-05-01T14:41:34.362Z</time></trkpt><trkpt lat="44.5423997" lon="4.9490278"><ele>232.0</ele><time>2026-05-01T14:41:35.362Z</time></trkpt><trkpt lat="44.5424421" lon="4.9487581"><ele>231.0</ele><time>2026-05-01T14:41:36.363Z</time></trkpt><trkpt lat="44.5424857" lon="4.948503"><ele>230.66666666666669</ele><time>2026-05-01T14:41:37.362Z</time></trkpt><trkpt lat="44.5425331" lon="4.9482589"><ele>230.33333333333334</ele><time>2026-05-01T14:41:38.362Z</time></trkpt><trkpt lat="44.5425794" lon="4.948027"><ele>230.0</ele><time>2026-05-01T14:41:39.362Z</time></trkpt><trkpt lat="44.5426263" lon="4.9478093"><ele>230.0</ele><time>2026-05-01T14:41:40.362Z</time></trkpt><trkpt lat="44.5426753" lon="4.9476004"><ele>230.0</ele><time>2026-05-01T14:41:41.362Z</time></trkpt><trkpt lat="44.5427205" lon="4.9474157"><ele>230.0</ele><time>2026-05-01T14:41:42.362Z</time></trkpt><trkpt lat="44.5427645" lon="4.9472514"><ele>230.0</ele><time>2026-05-01T14:41:43.362Z</time></trkpt><trkpt lat="44.5428088" lon="4.9471085"><ele>229.8</ele><time>2026-05-01T14:41:44.362Z</time></trkpt><trkpt lat="44.5428564" lon="4.9469825"><ele>229.6</ele><time>2026-05-01T14:41:45.362Z</time></trkpt><trkpt lat="44.5429084" lon="4.9468759"><ele>229.39999999999998</ele><time>2026-05-01T14:41:46.363Z</time></trkpt><trkpt lat="44.5429643" lon="4.9467706"><ele>229.2</ele><time>2026-05-01T14:41:47.362Z</time></trkpt><trkpt lat="44.5430234" lon="4.9466644"><ele>229.0</ele><time>2026-05-01T14:41:48.362Z</time></trkpt><trkpt lat="44.5430846" lon="4.9465492"><ele>229.0</ele><time>2026-05-01T14:41:49.363Z</time></trkpt><trkpt lat="44.5431477" lon="4.9464241"><ele>229.0</ele><time>2026-05-01T14:41:50.362Z</time></trkpt><trkpt lat="44.5432127" lon="4.946292"><ele>229.0</ele><time>2026-05-01T14:41:51.362Z</time></trkpt><trkpt lat="44.5432791" lon="4.9461489"><ele>229.0</ele><time>2026-05-01T14:41:52.362Z</time></trkpt><trkpt lat="44.5433345" lon="4.9459915"><ele>228.5</ele><time>2026-05-01T14:41:53.362Z</time></trkpt><trkpt lat="44.5433645" lon="4.9458246"><ele>228.0</ele><time>2026-05-01T14:41:54.362Z</time></trkpt><trkpt lat="44.5433729" lon="4.9456498"><ele>227.5</ele><time>2026-05-01T14:41:55.362Z</time></trkpt><trkpt lat="44.5433652" lon="4.9454695"><ele>227.0</ele><time>2026-05-01T14:41:56.362Z</time></trkpt><trkpt lat="44.543351" lon="4.945278"><ele>227.0</ele><time>2026-05-01T14:41:57.363Z</time></trkpt><trkpt lat="44.5433293" lon="4.9450715"><ele>227.0</ele><time>2026-05-01T14:41:58.363Z</time></trkpt><trkpt lat="44.5433086" lon="4.9448552"><ele>227.0</ele><time>2026-05-01T14:41:59.362Z</time></trkpt><trkpt lat="44.5432884" lon="4.9446281"><ele>227.33333333333334</ele><time>2026-05-01T14:42:00.362Z</time></trkpt><trkpt lat="44.543267" lon="4.9443869"><ele>227.66666666666669</ele><time>2026-05-01T14:42:01.362Z</time></trkpt><trkpt lat="44.5432563" lon="4.944147"><ele>228.0</ele><time>2026-05-01T14:42:02.362Z</time></trkpt><trkpt lat="44.5432618" lon="4.9439154"><ele>227.0</ele><time>2026-05-01T14:42:03.362Z</time></trkpt><trkpt lat="44.5432816" lon="4.9436886"><ele>226.0</ele><time>2026-05-01T14:42:04.363Z</time></trkpt><trkpt lat="44.5433098" lon="4.9434573"><ele>225.0</ele><time>2026-05-01T14:42:05.362Z</time></trkpt><trkpt lat="44.5433421" lon="4.943229"><ele>224.33333333333331</ele><time>2026-05-01T14:42:06.362Z</time></trkpt><trkpt lat="44.5433727" lon="4.9430031"><ele>223.66666666666666</ele><time>2026-05-01T14:42:07.363Z</time></trkpt><trkpt lat="44.5434036" lon="4.9427727"><ele>223.0</ele><time>2026-05-01T14:42:08.362Z</time></trkpt><trkpt lat="44.5434352" lon="4.9425351"><ele>222.33333333333331</ele><time>2026-05-01T14:42:09.363Z</time></trkpt><trkpt lat="44.5434685" lon="4.9422834"><ele>221.66666666666669</ele><time>2026-05-01T14:42:10.362Z</time></trkpt><trkpt lat="44.543504" lon="4.9420145"><ele>221.0</ele><time>2026-05-01T14:42:11.362Z</time></trkpt><trkpt lat="44.5435478" lon="4.9417303"><ele>220.66666666666669</ele><time>2026-05-01T14:42:12.362Z</time></trkpt><trkpt lat="44.5436099" lon="4.9414492"><ele>220.33333333333331</ele><time>2026-05-01T14:42:13.362Z</time></trkpt><trkpt lat="44.5436869" lon="4.9411718"><ele>220.0</ele><time>2026-05-01T14:42:14.363Z</time></trkpt><trkpt lat="44.5437688" lon="4.9409012"><ele>220.0</ele><time>2026-05-01T14:42:15.361Z</time></trkpt><trkpt lat="44.543842" lon="4.9406363"><ele>220.0</ele><time>2026-05-01T14:42:16.361Z</time></trkpt><trkpt lat="44.5439026" lon="4.9403771"><ele>220.0</ele><time>2026-05-01T14:42:17.362Z</time></trkpt><trkpt lat="44.5439501" lon="4.9401332"><ele>219.8</ele><time>2026-05-01T14:42:18.361Z</time></trkpt><trkpt lat="44.5439902" lon="4.9399327"><ele>219.6</ele><time>2026-05-01T14:42:19.361Z</time></trkpt><trkpt lat="44.5440195" lon="4.9397851"><ele>219.39999999999998</ele><time>2026-05-01T14:42:20.361Z</time></trkpt><trkpt lat="44.5440434" lon="4.939665"><ele>219.2</ele><time>2026-05-01T14:42:21.361Z</time></trkpt><trkpt lat="44.5440646" lon="4.9395478"><ele>219.0</ele><time>2026-05-01T14:42:22.361Z</time></trkpt><trkpt lat="44.5440866" lon="4.9394374"><ele>219.0</ele><time>2026-05-01T14:42:23.361Z</time></trkpt><trkpt lat="44.5441048" lon="4.9393215"><ele>219.0</ele><time>2026-05-01T14:42:24.361Z</time></trkpt><trkpt lat="44.5441246" lon="4.9392052"><ele>219.0</ele><time>2026-05-01T14:42:25.362Z</time></trkpt><trkpt lat="44.544148" lon="4.9390823"><ele>219.0</ele><time>2026-05-01T14:42:26.361Z</time></trkpt><trkpt lat="44.5441756" lon="4.9389576"><ele>219.0</ele><time>2026-05-01T14:42:27.361Z</time></trkpt><trkpt lat="44.5442027" lon="4.9388321"><ele>219.0</ele><time>2026-05-01T14:42:28.362Z</time></trkpt><trkpt lat="44.5442302" lon="4.9387063"><ele>219.2</ele><time>2026-05-01T14:42:29.361Z</time></trkpt><trkpt lat="44.5442533" lon="4.9385766"><ele>219.39999999999998</ele><time>2026-05-01T14:42:30.361Z</time></trkpt><trkpt lat="44.5442773" lon="4.9384433"><ele>219.6</ele><time>2026-05-01T14:42:31.361Z</time></trkpt><trkpt lat="44.5443038" lon="4.9383154"><ele>219.8</ele><time>2026-05-01T14:42:32.361Z</time></trkpt><trkpt lat="44.5443285" lon="4.9381868"><ele>220.0</ele><time>2026-05-01T14:42:33.361Z</time></trkpt><trkpt lat="44.544351" lon="4.938062"><ele>219.99999999999997</ele><time>2026-05-01T14:42:34.362Z</time></trkpt><trkpt lat="44.544373" lon="4.9379385"><ele>220.0</ele><time>2026-05-01T14:42:35.361Z</time></trkpt><trkpt lat="44.5443961" lon="4.9378159"><ele>220.0</ele><time>2026-05-01T14:42:36.362Z</time></trkpt><trkpt lat="44.5444203" lon="4.9377032"><ele>220.0</ele><time>2026-05-01T14:42:37.361Z</time></trkpt><trkpt lat="44.5444446" lon="4.9375895"><ele>219.99999999999997</ele><time>2026-05-01T14:42:38.362Z</time></trkpt><trkpt lat="44.544469" lon="4.9374768"><ele>220.0</ele><time>2026-05-01T14:42:39.362Z</time></trkpt><trkpt lat="44.5444902" lon="4.9373809"><ele>220.2</ele><time>2026-05-01T14:42:40.361Z</time></trkpt><trkpt lat="44.5445146" lon="4.9372477"><ele>220.4</ele><time>2026-05-01T14:42:42.362Z</time></trkpt><trkpt lat="44.5445329" lon="4.9371122"><ele>220.60000000000002</ele><time>2026-05-01T14:42:44.361Z</time></trkpt><trkpt lat="44.5445605" lon="4.9369516"><ele>220.8</ele><time>2026-05-01T14:42:46.362Z</time></trkpt><trkpt lat="44.5445921" lon="4.9367857"><ele>221.0</ele><time>2026-05-01T14:42:48.361Z</time></trkpt><trkpt lat="44.5446224" lon="4.9366158"><ele>222.2857142857143</ele><time>2026-05-01T14:42:50.361Z</time></trkpt><trkpt lat="44.5446386" lon="4.9365267"><ele>223.57142857142856</ele><time>2026-05-01T14:42:51.361Z</time></trkpt><trkpt lat="44.5446544" lon="4.9364396"><ele>224.85714285714283</ele><time>2026-05-01T14:42:52.362Z</time></trkpt><trkpt lat="44.5446725" lon="4.9363497"><ele>226.14285714285714</ele><time>2026-05-01T14:42:53.362Z</time></trkpt><trkpt lat="44.5446876" lon="4.9362607"><ele>227.42857142857142</ele><time>2026-05-01T14:42:54.361Z</time></trkpt><trkpt lat="44.5446972" lon="4.9361702"><ele>228.7142857142857</ele><time>2026-05-01T14:42:55.362Z</time></trkpt><trkpt lat="44.5447013" lon="4.9360756"><ele>229.99999999999997</ele><time>2026-05-01T14:42:56.361Z</time></trkpt><trkpt lat="44.544701" lon="4.9359812"><ele>228.4</ele><time>2026-05-01T14:42:57.361Z</time></trkpt><trkpt lat="44.5446935" lon="4.9358009"><ele>226.8</ele><time>2026-05-01T14:42:59.362Z</time></trkpt><trkpt lat="44.5446908" lon="4.9357102"><ele>225.2</ele><time>2026-05-01T14:43:00.361Z</time></trkpt><trkpt lat="44.5446985" lon="4.9355362"><ele>223.6</ele><time>2026-05-01T14:43:02.361Z</time></trkpt><trkpt lat="44.544715" lon="4.935372"><ele>222.0</ele><time>2026-05-01T14:43:04.361Z</time></trkpt><trkpt lat="44.544736" lon="4.9352165"><ele>222.0</ele><time>2026-05-01T14:43:06.361Z</time></trkpt><trkpt lat="44.5447512" lon="4.9350368"><ele>222.0</ele><time>2026-05-01T14:43:08.361Z</time></trkpt><trkpt lat="44.5447557" lon="4.9349282"><ele>222.0</ele><time>2026-05-01T14:43:09.361Z</time></trkpt><trkpt lat="44.5447621" lon="4.9348065"><ele>222.0</ele><time>2026-05-01T14:43:10.361Z</time></trkpt><trkpt lat="44.5447695" lon="4.9346762"><ele>222.0</ele><time>2026-05-01T14:43:11.361Z</time></trkpt><trkpt lat="44.5447767" lon="4.9345389"><ele>222.0</ele><time>2026-05-01T14:43:12.361Z</time></trkpt><trkpt lat="44.5447866" lon="4.934397"><ele>222.0</ele><time>2026-05-01T14:43:13.361Z</time></trkpt><trkpt lat="44.5447968" lon="4.9342473"><ele>222.0</ele><time>2026-05-01T14:43:14.361Z</time></trkpt><trkpt lat="44.5448102" lon="4.9340952"><ele>222.0</ele><time>2026-05-01T14:43:15.361Z</time></trkpt><trkpt lat="44.5448269" lon="4.9339359"><ele>222.0</ele><time>2026-05-01T14:43:16.361Z</time></trkpt><trkpt lat="44.5448537" lon="4.9337795"><ele>221.6</ele><time>2026-05-01T14:43:17.361Z</time></trkpt><trkpt lat="44.5448902" lon="4.9336308"><ele>221.2</ele><time>2026-05-01T14:43:18.362Z</time></trkpt><trkpt lat="44.5449251" lon="4.933484"><ele>220.8</ele><time>2026-05-01T14:43:19.361Z</time></trkpt><trkpt lat="44.5449599" lon="4.9333362"><ele>220.4</ele><time>2026-05-01T14:43:20.361Z</time></trkpt><trkpt lat="44.544994" lon="4.933187"><ele>220.0</ele><time>2026-05-01T14:43:21.361Z</time></trkpt><trkpt lat="44.5450278" lon="4.9330363"><ele>219.8</ele><time>2026-05-01T14:43:22.362Z</time></trkpt><trkpt lat="44.5450589" lon="4.9328913"><ele>219.6</ele><time>2026-05-01T14:43:23.361Z</time></trkpt><trkpt lat="44.5450908" lon="4.9327476"><ele>219.39999999999998</ele><time>2026-05-01T14:43:24.362Z</time></trkpt><trkpt lat="44.5451228" lon="4.9326095"><ele>219.2</ele><time>2026-05-01T14:43:25.361Z</time></trkpt><trkpt lat="44.5451557" lon="4.9324751"><ele>219.0</ele><time>2026-05-01T14:43:26.362Z</time></trkpt><trkpt lat="44.5451887" lon="4.9323484"><ele>218.6</ele><time>2026-05-01T14:43:27.361Z</time></trkpt><trkpt lat="44.5452178" lon="4.932225"><ele>218.2</ele><time>2026-05-01T14:43:28.362Z</time></trkpt><trkpt lat="44.5452488" lon="4.9321016"><ele>217.79999999999998</ele><time>2026-05-01T14:43:29.361Z</time></trkpt><trkpt lat="44.5452873" lon="4.9319807"><ele>217.39999999999998</ele><time>2026-05-01T14:43:30.361Z</time></trkpt><trkpt lat="44.545331" lon="4.9318592"><ele>217.0</ele><time>2026-05-01T14:43:31.361Z</time></trkpt><trkpt lat="44.5453697" lon="4.931727"><ele>217.25</ele><time>2026-05-01T14:43:32.361Z</time></trkpt><trkpt lat="44.5453996" lon="4.9315806"><ele>217.5</ele><time>2026-05-01T14:43:33.362Z</time></trkpt><trkpt lat="44.5454209" lon="4.9314253"><ele>217.75</ele><time>2026-05-01T14:43:34.361Z</time></trkpt><trkpt lat="44.54544" lon="4.9312618"><ele>218.0</ele><time>2026-05-01T14:43:35.362Z</time></trkpt><trkpt lat="44.5454553" lon="4.9310925"><ele>218.0</ele><time>2026-05-01T14:43:36.361Z</time></trkpt><trkpt lat="44.5454674" lon="4.9309239"><ele>218.0</ele><time>2026-05-01T14:43:37.362Z</time></trkpt><trkpt lat="44.5454784" lon="4.9307655"><ele>218.0</ele><time>2026-05-01T14:43:38.361Z</time></trkpt><trkpt lat="44.5454845" lon="4.9306114"><ele>218.0</ele><time>2026-05-01T14:43:39.361Z</time></trkpt><trkpt lat="44.5454901" lon="4.9304596"><ele>217.75</ele><time>2026-05-01T14:43:40.361Z</time></trkpt><trkpt lat="44.545498" lon="4.9303012"><ele>217.5</ele><time>2026-05-01T14:43:41.362Z</time></trkpt><trkpt lat="44.5455064" lon="4.9301278"><ele>217.25</ele><time>2026-05-01T14:43:42.361Z</time></trkpt><trkpt lat="44.5455172" lon="4.9299362"><ele>217.0</ele><time>2026-05-01T14:43:43.361Z</time></trkpt><trkpt lat="44.5455343" lon="4.9297319"><ele>216.66666666666666</ele><time>2026-05-01T14:43:44.362Z</time></trkpt><trkpt lat="44.54556" lon="4.9295131"><ele>216.33333333333331</ele><time>2026-05-01T14:43:45.361Z</time></trkpt><trkpt lat="44.5455933" lon="4.9292829"><ele>216.0</ele><time>2026-05-01T14:43:46.362Z</time></trkpt><trkpt lat="44.5456299" lon="4.929042"><ele>215.33333333333331</ele><time>2026-05-01T14:43:47.361Z</time></trkpt><trkpt lat="44.545672" lon="4.9287994"><ele>214.66666666666666</ele><time>2026-05-01T14:43:48.362Z</time></trkpt><trkpt lat="44.5457275" lon="4.9285723"><ele>214.0</ele><time>2026-05-01T14:43:49.361Z</time></trkpt><trkpt lat="44.545799" lon="4.9283628"><ele>213.66666666666666</ele><time>2026-05-01T14:43:50.361Z</time></trkpt><trkpt lat="44.5458819" lon="4.9281678"><ele>213.33333333333331</ele><time>2026-05-01T14:43:51.361Z</time></trkpt><trkpt lat="44.5459684" lon="4.9279863"><ele>213.0</ele><time>2026-05-01T14:43:52.361Z</time></trkpt><trkpt lat="44.5460531" lon="4.9278013"><ele>213.0</ele><time>2026-05-01T14:43:53.361Z</time></trkpt><trkpt lat="44.5461282" lon="4.9275965"><ele>213.0</ele><time>2026-05-01T14:43:54.361Z</time></trkpt><trkpt lat="44.5461852" lon="4.92737"><ele>213.0</ele><time>2026-05-01T14:43:55.362Z</time></trkpt><trkpt lat="44.5462198" lon="4.9271219"><ele>212.0</ele><time>2026-05-01T14:43:56.361Z</time></trkpt><trkpt lat="44.5462372" lon="4.9268595"><ele>211.0</ele><time>2026-05-01T14:43:57.361Z</time></trkpt><trkpt lat="44.546248" lon="4.9265934"><ele>210.0</ele><time>2026-05-01T14:43:58.361Z</time></trkpt><trkpt lat="44.5462634" lon="4.9263399"><ele>209.75</ele><time>2026-05-01T14:43:59.361Z</time></trkpt><trkpt lat="44.5462848" lon="4.9261131"><ele>209.5</ele><time>2026-05-01T14:44:00.362Z</time></trkpt><trkpt lat="44.54631" lon="4.9259072"><ele>209.25</ele><time>2026-05-01T14:44:01.362Z</time></trkpt><trkpt lat="44.5463407" lon="4.9257282"><ele>209.0</ele><time>2026-05-01T14:44:02.361Z</time></trkpt><trkpt lat="44.546382" lon="4.9255787"><ele>208.83333333333334</ele><time>2026-05-01T14:44:03.361Z</time></trkpt><trkpt lat="44.5464347" lon="4.9254599"><ele>208.66666666666669</ele><time>2026-05-01T14:44:04.361Z</time></trkpt><trkpt lat="44.5464814" lon="4.9253513"><ele>208.5</ele><time>2026-05-01T14:44:05.361Z</time></trkpt><trkpt lat="44.5464999" lon="4.9252368"><ele>208.33333333333331</ele><time>2026-05-01T14:44:06.361Z</time></trkpt><trkpt lat="44.5464856" lon="4.925125"><ele>208.16666666666666</ele><time>2026-05-01T14:44:07.362Z</time></trkpt><trkpt lat="44.546447" lon="4.9250088"><ele>208.0</ele><time>2026-05-01T14:44:08.361Z</time></trkpt><trkpt lat="44.5464129" lon="4.9248673"><ele>208.0</ele><time>2026-05-01T14:44:09.361Z</time></trkpt><trkpt lat="44.546396" lon="4.9246911"><ele>208.0</ele><time>2026-05-01T14:44:10.361Z</time></trkpt><trkpt lat="44.5463938" lon="4.9244827"><ele>208.0</ele><time>2026-05-01T14:44:11.363Z</time></trkpt><trkpt lat="44.5463974" lon="4.9242429"><ele>208.0</ele><time>2026-05-01T14:44:12.361Z</time></trkpt><trkpt lat="44.5464053" lon="4.923977"><ele>208.0</ele><time>2026-05-01T14:44:13.361Z</time></trkpt><trkpt lat="44.5464173" lon="4.9237012"><ele>208.0</ele><time>2026-05-01T14:44:14.361Z</time></trkpt><trkpt lat="44.5464378" lon="4.9234172"><ele>208.0</ele><time>2026-05-01T14:44:15.361Z</time></trkpt><trkpt lat="44.5464696" lon="4.923124"><ele>207.66666666666666</ele><time>2026-05-01T14:44:16.362Z</time></trkpt><trkpt lat="44.5465137" lon="4.9228221"><ele>207.33333333333331</ele><time>2026-05-01T14:44:17.361Z</time></trkpt><trkpt lat="44.5465686" lon="4.9225144"><ele>207.0</ele><time>2026-05-01T14:44:18.361Z</time></trkpt><trkpt lat="44.5466337" lon="4.9222018"><ele>206.0</ele><time>2026-05-01T14:44:19.361Z</time></trkpt><trkpt lat="44.5467113" lon="4.9218885"><ele>205.0</ele><time>2026-05-01T14:44:20.361Z</time></trkpt><trkpt lat="44.5467933" lon="4.9215773"><ele>203.0</ele><time>2026-05-01T14:44:21.361Z</time></trkpt><trkpt lat="44.5468714" lon="4.9212699"><ele>201.0</ele><time>2026-05-01T14:44:22.361Z</time></trkpt><trkpt lat="44.5469457" lon="4.9209678"><ele>201.0</ele><time>2026-05-01T14:44:23.361Z</time></trkpt><trkpt lat="44.5470184" lon="4.9206648"><ele>201.0</ele><time>2026-05-01T14:44:24.363Z</time></trkpt><trkpt lat="44.5470876" lon="4.920363"><ele>201.5</ele><time>2026-05-01T14:44:25.361Z</time></trkpt><trkpt lat="44.5471551" lon="4.9200616"><ele>202.0</ele><time>2026-05-01T14:44:26.361Z</time></trkpt><trkpt lat="44.547219" lon="4.9197581"><ele>202.0</ele><time>2026-05-01T14:44:27.362Z</time></trkpt><trkpt lat="44.5472851" lon="4.919456"><ele>202.0</ele><time>2026-05-01T14:44:28.362Z</time></trkpt><trkpt lat="44.5473523" lon="4.9191531"><ele>201.5</ele><time>2026-05-01T14:44:29.361Z</time></trkpt><trkpt lat="44.5474241" lon="4.9188541"><ele>201.0</ele><time>2026-05-01T14:44:30.363Z</time></trkpt><trkpt lat="44.5474989" lon="4.9185526"><ele>200.5</ele><time>2026-05-01T14:44:31.361Z</time></trkpt><trkpt lat="44.5475747" lon="4.9182376"><ele>200.0</ele><time>2026-05-01T14:44:32.362Z</time></trkpt><trkpt lat="44.5476505" lon="4.9179114"><ele>200.0</ele><time>2026-05-01T14:44:33.361Z</time></trkpt><trkpt lat="44.5477263" lon="4.9175777"><ele>200.0</ele><time>2026-05-01T14:44:34.361Z</time></trkpt><trkpt lat="44.5477971" lon="4.9172394"><ele>200.0</ele><time>2026-05-01T14:44:35.362Z</time></trkpt><trkpt lat="44.5478632" lon="4.9169043"><ele>200.0</ele><time>2026-05-01T14:44:36.361Z</time></trkpt><trkpt lat="44.5479217" lon="4.9165753"><ele>200.0</ele><time>2026-05-01T14:44:37.361Z</time></trkpt><trkpt lat="44.5479725" lon="4.9162579"><ele>200.0</ele><time>2026-05-01T14:44:38.361Z</time></trkpt><trkpt lat="44.5480197" lon="4.9159515"><ele>200.0</ele><time>2026-05-01T14:44:39.361Z</time></trkpt><trkpt lat="44.5480639" lon="4.9156538"><ele>200.0</ele><time>2026-05-01T14:44:40.361Z</time></trkpt><trkpt lat="44.5481096" lon="4.9153675"><ele>200.0</ele><time>2026-05-01T14:44:41.361Z</time></trkpt><trkpt lat="44.5481536" lon="4.9150876"><ele>199.33333333333334</ele><time>2026-05-01T14:44:42.361Z</time></trkpt><trkpt lat="44.5481946" lon="4.9148139"><ele>198.66666666666669</ele><time>2026-05-01T14:44:43.361Z</time></trkpt><trkpt lat="44.5482333" lon="4.9145514"><ele>198.0</ele><time>2026-05-01T14:44:44.363Z</time></trkpt><trkpt lat="44.5482725" lon="4.9142966"><ele>197.0</ele><time>2026-05-01T14:44:45.361Z</time></trkpt><trkpt lat="44.548313" lon="4.9140366"><ele>196.0</ele><time>2026-05-01T14:44:46.361Z</time></trkpt><trkpt lat="44.5483534" lon="4.9137733"><ele>195.0</ele><time>2026-05-01T14:44:47.361Z</time></trkpt><trkpt lat="44.5483971" lon="4.9135068"><ele>194.33333333333331</ele><time>2026-05-01T14:44:48.361Z</time></trkpt><trkpt lat="44.5484446" lon="4.9132399"><ele>193.66666666666666</ele><time>2026-05-01T14:44:49.361Z</time></trkpt><trkpt lat="44.5484988" lon="4.9129741"><ele>193.0</ele><time>2026-05-01T14:44:50.361Z</time></trkpt><trkpt lat="44.5485595" lon="4.9127094"><ele>192.66666666666666</ele><time>2026-05-01T14:44:51.362Z</time></trkpt><trkpt lat="44.5486273" lon="4.9124487"><ele>192.33333333333331</ele><time>2026-05-01T14:44:52.362Z</time></trkpt><trkpt lat="44.548704" lon="4.9121939"><ele>192.0</ele><time>2026-05-01T14:44:53.361Z</time></trkpt><trkpt lat="44.5487893" lon="4.9119453"><ele>192.0</ele><time>2026-05-01T14:44:54.361Z</time></trkpt><trkpt lat="44.5488787" lon="4.9116969"><ele>192.0</ele><time>2026-05-01T14:44:55.361Z</time></trkpt><trkpt lat="44.548974" lon="4.9114495"><ele>192.0</ele><time>2026-05-01T14:44:56.361Z</time></trkpt><trkpt lat="44.5490708" lon="4.9112004"><ele>192.0</ele><time>2026-05-01T14:44:57.361Z</time></trkpt><trkpt lat="44.5491702" lon="4.9109508"><ele>192.0</ele><time>2026-05-01T14:44:58.361Z</time></trkpt><trkpt lat="44.5492699" lon="4.9107055"><ele>192.0</ele><time>2026-05-01T14:44:59.362Z</time></trkpt><trkpt lat="44.5493673" lon="4.9104567"><ele>192.0</ele><time>2026-05-01T14:45:00.361Z</time></trkpt><trkpt lat="44.5494672" lon="4.9102007"><ele>192.0</ele><time>2026-05-01T14:45:01.361Z</time></trkpt><trkpt lat="44.5495664" lon="4.9099445"><ele>192.0</ele><time>2026-05-01T14:45:02.361Z</time></trkpt><trkpt lat="44.5496691" lon="4.9096841"><ele>192.0</ele><time>2026-05-01T14:45:03.361Z</time></trkpt><trkpt lat="44.5497708" lon="4.9094197"><ele>192.0</ele><time>2026-05-01T14:45:04.361Z</time></trkpt><trkpt lat="44.5498703" lon="4.9091531"><ele>192.0</ele><time>2026-05-01T14:45:05.361Z</time></trkpt><trkpt lat="44.5499602" lon="4.9088751"><ele>191.66666666666666</ele><time>2026-05-01T14:45:06.362Z</time></trkpt><trkpt lat="44.5500322" lon="4.9085906"><ele>191.33333333333331</ele><time>2026-05-01T14:45:07.361Z</time></trkpt><trkpt lat="44.5500894" lon="4.9082914"><ele>191.0</ele><time>2026-05-01T14:45:08.361Z</time></trkpt><trkpt lat="44.5501435" lon="4.9079877"><ele>190.33333333333331</ele><time>2026-05-01T14:45:09.361Z</time></trkpt><trkpt lat="44.5501997" lon="4.9076851"><ele>189.66666666666666</ele><time>2026-05-01T14:45:10.362Z</time></trkpt><trkpt lat="44.5502562" lon="4.9073781"><ele>189.0</ele><time>2026-05-01T14:45:11.362Z</time></trkpt><trkpt lat="44.5503142" lon="4.9070705"><ele>189.0</ele><time>2026-05-01T14:45:12.361Z</time></trkpt><trkpt lat="44.5503752" lon="4.9067638"><ele>189.0</ele><time>2026-05-01T14:45:13.361Z</time></trkpt><trkpt lat="44.5504345" lon="4.9064579"><ele>188.66666666666666</ele><time>2026-05-01T14:45:14.361Z</time></trkpt><trkpt lat="44.5504931" lon="4.9061516"><ele>188.33333333333331</ele><time>2026-05-01T14:45:15.361Z</time></trkpt><trkpt lat="44.5505471" lon="4.9058566"><ele>188.0</ele><time>2026-05-01T14:45:16.362Z</time></trkpt><trkpt lat="44.5506018" lon="4.9055704"><ele>187.66666666666666</ele><time>2026-05-01T14:45:17.362Z</time></trkpt><trkpt lat="44.5506574" lon="4.9052956"><ele>187.33333333333334</ele><time>2026-05-01T14:45:18.361Z</time></trkpt><trkpt lat="44.5507145" lon="4.905034"><ele>187.0</ele><time>2026-05-01T14:45:19.361Z</time></trkpt><trkpt lat="44.550775" lon="4.9047851"><ele>186.66666666666669</ele><time>2026-05-01T14:45:20.362Z</time></trkpt><trkpt lat="44.5508324" lon="4.9045431"><ele>186.33333333333334</ele><time>2026-05-01T14:45:21.361Z</time></trkpt><trkpt lat="44.5508906" lon="4.9043098"><ele>186.0</ele><time>2026-05-01T14:45:22.361Z</time></trkpt><trkpt lat="44.5509521" lon="4.9040869"><ele>185.66666666666666</ele><time>2026-05-01T14:45:23.361Z</time></trkpt><trkpt lat="44.5510169" lon="4.9038706"><ele>185.33333333333331</ele><time>2026-05-01T14:45:24.361Z</time></trkpt><trkpt lat="44.5510884" lon="4.9036464"><ele>185.0</ele><time>2026-05-01T14:45:25.361Z</time></trkpt><trkpt lat="44.5511637" lon="4.9034178"><ele>185.33333333333331</ele><time>2026-05-01T14:45:26.361Z</time></trkpt><trkpt lat="44.5512409" lon="4.9031836"><ele>185.66666666666666</ele><time>2026-05-01T14:45:27.361Z</time></trkpt><trkpt lat="44.5513209" lon="4.9029409"><ele>186.0</ele><time>2026-05-01T14:45:28.361Z</time></trkpt><trkpt lat="44.5514067" lon="4.9026876"><ele>185.66666666666666</ele><time>2026-05-01T14:45:29.361Z</time></trkpt><trkpt lat="44.5514977" lon="4.90242"><ele>185.33333333333331</ele><time>2026-05-01T14:45:30.361Z</time></trkpt><trkpt lat="44.551592" lon="4.9021382"><ele>185.0</ele><time>2026-05-01T14:45:31.361Z</time></trkpt><trkpt lat="44.5516907" lon="4.9018402"><ele>184.0</ele><time>2026-05-01T14:45:32.361Z</time></trkpt><trkpt lat="44.5517945" lon="4.9015281"><ele>183.0</ele><time>2026-05-01T14:45:33.361Z</time></trkpt><trkpt lat="44.5518988" lon="4.9012063"><ele>183.0</ele><time>2026-05-01T14:45:34.361Z</time></trkpt><trkpt lat="44.5520015" lon="4.9008739"><ele>183.0</ele><time>2026-05-01T14:45:35.361Z</time></trkpt><trkpt lat="44.5521024" lon="4.9005332"><ele>183.0</ele><time>2026-05-01T14:45:36.362Z</time></trkpt><trkpt lat="44.5521958" lon="4.900181"><ele>183.0</ele><time>2026-05-01T14:45:37.361Z</time></trkpt><trkpt lat="44.552269" lon="4.8998298"><ele>182.5</ele><time>2026-05-01T14:45:38.361Z</time></trkpt><trkpt lat="44.5523312" lon="4.8994839"><ele>182.0</ele><time>2026-05-01T14:45:39.362Z</time></trkpt><trkpt lat="44.5523896" lon="4.8991399"><ele>182.0</ele><time>2026-05-01T14:45:40.361Z</time></trkpt><trkpt lat="44.5524491" lon="4.8987936"><ele>182.0</ele><time>2026-05-01T14:45:41.361Z</time></trkpt><trkpt lat="44.5525092" lon="4.8984491"><ele>182.0</ele><time>2026-05-01T14:45:42.361Z</time></trkpt><trkpt lat="44.5525689" lon="4.8981056"><ele>182.0</ele><time>2026-05-01T14:45:43.362Z</time></trkpt><trkpt lat="44.5526279" lon="4.8977606"><ele>182.0</ele><time>2026-05-01T14:45:44.361Z</time></trkpt><trkpt lat="44.5526814" lon="4.8974121"><ele>182.0</ele><time>2026-05-01T14:45:45.362Z</time></trkpt><trkpt lat="44.5527294" lon="4.8970604"><ele>180.5</ele><time>2026-05-01T14:45:46.361Z</time></trkpt><trkpt lat="44.5527694" lon="4.896705"><ele>179.0</ele><time>2026-05-01T14:45:47.362Z</time></trkpt><trkpt lat="44.5527992" lon="4.8963556"><ele>179.0</ele><time>2026-05-01T14:45:48.361Z</time></trkpt><trkpt lat="44.5528199" lon="4.8960163"><ele>179.0</ele><time>2026-05-01T14:45:49.361Z</time></trkpt><trkpt lat="44.5528364" lon="4.8956861"><ele>178.5</ele><time>2026-05-01T14:45:50.362Z</time></trkpt><trkpt lat="44.55285" lon="4.8953638"><ele>178.0</ele><time>2026-05-01T14:45:51.361Z</time></trkpt><trkpt lat="44.5528612" lon="4.8950418"><ele>178.0</ele><time>2026-05-01T14:45:52.361Z</time></trkpt><trkpt lat="44.5528723" lon="4.8947175"><ele>178.0</ele><time>2026-05-01T14:45:53.361Z</time></trkpt><trkpt lat="44.5528833" lon="4.8943932"><ele>177.5</ele><time>2026-05-01T14:45:54.362Z</time></trkpt><trkpt lat="44.5528951" lon="4.8940678"><ele>177.0</ele><time>2026-05-01T14:45:55.361Z</time></trkpt><trkpt lat="44.5529053" lon="4.8937404"><ele>176.5</ele><time>2026-05-01T14:45:56.361Z</time></trkpt><trkpt lat="44.5529147" lon="4.8934099"><ele>176.0</ele><time>2026-05-01T14:45:57.361Z</time></trkpt><trkpt lat="44.5529245" lon="4.8930792"><ele>176.0</ele><time>2026-05-01T14:45:58.361Z</time></trkpt><trkpt lat="44.5529359" lon="4.8927544"><ele>176.0</ele><time>2026-05-01T14:45:59.362Z</time></trkpt><trkpt lat="44.5529511" lon="4.8924259"><ele>176.0</ele><time>2026-05-01T14:46:00.361Z</time></trkpt><trkpt lat="44.5529677" lon="4.8920968"><ele>176.0</ele><time>2026-05-01T14:46:01.362Z</time></trkpt><trkpt lat="44.5529814" lon="4.8917756"><ele>175.66666666666666</ele><time>2026-05-01T14:46:02.361Z</time></trkpt><trkpt lat="44.5529947" lon="4.8914588"><ele>175.33333333333334</ele><time>2026-05-01T14:46:03.361Z</time></trkpt><trkpt lat="44.5530069" lon="4.8911488"><ele>175.0</ele><time>2026-05-01T14:46:04.361Z</time></trkpt><trkpt lat="44.5530193" lon="4.8908426"><ele>175.0</ele><time>2026-05-01T14:46:05.361Z</time></trkpt><trkpt lat="44.5530314" lon="4.8905345"><ele>175.0</ele><time>2026-05-01T14:46:06.361Z</time></trkpt><trkpt lat="44.5530424" lon="4.8902271"><ele>175.0</ele><time>2026-05-01T14:46:07.362Z</time></trkpt><trkpt lat="44.5530522" lon="4.8899203"><ele>174.66666666666669</ele><time>2026-05-01T14:46:08.361Z</time></trkpt><trkpt lat="44.553062" lon="4.8896149"><ele>174.33333333333334</ele><time>2026-05-01T14:46:09.361Z</time></trkpt><trkpt lat="44.5530716" lon="4.889312"><ele>174.0</ele><time>2026-05-01T14:46:10.361Z</time></trkpt><trkpt lat="44.5530828" lon="4.8890183"><ele>174.0</ele><time>2026-05-01T14:46:11.361Z</time></trkpt><trkpt lat="44.5530947" lon="4.8887291"><ele>174.0</ele><time>2026-05-01T14:46:12.362Z</time></trkpt><trkpt lat="44.5531078" lon="4.8884389"><ele>174.0</ele><time>2026-05-01T14:46:13.361Z</time></trkpt><trkpt lat="44.5531208" lon="4.8881449"><ele>173.33333333333334</ele><time>2026-05-01T14:46:14.361Z</time></trkpt><trkpt lat="44.5531328" lon="4.8878504"><ele>172.66666666666669</ele><time>2026-05-01T14:46:15.361Z</time></trkpt><trkpt lat="44.553141" lon="4.887554"><ele>172.0</ele><time>2026-05-01T14:46:16.362Z</time></trkpt><trkpt lat="44.5531441" lon="4.8872564"><ele>172.0</ele><time>2026-05-01T14:46:17.362Z</time></trkpt><trkpt lat="44.5531385" lon="4.8869564"><ele>172.0</ele><time>2026-05-01T14:46:18.362Z</time></trkpt><trkpt lat="44.5531232" lon="4.8866522"><ele>172.0</ele><time>2026-05-01T14:46:19.361Z</time></trkpt><trkpt lat="44.5531043" lon="4.886343"><ele>172.0</ele><time>2026-05-01T14:46:20.362Z</time></trkpt><trkpt lat="44.553083" lon="4.8860288"><ele>172.0</ele><time>2026-05-01T14:46:21.362Z</time></trkpt><trkpt lat="44.553062" lon="4.885709"><ele>171.5</ele><time>2026-05-01T14:46:22.362Z</time></trkpt><trkpt lat="44.5530446" lon="4.885391"><ele>171.0</ele><time>2026-05-01T14:46:23.361Z</time></trkpt><trkpt lat="44.5530259" lon="4.8850776"><ele>171.0</ele><time>2026-05-01T14:46:24.361Z</time></trkpt><trkpt lat="44.5530066" lon="4.8847642"><ele>171.0</ele><time>2026-05-01T14:46:25.361Z</time></trkpt><trkpt lat="44.5529883" lon="4.8844487"><ele>170.5</ele><time>2026-05-01T14:46:26.361Z</time></trkpt><trkpt lat="44.5529687" lon="4.8841306"><ele>170.0</ele><time>2026-05-01T14:46:27.362Z</time></trkpt><trkpt lat="44.5529488" lon="4.8838095"><ele>170.0</ele><time>2026-05-01T14:46:28.362Z</time></trkpt><trkpt lat="44.5529293" lon="4.8834849"><ele>170.0</ele><time>2026-05-01T14:46:29.361Z</time></trkpt><trkpt lat="44.5529092" lon="4.8831612"><ele>169.0</ele><time>2026-05-01T14:46:30.361Z</time></trkpt><trkpt lat="44.5528911" lon="4.8828412"><ele>168.0</ele><time>2026-05-01T14:46:31.361Z</time></trkpt><trkpt lat="44.5528714" lon="4.8825248"><ele>167.5</ele><time>2026-05-01T14:46:32.362Z</time></trkpt><trkpt lat="44.5528507" lon="4.8822059"><ele>167.0</ele><time>2026-05-01T14:46:33.361Z</time></trkpt><trkpt lat="44.5528311" lon="4.8818845"><ele>166.0</ele><time>2026-05-01T14:46:34.361Z</time></trkpt><trkpt lat="44.5528118" lon="4.8815584"><ele>165.0</ele><time>2026-05-01T14:46:35.361Z</time></trkpt><trkpt lat="44.5527941" lon="4.8812268"><ele>165.0</ele><time>2026-05-01T14:46:36.361Z</time></trkpt><trkpt lat="44.5527774" lon="4.8808884"><ele>165.0</ele><time>2026-05-01T14:46:37.362Z</time></trkpt><trkpt lat="44.5527591" lon="4.8805453"><ele>165.0</ele><time>2026-05-01T14:46:38.361Z</time></trkpt><trkpt lat="44.5527411" lon="4.8801969"><ele>165.0</ele><time>2026-05-01T14:46:39.362Z</time></trkpt><trkpt lat="44.5527232" lon="4.8798484"><ele>165.0</ele><time>2026-05-01T14:46:40.361Z</time></trkpt><trkpt lat="44.5527054" lon="4.8795009"><ele>165.0</ele><time>2026-05-01T14:46:41.361Z</time></trkpt><trkpt lat="44.5526908" lon="4.8791529"><ele>164.5</ele><time>2026-05-01T14:46:42.362Z</time></trkpt><trkpt lat="44.5526732" lon="4.8788067"><ele>164.0</ele><time>2026-05-01T14:46:43.361Z</time></trkpt><trkpt lat="44.5526568" lon="4.878459"><ele>163.0</ele><time>2026-05-01T14:46:44.361Z</time></trkpt><trkpt lat="44.5526402" lon="4.8781115"><ele>162.0</ele><time>2026-05-01T14:46:45.361Z</time></trkpt><trkpt lat="44.5526203" lon="4.8777598"><ele>162.5</ele><time>2026-05-01T14:46:46.361Z</time></trkpt><trkpt lat="44.5525907" lon="4.8774137"><ele>163.0</ele><time>2026-05-01T14:46:47.362Z</time></trkpt><trkpt lat="44.552543" lon="4.8770864"><ele>163.0</ele><time>2026-05-01T14:46:48.361Z</time></trkpt><trkpt lat="44.5524837" lon="4.876773"><ele>163.0</ele><time>2026-05-01T14:46:49.361Z</time></trkpt><trkpt lat="44.5524245" lon="4.876466"><ele>162.33333333333334</ele><time>2026-05-01T14:46:50.361Z</time></trkpt><trkpt lat="44.5523717" lon="4.8761671"><ele>161.66666666666666</ele><time>2026-05-01T14:46:51.362Z</time></trkpt><trkpt lat="44.5523228" lon="4.8758771"><ele>161.0</ele><time>2026-05-01T14:46:52.361Z</time></trkpt><trkpt lat="44.5522773" lon="4.875607"><ele>161.0</ele><time>2026-05-01T14:46:53.361Z</time></trkpt><trkpt lat="44.5522452" lon="4.8753645"><ele>161.0</ele><time>2026-05-01T14:46:54.361Z</time></trkpt><trkpt lat="44.5522274" lon="4.87514"><ele>161.0</ele><time>2026-05-01T14:46:55.362Z</time></trkpt><trkpt lat="44.5522243" lon="4.8749266"><ele>161.0</ele><time>2026-05-01T14:46:56.361Z</time></trkpt><trkpt lat="44.5522283" lon="4.8747274"><ele>161.0</ele><time>2026-05-01T14:46:57.362Z</time></trkpt><trkpt lat="44.5522328" lon="4.8745345"><ele>161.0</ele><time>2026-05-01T14:46:58.361Z</time></trkpt><trkpt lat="44.5522473" lon="4.8743504"><ele>161.0</ele><time>2026-05-01T14:46:59.361Z</time></trkpt><trkpt lat="44.5522747" lon="4.874164"><ele>161.0</ele><time>2026-05-01T14:47:00.362Z</time></trkpt><trkpt lat="44.5523186" lon="4.8739725"><ele>161.0</ele><time>2026-05-01T14:47:01.361Z</time></trkpt><trkpt lat="44.5523723" lon="4.8737692"><ele>161.0</ele><time>2026-05-01T14:47:02.361Z</time></trkpt><trkpt lat="44.5524313" lon="4.8735614"><ele>160.66666666666666</ele><time>2026-05-01T14:47:03.362Z</time></trkpt><trkpt lat="44.5524972" lon="4.8733426"><ele>160.33333333333334</ele><time>2026-05-01T14:47:04.362Z</time></trkpt><trkpt lat="44.5525702" lon="4.8731135"><ele>160.0</ele><time>2026-05-01T14:47:05.361Z</time></trkpt><trkpt lat="44.552643" lon="4.8728767"><ele>160.0</ele><time>2026-05-01T14:47:06.361Z</time></trkpt><trkpt lat="44.552711" lon="4.8726378"><ele>160.0</ele><time>2026-05-01T14:47:07.361Z</time></trkpt><trkpt lat="44.5527772" lon="4.872406"><ele>160.0</ele><time>2026-05-01T14:47:08.361Z</time></trkpt><trkpt lat="44.55284" lon="4.8721823"><ele>160.0</ele><time>2026-05-01T14:47:09.361Z</time></trkpt><trkpt lat="44.5529009" lon="4.8719691"><ele>160.0</ele><time>2026-05-01T14:47:10.361Z</time></trkpt><trkpt lat="44.5529565" lon="4.8717667"><ele>160.0</ele><time>2026-05-01T14:47:11.361Z</time></trkpt><trkpt lat="44.5530157" lon="4.8715544"><ele>159.66666666666669</ele><time>2026-05-01T14:47:12.361Z</time></trkpt><trkpt lat="44.5530764" lon="4.8713314"><ele>159.33333333333334</ele><time>2026-05-01T14:47:13.361Z</time></trkpt><trkpt lat="44.5531347" lon="4.8711001"><ele>159.0</ele><time>2026-05-01T14:47:14.361Z</time></trkpt><trkpt lat="44.5531851" lon="4.8708569"><ele>159.0</ele><time>2026-05-01T14:47:15.362Z</time></trkpt><trkpt lat="44.5532216" lon="4.8706176"><ele>159.0</ele><time>2026-05-01T14:47:16.362Z</time></trkpt><trkpt lat="44.5532425" lon="4.8703832"><ele>159.0</ele><time>2026-05-01T14:47:17.363Z</time></trkpt><trkpt lat="44.5532481" lon="4.8701632"><ele>159.25</ele><time>2026-05-01T14:47:18.361Z</time></trkpt><trkpt lat="44.5532439" lon="4.86997"><ele>159.5</ele><time>2026-05-01T14:47:19.362Z</time></trkpt><trkpt lat="44.5532317" lon="4.869802"><ele>159.75</ele><time>2026-05-01T14:47:20.361Z</time></trkpt><trkpt lat="44.5532157" lon="4.8696571"><ele>160.0</ele><time>2026-05-01T14:47:21.361Z</time></trkpt><trkpt lat="44.5531965" lon="4.8695237"><ele>160.0</ele><time>2026-05-01T14:47:22.361Z</time></trkpt><trkpt lat="44.553177" lon="4.8693936"><ele>160.0</ele><time>2026-05-01T14:47:23.361Z</time></trkpt><trkpt lat="44.5531603" lon="4.8692683"><ele>160.0</ele><time>2026-05-01T14:47:24.361Z</time></trkpt><trkpt lat="44.5531439" lon="4.8691384"><ele>160.0</ele><time>2026-05-01T14:47:25.361Z</time></trkpt><trkpt lat="44.553127" lon="4.8690081"><ele>160.0</ele><time>2026-05-01T14:47:26.362Z</time></trkpt><trkpt lat="44.5531097" lon="4.8688764"><ele>161.4</ele><time>2026-05-01T14:47:27.361Z</time></trkpt><trkpt lat="44.5530922" lon="4.8687427"><ele>162.8</ele><time>2026-05-01T14:47:28.361Z</time></trkpt><trkpt lat="44.5530723" lon="4.8686039"><ele>164.2</ele><time>2026-05-01T14:47:29.361Z</time></trkpt><trkpt lat="44.5530524" lon="4.8684649"><ele>165.6</ele><time>2026-05-01T14:47:30.363Z</time></trkpt><trkpt lat="44.5530334" lon="4.868332"><ele>167.0</ele><time>2026-05-01T14:47:31.362Z</time></trkpt><trkpt lat="44.5530165" lon="4.8682115"><ele>167.83333333333331</ele><time>2026-05-01T14:47:32.361Z</time></trkpt><trkpt lat="44.5530026" lon="4.8680943"><ele>168.66666666666666</ele><time>2026-05-01T14:47:33.362Z</time></trkpt><trkpt lat="44.5529919" lon="4.8679809"><ele>169.5</ele><time>2026-05-01T14:47:34.361Z</time></trkpt><trkpt lat="44.5529885" lon="4.8678753"><ele>170.33333333333334</ele><time>2026-05-01T14:47:35.361Z</time></trkpt><trkpt lat="44.5529966" lon="4.8677721"><ele>171.16666666666669</ele><time>2026-05-01T14:47:36.361Z</time></trkpt><trkpt lat="44.5530088" lon="4.867668"><ele>172.0</ele><time>2026-05-01T14:47:37.361Z</time></trkpt><trkpt lat="44.553027" lon="4.8675614"><ele>172.33333333333334</ele><time>2026-05-01T14:47:38.362Z</time></trkpt><trkpt lat="44.5530525" lon="4.8674514"><ele>172.66666666666669</ele><time>2026-05-01T14:47:39.361Z</time></trkpt><trkpt lat="44.5530864" lon="4.8673382"><ele>173.0</ele><time>2026-05-01T14:47:40.361Z</time></trkpt><trkpt lat="44.5531275" lon="4.867223"><ele>173.33333333333334</ele><time>2026-05-01T14:47:41.361Z</time></trkpt><trkpt lat="44.5531721" lon="4.8671178"><ele>173.66666666666666</ele><time>2026-05-01T14:47:42.361Z</time></trkpt><trkpt lat="44.5532108" lon="4.8670233"><ele>174.0</ele><time>2026-05-01T14:47:43.361Z</time></trkpt><trkpt lat="44.5532438" lon="4.8669449"><ele>174.0</ele><time>2026-05-01T14:47:44.361Z</time></trkpt><trkpt lat="44.5532746" lon="4.8668669"><ele>174.0</ele><time>2026-05-01T14:47:45.361Z</time></trkpt><trkpt lat="44.553304" lon="4.8667866"><ele>174.0</ele><time>2026-05-01T14:47:46.361Z</time></trkpt><trkpt lat="44.5533375" lon="4.8666996"><ele>174.0</ele><time>2026-05-01T14:47:47.362Z</time></trkpt><trkpt lat="44.5533756" lon="4.8666052"><ele>174.0</ele><time>2026-05-01T14:47:48.361Z</time></trkpt><trkpt lat="44.5534191" lon="4.8665069"><ele>174.0</ele><time>2026-05-01T14:47:49.362Z</time></trkpt><trkpt lat="44.5534661" lon="4.8664071"><ele>174.0</ele><time>2026-05-01T14:47:50.362Z</time></trkpt><trkpt lat="44.5535157" lon="4.8663001"><ele>174.39999999999998</ele><time>2026-05-01T14:47:51.361Z</time></trkpt><trkpt lat="44.5535665" lon="4.8661889"><ele>174.8</ele><time>2026-05-01T14:47:52.362Z</time></trkpt><trkpt lat="44.5536149" lon="4.8660748"><ele>175.2</ele><time>2026-05-01T14:47:53.362Z</time></trkpt><trkpt lat="44.5536615" lon="4.8659579"><ele>175.60000000000002</ele><time>2026-05-01T14:47:54.361Z</time></trkpt><trkpt lat="44.553711" lon="4.865841"><ele>176.0</ele><time>2026-05-01T14:47:55.361Z</time></trkpt><trkpt lat="44.5537616" lon="4.865723"><ele>176.0</ele><time>2026-05-01T14:47:56.361Z</time></trkpt><trkpt lat="44.5538144" lon="4.8656051"><ele>176.0</ele><time>2026-05-01T14:47:57.361Z</time></trkpt><trkpt lat="44.5538698" lon="4.8654791"><ele>176.0</ele><time>2026-05-01T14:47:58.361Z</time></trkpt><trkpt lat="44.5539261" lon="4.8653407"><ele>176.0</ele><time>2026-05-01T14:47:59.361Z</time></trkpt><trkpt lat="44.5539841" lon="4.8651956"><ele>176.0</ele><time>2026-05-01T14:48:00.361Z</time></trkpt><trkpt lat="44.554046" lon="4.8650458"><ele>173.4</ele><time>2026-05-01T14:48:01.362Z</time></trkpt><trkpt lat="44.5541077" lon="4.864903"><ele>170.8</ele><time>2026-05-01T14:48:02.362Z</time></trkpt><trkpt lat="44.5541676" lon="4.8647622"><ele>168.20000000000002</ele><time>2026-05-01T14:48:03.361Z</time></trkpt><trkpt lat="44.5542162" lon="4.8646378"><ele>165.60000000000002</ele><time>2026-05-01T14:48:04.361Z</time></trkpt><trkpt lat="44.5542648" lon="4.8645089"><ele>163.0</ele><time>2026-05-01T14:48:05.363Z</time></trkpt><trkpt lat="44.5542983" lon="4.8643781"><ele>161.25</ele><time>2026-05-01T14:48:06.361Z</time></trkpt><trkpt lat="44.554326" lon="4.8642268"><ele>159.5</ele><time>2026-05-01T14:48:07.362Z</time></trkpt><trkpt lat="44.5543664" lon="4.8640774"><ele>157.75</ele><time>2026-05-01T14:48:08.361Z</time></trkpt><trkpt lat="44.5544025" lon="4.8639181"><ele>156.0</ele><time>2026-05-01T14:48:09.362Z</time></trkpt><trkpt lat="44.5544217" lon="4.8637482"><ele>156.0</ele><time>2026-05-01T14:48:10.361Z</time></trkpt><trkpt lat="44.5544264" lon="4.8635604"><ele>156.0</ele><time>2026-05-01T14:48:11.361Z</time></trkpt><trkpt lat="44.5544222" lon="4.8633705"><ele>156.0</ele><time>2026-05-01T14:48:12.361Z</time></trkpt><trkpt lat="44.5544201" lon="4.8631924"><ele>156.0</ele><time>2026-05-01T14:48:13.361Z</time></trkpt><trkpt lat="44.554419" lon="4.8630185"><ele>155.8</ele><time>2026-05-01T14:48:14.361Z</time></trkpt><trkpt lat="44.5544196" lon="4.8628537"><ele>155.6</ele><time>2026-05-01T14:48:15.361Z</time></trkpt><trkpt lat="44.5544236" lon="4.8626979"><ele>155.4</ele><time>2026-05-01T14:48:16.361Z</time></trkpt><trkpt lat="44.5544273" lon="4.8625475"><ele>155.2</ele><time>2026-05-01T14:48:17.361Z</time></trkpt><trkpt lat="44.5544315" lon="4.8623995"><ele>155.0</ele><time>2026-05-01T14:48:18.361Z</time></trkpt><trkpt lat="44.554435" lon="4.8622579"><ele>154.66666666666666</ele><time>2026-05-01T14:48:19.361Z</time></trkpt><trkpt lat="44.5544346" lon="4.8621225"><ele>154.33333333333331</ele><time>2026-05-01T14:48:20.361Z</time></trkpt><trkpt lat="44.554434" lon="4.8619952"><ele>154.0</ele><time>2026-05-01T14:48:21.362Z</time></trkpt><trkpt lat="44.5544355" lon="4.8618856"><ele>153.66666666666666</ele><time>2026-05-01T14:48:22.361Z</time></trkpt><trkpt lat="44.5544364" lon="4.8617774"><ele>153.33333333333334</ele><time>2026-05-01T14:48:23.361Z</time></trkpt><trkpt lat="44.5544372" lon="4.8616667"><ele>153.0</ele><time>2026-05-01T14:48:24.361Z</time></trkpt><trkpt lat="44.5544399" lon="4.8615442"><ele>153.0</ele><time>2026-05-01T14:48:25.362Z</time></trkpt><trkpt lat="44.5544437" lon="4.8614172"><ele>153.0</ele><time>2026-05-01T14:48:26.361Z</time></trkpt><trkpt lat="44.5544491" lon="4.8612894"><ele>153.0</ele><time>2026-05-01T14:48:27.361Z</time></trkpt><trkpt lat="44.5544588" lon="4.8611622"><ele>153.0</ele><time>2026-05-01T14:48:28.361Z</time></trkpt><trkpt lat="44.5544687" lon="4.8610315"><ele>153.0</ele><time>2026-05-01T14:48:29.361Z</time></trkpt><trkpt lat="44.5544769" lon="4.860892"><ele>153.0</ele><time>2026-05-01T14:48:30.361Z</time></trkpt><trkpt lat="44.5544831" lon="4.8607471"><ele>153.0</ele><time>2026-05-01T14:48:31.361Z</time></trkpt><trkpt lat="44.554488" lon="4.860596"><ele>153.0</ele><time>2026-05-01T14:48:32.361Z</time></trkpt><trkpt lat="44.5544893" lon="4.8604418"><ele>153.0</ele><time>2026-05-01T14:48:33.361Z</time></trkpt><trkpt lat="44.5544912" lon="4.8602842"><ele>153.0</ele><time>2026-05-01T14:48:34.361Z</time></trkpt><trkpt lat="44.5544933" lon="4.8601169"><ele>152.75</ele><time>2026-05-01T14:48:35.361Z</time></trkpt><trkpt lat="44.5544941" lon="4.8599433"><ele>152.5</ele><time>2026-05-01T14:48:36.361Z</time></trkpt><trkpt lat="44.5544936" lon="4.859774"><ele>152.25</ele><time>2026-05-01T14:48:37.361Z</time></trkpt><trkpt lat="44.5544941" lon="4.8596056"><ele>152.0</ele><time>2026-05-01T14:48:38.361Z</time></trkpt><trkpt lat="44.5544947" lon="4.8594378"><ele>151.5</ele><time>2026-05-01T14:48:39.361Z</time></trkpt><trkpt lat="44.5545004" lon="4.859273"><ele>151.0</ele><time>2026-05-01T14:48:40.361Z</time></trkpt><trkpt lat="44.5545073" lon="4.8591068"><ele>150.5</ele><time>2026-05-01T14:48:41.361Z</time></trkpt><trkpt lat="44.5545147" lon="4.8589292"><ele>150.0</ele><time>2026-05-01T14:48:42.361Z</time></trkpt><trkpt lat="44.55452" lon="4.8587483"><ele>150.0</ele><time>2026-05-01T14:48:43.362Z</time></trkpt><trkpt lat="44.5545233" lon="4.8585664"><ele>150.0</ele><time>2026-05-01T14:48:44.361Z</time></trkpt><trkpt lat="44.5545264" lon="4.8583777"><ele>150.0</ele><time>2026-05-01T14:48:45.361Z</time></trkpt><trkpt lat="44.5545295" lon="4.8581867"><ele>150.0</ele><time>2026-05-01T14:48:46.362Z</time></trkpt><trkpt lat="44.5545338" lon="4.8579879"><ele>150.33333333333334</ele><time>2026-05-01T14:48:47.361Z</time></trkpt><trkpt lat="44.5545389" lon="4.8577831"><ele>150.66666666666669</ele><time>2026-05-01T14:48:48.362Z</time></trkpt><trkpt lat="44.5545478" lon="4.85757"><ele>151.0</ele><time>2026-05-01T14:48:49.361Z</time></trkpt><trkpt lat="44.5545599" lon="4.8573469"><ele>150.0</ele><time>2026-05-01T14:48:50.363Z</time></trkpt><trkpt lat="44.5545757" lon="4.8571161"><ele>149.0</ele><time>2026-05-01T14:48:51.361Z</time></trkpt><trkpt lat="44.5545936" lon="4.8568779"><ele>148.0</ele><time>2026-05-01T14:48:52.361Z</time></trkpt><trkpt lat="44.554613" lon="4.8566341"><ele>147.33333333333334</ele><time>2026-05-01T14:48:53.361Z</time></trkpt><trkpt lat="44.554636" lon="4.8563833"><ele>146.66666666666666</ele><time>2026-05-01T14:48:54.362Z</time></trkpt><trkpt lat="44.5546573" lon="4.8561265"><ele>146.0</ele><time>2026-05-01T14:48:55.361Z</time></trkpt><trkpt lat="44.5546808" lon="4.8558637"><ele>146.0</ele><time>2026-05-01T14:48:56.361Z</time></trkpt><trkpt lat="44.5547074" lon="4.855595"><ele>146.0</ele><time>2026-05-01T14:48:57.362Z</time></trkpt><trkpt lat="44.5547343" lon="4.855324"><ele>146.0</ele><time>2026-05-01T14:48:58.361Z</time></trkpt><trkpt lat="44.5547603" lon="4.8550603"><ele>146.0</ele><time>2026-05-01T14:48:59.361Z</time></trkpt><trkpt lat="44.5547862" lon="4.8547967"><ele>146.0</ele><time>2026-05-01T14:49:00.361Z</time></trkpt><trkpt lat="44.5548121" lon="4.8545386"><ele>146.0</ele><time>2026-05-01T14:49:01.361Z</time></trkpt><trkpt lat="44.5548391" lon="4.8542836"><ele>145.66666666666666</ele><time>2026-05-01T14:49:02.361Z</time></trkpt><trkpt lat="44.5548679" lon="4.8540234"><ele>145.33333333333334</ele><time>2026-05-01T14:49:03.361Z</time></trkpt><trkpt lat="44.5548978" lon="4.8537585"><ele>145.0</ele><time>2026-05-01T14:49:04.362Z</time></trkpt><trkpt lat="44.5549294" lon="4.8534973"><ele>144.33333333333334</ele><time>2026-05-01T14:49:05.361Z</time></trkpt><trkpt lat="44.554958" lon="4.8532469"><ele>143.66666666666666</ele><time>2026-05-01T14:49:06.361Z</time></trkpt><trkpt lat="44.5549851" lon="4.853004"><ele>143.0</ele><time>2026-05-01T14:49:07.361Z</time></trkpt><trkpt lat="44.5550086" lon="4.8527688"><ele>143.25</ele><time>2026-05-01T14:49:08.362Z</time></trkpt><trkpt lat="44.5550301" lon="4.8525455"><ele>143.5</ele><time>2026-05-01T14:49:09.361Z</time></trkpt><trkpt lat="44.5550489" lon="4.8523477"><ele>143.75</ele><time>2026-05-01T14:49:10.361Z</time></trkpt><trkpt lat="44.5550721" lon="4.8521779"><ele>144.0</ele><time>2026-05-01T14:49:11.362Z</time></trkpt><trkpt lat="44.5551119" lon="4.8520255"><ele>144.0</ele><time>2026-05-01T14:49:12.362Z</time></trkpt><trkpt lat="44.555166" lon="4.8518903"><ele>144.0</ele><time>2026-05-01T14:49:13.362Z</time></trkpt><trkpt lat="44.5552074" lon="4.8517599"><ele>144.0</ele><time>2026-05-01T14:49:14.361Z</time></trkpt><trkpt lat="44.5552143" lon="4.8516214"><ele>144.0</ele><time>2026-05-01T14:49:15.361Z</time></trkpt><trkpt lat="44.5551929" lon="4.8514784"><ele>144.0</ele><time>2026-05-01T14:49:16.362Z</time></trkpt><trkpt lat="44.5551613" lon="4.8513237"><ele>143.75</ele><time>2026-05-01T14:49:17.362Z</time></trkpt><trkpt lat="44.5551555" lon="4.8511565"><ele>143.5</ele><time>2026-05-01T14:49:18.361Z</time></trkpt><trkpt lat="44.5551724" lon="4.8509889"><ele>143.25</ele><time>2026-05-01T14:49:19.361Z</time></trkpt><trkpt lat="44.5551899" lon="4.8508187"><ele>143.0</ele><time>2026-05-01T14:49:20.361Z</time></trkpt><trkpt lat="44.5552102" lon="4.8506381"><ele>143.0</ele><time>2026-05-01T14:49:21.361Z</time></trkpt><trkpt lat="44.555234" lon="4.8504491"><ele>143.0</ele><time>2026-05-01T14:49:22.361Z</time></trkpt><trkpt lat="44.5552604" lon="4.8502457"><ele>143.0</ele><time>2026-05-01T14:49:23.361Z</time></trkpt><trkpt lat="44.5552873" lon="4.850026"><ele>143.0</ele><time>2026-05-01T14:49:24.361Z</time></trkpt><trkpt lat="44.555317" lon="4.8497934"><ele>143.33333333333331</ele><time>2026-05-01T14:49:25.361Z</time></trkpt><trkpt lat="44.5553502" lon="4.849546"><ele>143.66666666666666</ele><time>2026-05-01T14:49:26.361Z</time></trkpt><trkpt lat="44.555386" lon="4.8492843"><ele>144.0</ele><time>2026-05-01T14:49:27.361Z</time></trkpt><trkpt lat="44.5554237" lon="4.8490147"><ele>143.33333333333334</ele><time>2026-05-01T14:49:28.36Z</time></trkpt><trkpt lat="44.5554625" lon="4.8487471"><ele>142.66666666666669</ele><time>2026-05-01T14:49:29.36Z</time></trkpt><trkpt lat="44.5555022" lon="4.8484677"><ele>142.0</ele><time>2026-05-01T14:49:30.36Z</time></trkpt><trkpt lat="44.5555413" lon="4.8481776"><ele>142.0</ele><time>2026-05-01T14:49:31.36Z</time></trkpt><trkpt lat="44.5555777" lon="4.8478763"><ele>142.0</ele><time>2026-05-01T14:49:32.36Z</time></trkpt><trkpt lat="44.555607" lon="4.8475624"><ele>142.0</ele><time>2026-05-01T14:49:33.36Z</time></trkpt><trkpt lat="44.5556289" lon="4.8472369"><ele>142.0</ele><time>2026-05-01T14:49:34.36Z</time></trkpt><trkpt lat="44.555641" lon="4.8469062"><ele>142.0</ele><time>2026-05-01T14:49:35.361Z</time></trkpt><trkpt lat="44.5556408" lon="4.8465765"><ele>142.0</ele><time>2026-05-01T14:49:36.36Z</time></trkpt><trkpt lat="44.5556279" lon="4.846243"><ele>142.0</ele><time>2026-05-01T14:49:37.36Z</time></trkpt><trkpt lat="44.5556113" lon="4.8459067"><ele>141.5</ele><time>2026-05-01T14:49:38.361Z</time></trkpt><trkpt lat="44.5555932" lon="4.8455659"><ele>141.0</ele><time>2026-05-01T14:49:39.36Z</time></trkpt><trkpt lat="44.5555686" lon="4.8452179"><ele>140.0</ele><time>2026-05-01T14:49:40.36Z</time></trkpt><trkpt lat="44.555538" lon="4.8448655"><ele>139.0</ele><time>2026-05-01T14:49:41.361Z</time></trkpt><trkpt lat="44.5555057" lon="4.8445109"><ele>138.0</ele><time>2026-05-01T14:49:42.36Z</time></trkpt><trkpt lat="44.5554741" lon="4.8441504"><ele>137.0</ele><time>2026-05-01T14:49:43.36Z</time></trkpt><trkpt lat="44.5554423" lon="4.8437894"><ele>137.0</ele><time>2026-05-01T14:49:44.361Z</time></trkpt><trkpt lat="44.5554093" lon="4.8434296"><ele>137.0</ele><time>2026-05-01T14:49:45.36Z</time></trkpt><trkpt lat="44.5553768" lon="4.8430726"><ele>137.0</ele><time>2026-05-01T14:49:46.36Z</time></trkpt><trkpt lat="44.5553439" lon="4.8427153"><ele>137.0</ele><time>2026-05-01T14:49:47.36Z</time></trkpt><trkpt lat="44.5553131" lon="4.842356"><ele>137.0</ele><time>2026-05-01T14:49:48.362Z</time></trkpt><trkpt lat="44.5552834" lon="4.8419956"><ele>137.0</ele><time>2026-05-01T14:49:49.361Z</time></trkpt><trkpt lat="44.555253" lon="4.8416355"><ele>136.5</ele><time>2026-05-01T14:49:50.36Z</time></trkpt><trkpt lat="44.5552183" lon="4.8412799"><ele>136.0</ele><time>2026-05-01T14:49:51.36Z</time></trkpt><trkpt lat="44.5551759" lon="4.8409282"><ele>136.0</ele><time>2026-05-01T14:49:52.36Z</time></trkpt><trkpt lat="44.5551293" lon="4.8405777"><ele>136.0</ele><time>2026-05-01T14:49:53.36Z</time></trkpt><trkpt lat="44.5550794" lon="4.8402263"><ele>135.0</ele><time>2026-05-01T14:49:54.36Z</time></trkpt><trkpt lat="44.5550284" lon="4.8398738"><ele>134.0</ele><time>2026-05-01T14:49:55.36Z</time></trkpt><trkpt lat="44.5549778" lon="4.8395186"><ele>135.0</ele><time>2026-05-01T14:49:56.361Z</time></trkpt><trkpt lat="44.5549279" lon="4.8391608"><ele>136.0</ele><time>2026-05-01T14:49:57.361Z</time></trkpt><trkpt lat="44.5548759" lon="4.8388008"><ele>136.0</ele><time>2026-05-01T14:49:58.361Z</time></trkpt><trkpt lat="44.5548224" lon="4.8384387"><ele>136.0</ele><time>2026-05-01T14:49:59.36Z</time></trkpt><trkpt lat="44.5547695" lon="4.8380721"><ele>136.0</ele><time>2026-05-01T14:50:00.36Z</time></trkpt><trkpt lat="44.5547159" lon="4.8377014"><ele>136.0</ele><time>2026-05-01T14:50:01.36Z</time></trkpt><trkpt lat="44.5546596" lon="4.8373271"><ele>135.5</ele><time>2026-05-01T14:50:02.36Z</time></trkpt><trkpt lat="44.5545973" lon="4.8369541"><ele>135.0</ele><time>2026-05-01T14:50:03.36Z</time></trkpt><trkpt lat="44.5545258" lon="4.8365869"><ele>134.5</ele><time>2026-05-01T14:50:04.36Z</time></trkpt><trkpt lat="44.5544504" lon="4.8362281"><ele>134.0</ele><time>2026-05-01T14:50:05.36Z</time></trkpt><trkpt lat="44.5543761" lon="4.8358759"><ele>133.0</ele><time>2026-05-01T14:50:06.36Z</time></trkpt><trkpt lat="44.5542999" lon="4.835532"><ele>132.0</ele><time>2026-05-01T14:50:07.36Z</time></trkpt><trkpt lat="44.5542204" lon="4.8351969"><ele>132.0</ele><time>2026-05-01T14:50:08.361Z</time></trkpt><trkpt lat="44.5541248" lon="4.8348716"><ele>132.0</ele><time>2026-05-01T14:50:09.36Z</time></trkpt><trkpt lat="44.5540136" lon="4.8345576"><ele>132.0</ele><time>2026-05-01T14:50:10.36Z</time></trkpt><trkpt lat="44.5538868" lon="4.834256"><ele>132.0</ele><time>2026-05-01T14:50:11.361Z</time></trkpt><trkpt lat="44.5537535" lon="4.8339618"><ele>131.5</ele><time>2026-05-01T14:50:12.361Z</time></trkpt><trkpt lat="44.5536093" lon="4.8336847"><ele>131.0</ele><time>2026-05-01T14:50:13.361Z</time></trkpt><trkpt lat="44.5534579" lon="4.8334319"><ele>131.0</ele><time>2026-05-01T14:50:14.361Z</time></trkpt><trkpt lat="44.5533008" lon="4.8332045"><ele>131.0</ele><time>2026-05-01T14:50:15.36Z</time></trkpt><trkpt lat="44.5531363" lon="4.8329994"><ele>131.0</ele><time>2026-05-01T14:50:16.36Z</time></trkpt><trkpt lat="44.5529658" lon="4.8328009"><ele>130.66666666666666</ele><time>2026-05-01T14:50:17.36Z</time></trkpt><trkpt lat="44.5527965" lon="4.8326059"><ele>130.33333333333334</ele><time>2026-05-01T14:50:18.36Z</time></trkpt><trkpt lat="44.5526279" lon="4.8324144"><ele>130.0</ele><time>2026-05-01T14:50:19.36Z</time></trkpt><trkpt lat="44.5524567" lon="4.8322211"><ele>130.0</ele><time>2026-05-01T14:50:20.36Z</time></trkpt><trkpt lat="44.5522841" lon="4.8320242"><ele>130.0</ele><time>2026-05-01T14:50:21.36Z</time></trkpt><trkpt lat="44.5521082" lon="4.8318242"><ele>130.0</ele><time>2026-05-01T14:50:22.361Z</time></trkpt><trkpt lat="44.551937" lon="4.8316258"><ele>129.66666666666669</ele><time>2026-05-01T14:50:23.36Z</time></trkpt><trkpt lat="44.5517653" lon="4.8314331"><ele>129.33333333333334</ele><time>2026-05-01T14:50:24.36Z</time></trkpt><trkpt lat="44.5515922" lon="4.8312374"><ele>129.0</ele><time>2026-05-01T14:50:25.36Z</time></trkpt><trkpt lat="44.5514182" lon="4.8310447"><ele>129.0</ele><time>2026-05-01T14:50:26.36Z</time></trkpt><trkpt lat="44.5512491" lon="4.8308537"><ele>129.0</ele><time>2026-05-01T14:50:27.36Z</time></trkpt><trkpt lat="44.5510829" lon="4.8306661"><ele>129.0</ele><time>2026-05-01T14:50:28.36Z</time></trkpt><trkpt lat="44.5509191" lon="4.8304815"><ele>129.0</ele><time>2026-05-01T14:50:29.36Z</time></trkpt><trkpt lat="44.5507493" lon="4.8302952"><ele>129.0</ele><time>2026-05-01T14:50:30.36Z</time></trkpt><trkpt lat="44.5505795" lon="4.8301029"><ele>129.0</ele><time>2026-05-01T14:50:31.36Z</time></trkpt><trkpt lat="44.5504057" lon="4.8299103"><ele>128.0</ele><time>2026-05-01T14:50:32.36Z</time></trkpt><trkpt lat="44.55023" lon="4.8297169"><ele>127.0</ele><time>2026-05-01T14:50:33.36Z</time></trkpt><trkpt lat="44.5500506" lon="4.8295219"><ele>127.0</ele><time>2026-05-01T14:50:34.36Z</time></trkpt><trkpt lat="44.5498719" lon="4.8293234"><ele>127.0</ele><time>2026-05-01T14:50:35.36Z</time></trkpt><trkpt lat="44.549693" lon="4.8291261"><ele>127.0</ele><time>2026-05-01T14:50:36.361Z</time></trkpt><trkpt lat="44.5495147" lon="4.8289308"><ele>127.0</ele><time>2026-05-01T14:50:37.36Z</time></trkpt><trkpt lat="44.5493397" lon="4.8287387"><ele>127.0</ele><time>2026-05-01T14:50:38.36Z</time></trkpt><trkpt lat="44.549169" lon="4.828547"><ele>127.0</ele><time>2026-05-01T14:50:39.36Z</time></trkpt><trkpt lat="44.5490034" lon="4.8283631"><ele>127.0</ele><time>2026-05-01T14:50:40.362Z</time></trkpt><trkpt lat="44.5488422" lon="4.8281872"><ele>127.0</ele><time>2026-05-01T14:50:41.36Z</time></trkpt><trkpt lat="44.5486853" lon="4.8280195"><ele>127.0</ele><time>2026-05-01T14:50:42.36Z</time></trkpt><trkpt lat="44.5485371" lon="4.8278606"><ele>127.0</ele><time>2026-05-01T14:50:43.36Z</time></trkpt><trkpt lat="44.5484" lon="4.8277137"><ele>127.0</ele><time>2026-05-01T14:50:44.36Z</time></trkpt><trkpt lat="44.5482772" lon="4.827574"><ele>126.5</ele><time>2026-05-01T14:50:45.36Z</time></trkpt><trkpt lat="44.5481677" lon="4.8274399"><ele>126.0</ele><time>2026-05-01T14:50:46.36Z</time></trkpt><trkpt lat="44.5480766" lon="4.8273074"><ele>125.5</ele><time>2026-05-01T14:50:47.36Z</time></trkpt><trkpt lat="44.5480092" lon="4.8271696"><ele>125.0</ele><time>2026-05-01T14:50:48.36Z</time></trkpt><trkpt lat="44.5479582" lon="4.8270272"><ele>125.0</ele><time>2026-05-01T14:50:49.36Z</time></trkpt><trkpt lat="44.547912" lon="4.8268828"><ele>125.0</ele><time>2026-05-01T14:50:50.36Z</time></trkpt><trkpt lat="44.5478638" lon="4.826737"><ele>125.0</ele><time>2026-05-01T14:50:51.36Z</time></trkpt><trkpt lat="44.5478236" lon="4.826576"><ele>125.0</ele><time>2026-05-01T14:50:52.36Z</time></trkpt><trkpt lat="44.5477993" lon="4.8263959"><ele>125.0</ele><time>2026-05-01T14:50:53.36Z</time></trkpt><trkpt lat="44.5477868" lon="4.8261945"><ele>125.0</ele><time>2026-05-01T14:50:54.36Z</time></trkpt><trkpt lat="44.5477783" lon="4.825975"><ele>125.0</ele><time>2026-05-01T14:50:55.36Z</time></trkpt><trkpt lat="44.5477716" lon="4.8257404"><ele>125.0</ele><time>2026-05-01T14:50:56.361Z</time></trkpt><trkpt lat="44.5477672" lon="4.8254902"><ele>125.0</ele><time>2026-05-01T14:50:57.36Z</time></trkpt><trkpt lat="44.5477646" lon="4.8252257"><ele>125.0</ele><time>2026-05-01T14:50:58.36Z</time></trkpt><trkpt lat="44.5477627" lon="4.8249588"><ele>124.33333333333333</ele><time>2026-05-01T14:50:59.36Z</time></trkpt><trkpt lat="44.5477602" lon="4.824688"><ele>123.66666666666666</ele><time>2026-05-01T14:51:00.36Z</time></trkpt><trkpt lat="44.5477589" lon="4.8244096"><ele>123.0</ele><time>2026-05-01T14:51:01.36Z</time></trkpt><trkpt lat="44.547757" lon="4.8241256"><ele>123.0</ele><time>2026-05-01T14:51:02.36Z</time></trkpt><trkpt lat="44.5477527" lon="4.8238369"><ele>123.0</ele><time>2026-05-01T14:51:03.36Z</time></trkpt><trkpt lat="44.547748" lon="4.8235388"><ele>123.0</ele><time>2026-05-01T14:51:04.36Z</time></trkpt><trkpt lat="44.5477436" lon="4.8232373"><ele>123.0</ele><time>2026-05-01T14:51:05.36Z</time></trkpt><trkpt lat="44.5477381" lon="4.8229291"><ele>123.0</ele><time>2026-05-01T14:51:06.36Z</time></trkpt><trkpt lat="44.5477308" lon="4.8226176"><ele>123.0</ele><time>2026-05-01T14:51:07.36Z</time></trkpt><trkpt lat="44.5477251" lon="4.8223061"><ele>123.0</ele><time>2026-05-01T14:51:08.36Z</time></trkpt><trkpt lat="44.5477238" lon="4.8219971"><ele>123.0</ele><time>2026-05-01T14:51:09.361Z</time></trkpt><trkpt lat="44.5477233" lon="4.8216918"><ele>123.0</ele><time>2026-05-01T14:51:10.36Z</time></trkpt><trkpt lat="44.5477205" lon="4.8213903"><ele>123.33333333333334</ele><time>2026-05-01T14:51:11.36Z</time></trkpt><trkpt lat="44.5477168" lon="4.8210936"><ele>123.66666666666667</ele><time>2026-05-01T14:51:12.36Z</time></trkpt><trkpt lat="44.5477111" lon="4.8207909"><ele>124.0</ele><time>2026-05-01T14:51:13.36Z</time></trkpt><trkpt lat="44.5477025" lon="4.820482"><ele>124.0</ele><time>2026-05-01T14:51:14.36Z</time></trkpt><trkpt lat="44.5476984" lon="4.8201668"><ele>124.0</ele><time>2026-05-01T14:51:15.36Z</time></trkpt><trkpt lat="44.5476962" lon="4.8198448"><ele>123.33333333333334</ele><time>2026-05-01T14:51:16.36Z</time></trkpt><trkpt lat="44.5476943" lon="4.8195269"><ele>122.66666666666666</ele><time>2026-05-01T14:51:17.36Z</time></trkpt><trkpt lat="44.547692" lon="4.8192156"><ele>122.0</ele><time>2026-05-01T14:51:18.36Z</time></trkpt><trkpt lat="44.5476896" lon="4.8189085"><ele>121.66666666666666</ele><time>2026-05-01T14:51:19.361Z</time></trkpt><trkpt lat="44.5476865" lon="4.8186097"><ele>121.33333333333334</ele><time>2026-05-01T14:51:20.36Z</time></trkpt><trkpt lat="44.5476823" lon="4.818315"><ele>121.0</ele><time>2026-05-01T14:51:21.36Z</time></trkpt><trkpt lat="44.5476801" lon="4.8180221"><ele>120.66666666666667</ele><time>2026-05-01T14:51:22.36Z</time></trkpt><trkpt lat="44.5476782" lon="4.8177261"><ele>120.33333333333334</ele><time>2026-05-01T14:51:23.36Z</time></trkpt><trkpt lat="44.5476773" lon="4.8174277"><ele>120.0</ele><time>2026-05-01T14:51:24.36Z</time></trkpt><trkpt lat="44.5476751" lon="4.8171309"><ele>119.33333333333334</ele><time>2026-05-01T14:51:25.36Z</time></trkpt><trkpt lat="44.5476733" lon="4.8168354"><ele>118.66666666666667</ele><time>2026-05-01T14:51:26.36Z</time></trkpt><trkpt lat="44.5476729" lon="4.8165462"><ele>118.0</ele><time>2026-05-01T14:51:27.36Z</time></trkpt><trkpt lat="44.5476755" lon="4.8162629"><ele>117.33333333333334</ele><time>2026-05-01T14:51:28.36Z</time></trkpt><trkpt lat="44.547681" lon="4.8159832"><ele>116.66666666666666</ele><time>2026-05-01T14:51:29.36Z</time></trkpt><trkpt lat="44.5476836" lon="4.8157126"><ele>116.0</ele><time>2026-05-01T14:51:30.36Z</time></trkpt><trkpt lat="44.5476853" lon="4.8154444"><ele>116.0</ele><time>2026-05-01T14:51:31.36Z</time></trkpt><trkpt lat="44.5476847" lon="4.8151795"><ele>116.0</ele><time>2026-05-01T14:51:32.36Z</time></trkpt><trkpt lat="44.5476807" lon="4.8149212"><ele>116.0</ele><time>2026-05-01T14:51:33.36Z</time></trkpt><trkpt lat="44.5476772" lon="4.8146669"><ele>116.0</ele><time>2026-05-01T14:51:34.36Z</time></trkpt><trkpt lat="44.5476747" lon="4.814412"><ele>116.0</ele><time>2026-05-01T14:51:35.36Z</time></trkpt><trkpt lat="44.547674" lon="4.8141601"><ele>116.0</ele><time>2026-05-01T14:51:36.36Z</time></trkpt><trkpt lat="44.547673" lon="4.8139111"><ele>116.0</ele><time>2026-05-01T14:51:37.36Z</time></trkpt><trkpt lat="44.5476701" lon="4.8136631"><ele>116.0</ele><time>2026-05-01T14:51:38.36Z</time></trkpt><trkpt lat="44.5476638" lon="4.8134102"><ele>116.0</ele><time>2026-05-01T14:51:39.36Z</time></trkpt><trkpt lat="44.5476587" lon="4.813159"><ele>116.0</ele><time>2026-05-01T14:51:40.36Z</time></trkpt><trkpt lat="44.5476547" lon="4.8129043"><ele>116.0</ele><time>2026-05-01T14:51:41.36Z</time></trkpt><trkpt lat="44.547652" lon="4.812647"><ele>116.0</ele><time>2026-05-01T14:51:42.36Z</time></trkpt><trkpt lat="44.5476504" lon="4.812389"><ele>116.0</ele><time>2026-05-01T14:51:43.36Z</time></trkpt><trkpt lat="44.5476494" lon="4.8121367"><ele>116.0</ele><time>2026-05-01T14:51:44.36Z</time></trkpt><trkpt lat="44.5476473" lon="4.8118852"><ele>116.0</ele><time>2026-05-01T14:51:45.36Z</time></trkpt><trkpt lat="44.5476442" lon="4.8116346"><ele>116.33333333333333</ele><time>2026-05-01T14:51:46.36Z</time></trkpt><trkpt lat="44.5476415" lon="4.811382"><ele>116.66666666666666</ele><time>2026-05-01T14:51:47.36Z</time></trkpt><trkpt lat="44.5476367" lon="4.8111322"><ele>117.0</ele><time>2026-05-01T14:51:48.36Z</time></trkpt><trkpt lat="44.547632" lon="4.8108859"><ele>117.0</ele><time>2026-05-01T14:51:49.36Z</time></trkpt><trkpt lat="44.5476264" lon="4.8106403"><ele>117.0</ele><time>2026-05-01T14:51:50.36Z</time></trkpt><trkpt lat="44.5476223" lon="4.8103906"><ele>117.0</ele><time>2026-05-01T14:51:51.361Z</time></trkpt><trkpt lat="44.54762" lon="4.8101374"><ele>117.0</ele><time>2026-05-01T14:51:52.36Z</time></trkpt><trkpt lat="44.5476192" lon="4.8098783"><ele>117.0</ele><time>2026-05-01T14:51:53.36Z</time></trkpt><trkpt lat="44.5476153" lon="4.8096167"><ele>117.0</ele><time>2026-05-01T14:51:54.36Z</time></trkpt><trkpt lat="44.5476082" lon="4.8093484"><ele>117.33333333333334</ele><time>2026-05-01T14:51:55.36Z</time></trkpt><trkpt lat="44.5476013" lon="4.8090779"><ele>117.66666666666667</ele><time>2026-05-01T14:51:56.36Z</time></trkpt><trkpt lat="44.5475979" lon="4.8088252"><ele>118.0</ele><time>2026-05-01T14:51:57.361Z</time></trkpt><trkpt lat="44.5475929" lon="4.8085585"><ele>118.0</ele><time>2026-05-01T14:51:58.36Z</time></trkpt><trkpt lat="44.5475859" lon="4.8083135"><ele>118.0</ele><time>2026-05-01T14:51:59.36Z</time></trkpt><trkpt lat="44.5475836" lon="4.8080773"><ele>118.0</ele><time>2026-05-01T14:52:00.361Z</time></trkpt><trkpt lat="44.547578" lon="4.8078629"><ele>118.0</ele><time>2026-05-01T14:52:01.36Z</time></trkpt><trkpt lat="44.5475722" lon="4.8076632"><ele>118.0</ele><time>2026-05-01T14:52:02.36Z</time></trkpt><trkpt lat="44.5475719" lon="4.8074854"><ele>118.0</ele><time>2026-05-01T14:52:03.36Z</time></trkpt><trkpt lat="44.5475759" lon="4.8073291"><ele>118.0</ele><time>2026-05-01T14:52:04.361Z</time></trkpt><trkpt lat="44.5475909" lon="4.8072055"><ele>117.80000000000001</ele><time>2026-05-01T14:52:05.36Z</time></trkpt><trkpt lat="44.5476188" lon="4.8070996"><ele>117.60000000000001</ele><time>2026-05-01T14:52:06.36Z</time></trkpt><trkpt lat="44.5476448" lon="4.8069937"><ele>117.39999999999999</ele><time>2026-05-01T14:52:07.36Z</time></trkpt><trkpt lat="44.5476461" lon="4.8068746"><ele>117.19999999999999</ele><time>2026-05-01T14:52:08.36Z</time></trkpt><trkpt lat="44.5476223" lon="4.8067431"><ele>117.0</ele><time>2026-05-01T14:52:09.36Z</time></trkpt><trkpt lat="44.5475984" lon="4.8065918"><ele>116.39999999999999</ele><time>2026-05-01T14:52:10.36Z</time></trkpt><trkpt lat="44.5475898" lon="4.8064289"><ele>115.79999999999998</ele><time>2026-05-01T14:52:11.36Z</time></trkpt><trkpt lat="44.5475889" lon="4.8062684"><ele>115.2</ele><time>2026-05-01T14:52:12.361Z</time></trkpt><trkpt lat="44.5475878" lon="4.8061122"><ele>114.6</ele><time>2026-05-01T14:52:13.36Z</time></trkpt><trkpt lat="44.5475882" lon="4.8059701"><ele>114.0</ele><time>2026-05-01T14:52:14.36Z</time></trkpt><trkpt lat="44.5475856" lon="4.8058372"><ele>113.6</ele><time>2026-05-01T14:52:15.36Z</time></trkpt><trkpt lat="44.5475813" lon="4.8057027"><ele>113.2</ele><time>2026-05-01T14:52:16.361Z</time></trkpt><trkpt lat="44.5475779" lon="4.8055639"><ele>112.79999999999998</ele><time>2026-05-01T14:52:17.36Z</time></trkpt><trkpt lat="44.5475747" lon="4.8054149"><ele>112.39999999999999</ele><time>2026-05-01T14:52:18.36Z</time></trkpt><trkpt lat="44.5475709" lon="4.8052535"><ele>112.0</ele><time>2026-05-01T14:52:19.36Z</time></trkpt><trkpt lat="44.547569" lon="4.8050762"><ele>111.75</ele><time>2026-05-01T14:52:20.36Z</time></trkpt><trkpt lat="44.5475706" lon="4.804882"><ele>111.5</ele><time>2026-05-01T14:52:21.36Z</time></trkpt><trkpt lat="44.5475707" lon="4.8046796"><ele>111.25</ele><time>2026-05-01T14:52:22.361Z</time></trkpt><trkpt lat="44.5475713" lon="4.8044788"><ele>111.0</ele><time>2026-05-01T14:52:23.36Z</time></trkpt><trkpt lat="44.5475683" lon="4.8042882"><ele>111.0</ele><time>2026-05-01T14:52:24.36Z</time></trkpt><trkpt lat="44.5475618" lon="4.8041062"><ele>111.0</ele><time>2026-05-01T14:52:25.36Z</time></trkpt><trkpt lat="44.5475563" lon="4.8039398"><ele>111.0</ele><time>2026-05-01T14:52:26.36Z</time></trkpt><trkpt lat="44.5475522" lon="4.8037831"><ele>111.0</ele><time>2026-05-01T14:52:27.361Z</time></trkpt><trkpt lat="44.5475497" lon="4.8036354"><ele>110.75</ele><time>2026-05-01T14:52:28.361Z</time></trkpt><trkpt lat="44.5475506" lon="4.8034835"><ele>110.5</ele><time>2026-05-01T14:52:29.36Z</time></trkpt><trkpt lat="44.5475601" lon="4.8033247"><ele>110.25</ele><time>2026-05-01T14:52:30.36Z</time></trkpt><trkpt lat="44.5475691" lon="4.8031526"><ele>110.0</ele><time>2026-05-01T14:52:31.36Z</time></trkpt><trkpt lat="44.5475656" lon="4.8029647"><ele>110.0</ele><time>2026-05-01T14:52:32.36Z</time></trkpt><trkpt lat="44.5475546" lon="4.8027681"><ele>110.0</ele><time>2026-05-01T14:52:33.36Z</time></trkpt><trkpt lat="44.547549" lon="4.8025748"><ele>110.0</ele><time>2026-05-01T14:52:34.36Z</time></trkpt><trkpt lat="44.5475518" lon="4.802394"><ele>110.0</ele><time>2026-05-01T14:52:35.36Z</time></trkpt><trkpt lat="44.5475589" lon="4.8022217"><ele>110.25</ele><time>2026-05-01T14:52:36.36Z</time></trkpt><trkpt lat="44.5475689" lon="4.802055"><ele>110.5</ele><time>2026-05-01T14:52:37.36Z</time></trkpt><trkpt lat="44.5475773" lon="4.8018917"><ele>110.75</ele><time>2026-05-01T14:52:38.36Z</time></trkpt><trkpt lat="44.5475937" lon="4.8017263"><ele>111.0</ele><time>2026-05-01T14:52:39.36Z</time></trkpt><trkpt lat="44.5476332" lon="4.8015567"><ele>111.25</ele><time>2026-05-01T14:52:40.36Z</time></trkpt><trkpt lat="44.5476847" lon="4.8013749"><ele>111.5</ele><time>2026-05-01T14:52:41.36Z</time></trkpt><trkpt lat="44.5477374" lon="4.8011857"><ele>111.75</ele><time>2026-05-01T14:52:42.36Z</time></trkpt><trkpt lat="44.5477946" lon="4.8010037"><ele>112.0</ele><time>2026-05-01T14:52:43.361Z</time></trkpt><trkpt lat="44.5478527" lon="4.8008298"><ele>112.25</ele><time>2026-05-01T14:52:44.36Z</time></trkpt><trkpt lat="44.5479163" lon="4.8006683"><ele>112.5</ele><time>2026-05-01T14:52:45.36Z</time></trkpt><trkpt lat="44.547979" lon="4.8005151"><ele>112.75</ele><time>2026-05-01T14:52:46.361Z</time></trkpt><trkpt lat="44.548025" lon="4.8003479"><ele>113.0</ele><time>2026-05-01T14:52:47.36Z</time></trkpt><trkpt lat="44.5480606" lon="4.8001746"><ele>112.75</ele><time>2026-05-01T14:52:48.361Z</time></trkpt><trkpt lat="44.5481104" lon="4.8000134"><ele>112.5</ele><time>2026-05-01T14:52:49.36Z</time></trkpt><trkpt lat="44.5481693" lon="4.7998493"><ele>112.25</ele><time>2026-05-01T14:52:50.36Z</time></trkpt><trkpt lat="44.5482311" lon="4.7996816"><ele>112.0</ele><time>2026-05-01T14:52:51.361Z</time></trkpt><trkpt lat="44.5482913" lon="4.7995238"><ele>112.0</ele><time>2026-05-01T14:52:52.36Z</time></trkpt><trkpt lat="44.5483526" lon="4.7993731"><ele>111.99999999999999</ele><time>2026-05-01T14:52:53.36Z</time></trkpt><trkpt lat="44.5484133" lon="4.7992338"><ele>111.99999999999999</ele><time>2026-05-01T14:52:54.36Z</time></trkpt><trkpt lat="44.5484676" lon="4.7991117"><ele>112.0</ele><time>2026-05-01T14:52:55.36Z</time></trkpt><trkpt lat="44.5485195" lon="4.7990005"><ele>112.0</ele><time>2026-05-01T14:52:56.361Z</time></trkpt><trkpt lat="44.5485678" lon="4.7989052"><ele>111.83333333333334</ele><time>2026-05-01T14:52:57.36Z</time></trkpt><trkpt lat="44.5486026" lon="4.7988185"><ele>111.66666666666667</ele><time>2026-05-01T14:52:58.36Z</time></trkpt><trkpt lat="44.5486241" lon="4.7987335"><ele>111.5</ele><time>2026-05-01T14:52:59.36Z</time></trkpt><trkpt lat="44.5486216" lon="4.798639"><ele>111.33333333333334</ele><time>2026-05-01T14:53:00.36Z</time></trkpt><trkpt lat="44.5485914" lon="4.7985457"><ele>111.16666666666667</ele><time>2026-05-01T14:53:01.36Z</time></trkpt><trkpt lat="44.5485519" lon="4.79844"><ele>111.0</ele><time>2026-05-01T14:53:02.36Z</time></trkpt><trkpt lat="44.5485212" lon="4.7983121"><ele>110.75</ele><time>2026-05-01T14:53:03.36Z</time></trkpt><trkpt lat="44.5484996" lon="4.7981628"><ele>110.5</ele><time>2026-05-01T14:53:04.361Z</time></trkpt><trkpt lat="44.5484842" lon="4.7979904"><ele>110.25</ele><time>2026-05-01T14:53:05.36Z</time></trkpt><trkpt lat="44.5484732" lon="4.7978041"><ele>110.0</ele><time>2026-05-01T14:53:06.36Z</time></trkpt><trkpt lat="44.5484612" lon="4.7976092"><ele>109.5</ele><time>2026-05-01T14:53:07.36Z</time></trkpt><trkpt lat="44.5484492" lon="4.7974074"><ele>109.0</ele><time>2026-05-01T14:53:08.36Z</time></trkpt><trkpt lat="44.5484361" lon="4.7971995"><ele>108.5</ele><time>2026-05-01T14:53:09.361Z</time></trkpt><trkpt lat="44.5484239" lon="4.7969819"><ele>108.0</ele><time>2026-05-01T14:53:10.36Z</time></trkpt><trkpt lat="44.5484128" lon="4.7967518"><ele>107.33333333333334</ele><time>2026-05-01T14:53:11.36Z</time></trkpt><trkpt lat="44.5484044" lon="4.7965107"><ele>106.66666666666667</ele><time>2026-05-01T14:53:12.36Z</time></trkpt><trkpt lat="44.5484008" lon="4.7962591"><ele>106.0</ele><time>2026-05-01T14:53:13.36Z</time></trkpt><trkpt lat="44.5483999" lon="4.7960001"><ele>106.0</ele><time>2026-05-01T14:53:14.361Z</time></trkpt><trkpt lat="44.5484043" lon="4.7957338"><ele>106.0</ele><time>2026-05-01T14:53:15.36Z</time></trkpt><trkpt lat="44.5484141" lon="4.795465"><ele>106.0</ele><time>2026-05-01T14:53:16.36Z</time></trkpt><trkpt lat="44.5484242" lon="4.795191"><ele>106.0</ele><time>2026-05-01T14:53:17.36Z</time></trkpt><trkpt lat="44.5484359" lon="4.7949137"><ele>106.0</ele><time>2026-05-01T14:53:18.36Z</time></trkpt><trkpt lat="44.548451" lon="4.7946316"><ele>106.0</ele><time>2026-05-01T14:53:19.36Z</time></trkpt><trkpt lat="44.5484679" lon="4.7943483"><ele>105.66666666666667</ele><time>2026-05-01T14:53:20.36Z</time></trkpt><trkpt lat="44.5484838" lon="4.794065"><ele>105.33333333333334</ele><time>2026-05-01T14:53:21.36Z</time></trkpt><trkpt lat="44.5484987" lon="4.7937814"><ele>105.0</ele><time>2026-05-01T14:53:22.36Z</time></trkpt><trkpt lat="44.5485153" lon="4.793498"><ele>104.33333333333334</ele><time>2026-05-01T14:53:23.36Z</time></trkpt><trkpt lat="44.548535" lon="4.7932222"><ele>103.66666666666667</ele><time>2026-05-01T14:53:24.361Z</time></trkpt><trkpt lat="44.5485583" lon="4.7929581"><ele>103.0</ele><time>2026-05-01T14:53:25.36Z</time></trkpt><trkpt lat="44.548583" lon="4.7927057"><ele>103.66666666666667</ele><time>2026-05-01T14:53:26.36Z</time></trkpt><trkpt lat="44.5486051" lon="4.7924642"><ele>104.33333333333334</ele><time>2026-05-01T14:53:27.36Z</time></trkpt><trkpt lat="44.5486244" lon="4.7922257"><ele>105.0</ele><time>2026-05-01T14:53:28.36Z</time></trkpt><trkpt lat="44.5486424" lon="4.791994"><ele>105.0</ele><time>2026-05-01T14:53:29.36Z</time></trkpt><trkpt lat="44.5486595" lon="4.7917721"><ele>105.0</ele><time>2026-05-01T14:53:30.36Z</time></trkpt><trkpt lat="44.548677" lon="4.7915593"><ele>105.0</ele><time>2026-05-01T14:53:31.36Z</time></trkpt><trkpt lat="44.5486911" lon="4.7913524"><ele>105.0</ele><time>2026-05-01T14:53:32.36Z</time></trkpt><trkpt lat="44.548703" lon="4.7911579"><ele>105.0</ele><time>2026-05-01T14:53:33.36Z</time></trkpt><trkpt lat="44.5487111" lon="4.7909682"><ele>105.0</ele><time>2026-05-01T14:53:34.36Z</time></trkpt><trkpt lat="44.5487144" lon="4.7907895"><ele>105.0</ele><time>2026-05-01T14:53:35.36Z</time></trkpt><trkpt lat="44.5487192" lon="4.7906332"><ele>105.0</ele><time>2026-05-01T14:53:36.36Z</time></trkpt><trkpt lat="44.5487321" lon="4.7905014"><ele>105.0</ele><time>2026-05-01T14:53:37.36Z</time></trkpt><trkpt lat="44.5487611" lon="4.7903788"><ele>105.0</ele><time>2026-05-01T14:53:38.36Z</time></trkpt><trkpt lat="44.5488023" lon="4.7902645"><ele>105.0</ele><time>2026-05-01T14:53:39.36Z</time></trkpt><trkpt lat="44.5488395" lon="4.7901542"><ele>105.0</ele><time>2026-05-01T14:53:40.36Z</time></trkpt><trkpt lat="44.5488472" lon="4.7900351"><ele>105.0</ele><time>2026-05-01T14:53:41.36Z</time></trkpt><trkpt lat="44.5488274" lon="4.7899099"><ele>105.0</ele><time>2026-05-01T14:53:42.36Z</time></trkpt><trkpt lat="44.5487986" lon="4.78977"><ele>105.0</ele><time>2026-05-01T14:53:43.36Z</time></trkpt><trkpt lat="44.5487839" lon="4.7896185"><ele>105.0</ele><time>2026-05-01T14:53:44.36Z</time></trkpt><trkpt lat="44.5487824" lon="4.789451"><ele>105.0</ele><time>2026-05-01T14:53:45.36Z</time></trkpt><trkpt lat="44.548793" lon="4.7892735"><ele>104.5</ele><time>2026-05-01T14:53:46.36Z</time></trkpt><trkpt lat="44.5488063" lon="4.7890871"><ele>104.0</ele><time>2026-05-01T14:53:47.36Z</time></trkpt><trkpt lat="44.5488174" lon="4.7888903"><ele>103.5</ele><time>2026-05-01T14:53:48.36Z</time></trkpt><trkpt lat="44.5488301" lon="4.7886875"><ele>103.0</ele><time>2026-05-01T14:53:49.36Z</time></trkpt><trkpt lat="44.5488444" lon="4.7884786"><ele>102.33333333333334</ele><time>2026-05-01T14:53:50.36Z</time></trkpt><trkpt lat="44.5488568" lon="4.7882619"><ele>101.66666666666666</ele><time>2026-05-01T14:53:51.36Z</time></trkpt><trkpt lat="44.5488706" lon="4.788038"><ele>101.0</ele><time>2026-05-01T14:53:52.36Z</time></trkpt><trkpt lat="44.5488867" lon="4.7878036"><ele>100.33333333333333</ele><time>2026-05-01T14:53:53.36Z</time></trkpt><trkpt lat="44.5489043" lon="4.7875583"><ele>99.66666666666666</ele><time>2026-05-01T14:53:54.36Z</time></trkpt><trkpt lat="44.5489198" lon="4.7873024"><ele>99.0</ele><time>2026-05-01T14:53:55.36Z</time></trkpt><trkpt lat="44.5489376" lon="4.7870464"><ele>98.66666666666666</ele><time>2026-05-01T14:53:56.36Z</time></trkpt><trkpt lat="44.5489558" lon="4.7867817"><ele>98.33333333333333</ele><time>2026-05-01T14:53:57.36Z</time></trkpt><trkpt lat="44.5489735" lon="4.7865095"><ele>98.0</ele><time>2026-05-01T14:53:58.36Z</time></trkpt><trkpt lat="44.5489908" lon="4.7862285"><ele>98.66666666666666</ele><time>2026-05-01T14:53:59.36Z</time></trkpt><trkpt lat="44.5490109" lon="4.7859383"><ele>99.33333333333334</ele><time>2026-05-01T14:54:00.36Z</time></trkpt><trkpt lat="44.549034" lon="4.7856411"><ele>100.0</ele><time>2026-05-01T14:54:01.36Z</time></trkpt><trkpt lat="44.5490634" lon="4.7853409"><ele>100.66666666666667</ele><time>2026-05-01T14:54:02.36Z</time></trkpt><trkpt lat="44.5491022" lon="4.7850493"><ele>101.33333333333334</ele><time>2026-05-01T14:54:03.36Z</time></trkpt><trkpt lat="44.5491442" lon="4.7847629"><ele>102.0</ele><time>2026-05-01T14:54:04.36Z</time></trkpt><trkpt lat="44.5491876" lon="4.7844808"><ele>100.66666666666666</ele><time>2026-05-01T14:54:05.36Z</time></trkpt><trkpt lat="44.5492334" lon="4.7841974"><ele>99.33333333333333</ele><time>2026-05-01T14:54:06.36Z</time></trkpt><trkpt lat="44.5492871" lon="4.7839174"><ele>98.0</ele><time>2026-05-01T14:54:07.361Z</time></trkpt><trkpt lat="44.5493462" lon="4.7836351"><ele>98.0</ele><time>2026-05-01T14:54:08.36Z</time></trkpt><trkpt lat="44.549414" lon="4.7833532"><ele>98.0</ele><time>2026-05-01T14:54:09.36Z</time></trkpt><trkpt lat="44.5494853" lon="4.7830719"><ele>98.0</ele><time>2026-05-01T14:54:10.36Z</time></trkpt><trkpt lat="44.5495542" lon="4.7827852"><ele>98.0</ele><time>2026-05-01T14:54:11.36Z</time></trkpt><trkpt lat="44.5496199" lon="4.782498"><ele>98.0</ele><time>2026-05-01T14:54:12.36Z</time></trkpt><trkpt lat="44.5496883" lon="4.7822074"><ele>98.0</ele><time>2026-05-01T14:54:13.36Z</time></trkpt><trkpt lat="44.5497591" lon="4.7819176"><ele>97.66666666666666</ele><time>2026-05-01T14:54:14.361Z</time></trkpt><trkpt lat="44.5498287" lon="4.7816267"><ele>97.33333333333334</ele><time>2026-05-01T14:54:15.36Z</time></trkpt><trkpt lat="44.5498963" lon="4.7813333"><ele>97.0</ele><time>2026-05-01T14:54:16.36Z</time></trkpt><trkpt lat="44.5499588" lon="4.7810358"><ele>97.0</ele><time>2026-05-01T14:54:17.36Z</time></trkpt><trkpt lat="44.5500172" lon="4.7807337"><ele>97.0</ele><time>2026-05-01T14:54:18.36Z</time></trkpt><trkpt lat="44.5500694" lon="4.7804365"><ele>97.0</ele><time>2026-05-01T14:54:19.36Z</time></trkpt><trkpt lat="44.5501154" lon="4.780147"><ele>97.0</ele><time>2026-05-01T14:54:20.36Z</time></trkpt><trkpt lat="44.5501528" lon="4.7798585"><ele>97.0</ele><time>2026-05-01T14:54:21.36Z</time></trkpt><trkpt lat="44.5501842" lon="4.7795732"><ele>97.0</ele><time>2026-05-01T14:54:22.36Z</time></trkpt><trkpt lat="44.550207" lon="4.7792969"><ele>96.66666666666667</ele><time>2026-05-01T14:54:23.36Z</time></trkpt><trkpt lat="44.5502222" lon="4.779037"><ele>96.33333333333334</ele><time>2026-05-01T14:54:24.36Z</time></trkpt><trkpt lat="44.5502301" lon="4.7787938"><ele>96.0</ele><time>2026-05-01T14:54:25.36Z</time></trkpt><trkpt lat="44.550231" lon="4.7785621"><ele>96.33333333333334</ele><time>2026-05-01T14:54:26.36Z</time></trkpt><trkpt lat="44.5502247" lon="4.7783373"><ele>96.66666666666667</ele><time>2026-05-01T14:54:27.36Z</time></trkpt><trkpt lat="44.5502156" lon="4.7781218"><ele>97.0</ele><time>2026-05-01T14:54:28.36Z</time></trkpt><trkpt lat="44.5502077" lon="4.7779156"><ele>97.0</ele><time>2026-05-01T14:54:29.36Z</time></trkpt><trkpt lat="44.5501993" lon="4.7777139"><ele>97.0</ele><time>2026-05-01T14:54:30.361Z</time></trkpt><trkpt lat="44.5501901" lon="4.7775202"><ele>97.0</ele><time>2026-05-01T14:54:31.36Z</time></trkpt><trkpt lat="44.5501805" lon="4.7773321"><ele>97.0</ele><time>2026-05-01T14:54:32.36Z</time></trkpt><trkpt lat="44.5501716" lon="4.7771494"><ele>97.0</ele><time>2026-05-01T14:54:33.362Z</time></trkpt><trkpt lat="44.5501631" lon="4.7769719"><ele>97.0</ele><time>2026-05-01T14:54:34.36Z</time></trkpt><trkpt lat="44.550155" lon="4.7768022"><ele>97.0</ele><time>2026-05-01T14:54:35.36Z</time></trkpt><trkpt lat="44.5501504" lon="4.7766381"><ele>97.0</ele><time>2026-05-01T14:54:36.361Z</time></trkpt><trkpt lat="44.5501469" lon="4.77648"><ele>97.0</ele><time>2026-05-01T14:54:37.361Z</time></trkpt><trkpt lat="44.5501491" lon="4.7763226"><ele>97.0</ele><time>2026-05-01T14:54:38.36Z</time></trkpt><trkpt lat="44.5501532" lon="4.7761833"><ele>97.0</ele><time>2026-05-01T14:54:39.36Z</time></trkpt><trkpt lat="44.5501575" lon="4.7760491"><ele>97.0</ele><time>2026-05-01T14:54:40.36Z</time></trkpt><trkpt lat="44.5501579" lon="4.7759176"><ele>97.0</ele><time>2026-05-01T14:54:41.36Z</time></trkpt><trkpt lat="44.5501559" lon="4.7757948"><ele>97.0</ele><time>2026-05-01T14:54:42.36Z</time></trkpt><trkpt lat="44.5501561" lon="4.7756304"><ele>97.0</ele><time>2026-05-01T14:54:44.36Z</time></trkpt><trkpt lat="44.5501569" lon="4.7754838"><ele>97.0</ele><time>2026-05-01T14:54:46.36Z</time></trkpt><trkpt lat="44.5501534" lon="4.7753163"><ele>97.0</ele><time>2026-05-01T14:54:48.36Z</time></trkpt><trkpt lat="44.550148" lon="4.7752195"><ele>97.0</ele><time>2026-05-01T14:54:49.36Z</time></trkpt><trkpt lat="44.5501428" lon="4.7751118"><ele>96.83333333333334</ele><time>2026-05-01T14:54:50.36Z</time></trkpt><trkpt lat="44.5501402" lon="4.7750055"><ele>96.66666666666667</ele><time>2026-05-01T14:54:51.36Z</time></trkpt><trkpt lat="44.5501479" lon="4.7748995"><ele>96.5</ele><time>2026-05-01T14:54:52.361Z</time></trkpt><trkpt lat="44.5501752" lon="4.7748046"><ele>96.33333333333334</ele><time>2026-05-01T14:54:53.36Z</time></trkpt><trkpt lat="44.5502252" lon="4.7747273"><ele>96.16666666666667</ele><time>2026-05-01T14:54:54.36Z</time></trkpt><trkpt lat="44.5502801" lon="4.7746512"><ele>96.0</ele><time>2026-05-01T14:54:55.36Z</time></trkpt><trkpt lat="44.550313" lon="4.7745582"><ele>96.0</ele><time>2026-05-01T14:54:56.36Z</time></trkpt><trkpt lat="44.5503209" lon="4.774459"><ele>96.0</ele><time>2026-05-01T14:54:57.36Z</time></trkpt><trkpt lat="44.550301" lon="4.774359"><ele>96.0</ele><time>2026-05-01T14:54:58.36Z</time></trkpt><trkpt lat="44.5502572" lon="4.7742636"><ele>96.0</ele><time>2026-05-01T14:54:59.36Z</time></trkpt><trkpt lat="44.5502074" lon="4.7741557"><ele>96.0</ele><time>2026-05-01T14:55:00.36Z</time></trkpt><trkpt lat="44.5501771" lon="4.7740227"><ele>96.0</ele><time>2026-05-01T14:55:01.36Z</time></trkpt><trkpt lat="44.5501676" lon="4.7738735"><ele>95.8</ele><time>2026-05-01T14:55:02.36Z</time></trkpt><trkpt lat="44.5501692" lon="4.7737213"><ele>95.6</ele><time>2026-05-01T14:55:03.36Z</time></trkpt><trkpt lat="44.5501759" lon="4.7735744"><ele>95.4</ele><time>2026-05-01T14:55:04.36Z</time></trkpt><trkpt lat="44.5501838" lon="4.7734182"><ele>95.2</ele><time>2026-05-01T14:55:05.36Z</time></trkpt><trkpt lat="44.5501934" lon="4.7732505"><ele>95.0</ele><time>2026-05-01T14:55:06.36Z</time></trkpt><trkpt lat="44.5502039" lon="4.7730783"><ele>95.0</ele><time>2026-05-01T14:55:07.36Z</time></trkpt><trkpt lat="44.5502177" lon="4.772899"><ele>95.0</ele><time>2026-05-01T14:55:08.36Z</time></trkpt><trkpt lat="44.5502351" lon="4.7727112"><ele>95.0</ele><time>2026-05-01T14:55:09.36Z</time></trkpt><trkpt lat="44.5502544" lon="4.7725148"><ele>95.0</ele><time>2026-05-01T14:55:10.36Z</time></trkpt><trkpt lat="44.5502707" lon="4.7723129"><ele>94.5</ele><time>2026-05-01T14:55:11.36Z</time></trkpt><trkpt lat="44.5502859" lon="4.7721134"><ele>94.0</ele><time>2026-05-01T14:55:12.36Z</time></trkpt><trkpt lat="44.5503052" lon="4.7719181"><ele>93.5</ele><time>2026-05-01T14:55:13.36Z</time></trkpt><trkpt lat="44.5503388" lon="4.7717265"><ele>93.0</ele><time>2026-05-01T14:55:14.36Z</time></trkpt><trkpt lat="44.5503859" lon="4.7715399"><ele>93.0</ele><time>2026-05-01T14:55:15.36Z</time></trkpt><trkpt lat="44.5504358" lon="4.7713626"><ele>93.0</ele><time>2026-05-01T14:55:16.36Z</time></trkpt><trkpt lat="44.5504805" lon="4.7712044"><ele>93.0</ele><time>2026-05-01T14:55:17.36Z</time></trkpt><trkpt lat="44.5505194" lon="4.7710709"><ele>93.0</ele><time>2026-05-01T14:55:18.36Z</time></trkpt><trkpt lat="44.550555" lon="4.7709501"><ele>93.0</ele><time>2026-05-01T14:55:19.36Z</time></trkpt><trkpt lat="44.5505901" lon="4.770835"><ele>93.0</ele><time>2026-05-01T14:55:20.36Z</time></trkpt><trkpt lat="44.5506255" lon="4.7707269"><ele>93.0</ele><time>2026-05-01T14:55:21.36Z</time></trkpt><trkpt lat="44.5506607" lon="4.7706216"><ele>93.0</ele><time>2026-05-01T14:55:22.361Z</time></trkpt><trkpt lat="44.5506927" lon="4.770523"><ele>93.0</ele><time>2026-05-01T14:55:23.36Z</time></trkpt><trkpt lat="44.5507271" lon="4.7704212"><ele>93.0</ele><time>2026-05-01T14:55:24.361Z</time></trkpt><trkpt lat="44.5507656" lon="4.7703113"><ele>93.0</ele><time>2026-05-01T14:55:25.36Z</time></trkpt><trkpt lat="44.5508055" lon="4.7701934"><ele>93.0</ele><time>2026-05-01T14:55:26.36Z</time></trkpt><trkpt lat="44.5508448" lon="4.7700659"><ele>93.0</ele><time>2026-05-01T14:55:27.36Z</time></trkpt><trkpt lat="44.5508858" lon="4.7699334"><ele>93.0</ele><time>2026-05-01T14:55:28.36Z</time></trkpt><trkpt lat="44.550928" lon="4.7697946"><ele>93.0</ele><time>2026-05-01T14:55:29.36Z</time></trkpt><trkpt lat="44.5509776" lon="4.7696604"><ele>92.80000000000001</ele><time>2026-05-01T14:55:30.36Z</time></trkpt><trkpt lat="44.5510264" lon="4.7695298"><ele>92.6</ele><time>2026-05-01T14:55:31.36Z</time></trkpt><trkpt lat="44.5510745" lon="4.7693966"><ele>92.4</ele><time>2026-05-01T14:55:32.36Z</time></trkpt><trkpt lat="44.5511221" lon="4.7692681"><ele>92.19999999999999</ele><time>2026-05-01T14:55:33.36Z</time></trkpt><trkpt lat="44.551164" lon="4.7691474"><ele>92.0</ele><time>2026-05-01T14:55:34.361Z</time></trkpt><trkpt lat="44.5511977" lon="4.7690384"><ele>92.0</ele><time>2026-05-01T14:55:35.36Z</time></trkpt><trkpt lat="44.5512276" lon="4.7689288"><ele>92.0</ele><time>2026-05-01T14:55:36.36Z</time></trkpt><trkpt lat="44.5512582" lon="4.7688261"><ele>92.0</ele><time>2026-05-01T14:55:37.361Z</time></trkpt><trkpt lat="44.5512877" lon="4.768728"><ele>92.0</ele><time>2026-05-01T14:55:38.36Z</time></trkpt><trkpt lat="44.5513173" lon="4.7686291"><ele>92.0</ele><time>2026-05-01T14:55:39.359Z</time></trkpt><trkpt lat="44.5513484" lon="4.7685236"><ele>92.0</ele><time>2026-05-01T14:55:40.359Z</time></trkpt><trkpt lat="44.551383" lon="4.7684132"><ele>91.8</ele><time>2026-05-01T14:55:41.36Z</time></trkpt><trkpt lat="44.5514207" lon="4.7682915"><ele>91.6</ele><time>2026-05-01T14:55:42.359Z</time></trkpt><trkpt lat="44.5514607" lon="4.7681578"><ele>91.39999999999999</ele><time>2026-05-01T14:55:43.359Z</time></trkpt><trkpt lat="44.5514994" lon="4.7680144"><ele>91.19999999999999</ele><time>2026-05-01T14:55:44.359Z</time></trkpt><trkpt lat="44.5515408" lon="4.7678629"><ele>91.0</ele><time>2026-05-01T14:55:45.359Z</time></trkpt><trkpt lat="44.5515848" lon="4.7677009"><ele>90.75</ele><time>2026-05-01T14:55:46.36Z</time></trkpt><trkpt lat="44.5516303" lon="4.7675286"><ele>90.5</ele><time>2026-05-01T14:55:47.359Z</time></trkpt><trkpt lat="44.5516801" lon="4.7673475"><ele>90.25</ele><time>2026-05-01T14:55:48.359Z</time></trkpt><trkpt lat="44.5517337" lon="4.7671633"><ele>90.0</ele><time>2026-05-01T14:55:49.36Z</time></trkpt><trkpt lat="44.5517856" lon="4.7669796"><ele>90.2</ele><time>2026-05-01T14:55:50.359Z</time></trkpt><trkpt lat="44.5518351" lon="4.7668095"><ele>90.4</ele><time>2026-05-01T14:55:51.359Z</time></trkpt><trkpt lat="44.5518781" lon="4.7666706"><ele>90.6</ele><time>2026-05-01T14:55:52.359Z</time></trkpt><trkpt lat="44.5519128" lon="4.766555"><ele>90.8</ele><time>2026-05-01T14:55:53.359Z</time></trkpt><trkpt lat="44.5519468" lon="4.7664526"><ele>91.0</ele><time>2026-05-01T14:55:54.36Z</time></trkpt><trkpt lat="44.5519788" lon="4.7663526"><ele>91.0</ele><time>2026-05-01T14:55:55.36Z</time></trkpt><trkpt lat="44.5520083" lon="4.7662563"><ele>91.0</ele><time>2026-05-01T14:55:56.359Z</time></trkpt><trkpt lat="44.5520363" lon="4.7661575"><ele>91.0</ele><time>2026-05-01T14:55:57.359Z</time></trkpt><trkpt lat="44.5520658" lon="4.7660424"><ele>91.0</ele><time>2026-05-01T14:55:58.359Z</time></trkpt><trkpt lat="44.5521044" lon="4.7659195"><ele>91.0</ele><time>2026-05-01T14:55:59.359Z</time></trkpt><trkpt lat="44.5521457" lon="4.7657787"><ele>91.0</ele><time>2026-05-01T14:56:00.361Z</time></trkpt><trkpt lat="44.5521923" lon="4.7656284"><ele>91.0</ele><time>2026-05-01T14:56:01.36Z</time></trkpt><trkpt lat="44.5522424" lon="4.7654752"><ele>91.0</ele><time>2026-05-01T14:56:02.359Z</time></trkpt><trkpt lat="44.5522937" lon="4.7653156"><ele>91.0</ele><time>2026-05-01T14:56:03.361Z</time></trkpt><trkpt lat="44.5523415" lon="4.7651522"><ele>91.0</ele><time>2026-05-01T14:56:04.359Z</time></trkpt><trkpt lat="44.5523903" lon="4.7649855"><ele>91.25</ele><time>2026-05-01T14:56:05.359Z</time></trkpt><trkpt lat="44.5524403" lon="4.7648207"><ele>91.5</ele><time>2026-05-01T14:56:06.36Z</time></trkpt><trkpt lat="44.5524895" lon="4.7646547"><ele>91.75</ele><time>2026-05-01T14:56:07.359Z</time></trkpt><trkpt lat="44.5525377" lon="4.7644902"><ele>92.0</ele><time>2026-05-01T14:56:08.359Z</time></trkpt><trkpt lat="44.5525841" lon="4.7643387"><ele>92.0</ele><time>2026-05-01T14:56:09.36Z</time></trkpt><trkpt lat="44.5526239" lon="4.7641977"><ele>92.0</ele><time>2026-05-01T14:56:10.359Z</time></trkpt><trkpt lat="44.5526615" lon="4.7640707"><ele>92.0</ele><time>2026-05-01T14:56:11.359Z</time></trkpt><trkpt lat="44.5526962" lon="4.7639503"><ele>92.0</ele><time>2026-05-01T14:56:12.359Z</time></trkpt><trkpt lat="44.5527316" lon="4.7638341"><ele>92.0</ele><time>2026-05-01T14:56:13.359Z</time></trkpt><trkpt lat="44.5527673" lon="4.7637173"><ele>92.0</ele><time>2026-05-01T14:56:14.359Z</time></trkpt><trkpt lat="44.5528036" lon="4.763603"><ele>92.0</ele><time>2026-05-01T14:56:15.359Z</time></trkpt><trkpt lat="44.5528409" lon="4.7634894"><ele>92.0</ele><time>2026-05-01T14:56:16.361Z</time></trkpt><trkpt lat="44.5528776" lon="4.7633802"><ele>92.0</ele><time>2026-05-01T14:56:17.359Z</time></trkpt><trkpt lat="44.5529108" lon="4.7632791"><ele>92.0</ele><time>2026-05-01T14:56:18.359Z</time></trkpt><trkpt lat="44.5529425" lon="4.7631787"><ele>92.0</ele><time>2026-05-01T14:56:19.36Z</time></trkpt><trkpt lat="44.5529737" lon="4.7630815"><ele>91.8</ele><time>2026-05-01T14:56:20.359Z</time></trkpt><trkpt lat="44.5530055" lon="4.7629805"><ele>91.6</ele><time>2026-05-01T14:56:21.359Z</time></trkpt><trkpt lat="44.5530381" lon="4.7628711"><ele>91.39999999999999</ele><time>2026-05-01T14:56:22.359Z</time></trkpt><trkpt lat="44.5530754" lon="4.7627508"><ele>91.19999999999999</ele><time>2026-05-01T14:56:23.359Z</time></trkpt><trkpt lat="44.5531136" lon="4.762624"><ele>91.0</ele><time>2026-05-01T14:56:24.359Z</time></trkpt><trkpt lat="44.5531558" lon="4.762491"><ele>90.75</ele><time>2026-05-01T14:56:25.359Z</time></trkpt><trkpt lat="44.5532012" lon="4.7623509"><ele>90.5</ele><time>2026-05-01T14:56:26.359Z</time></trkpt><trkpt lat="44.553248" lon="4.7622073"><ele>90.25</ele><time>2026-05-01T14:56:27.359Z</time></trkpt><trkpt lat="44.5532979" lon="4.7620616"><ele>90.0</ele><time>2026-05-01T14:56:28.359Z</time></trkpt><trkpt lat="44.553354" lon="4.7619212"><ele>90.0</ele><time>2026-05-01T14:56:29.359Z</time></trkpt><trkpt lat="44.5534174" lon="4.7617943"><ele>90.0</ele><time>2026-05-01T14:56:30.36Z</time></trkpt><trkpt lat="44.5534868" lon="4.7616748"><ele>90.0</ele><time>2026-05-01T14:56:31.359Z</time></trkpt><trkpt lat="44.5535523" lon="4.7615472"><ele>90.0</ele><time>2026-05-01T14:56:32.359Z</time></trkpt><trkpt lat="44.5536164" lon="4.7614241"><ele>90.0</ele><time>2026-05-01T14:56:33.359Z</time></trkpt><trkpt lat="44.5536762" lon="4.7613056"><ele>90.16666666666667</ele><time>2026-05-01T14:56:34.359Z</time></trkpt><trkpt lat="44.5537303" lon="4.7612014"><ele>90.33333333333333</ele><time>2026-05-01T14:56:35.36Z</time></trkpt><trkpt lat="44.553781" lon="4.7611023"><ele>90.5</ele><time>2026-05-01T14:56:36.359Z</time></trkpt><trkpt lat="44.5538322" lon="4.7610038"><ele>90.66666666666666</ele><time>2026-05-01T14:56:37.36Z</time></trkpt><trkpt lat="44.5538793" lon="4.76091"><ele>90.83333333333333</ele><time>2026-05-01T14:56:38.359Z</time></trkpt><trkpt lat="44.5539305" lon="4.760812"><ele>91.0</ele><time>2026-05-01T14:56:39.359Z</time></trkpt><trkpt lat="44.5539849" lon="4.7607125"><ele>91.0</ele><time>2026-05-01T14:56:40.359Z</time></trkpt><trkpt lat="44.5540432" lon="4.760604"><ele>91.0</ele><time>2026-05-01T14:56:41.359Z</time></trkpt><trkpt lat="44.5541075" lon="4.7604829"><ele>91.0</ele><time>2026-05-01T14:56:42.359Z</time></trkpt><trkpt lat="44.5541744" lon="4.7603569"><ele>91.0</ele><time>2026-05-01T14:56:43.359Z</time></trkpt><trkpt lat="44.5542436" lon="4.7602216"><ele>91.0</ele><time>2026-05-01T14:56:44.359Z</time></trkpt><trkpt lat="44.554314" lon="4.7600875"><ele>91.19999999999999</ele><time>2026-05-01T14:56:45.359Z</time></trkpt><trkpt lat="44.5543801" lon="4.7599572"><ele>91.39999999999999</ele><time>2026-05-01T14:56:46.359Z</time></trkpt><trkpt lat="44.5544442" lon="4.7598349"><ele>91.6</ele><time>2026-05-01T14:56:47.359Z</time></trkpt><trkpt lat="44.5545021" lon="4.7597224"><ele>91.8</ele><time>2026-05-01T14:56:48.359Z</time></trkpt><trkpt lat="44.5545541" lon="4.7596198"><ele>92.0</ele><time>2026-05-01T14:56:49.359Z</time></trkpt><trkpt lat="44.5546021" lon="4.7595216"><ele>91.5</ele><time>2026-05-01T14:56:50.359Z</time></trkpt><trkpt lat="44.554653" lon="4.759431"><ele>91.0</ele><time>2026-05-01T14:56:51.359Z</time></trkpt><trkpt lat="44.5547085" lon="4.7593445"><ele>90.5</ele><time>2026-05-01T14:56:52.359Z</time></trkpt><trkpt lat="44.5547626" lon="4.759265"><ele>90.0</ele><time>2026-05-01T14:56:53.359Z</time></trkpt><trkpt lat="44.5548369" lon="4.7591595"><ele>89.5</ele><time>2026-05-01T14:56:55.359Z</time></trkpt><trkpt lat="44.5548906" lon="4.759082"><ele>89.0</ele><time>2026-05-01T14:56:57.359Z</time></trkpt><trkpt lat="44.5549634" lon="4.7590138"><ele>88.83333333333334</ele><time>2026-05-01T14:56:59.36Z</time></trkpt><trkpt lat="44.5550913" lon="4.758971"><ele>88.66666666666667</ele><time>2026-05-01T14:57:01.359Z</time></trkpt><trkpt lat="44.5551522" lon="4.7589349"><ele>88.5</ele><time>2026-05-01T14:57:02.359Z</time></trkpt><trkpt lat="44.555194" lon="4.7588679"><ele>88.33333333333333</ele><time>2026-05-01T14:57:03.359Z</time></trkpt><trkpt lat="44.5552127" lon="4.7587826"><ele>88.16666666666666</ele><time>2026-05-01T14:57:04.359Z</time></trkpt><trkpt lat="44.5552079" lon="4.7586754"><ele>88.0</ele><time>2026-05-01T14:57:05.359Z</time></trkpt><trkpt lat="44.5551976" lon="4.7585609"><ele>88.0</ele><time>2026-05-01T14:57:06.359Z</time></trkpt><trkpt lat="44.5552134" lon="4.7584449"><ele>88.0</ele><time>2026-05-01T14:57:07.359Z</time></trkpt><trkpt lat="44.5552493" lon="4.758323"><ele>88.0</ele><time>2026-05-01T14:57:08.359Z</time></trkpt><trkpt lat="44.5552959" lon="4.7581946"><ele>88.0</ele><time>2026-05-01T14:57:09.36Z</time></trkpt><trkpt lat="44.5553602" lon="4.758062"><ele>88.0</ele><time>2026-05-01T14:57:10.36Z</time></trkpt><trkpt lat="44.5554266" lon="4.7579394"><ele>88.0</ele><time>2026-05-01T14:57:11.359Z</time></trkpt><trkpt lat="44.5554857" lon="4.7578266"><ele>88.0</ele><time>2026-05-01T14:57:12.359Z</time></trkpt><trkpt lat="44.5555395" lon="4.7577186"><ele>88.0</ele><time>2026-05-01T14:57:13.359Z</time></trkpt><trkpt lat="44.5555916" lon="4.7576145"><ele>88.0</ele><time>2026-05-01T14:57:14.36Z</time></trkpt><trkpt lat="44.555644" lon="4.7575123"><ele>88.0</ele><time>2026-05-01T14:57:15.359Z</time></trkpt><trkpt lat="44.5556962" lon="4.7574159"><ele>88.16666666666666</ele><time>2026-05-01T14:57:16.36Z</time></trkpt><trkpt lat="44.5557474" lon="4.7573217"><ele>88.33333333333333</ele><time>2026-05-01T14:57:17.359Z</time></trkpt><trkpt lat="44.5557992" lon="4.7572274"><ele>88.5</ele><time>2026-05-01T14:57:18.359Z</time></trkpt><trkpt lat="44.5558505" lon="4.7571309"><ele>88.66666666666667</ele><time>2026-05-01T14:57:19.359Z</time></trkpt><trkpt lat="44.5558999" lon="4.7570324"><ele>88.83333333333334</ele><time>2026-05-01T14:57:20.36Z</time></trkpt><trkpt lat="44.555951" lon="4.7569342"><ele>89.0</ele><time>2026-05-01T14:57:21.359Z</time></trkpt><trkpt lat="44.5560024" lon="4.7568351"><ele>89.0</ele><time>2026-05-01T14:57:22.36Z</time></trkpt><trkpt lat="44.5560534" lon="4.7567348"><ele>89.0</ele><time>2026-05-01T14:57:23.359Z</time></trkpt><trkpt lat="44.5561041" lon="4.756638"><ele>89.0</ele><time>2026-05-01T14:57:24.359Z</time></trkpt><trkpt lat="44.5561492" lon="4.7565512"><ele>89.0</ele><time>2026-05-01T14:57:25.359Z</time></trkpt><trkpt lat="44.5561908" lon="4.756476"><ele>89.0</ele><time>2026-05-01T14:57:26.359Z</time></trkpt><trkpt lat="44.556265" lon="4.7563447"><ele>89.0</ele><time>2026-05-01T14:57:28.36Z</time></trkpt><trkpt lat="44.5563307" lon="4.7562127"><ele>88.83333333333334</ele><time>2026-05-01T14:57:30.359Z</time></trkpt><trkpt lat="44.5563999" lon="4.7560739"><ele>88.66666666666667</ele><time>2026-05-01T14:57:32.359Z</time></trkpt><trkpt lat="44.5564732" lon="4.7559356"><ele>88.5</ele><time>2026-05-01T14:57:34.359Z</time></trkpt><trkpt lat="44.556514" lon="4.7558569"><ele>88.33333333333333</ele><time>2026-05-01T14:57:35.359Z</time></trkpt><trkpt lat="44.5565547" lon="4.7557844"><ele>88.16666666666666</ele><time>2026-05-01T14:57:36.359Z</time></trkpt><trkpt lat="44.5565937" lon="4.7557117"><ele>88.0</ele><time>2026-05-01T14:57:37.36Z</time></trkpt><trkpt lat="44.5566657" lon="4.7555714"><ele>88.0</ele><time>2026-05-01T14:57:39.359Z</time></trkpt><trkpt lat="44.5567336" lon="4.7554316"><ele>88.0</ele><time>2026-05-01T14:57:41.36Z</time></trkpt><trkpt lat="44.5568174" lon="4.755289"><ele>88.0</ele><time>2026-05-01T14:57:43.359Z</time></trkpt><trkpt lat="44.5568592" lon="4.7552017"><ele>88.0</ele><time>2026-05-01T14:57:44.36Z</time></trkpt><trkpt lat="44.5569047" lon="4.755109"><ele>88.0</ele><time>2026-05-01T14:57:45.36Z</time></trkpt><trkpt lat="44.5569512" lon="4.7550167"><ele>87.83333333333333</ele><time>2026-05-01T14:57:46.359Z</time></trkpt><trkpt lat="44.556996" lon="4.754935"><ele>87.66666666666666</ele><time>2026-05-01T14:57:47.359Z</time></trkpt><trkpt lat="44.5570393" lon="4.754858"><ele>87.5</ele><time>2026-05-01T14:57:48.36Z</time></trkpt><trkpt lat="44.5571019" lon="4.754733"><ele>87.33333333333333</ele><time>2026-05-01T14:57:50.36Z</time></trkpt><trkpt lat="44.5571388" lon="4.7546534"><ele>87.16666666666667</ele><time>2026-05-01T14:57:52.36Z</time></trkpt><trkpt lat="44.5571846" lon="4.7545672"><ele>87.0</ele><time>2026-05-01T14:57:54.359Z</time></trkpt><trkpt lat="44.5572489" lon="4.7544563"><ele>87.0</ele><time>2026-05-01T14:57:56.359Z</time></trkpt><trkpt lat="44.5573202" lon="4.7543482"><ele>87.0</ele><time>2026-05-01T14:57:58.359Z</time></trkpt><trkpt lat="44.5574322" lon="4.7543509"><ele>87.0</ele><time>2026-05-01T14:58:00.359Z</time></trkpt><trkpt lat="44.557501" lon="4.7544029"><ele>87.0</ele><time>2026-05-01T14:58:01.36Z</time></trkpt><trkpt lat="44.5575683" lon="4.7544645"><ele>87.0</ele><time>2026-05-01T14:58:02.359Z</time></trkpt><trkpt lat="44.5576222" lon="4.7545202"><ele>87.0</ele><time>2026-05-01T14:58:03.359Z</time></trkpt><trkpt lat="44.557709" lon="4.75462"><ele>86.6</ele><time>2026-05-01T14:58:05.359Z</time></trkpt><trkpt lat="44.5577908" lon="4.7546624"><ele>86.19999999999999</ele><time>2026-05-01T14:58:07.359Z</time></trkpt><trkpt lat="44.5578539" lon="4.7546047"><ele>85.8</ele><time>2026-05-01T14:58:09.359Z</time></trkpt><trkpt lat="44.5578586" lon="4.7544745"><ele>85.4</ele><time>2026-05-01T14:58:11.359Z</time></trkpt><trkpt lat="44.5578955" lon="4.75431"><ele>85.0</ele><time>2026-05-01T14:58:13.359Z</time></trkpt><trkpt lat="44.5579421" lon="4.7542333"><ele>87.2</ele><time>2026-05-01T14:58:14.36Z</time></trkpt><trkpt lat="44.5579893" lon="4.7541555"><ele>89.4</ele><time>2026-05-01T14:58:15.359Z</time></trkpt><trkpt lat="44.5580299" lon="4.7540863"><ele>91.6</ele><time>2026-05-01T14:58:16.359Z</time></trkpt><trkpt lat="44.5580918" lon="4.7539818"><ele>93.8</ele><time>2026-05-01T14:58:18.359Z</time></trkpt><trkpt lat="44.5581631" lon="4.7538757"><ele>96.0</ele><time>2026-05-01T14:58:20.36Z</time></trkpt><trkpt lat="44.5582454" lon="4.7537668"><ele>96.0</ele><time>2026-05-01T14:58:22.36Z</time></trkpt><trkpt lat="44.5583392" lon="4.7536756"><ele>96.0</ele><time>2026-05-01T14:58:24.359Z</time></trkpt><trkpt lat="44.5584327" lon="4.7535745"><ele>96.0</ele><time>2026-05-01T14:58:26.359Z</time></trkpt><trkpt lat="44.5584892" lon="4.7535166"><ele>96.0</ele><time>2026-05-01T14:58:27.36Z</time></trkpt><trkpt lat="44.5585554" lon="4.7534586"><ele>96.0</ele><time>2026-05-01T14:58:28.359Z</time></trkpt><trkpt lat="44.5586313" lon="4.7534003"><ele>97.0</ele><time>2026-05-01T14:58:29.36Z</time></trkpt><trkpt lat="44.5587096" lon="4.7533429"><ele>98.0</ele><time>2026-05-01T14:58:30.359Z</time></trkpt><trkpt lat="44.5587848" lon="4.7532952"><ele>99.0</ele><time>2026-05-01T14:58:31.359Z</time></trkpt><trkpt lat="44.558857" lon="4.7532614"><ele>100.0</ele><time>2026-05-01T14:58:32.359Z</time></trkpt><trkpt lat="44.5589724" lon="4.7532158"><ele>101.0</ele><time>2026-05-01T14:58:34.359Z</time></trkpt><trkpt lat="44.5590914" lon="4.7531944"><ele>100.99999999999999</ele><time>2026-05-01T14:58:36.359Z</time></trkpt><trkpt lat="44.5591536" lon="4.753179"><ele>101.0</ele><time>2026-05-01T14:58:37.359Z</time></trkpt><trkpt lat="44.5592186" lon="4.7531687"><ele>101.0</ele><time>2026-05-01T14:58:38.359Z</time></trkpt><trkpt lat="44.5592848" lon="4.7531726"><ele>101.0</ele><time>2026-05-01T14:58:39.359Z</time></trkpt><trkpt lat="44.5593478" lon="4.7531914"><ele>100.99999999999999</ele><time>2026-05-01T14:58:40.359Z</time></trkpt><trkpt lat="44.5594619" lon="4.7532238"><ele>101.0</ele><time>2026-05-01T14:58:42.359Z</time></trkpt><trkpt lat="44.5595625" lon="4.7532523"><ele>101.19999999999999</ele><time>2026-05-01T14:58:44.359Z</time></trkpt><trkpt lat="44.5596771" lon="4.7532771"><ele>101.39999999999999</ele><time>2026-05-01T14:58:46.359Z</time></trkpt><trkpt lat="44.5597799" lon="4.7532884"><ele>101.6</ele><time>2026-05-01T14:58:48.359Z</time></trkpt><trkpt lat="44.5598907" lon="4.7532828"><ele>101.8</ele><time>2026-05-01T14:58:50.359Z</time></trkpt><trkpt lat="44.5600056" lon="4.753271"><ele>102.0</ele><time>2026-05-01T14:58:52.359Z</time></trkpt><trkpt lat="44.5601042" lon="4.7532617"><ele>102.0</ele><time>2026-05-01T14:58:54.359Z</time></trkpt><trkpt lat="44.5601974" lon="4.7532468"><ele>102.0</ele><time>2026-05-01T14:58:56.359Z</time></trkpt><trkpt lat="44.5602916" lon="4.7532317"><ele>102.0</ele><time>2026-05-01T14:58:58.359Z</time></trkpt><trkpt lat="44.5603892" lon="4.7532089"><ele>102.0</ele><time>2026-05-01T14:59:00.359Z</time></trkpt><trkpt lat="44.560486" lon="4.7532005"><ele>102.0</ele><time>2026-05-01T14:59:02.359Z</time></trkpt><trkpt lat="44.5605822" lon="4.753194"><ele>101.5</ele><time>2026-05-01T14:59:04.359Z</time></trkpt><trkpt lat="44.5606699" lon="4.7531812"><ele>101.0</ele><time>2026-05-01T14:59:06.359Z</time></trkpt><trkpt lat="44.5607564" lon="4.7531695"><ele>100.5</ele><time>2026-05-01T14:59:08.359Z</time></trkpt><trkpt lat="44.5608343" lon="4.7531366"><ele>100.0</ele><time>2026-05-01T14:59:10.36Z</time></trkpt><trkpt lat="44.5609034" lon="4.753061"><ele>99.5</ele><time>2026-05-01T14:59:13.359Z</time></trkpt><trkpt lat="44.5609725" lon="4.7529811"><ele>99.0</ele><time>2026-05-01T14:59:16.359Z</time></trkpt><trkpt lat="44.5610411" lon="4.7528861"><ele>99.0</ele><time>2026-05-01T14:59:18.359Z</time></trkpt><trkpt lat="44.5610686" lon="4.7527424"><ele>99.0</ele><time>2026-05-01T14:59:20.36Z</time></trkpt><trkpt lat="44.5610558" lon="4.7525909"><ele>99.0</ele><time>2026-05-01T14:59:22.359Z</time></trkpt><trkpt lat="44.5610887" lon="4.7524242"><ele>99.0</ele><time>2026-05-01T14:59:24.359Z</time></trkpt><trkpt lat="44.5611133" lon="4.7523417"><ele>99.0</ele><time>2026-05-01T14:59:25.359Z</time></trkpt><trkpt lat="44.5611613" lon="4.7521896"><ele>98.16666666666667</ele><time>2026-05-01T14:59:27.359Z</time></trkpt><trkpt lat="44.5611946" lon="4.7520519"><ele>97.33333333333333</ele><time>2026-05-01T14:59:29.359Z</time></trkpt><trkpt lat="44.5612212" lon="4.7519501"><ele>96.5</ele><time>2026-05-01T14:59:31.359Z</time></trkpt><trkpt lat="44.5612492" lon="4.7518533"><ele>95.66666666666666</ele><time>2026-05-01T14:59:33.359Z</time></trkpt><trkpt lat="44.5612806" lon="4.7517543"><ele>94.83333333333333</ele><time>2026-05-01T14:59:35.359Z</time></trkpt><trkpt lat="44.5613142" lon="4.7516328"><ele>94.0</ele><time>2026-05-01T14:59:37.359Z</time></trkpt><trkpt lat="44.5613459" lon="4.7514937"><ele>92.2</ele><time>2026-05-01T14:59:39.359Z</time></trkpt><trkpt lat="44.5613785" lon="4.7513815"><ele>90.4</ele><time>2026-05-01T14:59:41.359Z</time></trkpt><trkpt lat="44.5614305" lon="4.7512612"><ele>88.6</ele><time>2026-05-01T14:59:43.36Z</time></trkpt><trkpt lat="44.5614669" lon="4.751126"><ele>86.8</ele><time>2026-05-01T14:59:45.359Z</time></trkpt><trkpt lat="44.5614747" lon="4.7510066"><ele>85.0</ele><time>2026-05-01T14:59:47.359Z</time></trkpt><trkpt lat="44.5614834" lon="4.7508905"><ele>84.66666666666666</ele><time>2026-05-01T14:59:49.359Z</time></trkpt><trkpt lat="44.5614893" lon="4.7507665"><ele>84.33333333333333</ele><time>2026-05-01T14:59:51.359Z</time></trkpt><trkpt lat="44.5614882" lon="4.750649"><ele>84.0</ele><time>2026-05-01T14:59:53.359Z</time></trkpt><trkpt lat="44.5614803" lon="4.7505444"><ele>83.66666666666667</ele><time>2026-05-01T14:59:55.359Z</time></trkpt><trkpt lat="44.5614762" lon="4.7504299"><ele>83.33333333333334</ele><time>2026-05-01T14:59:58.359Z</time></trkpt><trkpt lat="44.5614601" lon="4.750322"><ele>83.0</ele><time>2026-05-01T15:00:01.36Z</time></trkpt><trkpt lat="44.5614412" lon="4.7502281"><ele>82.85714285714285</ele><time>2026-05-01T15:00:04.359Z</time></trkpt><trkpt lat="44.5614174" lon="4.7501325"><ele>82.71428571428572</ele><time>2026-05-01T15:00:06.36Z</time></trkpt><trkpt lat="44.5614224" lon="4.750036"><ele>82.57142857142857</ele><time>2026-05-01T15:00:08.359Z</time></trkpt><trkpt lat="44.5614765" lon="4.7499525"><ele>82.42857142857142</ele><time>2026-05-01T15:00:11.359Z</time></trkpt><trkpt lat="44.5615558" lon="4.7498978"><ele>82.28571428571428</ele><time>2026-05-01T15:00:14.36Z</time></trkpt><trkpt lat="44.5616151" lon="4.7498651"><ele>82.14285714285714</ele><time>2026-05-01T15:00:17.359Z</time></trkpt><trkpt lat="44.5616904" lon="4.7498548"><ele>82.0</ele><time>2026-05-01T15:00:20.359Z</time></trkpt><trkpt lat="44.5617639" lon="4.7499104"><ele>81.99999999999999</ele><time>2026-05-01T15:00:23.359Z</time></trkpt><trkpt lat="44.5617983" lon="4.7500064"><ele>82.0</ele><time>2026-05-01T15:00:26.359Z</time></trkpt><trkpt lat="44.5618353" lon="4.7500828"><ele>82.0</ele><time>2026-05-01T15:00:29.359Z</time></trkpt><trkpt lat="44.5618757" lon="4.7501662"><ele>82.0</ele><time>2026-05-01T15:00:33.36Z</time></trkpt><trkpt lat="44.5619004" lon="4.7502657"><ele>82.0</ele><time>2026-05-01T15:00:36.359Z</time></trkpt><trkpt lat="44.5619152" lon="4.7503696"><ele>81.99999999999999</ele><time>2026-05-01T15:00:39.359Z</time></trkpt><trkpt lat="44.5619054" lon="4.7504792"><ele>82.0</ele><time>2026-05-01T15:00:42.359Z</time></trkpt><trkpt lat="44.5619015" lon="4.7505875"><ele>82.14285714285714</ele><time>2026-05-01T15:00:45.359Z</time></trkpt><trkpt lat="44.5619423" lon="4.7506551"><ele>82.28571428571428</ele><time>2026-05-01T15:00:47.359Z</time></trkpt><trkpt lat="44.5620022" lon="4.750711"><ele>82.42857142857142</ele><time>2026-05-01T15:00:49.359Z</time></trkpt><trkpt lat="44.5620614" lon="4.7507483"><ele>82.57142857142857</ele><time>2026-05-01T15:00:51.358Z</time></trkpt><trkpt lat="44.5621266" lon="4.7507301"><ele>82.71428571428572</ele><time>2026-05-01T15:00:58.358Z</time></trkpt><trkpt lat="44.5621578" lon="4.7506506"><ele>82.85714285714285</ele><time>2026-05-01T15:01:02.359Z</time></trkpt><trkpt lat="44.5621454" lon="4.7507432"><ele>83.0</ele><time>2026-05-01T15:08:04.358Z</time></trkpt><trkpt lat="44.5621968" lon="4.7508028"><ele>82.71428571428571</ele><time>2026-05-01T15:08:10.358Z</time></trkpt><trkpt lat="44.5622602" lon="4.7508394"><ele>82.42857142857143</ele><time>2026-05-01T15:08:16.358Z</time></trkpt><trkpt lat="44.562319" lon="4.7508716"><ele>82.14285714285714</ele><time>2026-05-01T15:08:23.358Z</time></trkpt><trkpt lat="44.562377" lon="4.7509197"><ele>81.85714285714286</ele><time>2026-05-01T15:27:24.354Z</time></trkpt><trkpt lat="44.5624439" lon="4.7509066"><ele>81.57142857142857</ele><time>2026-05-01T15:27:43.081Z</time></trkpt><trkpt lat="44.5624138" lon="4.7508251"><ele>81.28571428571429</ele><time>2026-05-01T15:28:20.361Z</time></trkpt><trkpt lat="44.5623645" lon="4.7508971"><ele>81.0</ele><time>2026-05-01T15:32:01.353Z</time></trkpt><trkpt lat="44.5624263" lon="4.7509192"><ele>81.0</ele><time>2026-05-01T15:37:47.322Z</time></trkpt><trkpt lat="44.5624318" lon="4.7508212"><ele>81.0</ele><time>2026-05-01T15:38:01.285Z</time></trkpt><trkpt lat="44.5624482" lon="4.7509099"><ele>81.0</ele><time>2026-05-01T15:38:36.347Z</time></trkpt><trkpt lat="44.5623787" lon="4.7508803"><ele>81.0</ele><time>2026-05-01T15:38:46.246Z</time></trkpt><trkpt lat="44.5623232" lon="4.7508373"><ele>81.0</ele><time>2026-05-01T15:38:50.353Z</time></trkpt><trkpt lat="44.5622656" lon="4.7507987"><ele>81.0</ele><time>2026-05-01T15:38:56.352Z</time></trkpt><trkpt lat="44.5622015" lon="4.7507538"><ele>81.0</ele><time>2026-05-01T15:39:01.352Z</time></trkpt><trkpt lat="44.5622667" lon="4.7507645"><ele>81.0</ele><time>2026-05-01T15:39:39.352Z</time></trkpt><trkpt lat="44.562332" lon="4.7508071"><ele>81.0</ele><time>2026-05-01T15:39:44.346Z</time></trkpt><trkpt lat="44.5623986" lon="4.7507711"><ele>81.0</ele><time>2026-05-01T15:39:54.353Z</time></trkpt><trkpt lat="44.562316" lon="4.7507589"><ele>81.0</ele><time>2026-05-01T15:40:35.352Z</time></trkpt><trkpt lat="44.5623519" lon="4.7508435"><ele>81.0</ele><time>2026-05-01T15:41:13.352Z</time></trkpt><trkpt lat="44.5624095" lon="4.7508874"><ele>81.0</ele><time>2026-05-01T15:44:53.352Z</time></trkpt><trkpt lat="44.562357" lon="4.7508227"><ele>81.0</ele><time>2026-05-01T15:54:20.35Z</time></trkpt><trkpt lat="44.5623413" lon="4.7507364"><ele>81.0</ele><time>2026-05-01T20:32:43.318Z</time></trkpt><trkpt lat="44.562301" lon="4.7508057"><ele>81.0</ele><time>2026-05-01T21:04:17.316Z</time></trkpt><trkpt lat="44.562318" lon="4.7508908"><ele>81.0</ele><time>2026-05-01T21:04:55.316Z</time></trkpt><trkpt lat="44.5623872" lon="4.750943"><ele>81.0</ele><time>2026-05-01T21:05:08.316Z</time></trkpt><trkpt lat="44.5624017" lon="4.7510355"><ele>81.0</ele><time>2026-05-01T21:05:31.316Z</time></trkpt><trkpt lat="44.5624031" lon="4.7509398"><ele>81.0</ele><time>2026-05-01T21:14:01.314Z</time></trkpt><trkpt lat="44.5624002" lon="4.7510328"><ele>81.0</ele><time>2026-05-01T21:14:59.315Z</time></trkpt><trkpt lat="44.5624143" lon="4.7509397"><ele>81.0</ele><time>2026-05-01T21:26:16.312Z</time></trkpt></trkseg><trkseg><trkpt lat="44.5624661" lon="4.750915"><ele>81.0</ele><time>2026-05-02T07:07:42.001Z</time></trkpt><trkpt lat="44.5624033" lon="4.7509057"><ele>81.0</ele><time>2026-05-02T07:13:05.031Z</time></trkpt><trkpt lat="44.5623381" lon="4.7508649"><ele>81.0</ele><time>2026-05-02T07:14:08.951Z</time></trkpt><trkpt lat="44.5623935" lon="4.7509099"><ele>81.0</ele><time>2026-05-02T07:14:32.999Z</time></trkpt><trkpt lat="44.5623669" lon="4.7508297"><ele>81.0</ele><time>2026-05-02T07:17:55.972Z</time></trkpt><trkpt lat="44.5623307" lon="4.7507461"><ele>81.0</ele><time>2026-05-02T07:18:11.001Z</time></trkpt><trkpt lat="44.5622884" lon="4.7506742"><ele>81.0</ele><time>2026-05-02T07:18:18Z</time></trkpt><trkpt lat="44.562219" lon="4.7506736"><ele>81.0</ele><time>2026-05-02T07:18:23Z</time></trkpt><trkpt lat="44.5621519" lon="4.7506352"><ele>81.0</ele><time>2026-05-02T07:18:27.958Z</time></trkpt><trkpt lat="44.5621862" lon="4.7507198"><ele>81.0</ele><time>2026-05-02T07:18:50Z</time></trkpt><trkpt lat="44.5622306" lon="4.7507845"><ele>81.0</ele><time>2026-05-02T07:18:56Z</time></trkpt><trkpt lat="44.562289" lon="4.7508418"><ele>81.0</ele><time>2026-05-02T07:19:02.009Z</time></trkpt><trkpt lat="44.5623414" lon="4.7509021"><ele>81.0</ele><time>2026-05-02T07:19:06.961Z</time></trkpt><trkpt lat="44.5624064" lon="4.7509058"><ele>81.0</ele><time>2026-05-02T07:19:12.002Z</time></trkpt><trkpt lat="44.5623432" lon="4.7508769"><ele>81.0</ele><time>2026-05-02T07:23:45.677Z</time></trkpt><trkpt lat="44.5623396" lon="4.7507672"><ele>81.0</ele><time>2026-05-02T07:23:51.999Z</time></trkpt><trkpt lat="44.5622789" lon="4.7507308"><ele>81.0</ele><time>2026-05-02T07:23:57.999Z</time></trkpt><trkpt lat="44.5622089" lon="4.7506781"><ele>81.0</ele><time>2026-05-02T07:24:02.999Z</time></trkpt><trkpt lat="44.5621466" lon="4.7507138"><ele>81.0</ele><time>2026-05-02T07:28:43.998Z</time></trkpt><trkpt lat="44.5620744" lon="4.7507423"><ele>81.0</ele><time>2026-05-02T07:28:47.998Z</time></trkpt><trkpt lat="44.5620064" lon="4.7507283"><ele>81.0</ele><time>2026-05-02T07:28:49.998Z</time></trkpt><trkpt lat="44.5619467" lon="4.7506207"><ele>81.16666666666667</ele><time>2026-05-02T07:28:51.998Z</time></trkpt><trkpt lat="44.5619179" lon="4.7504706"><ele>81.33333333333333</ele><time>2026-05-02T07:28:53.998Z</time></trkpt><trkpt lat="44.5619206" lon="4.7503803"><ele>81.5</ele><time>2026-05-02T07:28:54.998Z</time></trkpt><trkpt lat="44.5619209" lon="4.7502851"><ele>81.66666666666666</ele><time>2026-05-02T07:28:55.998Z</time></trkpt><trkpt lat="44.5619004" lon="4.7501796"><ele>81.83333333333333</ele><time>2026-05-02T07:28:56.998Z</time></trkpt><trkpt lat="44.5618681" lon="4.7500811"><ele>82.0</ele><time>2026-05-02T07:28:57.999Z</time></trkpt><trkpt lat="44.5618309" lon="4.749997"><ele>82.0</ele><time>2026-05-02T07:28:58.998Z</time></trkpt><trkpt lat="44.5617676" lon="4.7499071"><ele>82.0</ele><time>2026-05-02T07:29:00.997Z</time></trkpt><trkpt lat="44.5617056" lon="4.7498852"><ele>82.0</ele><time>2026-05-02T07:29:08.998Z</time></trkpt><trkpt lat="44.561632" lon="4.7498895"><ele>82.0</ele><time>2026-05-02T07:29:11.998Z</time></trkpt><trkpt lat="44.5615506" lon="4.7499365"><ele>82.0</ele><time>2026-05-02T07:29:15.998Z</time></trkpt><trkpt lat="44.5614794" lon="4.7499718"><ele>82.0</ele><time>2026-05-02T07:29:18.998Z</time></trkpt><trkpt lat="44.5613894" lon="4.7499347"><ele>82.0</ele><time>2026-05-02T07:29:21.998Z</time></trkpt><trkpt lat="44.5613147" lon="4.7497989"><ele>82.0</ele><time>2026-05-02T07:29:23.999Z</time></trkpt><trkpt lat="44.5612894" lon="4.7496944"><ele>82.0</ele><time>2026-05-02T07:29:25Z</time></trkpt><trkpt lat="44.5612643" lon="4.7495974"><ele>82.0</ele><time>2026-05-02T07:29:25.998Z</time></trkpt><trkpt lat="44.5612396" lon="4.7495046"><ele>82.0</ele><time>2026-05-02T07:29:26.998Z</time></trkpt><trkpt lat="44.5612131" lon="4.7494193"><ele>82.0</ele><time>2026-05-02T07:29:27.999Z</time></trkpt><trkpt lat="44.5611894" lon="4.749335"><ele>82.39999999999999</ele><time>2026-05-02T07:29:28.998Z</time></trkpt><trkpt lat="44.5611417" lon="4.7491793"><ele>82.8</ele><time>2026-05-02T07:29:30.999Z</time></trkpt><trkpt lat="44.5611121" lon="4.7490981"><ele>83.2</ele><time>2026-05-02T07:29:31.999Z</time></trkpt><trkpt lat="44.5610594" lon="4.7489377"><ele>83.6</ele><time>2026-05-02T07:29:33.997Z</time></trkpt><trkpt lat="44.5610091" lon="4.7487803"><ele>84.0</ele><time>2026-05-02T07:29:35.998Z</time></trkpt><trkpt lat="44.560962" lon="4.7486263"><ele>83.83333333333333</ele><time>2026-05-02T07:29:37.998Z</time></trkpt><trkpt lat="44.5609092" lon="4.7484715"><ele>83.66666666666667</ele><time>2026-05-02T07:29:39.998Z</time></trkpt><trkpt lat="44.5608693" lon="4.7483966"><ele>83.5</ele><time>2026-05-02T07:29:40.998Z</time></trkpt><trkpt lat="44.5608172" lon="4.7483335"><ele>83.33333333333334</ele><time>2026-05-02T07:29:41.997Z</time></trkpt><trkpt lat="44.5607283" lon="4.7482742"><ele>83.16666666666667</ele><time>2026-05-02T07:29:43.998Z</time></trkpt><trkpt lat="44.5606549" lon="4.7482517"><ele>83.0</ele><time>2026-05-02T07:29:47.998Z</time></trkpt><trkpt lat="44.560562" lon="4.7482266"><ele>83.0</ele><time>2026-05-02T07:29:55.999Z</time></trkpt><trkpt lat="44.5604876" lon="4.7481641"><ele>83.0</ele><time>2026-05-02T07:29:57.998Z</time></trkpt><trkpt lat="44.560439" lon="4.7480388"><ele>83.0</ele><time>2026-05-02T07:29:59.998Z</time></trkpt><trkpt lat="44.5603778" lon="4.7479408"><ele>83.0</ele><time>2026-05-02T07:30:01.999Z</time></trkpt><trkpt lat="44.5603101" lon="4.7479388"><ele>83.0</ele><time>2026-05-02T07:30:03.998Z</time></trkpt><trkpt lat="44.5602209" lon="4.7479661"><ele>83.0</ele><time>2026-05-02T07:30:05.997Z</time></trkpt><trkpt lat="44.5601487" lon="4.7479567"><ele>83.75</ele><time>2026-05-02T07:30:06.999Z</time></trkpt><trkpt lat="44.5600401" lon="4.7479369"><ele>84.5</ele><time>2026-05-02T07:30:07.999Z</time></trkpt><trkpt lat="44.5599225" lon="4.7479143"><ele>85.25</ele><time>2026-05-02T07:30:08.998Z</time></trkpt><trkpt lat="44.5597923" lon="4.7479089"><ele>86.0</ele><time>2026-05-02T07:30:09.999Z</time></trkpt><trkpt lat="44.5596722" lon="4.7479047"><ele>86.0</ele><time>2026-05-02T07:30:10.999Z</time></trkpt><trkpt lat="44.5595542" lon="4.7479073"><ele>86.0</ele><time>2026-05-02T07:30:11.998Z</time></trkpt><trkpt lat="44.5594436" lon="4.7479055"><ele>86.0</ele><time>2026-05-02T07:30:12.998Z</time></trkpt><trkpt lat="44.5593377" lon="4.7478993"><ele>86.0</ele><time>2026-05-02T07:30:13.999Z</time></trkpt><trkpt lat="44.5592388" lon="4.7478975"><ele>86.0</ele><time>2026-05-02T07:30:14.998Z</time></trkpt><trkpt lat="44.559143" lon="4.747894"><ele>85.66666666666667</ele><time>2026-05-02T07:30:15.997Z</time></trkpt><trkpt lat="44.559047" lon="4.7478907"><ele>85.33333333333334</ele><time>2026-05-02T07:30:17Z</time></trkpt><trkpt lat="44.5589601" lon="4.7478952"><ele>85.0</ele><time>2026-05-02T07:30:17.999Z</time></trkpt><trkpt lat="44.5588704" lon="4.7479007"><ele>84.66666666666667</ele><time>2026-05-02T07:30:18.999Z</time></trkpt><trkpt lat="44.5587919" lon="4.7478955"><ele>84.33333333333333</ele><time>2026-05-02T07:30:19.999Z</time></trkpt><trkpt lat="44.5587084" lon="4.7478984"><ele>84.0</ele><time>2026-05-02T07:30:20.999Z</time></trkpt><trkpt lat="44.5586318" lon="4.7479029"><ele>84.0</ele><time>2026-05-02T07:30:21.998Z</time></trkpt><trkpt lat="44.5585612" lon="4.7479075"><ele>84.0</ele><time>2026-05-02T07:30:23Z</time></trkpt><trkpt lat="44.5584748" lon="4.7478915"><ele>84.0</ele><time>2026-05-02T07:30:25.998Z</time></trkpt><trkpt lat="44.558407" lon="4.7478809"><ele>84.0</ele><time>2026-05-02T07:30:28.999Z</time></trkpt><trkpt lat="44.5583437" lon="4.7478746"><ele>84.0</ele><time>2026-05-02T07:30:31Z</time></trkpt><trkpt lat="44.5582647" lon="4.7478551"><ele>84.0</ele><time>2026-05-02T07:30:32.999Z</time></trkpt><trkpt lat="44.5581867" lon="4.7477771"><ele>84.0</ele><time>2026-05-02T07:30:34.999Z</time></trkpt><trkpt lat="44.5581674" lon="4.7476488"><ele>84.0</ele><time>2026-05-02T07:30:36.999Z</time></trkpt><trkpt lat="44.5582029" lon="4.7475175"><ele>84.0</ele><time>2026-05-02T07:30:38.999Z</time></trkpt><trkpt lat="44.5582482" lon="4.7473912"><ele>84.0</ele><time>2026-05-02T07:30:41Z</time></trkpt><trkpt lat="44.5582914" lon="4.7472373"><ele>84.0</ele><time>2026-05-02T07:30:42.999Z</time></trkpt><trkpt lat="44.5583075" lon="4.7471178"><ele>84.0</ele><time>2026-05-02T07:30:45Z</time></trkpt><trkpt lat="44.5583007" lon="4.7469973"><ele>84.0</ele><time>2026-05-02T07:30:46.999Z</time></trkpt><trkpt lat="44.5582969" lon="4.7468452"><ele>84.0</ele><time>2026-05-02T07:30:48.999Z</time></trkpt><trkpt lat="44.5582925" lon="4.7466644"><ele>84.0</ele><time>2026-05-02T07:30:50.999Z</time></trkpt><trkpt lat="44.5582904" lon="4.7465724"><ele>84.0</ele><time>2026-05-02T07:30:51.998Z</time></trkpt><trkpt lat="44.5582897" lon="4.7463961"><ele>84.0</ele><time>2026-05-02T07:30:53.999Z</time></trkpt><trkpt lat="44.5582905" lon="4.7463067"><ele>84.0</ele><time>2026-05-02T07:30:54.999Z</time></trkpt><trkpt lat="44.5582877" lon="4.7462175"><ele>84.0</ele><time>2026-05-02T07:30:55.999Z</time></trkpt><trkpt lat="44.5582859" lon="4.7461264"><ele>84.0</ele><time>2026-05-02T07:30:57Z</time></trkpt><trkpt lat="44.5582857" lon="4.7460375"><ele>84.0</ele><time>2026-05-02T07:30:57.999Z</time></trkpt><trkpt lat="44.5582951" lon="4.7459484"><ele>84.0</ele><time>2026-05-02T07:30:58.999Z</time></trkpt><trkpt lat="44.5583177" lon="4.7458636"><ele>84.0</ele><time>2026-05-02T07:31:00Z</time></trkpt><trkpt lat="44.5583548" lon="4.7457918"><ele>84.0</ele><time>2026-05-02T07:31:00.999Z</time></trkpt><trkpt lat="44.5584283" lon="4.7456666"><ele>83.83333333333333</ele><time>2026-05-02T07:31:02.999Z</time></trkpt><trkpt lat="44.5584332" lon="4.7455284"><ele>83.66666666666667</ele><time>2026-05-02T07:31:04.999Z</time></trkpt><trkpt lat="44.5583805" lon="4.7454178"><ele>83.5</ele><time>2026-05-02T07:31:06.999Z</time></trkpt><trkpt lat="44.5583016" lon="4.7452919"><ele>83.33333333333334</ele><time>2026-05-02T07:31:09Z</time></trkpt><trkpt lat="44.5582787" lon="4.7452046"><ele>83.16666666666667</ele><time>2026-05-02T07:31:09.999Z</time></trkpt><trkpt lat="44.5582728" lon="4.7451073"><ele>83.0</ele><time>2026-05-02T07:31:11Z</time></trkpt><trkpt lat="44.5582726" lon="4.7449926"><ele>83.0</ele><time>2026-05-02T07:31:11.999Z</time></trkpt><trkpt lat="44.5582722" lon="4.7448693"><ele>83.0</ele><time>2026-05-02T07:31:13Z</time></trkpt><trkpt lat="44.5582707" lon="4.7447441"><ele>83.0</ele><time>2026-05-02T07:31:13.998Z</time></trkpt><trkpt lat="44.5582665" lon="4.7446208"><ele>83.0</ele><time>2026-05-02T07:31:14.999Z</time></trkpt><trkpt lat="44.5582625" lon="4.7445087"><ele>83.0</ele><time>2026-05-02T07:31:15.999Z</time></trkpt><trkpt lat="44.5582582" lon="4.7443939"><ele>83.0</ele><time>2026-05-02T07:31:16.999Z</time></trkpt><trkpt lat="44.5582517" lon="4.7442875"><ele>82.83333333333334</ele><time>2026-05-02T07:31:17.999Z</time></trkpt><trkpt lat="44.5582475" lon="4.7441925"><ele>82.66666666666667</ele><time>2026-05-02T07:31:19Z</time></trkpt><trkpt lat="44.5582441" lon="4.7440975"><ele>82.5</ele><time>2026-05-02T07:31:20Z</time></trkpt><trkpt lat="44.5582434" lon="4.7440054"><ele>82.33333333333333</ele><time>2026-05-02T07:31:21Z</time></trkpt><trkpt lat="44.5582467" lon="4.7438435"><ele>82.16666666666666</ele><time>2026-05-02T07:31:22.999Z</time></trkpt><trkpt lat="44.5582562" lon="4.7437217"><ele>82.0</ele><time>2026-05-02T07:31:25Z</time></trkpt><trkpt lat="44.5582684" lon="4.7435601"><ele>82.0</ele><time>2026-05-02T07:31:26.999Z</time></trkpt><trkpt lat="44.5582717" lon="4.7434639"><ele>82.0</ele><time>2026-05-02T07:31:27.999Z</time></trkpt><trkpt lat="44.5582702" lon="4.7433621"><ele>82.0</ele><time>2026-05-02T07:31:28.999Z</time></trkpt><trkpt lat="44.5582668" lon="4.7432546"><ele>82.0</ele><time>2026-05-02T07:31:29.999Z</time></trkpt><trkpt lat="44.5582644" lon="4.7431427"><ele>82.0</ele><time>2026-05-02T07:31:30.999Z</time></trkpt><trkpt lat="44.5582631" lon="4.7430258"><ele>82.0</ele><time>2026-05-02T07:31:31.998Z</time></trkpt><trkpt lat="44.5582632" lon="4.7429114"><ele>82.0</ele><time>2026-05-02T07:31:33Z</time></trkpt><trkpt lat="44.5582628" lon="4.742793"><ele>82.0</ele><time>2026-05-02T07:31:34Z</time></trkpt><trkpt lat="44.5582624" lon="4.7426734"><ele>82.0</ele><time>2026-05-02T07:31:34.999Z</time></trkpt><trkpt lat="44.5582614" lon="4.7425529"><ele>82.0</ele><time>2026-05-02T07:31:35.999Z</time></trkpt><trkpt lat="44.5582595" lon="4.7424348"><ele>82.0</ele><time>2026-05-02T07:31:36.999Z</time></trkpt><trkpt lat="44.5582569" lon="4.7423126"><ele>82.0</ele><time>2026-05-02T07:31:37.999Z</time></trkpt><trkpt lat="44.5582536" lon="4.7421864"><ele>82.0</ele><time>2026-05-02T07:31:38.999Z</time></trkpt><trkpt lat="44.5582525" lon="4.7420582"><ele>82.0</ele><time>2026-05-02T07:31:39.999Z</time></trkpt><trkpt lat="44.5582499" lon="4.7419246"><ele>82.0</ele><time>2026-05-02T07:31:40.999Z</time></trkpt><trkpt lat="44.5582475" lon="4.7417942"><ele>82.0</ele><time>2026-05-02T07:31:41.999Z</time></trkpt><trkpt lat="44.5582451" lon="4.7416647"><ele>82.0</ele><time>2026-05-02T07:31:43Z</time></trkpt><trkpt lat="44.5582425" lon="4.7415404"><ele>82.0</ele><time>2026-05-02T07:31:43.999Z</time></trkpt><trkpt lat="44.5582405" lon="4.7414283"><ele>82.0</ele><time>2026-05-02T07:31:45Z</time></trkpt><trkpt lat="44.558238" lon="4.7413305"><ele>82.0</ele><time>2026-05-02T07:31:46Z</time></trkpt><trkpt lat="44.5582369" lon="4.7411436"><ele>82.0</ele><time>2026-05-02T07:31:47.999Z</time></trkpt><trkpt lat="44.5582365" lon="4.741035"><ele>82.0</ele><time>2026-05-02T07:31:48.999Z</time></trkpt><trkpt lat="44.5582388" lon="4.740923"><ele>82.0</ele><time>2026-05-02T07:31:49.999Z</time></trkpt><trkpt lat="44.5582398" lon="4.7408032"><ele>81.83333333333333</ele><time>2026-05-02T07:31:51Z</time></trkpt><trkpt lat="44.5582406" lon="4.7406763"><ele>81.66666666666666</ele><time>2026-05-02T07:31:51.999Z</time></trkpt><trkpt lat="44.5582361" lon="4.7405516"><ele>81.5</ele><time>2026-05-02T07:31:52.999Z</time></trkpt><trkpt lat="44.5582347" lon="4.7404316"><ele>81.33333333333333</ele><time>2026-05-02T07:31:53.999Z</time></trkpt><trkpt lat="44.5582341" lon="4.7403167"><ele>81.16666666666667</ele><time>2026-05-02T07:31:54.998Z</time></trkpt><trkpt lat="44.5582288" lon="4.7402131"><ele>81.0</ele><time>2026-05-02T07:31:55.999Z</time></trkpt><trkpt lat="44.5582269" lon="4.7401206"><ele>80.83333333333333</ele><time>2026-05-02T07:31:56.999Z</time></trkpt><trkpt lat="44.5582274" lon="4.739959"><ele>80.66666666666667</ele><time>2026-05-02T07:31:59Z</time></trkpt><trkpt lat="44.558234" lon="4.739794"><ele>80.5</ele><time>2026-05-02T07:32:00.999Z</time></trkpt><trkpt lat="44.5582348" lon="4.7397013"><ele>80.33333333333334</ele><time>2026-05-02T07:32:01.999Z</time></trkpt><trkpt lat="44.5582321" lon="4.7396024"><ele>80.16666666666667</ele><time>2026-05-02T07:32:02.999Z</time></trkpt><trkpt lat="44.5582271" lon="4.7394946"><ele>80.0</ele><time>2026-05-02T07:32:04Z</time></trkpt><trkpt lat="44.5582233" lon="4.7393774"><ele>80.0</ele><time>2026-05-02T07:32:04.998Z</time></trkpt><trkpt lat="44.55822" lon="4.7392632"><ele>80.0</ele><time>2026-05-02T07:32:05.999Z</time></trkpt><trkpt lat="44.558219" lon="4.7391529"><ele>80.0</ele><time>2026-05-02T07:32:06.999Z</time></trkpt><trkpt lat="44.5582187" lon="4.7390465"><ele>80.0</ele><time>2026-05-02T07:32:07.999Z</time></trkpt><trkpt lat="44.5582204" lon="4.7389423"><ele>80.0</ele><time>2026-05-02T07:32:08.999Z</time></trkpt><trkpt lat="44.5582192" lon="4.7388251"><ele>80.0</ele><time>2026-05-02T07:32:10Z</time></trkpt><trkpt lat="44.558217" lon="4.7387031"><ele>80.0</ele><time>2026-05-02T07:32:10.999Z</time></trkpt><trkpt lat="44.5582129" lon="4.7385838"><ele>80.0</ele><time>2026-05-02T07:32:11.999Z</time></trkpt><trkpt lat="44.5582089" lon="4.7384703"><ele>80.0</ele><time>2026-05-02T07:32:12.999Z</time></trkpt><trkpt lat="44.5582082" lon="4.7383584"><ele>80.0</ele><time>2026-05-02T07:32:13.999Z</time></trkpt><trkpt lat="44.5582123" lon="4.7382512"><ele>80.0</ele><time>2026-05-02T07:32:14.999Z</time></trkpt><trkpt lat="44.5582143" lon="4.7381386"><ele>80.0</ele><time>2026-05-02T07:32:15.999Z</time></trkpt><trkpt lat="44.5582086" lon="4.7380239"><ele>80.0</ele><time>2026-05-02T07:32:16.998Z</time></trkpt><trkpt lat="44.558205" lon="4.737907"><ele>80.0</ele><time>2026-05-02T07:32:18Z</time></trkpt><trkpt lat="44.5582048" lon="4.737795"><ele>80.0</ele><time>2026-05-02T07:32:18.999Z</time></trkpt><trkpt lat="44.5582039" lon="4.7376808"><ele>80.0</ele><time>2026-05-02T07:32:19.999Z</time></trkpt><trkpt lat="44.5582017" lon="4.7375563"><ele>80.0</ele><time>2026-05-02T07:32:20.999Z</time></trkpt><trkpt lat="44.5581981" lon="4.7374208"><ele>80.0</ele><time>2026-05-02T07:32:21.999Z</time></trkpt><trkpt lat="44.5581944" lon="4.7372802"><ele>80.0</ele><time>2026-05-02T07:32:23Z</time></trkpt><trkpt lat="44.5581913" lon="4.7371312"><ele>80.0</ele><time>2026-05-02T07:32:23.999Z</time></trkpt><trkpt lat="44.5581889" lon="4.7369904"><ele>80.0</ele><time>2026-05-02T07:32:24.999Z</time></trkpt><trkpt lat="44.558186" lon="4.7368507"><ele>80.0</ele><time>2026-05-02T07:32:25.999Z</time></trkpt><trkpt lat="44.5581844" lon="4.736713"><ele>80.0</ele><time>2026-05-02T07:32:26.999Z</time></trkpt><trkpt lat="44.5581821" lon="4.7365805"><ele>79.75</ele><time>2026-05-02T07:32:28Z</time></trkpt><trkpt lat="44.5581796" lon="4.7364326"><ele>79.5</ele><time>2026-05-02T07:32:28.999Z</time></trkpt><trkpt lat="44.5581792" lon="4.7362651"><ele>79.25</ele><time>2026-05-02T07:32:30Z</time></trkpt><trkpt lat="44.558178" lon="4.7360829"><ele>79.0</ele><time>2026-05-02T07:32:30.999Z</time></trkpt><trkpt lat="44.5581757" lon="4.735901"><ele>78.5</ele><time>2026-05-02T07:32:32Z</time></trkpt><trkpt lat="44.5581759" lon="4.7357184"><ele>78.0</ele><time>2026-05-02T07:32:32.999Z</time></trkpt><trkpt lat="44.5581754" lon="4.7355385"><ele>77.5</ele><time>2026-05-02T07:32:33.999Z</time></trkpt><trkpt lat="44.5581733" lon="4.7353631"><ele>77.0</ele><time>2026-05-02T07:32:34.999Z</time></trkpt><trkpt lat="44.558171" lon="4.7351998"><ele>77.0</ele><time>2026-05-02T07:32:35.999Z</time></trkpt><trkpt lat="44.5581687" lon="4.735045"><ele>77.0</ele><time>2026-05-02T07:32:36.999Z</time></trkpt><trkpt lat="44.5581654" lon="4.734898"><ele>77.0</ele><time>2026-05-02T07:32:37.999Z</time></trkpt><trkpt lat="44.5581647" lon="4.7347571"><ele>77.0</ele><time>2026-05-02T07:32:38.999Z</time></trkpt><trkpt lat="44.5581617" lon="4.7346282"><ele>77.0</ele><time>2026-05-02T07:32:40Z</time></trkpt><trkpt lat="44.5581591" lon="4.7345105"><ele>77.0</ele><time>2026-05-02T07:32:40.999Z</time></trkpt><trkpt lat="44.5581588" lon="4.734403"><ele>77.0</ele><time>2026-05-02T07:32:41.999Z</time></trkpt><trkpt lat="44.5581594" lon="4.7343042"><ele>77.0</ele><time>2026-05-02T07:32:42.999Z</time></trkpt><trkpt lat="44.5581609" lon="4.7342056"><ele>77.0</ele><time>2026-05-02T07:32:44Z</time></trkpt><trkpt lat="44.5581647" lon="4.7341055"><ele>77.0</ele><time>2026-05-02T07:32:44.999Z</time></trkpt><trkpt lat="44.5581666" lon="4.734007"><ele>77.0</ele><time>2026-05-02T07:32:45.999Z</time></trkpt><trkpt lat="44.5581569" lon="4.7339086"><ele>77.0</ele><time>2026-05-02T07:32:46.999Z</time></trkpt><trkpt lat="44.5581298" lon="4.7338135"><ele>77.16666666666667</ele><time>2026-05-02T07:32:47.999Z</time></trkpt><trkpt lat="44.558081" lon="4.7337303"><ele>77.33333333333334</ele><time>2026-05-02T07:32:48.999Z</time></trkpt><trkpt lat="44.5580213" lon="4.7336579"><ele>77.5</ele><time>2026-05-02T07:32:49.999Z</time></trkpt><trkpt lat="44.5579622" lon="4.7335914"><ele>77.66666666666667</ele><time>2026-05-02T07:32:50.999Z</time></trkpt><trkpt lat="44.5579045" lon="4.7335111"><ele>77.83333333333333</ele><time>2026-05-02T07:32:52Z</time></trkpt><trkpt lat="44.5578463" lon="4.7334226"><ele>78.0</ele><time>2026-05-02T07:32:52.999Z</time></trkpt><trkpt lat="44.5577851" lon="4.7333293"><ele>78.0</ele><time>2026-05-02T07:32:53.999Z</time></trkpt><trkpt lat="44.5577181" lon="4.733232"><ele>78.0</ele><time>2026-05-02T07:32:54.999Z</time></trkpt><trkpt lat="44.557645" lon="4.7331332"><ele>78.0</ele><time>2026-05-02T07:32:56Z</time></trkpt><trkpt lat="44.5575647" lon="4.7330367"><ele>78.0</ele><time>2026-05-02T07:32:57Z</time></trkpt><trkpt lat="44.5574791" lon="4.7329513"><ele>78.0</ele><time>2026-05-02T07:32:57.999Z</time></trkpt><trkpt lat="44.5573906" lon="4.7328838"><ele>78.0</ele><time>2026-05-02T07:32:59Z</time></trkpt><trkpt lat="44.5573046" lon="4.7328351"><ele>78.0</ele><time>2026-05-02T07:33:00Z</time></trkpt><trkpt lat="44.5572231" lon="4.7327994"><ele>78.0</ele><time>2026-05-02T07:33:00.998Z</time></trkpt><trkpt lat="44.5571468" lon="4.7327679"><ele>78.0</ele><time>2026-05-02T07:33:02Z</time></trkpt><trkpt lat="44.5570726" lon="4.7327362"><ele>78.0</ele><time>2026-05-02T07:33:03Z</time></trkpt><trkpt lat="44.5570036" lon="4.732706"><ele>78.0</ele><time>2026-05-02T07:33:03.999Z</time></trkpt><trkpt lat="44.5569359" lon="4.7326793"><ele>78.0</ele><time>2026-05-02T07:33:05Z</time></trkpt><trkpt lat="44.5568713" lon="4.7326518"><ele>78.0</ele><time>2026-05-02T07:33:05.999Z</time></trkpt><trkpt lat="44.5568079" lon="4.7326255"><ele>78.0</ele><time>2026-05-02T07:33:06.999Z</time></trkpt><trkpt lat="44.5566942" lon="4.7325757"><ele>78.0</ele><time>2026-05-02T07:33:08.999Z</time></trkpt><trkpt lat="44.5565735" lon="4.7325175"><ele>78.0</ele><time>2026-05-02T07:33:10.999Z</time></trkpt><trkpt lat="44.5565089" lon="4.7324766"><ele>78.0</ele><time>2026-05-02T07:33:11.999Z</time></trkpt><trkpt lat="44.5564435" lon="4.7324258"><ele>78.0</ele><time>2026-05-02T07:33:12.999Z</time></trkpt><trkpt lat="44.5563861" lon="4.7323652"><ele>78.0</ele><time>2026-05-02T07:33:13.999Z</time></trkpt><trkpt lat="44.5563368" lon="4.7322949"><ele>78.0</ele><time>2026-05-02T07:33:14.999Z</time></trkpt><trkpt lat="44.5562977" lon="4.7322202"><ele>78.0</ele><time>2026-05-02T07:33:16Z</time></trkpt><trkpt lat="44.5562495" lon="4.7320834"><ele>78.0</ele><time>2026-05-02T07:33:17.999Z</time></trkpt><trkpt lat="44.5562296" lon="4.731939"><ele>78.4</ele><time>2026-05-02T07:33:20.999Z</time></trkpt><trkpt lat="44.556197" lon="4.7317678"><ele>78.8</ele><time>2026-05-02T07:33:22.999Z</time></trkpt><trkpt lat="44.5561524" lon="4.7316708"><ele>79.2</ele><time>2026-05-02T07:33:24Z</time></trkpt><trkpt lat="44.5560819" lon="4.7315739"><ele>79.6</ele><time>2026-05-02T07:33:24.998Z</time></trkpt><trkpt lat="44.5560077" lon="4.7314889"><ele>80.0</ele><time>2026-05-02T07:33:26Z</time></trkpt><trkpt lat="44.5559353" lon="4.7313912"><ele>80.0</ele><time>2026-05-02T07:33:26.999Z</time></trkpt><trkpt lat="44.5558777" lon="4.731271"><ele>80.0</ele><time>2026-05-02T07:33:28Z</time></trkpt><trkpt lat="44.5558349" lon="4.7311273"><ele>80.0</ele><time>2026-05-02T07:33:28.999Z</time></trkpt><trkpt lat="44.555802" lon="4.7309719"><ele>80.0</ele><time>2026-05-02T07:33:29.999Z</time></trkpt><trkpt lat="44.5557744" lon="4.7308167"><ele>80.0</ele><time>2026-05-02T07:33:30.999Z</time></trkpt><trkpt lat="44.5557492" lon="4.7306643"><ele>79.6</ele><time>2026-05-02T07:33:31.999Z</time></trkpt><trkpt lat="44.5557256" lon="4.7305099"><ele>79.2</ele><time>2026-05-02T07:33:33Z</time></trkpt><trkpt lat="44.5556998" lon="4.7303606"><ele>78.8</ele><time>2026-05-02T07:33:33.999Z</time></trkpt><trkpt lat="44.555678" lon="4.7302115"><ele>78.4</ele><time>2026-05-02T07:33:34.999Z</time></trkpt><trkpt lat="44.5556598" lon="4.7300672"><ele>78.0</ele><time>2026-05-02T07:33:35.998Z</time></trkpt><trkpt lat="44.5556522" lon="4.7299286"><ele>78.0</ele><time>2026-05-02T07:33:37Z</time></trkpt><trkpt lat="44.5556565" lon="4.7297935"><ele>78.0</ele><time>2026-05-02T07:33:37.999Z</time></trkpt><trkpt lat="44.5556738" lon="4.7296654"><ele>78.0</ele><time>2026-05-02T07:33:39Z</time></trkpt><trkpt lat="44.5557072" lon="4.7295491"><ele>78.0</ele><time>2026-05-02T07:33:39.999Z</time></trkpt><trkpt lat="44.5557606" lon="4.7294506"><ele>78.0</ele><time>2026-05-02T07:33:40.999Z</time></trkpt><trkpt lat="44.5558371" lon="4.7293676"><ele>78.2</ele><time>2026-05-02T07:33:41.998Z</time></trkpt><trkpt lat="44.555932" lon="4.7293073"><ele>78.4</ele><time>2026-05-02T07:33:42.999Z</time></trkpt><trkpt lat="44.5560371" lon="4.7292797"><ele>78.60000000000001</ele><time>2026-05-02T07:33:43.999Z</time></trkpt><trkpt lat="44.5561423" lon="4.7292733"><ele>78.8</ele><time>2026-05-02T07:33:44.999Z</time></trkpt><trkpt lat="44.5562348" lon="4.7292803"><ele>79.0</ele><time>2026-05-02T07:33:45.998Z</time></trkpt><trkpt lat="44.5563127" lon="4.7292877"><ele>79.00000000000001</ele><time>2026-05-02T07:33:46.997Z</time></trkpt><trkpt lat="44.556383" lon="4.7292895"><ele>79.0</ele><time>2026-05-02T07:33:47.998Z</time></trkpt><trkpt lat="44.5564507" lon="4.7292954"><ele>79.0</ele><time>2026-05-02T07:33:48.999Z</time></trkpt><trkpt lat="44.5565146" lon="4.7293014"><ele>79.0</ele><time>2026-05-02T07:33:49.998Z</time></trkpt><trkpt lat="44.5565819" lon="4.7293075"><ele>79.0</ele><time>2026-05-02T07:33:50.998Z</time></trkpt><trkpt lat="44.5566617" lon="4.7293136"><ele>79.00000000000001</ele><time>2026-05-02T07:33:51.998Z</time></trkpt><trkpt lat="44.5567505" lon="4.7293158"><ele>79.0</ele><time>2026-05-02T07:33:52.998Z</time></trkpt><trkpt lat="44.5568445" lon="4.7293059"><ele>79.0</ele><time>2026-05-02T07:33:53.998Z</time></trkpt><trkpt lat="44.5569357" lon="4.7292758"><ele>79.0</ele><time>2026-05-02T07:33:54.997Z</time></trkpt><trkpt lat="44.5570228" lon="4.7292242"><ele>79.0</ele><time>2026-05-02T07:33:55.998Z</time></trkpt><trkpt lat="44.5571012" lon="4.7291488"><ele>79.0</ele><time>2026-05-02T07:33:56.998Z</time></trkpt><trkpt lat="44.5571698" lon="4.7290501"><ele>79.0</ele><time>2026-05-02T07:33:57.998Z</time></trkpt><trkpt lat="44.5572257" lon="4.7289331"><ele>78.8</ele><time>2026-05-02T07:33:58.998Z</time></trkpt><trkpt lat="44.5572653" lon="4.7287982"><ele>78.60000000000001</ele><time>2026-05-02T07:33:59.997Z</time></trkpt><trkpt lat="44.5572818" lon="4.7286518"><ele>78.4</ele><time>2026-05-02T07:34:00.999Z</time></trkpt><trkpt lat="44.5572729" lon="4.728506"><ele>78.2</ele><time>2026-05-02T07:34:01.998Z</time></trkpt><trkpt lat="44.5572499" lon="4.7283682"><ele>78.0</ele><time>2026-05-02T07:34:02.998Z</time></trkpt><trkpt lat="44.5572177" lon="4.7282382"><ele>78.0</ele><time>2026-05-02T07:34:03.998Z</time></trkpt><trkpt lat="44.5571843" lon="4.728109"><ele>78.0</ele><time>2026-05-02T07:34:04.998Z</time></trkpt><trkpt lat="44.557151" lon="4.7279848"><ele>78.0</ele><time>2026-05-02T07:34:05.998Z</time></trkpt><trkpt lat="44.5571162" lon="4.7278695"><ele>78.0</ele><time>2026-05-02T07:34:06.998Z</time></trkpt><trkpt lat="44.5570851" lon="4.7277665"><ele>78.0</ele><time>2026-05-02T07:34:07.998Z</time></trkpt><trkpt lat="44.5570567" lon="4.727671"><ele>78.0</ele><time>2026-05-02T07:34:08.998Z</time></trkpt><trkpt lat="44.5570303" lon="4.7275759"><ele>77.66666666666667</ele><time>2026-05-02T07:34:09.998Z</time></trkpt><trkpt lat="44.5570069" lon="4.7274823"><ele>77.33333333333333</ele><time>2026-05-02T07:34:10.999Z</time></trkpt><trkpt lat="44.5569814" lon="4.727392"><ele>77.0</ele><time>2026-05-02T07:34:11.999Z</time></trkpt><trkpt lat="44.5569577" lon="4.7273074"><ele>76.66666666666666</ele><time>2026-05-02T07:34:12.997Z</time></trkpt><trkpt lat="44.5569166" lon="4.7271577"><ele>76.33333333333333</ele><time>2026-05-02T07:34:14.999Z</time></trkpt><trkpt lat="44.5568796" lon="4.7270191"><ele>76.0</ele><time>2026-05-02T07:34:16.998Z</time></trkpt><trkpt lat="44.5568353" lon="4.726844"><ele>75.8</ele><time>2026-05-02T07:34:18.997Z</time></trkpt><trkpt lat="44.5568058" lon="4.7267326"><ele>75.6</ele><time>2026-05-02T07:34:19.998Z</time></trkpt><trkpt lat="44.5567715" lon="4.7266119"><ele>75.4</ele><time>2026-05-02T07:34:20.999Z</time></trkpt><trkpt lat="44.5567372" lon="4.7264833"><ele>75.2</ele><time>2026-05-02T07:34:21.998Z</time></trkpt><trkpt lat="44.5567021" lon="4.7263471"><ele>75.0</ele><time>2026-05-02T07:34:22.998Z</time></trkpt><trkpt lat="44.5566653" lon="4.7262097"><ele>75.0</ele><time>2026-05-02T07:34:23.998Z</time></trkpt><trkpt lat="44.5566292" lon="4.7260721"><ele>75.0</ele><time>2026-05-02T07:34:24.998Z</time></trkpt><trkpt lat="44.5565939" lon="4.7259337"><ele>75.0</ele><time>2026-05-02T07:34:25.998Z</time></trkpt><trkpt lat="44.5565552" lon="4.7257976"><ele>75.0</ele><time>2026-05-02T07:34:26.998Z</time></trkpt><trkpt lat="44.5565171" lon="4.7256605"><ele>75.0</ele><time>2026-05-02T07:34:27.998Z</time></trkpt><trkpt lat="44.55648" lon="4.7255232"><ele>75.0</ele><time>2026-05-02T07:34:28.998Z</time></trkpt><trkpt lat="44.5564434" lon="4.7253833"><ele>75.0</ele><time>2026-05-02T07:34:29.998Z</time></trkpt><trkpt lat="44.5564061" lon="4.7252444"><ele>75.0</ele><time>2026-05-02T07:34:30.998Z</time></trkpt><trkpt lat="44.5563664" lon="4.7251036"><ele>75.0</ele><time>2026-05-02T07:34:31.998Z</time></trkpt><trkpt lat="44.5563261" lon="4.7249615"><ele>75.0</ele><time>2026-05-02T07:34:32.998Z</time></trkpt><trkpt lat="44.5562826" lon="4.7248193"><ele>74.8</ele><time>2026-05-02T07:34:33.999Z</time></trkpt><trkpt lat="44.556239" lon="4.7246767"><ele>74.6</ele><time>2026-05-02T07:34:34.999Z</time></trkpt><trkpt lat="44.5561917" lon="4.7245362"><ele>74.4</ele><time>2026-05-02T07:34:35.998Z</time></trkpt><trkpt lat="44.5561439" lon="4.7243932"><ele>74.2</ele><time>2026-05-02T07:34:36.998Z</time></trkpt><trkpt lat="44.5560955" lon="4.7242529"><ele>74.0</ele><time>2026-05-02T07:34:37.999Z</time></trkpt><trkpt lat="44.5560477" lon="4.7241143"><ele>74.0</ele><time>2026-05-02T07:34:38.999Z</time></trkpt><trkpt lat="44.5559998" lon="4.7239759"><ele>74.0</ele><time>2026-05-02T07:34:39.998Z</time></trkpt><trkpt lat="44.555955" lon="4.7238404"><ele>74.0</ele><time>2026-05-02T07:34:40.998Z</time></trkpt><trkpt lat="44.5559152" lon="4.723704"><ele>74.0</ele><time>2026-05-02T07:34:41.997Z</time></trkpt><trkpt lat="44.5558792" lon="4.7235648"><ele>74.0</ele><time>2026-05-02T07:34:42.998Z</time></trkpt><trkpt lat="44.5558426" lon="4.7234227"><ele>74.4</ele><time>2026-05-02T07:34:43.998Z</time></trkpt><trkpt lat="44.555805" lon="4.7232764"><ele>74.80000000000001</ele><time>2026-05-02T07:34:44.999Z</time></trkpt><trkpt lat="44.5557692" lon="4.7231303"><ele>75.19999999999999</ele><time>2026-05-02T07:34:45.999Z</time></trkpt><trkpt lat="44.555739" lon="4.7229918"><ele>75.6</ele><time>2026-05-02T07:34:46.998Z</time></trkpt><trkpt lat="44.5557149" lon="4.7228603"><ele>76.0</ele><time>2026-05-02T07:34:47.998Z</time></trkpt><trkpt lat="44.5556936" lon="4.7227362"><ele>76.0</ele><time>2026-05-02T07:34:48.998Z</time></trkpt><trkpt lat="44.5556734" lon="4.7226195"><ele>76.0</ele><time>2026-05-02T07:34:49.998Z</time></trkpt><trkpt lat="44.5556553" lon="4.7225015"><ele>76.0</ele><time>2026-05-02T07:34:50.998Z</time></trkpt><trkpt lat="44.5556389" lon="4.7223758"><ele>76.0</ele><time>2026-05-02T07:34:51.999Z</time></trkpt><trkpt lat="44.5556209" lon="4.7222482"><ele>76.0</ele><time>2026-05-02T07:34:52.999Z</time></trkpt><trkpt lat="44.5556048" lon="4.7221153"><ele>76.0</ele><time>2026-05-02T07:34:53.998Z</time></trkpt><trkpt lat="44.5555907" lon="4.7219765"><ele>76.0</ele><time>2026-05-02T07:34:54.998Z</time></trkpt><trkpt lat="44.5555746" lon="4.7218321"><ele>76.0</ele><time>2026-05-02T07:34:55.997Z</time></trkpt><trkpt lat="44.5555588" lon="4.721677"><ele>76.0</ele><time>2026-05-02T07:34:56.998Z</time></trkpt><trkpt lat="44.5555412" lon="4.7215135"><ele>76.0</ele><time>2026-05-02T07:34:57.999Z</time></trkpt><trkpt lat="44.5555236" lon="4.7213454"><ele>76.0</ele><time>2026-05-02T07:34:58.999Z</time></trkpt><trkpt lat="44.5555056" lon="4.7211671"><ele>76.0</ele><time>2026-05-02T07:34:59.998Z</time></trkpt><trkpt lat="44.5554877" lon="4.7209864"><ele>76.0</ele><time>2026-05-02T07:35:00.998Z</time></trkpt><trkpt lat="44.55547" lon="4.7207996"><ele>76.0</ele><time>2026-05-02T07:35:01.998Z</time></trkpt><trkpt lat="44.5554514" lon="4.720612"><ele>76.0</ele><time>2026-05-02T07:35:02.998Z</time></trkpt><trkpt lat="44.5554355" lon="4.7204177"><ele>76.0</ele><time>2026-05-02T07:35:03.999Z</time></trkpt><trkpt lat="44.5554174" lon="4.7202138"><ele>76.0</ele><time>2026-05-02T07:35:04.997Z</time></trkpt><trkpt lat="44.555399" lon="4.7199972"><ele>76.0</ele><time>2026-05-02T07:35:05.998Z</time></trkpt><trkpt lat="44.5553773" lon="4.7197751"><ele>76.0</ele><time>2026-05-02T07:35:06.999Z</time></trkpt><trkpt lat="44.555356" lon="4.719556"><ele>76.0</ele><time>2026-05-02T07:35:07.997Z</time></trkpt><trkpt lat="44.5553342" lon="4.7193395"><ele>76.0</ele><time>2026-05-02T07:35:08.998Z</time></trkpt><trkpt lat="44.5553131" lon="4.7191205"><ele>76.33333333333333</ele><time>2026-05-02T07:35:09.999Z</time></trkpt><trkpt lat="44.5552944" lon="4.7189036"><ele>76.66666666666667</ele><time>2026-05-02T07:35:10.998Z</time></trkpt><trkpt lat="44.555276" lon="4.7186857"><ele>77.0</ele><time>2026-05-02T07:35:11.998Z</time></trkpt><trkpt lat="44.555257" lon="4.7184674"><ele>77.0</ele><time>2026-05-02T07:35:12.998Z</time></trkpt><trkpt lat="44.5552376" lon="4.7182486"><ele>77.0</ele><time>2026-05-02T07:35:13.999Z</time></trkpt><trkpt lat="44.5552186" lon="4.7180309"><ele>77.0</ele><time>2026-05-02T07:35:14.999Z</time></trkpt><trkpt lat="44.5551963" lon="4.7178146"><ele>77.33333333333334</ele><time>2026-05-02T07:35:15.999Z</time></trkpt><trkpt lat="44.5551739" lon="4.7176019"><ele>77.66666666666667</ele><time>2026-05-02T07:35:16.998Z</time></trkpt><trkpt lat="44.5551544" lon="4.7173938"><ele>78.0</ele><time>2026-05-02T07:35:17.998Z</time></trkpt><trkpt lat="44.5551348" lon="4.7171896"><ele>78.0</ele><time>2026-05-02T07:35:18.998Z</time></trkpt><trkpt lat="44.5551157" lon="4.7169955"><ele>78.0</ele><time>2026-05-02T07:35:19.997Z</time></trkpt><trkpt lat="44.555099" lon="4.7168075"><ele>78.0</ele><time>2026-05-02T07:35:20.998Z</time></trkpt><trkpt lat="44.5550808" lon="4.7166291"><ele>78.0</ele><time>2026-05-02T07:35:21.998Z</time></trkpt><trkpt lat="44.5550651" lon="4.7164574"><ele>76.5</ele><time>2026-05-02T07:35:22.998Z</time></trkpt><trkpt lat="44.5550468" lon="4.7162919"><ele>75.0</ele><time>2026-05-02T07:35:23.998Z</time></trkpt><trkpt lat="44.5550302" lon="4.7161326"><ele>73.5</ele><time>2026-05-02T07:35:24.998Z</time></trkpt><trkpt lat="44.5550153" lon="4.715977"><ele>72.0</ele><time>2026-05-02T07:35:25.999Z</time></trkpt><trkpt lat="44.5550007" lon="4.7158241"><ele>71.8</ele><time>2026-05-02T07:35:26.998Z</time></trkpt><trkpt lat="44.5549873" lon="4.7156754"><ele>71.6</ele><time>2026-05-02T07:35:27.998Z</time></trkpt><trkpt lat="44.5549756" lon="4.7155281"><ele>71.39999999999999</ele><time>2026-05-02T07:35:28.999Z</time></trkpt><trkpt lat="44.5549659" lon="4.7153874"><ele>71.2</ele><time>2026-05-02T07:35:29.999Z</time></trkpt><trkpt lat="44.5549537" lon="4.7152364"><ele>71.0</ele><time>2026-05-02T07:35:30.998Z</time></trkpt><trkpt lat="44.5549379" lon="4.7150639"><ele>71.0</ele><time>2026-05-02T07:35:31.998Z</time></trkpt><trkpt lat="44.5549199" lon="4.7148713"><ele>71.0</ele><time>2026-05-02T07:35:32.998Z</time></trkpt><trkpt lat="44.554899" lon="4.7146598"><ele>71.0</ele><time>2026-05-02T07:35:33.998Z</time></trkpt><trkpt lat="44.5548778" lon="4.7144247"><ele>72.33333333333334</ele><time>2026-05-02T07:35:34.997Z</time></trkpt><trkpt lat="44.5548519" lon="4.7141887"><ele>73.66666666666667</ele><time>2026-05-02T07:35:35.998Z</time></trkpt><trkpt lat="44.5548181" lon="4.7139464"><ele>75.0</ele><time>2026-05-02T07:35:36.999Z</time></trkpt><trkpt lat="44.5547724" lon="4.7136989"><ele>75.66666666666667</ele><time>2026-05-02T07:35:37.998Z</time></trkpt><trkpt lat="44.554713" lon="4.7134508"><ele>76.33333333333334</ele><time>2026-05-02T07:35:38.997Z</time></trkpt><trkpt lat="44.5546456" lon="4.7132097"><ele>77.0</ele><time>2026-05-02T07:35:39.998Z</time></trkpt><trkpt lat="44.5545713" lon="4.71298"><ele>77.0</ele><time>2026-05-02T07:35:40.998Z</time></trkpt><trkpt lat="44.5544907" lon="4.7127645"><ele>77.0</ele><time>2026-05-02T07:35:41.998Z</time></trkpt><trkpt lat="44.554406" lon="4.7125601"><ele>77.0</ele><time>2026-05-02T07:35:42.998Z</time></trkpt><trkpt lat="44.5543146" lon="4.7123575"><ele>77.0</ele><time>2026-05-02T07:35:43.999Z</time></trkpt><trkpt lat="44.5542172" lon="4.7121494"><ele>77.0</ele><time>2026-05-02T07:35:44.998Z</time></trkpt><trkpt lat="44.5541142" lon="4.7119286"><ele>77.0</ele><time>2026-05-02T07:35:45.999Z</time></trkpt><trkpt lat="44.5540054" lon="4.7117018"><ele>77.0</ele><time>2026-05-02T07:35:46.999Z</time></trkpt><trkpt lat="44.5538961" lon="4.7114686"><ele>77.0</ele><time>2026-05-02T07:35:47.999Z</time></trkpt><trkpt lat="44.553789" lon="4.7112387"><ele>77.0</ele><time>2026-05-02T07:35:48.998Z</time></trkpt><trkpt lat="44.5536893" lon="4.7110117"><ele>76.0</ele><time>2026-05-02T07:35:49.999Z</time></trkpt><trkpt lat="44.5535976" lon="4.7107864"><ele>75.0</ele><time>2026-05-02T07:35:50.998Z</time></trkpt><trkpt lat="44.5535156" lon="4.7105636"><ele>74.0</ele><time>2026-05-02T07:35:51.998Z</time></trkpt><trkpt lat="44.5534451" lon="4.71034"><ele>73.33333333333334</ele><time>2026-05-02T07:35:52.998Z</time></trkpt><trkpt lat="44.5533818" lon="4.7101103"><ele>72.66666666666667</ele><time>2026-05-02T07:35:53.999Z</time></trkpt><trkpt lat="44.5533319" lon="4.7098733"><ele>72.0</ele><time>2026-05-02T07:35:54.998Z</time></trkpt><trkpt lat="44.5532885" lon="4.7096297"><ele>71.33333333333333</ele><time>2026-05-02T07:35:55.998Z</time></trkpt><trkpt lat="44.5532512" lon="4.7093926"><ele>70.66666666666666</ele><time>2026-05-02T07:35:56.999Z</time></trkpt><trkpt lat="44.5532165" lon="4.7091629"><ele>70.0</ele><time>2026-05-02T07:35:57.998Z</time></trkpt><trkpt lat="44.553183" lon="4.7089376"><ele>70.0</ele><time>2026-05-02T07:35:58.999Z</time></trkpt><trkpt lat="44.5531516" lon="4.7087203"><ele>70.0</ele><time>2026-05-02T07:35:59.998Z</time></trkpt><trkpt lat="44.5531213" lon="4.7085114"><ele>70.0</ele><time>2026-05-02T07:36:00.998Z</time></trkpt><trkpt lat="44.553092" lon="4.7083129"><ele>69.5</ele><time>2026-05-02T07:36:01.999Z</time></trkpt><trkpt lat="44.5530642" lon="4.7081189"><ele>69.0</ele><time>2026-05-02T07:36:02.998Z</time></trkpt><trkpt lat="44.5530378" lon="4.7079348"><ele>68.5</ele><time>2026-05-02T07:36:03.998Z</time></trkpt><trkpt lat="44.5530089" lon="4.7077566"><ele>68.0</ele><time>2026-05-02T07:36:04.997Z</time></trkpt><trkpt lat="44.5529796" lon="4.7075715"><ele>68.0</ele><time>2026-05-02T07:36:05.999Z</time></trkpt><trkpt lat="44.5529497" lon="4.7073786"><ele>68.0</ele><time>2026-05-02T07:36:06.998Z</time></trkpt><trkpt lat="44.5529172" lon="4.7071763"><ele>68.0</ele><time>2026-05-02T07:36:07.999Z</time></trkpt><trkpt lat="44.5528831" lon="4.7069662"><ele>68.0</ele><time>2026-05-02T07:36:08.997Z</time></trkpt><trkpt lat="44.5528497" lon="4.7067546"><ele>68.0</ele><time>2026-05-02T07:36:09.999Z</time></trkpt><trkpt lat="44.5528185" lon="4.7065443"><ele>68.0</ele><time>2026-05-02T07:36:10.999Z</time></trkpt><trkpt lat="44.5527899" lon="4.7063467"><ele>68.0</ele><time>2026-05-02T07:36:11.998Z</time></trkpt><trkpt lat="44.5527594" lon="4.7061486"><ele>68.0</ele><time>2026-05-02T07:36:12.998Z</time></trkpt><trkpt lat="44.5527292" lon="4.7059432"><ele>68.0</ele><time>2026-05-02T07:36:13.998Z</time></trkpt><trkpt lat="44.5526959" lon="4.7057289"><ele>68.0</ele><time>2026-05-02T07:36:14.998Z</time></trkpt><trkpt lat="44.5526603" lon="4.7055111"><ele>68.0</ele><time>2026-05-02T07:36:15.998Z</time></trkpt><trkpt lat="44.5526271" lon="4.7052898"><ele>67.66666666666667</ele><time>2026-05-02T07:36:16.998Z</time></trkpt><trkpt lat="44.5525935" lon="4.705066"><ele>67.33333333333333</ele><time>2026-05-02T07:36:17.998Z</time></trkpt><trkpt lat="44.5525595" lon="4.704841"><ele>67.0</ele><time>2026-05-02T07:36:18.999Z</time></trkpt><trkpt lat="44.5525256" lon="4.7046206"><ele>67.5</ele><time>2026-05-02T07:36:19.998Z</time></trkpt><trkpt lat="44.5524923" lon="4.7044109"><ele>68.0</ele><time>2026-05-02T07:36:20.998Z</time></trkpt><trkpt lat="44.5524621" lon="4.7042063"><ele>68.5</ele><time>2026-05-02T07:36:21.998Z</time></trkpt><trkpt lat="44.5524335" lon="4.704014"><ele>69.0</ele><time>2026-05-02T07:36:22.999Z</time></trkpt><trkpt lat="44.552405" lon="4.7038259"><ele>69.0</ele><time>2026-05-02T07:36:23.998Z</time></trkpt><trkpt lat="44.5523772" lon="4.7036398"><ele>69.0</ele><time>2026-05-02T07:36:24.998Z</time></trkpt><trkpt lat="44.5523491" lon="4.703446"><ele>69.0</ele><time>2026-05-02T07:36:25.998Z</time></trkpt><trkpt lat="44.5523195" lon="4.7032407"><ele>69.0</ele><time>2026-05-02T07:36:26.998Z</time></trkpt><trkpt lat="44.552288" lon="4.7030203"><ele>69.33333333333333</ele><time>2026-05-02T07:36:27.998Z</time></trkpt><trkpt lat="44.5522523" lon="4.7027881"><ele>69.66666666666666</ele><time>2026-05-02T07:36:28.998Z</time></trkpt><trkpt lat="44.5522183" lon="4.7025459"><ele>70.0</ele><time>2026-05-02T07:36:29.998Z</time></trkpt><trkpt lat="44.5521804" lon="4.7022925"><ele>71.0</ele><time>2026-05-02T07:36:30.998Z</time></trkpt><trkpt lat="44.5521423" lon="4.7020314"><ele>72.0</ele><time>2026-05-02T07:36:31.998Z</time></trkpt><trkpt lat="44.5521037" lon="4.7017613"><ele>73.0</ele><time>2026-05-02T07:36:32.998Z</time></trkpt><trkpt lat="44.5520615" lon="4.7014875"><ele>73.0</ele><time>2026-05-02T07:36:33.997Z</time></trkpt><trkpt lat="44.5520197" lon="4.7012153"><ele>73.0</ele><time>2026-05-02T07:36:34.998Z</time></trkpt><trkpt lat="44.5519789" lon="4.7009446"><ele>73.0</ele><time>2026-05-02T07:36:35.998Z</time></trkpt><trkpt lat="44.5519371" lon="4.700676"><ele>73.0</ele><time>2026-05-02T07:36:36.998Z</time></trkpt><trkpt lat="44.5518971" lon="4.7004116"><ele>73.0</ele><time>2026-05-02T07:36:37.998Z</time></trkpt><trkpt lat="44.5518583" lon="4.7001485"><ele>73.0</ele><time>2026-05-02T07:36:38.998Z</time></trkpt><trkpt lat="44.5518208" lon="4.699891"><ele>72.33333333333333</ele><time>2026-05-02T07:36:39.999Z</time></trkpt><trkpt lat="44.5517838" lon="4.699639"><ele>71.66666666666667</ele><time>2026-05-02T07:36:40.998Z</time></trkpt><trkpt lat="44.5517477" lon="4.6993892"><ele>71.0</ele><time>2026-05-02T07:36:41.998Z</time></trkpt><trkpt lat="44.5517097" lon="4.6991412"><ele>70.66666666666667</ele><time>2026-05-02T07:36:42.999Z</time></trkpt><trkpt lat="44.551673" lon="4.6988981"><ele>70.33333333333333</ele><time>2026-05-02T07:36:43.998Z</time></trkpt><trkpt lat="44.551635" lon="4.6986513"><ele>70.0</ele><time>2026-05-02T07:36:44.998Z</time></trkpt><trkpt lat="44.5515968" lon="4.6984083"><ele>69.66666666666666</ele><time>2026-05-02T07:36:45.997Z</time></trkpt><trkpt lat="44.5515584" lon="4.6981632"><ele>69.33333333333333</ele><time>2026-05-02T07:36:46.998Z</time></trkpt><trkpt lat="44.5515195" lon="4.6979105"><ele>69.0</ele><time>2026-05-02T07:36:47.998Z</time></trkpt><trkpt lat="44.5514816" lon="4.6976543"><ele>69.0</ele><time>2026-05-02T07:36:48.999Z</time></trkpt><trkpt lat="44.5514418" lon="4.697393"><ele>69.0</ele><time>2026-05-02T07:36:49.998Z</time></trkpt><trkpt lat="44.5514006" lon="4.6971267"><ele>69.0</ele><time>2026-05-02T07:36:50.998Z</time></trkpt><trkpt lat="44.5513603" lon="4.6968566"><ele>68.33333333333333</ele><time>2026-05-02T07:36:51.998Z</time></trkpt><trkpt lat="44.5513212" lon="4.6965912"><ele>67.66666666666666</ele><time>2026-05-02T07:36:52.998Z</time></trkpt><trkpt lat="44.5512803" lon="4.69633"><ele>67.0</ele><time>2026-05-02T07:36:53.998Z</time></trkpt><trkpt lat="44.5512413" lon="4.6960799"><ele>66.66666666666666</ele><time>2026-05-02T07:36:54.998Z</time></trkpt><trkpt lat="44.5512099" lon="4.6958447"><ele>66.33333333333333</ele><time>2026-05-02T07:36:55.997Z</time></trkpt><trkpt lat="44.5511906" lon="4.6956174"><ele>66.0</ele><time>2026-05-02T07:36:56.999Z</time></trkpt><trkpt lat="44.5511857" lon="4.6953899"><ele>66.66666666666667</ele><time>2026-05-02T07:36:57.998Z</time></trkpt><trkpt lat="44.5512007" lon="4.6951661"><ele>67.33333333333334</ele><time>2026-05-02T07:36:58.998Z</time></trkpt><trkpt lat="44.5512306" lon="4.694953"><ele>68.0</ele><time>2026-05-02T07:36:59.998Z</time></trkpt><trkpt lat="44.5512719" lon="4.6947587"><ele>68.0</ele><time>2026-05-02T07:37:00.998Z</time></trkpt><trkpt lat="44.5513218" lon="4.6945816"><ele>68.0</ele><time>2026-05-02T07:37:01.998Z</time></trkpt><trkpt lat="44.5513734" lon="4.6944222"><ele>68.0</ele><time>2026-05-02T07:37:02.998Z</time></trkpt><trkpt lat="44.5514253" lon="4.6942703"><ele>68.0</ele><time>2026-05-02T07:37:03.998Z</time></trkpt><trkpt lat="44.5514714" lon="4.6941274"><ele>68.75</ele><time>2026-05-02T07:37:04.999Z</time></trkpt><trkpt lat="44.5515226" lon="4.693974"><ele>69.5</ele><time>2026-05-02T07:37:05.998Z</time></trkpt><trkpt lat="44.5515716" lon="4.6938267"><ele>70.25</ele><time>2026-05-02T07:37:06.998Z</time></trkpt><trkpt lat="44.5516204" lon="4.6936873"><ele>71.0</ele><time>2026-05-02T07:37:07.998Z</time></trkpt><trkpt lat="44.5516675" lon="4.6935527"><ele>71.2</ele><time>2026-05-02T07:37:08.999Z</time></trkpt><trkpt lat="44.5517122" lon="4.693422"><ele>71.39999999999999</ele><time>2026-05-02T07:37:09.998Z</time></trkpt><trkpt lat="44.5517581" lon="4.6932884"><ele>71.6</ele><time>2026-05-02T07:37:10.998Z</time></trkpt><trkpt lat="44.5518047" lon="4.6931475"><ele>71.8</ele><time>2026-05-02T07:37:11.998Z</time></trkpt><trkpt lat="44.5518539" lon="4.6929968"><ele>72.0</ele><time>2026-05-02T07:37:12.998Z</time></trkpt><trkpt lat="44.5519076" lon="4.6928405"><ele>71.0</ele><time>2026-05-02T07:37:13.998Z</time></trkpt><trkpt lat="44.5519659" lon="4.6926735"><ele>70.0</ele><time>2026-05-02T07:37:14.998Z</time></trkpt><trkpt lat="44.5520242" lon="4.6925033"><ele>69.0</ele><time>2026-05-02T07:37:15.999Z</time></trkpt><trkpt lat="44.5520816" lon="4.6923285"><ele>68.0</ele><time>2026-05-02T07:37:16.999Z</time></trkpt><trkpt lat="44.5521404" lon="4.6921496"><ele>68.0</ele><time>2026-05-02T07:37:17.998Z</time></trkpt><trkpt lat="44.5522027" lon="4.6919688"><ele>68.0</ele><time>2026-05-02T07:37:18.998Z</time></trkpt><trkpt lat="44.5522631" lon="4.6917857"><ele>68.0</ele><time>2026-05-02T07:37:19.998Z</time></trkpt><trkpt lat="44.5523228" lon="4.6916043"><ele>68.0</ele><time>2026-05-02T07:37:20.998Z</time></trkpt><trkpt lat="44.5523831" lon="4.6914283"><ele>68.0</ele><time>2026-05-02T07:37:21.998Z</time></trkpt><trkpt lat="44.5524393" lon="4.6912575"><ele>68.0</ele><time>2026-05-02T07:37:22.998Z</time></trkpt><trkpt lat="44.552495" lon="4.6910887"><ele>68.0</ele><time>2026-05-02T07:37:23.998Z</time></trkpt><trkpt lat="44.5525504" lon="4.6909207"><ele>68.0</ele><time>2026-05-02T07:37:24.998Z</time></trkpt><trkpt lat="44.5526048" lon="4.690757"><ele>68.5</ele><time>2026-05-02T07:37:25.997Z</time></trkpt><trkpt lat="44.552659" lon="4.6905995"><ele>69.0</ele><time>2026-05-02T07:37:26.999Z</time></trkpt><trkpt lat="44.5527096" lon="4.6904449"><ele>69.5</ele><time>2026-05-02T07:37:27.998Z</time></trkpt><trkpt lat="44.5527641" lon="4.6902864"><ele>70.0</ele><time>2026-05-02T07:37:28.998Z</time></trkpt><trkpt lat="44.5528196" lon="4.6901244"><ele>70.0</ele><time>2026-05-02T07:37:29.998Z</time></trkpt><trkpt lat="44.5528723" lon="4.6899618"><ele>70.0</ele><time>2026-05-02T07:37:30.998Z</time></trkpt><trkpt lat="44.5529219" lon="4.6898075"><ele>70.0</ele><time>2026-05-02T07:37:31.998Z</time></trkpt><trkpt lat="44.5529679" lon="4.6896607"><ele>70.0</ele><time>2026-05-02T07:37:32.998Z</time></trkpt><trkpt lat="44.5530143" lon="4.6895261"><ele>70.16666666666666</ele><time>2026-05-02T07:37:33.998Z</time></trkpt><trkpt lat="44.5530567" lon="4.6893998"><ele>70.33333333333333</ele><time>2026-05-02T07:37:34.998Z</time></trkpt><trkpt lat="44.5531011" lon="4.6892855"><ele>70.5</ele><time>2026-05-02T07:37:35.998Z</time></trkpt><trkpt lat="44.5531472" lon="4.6891916"><ele>70.66666666666667</ele><time>2026-05-02T07:37:36.998Z</time></trkpt><trkpt lat="44.5531906" lon="4.6891227"><ele>70.83333333333334</ele><time>2026-05-02T07:37:37.998Z</time></trkpt><trkpt lat="44.5532754" lon="4.6890522"><ele>71.0</ele><time>2026-05-02T07:37:39.998Z</time></trkpt><trkpt lat="44.5533397" lon="4.6890278"><ele>71.0</ele><time>2026-05-02T07:37:41.998Z</time></trkpt><trkpt lat="44.5534331" lon="4.6890568"><ele>71.0</ele><time>2026-05-02T07:37:43.998Z</time></trkpt><trkpt lat="44.553553" lon="4.6891273"><ele>71.0</ele><time>2026-05-02T07:37:45.998Z</time></trkpt><trkpt lat="44.5536304" lon="4.6891391"><ele>71.0</ele><time>2026-05-02T07:37:46.999Z</time></trkpt><trkpt lat="44.5537116" lon="4.6891235"><ele>71.0</ele><time>2026-05-02T07:37:47.998Z</time></trkpt><trkpt lat="44.5537941" lon="4.6890834"><ele>71.5</ele><time>2026-05-02T07:37:48.998Z</time></trkpt><trkpt lat="44.5538937" lon="4.689037"><ele>72.0</ele><time>2026-05-02T07:37:49.998Z</time></trkpt><trkpt lat="44.5540087" lon="4.6890226"><ele>72.5</ele><time>2026-05-02T07:37:50.998Z</time></trkpt><trkpt lat="44.5541347" lon="4.6890426"><ele>73.0</ele><time>2026-05-02T07:37:51.998Z</time></trkpt><trkpt lat="44.5542472" lon="4.6890942"><ele>73.0</ele><time>2026-05-02T07:37:52.998Z</time></trkpt><trkpt lat="44.5543447" lon="4.689167"><ele>73.0</ele><time>2026-05-02T07:37:53.999Z</time></trkpt><trkpt lat="44.5544232" lon="4.6892349"><ele>73.0</ele><time>2026-05-02T07:37:54.998Z</time></trkpt><trkpt lat="44.5544973" lon="4.6893146"><ele>73.0</ele><time>2026-05-02T07:37:56.997Z</time></trkpt><trkpt lat="44.5545544" lon="4.6893914"><ele>73.0</ele><time>2026-05-02T07:37:58.998Z</time></trkpt><trkpt lat="44.5545932" lon="4.6895615"><ele>73.16666666666666</ele><time>2026-05-02T07:38:00.998Z</time></trkpt><trkpt lat="44.5545797" lon="4.6896686"><ele>73.33333333333333</ele><time>2026-05-02T07:38:01.998Z</time></trkpt><trkpt lat="44.5545375" lon="4.6897699"><ele>73.5</ele><time>2026-05-02T07:38:02.998Z</time></trkpt><trkpt lat="44.5544723" lon="4.6898541"><ele>73.66666666666667</ele><time>2026-05-02T07:38:03.999Z</time></trkpt><trkpt lat="44.554392" lon="4.6899241"><ele>73.83333333333334</ele><time>2026-05-02T07:38:04.998Z</time></trkpt><trkpt lat="44.5542972" lon="4.6899877"><ele>74.0</ele><time>2026-05-02T07:38:05.998Z</time></trkpt><trkpt lat="44.5541884" lon="4.6900535"><ele>74.0</ele><time>2026-05-02T07:38:06.999Z</time></trkpt><trkpt lat="44.554081" lon="4.6901199"><ele>74.0</ele><time>2026-05-02T07:38:07.998Z</time></trkpt><trkpt lat="44.5539696" lon="4.6901927"><ele>74.0</ele><time>2026-05-02T07:38:08.999Z</time></trkpt><trkpt lat="44.5538542" lon="4.6902641"><ele>74.0</ele><time>2026-05-02T07:38:09.998Z</time></trkpt><trkpt lat="44.5537399" lon="4.6903332"><ele>73.0</ele><time>2026-05-02T07:38:10.998Z</time></trkpt><trkpt lat="44.5536234" lon="4.690399"><ele>72.0</ele><time>2026-05-02T07:38:11.999Z</time></trkpt><trkpt lat="44.553505" lon="4.6904697"><ele>71.0</ele><time>2026-05-02T07:38:12.998Z</time></trkpt><trkpt lat="44.5533853" lon="4.6905446"><ele>70.0</ele><time>2026-05-02T07:38:13.998Z</time></trkpt><trkpt lat="44.5532575" lon="4.690615"><ele>70.0</ele><time>2026-05-02T07:38:14.999Z</time></trkpt><trkpt lat="44.5531214" lon="4.6906686"><ele>70.0</ele><time>2026-05-02T07:38:15.998Z</time></trkpt><trkpt lat="44.5529775" lon="4.6906979"><ele>70.0</ele><time>2026-05-02T07:38:16.998Z</time></trkpt><trkpt lat="44.5528316" lon="4.6907121"><ele>70.0</ele><time>2026-05-02T07:38:17.998Z</time></trkpt><trkpt lat="44.5526873" lon="4.6907134"><ele>70.0</ele><time>2026-05-02T07:38:18.998Z</time></trkpt><trkpt lat="44.5525473" lon="4.6907111"><ele>70.0</ele><time>2026-05-02T07:38:19.998Z</time></trkpt><trkpt lat="44.5524066" lon="4.690703"><ele>70.0</ele><time>2026-05-02T07:38:20.998Z</time></trkpt><trkpt lat="44.5522643" lon="4.6906925"><ele>70.0</ele><time>2026-05-02T07:38:21.997Z</time></trkpt><trkpt lat="44.5521227" lon="4.6906743"><ele>69.75</ele><time>2026-05-02T07:38:22.998Z</time></trkpt><trkpt lat="44.5519819" lon="4.6906532"><ele>69.5</ele><time>2026-05-02T07:38:23.998Z</time></trkpt><trkpt lat="44.5518417" lon="4.6906253"><ele>69.25</ele><time>2026-05-02T07:38:24.998Z</time></trkpt><trkpt lat="44.5517011" lon="4.6905929"><ele>69.0</ele><time>2026-05-02T07:38:25.999Z</time></trkpt><trkpt lat="44.5515582" lon="4.6905561"><ele>69.0</ele><time>2026-05-02T07:38:26.999Z</time></trkpt><trkpt lat="44.5514164" lon="4.6905163"><ele>69.0</ele><time>2026-05-02T07:38:27.998Z</time></trkpt><trkpt lat="44.5512757" lon="4.6904734"><ele>69.0</ele><time>2026-05-02T07:38:28.998Z</time></trkpt><trkpt lat="44.5511334" lon="4.6904295"><ele>69.0</ele><time>2026-05-02T07:38:29.998Z</time></trkpt><trkpt lat="44.5509896" lon="4.6903825"><ele>68.66666666666667</ele><time>2026-05-02T07:38:30.998Z</time></trkpt><trkpt lat="44.5508407" lon="4.6903322"><ele>68.33333333333334</ele><time>2026-05-02T07:38:31.998Z</time></trkpt><trkpt lat="44.55069" lon="4.6902736"><ele>68.0</ele><time>2026-05-02T07:38:32.998Z</time></trkpt><trkpt lat="44.5505319" lon="4.6902168"><ele>68.33333333333334</ele><time>2026-05-02T07:38:33.999Z</time></trkpt><trkpt lat="44.5503666" lon="4.6901578"><ele>68.66666666666667</ele><time>2026-05-02T07:38:34.998Z</time></trkpt><trkpt lat="44.5502005" lon="4.6900969"><ele>69.0</ele><time>2026-05-02T07:38:35.998Z</time></trkpt><trkpt lat="44.5500326" lon="4.6900366"><ele>69.0</ele><time>2026-05-02T07:38:36.998Z</time></trkpt><trkpt lat="44.549864" lon="4.6899746"><ele>69.0</ele><time>2026-05-02T07:38:37.998Z</time></trkpt><trkpt lat="44.5496929" lon="4.6899138"><ele>69.0</ele><time>2026-05-02T07:38:38.999Z</time></trkpt><trkpt lat="44.5495216" lon="4.6898545"><ele>69.0</ele><time>2026-05-02T07:38:39.997Z</time></trkpt><trkpt lat="44.5493443" lon="4.689792"><ele>69.0</ele><time>2026-05-02T07:38:40.998Z</time></trkpt><trkpt lat="44.5491676" lon="4.6897276"><ele>69.0</ele><time>2026-05-02T07:38:41.998Z</time></trkpt><trkpt lat="44.5489877" lon="4.6896643"><ele>69.0</ele><time>2026-05-02T07:38:42.998Z</time></trkpt><trkpt lat="44.5488049" lon="4.6896039"><ele>69.0</ele><time>2026-05-02T07:38:43.997Z</time></trkpt><trkpt lat="44.5486156" lon="4.6895446"><ele>69.0</ele><time>2026-05-02T07:38:44.998Z</time></trkpt><trkpt lat="44.5484221" lon="4.6894893"><ele>69.0</ele><time>2026-05-02T07:38:45.998Z</time></trkpt><trkpt lat="44.5482235" lon="4.6894397"><ele>69.0</ele><time>2026-05-02T07:38:46.998Z</time></trkpt><trkpt lat="44.548019" lon="4.6893997"><ele>69.0</ele><time>2026-05-02T07:38:47.998Z</time></trkpt><trkpt lat="44.5478103" lon="4.6893669"><ele>69.33333333333333</ele><time>2026-05-02T07:38:48.998Z</time></trkpt><trkpt lat="44.5476009" lon="4.6893403"><ele>69.66666666666666</ele><time>2026-05-02T07:38:49.999Z</time></trkpt><trkpt lat="44.5473991" lon="4.6893228"><ele>70.0</ele><time>2026-05-02T07:38:50.998Z</time></trkpt><trkpt lat="44.5472052" lon="4.6893107"><ele>69.66666666666666</ele><time>2026-05-02T07:38:51.999Z</time></trkpt><trkpt lat="44.5470158" lon="4.6893045"><ele>69.33333333333333</ele><time>2026-05-02T07:38:52.998Z</time></trkpt><trkpt lat="44.5468265" lon="4.6893076"><ele>69.0</ele><time>2026-05-02T07:38:53.998Z</time></trkpt><trkpt lat="44.5466344" lon="4.6893178"><ele>69.0</ele><time>2026-05-02T07:38:54.998Z</time></trkpt><trkpt lat="44.546442" lon="4.6893373"><ele>69.0</ele><time>2026-05-02T07:38:55.998Z</time></trkpt><trkpt lat="44.5462468" lon="4.6893617"><ele>69.0</ele><time>2026-05-02T07:38:56.999Z</time></trkpt><trkpt lat="44.5460532" lon="4.6893925"><ele>68.66666666666667</ele><time>2026-05-02T07:38:57.997Z</time></trkpt><trkpt lat="44.5458605" lon="4.6894342"><ele>68.33333333333334</ele><time>2026-05-02T07:38:58.999Z</time></trkpt><trkpt lat="44.5456708" lon="4.6894807"><ele>68.0</ele><time>2026-05-02T07:38:59.998Z</time></trkpt><trkpt lat="44.54548" lon="4.6895373"><ele>68.33333333333334</ele><time>2026-05-02T07:39:00.999Z</time></trkpt><trkpt lat="44.5452886" lon="4.6895999"><ele>68.66666666666667</ele><time>2026-05-02T07:39:01.998Z</time></trkpt><trkpt lat="44.5450981" lon="4.6896701"><ele>69.0</ele><time>2026-05-02T07:39:02.998Z</time></trkpt><trkpt lat="44.5449063" lon="4.6897499"><ele>69.0</ele><time>2026-05-02T07:39:03.998Z</time></trkpt><trkpt lat="44.5447129" lon="4.6898345"><ele>69.0</ele><time>2026-05-02T07:39:04.998Z</time></trkpt><trkpt lat="44.5445177" lon="4.6899318"><ele>69.0</ele><time>2026-05-02T07:39:05.998Z</time></trkpt><trkpt lat="44.5443256" lon="4.6900337"><ele>69.33333333333333</ele><time>2026-05-02T07:39:06.998Z</time></trkpt><trkpt lat="44.5441366" lon="4.6901422"><ele>69.66666666666666</ele><time>2026-05-02T07:39:07.998Z</time></trkpt><trkpt lat="44.5439578" lon="4.6902576"><ele>70.0</ele><time>2026-05-02T07:39:08.998Z</time></trkpt><trkpt lat="44.5437866" lon="4.6903737"><ele>70.33333333333333</ele><time>2026-05-02T07:39:09.997Z</time></trkpt><trkpt lat="44.5436235" lon="4.6904869"><ele>70.66666666666667</ele><time>2026-05-02T07:39:10.998Z</time></trkpt><trkpt lat="44.5434647" lon="4.6905952"><ele>71.0</ele><time>2026-05-02T07:39:11.998Z</time></trkpt><trkpt lat="44.5433107" lon="4.6907029"><ele>71.0</ele><time>2026-05-02T07:39:12.999Z</time></trkpt><trkpt lat="44.5431543" lon="4.6908157"><ele>71.0</ele><time>2026-05-02T07:39:13.999Z</time></trkpt><trkpt lat="44.5429992" lon="4.690927"><ele>71.0</ele><time>2026-05-02T07:39:14.999Z</time></trkpt><trkpt lat="44.5428405" lon="4.6910428"><ele>72.0</ele><time>2026-05-02T07:39:15.999Z</time></trkpt><trkpt lat="44.5426771" lon="4.6911627"><ele>73.0</ele><time>2026-05-02T07:39:16.999Z</time></trkpt><trkpt lat="44.5425113" lon="4.6912871"><ele>74.0</ele><time>2026-05-02T07:39:17.998Z</time></trkpt><trkpt lat="44.5423417" lon="4.691414"><ele>74.0</ele><time>2026-05-02T07:39:18.998Z</time></trkpt><trkpt lat="44.5421676" lon="4.691542"><ele>74.0</ele><time>2026-05-02T07:39:19.998Z</time></trkpt><trkpt lat="44.5419915" lon="4.6916719"><ele>74.0</ele><time>2026-05-02T07:39:20.998Z</time></trkpt><trkpt lat="44.5418133" lon="4.6918046"><ele>73.66666666666667</ele><time>2026-05-02T07:39:21.999Z</time></trkpt><trkpt lat="44.5416337" lon="4.6919414"><ele>73.33333333333333</ele><time>2026-05-02T07:39:22.998Z</time></trkpt><trkpt lat="44.5414524" lon="4.6920827"><ele>73.0</ele><time>2026-05-02T07:39:23.999Z</time></trkpt><trkpt lat="44.54127" lon="4.6922308"><ele>72.0</ele><time>2026-05-02T07:39:24.999Z</time></trkpt><trkpt lat="44.5410854" lon="4.6923798"><ele>71.0</ele><time>2026-05-02T07:39:25.998Z</time></trkpt><trkpt lat="44.5408973" lon="4.6925275"><ele>70.0</ele><time>2026-05-02T07:39:26.997Z</time></trkpt><trkpt lat="44.5407067" lon="4.6926739"><ele>70.0</ele><time>2026-05-02T07:39:27.997Z</time></trkpt><trkpt lat="44.5405154" lon="4.6928196"><ele>70.0</ele><time>2026-05-02T07:39:28.998Z</time></trkpt><trkpt lat="44.5403291" lon="4.6929619"><ele>70.0</ele><time>2026-05-02T07:39:29.998Z</time></trkpt><trkpt lat="44.5401432" lon="4.6931022"><ele>70.0</ele><time>2026-05-02T07:39:30.997Z</time></trkpt><trkpt lat="44.5399548" lon="4.6932441"><ele>70.0</ele><time>2026-05-02T07:39:31.998Z</time></trkpt><trkpt lat="44.5397643" lon="4.6933763"><ele>70.0</ele><time>2026-05-02T07:39:32.998Z</time></trkpt><trkpt lat="44.5395732" lon="4.6935021"><ele>70.0</ele><time>2026-05-02T07:39:33.999Z</time></trkpt><trkpt lat="44.5393787" lon="4.6936234"><ele>70.0</ele><time>2026-05-02T07:39:34.998Z</time></trkpt><trkpt lat="44.5391833" lon="4.6937361"><ele>70.0</ele><time>2026-05-02T07:39:35.998Z</time></trkpt><trkpt lat="44.5389866" lon="4.6938358"><ele>70.0</ele><time>2026-05-02T07:39:36.999Z</time></trkpt><trkpt lat="44.5387881" lon="4.6939227"><ele>70.0</ele><time>2026-05-02T07:39:37.998Z</time></trkpt><trkpt lat="44.5385899" lon="4.6940012"><ele>70.0</ele><time>2026-05-02T07:39:38.998Z</time></trkpt><trkpt lat="44.5383961" lon="4.6940691"><ele>70.66666666666666</ele><time>2026-05-02T07:39:39.999Z</time></trkpt><trkpt lat="44.5382" lon="4.6941256"><ele>71.33333333333333</ele><time>2026-05-02T07:39:40.998Z</time></trkpt><trkpt lat="44.5380039" lon="4.6941717"><ele>72.0</ele><time>2026-05-02T07:39:41.998Z</time></trkpt><trkpt lat="44.5378068" lon="4.6942081"><ele>72.0</ele><time>2026-05-02T07:39:42.999Z</time></trkpt><trkpt lat="44.5376067" lon="4.6942377"><ele>72.0</ele><time>2026-05-02T07:39:43.998Z</time></trkpt><trkpt lat="44.5374037" lon="4.6942577"><ele>72.0</ele><time>2026-05-02T07:39:44.999Z</time></trkpt><trkpt lat="44.5371977" lon="4.6942663"><ele>71.33333333333333</ele><time>2026-05-02T07:39:45.998Z</time></trkpt><trkpt lat="44.53699" lon="4.6942633"><ele>70.66666666666666</ele><time>2026-05-02T07:39:46.998Z</time></trkpt><trkpt lat="44.53678" lon="4.6942516"><ele>70.0</ele><time>2026-05-02T07:39:47.999Z</time></trkpt><trkpt lat="44.5365673" lon="4.6942321"><ele>70.0</ele><time>2026-05-02T07:39:48.998Z</time></trkpt><trkpt lat="44.5363534" lon="4.6942055"><ele>70.0</ele><time>2026-05-02T07:39:49.999Z</time></trkpt><trkpt lat="44.5361406" lon="4.6941728"><ele>70.0</ele><time>2026-05-02T07:39:50.998Z</time></trkpt><trkpt lat="44.535928" lon="4.6941376"><ele>70.33333333333333</ele><time>2026-05-02T07:39:51.998Z</time></trkpt><trkpt lat="44.5357161" lon="4.6940995"><ele>70.66666666666667</ele><time>2026-05-02T07:39:52.998Z</time></trkpt><trkpt lat="44.5355035" lon="4.6940614"><ele>71.0</ele><time>2026-05-02T07:39:53.998Z</time></trkpt><trkpt lat="44.5352886" lon="4.6940215"><ele>71.0</ele><time>2026-05-02T07:39:54.998Z</time></trkpt><trkpt lat="44.5350717" lon="4.693982"><ele>71.0</ele><time>2026-05-02T07:39:55.999Z</time></trkpt><trkpt lat="44.5348508" lon="4.6939417"><ele>71.0</ele><time>2026-05-02T07:39:56.998Z</time></trkpt><trkpt lat="44.5346252" lon="4.6939002"><ele>71.0</ele><time>2026-05-02T07:39:57.998Z</time></trkpt><trkpt lat="44.5343882" lon="4.6938573"><ele>71.0</ele><time>2026-05-02T07:39:58.998Z</time></trkpt><trkpt lat="44.5341379" lon="4.6938164"><ele>71.0</ele><time>2026-05-02T07:39:59.998Z</time></trkpt><trkpt lat="44.5338764" lon="4.693777"><ele>71.0</ele><time>2026-05-02T07:40:00.998Z</time></trkpt><trkpt lat="44.5336194" lon="4.6937381"><ele>70.0</ele><time>2026-05-02T07:40:01.998Z</time></trkpt><trkpt lat="44.5333578" lon="4.6936954"><ele>69.0</ele><time>2026-05-02T07:40:02.998Z</time></trkpt><trkpt lat="44.533096" lon="4.6936478"><ele>68.5</ele><time>2026-05-02T07:40:03.998Z</time></trkpt><trkpt lat="44.5328347" lon="4.693591"><ele>68.0</ele><time>2026-05-02T07:40:04.999Z</time></trkpt><trkpt lat="44.5325756" lon="4.6935339"><ele>67.5</ele><time>2026-05-02T07:40:05.998Z</time></trkpt><trkpt lat="44.5323205" lon="4.6934795"><ele>67.0</ele><time>2026-05-02T07:40:06.998Z</time></trkpt><trkpt lat="44.5320683" lon="4.69343"><ele>67.0</ele><time>2026-05-02T07:40:07.998Z</time></trkpt><trkpt lat="44.5318189" lon="4.6933826"><ele>67.0</ele><time>2026-05-02T07:40:08.999Z</time></trkpt><trkpt lat="44.5315726" lon="4.6933362"><ele>67.0</ele><time>2026-05-02T07:40:09.999Z</time></trkpt><trkpt lat="44.531335" lon="4.6932944"><ele>67.0</ele><time>2026-05-02T07:40:10.998Z</time></trkpt><trkpt lat="44.5311064" lon="4.6932554"><ele>67.0</ele><time>2026-05-02T07:40:11.998Z</time></trkpt><trkpt lat="44.5308807" lon="4.6932149"><ele>67.0</ele><time>2026-05-02T07:40:12.998Z</time></trkpt><trkpt lat="44.530658" lon="4.693175"><ele>67.0</ele><time>2026-05-02T07:40:13.998Z</time></trkpt><trkpt lat="44.5304326" lon="4.6931341"><ele>67.0</ele><time>2026-05-02T07:40:14.999Z</time></trkpt><trkpt lat="44.5302055" lon="4.6930935"><ele>67.5</ele><time>2026-05-02T07:40:15.998Z</time></trkpt><trkpt lat="44.5299755" lon="4.6930532"><ele>68.0</ele><time>2026-05-02T07:40:16.998Z</time></trkpt><trkpt lat="44.5297449" lon="4.6930121"><ele>67.5</ele><time>2026-05-02T07:40:17.997Z</time></trkpt><trkpt lat="44.5295171" lon="4.6929711"><ele>67.0</ele><time>2026-05-02T07:40:18.998Z</time></trkpt><trkpt lat="44.529295" lon="4.6929323"><ele>67.0</ele><time>2026-05-02T07:40:19.998Z</time></trkpt><trkpt lat="44.5290822" lon="4.6928958"><ele>67.0</ele><time>2026-05-02T07:40:20.997Z</time></trkpt><trkpt lat="44.5288762" lon="4.6928584"><ele>67.0</ele><time>2026-05-02T07:40:21.998Z</time></trkpt><trkpt lat="44.5286701" lon="4.6928209"><ele>67.33333333333333</ele><time>2026-05-02T07:40:22.999Z</time></trkpt><trkpt lat="44.5284622" lon="4.6927834"><ele>67.66666666666667</ele><time>2026-05-02T07:40:23.998Z</time></trkpt><trkpt lat="44.5282555" lon="4.6927452"><ele>68.0</ele><time>2026-05-02T07:40:24.998Z</time></trkpt><trkpt lat="44.5280529" lon="4.6927072"><ele>67.66666666666667</ele><time>2026-05-02T07:40:25.999Z</time></trkpt><trkpt lat="44.5278512" lon="4.6926716"><ele>67.33333333333333</ele><time>2026-05-02T07:40:26.998Z</time></trkpt><trkpt lat="44.5276487" lon="4.6926367"><ele>67.0</ele><time>2026-05-02T07:40:27.998Z</time></trkpt><trkpt lat="44.5274434" lon="4.6926013"><ele>67.0</ele><time>2026-05-02T07:40:28.998Z</time></trkpt><trkpt lat="44.5272346" lon="4.6925649"><ele>67.0</ele><time>2026-05-02T07:40:29.998Z</time></trkpt><trkpt lat="44.5270225" lon="4.692529"><ele>67.0</ele><time>2026-05-02T07:40:30.998Z</time></trkpt><trkpt lat="44.5268072" lon="4.6924916"><ele>67.66666666666666</ele><time>2026-05-02T07:40:31.998Z</time></trkpt><trkpt lat="44.5265884" lon="4.6924565"><ele>68.33333333333333</ele><time>2026-05-02T07:40:32.998Z</time></trkpt><trkpt lat="44.5263684" lon="4.6924259"><ele>69.0</ele><time>2026-05-02T07:40:33.998Z</time></trkpt><trkpt lat="44.5261459" lon="4.6923997"><ele>69.0</ele><time>2026-05-02T07:40:34.997Z</time></trkpt><trkpt lat="44.525923" lon="4.692384"><ele>69.0</ele><time>2026-05-02T07:40:35.998Z</time></trkpt><trkpt lat="44.525701" lon="4.6923839"><ele>69.0</ele><time>2026-05-02T07:40:36.999Z</time></trkpt><trkpt lat="44.5254828" lon="4.6924062"><ele>69.33333333333333</ele><time>2026-05-02T07:40:37.998Z</time></trkpt><trkpt lat="44.5252735" lon="4.692444"><ele>69.66666666666666</ele><time>2026-05-02T07:40:38.998Z</time></trkpt><trkpt lat="44.5250774" lon="4.6924901"><ele>70.0</ele><time>2026-05-02T07:40:39.998Z</time></trkpt><trkpt lat="44.5248888" lon="4.6925247"><ele>70.0</ele><time>2026-05-02T07:40:40.998Z</time></trkpt><trkpt lat="44.524708" lon="4.6925426"><ele>70.0</ele><time>2026-05-02T07:40:41.997Z</time></trkpt><trkpt lat="44.5245355" lon="4.6925336"><ele>70.0</ele><time>2026-05-02T07:40:42.999Z</time></trkpt><trkpt lat="44.5243821" lon="4.6924957"><ele>69.8</ele><time>2026-05-02T07:40:43.998Z</time></trkpt><trkpt lat="44.5242588" lon="4.6924418"><ele>69.6</ele><time>2026-05-02T07:40:44.998Z</time></trkpt><trkpt lat="44.5241578" lon="4.6923815"><ele>69.4</ele><time>2026-05-02T07:40:45.998Z</time></trkpt><trkpt lat="44.5240697" lon="4.6923068"><ele>69.2</ele><time>2026-05-02T07:40:46.998Z</time></trkpt><trkpt lat="44.5239993" lon="4.6922149"><ele>69.0</ele><time>2026-05-02T07:40:47.999Z</time></trkpt><trkpt lat="44.5239508" lon="4.6921147"><ele>69.0</ele><time>2026-05-02T07:40:48.999Z</time></trkpt><trkpt lat="44.5239082" lon="4.6920007"><ele>69.0</ele><time>2026-05-02T07:40:49.998Z</time></trkpt><trkpt lat="44.5238624" lon="4.6918999"><ele>69.0</ele><time>2026-05-02T07:40:50.999Z</time></trkpt><trkpt lat="44.523806" lon="4.6918147"><ele>69.0</ele><time>2026-05-02T07:40:51.999Z</time></trkpt><trkpt lat="44.5237366" lon="4.6917582"><ele>69.0</ele><time>2026-05-02T07:40:52.997Z</time></trkpt><trkpt lat="44.5236621" lon="4.6917279"><ele>69.0</ele><time>2026-05-02T07:40:53.998Z</time></trkpt><trkpt lat="44.5235831" lon="4.6917281"><ele>69.0</ele><time>2026-05-02T07:40:54.999Z</time></trkpt><trkpt lat="44.5235033" lon="4.691761"><ele>69.0</ele><time>2026-05-02T07:40:55.999Z</time></trkpt><trkpt lat="44.5234257" lon="4.6918264"><ele>69.0</ele><time>2026-05-02T07:40:56.998Z</time></trkpt><trkpt lat="44.5233415" lon="4.6918962"><ele>69.0</ele><time>2026-05-02T07:40:57.999Z</time></trkpt><trkpt lat="44.5232414" lon="4.6919426"><ele>69.0</ele><time>2026-05-02T07:40:58.999Z</time></trkpt><trkpt lat="44.5231274" lon="4.6919353"><ele>69.5</ele><time>2026-05-02T07:40:59.997Z</time></trkpt><trkpt lat="44.5230159" lon="4.6918903"><ele>70.0</ele><time>2026-05-02T07:41:00.997Z</time></trkpt><trkpt lat="44.5229026" lon="4.691819"><ele>70.5</ele><time>2026-05-02T07:41:01.998Z</time></trkpt><trkpt lat="44.5227778" lon="4.6917347"><ele>71.0</ele><time>2026-05-02T07:41:02.998Z</time></trkpt><trkpt lat="44.5226419" lon="4.6916499"><ele>71.0</ele><time>2026-05-02T07:41:03.997Z</time></trkpt><trkpt lat="44.5225037" lon="4.6915788"><ele>71.0</ele><time>2026-05-02T07:41:04.999Z</time></trkpt><trkpt lat="44.5223588" lon="4.6915192"><ele>71.0</ele><time>2026-05-02T07:41:05.998Z</time></trkpt><trkpt lat="44.5222075" lon="4.6914688"><ele>71.66666666666667</ele><time>2026-05-02T07:41:06.998Z</time></trkpt><trkpt lat="44.5220512" lon="4.6914238"><ele>72.33333333333333</ele><time>2026-05-02T07:41:07.999Z</time></trkpt><trkpt lat="44.5218965" lon="4.6913834"><ele>73.0</ele><time>2026-05-02T07:41:08.998Z</time></trkpt><trkpt lat="44.5217368" lon="4.6913457"><ele>73.0</ele><time>2026-05-02T07:41:09.999Z</time></trkpt><trkpt lat="44.5215743" lon="4.6913099"><ele>73.0</ele><time>2026-05-02T07:41:10.998Z</time></trkpt><trkpt lat="44.5214109" lon="4.691272"><ele>73.0</ele><time>2026-05-02T07:41:11.998Z</time></trkpt><trkpt lat="44.521255" lon="4.6912332"><ele>72.66666666666666</ele><time>2026-05-02T07:41:12.998Z</time></trkpt><trkpt lat="44.5211001" lon="4.6911918"><ele>72.33333333333333</ele><time>2026-05-02T07:41:13.998Z</time></trkpt><trkpt lat="44.5209456" lon="4.6911452"><ele>72.0</ele><time>2026-05-02T07:41:14.998Z</time></trkpt><trkpt lat="44.5207915" lon="4.6910997"><ele>73.66666666666667</ele><time>2026-05-02T07:41:15.998Z</time></trkpt><trkpt lat="44.5206373" lon="4.6910456"><ele>75.33333333333334</ele><time>2026-05-02T07:41:16.999Z</time></trkpt><trkpt lat="44.5204876" lon="4.6909894"><ele>77.0</ele><time>2026-05-02T07:41:17.998Z</time></trkpt><trkpt lat="44.5203426" lon="4.6909336"><ele>77.0</ele><time>2026-05-02T07:41:18.998Z</time></trkpt><trkpt lat="44.5202041" lon="4.6908735"><ele>77.0</ele><time>2026-05-02T07:41:19.998Z</time></trkpt><trkpt lat="44.5200708" lon="4.6908058"><ele>77.0</ele><time>2026-05-02T07:41:20.998Z</time></trkpt><trkpt lat="44.5199429" lon="4.6907368"><ele>77.0</ele><time>2026-05-02T07:41:21.999Z</time></trkpt><trkpt lat="44.5198179" lon="4.6906718"><ele>77.0</ele><time>2026-05-02T07:41:22.999Z</time></trkpt><trkpt lat="44.5196981" lon="4.6906038"><ele>77.0</ele><time>2026-05-02T07:41:23.998Z</time></trkpt><trkpt lat="44.5195791" lon="4.6905329"><ele>77.0</ele><time>2026-05-02T07:41:24.999Z</time></trkpt><trkpt lat="44.519461" lon="4.6904537"><ele>77.0</ele><time>2026-05-02T07:41:25.998Z</time></trkpt><trkpt lat="44.5193383" lon="4.6903623"><ele>76.0</ele><time>2026-05-02T07:41:26.997Z</time></trkpt><trkpt lat="44.5192084" lon="4.6902603"><ele>75.0</ele><time>2026-05-02T07:41:27.999Z</time></trkpt><trkpt lat="44.5190763" lon="4.6901426"><ele>74.0</ele><time>2026-05-02T07:41:28.998Z</time></trkpt><trkpt lat="44.518937" lon="4.6900147"><ele>74.0</ele><time>2026-05-02T07:41:29.997Z</time></trkpt><trkpt lat="44.518794" lon="4.6898821"><ele>74.0</ele><time>2026-05-02T07:41:30.998Z</time></trkpt><trkpt lat="44.5186523" lon="4.6897438"><ele>74.0</ele><time>2026-05-02T07:41:31.997Z</time></trkpt><trkpt lat="44.5185176" lon="4.6896009"><ele>73.33333333333334</ele><time>2026-05-02T07:41:32.997Z</time></trkpt><trkpt lat="44.518391" lon="4.6894601"><ele>72.66666666666667</ele><time>2026-05-02T07:41:33.997Z</time></trkpt><trkpt lat="44.518271" lon="4.6893225"><ele>72.0</ele><time>2026-05-02T07:41:34.998Z</time></trkpt><trkpt lat="44.5181589" lon="4.6891872"><ele>71.66666666666667</ele><time>2026-05-02T07:41:35.997Z</time></trkpt><trkpt lat="44.5180471" lon="4.6890475"><ele>71.33333333333334</ele><time>2026-05-02T07:41:36.998Z</time></trkpt><trkpt lat="44.5179317" lon="4.6889051"><ele>71.0</ele><time>2026-05-02T07:41:37.996Z</time></trkpt><trkpt lat="44.5178107" lon="4.6887645"><ele>71.0</ele><time>2026-05-02T07:41:38.997Z</time></trkpt><trkpt lat="44.5176837" lon="4.6886329"><ele>71.0</ele><time>2026-05-02T07:41:39.997Z</time></trkpt><trkpt lat="44.5175488" lon="4.6885027"><ele>71.0</ele><time>2026-05-02T07:41:40.998Z</time></trkpt><trkpt lat="44.5174075" lon="4.6883672"><ele>72.66666666666667</ele><time>2026-05-02T07:41:41.997Z</time></trkpt><trkpt lat="44.5172629" lon="4.6882208"><ele>74.33333333333333</ele><time>2026-05-02T07:41:42.998Z</time></trkpt><trkpt lat="44.5171176" lon="4.6880648"><ele>76.0</ele><time>2026-05-02T07:41:43.997Z</time></trkpt><trkpt lat="44.5169704" lon="4.6879035"><ele>78.0</ele><time>2026-05-02T07:41:44.997Z</time></trkpt><trkpt lat="44.5168205" lon="4.6877377"><ele>80.0</ele><time>2026-05-02T07:41:45.997Z</time></trkpt><trkpt lat="44.5166698" lon="4.6875709"><ele>82.0</ele><time>2026-05-02T07:41:46.997Z</time></trkpt><trkpt lat="44.5165212" lon="4.6874027"><ele>82.0</ele><time>2026-05-02T07:41:47.997Z</time></trkpt><trkpt lat="44.5163722" lon="4.6872324"><ele>82.0</ele><time>2026-05-02T07:41:48.998Z</time></trkpt><trkpt lat="44.5162186" lon="4.6870583"><ele>82.0</ele><time>2026-05-02T07:41:49.997Z</time></trkpt><trkpt lat="44.5160664" lon="4.6868865"><ele>81.33333333333333</ele><time>2026-05-02T07:41:50.997Z</time></trkpt><trkpt lat="44.5159104" lon="4.6867123"><ele>80.66666666666667</ele><time>2026-05-02T07:41:51.998Z</time></trkpt><trkpt lat="44.5157538" lon="4.6865381"><ele>80.0</ele><time>2026-05-02T07:41:52.997Z</time></trkpt><trkpt lat="44.515599" lon="4.6863648"><ele>80.0</ele><time>2026-05-02T07:41:53.996Z</time></trkpt><trkpt lat="44.515444" lon="4.6861939"><ele>80.0</ele><time>2026-05-02T07:41:54.997Z</time></trkpt><trkpt lat="44.5152876" lon="4.6860291"><ele>80.0</ele><time>2026-05-02T07:41:55.997Z</time></trkpt><trkpt lat="44.5151331" lon="4.6858656"><ele>79.33333333333334</ele><time>2026-05-02T07:41:56.997Z</time></trkpt><trkpt lat="44.5149774" lon="4.685701"><ele>78.66666666666667</ele><time>2026-05-02T07:41:57.998Z</time></trkpt><trkpt lat="44.5148205" lon="4.6855346"><ele>78.0</ele><time>2026-05-02T07:41:58.998Z</time></trkpt><trkpt lat="44.5146633" lon="4.6853668"><ele>79.0</ele><time>2026-05-02T07:41:59.997Z</time></trkpt><trkpt lat="44.5145043" lon="4.685199"><ele>80.0</ele><time>2026-05-02T07:42:00.997Z</time></trkpt><trkpt lat="44.5143468" lon="4.6850311"><ele>81.0</ele><time>2026-05-02T07:42:01.998Z</time></trkpt><trkpt lat="44.5141913" lon="4.6848608"><ele>81.0</ele><time>2026-05-02T07:42:02.997Z</time></trkpt><trkpt lat="44.5140364" lon="4.6846862"><ele>81.0</ele><time>2026-05-02T07:42:03.997Z</time></trkpt><trkpt lat="44.513884" lon="4.6845003"><ele>81.0</ele><time>2026-05-02T07:42:04.997Z</time></trkpt><trkpt lat="44.5137344" lon="4.6843072"><ele>80.66666666666667</ele><time>2026-05-02T07:42:05.998Z</time></trkpt><trkpt lat="44.5135851" lon="4.6841077"><ele>80.33333333333334</ele><time>2026-05-02T07:42:06.998Z</time></trkpt><trkpt lat="44.5134348" lon="4.6839082"><ele>80.0</ele><time>2026-05-02T07:42:07.997Z</time></trkpt><trkpt lat="44.513285" lon="4.6837089"><ele>79.0</ele><time>2026-05-02T07:42:08.998Z</time></trkpt><trkpt lat="44.5131402" lon="4.6835143"><ele>78.0</ele><time>2026-05-02T07:42:09.996Z</time></trkpt><trkpt lat="44.5129972" lon="4.6833235"><ele>77.0</ele><time>2026-05-02T07:42:10.997Z</time></trkpt><trkpt lat="44.512852" lon="4.6831394"><ele>77.0</ele><time>2026-05-02T07:42:11.998Z</time></trkpt><trkpt lat="44.5126964" lon="4.6829621"><ele>77.0</ele><time>2026-05-02T07:42:12.997Z</time></trkpt><trkpt lat="44.5125299" lon="4.6828014"><ele>77.0</ele><time>2026-05-02T07:42:13.998Z</time></trkpt><trkpt lat="44.512356" lon="4.6826618"><ele>76.66666666666667</ele><time>2026-05-02T07:42:14.997Z</time></trkpt><trkpt lat="44.5121734" lon="4.6825423"><ele>76.33333333333333</ele><time>2026-05-02T07:42:15.997Z</time></trkpt><trkpt lat="44.5119831" lon="4.6824396"><ele>76.0</ele><time>2026-05-02T07:42:16.998Z</time></trkpt><trkpt lat="44.5117829" lon="4.6823577"><ele>76.0</ele><time>2026-05-02T07:42:17.997Z</time></trkpt><trkpt lat="44.5115751" lon="4.6822899"><ele>76.0</ele><time>2026-05-02T07:42:18.997Z</time></trkpt><trkpt lat="44.5113611" lon="4.6822278"><ele>76.0</ele><time>2026-05-02T07:42:19.997Z</time></trkpt><trkpt lat="44.5111442" lon="4.6821661"><ele>73.0</ele><time>2026-05-02T07:42:20.997Z</time></trkpt><trkpt lat="44.5109283" lon="4.6821032"><ele>70.0</ele><time>2026-05-02T07:42:21.997Z</time></trkpt><trkpt lat="44.5107132" lon="4.6820434"><ele>67.0</ele><time>2026-05-02T07:42:22.997Z</time></trkpt><trkpt lat="44.5105008" lon="4.6819835"><ele>70.0</ele><time>2026-05-02T07:42:23.997Z</time></trkpt><trkpt lat="44.5102915" lon="4.6819254"><ele>73.0</ele><time>2026-05-02T07:42:24.998Z</time></trkpt><trkpt lat="44.5100886" lon="4.6818699"><ele>76.0</ele><time>2026-05-02T07:42:25.998Z</time></trkpt><trkpt lat="44.5098904" lon="4.6818144"><ele>76.0</ele><time>2026-05-02T07:42:26.997Z</time></trkpt><trkpt lat="44.5096971" lon="4.6817598"><ele>76.0</ele><time>2026-05-02T07:42:27.997Z</time></trkpt><trkpt lat="44.5095074" lon="4.681704"><ele>76.0</ele><time>2026-05-02T07:42:28.997Z</time></trkpt><trkpt lat="44.509318" lon="4.6816473"><ele>74.0</ele><time>2026-05-02T07:42:29.996Z</time></trkpt><trkpt lat="44.5091273" lon="4.6815914"><ele>72.0</ele><time>2026-05-02T07:42:30.998Z</time></trkpt><trkpt lat="44.5089318" lon="4.681548"><ele>70.0</ele><time>2026-05-02T07:42:31.997Z</time></trkpt><trkpt lat="44.508734" lon="4.6815205"><ele>69.33333333333333</ele><time>2026-05-02T07:42:32.998Z</time></trkpt><trkpt lat="44.5085325" lon="4.6815197"><ele>68.66666666666667</ele><time>2026-05-02T07:42:33.997Z</time></trkpt><trkpt lat="44.5083322" lon="4.6815417"><ele>68.0</ele><time>2026-05-02T07:42:34.997Z</time></trkpt><trkpt lat="44.5081363" lon="4.6815991"><ele>68.0</ele><time>2026-05-02T07:42:35.998Z</time></trkpt><trkpt lat="44.5079429" lon="4.6816887"><ele>68.0</ele><time>2026-05-02T07:42:36.997Z</time></trkpt><trkpt lat="44.507754" lon="4.6818102"><ele>68.0</ele><time>2026-05-02T07:42:37.997Z</time></trkpt><trkpt lat="44.5075729" lon="4.6819654"><ele>66.33333333333334</ele><time>2026-05-02T07:42:38.997Z</time></trkpt><trkpt lat="44.507404" lon="4.6821433"><ele>64.66666666666667</ele><time>2026-05-02T07:42:39.998Z</time></trkpt><trkpt lat="44.5072452" lon="4.6823412"><ele>63.0</ele><time>2026-05-02T07:42:40.997Z</time></trkpt><trkpt lat="44.5070869" lon="4.6825419"><ele>64.33333333333333</ele><time>2026-05-02T07:42:41.997Z</time></trkpt><trkpt lat="44.5069328" lon="4.6827409"><ele>65.66666666666666</ele><time>2026-05-02T07:42:42.997Z</time></trkpt><trkpt lat="44.5067819" lon="4.6829404"><ele>67.0</ele><time>2026-05-02T07:42:43.998Z</time></trkpt><trkpt lat="44.5066306" lon="4.6831299"><ele>67.0</ele><time>2026-05-02T07:42:44.997Z</time></trkpt><trkpt lat="44.5064805" lon="4.6833038"><ele>67.0</ele><time>2026-05-02T07:42:45.998Z</time></trkpt><trkpt lat="44.506326" lon="4.6834546"><ele>67.0</ele><time>2026-05-02T07:42:46.997Z</time></trkpt><trkpt lat="44.5061619" lon="4.6835912"><ele>66.66666666666666</ele><time>2026-05-02T07:42:47.997Z</time></trkpt><trkpt lat="44.5059929" lon="4.6837156"><ele>66.33333333333333</ele><time>2026-05-02T07:42:48.997Z</time></trkpt><trkpt lat="44.5058292" lon="4.6838266"><ele>66.0</ele><time>2026-05-02T07:42:49.997Z</time></trkpt><trkpt lat="44.5056756" lon="4.6839308"><ele>66.0</ele><time>2026-05-02T07:42:50.997Z</time></trkpt><trkpt lat="44.505538" lon="4.6840226"><ele>66.0</ele><time>2026-05-02T07:42:51.997Z</time></trkpt><trkpt lat="44.5054159" lon="4.6841008"><ele>66.0</ele><time>2026-05-02T07:42:52.997Z</time></trkpt><trkpt lat="44.5053094" lon="4.6841674"><ele>66.0</ele><time>2026-05-02T07:42:53.997Z</time></trkpt><trkpt lat="44.5052076" lon="4.6842313"><ele>66.5</ele><time>2026-05-02T07:42:54.998Z</time></trkpt><trkpt lat="44.5051076" lon="4.6842921"><ele>67.0</ele><time>2026-05-02T07:42:55.997Z</time></trkpt><trkpt lat="44.5050037" lon="4.6843395"><ele>67.5</ele><time>2026-05-02T07:42:56.996Z</time></trkpt><trkpt lat="44.5048916" lon="4.6843575"><ele>68.0</ele><time>2026-05-02T07:42:57.997Z</time></trkpt><trkpt lat="44.5047679" lon="4.68433"><ele>68.0</ele><time>2026-05-02T07:42:58.997Z</time></trkpt><trkpt lat="44.5046374" lon="4.6842646"><ele>68.0</ele><time>2026-05-02T07:42:59.997Z</time></trkpt><trkpt lat="44.5044967" lon="4.6841823"><ele>68.0</ele><time>2026-05-02T07:43:00.997Z</time></trkpt><trkpt lat="44.5043375" lon="4.6841076"><ele>67.66666666666667</ele><time>2026-05-02T07:43:01.997Z</time></trkpt><trkpt lat="44.5041666" lon="4.6840468"><ele>67.33333333333333</ele><time>2026-05-02T07:43:02.997Z</time></trkpt><trkpt lat="44.5039843" lon="4.6839944"><ele>67.0</ele><time>2026-05-02T07:43:03.997Z</time></trkpt><trkpt lat="44.5037949" lon="4.6839512"><ele>67.66666666666666</ele><time>2026-05-02T07:43:04.997Z</time></trkpt><trkpt lat="44.5036019" lon="4.6839264"><ele>68.33333333333333</ele><time>2026-05-02T07:43:05.998Z</time></trkpt><trkpt lat="44.503408" lon="4.6839117"><ele>69.0</ele><time>2026-05-02T07:43:06.997Z</time></trkpt><trkpt lat="44.5032131" lon="4.6838967"><ele>69.0</ele><time>2026-05-02T07:43:07.997Z</time></trkpt><trkpt lat="44.5030148" lon="4.683884"><ele>69.0</ele><time>2026-05-02T07:43:08.997Z</time></trkpt><trkpt lat="44.5028143" lon="4.683871"><ele>69.0</ele><time>2026-05-02T07:43:09.997Z</time></trkpt><trkpt lat="44.5026142" lon="4.6838584"><ele>69.0</ele><time>2026-05-02T07:43:10.996Z</time></trkpt><trkpt lat="44.5024172" lon="4.6838478"><ele>69.0</ele><time>2026-05-02T07:43:11.996Z</time></trkpt><trkpt lat="44.5022295" lon="4.683838"><ele>69.0</ele><time>2026-05-02T07:43:12.997Z</time></trkpt><trkpt lat="44.5020504" lon="4.6838286"><ele>69.0</ele><time>2026-05-02T07:43:13.998Z</time></trkpt><trkpt lat="44.5018786" lon="4.683818"><ele>69.0</ele><time>2026-05-02T07:43:14.997Z</time></trkpt><trkpt lat="44.5017089" lon="4.6838068"><ele>69.0</ele><time>2026-05-02T07:43:15.997Z</time></trkpt><trkpt lat="44.5015286" lon="4.6837926"><ele>69.0</ele><time>2026-05-02T07:43:16.997Z</time></trkpt><trkpt lat="44.5013437" lon="4.6837691"><ele>69.0</ele><time>2026-05-02T07:43:17.997Z</time></trkpt><trkpt lat="44.5011573" lon="4.6837296"><ele>69.0</ele><time>2026-05-02T07:43:18.997Z</time></trkpt><trkpt lat="44.5009714" lon="4.6836704"><ele>73.66666666666667</ele><time>2026-05-02T07:43:19.997Z</time></trkpt><trkpt lat="44.5007872" lon="4.6835939"><ele>78.33333333333334</ele><time>2026-05-02T07:43:20.998Z</time></trkpt><trkpt lat="44.5006083" lon="4.6835034"><ele>83.0</ele><time>2026-05-02T07:43:21.997Z</time></trkpt><trkpt lat="44.5004369" lon="4.6834043"><ele>79.0</ele><time>2026-05-02T07:43:22.997Z</time></trkpt><trkpt lat="44.5002758" lon="4.6833056"><ele>75.0</ele><time>2026-05-02T07:43:23.998Z</time></trkpt><trkpt lat="44.5001239" lon="4.68321"><ele>71.0</ele><time>2026-05-02T07:43:24.998Z</time></trkpt><trkpt lat="44.4999751" lon="4.6831189"><ele>71.0</ele><time>2026-05-02T07:43:25.998Z</time></trkpt><trkpt lat="44.4998209" lon="4.6830254"><ele>71.0</ele><time>2026-05-02T07:43:26.998Z</time></trkpt><trkpt lat="44.4996644" lon="4.6829284"><ele>71.0</ele><time>2026-05-02T07:43:27.997Z</time></trkpt><trkpt lat="44.49951" lon="4.6828309"><ele>72.0</ele><time>2026-05-02T07:43:28.998Z</time></trkpt><trkpt lat="44.4993555" lon="4.6827346"><ele>73.0</ele><time>2026-05-02T07:43:29.998Z</time></trkpt><trkpt lat="44.4991994" lon="4.682638"><ele>74.0</ele><time>2026-05-02T07:43:30.997Z</time></trkpt><trkpt lat="44.4990438" lon="4.6825407"><ele>74.0</ele><time>2026-05-02T07:43:31.998Z</time></trkpt><trkpt lat="44.4988892" lon="4.6824436"><ele>74.0</ele><time>2026-05-02T07:43:32.997Z</time></trkpt><trkpt lat="44.4987334" lon="4.6823487"><ele>74.0</ele><time>2026-05-02T07:43:33.997Z</time></trkpt><trkpt lat="44.4985725" lon="4.6822496"><ele>71.33333333333334</ele><time>2026-05-02T07:43:34.997Z</time></trkpt><trkpt lat="44.4984062" lon="4.6821469"><ele>68.66666666666667</ele><time>2026-05-02T07:43:35.998Z</time></trkpt><trkpt lat="44.4982323" lon="4.682041"><ele>66.0</ele><time>2026-05-02T07:43:36.997Z</time></trkpt><trkpt lat="44.4980524" lon="4.6819334"><ele>67.66666666666667</ele><time>2026-05-02T07:43:37.998Z</time></trkpt><trkpt lat="44.4978666" lon="4.6818214"><ele>69.33333333333334</ele><time>2026-05-02T07:43:38.998Z</time></trkpt><trkpt lat="44.4976736" lon="4.6817089"><ele>71.0</ele><time>2026-05-02T07:43:39.997Z</time></trkpt><trkpt lat="44.4974748" lon="4.6816022"><ele>71.0</ele><time>2026-05-02T07:43:40.997Z</time></trkpt><trkpt lat="44.497276" lon="4.6814979"><ele>71.0</ele><time>2026-05-02T07:43:41.998Z</time></trkpt><trkpt lat="44.4970772" lon="4.6813967"><ele>71.0</ele><time>2026-05-02T07:43:42.998Z</time></trkpt><trkpt lat="44.4968815" lon="4.6813003"><ele>70.0</ele><time>2026-05-02T07:43:43.997Z</time></trkpt><trkpt lat="44.4966853" lon="4.6812061"><ele>69.0</ele><time>2026-05-02T07:43:44.998Z</time></trkpt><trkpt lat="44.4964906" lon="4.6811121"><ele>68.0</ele><time>2026-05-02T07:43:45.997Z</time></trkpt><trkpt lat="44.4962998" lon="4.6810236"><ele>69.0</ele><time>2026-05-02T07:43:46.997Z</time></trkpt><trkpt lat="44.4961126" lon="4.6809432"><ele>70.0</ele><time>2026-05-02T07:43:47.996Z</time></trkpt><trkpt lat="44.495926" lon="4.6808688"><ele>71.0</ele><time>2026-05-02T07:43:48.997Z</time></trkpt><trkpt lat="44.495741" lon="4.6808032"><ele>71.0</ele><time>2026-05-02T07:43:49.997Z</time></trkpt><trkpt lat="44.4955563" lon="4.6807525"><ele>71.0</ele><time>2026-05-02T07:43:50.997Z</time></trkpt><trkpt lat="44.4953718" lon="4.6807142"><ele>71.0</ele><time>2026-05-02T07:43:51.998Z</time></trkpt><trkpt lat="44.4951946" lon="4.6806838"><ele>70.0</ele><time>2026-05-02T07:43:52.997Z</time></trkpt><trkpt lat="44.4950342" lon="4.6806586"><ele>69.0</ele><time>2026-05-02T07:43:53.997Z</time></trkpt><trkpt lat="44.4948964" lon="4.6806376"><ele>68.0</ele><time>2026-05-02T07:43:54.997Z</time></trkpt><trkpt lat="44.4947764" lon="4.6806209"><ele>67.0</ele><time>2026-05-02T07:43:55.998Z</time></trkpt><trkpt lat="44.4946677" lon="4.680602"><ele>66.8</ele><time>2026-05-02T07:43:56.996Z</time></trkpt><trkpt lat="44.494565" lon="4.6805662"><ele>66.6</ele><time>2026-05-02T07:43:57.997Z</time></trkpt><trkpt lat="44.4944767" lon="4.6805006"><ele>66.39999999999999</ele><time>2026-05-02T07:43:58.997Z</time></trkpt><trkpt lat="44.494414" lon="4.6804047"><ele>66.2</ele><time>2026-05-02T07:43:59.997Z</time></trkpt><trkpt lat="44.4943689" lon="4.6802971"><ele>66.0</ele><time>2026-05-02T07:44:00.997Z</time></trkpt><trkpt lat="44.4943247" lon="4.6801868"><ele>67.0</ele><time>2026-05-02T07:44:01.996Z</time></trkpt><trkpt lat="44.4942628" lon="4.6800971"><ele>68.0</ele><time>2026-05-02T07:44:02.997Z</time></trkpt><trkpt lat="44.4941798" lon="4.6800223"><ele>69.0</ele><time>2026-05-02T07:44:03.997Z</time></trkpt><trkpt lat="44.4940775" lon="4.6799689"><ele>70.0</ele><time>2026-05-02T07:44:04.997Z</time></trkpt><trkpt lat="44.4939578" lon="4.6799271"><ele>71.0</ele><time>2026-05-02T07:44:05.997Z</time></trkpt><trkpt lat="44.4938296" lon="4.6798891"><ele>70.5</ele><time>2026-05-02T07:44:06.997Z</time></trkpt><trkpt lat="44.4937057" lon="4.6798485"><ele>70.0</ele><time>2026-05-02T07:44:07.998Z</time></trkpt><trkpt lat="44.493584" lon="4.679808"><ele>69.5</ele><time>2026-05-02T07:44:08.997Z</time></trkpt><trkpt lat="44.4934646" lon="4.6797622"><ele>69.0</ele><time>2026-05-02T07:44:09.997Z</time></trkpt><trkpt lat="44.4933481" lon="4.6797056"><ele>69.0</ele><time>2026-05-02T07:44:10.996Z</time></trkpt><trkpt lat="44.4932333" lon="4.6796396"><ele>69.0</ele><time>2026-05-02T07:44:11.998Z</time></trkpt><trkpt lat="44.4931202" lon="4.6795655"><ele>69.0</ele><time>2026-05-02T07:44:12.997Z</time></trkpt><trkpt lat="44.4930014" lon="4.6794825"><ele>69.0</ele><time>2026-05-02T07:44:13.998Z</time></trkpt><trkpt lat="44.4928709" lon="4.6793834"><ele>70.25</ele><time>2026-05-02T07:44:14.998Z</time></trkpt><trkpt lat="44.4927374" lon="4.6792742"><ele>71.5</ele><time>2026-05-02T07:44:15.997Z</time></trkpt><trkpt lat="44.4926132" lon="4.6791667"><ele>72.75</ele><time>2026-05-02T07:44:16.997Z</time></trkpt><trkpt lat="44.4924976" lon="4.6790638"><ele>74.0</ele><time>2026-05-02T07:44:17.998Z</time></trkpt><trkpt lat="44.4923931" lon="4.6789689"><ele>74.0</ele><time>2026-05-02T07:44:18.998Z</time></trkpt><trkpt lat="44.4922926" lon="4.6788812"><ele>74.0</ele><time>2026-05-02T07:44:19.997Z</time></trkpt><trkpt lat="44.4921981" lon="4.6787983"><ele>74.0</ele><time>2026-05-02T07:44:20.997Z</time></trkpt><trkpt lat="44.4921024" lon="4.6787134"><ele>74.0</ele><time>2026-05-02T07:44:21.996Z</time></trkpt><trkpt lat="44.4920034" lon="4.6786236"><ele>75.5</ele><time>2026-05-02T07:44:22.997Z</time></trkpt><trkpt lat="44.4919008" lon="4.6785302"><ele>77.0</ele><time>2026-05-02T07:44:23.996Z</time></trkpt><trkpt lat="44.4917961" lon="4.6784368"><ele>78.5</ele><time>2026-05-02T07:44:24.997Z</time></trkpt><trkpt lat="44.491694" lon="4.6783477"><ele>80.0</ele><time>2026-05-02T07:44:25.997Z</time></trkpt><trkpt lat="44.4915949" lon="4.6782595"><ele>80.0</ele><time>2026-05-02T07:44:26.997Z</time></trkpt><trkpt lat="44.4914964" lon="4.6781712"><ele>80.0</ele><time>2026-05-02T07:44:27.997Z</time></trkpt><trkpt lat="44.4913965" lon="4.6780824"><ele>80.0</ele><time>2026-05-02T07:44:28.996Z</time></trkpt><trkpt lat="44.4912935" lon="4.6779927"><ele>80.0</ele><time>2026-05-02T07:44:29.997Z</time></trkpt><trkpt lat="44.4911939" lon="4.6779049"><ele>79.5</ele><time>2026-05-02T07:44:30.997Z</time></trkpt><trkpt lat="44.4910925" lon="4.6778139"><ele>79.0</ele><time>2026-05-02T07:44:31.997Z</time></trkpt><trkpt lat="44.4909903" lon="4.6777201"><ele>78.5</ele><time>2026-05-02T07:44:32.997Z</time></trkpt><trkpt lat="44.4908845" lon="4.6776237"><ele>78.0</ele><time>2026-05-02T07:44:33.996Z</time></trkpt><trkpt lat="44.4907745" lon="4.6775227"><ele>78.0</ele><time>2026-05-02T07:44:34.998Z</time></trkpt><trkpt lat="44.4906635" lon="4.6774184"><ele>78.0</ele><time>2026-05-02T07:44:35.997Z</time></trkpt><trkpt lat="44.4905502" lon="4.6773159"><ele>78.0</ele><time>2026-05-02T07:44:36.998Z</time></trkpt><trkpt lat="44.4904356" lon="4.6772153"><ele>78.0</ele><time>2026-05-02T07:44:37.998Z</time></trkpt><trkpt lat="44.4903238" lon="4.6771153"><ele>78.0</ele><time>2026-05-02T07:44:38.997Z</time></trkpt><trkpt lat="44.4902127" lon="4.6770164"><ele>78.0</ele><time>2026-05-02T07:44:39.998Z</time></trkpt><trkpt lat="44.4901033" lon="4.6769216"><ele>78.0</ele><time>2026-05-02T07:44:40.997Z</time></trkpt><trkpt lat="44.4899987" lon="4.6768324"><ele>78.0</ele><time>2026-05-02T07:44:41.997Z</time></trkpt><trkpt lat="44.4898984" lon="4.676746"><ele>78.0</ele><time>2026-05-02T07:44:42.997Z</time></trkpt><trkpt lat="44.4897996" lon="4.6766588"><ele>78.0</ele><time>2026-05-02T07:44:43.997Z</time></trkpt><trkpt lat="44.4897045" lon="4.6765721"><ele>78.0</ele><time>2026-05-02T07:44:44.997Z</time></trkpt><trkpt lat="44.4896097" lon="4.6764886"><ele>78.0</ele><time>2026-05-02T07:44:45.997Z</time></trkpt><trkpt lat="44.4895141" lon="4.6764063"><ele>77.6</ele><time>2026-05-02T07:44:46.997Z</time></trkpt><trkpt lat="44.4894205" lon="4.6763165"><ele>77.19999999999999</ele><time>2026-05-02T07:44:47.996Z</time></trkpt><trkpt lat="44.4893312" lon="4.6762218"><ele>76.8</ele><time>2026-05-02T07:44:48.998Z</time></trkpt><trkpt lat="44.4892498" lon="4.6761274"><ele>76.39999999999999</ele><time>2026-05-02T07:44:49.997Z</time></trkpt><trkpt lat="44.4891895" lon="4.6760417"><ele>76.0</ele><time>2026-05-02T07:44:50.998Z</time></trkpt><trkpt lat="44.4891475" lon="4.6759725"><ele>76.0</ele><time>2026-05-02T07:44:51.997Z</time></trkpt><trkpt lat="44.4890931" lon="4.6758672"><ele>76.0</ele><time>2026-05-02T07:44:53.996Z</time></trkpt><trkpt lat="44.4890555" lon="4.6757748"><ele>76.0</ele><time>2026-05-02T07:44:55.997Z</time></trkpt><trkpt lat="44.4890203" lon="4.675663"><ele>76.0</ele><time>2026-05-02T07:44:57.997Z</time></trkpt><trkpt lat="44.4889859" lon="4.6755562"><ele>76.0</ele><time>2026-05-02T07:44:59.997Z</time></trkpt><trkpt lat="44.4889636" lon="4.6754718"><ele>76.0</ele><time>2026-05-02T07:45:01.997Z</time></trkpt><trkpt lat="44.4889505" lon="4.6753628"><ele>76.0</ele><time>2026-05-02T07:45:04.997Z</time></trkpt><trkpt lat="44.4889431" lon="4.6752551"><ele>76.0</ele><time>2026-05-02T07:45:08.997Z</time></trkpt><trkpt lat="44.4889576" lon="4.6751047"><ele>76.0</ele><time>2026-05-02T07:45:11.998Z</time></trkpt><trkpt lat="44.4889627" lon="4.674967"><ele>76.0</ele><time>2026-05-02T07:45:13.997Z</time></trkpt><trkpt lat="44.4889036" lon="4.6748451"><ele>76.0</ele><time>2026-05-02T07:45:15.998Z</time></trkpt><trkpt lat="44.488771" lon="4.6748154"><ele>74.2</ele><time>2026-05-02T07:45:17.996Z</time></trkpt><trkpt lat="44.4886818" lon="4.6748235"><ele>72.39999999999999</ele><time>2026-05-02T07:45:18.998Z</time></trkpt><trkpt lat="44.488577" lon="4.6748023"><ele>70.6</ele><time>2026-05-02T07:45:19.998Z</time></trkpt><trkpt lat="44.4884663" lon="4.6747534"><ele>68.8</ele><time>2026-05-02T07:45:20.997Z</time></trkpt><trkpt lat="44.4883461" lon="4.6746955"><ele>67.0</ele><time>2026-05-02T07:45:21.998Z</time></trkpt><trkpt lat="44.4882199" lon="4.6746347"><ele>67.0</ele><time>2026-05-02T07:45:22.997Z</time></trkpt><trkpt lat="44.4880963" lon="4.6745716"><ele>67.0</ele><time>2026-05-02T07:45:23.997Z</time></trkpt><trkpt lat="44.4879776" lon="4.6745091"><ele>67.0</ele><time>2026-05-02T07:45:24.998Z</time></trkpt><trkpt lat="44.4878656" lon="4.6744533"><ele>67.0</ele><time>2026-05-02T07:45:25.997Z</time></trkpt><trkpt lat="44.4877558" lon="4.6744142"><ele>68.0</ele><time>2026-05-02T07:45:26.998Z</time></trkpt><trkpt lat="44.4876423" lon="4.6744052"><ele>69.0</ele><time>2026-05-02T07:45:27.997Z</time></trkpt><trkpt lat="44.4875309" lon="4.6744349"><ele>70.0</ele><time>2026-05-02T07:45:28.997Z</time></trkpt><trkpt lat="44.4874267" lon="4.6744978"><ele>71.0</ele><time>2026-05-02T07:45:29.997Z</time></trkpt><trkpt lat="44.4873367" lon="4.6746039"><ele>71.0</ele><time>2026-05-02T07:45:30.998Z</time></trkpt><trkpt lat="44.4872614" lon="4.6747395"><ele>71.0</ele><time>2026-05-02T07:45:31.997Z</time></trkpt><trkpt lat="44.4871904" lon="4.6748868"><ele>71.0</ele><time>2026-05-02T07:45:32.997Z</time></trkpt><trkpt lat="44.4871206" lon="4.6750274"><ele>71.0</ele><time>2026-05-02T07:45:33.998Z</time></trkpt><trkpt lat="44.4870533" lon="4.675161"><ele>71.25</ele><time>2026-05-02T07:45:34.997Z</time></trkpt><trkpt lat="44.4869849" lon="4.6752976"><ele>71.5</ele><time>2026-05-02T07:45:35.997Z</time></trkpt><trkpt lat="44.4869146" lon="4.6754373"><ele>71.75</ele><time>2026-05-02T07:45:36.998Z</time></trkpt><trkpt lat="44.4868454" lon="4.6755746"><ele>72.0</ele><time>2026-05-02T07:45:37.997Z</time></trkpt><trkpt lat="44.4867779" lon="4.6757079"><ele>72.0</ele><time>2026-05-02T07:45:38.997Z</time></trkpt><trkpt lat="44.4867107" lon="4.6758394"><ele>72.0</ele><time>2026-05-02T07:45:39.997Z</time></trkpt><trkpt lat="44.4866446" lon="4.6759663"><ele>72.0</ele><time>2026-05-02T07:45:40.997Z</time></trkpt><trkpt lat="44.4865802" lon="4.6760869"><ele>72.0</ele><time>2026-05-02T07:45:41.997Z</time></trkpt><trkpt lat="44.4865196" lon="4.6762037"><ele>72.0</ele><time>2026-05-02T07:45:42.997Z</time></trkpt><trkpt lat="44.4864602" lon="4.6763182"><ele>72.0</ele><time>2026-05-02T07:45:43.998Z</time></trkpt><trkpt lat="44.4864044" lon="4.6764286"><ele>72.0</ele><time>2026-05-02T07:45:44.997Z</time></trkpt><trkpt lat="44.4863518" lon="4.6765312"><ele>72.0</ele><time>2026-05-02T07:45:45.998Z</time></trkpt><trkpt lat="44.4863006" lon="4.6766305"><ele>72.0</ele><time>2026-05-02T07:45:46.997Z</time></trkpt><trkpt lat="44.4862492" lon="4.6767315"><ele>72.0</ele><time>2026-05-02T07:45:47.996Z</time></trkpt><trkpt lat="44.4861911" lon="4.6768398"><ele>72.2</ele><time>2026-05-02T07:45:48.998Z</time></trkpt><trkpt lat="44.4861284" lon="4.6769579"><ele>72.4</ele><time>2026-05-02T07:45:49.997Z</time></trkpt><trkpt lat="44.4860653" lon="4.677081"><ele>72.6</ele><time>2026-05-02T07:45:50.997Z</time></trkpt><trkpt lat="44.486002" lon="4.6772057"><ele>72.8</ele><time>2026-05-02T07:45:51.997Z</time></trkpt><trkpt lat="44.4859372" lon="4.6773293"><ele>73.0</ele><time>2026-05-02T07:45:52.998Z</time></trkpt><trkpt lat="44.485873" lon="4.6774509"><ele>73.0</ele><time>2026-05-02T07:45:53.997Z</time></trkpt><trkpt lat="44.4858122" lon="4.6775717"><ele>73.0</ele><time>2026-05-02T07:45:54.997Z</time></trkpt><trkpt lat="44.4857484" lon="4.6776974"><ele>73.0</ele><time>2026-05-02T07:45:55.997Z</time></trkpt><trkpt lat="44.4856805" lon="4.677828"><ele>73.0</ele><time>2026-05-02T07:45:56.998Z</time></trkpt><trkpt lat="44.4856101" lon="4.6779637"><ele>72.5</ele><time>2026-05-02T07:45:57.997Z</time></trkpt><trkpt lat="44.4855433" lon="4.6781035"><ele>72.0</ele><time>2026-05-02T07:45:58.998Z</time></trkpt><trkpt lat="44.4854844" lon="4.6782529"><ele>71.5</ele><time>2026-05-02T07:45:59.997Z</time></trkpt><trkpt lat="44.485436" lon="4.6784122"><ele>71.0</ele><time>2026-05-02T07:46:00.998Z</time></trkpt><trkpt lat="44.4853976" lon="4.678581"><ele>72.5</ele><time>2026-05-02T07:46:01.996Z</time></trkpt><trkpt lat="44.4853742" lon="4.6787553"><ele>74.0</ele><time>2026-05-02T07:46:02.997Z</time></trkpt><trkpt lat="44.4853669" lon="4.6789311"><ele>75.5</ele><time>2026-05-02T07:46:03.997Z</time></trkpt><trkpt lat="44.485367" lon="4.6791069"><ele>77.0</ele><time>2026-05-02T07:46:04.997Z</time></trkpt><trkpt lat="44.4853711" lon="4.6792815"><ele>77.75</ele><time>2026-05-02T07:46:05.998Z</time></trkpt><trkpt lat="44.4853868" lon="4.6794521"><ele>78.5</ele><time>2026-05-02T07:46:06.997Z</time></trkpt><trkpt lat="44.4854112" lon="4.679629"><ele>79.25</ele><time>2026-05-02T07:46:07.997Z</time></trkpt><trkpt lat="44.4854283" lon="4.6798106"><ele>80.0</ele><time>2026-05-02T07:46:08.997Z</time></trkpt><trkpt lat="44.4854412" lon="4.6799867"><ele>78.0</ele><time>2026-05-02T07:46:09.998Z</time></trkpt><trkpt lat="44.4854517" lon="4.6801573"><ele>76.0</ele><time>2026-05-02T07:46:10.997Z</time></trkpt><trkpt lat="44.4854595" lon="4.6803213"><ele>74.0</ele><time>2026-05-02T07:46:11.998Z</time></trkpt><trkpt lat="44.4854656" lon="4.68048"><ele>72.0</ele><time>2026-05-02T07:46:12.997Z</time></trkpt><trkpt lat="44.4854708" lon="4.6806388"><ele>72.0</ele><time>2026-05-02T07:46:13.997Z</time></trkpt><trkpt lat="44.4854736" lon="4.680796"><ele>72.0</ele><time>2026-05-02T07:46:14.997Z</time></trkpt><trkpt lat="44.4854716" lon="4.6809507"><ele>72.0</ele><time>2026-05-02T07:46:15.997Z</time></trkpt><trkpt lat="44.4854664" lon="4.6811046"><ele>72.0</ele><time>2026-05-02T07:46:16.997Z</time></trkpt><trkpt lat="44.4854616" lon="4.6812631"><ele>72.0</ele><time>2026-05-02T07:46:17.998Z</time></trkpt><trkpt lat="44.4854549" lon="4.6814278"><ele>71.75</ele><time>2026-05-02T07:46:18.997Z</time></trkpt><trkpt lat="44.4854446" lon="4.68159"><ele>71.5</ele><time>2026-05-02T07:46:19.997Z</time></trkpt><trkpt lat="44.4854337" lon="4.6817582"><ele>71.25</ele><time>2026-05-02T07:46:20.997Z</time></trkpt><trkpt lat="44.4854254" lon="4.6819321"><ele>71.0</ele><time>2026-05-02T07:46:21.998Z</time></trkpt><trkpt lat="44.4854172" lon="4.6821086"><ele>73.0</ele><time>2026-05-02T07:46:22.997Z</time></trkpt><trkpt lat="44.4854056" lon="4.6822855"><ele>75.0</ele><time>2026-05-02T07:46:23.997Z</time></trkpt><trkpt lat="44.4853935" lon="4.6824646"><ele>77.0</ele><time>2026-05-02T07:46:24.998Z</time></trkpt><trkpt lat="44.4853834" lon="4.6826487"><ele>79.0</ele><time>2026-05-02T07:46:25.997Z</time></trkpt><trkpt lat="44.4853737" lon="4.6828334"><ele>79.25</ele><time>2026-05-02T07:46:26.997Z</time></trkpt><trkpt lat="44.4853653" lon="4.6830186"><ele>79.5</ele><time>2026-05-02T07:46:27.998Z</time></trkpt><trkpt lat="44.4853565" lon="4.6832022"><ele>79.75</ele><time>2026-05-02T07:46:28.997Z</time></trkpt><trkpt lat="44.4853405" lon="4.6833789"><ele>80.0</ele><time>2026-05-02T07:46:29.997Z</time></trkpt><trkpt lat="44.4853191" lon="4.683551"><ele>79.0</ele><time>2026-05-02T07:46:30.997Z</time></trkpt><trkpt lat="44.485291" lon="4.6837139"><ele>78.0</ele><time>2026-05-02T07:46:31.997Z</time></trkpt><trkpt lat="44.4852509" lon="4.683867"><ele>77.0</ele><time>2026-05-02T07:46:32.998Z</time></trkpt><trkpt lat="44.4852003" lon="4.6840126"><ele>76.0</ele><time>2026-05-02T07:46:33.997Z</time></trkpt><trkpt lat="44.4851407" lon="4.6841492"><ele>76.0</ele><time>2026-05-02T07:46:34.998Z</time></trkpt><trkpt lat="44.4850734" lon="4.6842763"><ele>76.0</ele><time>2026-05-02T07:46:35.997Z</time></trkpt><trkpt lat="44.4850064" lon="4.6843933"><ele>76.0</ele><time>2026-05-02T07:46:36.997Z</time></trkpt><trkpt lat="44.4849451" lon="4.6844979"><ele>76.0</ele><time>2026-05-02T07:46:37.997Z</time></trkpt><trkpt lat="44.4848865" lon="4.6846032"><ele>76.0</ele><time>2026-05-02T07:46:38.997Z</time></trkpt><trkpt lat="44.4848265" lon="4.6847024"><ele>76.8</ele><time>2026-05-02T07:46:39.997Z</time></trkpt><trkpt lat="44.484762" lon="4.6848091"><ele>77.6</ele><time>2026-05-02T07:46:40.998Z</time></trkpt><trkpt lat="44.4846984" lon="4.684917"><ele>78.4</ele><time>2026-05-02T07:46:41.997Z</time></trkpt><trkpt lat="44.4846365" lon="4.6850231"><ele>79.2</ele><time>2026-05-02T07:46:42.997Z</time></trkpt><trkpt lat="44.4845743" lon="4.6851228"><ele>80.0</ele><time>2026-05-02T07:46:43.997Z</time></trkpt><trkpt lat="44.4845193" lon="4.6852147"><ele>79.4</ele><time>2026-05-02T07:46:44.997Z</time></trkpt><trkpt lat="44.4844735" lon="4.6852927"><ele>78.8</ele><time>2026-05-02T07:46:45.997Z</time></trkpt><trkpt lat="44.4844309" lon="4.6853669"><ele>78.2</ele><time>2026-05-02T07:46:46.996Z</time></trkpt><trkpt lat="44.4843897" lon="4.6854353"><ele>77.6</ele><time>2026-05-02T07:46:47.998Z</time></trkpt><trkpt lat="44.4843113" lon="4.6855738"><ele>77.0</ele><time>2026-05-02T07:46:49.998Z</time></trkpt><trkpt lat="44.484231" lon="4.6857085"><ele>77.0</ele><time>2026-05-02T07:46:51.998Z</time></trkpt><trkpt lat="44.4841824" lon="4.6857882"><ele>77.0</ele><time>2026-05-02T07:46:52.998Z</time></trkpt><trkpt lat="44.4841328" lon="4.6858763"><ele>77.0</ele><time>2026-05-02T07:46:53.998Z</time></trkpt><trkpt lat="44.4840765" lon="4.6859744"><ele>77.0</ele><time>2026-05-02T07:46:54.997Z</time></trkpt><trkpt lat="44.4840205" lon="4.6860715"><ele>77.0</ele><time>2026-05-02T07:46:55.998Z</time></trkpt><trkpt lat="44.4839682" lon="4.6861638"><ele>77.0</ele><time>2026-05-02T07:46:56.997Z</time></trkpt><trkpt lat="44.4839182" lon="4.6862518"><ele>77.0</ele><time>2026-05-02T07:46:57.997Z</time></trkpt><trkpt lat="44.4838718" lon="4.6863348"><ele>77.0</ele><time>2026-05-02T07:46:58.997Z</time></trkpt><trkpt lat="44.4838245" lon="4.6864154"><ele>77.0</ele><time>2026-05-02T07:46:59.997Z</time></trkpt><trkpt lat="44.4837783" lon="4.6864952"><ele>77.0</ele><time>2026-05-02T07:47:00.997Z</time></trkpt><trkpt lat="44.4837341" lon="4.6865778"><ele>77.0</ele><time>2026-05-02T07:47:01.998Z</time></trkpt><trkpt lat="44.4836868" lon="4.686663"><ele>77.0</ele><time>2026-05-02T07:47:02.997Z</time></trkpt><trkpt lat="44.4836346" lon="4.6867509"><ele>78.0</ele><time>2026-05-02T07:47:03.997Z</time></trkpt><trkpt lat="44.4835818" lon="4.6868415"><ele>79.0</ele><time>2026-05-02T07:47:04.997Z</time></trkpt><trkpt lat="44.4835332" lon="4.6869291"><ele>80.0</ele><time>2026-05-02T07:47:05.997Z</time></trkpt><trkpt lat="44.4834824" lon="4.6870247"><ele>81.0</ele><time>2026-05-02T07:47:06.998Z</time></trkpt><trkpt lat="44.4834337" lon="4.6871223"><ele>82.0</ele><time>2026-05-02T07:47:07.997Z</time></trkpt><trkpt lat="44.4833853" lon="4.6872237"><ele>83.0</ele><time>2026-05-02T07:47:08.996Z</time></trkpt><trkpt lat="44.483342" lon="4.6873189"><ele>83.0</ele><time>2026-05-02T07:47:09.996Z</time></trkpt><trkpt lat="44.4833007" lon="4.6874095"><ele>83.0</ele><time>2026-05-02T07:47:10.997Z</time></trkpt><trkpt lat="44.4832635" lon="4.6874989"><ele>83.0</ele><time>2026-05-02T07:47:11.998Z</time></trkpt><trkpt lat="44.4832234" lon="4.6875927"><ele>83.0</ele><time>2026-05-02T07:47:12.998Z</time></trkpt><trkpt lat="44.4831822" lon="4.6876895"><ele>83.0</ele><time>2026-05-02T07:47:13.998Z</time></trkpt><trkpt lat="44.4831435" lon="4.6877828"><ele>83.0</ele><time>2026-05-02T07:47:14.997Z</time></trkpt><trkpt lat="44.4831028" lon="4.6878754"><ele>83.0</ele><time>2026-05-02T07:47:15.997Z</time></trkpt><trkpt lat="44.4830655" lon="4.6879633"><ele>83.0</ele><time>2026-05-02T07:47:16.997Z</time></trkpt><trkpt lat="44.4830317" lon="4.6880467"><ele>83.0</ele><time>2026-05-02T07:47:17.997Z</time></trkpt><trkpt lat="44.4829963" lon="4.6881224"><ele>83.0</ele><time>2026-05-02T07:47:18.998Z</time></trkpt><trkpt lat="44.4829571" lon="4.6881974"><ele>83.0</ele><time>2026-05-02T07:47:19.997Z</time></trkpt><trkpt lat="44.4829108" lon="4.6882718"><ele>83.0</ele><time>2026-05-02T07:47:20.997Z</time></trkpt><trkpt lat="44.482856" lon="4.6883367"><ele>83.0</ele><time>2026-05-02T07:47:21.996Z</time></trkpt><trkpt lat="44.4827953" lon="4.6883985"><ele>83.16666666666667</ele><time>2026-05-02T07:47:22.997Z</time></trkpt><trkpt lat="44.4827271" lon="4.6884556"><ele>83.33333333333334</ele><time>2026-05-02T07:47:23.997Z</time></trkpt><trkpt lat="44.4826527" lon="4.6885111"><ele>83.5</ele><time>2026-05-02T07:47:24.998Z</time></trkpt><trkpt lat="44.4825738" lon="4.6885621"><ele>83.66666666666667</ele><time>2026-05-02T07:47:25.997Z</time></trkpt><trkpt lat="44.482486" lon="4.6886066"><ele>83.83333333333333</ele><time>2026-05-02T07:47:26.997Z</time></trkpt><trkpt lat="44.482398" lon="4.6886544"><ele>84.0</ele><time>2026-05-02T07:47:27.997Z</time></trkpt><trkpt lat="44.4823062" lon="4.6887041"><ele>84.0</ele><time>2026-05-02T07:47:28.997Z</time></trkpt><trkpt lat="44.4822149" lon="4.6887556"><ele>84.0</ele><time>2026-05-02T07:47:29.997Z</time></trkpt><trkpt lat="44.4821281" lon="4.6888078"><ele>84.0</ele><time>2026-05-02T07:47:30.997Z</time></trkpt><trkpt lat="44.4820431" lon="4.6888529"><ele>84.0</ele><time>2026-05-02T07:47:31.997Z</time></trkpt><trkpt lat="44.4819657" lon="4.6888907"><ele>84.0</ele><time>2026-05-02T07:47:32.997Z</time></trkpt><trkpt lat="44.4818815" lon="4.6889361"><ele>83.5</ele><time>2026-05-02T07:47:33.998Z</time></trkpt><trkpt lat="44.4817996" lon="4.6889839"><ele>83.0</ele><time>2026-05-02T07:47:34.996Z</time></trkpt><trkpt lat="44.4817238" lon="4.6890259"><ele>82.5</ele><time>2026-05-02T07:47:35.997Z</time></trkpt><trkpt lat="44.481648" lon="4.6890648"><ele>82.0</ele><time>2026-05-02T07:47:36.996Z</time></trkpt><trkpt lat="44.4815736" lon="4.6891048"><ele>81.5</ele><time>2026-05-02T07:47:37.998Z</time></trkpt><trkpt lat="44.481504" lon="4.6891458"><ele>81.0</ele><time>2026-05-02T07:47:38.998Z</time></trkpt><trkpt lat="44.4814397" lon="4.6891848"><ele>81.0</ele><time>2026-05-02T07:47:39.997Z</time></trkpt><trkpt lat="44.4813734" lon="4.6892295"><ele>81.0</ele><time>2026-05-02T07:47:40.997Z</time></trkpt><trkpt lat="44.4813086" lon="4.6892887"><ele>81.0</ele><time>2026-05-02T07:47:41.998Z</time></trkpt><trkpt lat="44.4812425" lon="4.6893525"><ele>81.0</ele><time>2026-05-02T07:47:42.997Z</time></trkpt><trkpt lat="44.4811718" lon="4.6894245"><ele>81.0</ele><time>2026-05-02T07:47:43.997Z</time></trkpt><trkpt lat="44.4811007" lon="4.6894975"><ele>81.0</ele><time>2026-05-02T07:47:44.997Z</time></trkpt><trkpt lat="44.4810293" lon="4.6895731"><ele>81.19999999999999</ele><time>2026-05-02T07:47:45.998Z</time></trkpt><trkpt lat="44.4809561" lon="4.6896503"><ele>81.39999999999999</ele><time>2026-05-02T07:47:46.997Z</time></trkpt><trkpt lat="44.4808852" lon="4.6897277"><ele>81.6</ele><time>2026-05-02T07:47:47.997Z</time></trkpt><trkpt lat="44.4808297" lon="4.6897925"><ele>81.8</ele><time>2026-05-02T07:47:48.997Z</time></trkpt><trkpt lat="44.4807354" lon="4.6898949"><ele>82.0</ele><time>2026-05-02T07:47:50.997Z</time></trkpt><trkpt lat="44.4806596" lon="4.6899767"><ele>82.0</ele><time>2026-05-02T07:47:52.997Z</time></trkpt><trkpt lat="44.4805773" lon="4.6900679"><ele>82.0</ele><time>2026-05-02T07:47:54.998Z</time></trkpt><trkpt lat="44.4804961" lon="4.6901467"><ele>82.0</ele><time>2026-05-02T07:47:56.997Z</time></trkpt><trkpt lat="44.4804274" lon="4.6901645"><ele>82.0</ele><time>2026-05-02T07:47:58.997Z</time></trkpt><trkpt lat="44.480349" lon="4.6901611"><ele>82.0</ele><time>2026-05-02T07:48:01.997Z</time></trkpt><trkpt lat="44.4802652" lon="4.6901588"><ele>82.0</ele><time>2026-05-02T07:48:04.997Z</time></trkpt><trkpt lat="44.4801808" lon="4.6901191"><ele>81.0</ele><time>2026-05-02T07:48:07.997Z</time></trkpt><trkpt lat="44.4800914" lon="4.690081"><ele>80.0</ele><time>2026-05-02T07:48:10.997Z</time></trkpt><trkpt lat="44.4800261" lon="4.6900512"><ele>79.0</ele><time>2026-05-02T07:48:12.997Z</time></trkpt><trkpt lat="44.4799428" lon="4.6900132"><ele>78.0</ele><time>2026-05-02T07:48:14.997Z</time></trkpt><trkpt lat="44.479854" lon="4.6899807"><ele>77.0</ele><time>2026-05-02T07:48:16.997Z</time></trkpt><trkpt lat="44.4797548" lon="4.6899366"><ele>76.0</ele><time>2026-05-02T07:48:18.998Z</time></trkpt><trkpt lat="44.4796457" lon="4.6898832"><ele>75.33333333333333</ele><time>2026-05-02T07:48:20.997Z</time></trkpt><trkpt lat="44.4795795" lon="4.6898473"><ele>74.66666666666666</ele><time>2026-05-02T07:48:21.997Z</time></trkpt><trkpt lat="44.4795048" lon="4.6898084"><ele>74.0</ele><time>2026-05-02T07:48:22.998Z</time></trkpt><trkpt lat="44.4794318" lon="4.6897736"><ele>73.33333333333333</ele><time>2026-05-02T07:48:23.997Z</time></trkpt><trkpt lat="44.4793599" lon="4.6897378"><ele>72.66666666666667</ele><time>2026-05-02T07:48:24.997Z</time></trkpt><trkpt lat="44.4792891" lon="4.6897062"><ele>72.0</ele><time>2026-05-02T07:48:25.998Z</time></trkpt><trkpt lat="44.4792206" lon="4.6896779"><ele>72.00000000000001</ele><time>2026-05-02T07:48:26.997Z</time></trkpt><trkpt lat="44.4791559" lon="4.6896496"><ele>72.0</ele><time>2026-05-02T07:48:27.998Z</time></trkpt><trkpt lat="44.4790933" lon="4.6896221"><ele>72.0</ele><time>2026-05-02T07:48:28.998Z</time></trkpt><trkpt lat="44.4790278" lon="4.6895927"><ele>72.0</ele><time>2026-05-02T07:48:29.998Z</time></trkpt><trkpt lat="44.4789578" lon="4.6895615"><ele>72.0</ele><time>2026-05-02T07:48:30.997Z</time></trkpt><trkpt lat="44.4788837" lon="4.6895258"><ele>72.00000000000001</ele><time>2026-05-02T07:48:31.998Z</time></trkpt><trkpt lat="44.4788067" lon="4.6894858"><ele>72.0</ele><time>2026-05-02T07:48:32.996Z</time></trkpt><trkpt lat="44.4787258" lon="4.6894518"><ele>72.16666666666667</ele><time>2026-05-02T07:48:33.997Z</time></trkpt><trkpt lat="44.4786452" lon="4.6894142"><ele>72.33333333333333</ele><time>2026-05-02T07:48:34.997Z</time></trkpt><trkpt lat="44.4785677" lon="4.6893822"><ele>72.5</ele><time>2026-05-02T07:48:35.997Z</time></trkpt><trkpt lat="44.4784933" lon="4.6893521"><ele>72.66666666666666</ele><time>2026-05-02T07:48:36.997Z</time></trkpt><trkpt lat="44.4784217" lon="4.689325"><ele>72.83333333333333</ele><time>2026-05-02T07:48:37.997Z</time></trkpt><trkpt lat="44.4783448" lon="4.6892958"><ele>73.0</ele><time>2026-05-02T07:48:38.997Z</time></trkpt><trkpt lat="44.4782638" lon="4.6892575"><ele>73.0</ele><time>2026-05-02T07:48:39.998Z</time></trkpt><trkpt lat="44.478177" lon="4.6892185"><ele>73.0</ele><time>2026-05-02T07:48:40.997Z</time></trkpt><trkpt lat="44.4780809" lon="4.6891765"><ele>73.0</ele><time>2026-05-02T07:48:41.997Z</time></trkpt><trkpt lat="44.477977" lon="4.6891325"><ele>73.0</ele><time>2026-05-02T07:48:42.997Z</time></trkpt><trkpt lat="44.4778642" lon="4.6890819"><ele>73.0</ele><time>2026-05-02T07:48:43.997Z</time></trkpt><trkpt lat="44.4777436" lon="4.6890282"><ele>74.5</ele><time>2026-05-02T07:48:44.997Z</time></trkpt><trkpt lat="44.4776156" lon="4.6889714"><ele>76.0</ele><time>2026-05-02T07:48:45.997Z</time></trkpt><trkpt lat="44.4774828" lon="4.6889117"><ele>77.5</ele><time>2026-05-02T07:48:46.997Z</time></trkpt><trkpt lat="44.4773487" lon="4.6888528"><ele>79.0</ele><time>2026-05-02T07:48:47.997Z</time></trkpt><trkpt lat="44.477207" lon="4.6887879"><ele>78.5</ele><time>2026-05-02T07:48:48.996Z</time></trkpt><trkpt lat="44.4770635" lon="4.6887218"><ele>78.0</ele><time>2026-05-02T07:48:49.998Z</time></trkpt><trkpt lat="44.4769243" lon="4.6886607"><ele>77.5</ele><time>2026-05-02T07:48:50.998Z</time></trkpt><trkpt lat="44.476787" lon="4.6886028"><ele>77.0</ele><time>2026-05-02T07:48:51.998Z</time></trkpt><trkpt lat="44.4766574" lon="4.6885472"><ele>77.0</ele><time>2026-05-02T07:48:52.998Z</time></trkpt><trkpt lat="44.4765405" lon="4.688492"><ele>77.0</ele><time>2026-05-02T07:48:53.997Z</time></trkpt><trkpt lat="44.4764333" lon="4.6884285"><ele>77.0</ele><time>2026-05-02T07:48:54.997Z</time></trkpt><trkpt lat="44.4763309" lon="4.6883647"><ele>77.0</ele><time>2026-05-02T07:48:55.997Z</time></trkpt><trkpt lat="44.4762302" lon="4.6883128"><ele>77.33333333333334</ele><time>2026-05-02T07:48:56.998Z</time></trkpt><trkpt lat="44.4761432" lon="4.6882791"><ele>77.66666666666667</ele><time>2026-05-02T07:48:57.997Z</time></trkpt><trkpt lat="44.4760665" lon="4.6882558"><ele>78.0</ele><time>2026-05-02T07:48:58.997Z</time></trkpt><trkpt lat="44.4760004" lon="4.6882365"><ele>78.33333333333333</ele><time>2026-05-02T07:48:59.997Z</time></trkpt><trkpt lat="44.4759371" lon="4.6882191"><ele>78.66666666666666</ele><time>2026-05-02T07:49:00.997Z</time></trkpt><trkpt lat="44.4758354" lon="4.6881865"><ele>79.0</ele><time>2026-05-02T07:49:02.997Z</time></trkpt><trkpt lat="44.4757482" lon="4.6881465"><ele>79.0</ele><time>2026-05-02T07:49:04.997Z</time></trkpt><trkpt lat="44.4756685" lon="4.6881101"><ele>79.0</ele><time>2026-05-02T07:49:06.996Z</time></trkpt><trkpt lat="44.4755747" lon="4.688064"><ele>79.0</ele><time>2026-05-02T07:49:08.996Z</time></trkpt><trkpt lat="44.4754491" lon="4.6880111"><ele>79.0</ele><time>2026-05-02T07:49:10.997Z</time></trkpt><trkpt lat="44.4753675" lon="4.6879805"><ele>79.0</ele><time>2026-05-02T07:49:11.997Z</time></trkpt><trkpt lat="44.4752852" lon="4.6879457"><ele>79.33333333333333</ele><time>2026-05-02T07:49:12.997Z</time></trkpt><trkpt lat="44.4752016" lon="4.6879092"><ele>79.66666666666666</ele><time>2026-05-02T07:49:13.998Z</time></trkpt><trkpt lat="44.4751206" lon="4.6878724"><ele>80.0</ele><time>2026-05-02T07:49:14.997Z</time></trkpt><trkpt lat="44.4750461" lon="4.6878417"><ele>80.33333333333333</ele><time>2026-05-02T07:49:15.997Z</time></trkpt><trkpt lat="44.4749751" lon="4.6878076"><ele>80.66666666666667</ele><time>2026-05-02T07:49:16.997Z</time></trkpt><trkpt lat="44.4749026" lon="4.6877717"><ele>81.0</ele><time>2026-05-02T07:49:17.997Z</time></trkpt><trkpt lat="44.4748233" lon="4.6877335"><ele>79.66666666666667</ele><time>2026-05-02T07:49:18.998Z</time></trkpt><trkpt lat="44.4747399" lon="4.6876944"><ele>78.33333333333333</ele><time>2026-05-02T07:49:19.997Z</time></trkpt><trkpt lat="44.4746557" lon="4.6876552"><ele>77.0</ele><time>2026-05-02T07:49:20.997Z</time></trkpt><trkpt lat="44.474577" lon="4.6876162"><ele>75.66666666666666</ele><time>2026-05-02T07:49:21.997Z</time></trkpt><trkpt lat="44.4744981" lon="4.6875794"><ele>74.33333333333333</ele><time>2026-05-02T07:49:22.997Z</time></trkpt><trkpt lat="44.4744205" lon="4.687541"><ele>73.0</ele><time>2026-05-02T07:49:23.997Z</time></trkpt><trkpt lat="44.4743394" lon="4.6875008"><ele>72.66666666666666</ele><time>2026-05-02T07:49:24.997Z</time></trkpt><trkpt lat="44.4742533" lon="4.6874589"><ele>72.33333333333333</ele><time>2026-05-02T07:49:25.998Z</time></trkpt><trkpt lat="44.474169" lon="4.6874145"><ele>72.0</ele><time>2026-05-02T07:49:26.998Z</time></trkpt><trkpt lat="44.4740915" lon="4.6873575"><ele>71.66666666666667</ele><time>2026-05-02T07:49:27.998Z</time></trkpt><trkpt lat="44.4740224" lon="4.6872839"><ele>71.33333333333334</ele><time>2026-05-02T07:49:28.997Z</time></trkpt><trkpt lat="44.4739649" lon="4.687209"><ele>71.0</ele><time>2026-05-02T07:49:29.997Z</time></trkpt><trkpt lat="44.4739039" lon="4.6871661"><ele>71.0</ele><time>2026-05-02T07:49:30.997Z</time></trkpt><trkpt lat="44.4738373" lon="4.6871598"><ele>71.0</ele><time>2026-05-02T07:49:31.997Z</time></trkpt><trkpt lat="44.4737366" lon="4.6872478"><ele>71.0</ele><time>2026-05-02T07:49:33.996Z</time></trkpt><trkpt lat="44.4737284" lon="4.68741"><ele>71.0</ele><time>2026-05-02T07:49:35.997Z</time></trkpt><trkpt lat="44.4737591" lon="4.6874925"><ele>71.0</ele><time>2026-05-02T07:49:36.997Z</time></trkpt><trkpt lat="44.4738" lon="4.6875787"><ele>71.0</ele><time>2026-05-02T07:49:37.997Z</time></trkpt><trkpt lat="44.4738398" lon="4.6876573"><ele>71.0</ele><time>2026-05-02T07:49:38.997Z</time></trkpt><trkpt lat="44.4738841" lon="4.6877232"><ele>71.0</ele><time>2026-05-02T07:49:39.998Z</time></trkpt><trkpt lat="44.4740023" lon="4.687771"><ele>71.0</ele><time>2026-05-02T07:49:41.997Z</time></trkpt><trkpt lat="44.474071" lon="4.6877632"><ele>71.0</ele><time>2026-05-02T07:49:42.998Z</time></trkpt><trkpt lat="44.4741428" lon="4.6877683"><ele>71.0</ele><time>2026-05-02T07:49:43.997Z</time></trkpt><trkpt lat="44.4742106" lon="4.6877882"><ele>71.0</ele><time>2026-05-02T07:49:44.998Z</time></trkpt><trkpt lat="44.474273" lon="4.6878148"><ele>72.0</ele><time>2026-05-02T07:49:45.997Z</time></trkpt><trkpt lat="44.4743339" lon="4.6878451"><ele>73.0</ele><time>2026-05-02T07:49:46.998Z</time></trkpt><trkpt lat="44.4744455" lon="4.6879103"><ele>74.0</ele><time>2026-05-02T07:49:48.997Z</time></trkpt><trkpt lat="44.4745472" lon="4.6879673"><ele>75.0</ele><time>2026-05-02T07:49:50.997Z</time></trkpt><trkpt lat="44.4746404" lon="4.6880129"><ele>76.0</ele><time>2026-05-02T07:49:52.997Z</time></trkpt><trkpt lat="44.4747272" lon="4.6880483"><ele>76.83333333333333</ele><time>2026-05-02T07:49:54.996Z</time></trkpt><trkpt lat="44.4748082" lon="4.6880828"><ele>77.66666666666666</ele><time>2026-05-02T07:49:56.997Z</time></trkpt><trkpt lat="44.4748791" lon="4.688116"><ele>78.5</ele><time>2026-05-02T07:49:58.998Z</time></trkpt><trkpt lat="44.4749483" lon="4.6881634"><ele>79.33333333333333</ele><time>2026-05-02T07:50:01.998Z</time></trkpt><trkpt lat="44.4750242" lon="4.6881889"><ele>80.16666666666667</ele><time>2026-05-02T07:55:23.996Z</time></trkpt><trkpt lat="44.4751127" lon="4.6882673"><ele>81.0</ele><time>2026-05-02T08:05:39.996Z</time></trkpt><trkpt lat="44.4751916" lon="4.6883218"><ele>81.0</ele><time>2026-05-02T08:06:11.996Z</time></trkpt><trkpt lat="44.4752455" lon="4.6883925"><ele>81.0</ele><time>2026-05-02T08:06:13.996Z</time></trkpt><trkpt lat="44.475294" lon="4.6884587"><ele>81.0</ele><time>2026-05-02T08:06:15.996Z</time></trkpt><trkpt lat="44.4753757" lon="4.6884825"><ele>81.0</ele><time>2026-05-02T08:06:17.995Z</time></trkpt><trkpt lat="44.4754853" lon="4.6885005"><ele>81.0</ele><time>2026-05-02T08:06:19.996Z</time></trkpt><trkpt lat="44.4755876" lon="4.6885001"><ele>81.0</ele><time>2026-05-02T08:06:21.996Z</time></trkpt><trkpt lat="44.4756703" lon="4.6884471"><ele>81.0</ele><time>2026-05-02T08:06:23.997Z</time></trkpt><trkpt lat="44.4756904" lon="4.6883457"><ele>81.0</ele><time>2026-05-02T08:06:25.996Z</time></trkpt><trkpt lat="44.475639" lon="4.6882572"><ele>81.0</ele><time>2026-05-02T08:06:27.996Z</time></trkpt><trkpt lat="44.4755405" lon="4.6882166"><ele>81.0</ele><time>2026-05-02T08:06:29.996Z</time></trkpt><trkpt lat="44.4754275" lon="4.6881796"><ele>81.0</ele><time>2026-05-02T08:06:31.996Z</time></trkpt><trkpt lat="44.4753258" lon="4.688139"><ele>81.0</ele><time>2026-05-02T08:06:33.996Z</time></trkpt><trkpt lat="44.4752331" lon="4.6881048"><ele>81.0</ele><time>2026-05-02T08:06:35.996Z</time></trkpt><trkpt lat="44.4751532" lon="4.6880679"><ele>81.0</ele><time>2026-05-02T08:06:37.996Z</time></trkpt><trkpt lat="44.4750717" lon="4.6880515"><ele>81.0</ele><time>2026-05-02T08:11:04.996Z</time></trkpt><trkpt lat="44.4750058" lon="4.6880257"><ele>81.0</ele><time>2026-05-02T08:11:06.996Z</time></trkpt><trkpt lat="44.4749077" lon="4.6879838"><ele>81.0</ele><time>2026-05-02T08:11:08.997Z</time></trkpt><trkpt lat="44.4748032" lon="4.6879337"><ele>81.0</ele><time>2026-05-02T08:11:10.996Z</time></trkpt><trkpt lat="44.4747092" lon="4.6878906"><ele>81.0</ele><time>2026-05-02T08:11:12.996Z</time></trkpt><trkpt lat="44.4746248" lon="4.6878489"><ele>81.0</ele><time>2026-05-02T08:11:14.997Z</time></trkpt><trkpt lat="44.4745455" lon="4.6878109"><ele>81.0</ele><time>2026-05-02T08:11:16.997Z</time></trkpt><trkpt lat="44.4744547" lon="4.6877722"><ele>81.0</ele><time>2026-05-02T08:11:18.996Z</time></trkpt><trkpt lat="44.4743639" lon="4.687733"><ele>80.0</ele><time>2026-05-02T08:11:20.996Z</time></trkpt><trkpt lat="44.4742707" lon="4.6876896"><ele>79.0</ele><time>2026-05-02T08:11:22.996Z</time></trkpt><trkpt lat="44.4741811" lon="4.6876974"><ele>78.0</ele><time>2026-05-02T08:11:24.996Z</time></trkpt><trkpt lat="44.4740947" lon="4.6877453"><ele>77.0</ele><time>2026-05-02T08:11:26.996Z</time></trkpt><trkpt lat="44.474011" lon="4.6877862"><ele>76.0</ele><time>2026-05-02T08:11:28.997Z</time></trkpt><trkpt lat="44.4739306" lon="4.6877878"><ele>75.16666666666666</ele><time>2026-05-02T08:11:30.995Z</time></trkpt><trkpt lat="44.4738642" lon="4.687707"><ele>74.33333333333333</ele><time>2026-05-02T08:11:32.996Z</time></trkpt><trkpt lat="44.4738691" lon="4.6875718"><ele>73.5</ele><time>2026-05-02T08:11:34.996Z</time></trkpt><trkpt lat="44.4738995" lon="4.6874897"><ele>72.66666666666667</ele><time>2026-05-02T08:11:35.997Z</time></trkpt><trkpt lat="44.4739308" lon="4.6874122"><ele>71.83333333333334</ele><time>2026-05-02T08:11:36.997Z</time></trkpt><trkpt lat="44.4739387" lon="4.687242"><ele>71.0</ele><time>2026-05-02T08:11:38.996Z</time></trkpt><trkpt lat="44.4738518" lon="4.687132"><ele>71.0</ele><time>2026-05-02T08:11:40.996Z</time></trkpt><trkpt lat="44.4737794" lon="4.6871188"><ele>71.0</ele><time>2026-05-02T08:11:41.996Z</time></trkpt><trkpt lat="44.4736844" lon="4.687116"><ele>71.0</ele><time>2026-05-02T08:11:42.997Z</time></trkpt><trkpt lat="44.4735773" lon="4.6870983"><ele>71.0</ele><time>2026-05-02T08:11:43.996Z</time></trkpt><trkpt lat="44.4734719" lon="4.6870657"><ele>71.0</ele><time>2026-05-02T08:11:44.996Z</time></trkpt><trkpt lat="44.4733604" lon="4.6870229"><ele>71.0</ele><time>2026-05-02T08:11:45.996Z</time></trkpt><trkpt lat="44.4732455" lon="4.6869733"><ele>71.0</ele><time>2026-05-02T08:11:46.996Z</time></trkpt><trkpt lat="44.4731226" lon="4.6869229"><ele>71.0</ele><time>2026-05-02T08:11:47.997Z</time></trkpt><trkpt lat="44.4729885" lon="4.686875"><ele>71.0</ele><time>2026-05-02T08:11:48.997Z</time></trkpt><trkpt lat="44.4728448" lon="4.6868256"><ele>71.25</ele><time>2026-05-02T08:11:49.996Z</time></trkpt><trkpt lat="44.4727027" lon="4.6867818"><ele>71.5</ele><time>2026-05-02T08:11:50.996Z</time></trkpt><trkpt lat="44.472559" lon="4.6867407"><ele>71.75</ele><time>2026-05-02T08:11:51.997Z</time></trkpt><trkpt lat="44.4724153" lon="4.686708"><ele>72.0</ele><time>2026-05-02T08:11:52.996Z</time></trkpt><trkpt lat="44.4722703" lon="4.6866851"><ele>72.0</ele><time>2026-05-02T08:11:53.996Z</time></trkpt><trkpt lat="44.4721254" lon="4.6866691"><ele>72.0</ele><time>2026-05-02T08:11:54.997Z</time></trkpt><trkpt lat="44.4719804" lon="4.6866573"><ele>72.0</ele><time>2026-05-02T08:11:55.996Z</time></trkpt><trkpt lat="44.4718291" lon="4.6866495"><ele>72.0</ele><time>2026-05-02T08:11:56.995Z</time></trkpt><trkpt lat="44.4716739" lon="4.6866477"><ele>71.0</ele><time>2026-05-02T08:11:57.996Z</time></trkpt><trkpt lat="44.471514" lon="4.6866529"><ele>70.0</ele><time>2026-05-02T08:11:58.996Z</time></trkpt><trkpt lat="44.4713491" lon="4.686666"><ele>69.0</ele><time>2026-05-02T08:11:59.997Z</time></trkpt><trkpt lat="44.4711781" lon="4.6866851"><ele>68.66666666666667</ele><time>2026-05-02T08:12:00.996Z</time></trkpt><trkpt lat="44.4709998" lon="4.6867109"><ele>68.33333333333334</ele><time>2026-05-02T08:12:01.997Z</time></trkpt><trkpt lat="44.4708139" lon="4.6867491"><ele>68.0</ele><time>2026-05-02T08:12:02.996Z</time></trkpt><trkpt lat="44.4706312" lon="4.6867994"><ele>68.0</ele><time>2026-05-02T08:12:03.997Z</time></trkpt><trkpt lat="44.4704482" lon="4.6868526"><ele>68.0</ele><time>2026-05-02T08:12:04.997Z</time></trkpt><trkpt lat="44.4702687" lon="4.6869066"><ele>68.0</ele><time>2026-05-02T08:12:05.997Z</time></trkpt><trkpt lat="44.4700971" lon="4.6869569"><ele>67.66666666666667</ele><time>2026-05-02T08:12:06.997Z</time></trkpt><trkpt lat="44.4699311" lon="4.6870067"><ele>67.33333333333333</ele><time>2026-05-02T08:12:07.997Z</time></trkpt><trkpt lat="44.4697693" lon="4.6870534"><ele>67.0</ele><time>2026-05-02T08:12:08.996Z</time></trkpt><trkpt lat="44.4696114" lon="4.6870983"><ele>68.33333333333333</ele><time>2026-05-02T08:12:09.997Z</time></trkpt><trkpt lat="44.4694539" lon="4.6871444"><ele>69.66666666666667</ele><time>2026-05-02T08:12:10.996Z</time></trkpt><trkpt lat="44.4692957" lon="4.6871935"><ele>71.0</ele><time>2026-05-02T08:12:11.996Z</time></trkpt><trkpt lat="44.4691404" lon="4.6872412"><ele>71.0</ele><time>2026-05-02T08:12:12.996Z</time></trkpt><trkpt lat="44.4689893" lon="4.6872858"><ele>71.0</ele><time>2026-05-02T08:12:13.996Z</time></trkpt><trkpt lat="44.4688382" lon="4.6873316"><ele>71.0</ele><time>2026-05-02T08:12:14.996Z</time></trkpt><trkpt lat="44.4686861" lon="4.6873774"><ele>69.66666666666667</ele><time>2026-05-02T08:12:15.996Z</time></trkpt><trkpt lat="44.4685314" lon="4.6874256"><ele>68.33333333333333</ele><time>2026-05-02T08:12:16.997Z</time></trkpt><trkpt lat="44.4683733" lon="4.687473"><ele>67.0</ele><time>2026-05-02T08:12:17.996Z</time></trkpt><trkpt lat="44.4682119" lon="4.6875194"><ele>67.0</ele><time>2026-05-02T08:12:18.996Z</time></trkpt><trkpt lat="44.4680454" lon="4.6875664"><ele>67.0</ele><time>2026-05-02T08:12:19.996Z</time></trkpt><trkpt lat="44.4678691" lon="4.6876196"><ele>67.0</ele><time>2026-05-02T08:12:20.997Z</time></trkpt><trkpt lat="44.4676883" lon="4.6876733"><ele>67.33333333333333</ele><time>2026-05-02T08:12:21.996Z</time></trkpt><trkpt lat="44.4675032" lon="4.6877292"><ele>67.66666666666667</ele><time>2026-05-02T08:12:22.996Z</time></trkpt><trkpt lat="44.4673172" lon="4.6877824"><ele>68.0</ele><time>2026-05-02T08:12:23.996Z</time></trkpt><trkpt lat="44.4671333" lon="4.6878376"><ele>67.0</ele><time>2026-05-02T08:12:24.996Z</time></trkpt><trkpt lat="44.4669482" lon="4.6878928"><ele>66.0</ele><time>2026-05-02T08:12:25.997Z</time></trkpt><trkpt lat="44.4667658" lon="4.6879476"><ele>65.0</ele><time>2026-05-02T08:12:26.997Z</time></trkpt><trkpt lat="44.4665864" lon="4.6880016"><ele>65.0</ele><time>2026-05-02T08:12:27.996Z</time></trkpt><trkpt lat="44.4664101" lon="4.6880541"><ele>65.0</ele><time>2026-05-02T08:12:28.996Z</time></trkpt><trkpt lat="44.4662407" lon="4.6881029"><ele>65.0</ele><time>2026-05-02T08:12:29.997Z</time></trkpt><trkpt lat="44.4660732" lon="4.6881525"><ele>66.0</ele><time>2026-05-02T08:12:30.996Z</time></trkpt><trkpt lat="44.4659053" lon="4.6881993"><ele>67.0</ele><time>2026-05-02T08:12:31.996Z</time></trkpt><trkpt lat="44.465737" lon="4.6882483"><ele>68.0</ele><time>2026-05-02T08:12:32.997Z</time></trkpt><trkpt lat="44.4655672" lon="4.6882986"><ele>68.33333333333334</ele><time>2026-05-02T08:12:33.996Z</time></trkpt><trkpt lat="44.4653963" lon="4.6883485"><ele>68.66666666666667</ele><time>2026-05-02T08:12:34.996Z</time></trkpt><trkpt lat="44.4652243" lon="4.6884008"><ele>69.0</ele><time>2026-05-02T08:12:35.996Z</time></trkpt><trkpt lat="44.4650491" lon="4.6884525"><ele>69.0</ele><time>2026-05-02T08:12:36.996Z</time></trkpt><trkpt lat="44.4648723" lon="4.6885048"><ele>69.0</ele><time>2026-05-02T08:12:37.996Z</time></trkpt><trkpt lat="44.4646975" lon="4.6885578"><ele>69.0</ele><time>2026-05-02T08:12:38.996Z</time></trkpt><trkpt lat="44.4645232" lon="4.6886087"><ele>67.66666666666667</ele><time>2026-05-02T08:12:39.997Z</time></trkpt><trkpt lat="44.4643487" lon="4.6886584"><ele>66.33333333333334</ele><time>2026-05-02T08:12:40.995Z</time></trkpt><trkpt lat="44.4641751" lon="4.6887099"><ele>65.0</ele><time>2026-05-02T08:12:41.996Z</time></trkpt><trkpt lat="44.4640018" lon="4.6887625"><ele>65.0</ele><time>2026-05-02T08:12:42.996Z</time></trkpt><trkpt lat="44.4638293" lon="4.6888124"><ele>65.0</ele><time>2026-05-02T08:12:43.996Z</time></trkpt><trkpt lat="44.4636574" lon="4.6888607"><ele>65.0</ele><time>2026-05-02T08:12:44.996Z</time></trkpt><trkpt lat="44.4634846" lon="4.688904"><ele>64.66666666666667</ele><time>2026-05-02T08:12:45.996Z</time></trkpt><trkpt lat="44.4633105" lon="4.6889396"><ele>64.33333333333333</ele><time>2026-05-02T08:12:46.996Z</time></trkpt><trkpt lat="44.4631354" lon="4.6889654"><ele>64.0</ele><time>2026-05-02T08:12:47.996Z</time></trkpt><trkpt lat="44.4629575" lon="4.6889771"><ele>63.666666666666664</ele><time>2026-05-02T08:12:48.996Z</time></trkpt><trkpt lat="44.4627754" lon="4.6889816"><ele>63.33333333333333</ele><time>2026-05-02T08:12:49.996Z</time></trkpt><trkpt lat="44.4625877" lon="4.6889782"><ele>63.0</ele><time>2026-05-02T08:12:50.996Z</time></trkpt><trkpt lat="44.4623928" lon="4.688961"><ele>63.0</ele><time>2026-05-02T08:12:51.997Z</time></trkpt><trkpt lat="44.4621956" lon="4.6889295"><ele>63.0</ele><time>2026-05-02T08:12:52.996Z</time></trkpt><trkpt lat="44.4619973" lon="4.688884"><ele>63.0</ele><time>2026-05-02T08:12:53.996Z</time></trkpt><trkpt lat="44.4617982" lon="4.6888222"><ele>62.66666666666667</ele><time>2026-05-02T08:12:54.995Z</time></trkpt><trkpt lat="44.4615965" lon="4.6887475"><ele>62.333333333333336</ele><time>2026-05-02T08:12:55.996Z</time></trkpt><trkpt lat="44.4613926" lon="4.6886615"><ele>62.0</ele><time>2026-05-02T08:12:56.996Z</time></trkpt><trkpt lat="44.4611837" lon="4.6885721"><ele>63.0</ele><time>2026-05-02T08:12:57.997Z</time></trkpt><trkpt lat="44.4609706" lon="4.688481"><ele>64.0</ele><time>2026-05-02T08:12:58.995Z</time></trkpt><trkpt lat="44.4607544" lon="4.6883828"><ele>64.0</ele><time>2026-05-02T08:12:59.997Z</time></trkpt><trkpt lat="44.4605335" lon="4.6882868"><ele>64.0</ele><time>2026-05-02T08:13:00.996Z</time></trkpt><trkpt lat="44.4603103" lon="4.6881891"><ele>62.0</ele><time>2026-05-02T08:13:01.996Z</time></trkpt><trkpt lat="44.460091" lon="4.6880919"><ele>60.0</ele><time>2026-05-02T08:13:02.996Z</time></trkpt><trkpt lat="44.459869" lon="4.6879914"><ele>60.0</ele><time>2026-05-02T08:13:03.995Z</time></trkpt><trkpt lat="44.4596453" lon="4.6878918"><ele>60.0</ele><time>2026-05-02T08:13:04.996Z</time></trkpt><trkpt lat="44.4594205" lon="4.6877922"><ele>61.0</ele><time>2026-05-02T08:13:05.995Z</time></trkpt><trkpt lat="44.4591938" lon="4.6876932"><ele>62.0</ele><time>2026-05-02T08:13:06.996Z</time></trkpt><trkpt lat="44.4589661" lon="4.6875924"><ele>62.5</ele><time>2026-05-02T08:13:07.996Z</time></trkpt><trkpt lat="44.4587379" lon="4.6874935"><ele>63.0</ele><time>2026-05-02T08:13:08.995Z</time></trkpt><trkpt lat="44.4585104" lon="4.6873936"><ele>63.0</ele><time>2026-05-02T08:13:09.997Z</time></trkpt><trkpt lat="44.4582826" lon="4.6872936"><ele>63.0</ele><time>2026-05-02T08:13:10.997Z</time></trkpt><trkpt lat="44.4580565" lon="4.6871945"><ele>62.0</ele><time>2026-05-02T08:13:11.996Z</time></trkpt><trkpt lat="44.4578323" lon="4.6870962"><ele>61.0</ele><time>2026-05-02T08:13:12.996Z</time></trkpt><trkpt lat="44.4576094" lon="4.6869957"><ele>62.0</ele><time>2026-05-02T08:13:13.996Z</time></trkpt><trkpt lat="44.457388" lon="4.6868952"><ele>63.0</ele><time>2026-05-02T08:13:14.997Z</time></trkpt><trkpt lat="44.4571669" lon="4.6867963"><ele>63.0</ele><time>2026-05-02T08:13:15.996Z</time></trkpt><trkpt lat="44.4569468" lon="4.6866995"><ele>63.0</ele><time>2026-05-02T08:13:16.997Z</time></trkpt><trkpt lat="44.4567287" lon="4.6866032"><ele>63.0</ele><time>2026-05-02T08:13:17.996Z</time></trkpt><trkpt lat="44.456513" lon="4.686508"><ele>63.0</ele><time>2026-05-02T08:13:18.997Z</time></trkpt><trkpt lat="44.4562979" lon="4.6864151"><ele>62.33333333333333</ele><time>2026-05-02T08:13:19.997Z</time></trkpt><trkpt lat="44.4560835" lon="4.6863304"><ele>61.666666666666664</ele><time>2026-05-02T08:13:20.997Z</time></trkpt><trkpt lat="44.4558702" lon="4.6862596"><ele>61.0</ele><time>2026-05-02T08:13:21.997Z</time></trkpt><trkpt lat="44.4556629" lon="4.6862028"><ele>61.0</ele><time>2026-05-02T08:13:22.997Z</time></trkpt><trkpt lat="44.4554619" lon="4.6861514"><ele>61.0</ele><time>2026-05-02T08:13:23.996Z</time></trkpt><trkpt lat="44.4552678" lon="4.6861078"><ele>61.0</ele><time>2026-05-02T08:13:24.996Z</time></trkpt><trkpt lat="44.4550796" lon="4.6860692"><ele>61.33333333333333</ele><time>2026-05-02T08:13:25.996Z</time></trkpt><trkpt lat="44.4548937" lon="4.6860334"><ele>61.66666666666667</ele><time>2026-05-02T08:13:26.997Z</time></trkpt><trkpt lat="44.4547087" lon="4.6859958"><ele>62.0</ele><time>2026-05-02T08:13:27.997Z</time></trkpt><trkpt lat="44.454522" lon="4.6859575"><ele>62.0</ele><time>2026-05-02T08:13:28.996Z</time></trkpt><trkpt lat="44.4543325" lon="4.6859182"><ele>62.0</ele><time>2026-05-02T08:13:29.996Z</time></trkpt><trkpt lat="44.4541396" lon="4.6858785"><ele>62.0</ele><time>2026-05-02T08:13:30.996Z</time></trkpt><trkpt lat="44.4539419" lon="4.6858384"><ele>62.0</ele><time>2026-05-02T08:13:31.996Z</time></trkpt><trkpt lat="44.4537407" lon="4.6857991"><ele>62.0</ele><time>2026-05-02T08:13:32.996Z</time></trkpt><trkpt lat="44.4535372" lon="4.685757"><ele>62.0</ele><time>2026-05-02T08:13:33.997Z</time></trkpt><trkpt lat="44.4533368" lon="4.6857157"><ele>62.0</ele><time>2026-05-02T08:13:34.996Z</time></trkpt><trkpt lat="44.4531428" lon="4.685673"><ele>62.0</ele><time>2026-05-02T08:13:35.996Z</time></trkpt><trkpt lat="44.4529549" lon="4.6856331"><ele>62.0</ele><time>2026-05-02T08:13:36.996Z</time></trkpt><trkpt lat="44.4527691" lon="4.6855955"><ele>60.66666666666667</ele><time>2026-05-02T08:13:37.996Z</time></trkpt><trkpt lat="44.4525812" lon="4.6855565"><ele>59.33333333333333</ele><time>2026-05-02T08:13:38.997Z</time></trkpt><trkpt lat="44.4523884" lon="4.6855165"><ele>58.0</ele><time>2026-05-02T08:13:39.996Z</time></trkpt><trkpt lat="44.4521925" lon="4.6854762"><ele>58.0</ele><time>2026-05-02T08:13:40.995Z</time></trkpt><trkpt lat="44.4519977" lon="4.685434"><ele>58.0</ele><time>2026-05-02T08:13:41.996Z</time></trkpt><trkpt lat="44.4518005" lon="4.6853907"><ele>58.0</ele><time>2026-05-02T08:13:42.996Z</time></trkpt><trkpt lat="44.451601" lon="4.6853481"><ele>58.0</ele><time>2026-05-02T08:13:43.996Z</time></trkpt><trkpt lat="44.4514001" lon="4.6853068"><ele>58.0</ele><time>2026-05-02T08:13:44.995Z</time></trkpt><trkpt lat="44.4511978" lon="4.6852655"><ele>58.0</ele><time>2026-05-02T08:13:45.996Z</time></trkpt><trkpt lat="44.4509941" lon="4.6852216"><ele>59.666666666666664</ele><time>2026-05-02T08:13:46.996Z</time></trkpt><trkpt lat="44.4507889" lon="4.6851789"><ele>61.33333333333333</ele><time>2026-05-02T08:13:47.996Z</time></trkpt><trkpt lat="44.4505833" lon="4.6851358"><ele>63.0</ele><time>2026-05-02T08:13:48.996Z</time></trkpt><trkpt lat="44.4503771" lon="4.6850926"><ele>63.0</ele><time>2026-05-02T08:13:49.997Z</time></trkpt><trkpt lat="44.4501723" lon="4.6850488"><ele>63.0</ele><time>2026-05-02T08:13:50.996Z</time></trkpt><trkpt lat="44.4499702" lon="4.6850092"><ele>63.0</ele><time>2026-05-02T08:13:51.996Z</time></trkpt><trkpt lat="44.44977" lon="4.6849689"><ele>63.33333333333333</ele><time>2026-05-02T08:13:52.996Z</time></trkpt><trkpt lat="44.4495675" lon="4.6849271"><ele>63.666666666666664</ele><time>2026-05-02T08:13:53.996Z</time></trkpt><trkpt lat="44.4493641" lon="4.6848859"><ele>64.0</ele><time>2026-05-02T08:13:54.996Z</time></trkpt><trkpt lat="44.4491589" lon="4.6848442"><ele>64.0</ele><time>2026-05-02T08:13:55.996Z</time></trkpt><trkpt lat="44.4489514" lon="4.6848033"><ele>64.0</ele><time>2026-05-02T08:13:56.996Z</time></trkpt><trkpt lat="44.4487409" lon="4.6847621"><ele>64.0</ele><time>2026-05-02T08:13:57.997Z</time></trkpt><trkpt lat="44.4485288" lon="4.6847218"><ele>63.33333333333333</ele><time>2026-05-02T08:13:58.995Z</time></trkpt><trkpt lat="44.4483148" lon="4.68468"><ele>62.66666666666667</ele><time>2026-05-02T08:13:59.997Z</time></trkpt><trkpt lat="44.4480997" lon="4.6846379"><ele>62.0</ele><time>2026-05-02T08:14:00.996Z</time></trkpt><trkpt lat="44.447886" lon="4.6845956"><ele>59.66666666666667</ele><time>2026-05-02T08:14:01.995Z</time></trkpt><trkpt lat="44.4476758" lon="4.6845555"><ele>57.33333333333333</ele><time>2026-05-02T08:14:02.997Z</time></trkpt><trkpt lat="44.4474725" lon="4.6845166"><ele>55.0</ele><time>2026-05-02T08:14:03.997Z</time></trkpt><trkpt lat="44.4472754" lon="4.6844777"><ele>55.33333333333333</ele><time>2026-05-02T08:14:04.996Z</time></trkpt><trkpt lat="44.4470748" lon="4.6844369"><ele>55.66666666666667</ele><time>2026-05-02T08:14:05.997Z</time></trkpt><trkpt lat="44.4468726" lon="4.6843946"><ele>56.0</ele><time>2026-05-02T08:14:06.995Z</time></trkpt><trkpt lat="44.4466695" lon="4.6843527"><ele>57.333333333333336</ele><time>2026-05-02T08:14:07.996Z</time></trkpt><trkpt lat="44.4464647" lon="4.684307"><ele>58.66666666666667</ele><time>2026-05-02T08:14:08.996Z</time></trkpt><trkpt lat="44.4462581" lon="4.6842593"><ele>60.0</ele><time>2026-05-02T08:14:09.996Z</time></trkpt><trkpt lat="44.4460496" lon="4.6842091"><ele>60.0</ele><time>2026-05-02T08:14:10.996Z</time></trkpt><trkpt lat="44.4458409" lon="4.6841493"><ele>60.0</ele><time>2026-05-02T08:14:11.997Z</time></trkpt><trkpt lat="44.4456324" lon="4.6840776"><ele>60.0</ele><time>2026-05-02T08:14:12.997Z</time></trkpt><trkpt lat="44.4454253" lon="4.6839952"><ele>59.33333333333333</ele><time>2026-05-02T08:14:13.996Z</time></trkpt><trkpt lat="44.4452202" lon="4.6839032"><ele>58.666666666666664</ele><time>2026-05-02T08:14:14.996Z</time></trkpt><trkpt lat="44.4450214" lon="4.6838009"><ele>58.0</ele><time>2026-05-02T08:14:15.996Z</time></trkpt><trkpt lat="44.4448305" lon="4.6836806"><ele>58.666666666666664</ele><time>2026-05-02T08:14:16.996Z</time></trkpt><trkpt lat="44.4446461" lon="4.6835367"><ele>59.33333333333333</ele><time>2026-05-02T08:14:17.996Z</time></trkpt><trkpt lat="44.4444703" lon="4.6833744"><ele>60.0</ele><time>2026-05-02T08:14:18.996Z</time></trkpt><trkpt lat="44.4443035" lon="4.6831973"><ele>60.33333333333333</ele><time>2026-05-02T08:14:19.996Z</time></trkpt><trkpt lat="44.4441491" lon="4.6830012"><ele>60.666666666666664</ele><time>2026-05-02T08:14:20.996Z</time></trkpt><trkpt lat="44.4440059" lon="4.6827892"><ele>61.0</ele><time>2026-05-02T08:14:21.996Z</time></trkpt><trkpt lat="44.4438695" lon="4.6825645"><ele>61.33333333333333</ele><time>2026-05-02T08:14:22.996Z</time></trkpt><trkpt lat="44.4437391" lon="4.6823283"><ele>61.66666666666667</ele><time>2026-05-02T08:14:23.997Z</time></trkpt><trkpt lat="44.4436156" lon="4.6820799"><ele>62.0</ele><time>2026-05-02T08:14:24.997Z</time></trkpt><trkpt lat="44.4435012" lon="4.6818169"><ele>62.333333333333336</ele><time>2026-05-02T08:14:25.996Z</time></trkpt><trkpt lat="44.4433906" lon="4.6815552"><ele>62.66666666666667</ele><time>2026-05-02T08:14:26.996Z</time></trkpt><trkpt lat="44.4432792" lon="4.681292"><ele>63.0</ele><time>2026-05-02T08:14:27.996Z</time></trkpt><trkpt lat="44.4431612" lon="4.6810379"><ele>62.33333333333333</ele><time>2026-05-02T08:14:28.996Z</time></trkpt><trkpt lat="44.443034" lon="4.6807942"><ele>61.666666666666664</ele><time>2026-05-02T08:14:29.996Z</time></trkpt><trkpt lat="44.4428992" lon="4.6805605"><ele>61.0</ele><time>2026-05-02T08:14:30.997Z</time></trkpt><trkpt lat="44.4427595" lon="4.6803425"><ele>64.33333333333333</ele><time>2026-05-02T08:14:31.996Z</time></trkpt><trkpt lat="44.4426098" lon="4.6801502"><ele>67.66666666666667</ele><time>2026-05-02T08:14:32.996Z</time></trkpt><trkpt lat="44.442448" lon="4.6799889"><ele>71.0</ele><time>2026-05-02T08:14:33.996Z</time></trkpt><trkpt lat="44.4422742" lon="4.6798545"><ele>68.0</ele><time>2026-05-02T08:14:34.996Z</time></trkpt><trkpt lat="44.4420939" lon="4.6797349"><ele>65.0</ele><time>2026-05-02T08:14:35.996Z</time></trkpt><trkpt lat="44.4419092" lon="4.6796225"><ele>62.0</ele><time>2026-05-02T08:14:36.997Z</time></trkpt><trkpt lat="44.4417229" lon="4.6795068"><ele>62.333333333333336</ele><time>2026-05-02T08:14:37.997Z</time></trkpt><trkpt lat="44.4415365" lon="4.6793878"><ele>62.66666666666667</ele><time>2026-05-02T08:14:38.996Z</time></trkpt><trkpt lat="44.4413507" lon="4.6792606"><ele>63.0</ele><time>2026-05-02T08:14:39.996Z</time></trkpt><trkpt lat="44.4411684" lon="4.6791156"><ele>63.0</ele><time>2026-05-02T08:14:40.996Z</time></trkpt><trkpt lat="44.4409914" lon="4.678947"><ele>63.0</ele><time>2026-05-02T08:14:41.996Z</time></trkpt><trkpt lat="44.4408188" lon="4.6787639"><ele>63.0</ele><time>2026-05-02T08:14:42.996Z</time></trkpt><trkpt lat="44.4406507" lon="4.6785657"><ele>61.5</ele><time>2026-05-02T08:14:43.996Z</time></trkpt><trkpt lat="44.4404874" lon="4.6783509"><ele>60.0</ele><time>2026-05-02T08:14:44.996Z</time></trkpt><trkpt lat="44.4403303" lon="4.6781231"><ele>60.0</ele><time>2026-05-02T08:14:45.996Z</time></trkpt><trkpt lat="44.4401785" lon="4.6778844"><ele>60.0</ele><time>2026-05-02T08:14:46.996Z</time></trkpt><trkpt lat="44.440027" lon="4.6776425"><ele>64.0</ele><time>2026-05-02T08:14:47.996Z</time></trkpt><trkpt lat="44.4398771" lon="4.677401"><ele>68.0</ele><time>2026-05-02T08:14:48.996Z</time></trkpt><trkpt lat="44.4397288" lon="4.6771588"><ele>65.0</ele><time>2026-05-02T08:14:49.996Z</time></trkpt><trkpt lat="44.4395814" lon="4.6769159"><ele>62.0</ele><time>2026-05-02T08:14:50.995Z</time></trkpt><trkpt lat="44.4394395" lon="4.6766666"><ele>62.0</ele><time>2026-05-02T08:14:51.996Z</time></trkpt><trkpt lat="44.439303" lon="4.6764069"><ele>62.0</ele><time>2026-05-02T08:14:52.997Z</time></trkpt><trkpt lat="44.4391739" lon="4.6761375"><ele>63.5</ele><time>2026-05-02T08:14:53.996Z</time></trkpt><trkpt lat="44.4390553" lon="4.6758617"><ele>65.0</ele><time>2026-05-02T08:14:54.996Z</time></trkpt><trkpt lat="44.4389472" lon="4.6755789"><ele>65.0</ele><time>2026-05-02T08:14:55.996Z</time></trkpt><trkpt lat="44.4388473" lon="4.6752918"><ele>65.0</ele><time>2026-05-02T08:14:56.997Z</time></trkpt><trkpt lat="44.4387593" lon="4.6750048"><ele>63.0</ele><time>2026-05-02T08:14:57.996Z</time></trkpt><trkpt lat="44.4386825" lon="4.6747164"><ele>61.0</ele><time>2026-05-02T08:14:58.997Z</time></trkpt><trkpt lat="44.4386199" lon="4.6744329"><ele>59.0</ele><time>2026-05-02T08:14:59.995Z</time></trkpt><trkpt lat="44.4385684" lon="4.6741549"><ele>59.0</ele><time>2026-05-02T08:15:00.997Z</time></trkpt><trkpt lat="44.4385272" lon="4.6738872"><ele>59.0</ele><time>2026-05-02T08:15:01.996Z</time></trkpt><trkpt lat="44.4384894" lon="4.6736278"><ele>59.0</ele><time>2026-05-02T08:15:02.997Z</time></trkpt><trkpt lat="44.4384536" lon="4.6733784"><ele>59.0</ele><time>2026-05-02T08:15:03.996Z</time></trkpt><trkpt lat="44.4384207" lon="4.6731376"><ele>59.0</ele><time>2026-05-02T08:15:04.995Z</time></trkpt><trkpt lat="44.4383891" lon="4.6729037"><ele>59.0</ele><time>2026-05-02T08:15:05.996Z</time></trkpt><trkpt lat="44.4383629" lon="4.672676"><ele>58.75</ele><time>2026-05-02T08:15:06.997Z</time></trkpt><trkpt lat="44.4383416" lon="4.6724585"><ele>58.5</ele><time>2026-05-02T08:15:07.996Z</time></trkpt><trkpt lat="44.4383239" lon="4.6722539"><ele>58.25</ele><time>2026-05-02T08:15:08.997Z</time></trkpt><trkpt lat="44.4383086" lon="4.6720653"><ele>58.0</ele><time>2026-05-02T08:15:09.996Z</time></trkpt><trkpt lat="44.4382934" lon="4.6718778"><ele>58.0</ele><time>2026-05-02T08:15:10.996Z</time></trkpt><trkpt lat="44.4382771" lon="4.6716915"><ele>58.0</ele><time>2026-05-02T08:15:11.996Z</time></trkpt><trkpt lat="44.4382601" lon="4.6715019"><ele>58.0</ele><time>2026-05-02T08:15:12.995Z</time></trkpt><trkpt lat="44.4382447" lon="4.6713087"><ele>58.0</ele><time>2026-05-02T08:15:13.997Z</time></trkpt><trkpt lat="44.438229" lon="4.6711161"><ele>58.5</ele><time>2026-05-02T08:15:14.996Z</time></trkpt><trkpt lat="44.4382114" lon="4.6709233"><ele>59.0</ele><time>2026-05-02T08:15:15.996Z</time></trkpt><trkpt lat="44.4381943" lon="4.6707363"><ele>59.5</ele><time>2026-05-02T08:15:16.996Z</time></trkpt><trkpt lat="44.4381764" lon="4.670553"><ele>60.0</ele><time>2026-05-02T08:15:17.997Z</time></trkpt><trkpt lat="44.4381592" lon="4.670366"><ele>60.25</ele><time>2026-05-02T08:15:18.996Z</time></trkpt><trkpt lat="44.4381431" lon="4.6701756"><ele>60.5</ele><time>2026-05-02T08:15:19.995Z</time></trkpt><trkpt lat="44.4381283" lon="4.669987"><ele>60.75</ele><time>2026-05-02T08:15:20.996Z</time></trkpt><trkpt lat="44.4381115" lon="4.6698002"><ele>61.0</ele><time>2026-05-02T08:15:21.996Z</time></trkpt><trkpt lat="44.4380952" lon="4.6696136"><ele>61.75</ele><time>2026-05-02T08:15:22.996Z</time></trkpt><trkpt lat="44.4380801" lon="4.6694336"><ele>62.5</ele><time>2026-05-02T08:15:23.995Z</time></trkpt><trkpt lat="44.4380659" lon="4.6692592"><ele>63.25</ele><time>2026-05-02T08:15:24.996Z</time></trkpt><trkpt lat="44.4380508" lon="4.6690896"><ele>64.0</ele><time>2026-05-02T08:15:25.997Z</time></trkpt><trkpt lat="44.4380349" lon="4.6689278"><ele>64.0</ele><time>2026-05-02T08:15:26.996Z</time></trkpt><trkpt lat="44.4380215" lon="4.6687691"><ele>64.0</ele><time>2026-05-02T08:15:27.996Z</time></trkpt><trkpt lat="44.4380083" lon="4.6686129"><ele>64.0</ele><time>2026-05-02T08:15:28.996Z</time></trkpt><trkpt lat="44.4379936" lon="4.6684496"><ele>64.0</ele><time>2026-05-02T08:15:29.996Z</time></trkpt><trkpt lat="44.4379789" lon="4.66828"><ele>63.75</ele><time>2026-05-02T08:15:30.996Z</time></trkpt><trkpt lat="44.4379624" lon="4.6681006"><ele>63.5</ele><time>2026-05-02T08:15:31.997Z</time></trkpt><trkpt lat="44.4379465" lon="4.6679252"><ele>63.25</ele><time>2026-05-02T08:15:32.996Z</time></trkpt><trkpt lat="44.4379314" lon="4.6677505"><ele>63.0</ele><time>2026-05-02T08:15:33.996Z</time></trkpt><trkpt lat="44.4379156" lon="4.667577"><ele>63.0</ele><time>2026-05-02T08:15:34.996Z</time></trkpt><trkpt lat="44.4378989" lon="4.6674012"><ele>63.0</ele><time>2026-05-02T08:15:35.996Z</time></trkpt><trkpt lat="44.4378854" lon="4.6672231"><ele>63.0</ele><time>2026-05-02T08:15:36.996Z</time></trkpt><trkpt lat="44.4378702" lon="4.6670458"><ele>63.0</ele><time>2026-05-02T08:15:37.995Z</time></trkpt><trkpt lat="44.4378554" lon="4.6668618"><ele>63.0</ele><time>2026-05-02T08:15:38.995Z</time></trkpt><trkpt lat="44.4378406" lon="4.6666736"><ele>63.0</ele><time>2026-05-02T08:15:39.996Z</time></trkpt><trkpt lat="44.4378241" lon="4.6664727"><ele>63.0</ele><time>2026-05-02T08:15:40.995Z</time></trkpt><trkpt lat="44.4378052" lon="4.6662614"><ele>63.0</ele><time>2026-05-02T08:15:41.997Z</time></trkpt><trkpt lat="44.4377839" lon="4.6660434"><ele>63.0</ele><time>2026-05-02T08:15:42.997Z</time></trkpt><trkpt lat="44.4377627" lon="4.6658199"><ele>63.0</ele><time>2026-05-02T08:15:43.996Z</time></trkpt><trkpt lat="44.4377416" lon="4.6655915"><ele>63.0</ele><time>2026-05-02T08:15:44.995Z</time></trkpt><trkpt lat="44.4377199" lon="4.6653624"><ele>62.66666666666667</ele><time>2026-05-02T08:15:45.997Z</time></trkpt><trkpt lat="44.4376987" lon="4.6651352"><ele>62.333333333333336</ele><time>2026-05-02T08:15:46.996Z</time></trkpt><trkpt lat="44.4376753" lon="4.6649131"><ele>62.0</ele><time>2026-05-02T08:15:47.995Z</time></trkpt><trkpt lat="44.4376515" lon="4.6646944"><ele>62.0</ele><time>2026-05-02T08:15:48.997Z</time></trkpt><trkpt lat="44.4376269" lon="4.6644803"><ele>62.0</ele><time>2026-05-02T08:15:49.996Z</time></trkpt><trkpt lat="44.4375984" lon="4.6642752"><ele>62.0</ele><time>2026-05-02T08:15:50.996Z</time></trkpt><trkpt lat="44.4375664" lon="4.6640715"><ele>62.66666666666667</ele><time>2026-05-02T08:15:51.997Z</time></trkpt><trkpt lat="44.4375319" lon="4.6638682"><ele>63.33333333333333</ele><time>2026-05-02T08:15:52.995Z</time></trkpt><trkpt lat="44.4374941" lon="4.6636641"><ele>64.0</ele><time>2026-05-02T08:15:53.996Z</time></trkpt><trkpt lat="44.4374523" lon="4.6634538"><ele>64.33333333333333</ele><time>2026-05-02T08:15:54.997Z</time></trkpt><trkpt lat="44.4374062" lon="4.6632349"><ele>64.66666666666667</ele><time>2026-05-02T08:15:55.996Z</time></trkpt><trkpt lat="44.4373559" lon="4.6630069"><ele>65.0</ele><time>2026-05-02T08:15:56.997Z</time></trkpt><trkpt lat="44.4373009" lon="4.6627683"><ele>65.33333333333334</ele><time>2026-05-02T08:15:57.996Z</time></trkpt><trkpt lat="44.437242" lon="4.6625268"><ele>65.66666666666667</ele><time>2026-05-02T08:15:58.997Z</time></trkpt><trkpt lat="44.4371776" lon="4.6622855"><ele>66.0</ele><time>2026-05-02T08:15:59.996Z</time></trkpt><trkpt lat="44.437112" lon="4.6620454"><ele>64.0</ele><time>2026-05-02T08:16:00.996Z</time></trkpt><trkpt lat="44.4370423" lon="4.6618055"><ele>62.0</ele><time>2026-05-02T08:16:01.996Z</time></trkpt><trkpt lat="44.4369716" lon="4.6615694"><ele>60.0</ele><time>2026-05-02T08:16:02.996Z</time></trkpt><trkpt lat="44.4369029" lon="4.6613399"><ele>60.0</ele><time>2026-05-02T08:16:03.996Z</time></trkpt><trkpt lat="44.4368323" lon="4.6611161"><ele>60.0</ele><time>2026-05-02T08:16:04.996Z</time></trkpt><trkpt lat="44.4367628" lon="4.6608972"><ele>60.0</ele><time>2026-05-02T08:16:05.997Z</time></trkpt><trkpt lat="44.4366932" lon="4.6606779"><ele>60.66666666666667</ele><time>2026-05-02T08:16:06.995Z</time></trkpt><trkpt lat="44.4366226" lon="4.6604599"><ele>61.333333333333336</ele><time>2026-05-02T08:16:07.997Z</time></trkpt><trkpt lat="44.4365518" lon="4.6602433"><ele>62.0</ele><time>2026-05-02T08:16:08.995Z</time></trkpt><trkpt lat="44.4364803" lon="4.6600286"><ele>62.0</ele><time>2026-05-02T08:16:09.996Z</time></trkpt><trkpt lat="44.4364125" lon="4.6598176"><ele>62.0</ele><time>2026-05-02T08:16:10.997Z</time></trkpt><trkpt lat="44.4363432" lon="4.659607"><ele>62.0</ele><time>2026-05-02T08:16:11.996Z</time></trkpt><trkpt lat="44.4362718" lon="4.6594003"><ele>62.0</ele><time>2026-05-02T08:16:12.996Z</time></trkpt><trkpt lat="44.4361988" lon="4.6591971"><ele>62.0</ele><time>2026-05-02T08:16:13.997Z</time></trkpt><trkpt lat="44.4361269" lon="4.6589925"><ele>62.0</ele><time>2026-05-02T08:16:14.996Z</time></trkpt><trkpt lat="44.4360553" lon="4.6587885"><ele>62.66666666666667</ele><time>2026-05-02T08:16:15.996Z</time></trkpt><trkpt lat="44.4359843" lon="4.6585885"><ele>63.33333333333333</ele><time>2026-05-02T08:16:16.997Z</time></trkpt><trkpt lat="44.435915" lon="4.6583893"><ele>64.0</ele><time>2026-05-02T08:16:17.997Z</time></trkpt><trkpt lat="44.4358471" lon="4.6581908"><ele>64.0</ele><time>2026-05-02T08:16:18.996Z</time></trkpt><trkpt lat="44.4357802" lon="4.6579924"><ele>64.0</ele><time>2026-05-02T08:16:19.996Z</time></trkpt><trkpt lat="44.4357119" lon="4.6577892"><ele>64.0</ele><time>2026-05-02T08:16:20.996Z</time></trkpt><trkpt lat="44.4356424" lon="4.6575797"><ele>64.33333333333333</ele><time>2026-05-02T08:16:21.996Z</time></trkpt><trkpt lat="44.4355756" lon="4.6573641"><ele>64.66666666666667</ele><time>2026-05-02T08:16:22.996Z</time></trkpt><trkpt lat="44.435513" lon="4.6571439"><ele>65.0</ele><time>2026-05-02T08:16:23.997Z</time></trkpt><trkpt lat="44.4354552" lon="4.6569195"><ele>64.33333333333334</ele><time>2026-05-02T08:16:24.997Z</time></trkpt><trkpt lat="44.4353971" lon="4.6566919"><ele>63.66666666666667</ele><time>2026-05-02T08:16:25.997Z</time></trkpt><trkpt lat="44.4353363" lon="4.6564582"><ele>63.0</ele><time>2026-05-02T08:16:26.996Z</time></trkpt><trkpt lat="44.4352745" lon="4.6562178"><ele>63.33333333333333</ele><time>2026-05-02T08:16:27.995Z</time></trkpt><trkpt lat="44.4352131" lon="4.6559752"><ele>63.666666666666664</ele><time>2026-05-02T08:16:28.996Z</time></trkpt><trkpt lat="44.4351509" lon="4.6557276"><ele>64.0</ele><time>2026-05-02T08:16:29.996Z</time></trkpt><trkpt lat="44.4350898" lon="4.6554811"><ele>63.666666666666664</ele><time>2026-05-02T08:16:30.997Z</time></trkpt><trkpt lat="44.4350288" lon="4.6552354"><ele>63.33333333333333</ele><time>2026-05-02T08:16:31.996Z</time></trkpt><trkpt lat="44.4349679" lon="4.6549906"><ele>63.0</ele><time>2026-05-02T08:16:32.996Z</time></trkpt><trkpt lat="44.4349075" lon="4.6547477"><ele>63.0</ele><time>2026-05-02T08:16:33.996Z</time></trkpt><trkpt lat="44.4348478" lon="4.6545094"><ele>63.0</ele><time>2026-05-02T08:16:34.997Z</time></trkpt><trkpt lat="44.4347837" lon="4.6542755"><ele>63.0</ele><time>2026-05-02T08:16:35.996Z</time></trkpt><trkpt lat="44.4347087" lon="4.6540502"><ele>63.66666666666667</ele><time>2026-05-02T08:16:36.996Z</time></trkpt><trkpt lat="44.4346242" lon="4.6538349"><ele>64.33333333333334</ele><time>2026-05-02T08:16:37.996Z</time></trkpt><trkpt lat="44.4345278" lon="4.6536328"><ele>65.0</ele><time>2026-05-02T08:16:38.996Z</time></trkpt><trkpt lat="44.4344188" lon="4.6534457"><ele>65.0</ele><time>2026-05-02T08:16:39.996Z</time></trkpt><trkpt lat="44.4342991" lon="4.6532731"><ele>65.0</ele><time>2026-05-02T08:16:40.996Z</time></trkpt><trkpt lat="44.4341689" lon="4.6531105"><ele>65.0</ele><time>2026-05-02T08:16:41.996Z</time></trkpt><trkpt lat="44.4340293" lon="4.652959"><ele>65.0</ele><time>2026-05-02T08:16:42.997Z</time></trkpt><trkpt lat="44.4338844" lon="4.6528049"><ele>65.0</ele><time>2026-05-02T08:16:43.997Z</time></trkpt><trkpt lat="44.4337359" lon="4.652647"><ele>65.0</ele><time>2026-05-02T08:16:44.996Z</time></trkpt><trkpt lat="44.433585" lon="4.6524848"><ele>63.66666666666667</ele><time>2026-05-02T08:16:45.996Z</time></trkpt><trkpt lat="44.4334306" lon="4.6523189"><ele>62.33333333333333</ele><time>2026-05-02T08:16:46.997Z</time></trkpt><trkpt lat="44.4332772" lon="4.6521501"><ele>61.0</ele><time>2026-05-02T08:16:47.997Z</time></trkpt><trkpt lat="44.4331206" lon="4.6519827"><ele>61.666666666666664</ele><time>2026-05-02T08:16:48.996Z</time></trkpt><trkpt lat="44.4329611" lon="4.6518184"><ele>62.33333333333333</ele><time>2026-05-02T08:16:49.997Z</time></trkpt><trkpt lat="44.4327964" lon="4.6516635"><ele>63.0</ele><time>2026-05-02T08:16:50.996Z</time></trkpt><trkpt lat="44.4326262" lon="4.6515214"><ele>63.0</ele><time>2026-05-02T08:16:51.996Z</time></trkpt><trkpt lat="44.4324501" lon="4.6513995"><ele>63.0</ele><time>2026-05-02T08:16:52.995Z</time></trkpt><trkpt lat="44.4322659" lon="4.6512905"><ele>63.0</ele><time>2026-05-02T08:16:53.997Z</time></trkpt><trkpt lat="44.4320773" lon="4.6511886"><ele>65.0</ele><time>2026-05-02T08:16:54.996Z</time></trkpt><trkpt lat="44.4318854" lon="4.651091"><ele>67.0</ele><time>2026-05-02T08:16:55.996Z</time></trkpt><trkpt lat="44.4316929" lon="4.6509988"><ele>69.0</ele><time>2026-05-02T08:16:56.996Z</time></trkpt><trkpt lat="44.4315027" lon="4.6509083"><ele>69.0</ele><time>2026-05-02T08:16:57.996Z</time></trkpt><trkpt lat="44.4313146" lon="4.6508178"><ele>69.0</ele><time>2026-05-02T08:16:58.996Z</time></trkpt><trkpt lat="44.4311298" lon="4.6507305"><ele>69.0</ele><time>2026-05-02T08:16:59.996Z</time></trkpt><trkpt lat="44.4309533" lon="4.6506484"><ele>67.0</ele><time>2026-05-02T08:17:00.997Z</time></trkpt><trkpt lat="44.4307842" lon="4.6505708"><ele>65.0</ele><time>2026-05-02T08:17:01.996Z</time></trkpt><trkpt lat="44.4306343" lon="4.6504974"><ele>63.0</ele><time>2026-05-02T08:17:02.997Z</time></trkpt><trkpt lat="44.4305086" lon="4.6504324"><ele>62.599999999999994</ele><time>2026-05-02T08:17:03.996Z</time></trkpt><trkpt lat="44.4304064" lon="4.6503663"><ele>62.199999999999996</ele><time>2026-05-02T08:17:04.996Z</time></trkpt><trkpt lat="44.430315" lon="4.6502823"><ele>61.8</ele><time>2026-05-02T08:17:05.997Z</time></trkpt><trkpt lat="44.4302313" lon="4.650187"><ele>61.4</ele><time>2026-05-02T08:17:06.996Z</time></trkpt><trkpt lat="44.4301546" lon="4.6501013"><ele>61.0</ele><time>2026-05-02T08:17:07.997Z</time></trkpt><trkpt lat="44.4300759" lon="4.650064"><ele>62.199999999999996</ele><time>2026-05-02T08:17:08.997Z</time></trkpt><trkpt lat="44.4299988" lon="4.6500637"><ele>63.39999999999999</ele><time>2026-05-02T08:17:09.996Z</time></trkpt><trkpt lat="44.4299149" lon="4.6500927"><ele>64.6</ele><time>2026-05-02T08:17:10.996Z</time></trkpt><trkpt lat="44.4298128" lon="4.6501136"><ele>65.8</ele><time>2026-05-02T08:17:11.996Z</time></trkpt><trkpt lat="44.4296926" lon="4.6501019"><ele>67.0</ele><time>2026-05-02T08:17:12.996Z</time></trkpt><trkpt lat="44.4295608" lon="4.6500658"><ele>67.33333333333333</ele><time>2026-05-02T08:17:13.997Z</time></trkpt><trkpt lat="44.4294141" lon="4.6500178"><ele>67.66666666666667</ele><time>2026-05-02T08:17:14.996Z</time></trkpt><trkpt lat="44.4292511" lon="4.6499692"><ele>68.0</ele><time>2026-05-02T08:17:15.996Z</time></trkpt><trkpt lat="44.4290734" lon="4.6499159"><ele>68.0</ele><time>2026-05-02T08:17:16.995Z</time></trkpt><trkpt lat="44.4288846" lon="4.6498576"><ele>68.0</ele><time>2026-05-02T08:17:17.996Z</time></trkpt><trkpt lat="44.4286986" lon="4.6498069"><ele>68.0</ele><time>2026-05-02T08:17:18.996Z</time></trkpt><trkpt lat="44.4285079" lon="4.6497679"><ele>67.0</ele><time>2026-05-02T08:17:19.996Z</time></trkpt><trkpt lat="44.4283121" lon="4.6497534"><ele>66.0</ele><time>2026-05-02T08:17:20.996Z</time></trkpt><trkpt lat="44.4281104" lon="4.6497593"><ele>65.0</ele><time>2026-05-02T08:17:21.996Z</time></trkpt><trkpt lat="44.427904" lon="4.6497805"><ele>65.0</ele><time>2026-05-02T08:17:22.996Z</time></trkpt><trkpt lat="44.4276959" lon="4.6498113"><ele>65.0</ele><time>2026-05-02T08:17:23.996Z</time></trkpt><trkpt lat="44.4274889" lon="4.649849"><ele>65.0</ele><time>2026-05-02T08:17:24.996Z</time></trkpt><trkpt lat="44.427284" lon="4.6498892"><ele>65.33333333333334</ele><time>2026-05-02T08:17:25.997Z</time></trkpt><trkpt lat="44.4270844" lon="4.6499422"><ele>65.66666666666667</ele><time>2026-05-02T08:17:26.996Z</time></trkpt><trkpt lat="44.4268891" lon="4.6500247"><ele>66.0</ele><time>2026-05-02T08:17:27.996Z</time></trkpt><trkpt lat="44.4266912" lon="4.6501318"><ele>66.0</ele><time>2026-05-02T08:17:28.996Z</time></trkpt><trkpt lat="44.4264895" lon="4.6502497"><ele>66.0</ele><time>2026-05-02T08:17:29.997Z</time></trkpt><trkpt lat="44.4262853" lon="4.6503627"><ele>66.0</ele><time>2026-05-02T08:17:30.996Z</time></trkpt><trkpt lat="44.4260781" lon="4.6504734"><ele>65.66666666666667</ele><time>2026-05-02T08:17:31.996Z</time></trkpt><trkpt lat="44.4258678" lon="4.6505772"><ele>65.33333333333334</ele><time>2026-05-02T08:17:32.996Z</time></trkpt><trkpt lat="44.425654" lon="4.6506751"><ele>65.0</ele><time>2026-05-02T08:17:33.996Z</time></trkpt><trkpt lat="44.4254389" lon="4.6507655"><ele>65.0</ele><time>2026-05-02T08:17:34.997Z</time></trkpt><trkpt lat="44.4252255" lon="4.6508534"><ele>65.0</ele><time>2026-05-02T08:17:35.996Z</time></trkpt><trkpt lat="44.4250134" lon="4.6509407"><ele>65.0</ele><time>2026-05-02T08:17:36.996Z</time></trkpt><trkpt lat="44.4248015" lon="4.6510328"><ele>64.66666666666667</ele><time>2026-05-02T08:17:37.996Z</time></trkpt><trkpt lat="44.4245886" lon="4.6511256"><ele>64.33333333333333</ele><time>2026-05-02T08:17:38.997Z</time></trkpt><trkpt lat="44.424376" lon="4.6512179"><ele>64.0</ele><time>2026-05-02T08:17:39.996Z</time></trkpt><trkpt lat="44.4241631" lon="4.65131"><ele>64.0</ele><time>2026-05-02T08:17:40.996Z</time></trkpt><trkpt lat="44.423949" lon="4.6514014"><ele>64.0</ele><time>2026-05-02T08:17:41.996Z</time></trkpt><trkpt lat="44.4237329" lon="4.6514883"><ele>64.0</ele><time>2026-05-02T08:17:42.996Z</time></trkpt><trkpt lat="44.423519" lon="4.6515735"><ele>64.33333333333333</ele><time>2026-05-02T08:17:43.996Z</time></trkpt><trkpt lat="44.4233113" lon="4.6516555"><ele>64.66666666666667</ele><time>2026-05-02T08:17:44.996Z</time></trkpt><trkpt lat="44.4231113" lon="4.651736"><ele>65.0</ele><time>2026-05-02T08:17:45.997Z</time></trkpt><trkpt lat="44.422918" lon="4.6518147"><ele>66.33333333333334</ele><time>2026-05-02T08:17:46.996Z</time></trkpt><trkpt lat="44.4227333" lon="4.651889"><ele>67.66666666666667</ele><time>2026-05-02T08:17:47.996Z</time></trkpt><trkpt lat="44.4225559" lon="4.6519574"><ele>69.0</ele><time>2026-05-02T08:17:48.997Z</time></trkpt><trkpt lat="44.4223836" lon="4.6520201"><ele>67.33333333333333</ele><time>2026-05-02T08:17:49.995Z</time></trkpt><trkpt lat="44.4222064" lon="4.6520737"><ele>65.66666666666666</ele><time>2026-05-02T08:17:50.996Z</time></trkpt><trkpt lat="44.4220175" lon="4.6521154"><ele>64.0</ele><time>2026-05-02T08:17:51.996Z</time></trkpt><trkpt lat="44.4218185" lon="4.6521586"><ele>64.0</ele><time>2026-05-02T08:17:52.996Z</time></trkpt><trkpt lat="44.4216082" lon="4.6522049"><ele>64.0</ele><time>2026-05-02T08:17:53.996Z</time></trkpt><trkpt lat="44.4213893" lon="4.6522528"><ele>64.0</ele><time>2026-05-02T08:17:54.997Z</time></trkpt><trkpt lat="44.4211673" lon="4.6523018"><ele>63.0</ele><time>2026-05-02T08:17:55.997Z</time></trkpt><trkpt lat="44.4209463" lon="4.65236"><ele>62.0</ele><time>2026-05-02T08:17:56.995Z</time></trkpt><trkpt lat="44.4207253" lon="4.6524359"><ele>62.0</ele><time>2026-05-02T08:17:57.997Z</time></trkpt><trkpt lat="44.4205046" lon="4.6525324"><ele>62.0</ele><time>2026-05-02T08:17:58.997Z</time></trkpt><trkpt lat="44.4202838" lon="4.6526379"><ele>60.5</ele><time>2026-05-02T08:17:59.996Z</time></trkpt><trkpt lat="44.4200636" lon="4.6527443"><ele>59.0</ele><time>2026-05-02T08:18:00.996Z</time></trkpt><trkpt lat="44.4198441" lon="4.6528508"><ele>58.66666666666667</ele><time>2026-05-02T08:18:01.996Z</time></trkpt><trkpt lat="44.4196315" lon="4.6529539"><ele>58.33333333333333</ele><time>2026-05-02T08:18:02.996Z</time></trkpt><trkpt lat="44.419427" lon="4.6530544"><ele>58.0</ele><time>2026-05-02T08:18:03.996Z</time></trkpt><trkpt lat="44.4192274" lon="4.6531519"><ele>58.0</ele><time>2026-05-02T08:18:04.995Z</time></trkpt><trkpt lat="44.4190317" lon="4.6532452"><ele>58.0</ele><time>2026-05-02T08:18:05.996Z</time></trkpt><trkpt lat="44.4188375" lon="4.6533381"><ele>58.0</ele><time>2026-05-02T08:18:06.996Z</time></trkpt><trkpt lat="44.4186474" lon="4.6534311"><ele>58.33333333333333</ele><time>2026-05-02T08:18:07.996Z</time></trkpt><trkpt lat="44.4184621" lon="4.6535215"><ele>58.66666666666667</ele><time>2026-05-02T08:18:08.996Z</time></trkpt><trkpt lat="44.4182817" lon="4.6536117"><ele>59.0</ele><time>2026-05-02T08:18:09.996Z</time></trkpt><trkpt lat="44.418099" lon="4.6536995"><ele>58.333333333333336</ele><time>2026-05-02T08:18:10.996Z</time></trkpt><trkpt lat="44.4179145" lon="4.6537771"><ele>57.66666666666667</ele><time>2026-05-02T08:18:11.997Z</time></trkpt><trkpt lat="44.4177203" lon="4.6538307"><ele>57.0</ele><time>2026-05-02T08:18:12.996Z</time></trkpt><trkpt lat="44.4175174" lon="4.6538574"><ele>57.0</ele><time>2026-05-02T08:18:13.997Z</time></trkpt><trkpt lat="44.4173101" lon="4.6538748"><ele>57.0</ele><time>2026-05-02T08:18:14.997Z</time></trkpt><trkpt lat="44.4170971" lon="4.6538889"><ele>57.0</ele><time>2026-05-02T08:18:15.997Z</time></trkpt><trkpt lat="44.4168812" lon="4.653905"><ele>57.33333333333333</ele><time>2026-05-02T08:18:16.996Z</time></trkpt><trkpt lat="44.416669" lon="4.6539206"><ele>57.666666666666664</ele><time>2026-05-02T08:18:17.997Z</time></trkpt><trkpt lat="44.4164658" lon="4.6539383"><ele>58.0</ele><time>2026-05-02T08:18:18.996Z</time></trkpt><trkpt lat="44.4162698" lon="4.653956"><ele>58.33333333333333</ele><time>2026-05-02T08:18:19.997Z</time></trkpt><trkpt lat="44.4160849" lon="4.6539754"><ele>58.66666666666667</ele><time>2026-05-02T08:18:20.997Z</time></trkpt><trkpt lat="44.4159246" lon="4.6539949"><ele>59.0</ele><time>2026-05-02T08:18:21.996Z</time></trkpt><trkpt lat="44.41579" lon="4.6540045"><ele>59.0</ele><time>2026-05-02T08:18:22.996Z</time></trkpt><trkpt lat="44.4156739" lon="4.6540005"><ele>59.00000000000001</ele><time>2026-05-02T08:18:23.996Z</time></trkpt><trkpt lat="44.4155727" lon="4.6539659"><ele>59.00000000000001</ele><time>2026-05-02T08:18:24.996Z</time></trkpt><trkpt lat="44.4154929" lon="4.6538942"><ele>59.0</ele><time>2026-05-02T08:18:25.996Z</time></trkpt><trkpt lat="44.4154344" lon="4.6537894"><ele>59.0</ele><time>2026-05-02T08:18:26.996Z</time></trkpt><trkpt lat="44.4153898" lon="4.6536599"><ele>59.0</ele><time>2026-05-02T08:18:27.996Z</time></trkpt><trkpt lat="44.4153456" lon="4.6535133"><ele>59.0</ele><time>2026-05-02T08:18:28.996Z</time></trkpt><trkpt lat="44.4152894" lon="4.6533662"><ele>59.0</ele><time>2026-05-02T08:18:29.995Z</time></trkpt><trkpt lat="44.4152071" lon="4.6532405"><ele>59.0</ele><time>2026-05-02T08:18:30.995Z</time></trkpt><trkpt lat="44.4150975" lon="4.6531442"><ele>59.0</ele><time>2026-05-02T08:18:31.996Z</time></trkpt><trkpt lat="44.414968" lon="4.6530899"><ele>59.0</ele><time>2026-05-02T08:18:32.996Z</time></trkpt><trkpt lat="44.4148204" lon="4.6530702"><ele>59.0</ele><time>2026-05-02T08:18:33.995Z</time></trkpt><trkpt lat="44.4146579" lon="4.6530645"><ele>59.0</ele><time>2026-05-02T08:18:34.995Z</time></trkpt><trkpt lat="44.414486" lon="4.6530509"><ele>59.0</ele><time>2026-05-02T08:18:35.997Z</time></trkpt><trkpt lat="44.4143056" lon="4.6530291"><ele>59.0</ele><time>2026-05-02T08:18:36.997Z</time></trkpt><trkpt lat="44.4141227" lon="4.6529983"><ele>59.0</ele><time>2026-05-02T08:18:37.996Z</time></trkpt><trkpt lat="44.4139397" lon="4.6529466"><ele>58.66666666666667</ele><time>2026-05-02T08:18:38.995Z</time></trkpt><trkpt lat="44.4137607" lon="4.6528617"><ele>58.33333333333333</ele><time>2026-05-02T08:18:39.994Z</time></trkpt><trkpt lat="44.4135845" lon="4.6527452"><ele>58.0</ele><time>2026-05-02T08:18:40.995Z</time></trkpt><trkpt lat="44.4134136" lon="4.6526027"><ele>57.33333333333333</ele><time>2026-05-02T08:18:41.995Z</time></trkpt><trkpt lat="44.4132465" lon="4.6524414"><ele>56.66666666666667</ele><time>2026-05-02T08:18:42.995Z</time></trkpt><trkpt lat="44.4130777" lon="4.6522706"><ele>56.0</ele><time>2026-05-02T08:18:43.995Z</time></trkpt><trkpt lat="44.4129059" lon="4.6520909"><ele>60.0</ele><time>2026-05-02T08:18:44.995Z</time></trkpt><trkpt lat="44.412726" lon="4.6519117"><ele>64.0</ele><time>2026-05-02T08:18:45.995Z</time></trkpt><trkpt lat="44.4125368" lon="4.6517451"><ele>68.0</ele><time>2026-05-02T08:18:46.996Z</time></trkpt><trkpt lat="44.4123356" lon="4.6515917"><ele>63.5</ele><time>2026-05-02T08:18:47.996Z</time></trkpt><trkpt lat="44.4121305" lon="4.6514606"><ele>59.0</ele><time>2026-05-02T08:18:48.995Z</time></trkpt><trkpt lat="44.4119168" lon="4.6513414"><ele>59.0</ele><time>2026-05-02T08:18:49.996Z</time></trkpt><trkpt lat="44.4116986" lon="4.651229"><ele>59.0</ele><time>2026-05-02T08:18:50.995Z</time></trkpt><trkpt lat="44.4114759" lon="4.6511211"><ele>63.0</ele><time>2026-05-02T08:18:51.995Z</time></trkpt><trkpt lat="44.4112487" lon="4.6510191"><ele>67.0</ele><time>2026-05-02T08:18:52.995Z</time></trkpt><trkpt lat="44.4110184" lon="4.6509187"><ele>67.0</ele><time>2026-05-02T08:18:53.995Z</time></trkpt><trkpt lat="44.4107879" lon="4.6508177"><ele>67.0</ele><time>2026-05-02T08:18:54.995Z</time></trkpt><trkpt lat="44.4105606" lon="4.650718"><ele>63.5</ele><time>2026-05-02T08:18:55.995Z</time></trkpt><trkpt lat="44.4103393" lon="4.6506202"><ele>60.0</ele><time>2026-05-02T08:18:56.995Z</time></trkpt><trkpt lat="44.4101217" lon="4.6505236"><ele>60.0</ele><time>2026-05-02T08:18:57.996Z</time></trkpt><trkpt lat="44.4099067" lon="4.6504279"><ele>60.0</ele><time>2026-05-02T08:18:58.994Z</time></trkpt><trkpt lat="44.4096976" lon="4.6503347"><ele>60.0</ele><time>2026-05-02T08:18:59.996Z</time></trkpt><trkpt lat="44.4094962" lon="4.6502354"><ele>63.0</ele><time>2026-05-02T08:19:00.996Z</time></trkpt><trkpt lat="44.4093046" lon="4.6501173"><ele>66.0</ele><time>2026-05-02T08:19:01.996Z</time></trkpt><trkpt lat="44.4091191" lon="4.6499789"><ele>69.0</ele><time>2026-05-02T08:19:02.996Z</time></trkpt><trkpt lat="44.4089378" lon="4.649826"><ele>70.0</ele><time>2026-05-02T08:19:03.996Z</time></trkpt><trkpt lat="44.4087556" lon="4.6496679"><ele>71.0</ele><time>2026-05-02T08:19:04.995Z</time></trkpt><trkpt lat="44.4085704" lon="4.6495148"><ele>72.0</ele><time>2026-05-02T08:19:05.995Z</time></trkpt><trkpt lat="44.408387" lon="4.649355"><ele>72.0</ele><time>2026-05-02T08:19:06.995Z</time></trkpt><trkpt lat="44.408217" lon="4.6491706"><ele>72.0</ele><time>2026-05-02T08:19:07.995Z</time></trkpt><trkpt lat="44.4080662" lon="4.6489693"><ele>72.0</ele><time>2026-05-02T08:19:08.995Z</time></trkpt><trkpt lat="44.4079296" lon="4.6487689"><ele>70.66666666666667</ele><time>2026-05-02T08:19:09.995Z</time></trkpt><trkpt lat="44.4077946" lon="4.6485859"><ele>69.33333333333334</ele><time>2026-05-02T08:19:10.995Z</time></trkpt><trkpt lat="44.4076374" lon="4.648433"><ele>68.0</ele><time>2026-05-02T08:19:11.995Z</time></trkpt><trkpt lat="44.4074587" lon="4.648308"><ele>68.0</ele><time>2026-05-02T08:19:12.995Z</time></trkpt><trkpt lat="44.4072664" lon="4.6482171"><ele>68.0</ele><time>2026-05-02T08:19:13.995Z</time></trkpt><trkpt lat="44.4070678" lon="4.6481456"><ele>68.0</ele><time>2026-05-02T08:19:14.996Z</time></trkpt><trkpt lat="44.4068678" lon="4.6480681"><ele>67.66666666666667</ele><time>2026-05-02T08:19:15.994Z</time></trkpt><trkpt lat="44.406668" lon="4.6479752"><ele>67.33333333333333</ele><time>2026-05-02T08:19:16.995Z</time></trkpt><trkpt lat="44.4064661" lon="4.6478729"><ele>67.0</ele><time>2026-05-02T08:19:17.995Z</time></trkpt><trkpt lat="44.4062631" lon="4.6477635"><ele>67.0</ele><time>2026-05-02T08:19:18.996Z</time></trkpt><trkpt lat="44.4060607" lon="4.6476386"><ele>67.0</ele><time>2026-05-02T08:19:19.996Z</time></trkpt><trkpt lat="44.405861" lon="4.6474984"><ele>67.0</ele><time>2026-05-02T08:19:20.995Z</time></trkpt><trkpt lat="44.4056613" lon="4.6473524"><ele>66.33333333333333</ele><time>2026-05-02T08:19:21.995Z</time></trkpt><trkpt lat="44.4054636" lon="4.6472053"><ele>65.66666666666667</ele><time>2026-05-02T08:19:22.996Z</time></trkpt><trkpt lat="44.4052705" lon="4.6470494"><ele>65.0</ele><time>2026-05-02T08:19:23.995Z</time></trkpt><trkpt lat="44.405087" lon="4.6468798"><ele>65.0</ele><time>2026-05-02T08:19:24.995Z</time></trkpt><trkpt lat="44.4049158" lon="4.6466991"><ele>65.0</ele><time>2026-05-02T08:19:25.995Z</time></trkpt><trkpt lat="44.4047578" lon="4.6465088"><ele>65.0</ele><time>2026-05-02T08:19:26.995Z</time></trkpt><trkpt lat="44.4046114" lon="4.6463155"><ele>65.0</ele><time>2026-05-02T08:19:27.995Z</time></trkpt><trkpt lat="44.404471" lon="4.646146"><ele>65.0</ele><time>2026-05-02T08:19:28.994Z</time></trkpt><trkpt lat="44.4043183" lon="4.646013"><ele>65.0</ele><time>2026-05-02T08:19:29.995Z</time></trkpt><trkpt lat="44.4041552" lon="4.645922"><ele>65.0</ele><time>2026-05-02T08:19:30.995Z</time></trkpt><trkpt lat="44.4039925" lon="4.6458762"><ele>65.0</ele><time>2026-05-02T08:19:31.995Z</time></trkpt><trkpt lat="44.4038387" lon="4.6458839"><ele>65.0</ele><time>2026-05-02T08:19:32.995Z</time></trkpt><trkpt lat="44.403689" lon="4.6459381"><ele>64.33333333333334</ele><time>2026-05-02T08:19:33.994Z</time></trkpt><trkpt lat="44.4035437" lon="4.6460264"><ele>63.66666666666667</ele><time>2026-05-02T08:19:34.996Z</time></trkpt><trkpt lat="44.4033852" lon="4.6461273"><ele>63.0</ele><time>2026-05-02T08:19:35.995Z</time></trkpt><trkpt lat="44.4032249" lon="4.6461911"><ele>62.0</ele><time>2026-05-02T08:19:36.996Z</time></trkpt><trkpt lat="44.4030524" lon="4.6462066"><ele>61.0</ele><time>2026-05-02T08:19:37.996Z</time></trkpt><trkpt lat="44.4028686" lon="4.6461762"><ele>60.0</ele><time>2026-05-02T08:19:38.994Z</time></trkpt><trkpt lat="44.4026737" lon="4.6461094"><ele>60.0</ele><time>2026-05-02T08:19:39.995Z</time></trkpt><trkpt lat="44.4024692" lon="4.6460195"><ele>60.0</ele><time>2026-05-02T08:19:40.995Z</time></trkpt><trkpt lat="44.4022531" lon="4.6459236"><ele>60.0</ele><time>2026-05-02T08:19:41.995Z</time></trkpt><trkpt lat="44.4020238" lon="4.6458317"><ele>58.5</ele><time>2026-05-02T08:19:42.996Z</time></trkpt><trkpt lat="44.4017858" lon="4.6457434"><ele>57.0</ele><time>2026-05-02T08:19:43.996Z</time></trkpt><trkpt lat="44.4015417" lon="4.6456555"><ele>56.0</ele><time>2026-05-02T08:19:44.996Z</time></trkpt><trkpt lat="44.4012951" lon="4.6455638"><ele>55.0</ele><time>2026-05-02T08:19:45.995Z</time></trkpt><trkpt lat="44.4010499" lon="4.6454711"><ele>55.0</ele><time>2026-05-02T08:19:46.996Z</time></trkpt><trkpt lat="44.4008088" lon="4.6453793"><ele>55.0</ele><time>2026-05-02T08:19:47.996Z</time></trkpt><trkpt lat="44.400576" lon="4.6452893"><ele>56.5</ele><time>2026-05-02T08:19:48.995Z</time></trkpt><trkpt lat="44.4003513" lon="4.6452013"><ele>58.0</ele><time>2026-05-02T08:19:49.996Z</time></trkpt><trkpt lat="44.4001346" lon="4.6451143"><ele>58.0</ele><time>2026-05-02T08:19:50.995Z</time></trkpt><trkpt lat="44.3999272" lon="4.6450336"><ele>58.0</ele><time>2026-05-02T08:19:51.995Z</time></trkpt><trkpt lat="44.3997287" lon="4.6449571"><ele>58.0</ele><time>2026-05-02T08:19:52.996Z</time></trkpt><trkpt lat="44.3995389" lon="4.6448879"><ele>57.33333333333333</ele><time>2026-05-02T08:19:53.995Z</time></trkpt><trkpt lat="44.399357" lon="4.6448211"><ele>56.66666666666667</ele><time>2026-05-02T08:19:54.995Z</time></trkpt><trkpt lat="44.3991859" lon="4.6447563"><ele>56.0</ele><time>2026-05-02T08:19:55.995Z</time></trkpt><trkpt lat="44.3990309" lon="4.6446954"><ele>56.0</ele><time>2026-05-02T08:19:56.995Z</time></trkpt><trkpt lat="44.3988878" lon="4.6446388"><ele>56.0</ele><time>2026-05-02T08:19:57.995Z</time></trkpt><trkpt lat="44.398752" lon="4.6445831"><ele>56.0</ele><time>2026-05-02T08:19:58.996Z</time></trkpt><trkpt lat="44.39862" lon="4.6445299"><ele>56.0</ele><time>2026-05-02T08:19:59.996Z</time></trkpt><trkpt lat="44.3984893" lon="4.6444776"><ele>57.5</ele><time>2026-05-02T08:20:00.995Z</time></trkpt><trkpt lat="44.3983539" lon="4.6444273"><ele>59.0</ele><time>2026-05-02T08:20:01.995Z</time></trkpt><trkpt lat="44.3982121" lon="4.6443806"><ele>60.5</ele><time>2026-05-02T08:20:02.995Z</time></trkpt><trkpt lat="44.3980644" lon="4.6443416"><ele>62.0</ele><time>2026-05-02T08:20:03.995Z</time></trkpt><trkpt lat="44.3979097" lon="4.6443103"><ele>62.333333333333336</ele><time>2026-05-02T08:20:04.995Z</time></trkpt><trkpt lat="44.3977514" lon="4.6442931"><ele>62.66666666666667</ele><time>2026-05-02T08:20:05.996Z</time></trkpt><trkpt lat="44.3975884" lon="4.6442822"><ele>63.0</ele><time>2026-05-02T08:20:06.995Z</time></trkpt><trkpt lat="44.3974204" lon="4.644275"><ele>63.0</ele><time>2026-05-02T08:20:07.994Z</time></trkpt><trkpt lat="44.397248" lon="4.6442692"><ele>63.0</ele><time>2026-05-02T08:20:08.995Z</time></trkpt><trkpt lat="44.3970696" lon="4.6442638"><ele>63.0</ele><time>2026-05-02T08:20:09.995Z</time></trkpt><trkpt lat="44.3968838" lon="4.644255"><ele>62.66666666666667</ele><time>2026-05-02T08:20:10.996Z</time></trkpt><trkpt lat="44.396697" lon="4.6442454"><ele>62.333333333333336</ele><time>2026-05-02T08:20:11.995Z</time></trkpt><trkpt lat="44.3965106" lon="4.6442343"><ele>62.0</ele><time>2026-05-02T08:20:12.996Z</time></trkpt><trkpt lat="44.3963273" lon="4.6442167"><ele>61.66666666666667</ele><time>2026-05-02T08:20:13.995Z</time></trkpt><trkpt lat="44.3961445" lon="4.6441921"><ele>61.33333333333333</ele><time>2026-05-02T08:20:14.995Z</time></trkpt><trkpt lat="44.395961" lon="4.6441653"><ele>61.0</ele><time>2026-05-02T08:20:15.995Z</time></trkpt><trkpt lat="44.3957754" lon="4.6441377"><ele>61.0</ele><time>2026-05-02T08:20:16.995Z</time></trkpt><trkpt lat="44.3955896" lon="4.64411"><ele>61.0</ele><time>2026-05-02T08:20:17.995Z</time></trkpt><trkpt lat="44.3954044" lon="4.6440775"><ele>61.0</ele><time>2026-05-02T08:20:18.994Z</time></trkpt><trkpt lat="44.3952204" lon="4.6440438"><ele>60.0</ele><time>2026-05-02T08:20:19.995Z</time></trkpt><trkpt lat="44.3950394" lon="4.6440085"><ele>59.0</ele><time>2026-05-02T08:20:20.995Z</time></trkpt><trkpt lat="44.3948611" lon="4.6439697"><ele>58.0</ele><time>2026-05-02T08:20:21.995Z</time></trkpt><trkpt lat="44.3946852" lon="4.6439307"><ele>59.33333333333333</ele><time>2026-05-02T08:20:22.996Z</time></trkpt><trkpt lat="44.3945074" lon="4.6438897"><ele>60.66666666666667</ele><time>2026-05-02T08:20:23.995Z</time></trkpt><trkpt lat="44.3943292" lon="4.6438501"><ele>62.0</ele><time>2026-05-02T08:20:24.995Z</time></trkpt><trkpt lat="44.3941489" lon="4.6438128"><ele>62.0</ele><time>2026-05-02T08:20:25.995Z</time></trkpt><trkpt lat="44.3939669" lon="4.6437771"><ele>62.0</ele><time>2026-05-02T08:20:26.995Z</time></trkpt><trkpt lat="44.3937849" lon="4.6437443"><ele>62.0</ele><time>2026-05-02T08:20:27.996Z</time></trkpt><trkpt lat="44.3936027" lon="4.6437159"><ele>62.333333333333336</ele><time>2026-05-02T08:20:28.995Z</time></trkpt><trkpt lat="44.3934226" lon="4.6436941"><ele>62.66666666666667</ele><time>2026-05-02T08:20:29.996Z</time></trkpt><trkpt lat="44.3932428" lon="4.6436763"><ele>63.0</ele><time>2026-05-02T08:20:30.995Z</time></trkpt><trkpt lat="44.393061" lon="4.6436659"><ele>62.0</ele><time>2026-05-02T08:20:31.996Z</time></trkpt><trkpt lat="44.3928768" lon="4.6436544"><ele>61.0</ele><time>2026-05-02T08:20:32.995Z</time></trkpt><trkpt lat="44.3926885" lon="4.6436424"><ele>60.0</ele><time>2026-05-02T08:20:33.994Z</time></trkpt><trkpt lat="44.3925001" lon="4.6436297"><ele>63.0</ele><time>2026-05-02T08:20:34.995Z</time></trkpt><trkpt lat="44.392312" lon="4.6436168"><ele>66.0</ele><time>2026-05-02T08:20:35.996Z</time></trkpt><trkpt lat="44.3921242" lon="4.6436048"><ele>69.0</ele><time>2026-05-02T08:20:36.996Z</time></trkpt><trkpt lat="44.3919344" lon="4.6435912"><ele>69.0</ele><time>2026-05-02T08:20:37.995Z</time></trkpt><trkpt lat="44.3917437" lon="4.6435764"><ele>69.0</ele><time>2026-05-02T08:20:38.996Z</time></trkpt><trkpt lat="44.3915531" lon="4.643561"><ele>69.0</ele><time>2026-05-02T08:20:39.995Z</time></trkpt><trkpt lat="44.3913613" lon="4.6435479"><ele>69.66666666666667</ele><time>2026-05-02T08:20:40.995Z</time></trkpt><trkpt lat="44.3911687" lon="4.6435346"><ele>70.33333333333334</ele><time>2026-05-02T08:20:41.995Z</time></trkpt><trkpt lat="44.3909732" lon="4.6435218"><ele>71.0</ele><time>2026-05-02T08:20:42.996Z</time></trkpt><trkpt lat="44.390777" lon="4.6435087"><ele>71.0</ele><time>2026-05-02T08:20:43.995Z</time></trkpt><trkpt lat="44.3905796" lon="4.6434942"><ele>71.0</ele><time>2026-05-02T08:20:44.995Z</time></trkpt><trkpt lat="44.3903791" lon="4.6434843"><ele>71.0</ele><time>2026-05-02T08:20:45.995Z</time></trkpt><trkpt lat="44.3901783" lon="4.6434698"><ele>71.33333333333334</ele><time>2026-05-02T08:20:46.995Z</time></trkpt><trkpt lat="44.3899727" lon="4.6434591"><ele>71.66666666666667</ele><time>2026-05-02T08:20:47.995Z</time></trkpt><trkpt lat="44.3897676" lon="4.6434437"><ele>72.0</ele><time>2026-05-02T08:20:48.996Z</time></trkpt><trkpt lat="44.3895605" lon="4.6434231"><ele>72.33333333333333</ele><time>2026-05-02T08:20:49.995Z</time></trkpt><trkpt lat="44.3893518" lon="4.643401"><ele>72.66666666666666</ele><time>2026-05-02T08:20:50.995Z</time></trkpt><trkpt lat="44.3891406" lon="4.6433759"><ele>73.0</ele><time>2026-05-02T08:20:51.995Z</time></trkpt><trkpt lat="44.3889277" lon="4.6433473"><ele>72.66666666666666</ele><time>2026-05-02T08:20:52.996Z</time></trkpt><trkpt lat="44.3887133" lon="4.643313"><ele>72.33333333333333</ele><time>2026-05-02T08:20:53.994Z</time></trkpt><trkpt lat="44.3884975" lon="4.6432779"><ele>72.0</ele><time>2026-05-02T08:20:54.995Z</time></trkpt><trkpt lat="44.3882818" lon="4.6432408"><ele>72.0</ele><time>2026-05-02T08:20:55.995Z</time></trkpt><trkpt lat="44.3880643" lon="4.6432113"><ele>72.0</ele><time>2026-05-02T08:20:56.995Z</time></trkpt><trkpt lat="44.3878468" lon="4.6432015"><ele>72.0</ele><time>2026-05-02T08:20:57.995Z</time></trkpt><trkpt lat="44.3876296" lon="4.6432013"><ele>72.0</ele><time>2026-05-02T08:20:58.995Z</time></trkpt><trkpt lat="44.3874158" lon="4.6431969"><ele>72.0</ele><time>2026-05-02T08:20:59.995Z</time></trkpt><trkpt lat="44.3872052" lon="4.6431861"><ele>72.0</ele><time>2026-05-02T08:21:00.996Z</time></trkpt><trkpt lat="44.3869985" lon="4.6431685"><ele>71.33333333333333</ele><time>2026-05-02T08:21:01.994Z</time></trkpt><trkpt lat="44.3867934" lon="4.6431483"><ele>70.66666666666666</ele><time>2026-05-02T08:21:02.995Z</time></trkpt><trkpt lat="44.3865875" lon="4.6431274"><ele>70.0</ele><time>2026-05-02T08:21:03.995Z</time></trkpt><trkpt lat="44.3863809" lon="4.643107"><ele>69.66666666666666</ele><time>2026-05-02T08:21:04.996Z</time></trkpt><trkpt lat="44.3861754" lon="4.6430876"><ele>69.33333333333333</ele><time>2026-05-02T08:21:05.995Z</time></trkpt><trkpt lat="44.3859678" lon="4.6430676"><ele>69.0</ele><time>2026-05-02T08:21:06.994Z</time></trkpt><trkpt lat="44.385758" lon="4.6430503"><ele>69.0</ele><time>2026-05-02T08:21:07.995Z</time></trkpt><trkpt lat="44.3855452" lon="4.6430451"><ele>69.0</ele><time>2026-05-02T08:21:08.994Z</time></trkpt><trkpt lat="44.3853322" lon="4.6430531"><ele>69.0</ele><time>2026-05-02T08:21:09.995Z</time></trkpt><trkpt lat="44.3851169" lon="4.6430781"><ele>68.33333333333333</ele><time>2026-05-02T08:21:10.995Z</time></trkpt><trkpt lat="44.3849073" lon="4.6431207"><ele>67.66666666666666</ele><time>2026-05-02T08:21:11.995Z</time></trkpt><trkpt lat="44.3847053" lon="4.6431815"><ele>67.0</ele><time>2026-05-02T08:21:12.996Z</time></trkpt><trkpt lat="44.3845186" lon="4.6432588"><ele>67.0</ele><time>2026-05-02T08:21:13.995Z</time></trkpt><trkpt lat="44.3843551" lon="4.6433423"><ele>67.0</ele><time>2026-05-02T08:21:14.996Z</time></trkpt><trkpt lat="44.3842101" lon="4.643426"><ele>67.0</ele><time>2026-05-02T08:21:15.996Z</time></trkpt><trkpt lat="44.3840879" lon="4.6435049"><ele>67.0</ele><time>2026-05-02T08:21:16.995Z</time></trkpt><trkpt lat="44.3839919" lon="4.6435704"><ele>67.0</ele><time>2026-05-02T08:21:17.994Z</time></trkpt><trkpt lat="44.383914" lon="4.6436249"><ele>67.0</ele><time>2026-05-02T08:21:18.996Z</time></trkpt><trkpt lat="44.3838429" lon="4.6436781"><ele>67.0</ele><time>2026-05-02T08:21:19.995Z</time></trkpt><trkpt lat="44.3837742" lon="4.6437325"><ele>67.0</ele><time>2026-05-02T08:21:20.995Z</time></trkpt><trkpt lat="44.3837124" lon="4.6437889"><ele>67.0</ele><time>2026-05-02T08:21:21.996Z</time></trkpt><trkpt lat="44.3836547" lon="4.6438428"><ele>66.6</ele><time>2026-05-02T08:21:22.995Z</time></trkpt><trkpt lat="44.3835569" lon="4.6439349"><ele>66.2</ele><time>2026-05-02T08:21:24.995Z</time></trkpt><trkpt lat="44.3834796" lon="4.6440183"><ele>65.8</ele><time>2026-05-02T08:21:26.995Z</time></trkpt><trkpt lat="44.3833982" lon="4.6441021"><ele>65.4</ele><time>2026-05-02T08:21:28.994Z</time></trkpt><trkpt lat="44.3833062" lon="4.6441872"><ele>65.0</ele><time>2026-05-02T08:21:30.995Z</time></trkpt><trkpt lat="44.3832481" lon="4.644225"><ele>65.00000000000001</ele><time>2026-05-02T08:21:31.995Z</time></trkpt><trkpt lat="44.3831805" lon="4.6442381"><ele>65.0</ele><time>2026-05-02T08:21:32.994Z</time></trkpt><trkpt lat="44.3831169" lon="4.6442233"><ele>65.0</ele><time>2026-05-02T08:21:33.995Z</time></trkpt><trkpt lat="44.383049" lon="4.644212"><ele>65.0</ele><time>2026-05-02T08:21:34.995Z</time></trkpt><trkpt lat="44.3829808" lon="4.6442391"><ele>65.0</ele><time>2026-05-02T08:21:35.995Z</time></trkpt><trkpt lat="44.3829208" lon="4.6442966"><ele>65.00000000000001</ele><time>2026-05-02T08:21:36.995Z</time></trkpt><trkpt lat="44.3828741" lon="4.6443862"><ele>65.0</ele><time>2026-05-02T08:21:37.995Z</time></trkpt><trkpt lat="44.38285" lon="4.6444932"><ele>65.4</ele><time>2026-05-02T08:21:38.995Z</time></trkpt><trkpt lat="44.3828499" lon="4.6446129"><ele>65.8</ele><time>2026-05-02T08:21:39.995Z</time></trkpt><trkpt lat="44.3828707" lon="4.6447412"><ele>66.2</ele><time>2026-05-02T08:21:40.995Z</time></trkpt><trkpt lat="44.3828805" lon="4.6448797"><ele>66.6</ele><time>2026-05-02T08:21:41.995Z</time></trkpt><trkpt lat="44.3828562" lon="4.6450167"><ele>67.0</ele><time>2026-05-02T08:21:42.995Z</time></trkpt><trkpt lat="44.3828047" lon="4.645156"><ele>67.0</ele><time>2026-05-02T08:21:43.995Z</time></trkpt><trkpt lat="44.3827288" lon="4.6452951"><ele>67.0</ele><time>2026-05-02T08:21:44.995Z</time></trkpt><trkpt lat="44.3826352" lon="4.645432"><ele>67.0</ele><time>2026-05-02T08:21:45.995Z</time></trkpt><trkpt lat="44.3825237" lon="4.6455606"><ele>67.0</ele><time>2026-05-02T08:21:46.995Z</time></trkpt><trkpt lat="44.3824021" lon="4.6456863"><ele>67.33333333333333</ele><time>2026-05-02T08:21:47.995Z</time></trkpt><trkpt lat="44.3822733" lon="4.6458087"><ele>67.66666666666667</ele><time>2026-05-02T08:21:48.995Z</time></trkpt><trkpt lat="44.3821484" lon="4.6459232"><ele>68.0</ele><time>2026-05-02T08:21:49.995Z</time></trkpt><trkpt lat="44.3820255" lon="4.6460348"><ele>65.75</ele><time>2026-05-02T08:21:50.995Z</time></trkpt><trkpt lat="44.3819064" lon="4.6461402"><ele>63.5</ele><time>2026-05-02T08:21:51.995Z</time></trkpt><trkpt lat="44.3817964" lon="4.6462386"><ele>61.25</ele><time>2026-05-02T08:21:52.995Z</time></trkpt><trkpt lat="44.3816869" lon="4.6463302"><ele>59.0</ele><time>2026-05-02T08:21:53.995Z</time></trkpt><trkpt lat="44.3815768" lon="4.6464153"><ele>59.0</ele><time>2026-05-02T08:21:54.995Z</time></trkpt><trkpt lat="44.3814614" lon="4.6464984"><ele>59.0</ele><time>2026-05-02T08:21:55.995Z</time></trkpt><trkpt lat="44.3813428" lon="4.6465812"><ele>59.0</ele><time>2026-05-02T08:21:56.995Z</time></trkpt><trkpt lat="44.3812148" lon="4.6466592"><ele>59.0</ele><time>2026-05-02T08:21:57.995Z</time></trkpt><trkpt lat="44.3810774" lon="4.6467318"><ele>61.0</ele><time>2026-05-02T08:21:58.996Z</time></trkpt><trkpt lat="44.3809318" lon="4.6468029"><ele>63.0</ele><time>2026-05-02T08:21:59.995Z</time></trkpt><trkpt lat="44.3807824" lon="4.6468727"><ele>65.0</ele><time>2026-05-02T08:22:00.995Z</time></trkpt><trkpt lat="44.3806335" lon="4.6469358"><ele>61.66666666666667</ele><time>2026-05-02T08:22:01.995Z</time></trkpt><trkpt lat="44.3804856" lon="4.6469965"><ele>58.33333333333333</ele><time>2026-05-02T08:22:02.995Z</time></trkpt><trkpt lat="44.3803377" lon="4.6470515"><ele>55.0</ele><time>2026-05-02T08:22:03.995Z</time></trkpt><trkpt lat="44.3801864" lon="4.6471067"><ele>55.0</ele><time>2026-05-02T08:22:04.996Z</time></trkpt><trkpt lat="44.3800275" lon="4.647158"><ele>55.0</ele><time>2026-05-02T08:22:05.995Z</time></trkpt><trkpt lat="44.3798632" lon="4.6472028"><ele>55.0</ele><time>2026-05-02T08:22:06.996Z</time></trkpt><trkpt lat="44.3796956" lon="4.6472456"><ele>56.33333333333333</ele><time>2026-05-02T08:22:07.995Z</time></trkpt><trkpt lat="44.3795238" lon="4.6472847"><ele>57.66666666666667</ele><time>2026-05-02T08:22:08.995Z</time></trkpt><trkpt lat="44.3793444" lon="4.6473234"><ele>59.0</ele><time>2026-05-02T08:22:09.996Z</time></trkpt><trkpt lat="44.3791582" lon="4.6473622"><ele>59.0</ele><time>2026-05-02T08:22:10.995Z</time></trkpt><trkpt lat="44.3789704" lon="4.6474004"><ele>59.0</ele><time>2026-05-02T08:22:11.995Z</time></trkpt><trkpt lat="44.3787788" lon="4.6474352"><ele>59.0</ele><time>2026-05-02T08:22:12.995Z</time></trkpt><trkpt lat="44.3785878" lon="4.647469"><ele>58.66666666666667</ele><time>2026-05-02T08:22:13.995Z</time></trkpt><trkpt lat="44.3783983" lon="4.6475019"><ele>58.33333333333333</ele><time>2026-05-02T08:22:14.994Z</time></trkpt><trkpt lat="44.378214" lon="4.6475344"><ele>58.0</ele><time>2026-05-02T08:22:15.996Z</time></trkpt><trkpt lat="44.3780293" lon="4.647566"><ele>57.0</ele><time>2026-05-02T08:22:16.995Z</time></trkpt><trkpt lat="44.3778428" lon="4.6475972"><ele>56.0</ele><time>2026-05-02T08:22:17.995Z</time></trkpt><trkpt lat="44.3776527" lon="4.6476318"><ele>55.0</ele><time>2026-05-02T08:22:18.995Z</time></trkpt><trkpt lat="44.3774633" lon="4.6476654"><ele>55.0</ele><time>2026-05-02T08:22:19.996Z</time></trkpt><trkpt lat="44.3772732" lon="4.6477009"><ele>55.0</ele><time>2026-05-02T08:22:20.995Z</time></trkpt><trkpt lat="44.3770818" lon="4.6477334"><ele>55.0</ele><time>2026-05-02T08:22:21.995Z</time></trkpt><trkpt lat="44.376891" lon="4.6477625"><ele>55.0</ele><time>2026-05-02T08:22:22.995Z</time></trkpt><trkpt lat="44.3767033" lon="4.6477834"><ele>55.0</ele><time>2026-05-02T08:22:23.995Z</time></trkpt><trkpt lat="44.3765182" lon="4.6477964"><ele>55.0</ele><time>2026-05-02T08:22:24.995Z</time></trkpt><trkpt lat="44.3763316" lon="4.647802"><ele>54.666666666666664</ele><time>2026-05-02T08:22:25.996Z</time></trkpt><trkpt lat="44.3761434" lon="4.6478034"><ele>54.33333333333333</ele><time>2026-05-02T08:22:26.994Z</time></trkpt><trkpt lat="44.375953" lon="4.6478008"><ele>54.0</ele><time>2026-05-02T08:22:27.996Z</time></trkpt><trkpt lat="44.3757649" lon="4.647796"><ele>54.66666666666667</ele><time>2026-05-02T08:22:28.995Z</time></trkpt><trkpt lat="44.3755768" lon="4.6477877"><ele>55.333333333333336</ele><time>2026-05-02T08:22:29.995Z</time></trkpt><trkpt lat="44.375385" lon="4.6477732"><ele>56.0</ele><time>2026-05-02T08:22:30.996Z</time></trkpt><trkpt lat="44.3751932" lon="4.647758"><ele>56.0</ele><time>2026-05-02T08:22:31.994Z</time></trkpt><trkpt lat="44.3750037" lon="4.6477451"><ele>56.0</ele><time>2026-05-02T08:22:32.996Z</time></trkpt><trkpt lat="44.374808" lon="4.6477364"><ele>56.0</ele><time>2026-05-02T08:22:33.995Z</time></trkpt><trkpt lat="44.3746096" lon="4.6477364"><ele>55.333333333333336</ele><time>2026-05-02T08:22:34.995Z</time></trkpt><trkpt lat="44.3744108" lon="4.6477433"><ele>54.66666666666667</ele><time>2026-05-02T08:22:35.995Z</time></trkpt><trkpt lat="44.3742122" lon="4.6477529"><ele>54.0</ele><time>2026-05-02T08:22:36.995Z</time></trkpt><trkpt lat="44.3740148" lon="4.6477649"><ele>55.0</ele><time>2026-05-02T08:22:37.995Z</time></trkpt><trkpt lat="44.3738185" lon="4.6477792"><ele>56.0</ele><time>2026-05-02T08:22:38.995Z</time></trkpt><trkpt lat="44.3736232" lon="4.6477931"><ele>57.0</ele><time>2026-05-02T08:22:39.995Z</time></trkpt><trkpt lat="44.3734306" lon="4.6478044"><ele>55.0</ele><time>2026-05-02T08:22:40.995Z</time></trkpt><trkpt lat="44.3732388" lon="4.6478183"><ele>53.0</ele><time>2026-05-02T08:22:41.995Z</time></trkpt><trkpt lat="44.3730483" lon="4.6478338"><ele>51.0</ele><time>2026-05-02T08:22:42.996Z</time></trkpt><trkpt lat="44.3728645" lon="4.6478505"><ele>51.0</ele><time>2026-05-02T08:22:43.995Z</time></trkpt><trkpt lat="44.3726831" lon="4.6478653"><ele>51.0</ele><time>2026-05-02T08:22:44.995Z</time></trkpt><trkpt lat="44.3725035" lon="4.6478772"><ele>51.0</ele><time>2026-05-02T08:22:45.995Z</time></trkpt><trkpt lat="44.3723269" lon="4.6478923"><ele>50.33333333333333</ele><time>2026-05-02T08:22:46.995Z</time></trkpt><trkpt lat="44.3721524" lon="4.6479067"><ele>49.666666666666664</ele><time>2026-05-02T08:22:47.995Z</time></trkpt><trkpt lat="44.3719833" lon="4.6479201"><ele>49.0</ele><time>2026-05-02T08:22:48.995Z</time></trkpt><trkpt lat="44.3718211" lon="4.6479306"><ele>49.0</ele><time>2026-05-02T08:22:49.994Z</time></trkpt><trkpt lat="44.3716671" lon="4.6479401"><ele>49.0</ele><time>2026-05-02T08:22:50.995Z</time></trkpt><trkpt lat="44.3715189" lon="4.647947"><ele>49.0</ele><time>2026-05-02T08:22:51.995Z</time></trkpt><trkpt lat="44.3713752" lon="4.6479488"><ele>49.0</ele><time>2026-05-02T08:22:52.996Z</time></trkpt><trkpt lat="44.3712379" lon="4.6479425"><ele>48.75</ele><time>2026-05-02T08:22:53.994Z</time></trkpt><trkpt lat="44.3711067" lon="4.647933"><ele>48.5</ele><time>2026-05-02T08:22:54.995Z</time></trkpt><trkpt lat="44.3709806" lon="4.6479213"><ele>48.25</ele><time>2026-05-02T08:22:55.995Z</time></trkpt><trkpt lat="44.370859" lon="4.6479064"><ele>48.0</ele><time>2026-05-02T08:22:56.996Z</time></trkpt><trkpt lat="44.3707416" lon="4.6478868"><ele>48.0</ele><time>2026-05-02T08:22:57.996Z</time></trkpt><trkpt lat="44.3706278" lon="4.6478695"><ele>48.0</ele><time>2026-05-02T08:22:58.995Z</time></trkpt><trkpt lat="44.3705175" lon="4.6478504"><ele>48.0</ele><time>2026-05-02T08:22:59.995Z</time></trkpt><trkpt lat="44.3704082" lon="4.6478353"><ele>48.0</ele><time>2026-05-02T08:23:00.996Z</time></trkpt><trkpt lat="44.3703022" lon="4.6478208"><ele>48.0</ele><time>2026-05-02T08:23:01.995Z</time></trkpt><trkpt lat="44.3701989" lon="4.6478066"><ele>49.599999999999994</ele><time>2026-05-02T08:23:02.995Z</time></trkpt><trkpt lat="44.3700975" lon="4.6477893"><ele>51.199999999999996</ele><time>2026-05-02T08:23:03.996Z</time></trkpt><trkpt lat="44.3700003" lon="4.6477692"><ele>52.8</ele><time>2026-05-02T08:23:04.995Z</time></trkpt><trkpt lat="44.3699056" lon="4.6477496"><ele>54.4</ele><time>2026-05-02T08:23:05.995Z</time></trkpt><trkpt lat="44.3698143" lon="4.6477312"><ele>56.0</ele><time>2026-05-02T08:23:06.996Z</time></trkpt><trkpt lat="44.3697201" lon="4.6477154"><ele>55.4</ele><time>2026-05-02T08:23:07.995Z</time></trkpt><trkpt lat="44.3696235" lon="4.6477027"><ele>54.8</ele><time>2026-05-02T08:23:08.995Z</time></trkpt><trkpt lat="44.3695248" lon="4.6476883"><ele>54.199999999999996</ele><time>2026-05-02T08:23:09.995Z</time></trkpt><trkpt lat="44.3694269" lon="4.6476695"><ele>53.599999999999994</ele><time>2026-05-02T08:23:10.995Z</time></trkpt><trkpt lat="44.3693346" lon="4.6476508"><ele>53.0</ele><time>2026-05-02T08:23:11.996Z</time></trkpt><trkpt lat="44.3692393" lon="4.6476344"><ele>53.0</ele><time>2026-05-02T08:23:12.996Z</time></trkpt><trkpt lat="44.36914" lon="4.6476158"><ele>53.0</ele><time>2026-05-02T08:23:13.995Z</time></trkpt><trkpt lat="44.3690358" lon="4.6475911"><ele>53.0</ele><time>2026-05-02T08:23:14.995Z</time></trkpt><trkpt lat="44.3689287" lon="4.6475636"><ele>53.0</ele><time>2026-05-02T08:23:15.995Z</time></trkpt><trkpt lat="44.3688178" lon="4.6475345"><ele>53.0</ele><time>2026-05-02T08:23:16.995Z</time></trkpt><trkpt lat="44.3687045" lon="4.6475016"><ele>52.25</ele><time>2026-05-02T08:23:17.995Z</time></trkpt><trkpt lat="44.3685891" lon="4.6474629"><ele>51.5</ele><time>2026-05-02T08:23:18.995Z</time></trkpt><trkpt lat="44.3684705" lon="4.6474213"><ele>50.75</ele><time>2026-05-02T08:23:19.995Z</time></trkpt><trkpt lat="44.3683505" lon="4.6473777"><ele>50.0</ele><time>2026-05-02T08:23:20.995Z</time></trkpt><trkpt lat="44.3682313" lon="4.6473361"><ele>50.0</ele><time>2026-05-02T08:23:21.995Z</time></trkpt><trkpt lat="44.3681148" lon="4.647294"><ele>50.0</ele><time>2026-05-02T08:23:22.996Z</time></trkpt><trkpt lat="44.3680041" lon="4.6472485"><ele>50.0</ele><time>2026-05-02T08:23:23.996Z</time></trkpt><trkpt lat="44.3678977" lon="4.6472041"><ele>50.0</ele><time>2026-05-02T08:23:24.996Z</time></trkpt><trkpt lat="44.3677939" lon="4.647163"><ele>49.50000000000001</ele><time>2026-05-02T08:23:25.996Z</time></trkpt><trkpt lat="44.3676997" lon="4.6471247"><ele>49.0</ele><time>2026-05-02T08:23:26.995Z</time></trkpt><trkpt lat="44.3676176" lon="4.647089"><ele>48.5</ele><time>2026-05-02T08:23:27.995Z</time></trkpt><trkpt lat="44.3675433" lon="4.647055"><ele>48.0</ele><time>2026-05-02T08:23:28.995Z</time></trkpt><trkpt lat="44.3674738" lon="4.6470101"><ele>47.5</ele><time>2026-05-02T08:23:29.995Z</time></trkpt><trkpt lat="44.3674171" lon="4.6469508"><ele>47.0</ele><time>2026-05-02T08:23:30.996Z</time></trkpt><trkpt lat="44.3673726" lon="4.6468804"><ele>48.2</ele><time>2026-05-02T08:23:31.995Z</time></trkpt><trkpt lat="44.3672715" lon="4.6467907"><ele>49.400000000000006</ele><time>2026-05-02T08:23:33.995Z</time></trkpt><trkpt lat="44.367155" lon="4.6468226"><ele>50.599999999999994</ele><time>2026-05-02T08:23:35.995Z</time></trkpt><trkpt lat="44.3670781" lon="4.6468509"><ele>51.8</ele><time>2026-05-02T08:23:36.996Z</time></trkpt><trkpt lat="44.3669808" lon="4.6468483"><ele>53.0</ele><time>2026-05-02T08:23:37.995Z</time></trkpt><trkpt lat="44.3668766" lon="4.6468168"><ele>53.25</ele><time>2026-05-02T08:23:38.995Z</time></trkpt><trkpt lat="44.3667603" lon="4.6467724"><ele>53.5</ele><time>2026-05-02T08:23:39.995Z</time></trkpt><trkpt lat="44.3666315" lon="4.6467274"><ele>53.75</ele><time>2026-05-02T08:23:40.996Z</time></trkpt><trkpt lat="44.366498" lon="4.6466802"><ele>54.0</ele><time>2026-05-02T08:23:41.995Z</time></trkpt><trkpt lat="44.3663539" lon="4.6466287"><ele>53.33333333333333</ele><time>2026-05-02T08:23:42.995Z</time></trkpt><trkpt lat="44.366199" lon="4.6465777"><ele>52.666666666666664</ele><time>2026-05-02T08:23:43.995Z</time></trkpt><trkpt lat="44.366037" lon="4.6465279"><ele>52.0</ele><time>2026-05-02T08:23:44.995Z</time></trkpt><trkpt lat="44.3658732" lon="4.6464801"><ele>52.0</ele><time>2026-05-02T08:23:45.995Z</time></trkpt><trkpt lat="44.3657043" lon="4.6464359"><ele>52.0</ele><time>2026-05-02T08:23:46.995Z</time></trkpt><trkpt lat="44.3655363" lon="4.6463918"><ele>52.0</ele><time>2026-05-02T08:23:47.995Z</time></trkpt><trkpt lat="44.3653683" lon="4.6463453"><ele>52.666666666666664</ele><time>2026-05-02T08:23:48.996Z</time></trkpt><trkpt lat="44.3651965" lon="4.6462965"><ele>53.33333333333333</ele><time>2026-05-02T08:23:49.996Z</time></trkpt><trkpt lat="44.365023" lon="4.6462405"><ele>54.0</ele><time>2026-05-02T08:23:50.994Z</time></trkpt><trkpt lat="44.3648509" lon="4.6461818"><ele>54.0</ele><time>2026-05-02T08:23:51.995Z</time></trkpt><trkpt lat="44.3646781" lon="4.6461238"><ele>54.0</ele><time>2026-05-02T08:23:52.995Z</time></trkpt><trkpt lat="44.364508" lon="4.6460646"><ele>54.0</ele><time>2026-05-02T08:23:53.995Z</time></trkpt><trkpt lat="44.3643448" lon="4.6460049"><ele>54.0</ele><time>2026-05-02T08:23:54.995Z</time></trkpt><trkpt lat="44.3641863" lon="4.6459455"><ele>54.0</ele><time>2026-05-02T08:23:55.995Z</time></trkpt><trkpt lat="44.3640323" lon="4.6458874"><ele>54.0</ele><time>2026-05-02T08:23:56.995Z</time></trkpt><trkpt lat="44.3638794" lon="4.6458272"><ele>53.66666666666667</ele><time>2026-05-02T08:23:57.994Z</time></trkpt><trkpt lat="44.3637247" lon="4.6457611"><ele>53.333333333333336</ele><time>2026-05-02T08:23:58.995Z</time></trkpt><trkpt lat="44.3635654" lon="4.64569"><ele>53.0</ele><time>2026-05-02T08:23:59.995Z</time></trkpt><trkpt lat="44.363399" lon="4.6456098"><ele>53.0</ele><time>2026-05-02T08:24:00.995Z</time></trkpt><trkpt lat="44.36323" lon="4.6455218"><ele>53.0</ele><time>2026-05-02T08:24:01.995Z</time></trkpt><trkpt lat="44.3630674" lon="4.6454326"><ele>53.0</ele><time>2026-05-02T08:24:02.995Z</time></trkpt><trkpt lat="44.3629114" lon="4.6453421"><ele>53.0</ele><time>2026-05-02T08:24:03.996Z</time></trkpt><trkpt lat="44.3627651" lon="4.6452495"><ele>53.0</ele><time>2026-05-02T08:24:04.996Z</time></trkpt><trkpt lat="44.3626291" lon="4.645159"><ele>53.0</ele><time>2026-05-02T08:24:05.996Z</time></trkpt><trkpt lat="44.3625047" lon="4.6450684"><ele>53.0</ele><time>2026-05-02T08:24:06.994Z</time></trkpt><trkpt lat="44.3623864" lon="4.6449773"><ele>53.0</ele><time>2026-05-02T08:24:07.995Z</time></trkpt><trkpt lat="44.3622792" lon="4.6448873"><ele>53.0</ele><time>2026-05-02T08:24:08.995Z</time></trkpt><trkpt lat="44.3621874" lon="4.6448034"><ele>53.0</ele><time>2026-05-02T08:24:09.995Z</time></trkpt><trkpt lat="44.3621079" lon="4.6447256"><ele>53.333333333333336</ele><time>2026-05-02T08:24:10.995Z</time></trkpt><trkpt lat="44.3620329" lon="4.6446466"><ele>53.66666666666667</ele><time>2026-05-02T08:24:11.995Z</time></trkpt><trkpt lat="44.3619649" lon="4.6445732"><ele>54.0</ele><time>2026-05-02T08:24:12.995Z</time></trkpt><trkpt lat="44.3619036" lon="4.6445012"><ele>54.33333333333333</ele><time>2026-05-02T08:24:13.996Z</time></trkpt><trkpt lat="44.3618481" lon="4.6444286"><ele>54.666666666666664</ele><time>2026-05-02T08:24:14.995Z</time></trkpt><trkpt lat="44.361808" lon="4.6443483"><ele>55.0</ele><time>2026-05-02T08:24:15.995Z</time></trkpt><trkpt lat="44.361781" lon="4.6442539"><ele>54.99999999999999</ele><time>2026-05-02T08:24:16.995Z</time></trkpt><trkpt lat="44.3617537" lon="4.6441588"><ele>55.0</ele><time>2026-05-02T08:24:17.996Z</time></trkpt><trkpt lat="44.3617061" lon="4.6440881"><ele>55.0</ele><time>2026-05-02T08:24:18.995Z</time></trkpt><trkpt lat="44.361638" lon="4.6440467"><ele>55.0</ele><time>2026-05-02T08:24:19.995Z</time></trkpt><trkpt lat="44.3615643" lon="4.6440397"><ele>54.99999999999999</ele><time>2026-05-02T08:24:20.995Z</time></trkpt><trkpt lat="44.3614818" lon="4.6440366"><ele>55.0</ele><time>2026-05-02T08:24:21.994Z</time></trkpt><trkpt lat="44.3613884" lon="4.6439971"><ele>54.5</ele><time>2026-05-02T08:24:22.994Z</time></trkpt><trkpt lat="44.3612885" lon="4.6439285"><ele>54.0</ele><time>2026-05-02T08:24:23.994Z</time></trkpt><trkpt lat="44.361181" lon="4.6438421"><ele>53.5</ele><time>2026-05-02T08:24:24.995Z</time></trkpt><trkpt lat="44.3610651" lon="4.6437432"><ele>53.0</ele><time>2026-05-02T08:24:25.995Z</time></trkpt><trkpt lat="44.3609468" lon="4.6436419"><ele>53.0</ele><time>2026-05-02T08:24:26.995Z</time></trkpt><trkpt lat="44.3608305" lon="4.6435443"><ele>53.0</ele><time>2026-05-02T08:24:27.995Z</time></trkpt><trkpt lat="44.3607149" lon="4.643449"><ele>53.0</ele><time>2026-05-02T08:24:28.995Z</time></trkpt><trkpt lat="44.3605986" lon="4.6433539"><ele>53.0</ele><time>2026-05-02T08:24:29.996Z</time></trkpt><trkpt lat="44.3604799" lon="4.6432607"><ele>53.0</ele><time>2026-05-02T08:24:30.995Z</time></trkpt><trkpt lat="44.3603578" lon="4.6431674"><ele>53.0</ele><time>2026-05-02T08:24:31.995Z</time></trkpt><trkpt lat="44.3602316" lon="4.6430705"><ele>53.0</ele><time>2026-05-02T08:24:32.996Z</time></trkpt><trkpt lat="44.3601005" lon="4.6429668"><ele>53.0</ele><time>2026-05-02T08:24:33.995Z</time></trkpt><trkpt lat="44.3599661" lon="4.6428587"><ele>54.0</ele><time>2026-05-02T08:24:34.995Z</time></trkpt><trkpt lat="44.3598296" lon="4.6427454"><ele>55.0</ele><time>2026-05-02T08:24:35.996Z</time></trkpt><trkpt lat="44.3596972" lon="4.6426385"><ele>56.0</ele><time>2026-05-02T08:24:36.995Z</time></trkpt><trkpt lat="44.3595659" lon="4.6425335"><ele>56.0</ele><time>2026-05-02T08:24:37.996Z</time></trkpt><trkpt lat="44.3594336" lon="4.6424324"><ele>56.0</ele><time>2026-05-02T08:24:38.995Z</time></trkpt><trkpt lat="44.3593045" lon="4.6423326"><ele>56.0</ele><time>2026-05-02T08:24:39.996Z</time></trkpt><trkpt lat="44.3591834" lon="4.6422382"><ele>56.0</ele><time>2026-05-02T08:24:40.995Z</time></trkpt><trkpt lat="44.3590682" lon="4.6421458"><ele>56.0</ele><time>2026-05-02T08:24:41.995Z</time></trkpt><trkpt lat="44.3589548" lon="4.6420568"><ele>56.0</ele><time>2026-05-02T08:24:42.995Z</time></trkpt><trkpt lat="44.3588422" lon="4.6419676"><ele>56.0</ele><time>2026-05-02T08:24:43.994Z</time></trkpt><trkpt lat="44.3587263" lon="4.6418776"><ele>56.0</ele><time>2026-05-02T08:24:44.995Z</time></trkpt><trkpt lat="44.3586069" lon="4.6417933"><ele>57.25</ele><time>2026-05-02T08:24:45.996Z</time></trkpt><trkpt lat="44.3584825" lon="4.641717"><ele>58.5</ele><time>2026-05-02T08:24:46.995Z</time></trkpt><trkpt lat="44.3583526" lon="4.6416538"><ele>59.75</ele><time>2026-05-02T08:24:47.996Z</time></trkpt><trkpt lat="44.3582186" lon="4.6415999"><ele>61.0</ele><time>2026-05-02T08:24:48.995Z</time></trkpt><trkpt lat="44.3580823" lon="4.641548"><ele>60.25</ele><time>2026-05-02T08:24:49.994Z</time></trkpt><trkpt lat="44.3579466" lon="4.6414957"><ele>59.5</ele><time>2026-05-02T08:24:50.996Z</time></trkpt><trkpt lat="44.3578076" lon="4.6414457"><ele>58.75</ele><time>2026-05-02T08:24:51.995Z</time></trkpt><trkpt lat="44.3576685" lon="4.6414002"><ele>58.0</ele><time>2026-05-02T08:24:52.996Z</time></trkpt><trkpt lat="44.3575256" lon="4.6413615"><ele>58.0</ele><time>2026-05-02T08:24:53.996Z</time></trkpt><trkpt lat="44.35738" lon="4.6413234"><ele>58.0</ele><time>2026-05-02T08:24:54.994Z</time></trkpt><trkpt lat="44.3572359" lon="4.6412832"><ele>58.0</ele><time>2026-05-02T08:24:55.995Z</time></trkpt><trkpt lat="44.3570944" lon="4.6412397"><ele>58.0</ele><time>2026-05-02T08:24:56.995Z</time></trkpt><trkpt lat="44.3569512" lon="4.641183"><ele>59.75</ele><time>2026-05-02T08:24:57.996Z</time></trkpt><trkpt lat="44.3568118" lon="4.6411055"><ele>61.5</ele><time>2026-05-02T08:24:58.996Z</time></trkpt><trkpt lat="44.3566756" lon="4.6410182"><ele>63.25</ele><time>2026-05-02T08:24:59.995Z</time></trkpt><trkpt lat="44.3565454" lon="4.6409254"><ele>65.0</ele><time>2026-05-02T08:25:00.995Z</time></trkpt><trkpt lat="44.3564157" lon="4.6408411"><ele>64.5</ele><time>2026-05-02T08:25:01.995Z</time></trkpt><trkpt lat="44.3562829" lon="4.6407678"><ele>64.0</ele><time>2026-05-02T08:25:02.996Z</time></trkpt><trkpt lat="44.3561451" lon="4.6407137"><ele>63.5</ele><time>2026-05-02T08:25:03.995Z</time></trkpt><trkpt lat="44.356004" lon="4.6406759"><ele>63.0</ele><time>2026-05-02T08:25:04.995Z</time></trkpt><trkpt lat="44.3558672" lon="4.6406439"><ele>63.0</ele><time>2026-05-02T08:25:05.994Z</time></trkpt><trkpt lat="44.3557318" lon="4.6406188"><ele>63.0</ele><time>2026-05-02T08:25:06.995Z</time></trkpt><trkpt lat="44.3555998" lon="4.6405968"><ele>63.0</ele><time>2026-05-02T08:25:07.996Z</time></trkpt><trkpt lat="44.3554751" lon="4.6405782"><ele>63.0</ele><time>2026-05-02T08:25:08.995Z</time></trkpt><trkpt lat="44.355353" lon="4.6405609"><ele>62.8</ele><time>2026-05-02T08:25:09.994Z</time></trkpt><trkpt lat="44.3552361" lon="4.6405505"><ele>62.599999999999994</ele><time>2026-05-02T08:25:10.994Z</time></trkpt><trkpt lat="44.3551277" lon="4.6405493"><ele>62.400000000000006</ele><time>2026-05-02T08:25:11.996Z</time></trkpt><trkpt lat="44.3550238" lon="4.6405577"><ele>62.2</ele><time>2026-05-02T08:25:12.996Z</time></trkpt><trkpt lat="44.3549197" lon="4.6405713"><ele>62.0</ele><time>2026-05-02T08:25:13.994Z</time></trkpt><trkpt lat="44.354812" lon="4.640586"><ele>61.2</ele><time>2026-05-02T08:25:14.995Z</time></trkpt><trkpt lat="44.3547032" lon="4.6405972"><ele>60.400000000000006</ele><time>2026-05-02T08:25:15.995Z</time></trkpt><trkpt lat="44.3545896" lon="4.6405902"><ele>59.599999999999994</ele><time>2026-05-02T08:25:16.995Z</time></trkpt><trkpt lat="44.35448" lon="4.6405526"><ele>58.8</ele><time>2026-05-02T08:25:17.995Z</time></trkpt><trkpt lat="44.3543851" lon="4.6404774"><ele>58.0</ele><time>2026-05-02T08:25:18.995Z</time></trkpt><trkpt lat="44.3543051" lon="4.6403761"><ele>60.25</ele><time>2026-05-02T08:25:19.995Z</time></trkpt><trkpt lat="44.354246" lon="4.640247"><ele>62.5</ele><time>2026-05-02T08:25:20.995Z</time></trkpt><trkpt lat="44.3542069" lon="4.6401019"><ele>64.75</ele><time>2026-05-02T08:25:21.995Z</time></trkpt><trkpt lat="44.3541643" lon="4.6399547"><ele>67.0</ele><time>2026-05-02T08:25:22.995Z</time></trkpt><trkpt lat="44.3540935" lon="4.6398242"><ele>67.0</ele><time>2026-05-02T08:25:23.995Z</time></trkpt><trkpt lat="44.3540021" lon="4.6397147"><ele>67.0</ele><time>2026-05-02T08:25:24.995Z</time></trkpt><trkpt lat="44.3538932" lon="4.6396314"><ele>67.0</ele><time>2026-05-02T08:25:25.994Z</time></trkpt><trkpt lat="44.3537675" lon="4.6395768"><ele>67.0</ele><time>2026-05-02T08:25:26.995Z</time></trkpt><trkpt lat="44.3536294" lon="4.6395519"><ele>66.33333333333333</ele><time>2026-05-02T08:25:27.995Z</time></trkpt><trkpt lat="44.3534807" lon="4.639554"><ele>65.66666666666667</ele><time>2026-05-02T08:25:28.995Z</time></trkpt><trkpt lat="44.353332" lon="4.6395678"><ele>65.0</ele><time>2026-05-02T08:25:29.995Z</time></trkpt><trkpt lat="44.3531792" lon="4.6395755"><ele>65.0</ele><time>2026-05-02T08:25:30.996Z</time></trkpt><trkpt lat="44.3530202" lon="4.6395738"><ele>65.0</ele><time>2026-05-02T08:25:31.995Z</time></trkpt><trkpt lat="44.352856" lon="4.6395568"><ele>65.0</ele><time>2026-05-02T08:25:32.995Z</time></trkpt><trkpt lat="44.352697" lon="4.6395344"><ele>65.0</ele><time>2026-05-02T08:25:33.994Z</time></trkpt><trkpt lat="44.3525416" lon="4.6395009"><ele>65.0</ele><time>2026-05-02T08:25:34.994Z</time></trkpt><trkpt lat="44.3523865" lon="4.6394573"><ele>65.0</ele><time>2026-05-02T08:25:35.994Z</time></trkpt><trkpt lat="44.3522358" lon="4.6394086"><ele>65.66666666666667</ele><time>2026-05-02T08:25:36.996Z</time></trkpt><trkpt lat="44.3520873" lon="4.6393587"><ele>66.33333333333333</ele><time>2026-05-02T08:25:37.996Z</time></trkpt><trkpt lat="44.351939" lon="4.6393017"><ele>67.0</ele><time>2026-05-02T08:25:38.995Z</time></trkpt><trkpt lat="44.3517886" lon="4.6392329"><ele>67.0</ele><time>2026-05-02T08:25:39.995Z</time></trkpt><trkpt lat="44.3516388" lon="4.6391523"><ele>67.0</ele><time>2026-05-02T08:25:40.996Z</time></trkpt><trkpt lat="44.3514959" lon="4.6390582"><ele>67.0</ele><time>2026-05-02T08:25:41.995Z</time></trkpt><trkpt lat="44.351358" lon="4.6389574"><ele>66.33333333333333</ele><time>2026-05-02T08:25:42.995Z</time></trkpt><trkpt lat="44.3512247" lon="4.6388474"><ele>65.66666666666667</ele><time>2026-05-02T08:25:43.994Z</time></trkpt><trkpt lat="44.3510906" lon="4.6387293"><ele>65.0</ele><time>2026-05-02T08:25:44.995Z</time></trkpt><trkpt lat="44.3509527" lon="4.6386042"><ele>66.0</ele><time>2026-05-02T08:25:45.995Z</time></trkpt><trkpt lat="44.350813" lon="4.6384709"><ele>67.0</ele><time>2026-05-02T08:25:46.995Z</time></trkpt><trkpt lat="44.3506695" lon="4.6383399"><ele>68.0</ele><time>2026-05-02T08:25:47.994Z</time></trkpt><trkpt lat="44.3505178" lon="4.6382207"><ele>68.0</ele><time>2026-05-02T08:25:48.995Z</time></trkpt><trkpt lat="44.3503552" lon="4.6381174"><ele>68.0</ele><time>2026-05-02T08:25:49.995Z</time></trkpt><trkpt lat="44.350186" lon="4.6380269"><ele>68.0</ele><time>2026-05-02T08:25:50.995Z</time></trkpt><trkpt lat="44.3500123" lon="4.6379463"><ele>68.0</ele><time>2026-05-02T08:25:51.995Z</time></trkpt><trkpt lat="44.3498422" lon="4.6378727"><ele>68.0</ele><time>2026-05-02T08:25:52.995Z</time></trkpt><trkpt lat="44.3496755" lon="4.6377999"><ele>68.0</ele><time>2026-05-02T08:25:53.994Z</time></trkpt><trkpt lat="44.3495107" lon="4.6377293"><ele>70.33333333333334</ele><time>2026-05-02T08:25:54.996Z</time></trkpt><trkpt lat="44.3493468" lon="4.6376598"><ele>72.66666666666667</ele><time>2026-05-02T08:25:55.995Z</time></trkpt><trkpt lat="44.3491847" lon="4.6375933"><ele>75.0</ele><time>2026-05-02T08:25:56.994Z</time></trkpt><trkpt lat="44.3490238" lon="4.6375309"><ele>74.33333333333333</ele><time>2026-05-02T08:25:57.996Z</time></trkpt><trkpt lat="44.3488594" lon="4.63747"><ele>73.66666666666666</ele><time>2026-05-02T08:25:58.994Z</time></trkpt><trkpt lat="44.3486935" lon="4.6374055"><ele>73.0</ele><time>2026-05-02T08:25:59.995Z</time></trkpt><trkpt lat="44.348524" lon="4.6373429"><ele>73.0</ele><time>2026-05-02T08:26:00.995Z</time></trkpt><trkpt lat="44.3483519" lon="4.6372804"><ele>73.0</ele><time>2026-05-02T08:26:01.995Z</time></trkpt><trkpt lat="44.3481764" lon="4.6372174"><ele>73.0</ele><time>2026-05-02T08:26:02.994Z</time></trkpt><trkpt lat="44.3479972" lon="4.6371549"><ele>72.0</ele><time>2026-05-02T08:26:03.995Z</time></trkpt><trkpt lat="44.3478171" lon="4.6370901"><ele>71.0</ele><time>2026-05-02T08:26:04.995Z</time></trkpt><trkpt lat="44.347641" lon="4.6370253"><ele>70.0</ele><time>2026-05-02T08:26:05.995Z</time></trkpt><trkpt lat="44.3474668" lon="4.6369618"><ele>70.33333333333333</ele><time>2026-05-02T08:26:06.995Z</time></trkpt><trkpt lat="44.3472937" lon="4.6368949"><ele>70.66666666666667</ele><time>2026-05-02T08:26:07.996Z</time></trkpt><trkpt lat="44.3471241" lon="4.6368178"><ele>71.0</ele><time>2026-05-02T08:26:08.996Z</time></trkpt><trkpt lat="44.3469585" lon="4.6367259"><ele>71.0</ele><time>2026-05-02T08:26:09.994Z</time></trkpt><trkpt lat="44.3467976" lon="4.6366211"><ele>71.0</ele><time>2026-05-02T08:26:10.995Z</time></trkpt><trkpt lat="44.3466437" lon="4.6365068"><ele>71.0</ele><time>2026-05-02T08:26:11.996Z</time></trkpt><trkpt lat="44.3464911" lon="4.6363922"><ele>72.0</ele><time>2026-05-02T08:26:12.995Z</time></trkpt><trkpt lat="44.3463317" lon="4.6362885"><ele>73.0</ele><time>2026-05-02T08:26:13.995Z</time></trkpt><trkpt lat="44.3461644" lon="4.6362024"><ele>74.0</ele><time>2026-05-02T08:26:14.996Z</time></trkpt><trkpt lat="44.3459942" lon="4.6361295"><ele>74.0</ele><time>2026-05-02T08:26:15.995Z</time></trkpt><trkpt lat="44.3458252" lon="4.6360689"><ele>74.0</ele><time>2026-05-02T08:26:16.995Z</time></trkpt><trkpt lat="44.3456579" lon="4.6360144"><ele>74.0</ele><time>2026-05-02T08:26:17.995Z</time></trkpt><trkpt lat="44.3454929" lon="4.6359621"><ele>70.0</ele><time>2026-05-02T08:26:18.994Z</time></trkpt><trkpt lat="44.3453314" lon="4.6359132"><ele>66.0</ele><time>2026-05-02T08:26:19.996Z</time></trkpt><trkpt lat="44.3451726" lon="4.6358641"><ele>62.0</ele><time>2026-05-02T08:26:20.994Z</time></trkpt><trkpt lat="44.3450131" lon="4.6358091"><ele>62.0</ele><time>2026-05-02T08:26:21.995Z</time></trkpt><trkpt lat="44.3448544" lon="4.6357507"><ele>62.0</ele><time>2026-05-02T08:26:22.995Z</time></trkpt><trkpt lat="44.3446925" lon="4.6356877"><ele>62.0</ele><time>2026-05-02T08:26:23.995Z</time></trkpt><trkpt lat="44.3445296" lon="4.6356341"><ele>59.333333333333336</ele><time>2026-05-02T08:26:24.996Z</time></trkpt><trkpt lat="44.3443679" lon="4.6355976"><ele>56.66666666666667</ele><time>2026-05-02T08:26:25.994Z</time></trkpt><trkpt lat="44.3442022" lon="4.635584"><ele>54.0</ele><time>2026-05-02T08:26:26.994Z</time></trkpt><trkpt lat="44.3440379" lon="4.6355996"><ele>54.0</ele><time>2026-05-02T08:26:27.996Z</time></trkpt><trkpt lat="44.3438802" lon="4.6356482"><ele>54.0</ele><time>2026-05-02T08:26:28.995Z</time></trkpt><trkpt lat="44.3437306" lon="4.6357312"><ele>54.0</ele><time>2026-05-02T08:26:29.994Z</time></trkpt><trkpt lat="44.3435955" lon="4.6358464"><ele>54.0</ele><time>2026-05-02T08:26:30.995Z</time></trkpt><trkpt lat="44.3434641" lon="4.6359864"><ele>54.0</ele><time>2026-05-02T08:26:31.996Z</time></trkpt><trkpt lat="44.3433263" lon="4.6361289"><ele>54.0</ele><time>2026-05-02T08:26:32.994Z</time></trkpt><trkpt lat="44.3431828" lon="4.6362773"><ele>56.66666666666667</ele><time>2026-05-02T08:26:33.995Z</time></trkpt><trkpt lat="44.3430308" lon="4.636423"><ele>59.333333333333336</ele><time>2026-05-02T08:26:34.994Z</time></trkpt><trkpt lat="44.3428674" lon="4.636553"><ele>62.0</ele><time>2026-05-02T08:26:35.996Z</time></trkpt><trkpt lat="44.3426976" lon="4.6366678"><ele>62.0</ele><time>2026-05-02T08:26:36.995Z</time></trkpt><trkpt lat="44.3425233" lon="4.6367802"><ele>62.0</ele><time>2026-05-02T08:26:37.995Z</time></trkpt><trkpt lat="44.3423453" lon="4.6368907"><ele>62.0</ele><time>2026-05-02T08:26:38.995Z</time></trkpt><trkpt lat="44.3421626" lon="4.6370018"><ele>62.333333333333336</ele><time>2026-05-02T08:26:39.996Z</time></trkpt><trkpt lat="44.341978" lon="4.6371109"><ele>62.66666666666667</ele><time>2026-05-02T08:26:40.995Z</time></trkpt><trkpt lat="44.34179" lon="4.6372232"><ele>63.0</ele><time>2026-05-02T08:26:41.995Z</time></trkpt><trkpt lat="44.3415969" lon="4.6373408"><ele>63.0</ele><time>2026-05-02T08:26:42.995Z</time></trkpt><trkpt lat="44.341402" lon="4.6374644"><ele>63.0</ele><time>2026-05-02T08:26:43.995Z</time></trkpt><trkpt lat="44.3412076" lon="4.6375935"><ele>63.0</ele><time>2026-05-02T08:26:44.995Z</time></trkpt><trkpt lat="44.3410122" lon="4.6377261"><ele>62.66666666666667</ele><time>2026-05-02T08:26:45.995Z</time></trkpt><trkpt lat="44.3408219" lon="4.6378608"><ele>62.333333333333336</ele><time>2026-05-02T08:26:46.995Z</time></trkpt><trkpt lat="44.3406394" lon="4.6379885"><ele>62.0</ele><time>2026-05-02T08:26:47.995Z</time></trkpt><trkpt lat="44.3404654" lon="4.6381116"><ele>62.0</ele><time>2026-05-02T08:26:48.995Z</time></trkpt><trkpt lat="44.3402989" lon="4.6382324"><ele>62.0</ele><time>2026-05-02T08:26:49.995Z</time></trkpt><trkpt lat="44.3401392" lon="4.6383454"><ele>62.0</ele><time>2026-05-02T08:26:50.995Z</time></trkpt><trkpt lat="44.3399867" lon="4.6384596"><ele>62.0</ele><time>2026-05-02T08:26:51.995Z</time></trkpt><trkpt lat="44.3398413" lon="4.6385826"><ele>62.0</ele><time>2026-05-02T08:26:52.995Z</time></trkpt><trkpt lat="44.3397044" lon="4.6387189"><ele>62.0</ele><time>2026-05-02T08:26:53.996Z</time></trkpt><trkpt lat="44.339575" lon="4.6388754"><ele>65.33333333333334</ele><time>2026-05-02T08:26:54.994Z</time></trkpt><trkpt lat="44.3394519" lon="4.6390507"><ele>68.66666666666667</ele><time>2026-05-02T08:26:55.995Z</time></trkpt><trkpt lat="44.3393414" lon="4.639239"><ele>72.0</ele><time>2026-05-02T08:26:56.995Z</time></trkpt><trkpt lat="44.3392427" lon="4.6394292"><ele>68.0</ele><time>2026-05-02T08:26:57.994Z</time></trkpt><trkpt lat="44.3391471" lon="4.63962"><ele>64.0</ele><time>2026-05-02T08:26:58.995Z</time></trkpt><trkpt lat="44.3390485" lon="4.6398165"><ele>60.0</ele><time>2026-05-02T08:26:59.996Z</time></trkpt><trkpt lat="44.3389477" lon="4.6400154"><ele>64.33333333333333</ele><time>2026-05-02T08:27:00.996Z</time></trkpt><trkpt lat="44.3388485" lon="4.6402129"><ele>68.66666666666666</ele><time>2026-05-02T08:27:01.995Z</time></trkpt><trkpt lat="44.3387523" lon="4.6404105"><ele>73.0</ele><time>2026-05-02T08:27:02.995Z</time></trkpt><trkpt lat="44.3386572" lon="4.6406118"><ele>73.0</ele><time>2026-05-02T08:27:03.995Z</time></trkpt><trkpt lat="44.3385589" lon="4.6408183"><ele>73.0</ele><time>2026-05-02T08:27:04.996Z</time></trkpt><trkpt lat="44.338462" lon="4.6410228"><ele>73.0</ele><time>2026-05-02T08:27:05.994Z</time></trkpt><trkpt lat="44.3383708" lon="4.6412177"><ele>68.66666666666666</ele><time>2026-05-02T08:27:06.995Z</time></trkpt><trkpt lat="44.3382817" lon="4.641404"><ele>64.33333333333333</ele><time>2026-05-02T08:27:07.995Z</time></trkpt><trkpt lat="44.3381857" lon="4.641579"><ele>60.0</ele><time>2026-05-02T08:27:08.995Z</time></trkpt><trkpt lat="44.3380907" lon="4.6417357"><ele>62.25</ele><time>2026-05-02T08:27:09.995Z</time></trkpt><trkpt lat="44.33799" lon="4.6418663"><ele>64.5</ele><time>2026-05-02T08:27:10.995Z</time></trkpt><trkpt lat="44.3378847" lon="4.6419673"><ele>66.75</ele><time>2026-05-02T08:27:11.995Z</time></trkpt><trkpt lat="44.3377685" lon="4.6420372"><ele>69.0</ele><time>2026-05-02T08:27:12.995Z</time></trkpt><trkpt lat="44.3376403" lon="4.6420704"><ele>69.0</ele><time>2026-05-02T08:27:13.994Z</time></trkpt><trkpt lat="44.3375065" lon="4.6420667"><ele>69.0</ele><time>2026-05-02T08:27:14.995Z</time></trkpt><trkpt lat="44.3373647" lon="4.6420363"><ele>69.0</ele><time>2026-05-02T08:27:15.995Z</time></trkpt><trkpt lat="44.3372199" lon="4.6419794"><ele>69.0</ele><time>2026-05-02T08:27:16.995Z</time></trkpt><trkpt lat="44.33708" lon="4.6419072"><ele>71.25</ele><time>2026-05-02T08:27:17.996Z</time></trkpt><trkpt lat="44.3369497" lon="4.6418345"><ele>73.5</ele><time>2026-05-02T08:27:18.995Z</time></trkpt><trkpt lat="44.3368242" lon="4.6417628"><ele>75.75</ele><time>2026-05-02T08:27:19.994Z</time></trkpt><trkpt lat="44.3366958" lon="4.6416853"><ele>78.0</ele><time>2026-05-02T08:27:20.995Z</time></trkpt><trkpt lat="44.3365656" lon="4.6416084"><ele>78.0</ele><time>2026-05-02T08:27:21.995Z</time></trkpt><trkpt lat="44.3364317" lon="4.6415301"><ele>78.0</ele><time>2026-05-02T08:27:22.995Z</time></trkpt><trkpt lat="44.3362987" lon="4.6414472"><ele>78.0</ele><time>2026-05-02T08:27:23.995Z</time></trkpt><trkpt lat="44.3361631" lon="4.6413617"><ele>78.0</ele><time>2026-05-02T08:27:24.995Z</time></trkpt><trkpt lat="44.3360231" lon="4.6412735"><ele>79.66666666666667</ele><time>2026-05-02T08:27:25.996Z</time></trkpt><trkpt lat="44.3358786" lon="4.6411869"><ele>81.33333333333334</ele><time>2026-05-02T08:27:26.996Z</time></trkpt><trkpt lat="44.3357378" lon="4.641107"><ele>83.0</ele><time>2026-05-02T08:27:27.995Z</time></trkpt><trkpt lat="44.3355956" lon="4.6410231"><ele>83.75</ele><time>2026-05-02T08:27:28.995Z</time></trkpt><trkpt lat="44.3354551" lon="4.640941"><ele>84.5</ele><time>2026-05-02T08:27:29.995Z</time></trkpt><trkpt lat="44.3353205" lon="4.6408634"><ele>85.25</ele><time>2026-05-02T08:27:30.995Z</time></trkpt><trkpt lat="44.3351936" lon="4.6407882"><ele>86.0</ele><time>2026-05-02T08:27:31.996Z</time></trkpt><trkpt lat="44.3350668" lon="4.640719"><ele>86.0</ele><time>2026-05-02T08:27:32.995Z</time></trkpt><trkpt lat="44.3349433" lon="4.6406465"><ele>86.0</ele><time>2026-05-02T08:27:33.996Z</time></trkpt><trkpt lat="44.3348189" lon="4.640573"><ele>86.0</ele><time>2026-05-02T08:27:34.996Z</time></trkpt><trkpt lat="44.3346944" lon="4.6404959"><ele>86.0</ele><time>2026-05-02T08:27:35.995Z</time></trkpt><trkpt lat="44.3345687" lon="4.6404211"><ele>86.0</ele><time>2026-05-02T08:27:36.995Z</time></trkpt><trkpt lat="44.3344425" lon="4.640347"><ele>86.0</ele><time>2026-05-02T08:27:37.995Z</time></trkpt><trkpt lat="44.3343137" lon="4.6402678"><ele>86.0</ele><time>2026-05-02T08:27:38.996Z</time></trkpt><trkpt lat="44.3341804" lon="4.640182"><ele>86.0</ele><time>2026-05-02T08:27:39.995Z</time></trkpt><trkpt lat="44.3340432" lon="4.6400994"><ele>86.0</ele><time>2026-05-02T08:27:40.996Z</time></trkpt><trkpt lat="44.3338995" lon="4.6400136"><ele>86.0</ele><time>2026-05-02T08:27:41.995Z</time></trkpt><trkpt lat="44.3337547" lon="4.6399296"><ele>86.0</ele><time>2026-05-02T08:27:42.995Z</time></trkpt><trkpt lat="44.3336093" lon="4.6398451"><ele>87.0</ele><time>2026-05-02T08:27:43.994Z</time></trkpt><trkpt lat="44.3334675" lon="4.6397588"><ele>88.0</ele><time>2026-05-02T08:27:44.995Z</time></trkpt><trkpt lat="44.333328" lon="4.6396742"><ele>89.0</ele><time>2026-05-02T08:27:45.995Z</time></trkpt><trkpt lat="44.333187" lon="4.6395845"><ele>90.0</ele><time>2026-05-02T08:27:46.995Z</time></trkpt><trkpt lat="44.3330493" lon="4.6394996"><ele>91.0</ele><time>2026-05-02T08:27:47.996Z</time></trkpt><trkpt lat="44.3329116" lon="4.639414"><ele>92.0</ele><time>2026-05-02T08:27:48.995Z</time></trkpt><trkpt lat="44.3327749" lon="4.6393315"><ele>92.0</ele><time>2026-05-02T08:27:49.996Z</time></trkpt><trkpt lat="44.3326412" lon="4.6392536"><ele>92.0</ele><time>2026-05-02T08:27:50.995Z</time></trkpt><trkpt lat="44.3325087" lon="4.6391755"><ele>92.0</ele><time>2026-05-02T08:27:51.995Z</time></trkpt><trkpt lat="44.3323751" lon="4.6390994"><ele>92.0</ele><time>2026-05-02T08:27:52.994Z</time></trkpt><trkpt lat="44.3322403" lon="4.6390222"><ele>92.0</ele><time>2026-05-02T08:27:53.995Z</time></trkpt><trkpt lat="44.3321029" lon="4.6389445"><ele>92.0</ele><time>2026-05-02T08:27:54.995Z</time></trkpt><trkpt lat="44.3319649" lon="4.6388637"><ele>92.0</ele><time>2026-05-02T08:27:55.995Z</time></trkpt><trkpt lat="44.3318213" lon="4.6387815"><ele>92.0</ele><time>2026-05-02T08:27:56.995Z</time></trkpt><trkpt lat="44.3316711" lon="4.6386966"><ele>92.0</ele><time>2026-05-02T08:27:57.995Z</time></trkpt><trkpt lat="44.3315156" lon="4.638607"><ele>92.0</ele><time>2026-05-02T08:27:58.996Z</time></trkpt><trkpt lat="44.3313559" lon="4.6385151"><ele>91.66666666666667</ele><time>2026-05-02T08:27:59.996Z</time></trkpt><trkpt lat="44.331194" lon="4.6384215"><ele>91.33333333333333</ele><time>2026-05-02T08:28:00.996Z</time></trkpt><trkpt lat="44.3310286" lon="4.6383273"><ele>91.0</ele><time>2026-05-02T08:28:01.995Z</time></trkpt><trkpt lat="44.3308617" lon="4.6382262"><ele>91.0</ele><time>2026-05-02T08:28:02.995Z</time></trkpt><trkpt lat="44.3306942" lon="4.6381163"><ele>91.0</ele><time>2026-05-02T08:28:03.996Z</time></trkpt><trkpt lat="44.3305264" lon="4.6379954"><ele>91.0</ele><time>2026-05-02T08:28:04.995Z</time></trkpt><trkpt lat="44.3303599" lon="4.637856"><ele>92.0</ele><time>2026-05-02T08:28:05.994Z</time></trkpt><trkpt lat="44.3301905" lon="4.6377089"><ele>93.0</ele><time>2026-05-02T08:28:06.994Z</time></trkpt><trkpt lat="44.330022" lon="4.6375564"><ele>94.0</ele><time>2026-05-02T08:28:07.994Z</time></trkpt><trkpt lat="44.3298539" lon="4.6373962"><ele>94.33333333333333</ele><time>2026-05-02T08:28:08.995Z</time></trkpt><trkpt lat="44.3296908" lon="4.6372409"><ele>94.66666666666667</ele><time>2026-05-02T08:28:09.994Z</time></trkpt><trkpt lat="44.3295272" lon="4.6370853"><ele>95.0</ele><time>2026-05-02T08:28:10.995Z</time></trkpt><trkpt lat="44.3293655" lon="4.636928"><ele>95.0</ele><time>2026-05-02T08:28:11.995Z</time></trkpt><trkpt lat="44.3292029" lon="4.6367721"><ele>95.0</ele><time>2026-05-02T08:28:12.994Z</time></trkpt><trkpt lat="44.32904" lon="4.6366158"><ele>95.0</ele><time>2026-05-02T08:28:13.994Z</time></trkpt><trkpt lat="44.3288753" lon="4.6364586"><ele>95.0</ele><time>2026-05-02T08:28:14.994Z</time></trkpt><trkpt lat="44.3287103" lon="4.6363025"><ele>95.0</ele><time>2026-05-02T08:28:15.994Z</time></trkpt><trkpt lat="44.3285457" lon="4.6361447"><ele>95.0</ele><time>2026-05-02T08:28:16.995Z</time></trkpt><trkpt lat="44.3283798" lon="4.6359863"><ele>95.0</ele><time>2026-05-02T08:28:17.994Z</time></trkpt><trkpt lat="44.3282144" lon="4.6358268"><ele>95.0</ele><time>2026-05-02T08:28:18.994Z</time></trkpt><trkpt lat="44.3280524" lon="4.6356721"><ele>95.0</ele><time>2026-05-02T08:28:19.994Z</time></trkpt><trkpt lat="44.3278908" lon="4.6355189"><ele>94.66666666666667</ele><time>2026-05-02T08:28:20.994Z</time></trkpt><trkpt lat="44.3277277" lon="4.6353655"><ele>94.33333333333333</ele><time>2026-05-02T08:28:21.995Z</time></trkpt><trkpt lat="44.3275613" lon="4.6352077"><ele>94.0</ele><time>2026-05-02T08:28:22.994Z</time></trkpt><trkpt lat="44.3273933" lon="4.6350449"><ele>93.0</ele><time>2026-05-02T08:28:23.993Z</time></trkpt><trkpt lat="44.32722" lon="4.6348807"><ele>92.0</ele><time>2026-05-02T08:28:24.995Z</time></trkpt><trkpt lat="44.3270444" lon="4.6347131"><ele>91.0</ele><time>2026-05-02T08:28:25.995Z</time></trkpt><trkpt lat="44.3268688" lon="4.6345448"><ele>91.66666666666666</ele><time>2026-05-02T08:28:26.994Z</time></trkpt><trkpt lat="44.3266952" lon="4.6343744"><ele>92.33333333333333</ele><time>2026-05-02T08:28:27.994Z</time></trkpt><trkpt lat="44.3265239" lon="4.6341994"><ele>93.0</ele><time>2026-05-02T08:28:28.995Z</time></trkpt><trkpt lat="44.3263596" lon="4.6340104"><ele>93.0</ele><time>2026-05-02T08:28:29.995Z</time></trkpt><trkpt lat="44.3262103" lon="4.6338038"><ele>93.0</ele><time>2026-05-02T08:28:30.994Z</time></trkpt><trkpt lat="44.326077" lon="4.6335836"><ele>93.0</ele><time>2026-05-02T08:28:31.995Z</time></trkpt><trkpt lat="44.3259561" lon="4.6333523"><ele>93.66666666666667</ele><time>2026-05-02T08:28:32.995Z</time></trkpt><trkpt lat="44.3258451" lon="4.6331173"><ele>94.33333333333334</ele><time>2026-05-02T08:28:33.993Z</time></trkpt><trkpt lat="44.3257473" lon="4.632877"><ele>95.0</ele><time>2026-05-02T08:28:34.994Z</time></trkpt><trkpt lat="44.3256531" lon="4.6326346"><ele>94.66666666666667</ele><time>2026-05-02T08:28:35.995Z</time></trkpt><trkpt lat="44.3255574" lon="4.6323856"><ele>94.33333333333333</ele><time>2026-05-02T08:28:36.994Z</time></trkpt><trkpt lat="44.3254606" lon="4.6321257"><ele>94.0</ele><time>2026-05-02T08:28:37.994Z</time></trkpt><trkpt lat="44.3253644" lon="4.6318579"><ele>94.0</ele><time>2026-05-02T08:28:38.993Z</time></trkpt><trkpt lat="44.3252653" lon="4.6315869"><ele>94.0</ele><time>2026-05-02T08:28:39.995Z</time></trkpt><trkpt lat="44.325165" lon="4.6313096"><ele>94.0</ele><time>2026-05-02T08:28:40.995Z</time></trkpt><trkpt lat="44.3250604" lon="4.6310419"><ele>94.33333333333333</ele><time>2026-05-02T08:28:41.995Z</time></trkpt><trkpt lat="44.3249443" lon="4.630782"><ele>94.66666666666667</ele><time>2026-05-02T08:28:42.995Z</time></trkpt><trkpt lat="44.324813" lon="4.6305291"><ele>95.0</ele><time>2026-05-02T08:28:43.994Z</time></trkpt><trkpt lat="44.3246665" lon="4.6302905"><ele>95.0</ele><time>2026-05-02T08:28:44.993Z</time></trkpt><trkpt lat="44.3245032" lon="4.630068"><ele>95.0</ele><time>2026-05-02T08:28:45.994Z</time></trkpt><trkpt lat="44.3243367" lon="4.6298558"><ele>95.0</ele><time>2026-05-02T08:28:46.994Z</time></trkpt><trkpt lat="44.3241723" lon="4.6296473"><ele>95.0</ele><time>2026-05-02T08:28:47.994Z</time></trkpt><trkpt lat="44.3240092" lon="4.6294363"><ele>95.0</ele><time>2026-05-02T08:28:48.994Z</time></trkpt><trkpt lat="44.3238492" lon="4.6292219"><ele>95.0</ele><time>2026-05-02T08:28:49.995Z</time></trkpt><trkpt lat="44.3236912" lon="4.6290036"><ele>95.0</ele><time>2026-05-02T08:28:50.994Z</time></trkpt><trkpt lat="44.323536" lon="4.6287763"><ele>95.0</ele><time>2026-05-02T08:28:51.994Z</time></trkpt><trkpt lat="44.323391" lon="4.6285325"><ele>95.0</ele><time>2026-05-02T08:28:52.994Z</time></trkpt><trkpt lat="44.3232561" lon="4.6282709"><ele>95.0</ele><time>2026-05-02T08:28:53.994Z</time></trkpt><trkpt lat="44.323131" lon="4.6280027"><ele>95.0</ele><time>2026-05-02T08:28:54.993Z</time></trkpt><trkpt lat="44.3230129" lon="4.6277262"><ele>95.0</ele><time>2026-05-02T08:28:55.994Z</time></trkpt><trkpt lat="44.3228985" lon="4.6274505"><ele>95.0</ele><time>2026-05-02T08:28:56.994Z</time></trkpt><trkpt lat="44.3227809" lon="4.6271851"><ele>95.0</ele><time>2026-05-02T08:28:57.994Z</time></trkpt><trkpt lat="44.3226497" lon="4.6269295"><ele>95.0</ele><time>2026-05-02T08:28:58.994Z</time></trkpt><trkpt lat="44.3225025" lon="4.6266852"><ele>95.0</ele><time>2026-05-02T08:28:59.994Z</time></trkpt><trkpt lat="44.322339" lon="4.626454"><ele>95.0</ele><time>2026-05-02T08:29:00.994Z</time></trkpt><trkpt lat="44.3221581" lon="4.6262358"><ele>94.0</ele><time>2026-05-02T08:29:01.995Z</time></trkpt><trkpt lat="44.3219671" lon="4.626034"><ele>93.0</ele><time>2026-05-02T08:29:02.993Z</time></trkpt><trkpt lat="44.3217717" lon="4.6258476"><ele>93.0</ele><time>2026-05-02T08:29:03.994Z</time></trkpt><trkpt lat="44.3215747" lon="4.6256708"><ele>93.0</ele><time>2026-05-02T08:29:04.994Z</time></trkpt><trkpt lat="44.3213788" lon="4.6254965"><ele>91.0</ele><time>2026-05-02T08:29:05.994Z</time></trkpt><trkpt lat="44.3211824" lon="4.6253225"><ele>89.0</ele><time>2026-05-02T08:29:06.994Z</time></trkpt><trkpt lat="44.3209868" lon="4.6251492"><ele>89.0</ele><time>2026-05-02T08:29:07.994Z</time></trkpt><trkpt lat="44.3207935" lon="4.6249776"><ele>89.0</ele><time>2026-05-02T08:29:08.994Z</time></trkpt><trkpt lat="44.320606" lon="4.6248073"><ele>89.33333333333334</ele><time>2026-05-02T08:29:09.994Z</time></trkpt><trkpt lat="44.3204229" lon="4.6246409"><ele>89.66666666666667</ele><time>2026-05-02T08:29:10.994Z</time></trkpt><trkpt lat="44.3202437" lon="4.6244865"><ele>90.0</ele><time>2026-05-02T08:29:11.994Z</time></trkpt><trkpt lat="44.3200667" lon="4.6243448"><ele>90.0</ele><time>2026-05-02T08:29:12.994Z</time></trkpt><trkpt lat="44.3198887" lon="4.6242038"><ele>90.0</ele><time>2026-05-02T08:29:13.994Z</time></trkpt><trkpt lat="44.3197131" lon="4.6240654"><ele>90.0</ele><time>2026-05-02T08:29:14.995Z</time></trkpt><trkpt lat="44.3195385" lon="4.6239279"><ele>90.0</ele><time>2026-05-02T08:29:15.995Z</time></trkpt><trkpt lat="44.3193642" lon="4.6237906"><ele>90.0</ele><time>2026-05-02T08:29:16.995Z</time></trkpt><trkpt lat="44.3191885" lon="4.6236509"><ele>90.0</ele><time>2026-05-02T08:29:17.994Z</time></trkpt><trkpt lat="44.3190158" lon="4.6235145"><ele>90.66666666666667</ele><time>2026-05-02T08:29:18.994Z</time></trkpt><trkpt lat="44.3188478" lon="4.6233785"><ele>91.33333333333334</ele><time>2026-05-02T08:29:19.994Z</time></trkpt><trkpt lat="44.3186809" lon="4.6232442"><ele>92.0</ele><time>2026-05-02T08:29:20.995Z</time></trkpt><trkpt lat="44.3185097" lon="4.6231075"><ele>92.0</ele><time>2026-05-02T08:29:21.994Z</time></trkpt><trkpt lat="44.3183367" lon="4.6229729"><ele>92.0</ele><time>2026-05-02T08:29:22.994Z</time></trkpt><trkpt lat="44.3181614" lon="4.6228353"><ele>92.0</ele><time>2026-05-02T08:29:23.994Z</time></trkpt><trkpt lat="44.3179871" lon="4.6226961"><ele>91.33333333333334</ele><time>2026-05-02T08:29:24.994Z</time></trkpt><trkpt lat="44.317813" lon="4.6225535"><ele>90.66666666666667</ele><time>2026-05-02T08:29:25.995Z</time></trkpt><trkpt lat="44.3176387" lon="4.6224123"><ele>90.0</ele><time>2026-05-02T08:29:26.994Z</time></trkpt><trkpt lat="44.3174647" lon="4.6222725"><ele>90.0</ele><time>2026-05-02T08:29:27.994Z</time></trkpt><trkpt lat="44.3172887" lon="4.6221293"><ele>90.0</ele><time>2026-05-02T08:29:28.996Z</time></trkpt><trkpt lat="44.3171136" lon="4.6219771"><ele>90.0</ele><time>2026-05-02T08:29:29.994Z</time></trkpt><trkpt lat="44.3169411" lon="4.6218187"><ele>89.33333333333333</ele><time>2026-05-02T08:29:30.996Z</time></trkpt><trkpt lat="44.3167694" lon="4.6216552"><ele>88.66666666666666</ele><time>2026-05-02T08:29:31.995Z</time></trkpt><trkpt lat="44.3166004" lon="4.6214875"><ele>88.0</ele><time>2026-05-02T08:29:32.994Z</time></trkpt><trkpt lat="44.3164343" lon="4.6213229"><ele>88.5</ele><time>2026-05-02T08:29:33.994Z</time></trkpt><trkpt lat="44.3162721" lon="4.6211583"><ele>89.0</ele><time>2026-05-02T08:29:34.995Z</time></trkpt><trkpt lat="44.3159671" lon="4.6208201"><ele>89.0</ele><time>2026-05-02T08:29:36.995Z</time></trkpt><trkpt lat="44.3158268" lon="4.6206388"><ele>89.0</ele><time>2026-05-02T08:29:37.994Z</time></trkpt><trkpt lat="44.3156974" lon="4.6204468"><ele>89.0</ele><time>2026-05-02T08:29:38.993Z</time></trkpt><trkpt lat="44.3155752" lon="4.6202489"><ele>88.33333333333334</ele><time>2026-05-02T08:29:39.994Z</time></trkpt><trkpt lat="44.3154641" lon="4.6200426"><ele>87.66666666666667</ele><time>2026-05-02T08:29:40.994Z</time></trkpt><trkpt lat="44.3153633" lon="4.6198284"><ele>87.0</ele><time>2026-05-02T08:29:41.994Z</time></trkpt><trkpt lat="44.3152705" lon="4.6196055"><ele>87.0</ele><time>2026-05-02T08:29:42.993Z</time></trkpt><trkpt lat="44.3151814" lon="4.6193774"><ele>87.0</ele><time>2026-05-02T08:29:43.994Z</time></trkpt><trkpt lat="44.3150946" lon="4.6191512"><ele>87.0</ele><time>2026-05-02T08:29:44.994Z</time></trkpt><trkpt lat="44.3150102" lon="4.6189233"><ele>87.0</ele><time>2026-05-02T08:29:45.993Z</time></trkpt><trkpt lat="44.3149306" lon="4.6187008"><ele>87.0</ele><time>2026-05-02T08:29:46.995Z</time></trkpt><trkpt lat="44.3148529" lon="4.6184876"><ele>87.0</ele><time>2026-05-02T08:29:47.994Z</time></trkpt><trkpt lat="44.3147773" lon="4.6182826"><ele>88.0</ele><time>2026-05-02T08:29:48.995Z</time></trkpt><trkpt lat="44.3147039" lon="4.6180845"><ele>89.0</ele><time>2026-05-02T08:29:49.994Z</time></trkpt><trkpt lat="44.3146297" lon="4.617886"><ele>90.0</ele><time>2026-05-02T08:29:50.995Z</time></trkpt><trkpt lat="44.3145497" lon="4.6176848"><ele>90.0</ele><time>2026-05-02T08:29:51.995Z</time></trkpt><trkpt lat="44.3144573" lon="4.6174871"><ele>90.0</ele><time>2026-05-02T08:29:52.994Z</time></trkpt><trkpt lat="44.314352" lon="4.6172953"><ele>90.0</ele><time>2026-05-02T08:29:53.994Z</time></trkpt><trkpt lat="44.3142387" lon="4.6171092"><ele>90.33333333333333</ele><time>2026-05-02T08:29:54.995Z</time></trkpt><trkpt lat="44.3141191" lon="4.6169269"><ele>90.66666666666666</ele><time>2026-05-02T08:29:55.995Z</time></trkpt><trkpt lat="44.3139935" lon="4.6167502"><ele>91.0</ele><time>2026-05-02T08:29:56.995Z</time></trkpt><trkpt lat="44.3138661" lon="4.616573"><ele>90.33333333333333</ele><time>2026-05-02T08:29:57.994Z</time></trkpt><trkpt lat="44.3137337" lon="4.6163966"><ele>89.66666666666667</ele><time>2026-05-02T08:29:58.994Z</time></trkpt><trkpt lat="44.3136024" lon="4.6162179"><ele>89.0</ele><time>2026-05-02T08:29:59.994Z</time></trkpt><trkpt lat="44.3134701" lon="4.6160374"><ele>89.0</ele><time>2026-05-02T08:30:00.994Z</time></trkpt><trkpt lat="44.313336" lon="4.6158522"><ele>89.0</ele><time>2026-05-02T08:30:01.994Z</time></trkpt><trkpt lat="44.313197" lon="4.6156682"><ele>89.0</ele><time>2026-05-02T08:30:02.995Z</time></trkpt><trkpt lat="44.3130547" lon="4.6154896"><ele>89.0</ele><time>2026-05-02T08:30:03.994Z</time></trkpt><trkpt lat="44.3129044" lon="4.6153249"><ele>89.0</ele><time>2026-05-02T08:30:04.994Z</time></trkpt><trkpt lat="44.3127445" lon="4.6151743"><ele>89.0</ele><time>2026-05-02T08:30:05.994Z</time></trkpt><trkpt lat="44.3125719" lon="4.6150343"><ele>88.66666666666667</ele><time>2026-05-02T08:30:06.995Z</time></trkpt><trkpt lat="44.3123913" lon="4.6149138"><ele>88.33333333333333</ele><time>2026-05-02T08:30:07.995Z</time></trkpt><trkpt lat="44.3122051" lon="4.614811"><ele>88.0</ele><time>2026-05-02T08:30:08.994Z</time></trkpt><trkpt lat="44.3120178" lon="4.6147248"><ele>88.66666666666666</ele><time>2026-05-02T08:30:09.994Z</time></trkpt><trkpt lat="44.3118309" lon="4.6146435"><ele>89.33333333333333</ele><time>2026-05-02T08:30:10.994Z</time></trkpt><trkpt lat="44.3116436" lon="4.6145687"><ele>90.0</ele><time>2026-05-02T08:30:11.994Z</time></trkpt><trkpt lat="44.3114604" lon="4.6144946"><ele>90.0</ele><time>2026-05-02T08:30:12.994Z</time></trkpt><trkpt lat="44.3112824" lon="4.6144227"><ele>90.0</ele><time>2026-05-02T08:30:13.994Z</time></trkpt><trkpt lat="44.3111047" lon="4.61435"><ele>90.0</ele><time>2026-05-02T08:30:14.995Z</time></trkpt><trkpt lat="44.3109284" lon="4.6142764"><ele>90.0</ele><time>2026-05-02T08:30:15.994Z</time></trkpt><trkpt lat="44.3107545" lon="4.6142034"><ele>90.0</ele><time>2026-05-02T08:30:16.994Z</time></trkpt><trkpt lat="44.3105847" lon="4.6141324"><ele>90.0</ele><time>2026-05-02T08:30:17.995Z</time></trkpt><trkpt lat="44.3104205" lon="4.6140669"><ele>89.33333333333333</ele><time>2026-05-02T08:30:18.994Z</time></trkpt><trkpt lat="44.3102614" lon="4.6140023"><ele>88.66666666666666</ele><time>2026-05-02T08:30:19.994Z</time></trkpt><trkpt lat="44.3101077" lon="4.6139401"><ele>88.0</ele><time>2026-05-02T08:30:20.995Z</time></trkpt><trkpt lat="44.3099583" lon="4.6138822"><ele>88.0</ele><time>2026-05-02T08:30:21.993Z</time></trkpt><trkpt lat="44.309813" lon="4.6138241"><ele>88.0</ele><time>2026-05-02T08:30:22.995Z</time></trkpt><trkpt lat="44.3096751" lon="4.613776"><ele>88.0</ele><time>2026-05-02T08:30:23.994Z</time></trkpt><trkpt lat="44.309546" lon="4.6137362"><ele>88.0</ele><time>2026-05-02T08:30:24.994Z</time></trkpt><trkpt lat="44.3094275" lon="4.6137017"><ele>88.2</ele><time>2026-05-02T08:30:25.995Z</time></trkpt><trkpt lat="44.3093244" lon="4.6136741"><ele>88.4</ele><time>2026-05-02T08:30:26.995Z</time></trkpt><trkpt lat="44.3092308" lon="4.6136507"><ele>88.60000000000001</ele><time>2026-05-02T08:30:27.994Z</time></trkpt><trkpt lat="44.3091389" lon="4.6136246"><ele>88.80000000000001</ele><time>2026-05-02T08:30:28.994Z</time></trkpt><trkpt lat="44.309047" lon="4.6136002"><ele>89.0</ele><time>2026-05-02T08:30:29.995Z</time></trkpt><trkpt lat="44.3089537" lon="4.6135753"><ele>89.0</ele><time>2026-05-02T08:30:30.994Z</time></trkpt><trkpt lat="44.3088545" lon="4.6135481"><ele>89.0</ele><time>2026-05-02T08:30:31.995Z</time></trkpt><trkpt lat="44.3087524" lon="4.6135263"><ele>89.0</ele><time>2026-05-02T08:30:32.994Z</time></trkpt><trkpt lat="44.3086525" lon="4.6135113"><ele>89.0</ele><time>2026-05-02T08:30:33.994Z</time></trkpt><trkpt lat="44.3085506" lon="4.6134992"><ele>89.0</ele><time>2026-05-02T08:30:34.994Z</time></trkpt><trkpt lat="44.3084483" lon="4.6134896"><ele>89.0</ele><time>2026-05-02T08:30:35.994Z</time></trkpt><trkpt lat="44.3083482" lon="4.6134773"><ele>89.0</ele><time>2026-05-02T08:30:36.994Z</time></trkpt><trkpt lat="44.3082491" lon="4.6134593"><ele>89.0</ele><time>2026-05-02T08:30:37.994Z</time></trkpt><trkpt lat="44.3081493" lon="4.6134437"><ele>89.0</ele><time>2026-05-02T08:30:38.994Z</time></trkpt><trkpt lat="44.308053" lon="4.6134238"><ele>89.0</ele><time>2026-05-02T08:30:39.994Z</time></trkpt><trkpt lat="44.307968" lon="4.6133889"><ele>89.0</ele><time>2026-05-02T08:30:40.994Z</time></trkpt><trkpt lat="44.307886" lon="4.6133429"><ele>89.0</ele><time>2026-05-02T08:30:41.995Z</time></trkpt><trkpt lat="44.3078051" lon="4.6133165"><ele>89.0</ele><time>2026-05-02T08:30:42.994Z</time></trkpt><trkpt lat="44.3077203" lon="4.6133241"><ele>89.0</ele><time>2026-05-02T08:30:43.994Z</time></trkpt><trkpt lat="44.3076313" lon="4.6133533"><ele>89.0</ele><time>2026-05-02T08:30:44.994Z</time></trkpt><trkpt lat="44.3075355" lon="4.6133804"><ele>89.0</ele><time>2026-05-02T08:30:45.993Z</time></trkpt><trkpt lat="44.3074303" lon="4.6133851"><ele>89.0</ele><time>2026-05-02T08:30:46.994Z</time></trkpt><trkpt lat="44.3073167" lon="4.6133776"><ele>89.0</ele><time>2026-05-02T08:30:47.994Z</time></trkpt><trkpt lat="44.3071962" lon="4.6133664"><ele>89.0</ele><time>2026-05-02T08:30:48.995Z</time></trkpt><trkpt lat="44.307076" lon="4.6133545"><ele>89.0</ele><time>2026-05-02T08:30:49.994Z</time></trkpt><trkpt lat="44.3069556" lon="4.6133474"><ele>88.80000000000001</ele><time>2026-05-02T08:30:50.994Z</time></trkpt><trkpt lat="44.3068366" lon="4.6133395"><ele>88.60000000000001</ele><time>2026-05-02T08:30:51.995Z</time></trkpt><trkpt lat="44.3067245" lon="4.6133302"><ele>88.4</ele><time>2026-05-02T08:30:52.993Z</time></trkpt><trkpt lat="44.3066162" lon="4.6133192"><ele>88.2</ele><time>2026-05-02T08:30:53.994Z</time></trkpt><trkpt lat="44.3065131" lon="4.6133109"><ele>88.0</ele><time>2026-05-02T08:30:54.994Z</time></trkpt><trkpt lat="44.3064114" lon="4.6133037"><ele>88.2</ele><time>2026-05-02T08:30:55.994Z</time></trkpt><trkpt lat="44.3063119" lon="4.6132955"><ele>88.4</ele><time>2026-05-02T08:30:56.994Z</time></trkpt><trkpt lat="44.3062124" lon="4.6132874"><ele>88.60000000000001</ele><time>2026-05-02T08:30:57.994Z</time></trkpt><trkpt lat="44.3061114" lon="4.6132809"><ele>88.80000000000001</ele><time>2026-05-02T08:30:58.994Z</time></trkpt><trkpt lat="44.3060092" lon="4.613274"><ele>89.0</ele><time>2026-05-02T08:30:59.994Z</time></trkpt><trkpt lat="44.305911" lon="4.6132655"><ele>88.99999999999999</ele><time>2026-05-02T08:31:00.995Z</time></trkpt><trkpt lat="44.305819" lon="4.6132591"><ele>89.0</ele><time>2026-05-02T08:31:01.994Z</time></trkpt><trkpt lat="44.3057455" lon="4.6132528"><ele>89.0</ele><time>2026-05-02T08:31:02.994Z</time></trkpt><trkpt lat="44.3056812" lon="4.6132507"><ele>89.0</ele><time>2026-05-02T08:31:03.995Z</time></trkpt><trkpt lat="44.3056156" lon="4.6132453"><ele>89.0</ele><time>2026-05-02T08:31:04.994Z</time></trkpt><trkpt lat="44.3055487" lon="4.6132376"><ele>88.99999999999999</ele><time>2026-05-02T08:31:05.994Z</time></trkpt><trkpt lat="44.3054748" lon="4.6132263"><ele>89.0</ele><time>2026-05-02T08:31:06.994Z</time></trkpt><trkpt lat="44.3054001" lon="4.6132177"><ele>88.66666666666667</ele><time>2026-05-02T08:31:07.994Z</time></trkpt><trkpt lat="44.3053219" lon="4.6132113"><ele>88.33333333333334</ele><time>2026-05-02T08:31:08.994Z</time></trkpt><trkpt lat="44.3052379" lon="4.613205"><ele>88.0</ele><time>2026-05-02T08:31:09.994Z</time></trkpt><trkpt lat="44.3051682" lon="4.6131997"><ele>87.66666666666667</ele><time>2026-05-02T08:31:10.994Z</time></trkpt><trkpt lat="44.3050605" lon="4.6131864"><ele>87.33333333333333</ele><time>2026-05-02T08:31:12.995Z</time></trkpt><trkpt lat="44.3049628" lon="4.6131819"><ele>87.0</ele><time>2026-05-02T08:31:14.994Z</time></trkpt><trkpt lat="44.3048439" lon="4.6131771"><ele>87.0</ele><time>2026-05-02T08:31:16.994Z</time></trkpt><trkpt lat="44.3047619" lon="4.6131666"><ele>87.0</ele><time>2026-05-02T08:31:17.994Z</time></trkpt><trkpt lat="44.3046657" lon="4.6131534"><ele>87.0</ele><time>2026-05-02T08:31:18.995Z</time></trkpt><trkpt lat="44.3045712" lon="4.6131419"><ele>87.0</ele><time>2026-05-02T08:31:19.994Z</time></trkpt><trkpt lat="44.3044864" lon="4.6131324"><ele>87.0</ele><time>2026-05-02T08:31:20.995Z</time></trkpt><trkpt lat="44.3044045" lon="4.6131283"><ele>87.0</ele><time>2026-05-02T08:31:21.994Z</time></trkpt><trkpt lat="44.3043268" lon="4.6131305"><ele>86.85714285714286</ele><time>2026-05-02T08:31:22.994Z</time></trkpt><trkpt lat="44.304255" lon="4.6131398"><ele>86.71428571428572</ele><time>2026-05-02T08:31:23.994Z</time></trkpt><trkpt lat="44.304187" lon="4.6131541"><ele>86.57142857142858</ele><time>2026-05-02T08:31:24.994Z</time></trkpt><trkpt lat="44.3041204" lon="4.6131726"><ele>86.42857142857143</ele><time>2026-05-02T08:31:25.994Z</time></trkpt><trkpt lat="44.304057" lon="4.6131886"><ele>86.28571428571429</ele><time>2026-05-02T08:31:26.994Z</time></trkpt><trkpt lat="44.3039936" lon="4.613206"><ele>86.14285714285715</ele><time>2026-05-02T08:31:27.994Z</time></trkpt><trkpt lat="44.3039266" lon="4.6132294"><ele>86.0</ele><time>2026-05-02T08:31:28.994Z</time></trkpt><trkpt lat="44.3038182" lon="4.6132608"><ele>85.19999999999999</ele><time>2026-05-02T08:31:30.994Z</time></trkpt><trkpt lat="44.3037171" lon="4.6132946"><ele>84.39999999999999</ele><time>2026-05-02T08:31:32.994Z</time></trkpt><trkpt lat="44.3036154" lon="4.613335"><ele>83.6</ele><time>2026-05-02T08:31:34.994Z</time></trkpt><trkpt lat="44.303517" lon="4.6133625"><ele>82.8</ele><time>2026-05-02T08:31:36.994Z</time></trkpt><trkpt lat="44.3034235" lon="4.6133753"><ele>82.0</ele><time>2026-05-02T08:31:38.994Z</time></trkpt><trkpt lat="44.303323" lon="4.6133789"><ele>82.0</ele><time>2026-05-02T08:31:40.994Z</time></trkpt><trkpt lat="44.3032095" lon="4.613393"><ele>82.0</ele><time>2026-05-02T08:31:42.994Z</time></trkpt><trkpt lat="44.3030844" lon="4.6134005"><ele>82.0</ele><time>2026-05-02T08:31:44.994Z</time></trkpt><trkpt lat="44.3030182" lon="4.613403"><ele>82.0</ele><time>2026-05-02T08:31:45.994Z</time></trkpt><trkpt lat="44.3028959" lon="4.6134085"><ele>82.0</ele><time>2026-05-02T08:31:47.994Z</time></trkpt><trkpt lat="44.3028282" lon="4.6134101"><ele>80.8</ele><time>2026-05-02T08:31:48.994Z</time></trkpt><trkpt lat="44.3027528" lon="4.6134145"><ele>79.6</ele><time>2026-05-02T08:31:49.995Z</time></trkpt><trkpt lat="44.3026702" lon="4.6134168"><ele>78.39999999999999</ele><time>2026-05-02T08:31:50.994Z</time></trkpt><trkpt lat="44.3025804" lon="4.6134212"><ele>77.19999999999999</ele><time>2026-05-02T08:31:51.994Z</time></trkpt><trkpt lat="44.3024758" lon="4.6134268"><ele>76.0</ele><time>2026-05-02T08:31:52.994Z</time></trkpt><trkpt lat="44.3023664" lon="4.61343"><ele>76.0</ele><time>2026-05-02T08:31:53.994Z</time></trkpt><trkpt lat="44.3022573" lon="4.6134364"><ele>76.0</ele><time>2026-05-02T08:31:54.994Z</time></trkpt><trkpt lat="44.3021492" lon="4.6134417"><ele>76.0</ele><time>2026-05-02T08:31:55.995Z</time></trkpt><trkpt lat="44.3020425" lon="4.6134438"><ele>76.0</ele><time>2026-05-02T08:31:56.994Z</time></trkpt><trkpt lat="44.3019363" lon="4.6134445"><ele>76.0</ele><time>2026-05-02T08:31:57.993Z</time></trkpt><trkpt lat="44.3018315" lon="4.613444"><ele>75.0</ele><time>2026-05-02T08:31:58.995Z</time></trkpt><trkpt lat="44.3017334" lon="4.6134421"><ele>74.0</ele><time>2026-05-02T08:31:59.995Z</time></trkpt><trkpt lat="44.3016452" lon="4.6134282"><ele>73.0</ele><time>2026-05-02T08:32:00.995Z</time></trkpt><trkpt lat="44.3015669" lon="4.6133863"><ele>72.0</ele><time>2026-05-02T08:32:01.995Z</time></trkpt><trkpt lat="44.3015001" lon="4.613313"><ele>71.0</ele><time>2026-05-02T08:32:02.994Z</time></trkpt><trkpt lat="44.3014467" lon="4.6132213"><ele>70.0</ele><time>2026-05-02T08:32:03.995Z</time></trkpt><trkpt lat="44.3014081" lon="4.6131084"><ele>69.0</ele><time>2026-05-02T08:32:04.994Z</time></trkpt><trkpt lat="44.3013802" lon="4.6129781"><ele>68.0</ele><time>2026-05-02T08:32:05.994Z</time></trkpt><trkpt lat="44.3013606" lon="4.6128306"><ele>67.0</ele><time>2026-05-02T08:32:06.994Z</time></trkpt><trkpt lat="44.3013425" lon="4.6126707"><ele>66.0</ele><time>2026-05-02T08:32:07.994Z</time></trkpt><trkpt lat="44.3013274" lon="4.6124939"><ele>65.0</ele><time>2026-05-02T08:32:08.994Z</time></trkpt><trkpt lat="44.3013138" lon="4.6123064"><ele>65.0</ele><time>2026-05-02T08:32:09.994Z</time></trkpt><trkpt lat="44.3013023" lon="4.6121048"><ele>65.0</ele><time>2026-05-02T08:32:10.995Z</time></trkpt><trkpt lat="44.3012904" lon="4.6118975"><ele>65.0</ele><time>2026-05-02T08:32:11.994Z</time></trkpt><trkpt lat="44.3012806" lon="4.6116866"><ele>65.0</ele><time>2026-05-02T08:32:12.994Z</time></trkpt><trkpt lat="44.3012701" lon="4.6114729"><ele>64.33333333333334</ele><time>2026-05-02T08:32:13.995Z</time></trkpt><trkpt lat="44.3012573" lon="4.6112498"><ele>63.66666666666667</ele><time>2026-05-02T08:32:14.994Z</time></trkpt><trkpt lat="44.3012464" lon="4.6110137"><ele>63.0</ele><time>2026-05-02T08:32:15.994Z</time></trkpt><trkpt lat="44.3012348" lon="4.6107687"><ele>62.0</ele><time>2026-05-02T08:32:16.994Z</time></trkpt><trkpt lat="44.301224" lon="4.6105101"><ele>61.0</ele><time>2026-05-02T08:32:17.995Z</time></trkpt><trkpt lat="44.301213" lon="4.6102423"><ele>60.0</ele><time>2026-05-02T08:32:18.995Z</time></trkpt><trkpt lat="44.3012027" lon="4.6099641"><ele>60.0</ele><time>2026-05-02T08:32:19.994Z</time></trkpt><trkpt lat="44.3011944" lon="4.6096774"><ele>60.0</ele><time>2026-05-02T08:32:20.994Z</time></trkpt><trkpt lat="44.3011907" lon="4.6093849"><ele>60.0</ele><time>2026-05-02T08:32:21.994Z</time></trkpt><trkpt lat="44.3011926" lon="4.60909"><ele>59.66666666666667</ele><time>2026-05-02T08:32:22.994Z</time></trkpt><trkpt lat="44.3012017" lon="4.6088"><ele>59.333333333333336</ele><time>2026-05-02T08:32:23.993Z</time></trkpt><trkpt lat="44.3012162" lon="4.6085165"><ele>59.0</ele><time>2026-05-02T08:32:24.995Z</time></trkpt><trkpt lat="44.3012339" lon="4.6082399"><ele>58.66666666666667</ele><time>2026-05-02T08:32:25.995Z</time></trkpt><trkpt lat="44.3012519" lon="4.6079757"><ele>58.33333333333333</ele><time>2026-05-02T08:32:26.994Z</time></trkpt><trkpt lat="44.3012696" lon="4.6077068"><ele>58.0</ele><time>2026-05-02T08:32:27.994Z</time></trkpt><trkpt lat="44.3012891" lon="4.6074391"><ele>57.666666666666664</ele><time>2026-05-02T08:32:28.995Z</time></trkpt><trkpt lat="44.3013061" lon="4.6071686"><ele>57.33333333333333</ele><time>2026-05-02T08:32:29.994Z</time></trkpt><trkpt lat="44.3013238" lon="4.6068952"><ele>57.0</ele><time>2026-05-02T08:32:30.994Z</time></trkpt><trkpt lat="44.301342" lon="4.6066214"><ele>57.0</ele><time>2026-05-02T08:32:31.993Z</time></trkpt><trkpt lat="44.301358" lon="4.6063453"><ele>57.0</ele><time>2026-05-02T08:32:32.995Z</time></trkpt><trkpt lat="44.3013754" lon="4.6060655"><ele>57.0</ele><time>2026-05-02T08:32:33.994Z</time></trkpt><trkpt lat="44.3013937" lon="4.6057834"><ele>57.0</ele><time>2026-05-02T08:32:34.994Z</time></trkpt><trkpt lat="44.3014118" lon="4.605498"><ele>57.0</ele><time>2026-05-02T08:32:35.994Z</time></trkpt><trkpt lat="44.301429" lon="4.6052121"><ele>57.0</ele><time>2026-05-02T08:32:36.995Z</time></trkpt><trkpt lat="44.3014427" lon="4.6049278"><ele>57.33333333333333</ele><time>2026-05-02T08:32:37.994Z</time></trkpt><trkpt lat="44.3014565" lon="4.6046452"><ele>57.666666666666664</ele><time>2026-05-02T08:32:38.994Z</time></trkpt><trkpt lat="44.3014665" lon="4.6043628"><ele>58.0</ele><time>2026-05-02T08:32:39.993Z</time></trkpt><trkpt lat="44.3014706" lon="4.6040839"><ele>58.0</ele><time>2026-05-02T08:32:40.994Z</time></trkpt><trkpt lat="44.3014694" lon="4.6038028"><ele>58.0</ele><time>2026-05-02T08:32:41.995Z</time></trkpt><trkpt lat="44.3014627" lon="4.6035205"><ele>58.0</ele><time>2026-05-02T08:32:42.993Z</time></trkpt><trkpt lat="44.301453" lon="4.6032345"><ele>58.0</ele><time>2026-05-02T08:32:43.995Z</time></trkpt><trkpt lat="44.3014426" lon="4.6029459"><ele>58.0</ele><time>2026-05-02T08:32:44.994Z</time></trkpt><trkpt lat="44.3014314" lon="4.602655"><ele>58.0</ele><time>2026-05-02T08:32:45.994Z</time></trkpt><trkpt lat="44.3014211" lon="4.6023676"><ele>57.666666666666664</ele><time>2026-05-02T08:32:46.994Z</time></trkpt><trkpt lat="44.3014108" lon="4.6020917"><ele>57.33333333333333</ele><time>2026-05-02T08:32:47.994Z</time></trkpt><trkpt lat="44.3014023" lon="4.6018226"><ele>57.0</ele><time>2026-05-02T08:32:48.994Z</time></trkpt><trkpt lat="44.3013905" lon="4.601569"><ele>57.0</ele><time>2026-05-02T08:32:49.995Z</time></trkpt><trkpt lat="44.3013807" lon="4.6013189"><ele>57.0</ele><time>2026-05-02T08:32:50.994Z</time></trkpt><trkpt lat="44.3013741" lon="4.6010723"><ele>57.0</ele><time>2026-05-02T08:32:51.995Z</time></trkpt><trkpt lat="44.3013729" lon="4.6008273"><ele>57.66666666666667</ele><time>2026-05-02T08:32:52.994Z</time></trkpt><trkpt lat="44.3013803" lon="4.6005754"><ele>58.333333333333336</ele><time>2026-05-02T08:32:53.995Z</time></trkpt><trkpt lat="44.3013972" lon="4.6003156"><ele>59.0</ele><time>2026-05-02T08:32:54.995Z</time></trkpt><trkpt lat="44.3014292" lon="4.6000548"><ele>59.0</ele><time>2026-05-02T08:32:55.994Z</time></trkpt><trkpt lat="44.3014711" lon="4.5997858"><ele>59.0</ele><time>2026-05-02T08:32:56.994Z</time></trkpt><trkpt lat="44.3015207" lon="4.599519"><ele>59.0</ele><time>2026-05-02T08:32:57.995Z</time></trkpt><trkpt lat="44.301568" lon="4.5992507"><ele>59.0</ele><time>2026-05-02T08:32:58.995Z</time></trkpt><trkpt lat="44.301615" lon="4.5989822"><ele>59.0</ele><time>2026-05-02T08:32:59.994Z</time></trkpt><trkpt lat="44.3016553" lon="4.5987133"><ele>59.0</ele><time>2026-05-02T08:33:00.994Z</time></trkpt><trkpt lat="44.3016826" lon="4.5984428"><ele>58.0</ele><time>2026-05-02T08:33:01.994Z</time></trkpt><trkpt lat="44.3016982" lon="4.5981649"><ele>57.0</ele><time>2026-05-02T08:33:02.993Z</time></trkpt><trkpt lat="44.3017072" lon="4.5978818"><ele>56.0</ele><time>2026-05-02T08:33:03.994Z</time></trkpt><trkpt lat="44.3017142" lon="4.5975964"><ele>56.0</ele><time>2026-05-02T08:33:04.994Z</time></trkpt><trkpt lat="44.3017173" lon="4.5973036"><ele>56.0</ele><time>2026-05-02T08:33:05.994Z</time></trkpt><trkpt lat="44.3017179" lon="4.5970023"><ele>56.0</ele><time>2026-05-02T08:33:06.993Z</time></trkpt><trkpt lat="44.3017181" lon="4.5966964"><ele>57.0</ele><time>2026-05-02T08:33:07.994Z</time></trkpt><trkpt lat="44.3017185" lon="4.5963851"><ele>58.0</ele><time>2026-05-02T08:33:08.995Z</time></trkpt><trkpt lat="44.3017171" lon="4.5960676"><ele>58.0</ele><time>2026-05-02T08:33:09.994Z</time></trkpt><trkpt lat="44.3017165" lon="4.5957505"><ele>58.0</ele><time>2026-05-02T08:33:10.995Z</time></trkpt><trkpt lat="44.3017181" lon="4.5954274"><ele>57.0</ele><time>2026-05-02T08:33:11.994Z</time></trkpt><trkpt lat="44.3017196" lon="4.5950994"><ele>56.0</ele><time>2026-05-02T08:33:12.994Z</time></trkpt><trkpt lat="44.3017215" lon="4.594775"><ele>57.0</ele><time>2026-05-02T08:33:13.994Z</time></trkpt><trkpt lat="44.3017235" lon="4.5944518"><ele>58.0</ele><time>2026-05-02T08:33:14.994Z</time></trkpt><trkpt lat="44.3017251" lon="4.5941256"><ele>58.0</ele><time>2026-05-02T08:33:15.995Z</time></trkpt><trkpt lat="44.3017257" lon="4.5937924"><ele>58.0</ele><time>2026-05-02T08:33:16.993Z</time></trkpt><trkpt lat="44.3017299" lon="4.5934539"><ele>57.0</ele><time>2026-05-02T08:33:17.994Z</time></trkpt><trkpt lat="44.301733" lon="4.5931105"><ele>56.0</ele><time>2026-05-02T08:33:18.995Z</time></trkpt><trkpt lat="44.3017339" lon="4.5927636"><ele>55.5</ele><time>2026-05-02T08:33:19.995Z</time></trkpt><trkpt lat="44.3017305" lon="4.5924157"><ele>55.0</ele><time>2026-05-02T08:33:20.995Z</time></trkpt><trkpt lat="44.3017282" lon="4.5920677"><ele>54.0</ele><time>2026-05-02T08:33:21.995Z</time></trkpt><trkpt lat="44.3017352" lon="4.5917234"><ele>53.0</ele><time>2026-05-02T08:33:22.995Z</time></trkpt><trkpt lat="44.3017543" lon="4.5913865"><ele>53.0</ele><time>2026-05-02T08:33:23.994Z</time></trkpt><trkpt lat="44.3017845" lon="4.5910569"><ele>53.0</ele><time>2026-05-02T08:33:24.994Z</time></trkpt><trkpt lat="44.3018246" lon="4.5907346"><ele>53.0</ele><time>2026-05-02T08:33:25.993Z</time></trkpt><trkpt lat="44.301867" lon="4.5904164"><ele>53.0</ele><time>2026-05-02T08:33:26.994Z</time></trkpt><trkpt lat="44.3019071" lon="4.5901019"><ele>53.0</ele><time>2026-05-02T08:33:27.994Z</time></trkpt><trkpt lat="44.3019462" lon="4.589792"><ele>53.0</ele><time>2026-05-02T08:33:28.994Z</time></trkpt><trkpt lat="44.3019846" lon="4.5894878"><ele>53.0</ele><time>2026-05-02T08:33:29.994Z</time></trkpt><trkpt lat="44.302022" lon="4.589187"><ele>53.0</ele><time>2026-05-02T08:33:30.994Z</time></trkpt><trkpt lat="44.3020582" lon="4.5888879"><ele>53.0</ele><time>2026-05-02T08:33:31.994Z</time></trkpt><trkpt lat="44.3020959" lon="4.5885919"><ele>53.0</ele><time>2026-05-02T08:33:32.995Z</time></trkpt><trkpt lat="44.302134" lon="4.5882992"><ele>53.333333333333336</ele><time>2026-05-02T08:33:33.994Z</time></trkpt><trkpt lat="44.3021706" lon="4.5880119"><ele>53.66666666666667</ele><time>2026-05-02T08:33:34.994Z</time></trkpt><trkpt lat="44.3022068" lon="4.5877292"><ele>54.0</ele><time>2026-05-02T08:33:35.994Z</time></trkpt><trkpt lat="44.3022432" lon="4.5874502"><ele>55.0</ele><time>2026-05-02T08:33:36.994Z</time></trkpt><trkpt lat="44.3022798" lon="4.5871738"><ele>56.0</ele><time>2026-05-02T08:33:37.993Z</time></trkpt><trkpt lat="44.3023165" lon="4.5868997"><ele>57.0</ele><time>2026-05-02T08:33:38.994Z</time></trkpt><trkpt lat="44.3023522" lon="4.5866303"><ele>57.0</ele><time>2026-05-02T08:33:39.994Z</time></trkpt><trkpt lat="44.302385" lon="4.5863675"><ele>57.0</ele><time>2026-05-02T08:33:40.994Z</time></trkpt><trkpt lat="44.3024165" lon="4.5861073"><ele>57.0</ele><time>2026-05-02T08:33:41.994Z</time></trkpt><trkpt lat="44.3024447" lon="4.5858503"><ele>57.0</ele><time>2026-05-02T08:33:42.994Z</time></trkpt><trkpt lat="44.3024678" lon="4.5855962"><ele>57.0</ele><time>2026-05-02T08:33:43.994Z</time></trkpt><trkpt lat="44.3024822" lon="4.5853455"><ele>57.0</ele><time>2026-05-02T08:33:44.994Z</time></trkpt><trkpt lat="44.3024884" lon="4.5851033"><ele>57.0</ele><time>2026-05-02T08:33:45.995Z</time></trkpt><trkpt lat="44.3024895" lon="4.5848734"><ele>57.0</ele><time>2026-05-02T08:33:46.994Z</time></trkpt><trkpt lat="44.3024887" lon="4.5846496"><ele>57.0</ele><time>2026-05-02T08:33:47.993Z</time></trkpt><trkpt lat="44.3024872" lon="4.5844343"><ele>58.25</ele><time>2026-05-02T08:33:48.994Z</time></trkpt><trkpt lat="44.3024843" lon="4.5842264"><ele>59.5</ele><time>2026-05-02T08:33:49.994Z</time></trkpt><trkpt lat="44.3024799" lon="4.5840234"><ele>60.75</ele><time>2026-05-02T08:33:50.994Z</time></trkpt><trkpt lat="44.3024743" lon="4.583822"><ele>62.0</ele><time>2026-05-02T08:33:51.993Z</time></trkpt><trkpt lat="44.3024672" lon="4.5836206"><ele>62.25</ele><time>2026-05-02T08:33:52.995Z</time></trkpt><trkpt lat="44.302461" lon="4.5834214"><ele>62.5</ele><time>2026-05-02T08:33:53.994Z</time></trkpt><trkpt lat="44.302455" lon="4.5832219"><ele>62.75</ele><time>2026-05-02T08:33:54.994Z</time></trkpt><trkpt lat="44.3024474" lon="4.5830206"><ele>63.0</ele><time>2026-05-02T08:33:55.994Z</time></trkpt><trkpt lat="44.3024407" lon="4.5828171"><ele>63.0</ele><time>2026-05-02T08:33:56.994Z</time></trkpt><trkpt lat="44.3024319" lon="4.5826097"><ele>63.0</ele><time>2026-05-02T08:33:57.994Z</time></trkpt><trkpt lat="44.3024171" lon="4.582395"><ele>63.0</ele><time>2026-05-02T08:33:58.994Z</time></trkpt><trkpt lat="44.3023938" lon="4.5821746"><ele>63.0</ele><time>2026-05-02T08:33:59.994Z</time></trkpt><trkpt lat="44.3023603" lon="4.5819475"><ele>63.0</ele><time>2026-05-02T08:34:00.994Z</time></trkpt><trkpt lat="44.302316" lon="4.5817192"><ele>63.0</ele><time>2026-05-02T08:34:01.995Z</time></trkpt><trkpt lat="44.3022593" lon="4.5814881"><ele>62.0</ele><time>2026-05-02T08:34:02.995Z</time></trkpt><trkpt lat="44.3021963" lon="4.5812522"><ele>61.0</ele><time>2026-05-02T08:34:03.994Z</time></trkpt><trkpt lat="44.3021358" lon="4.5810177"><ele>60.0</ele><time>2026-05-02T08:34:04.993Z</time></trkpt><trkpt lat="44.302081" lon="4.580792"><ele>59.66666666666667</ele><time>2026-05-02T08:34:05.994Z</time></trkpt><trkpt lat="44.3020294" lon="4.580571"><ele>59.333333333333336</ele><time>2026-05-02T08:34:06.995Z</time></trkpt><trkpt lat="44.3019865" lon="4.5803596"><ele>59.0</ele><time>2026-05-02T08:34:07.995Z</time></trkpt><trkpt lat="44.3019508" lon="4.5801527"><ele>59.333333333333336</ele><time>2026-05-02T08:34:08.994Z</time></trkpt><trkpt lat="44.3019168" lon="4.5799383"><ele>59.66666666666667</ele><time>2026-05-02T08:34:09.993Z</time></trkpt><trkpt lat="44.3018851" lon="4.5797219"><ele>60.0</ele><time>2026-05-02T08:34:10.994Z</time></trkpt><trkpt lat="44.3018567" lon="4.5795097"><ele>60.0</ele><time>2026-05-02T08:34:11.994Z</time></trkpt><trkpt lat="44.3018283" lon="4.5793038"><ele>60.0</ele><time>2026-05-02T08:34:12.994Z</time></trkpt><trkpt lat="44.3018011" lon="4.5791036"><ele>60.0</ele><time>2026-05-02T08:34:13.995Z</time></trkpt><trkpt lat="44.3017758" lon="4.5789076"><ele>60.0</ele><time>2026-05-02T08:34:14.994Z</time></trkpt><trkpt lat="44.3017521" lon="4.5787118"><ele>60.0</ele><time>2026-05-02T08:34:15.994Z</time></trkpt><trkpt lat="44.3017277" lon="4.5785169"><ele>60.0</ele><time>2026-05-02T08:34:16.994Z</time></trkpt><trkpt lat="44.3017062" lon="4.5783148"><ele>60.0</ele><time>2026-05-02T08:34:17.994Z</time></trkpt><trkpt lat="44.3016949" lon="4.5781103"><ele>60.0</ele><time>2026-05-02T08:34:18.994Z</time></trkpt><trkpt lat="44.3016923" lon="4.5779083"><ele>59.0</ele><time>2026-05-02T08:34:19.994Z</time></trkpt><trkpt lat="44.3017033" lon="4.5777025"><ele>58.0</ele><time>2026-05-02T08:34:20.994Z</time></trkpt><trkpt lat="44.301737" lon="4.5774982"><ele>57.0</ele><time>2026-05-02T08:34:21.994Z</time></trkpt><trkpt lat="44.3017942" lon="4.5773001"><ele>57.0</ele><time>2026-05-02T08:34:22.994Z</time></trkpt><trkpt lat="44.3018695" lon="4.5771117"><ele>57.0</ele><time>2026-05-02T08:34:23.994Z</time></trkpt><trkpt lat="44.3019489" lon="4.5769179"><ele>57.0</ele><time>2026-05-02T08:34:24.995Z</time></trkpt><trkpt lat="44.3020253" lon="4.5767157"><ele>55.66666666666667</ele><time>2026-05-02T08:34:25.994Z</time></trkpt><trkpt lat="44.3020889" lon="4.576516"><ele>54.333333333333336</ele><time>2026-05-02T08:34:26.994Z</time></trkpt><trkpt lat="44.3021316" lon="4.5763093"><ele>53.0</ele><time>2026-05-02T08:34:27.995Z</time></trkpt><trkpt lat="44.3021443" lon="4.5760967"><ele>52.66666666666667</ele><time>2026-05-02T08:34:28.994Z</time></trkpt><trkpt lat="44.302121" lon="4.5758877"><ele>52.33333333333333</ele><time>2026-05-02T08:34:29.994Z</time></trkpt><trkpt lat="44.3020702" lon="4.5756748"><ele>52.0</ele><time>2026-05-02T08:34:30.994Z</time></trkpt><trkpt lat="44.3020117" lon="4.5754596"><ele>53.0</ele><time>2026-05-02T08:34:31.994Z</time></trkpt><trkpt lat="44.3019531" lon="4.5752481"><ele>54.0</ele><time>2026-05-02T08:34:32.993Z</time></trkpt><trkpt lat="44.301897" lon="4.5750445"><ele>55.0</ele><time>2026-05-02T08:34:33.995Z</time></trkpt><trkpt lat="44.3018435" lon="4.574849"><ele>55.0</ele><time>2026-05-02T08:34:34.994Z</time></trkpt><trkpt lat="44.3017906" lon="4.5746617"><ele>55.0</ele><time>2026-05-02T08:34:35.994Z</time></trkpt><trkpt lat="44.3017407" lon="4.5744785"><ele>55.0</ele><time>2026-05-02T08:34:36.994Z</time></trkpt><trkpt lat="44.3016924" lon="4.5743029"><ele>55.0</ele><time>2026-05-02T08:34:37.994Z</time></trkpt><trkpt lat="44.3016458" lon="4.5741304"><ele>55.75</ele><time>2026-05-02T08:34:38.994Z</time></trkpt><trkpt lat="44.3015979" lon="4.5739508"><ele>56.5</ele><time>2026-05-02T08:34:39.996Z</time></trkpt><trkpt lat="44.3015514" lon="4.5737786"><ele>57.25</ele><time>2026-05-02T08:34:40.995Z</time></trkpt><trkpt lat="44.3015078" lon="4.5736108"><ele>58.0</ele><time>2026-05-02T08:34:41.994Z</time></trkpt><trkpt lat="44.3014663" lon="4.5734477"><ele>57.75</ele><time>2026-05-02T08:34:42.994Z</time></trkpt><trkpt lat="44.3014272" lon="4.5732907"><ele>57.5</ele><time>2026-05-02T08:34:43.995Z</time></trkpt><trkpt lat="44.3013891" lon="4.573139"><ele>57.25</ele><time>2026-05-02T08:34:44.995Z</time></trkpt><trkpt lat="44.3013513" lon="4.5729893"><ele>57.0</ele><time>2026-05-02T08:34:45.994Z</time></trkpt><trkpt lat="44.3013154" lon="4.5728393"><ele>57.0</ele><time>2026-05-02T08:34:46.995Z</time></trkpt><trkpt lat="44.3012864" lon="4.5726897"><ele>57.0</ele><time>2026-05-02T08:34:47.994Z</time></trkpt><trkpt lat="44.3012698" lon="4.5725306"><ele>57.0</ele><time>2026-05-02T08:34:48.995Z</time></trkpt><trkpt lat="44.3012672" lon="4.5723604"><ele>57.0</ele><time>2026-05-02T08:34:49.995Z</time></trkpt><trkpt lat="44.3012801" lon="4.5721865"><ele>57.0</ele><time>2026-05-02T08:34:50.994Z</time></trkpt><trkpt lat="44.3013067" lon="4.572018"><ele>57.0</ele><time>2026-05-02T08:34:51.993Z</time></trkpt><trkpt lat="44.3013492" lon="4.5718597"><ele>57.0</ele><time>2026-05-02T08:34:52.994Z</time></trkpt><trkpt lat="44.3014076" lon="4.5717021"><ele>57.0</ele><time>2026-05-02T08:34:53.994Z</time></trkpt><trkpt lat="44.3014787" lon="4.5715467"><ele>58.25</ele><time>2026-05-02T08:34:54.995Z</time></trkpt><trkpt lat="44.3015606" lon="4.571391"><ele>59.5</ele><time>2026-05-02T08:34:55.994Z</time></trkpt><trkpt lat="44.3016459" lon="4.5712363"><ele>60.75</ele><time>2026-05-02T08:34:56.993Z</time></trkpt><trkpt lat="44.3017301" lon="4.5710877"><ele>62.0</ele><time>2026-05-02T08:34:57.995Z</time></trkpt><trkpt lat="44.3018089" lon="4.5709447"><ele>62.0</ele><time>2026-05-02T08:34:58.994Z</time></trkpt><trkpt lat="44.301889" lon="4.5708032"><ele>62.0</ele><time>2026-05-02T08:34:59.995Z</time></trkpt><trkpt lat="44.3019636" lon="4.5706664"><ele>62.0</ele><time>2026-05-02T08:35:00.993Z</time></trkpt><trkpt lat="44.3020413" lon="4.5705249"><ele>62.0</ele><time>2026-05-02T08:35:01.995Z</time></trkpt><trkpt lat="44.3021973" lon="4.5702452"><ele>62.75</ele><time>2026-05-02T08:35:03.994Z</time></trkpt><trkpt lat="44.3022769" lon="4.5701012"><ele>63.5</ele><time>2026-05-02T08:35:04.994Z</time></trkpt><trkpt lat="44.3023607" lon="4.5699568"><ele>64.25</ele><time>2026-05-02T08:35:05.994Z</time></trkpt><trkpt lat="44.302445" lon="4.5698066"><ele>65.0</ele><time>2026-05-02T08:35:06.994Z</time></trkpt><trkpt lat="44.302532" lon="4.5696491"><ele>64.25</ele><time>2026-05-02T08:35:07.995Z</time></trkpt><trkpt lat="44.3026188" lon="4.5694879"><ele>63.5</ele><time>2026-05-02T08:35:08.994Z</time></trkpt><trkpt lat="44.3027053" lon="4.5693271"><ele>62.75</ele><time>2026-05-02T08:35:09.994Z</time></trkpt><trkpt lat="44.3027932" lon="4.5691651"><ele>62.0</ele><time>2026-05-02T08:35:10.995Z</time></trkpt><trkpt lat="44.3028777" lon="4.5690082"><ele>62.0</ele><time>2026-05-02T08:35:11.994Z</time></trkpt><trkpt lat="44.3029629" lon="4.5688519"><ele>62.0</ele><time>2026-05-02T08:35:12.994Z</time></trkpt><trkpt lat="44.3030495" lon="4.5686976"><ele>62.0</ele><time>2026-05-02T08:35:13.994Z</time></trkpt><trkpt lat="44.3031395" lon="4.5685466"><ele>62.0</ele><time>2026-05-02T08:35:14.994Z</time></trkpt><trkpt lat="44.3032303" lon="4.5683905"><ele>62.0</ele><time>2026-05-02T08:35:15.994Z</time></trkpt><trkpt lat="44.3033206" lon="4.5682315"><ele>62.0</ele><time>2026-05-02T08:35:16.994Z</time></trkpt><trkpt lat="44.3034109" lon="4.5680687"><ele>62.0</ele><time>2026-05-02T08:35:17.994Z</time></trkpt><trkpt lat="44.3035036" lon="4.5679063"><ele>62.0</ele><time>2026-05-02T08:35:18.994Z</time></trkpt><trkpt lat="44.3035978" lon="4.5677414"><ele>62.0</ele><time>2026-05-02T08:35:19.994Z</time></trkpt><trkpt lat="44.3036921" lon="4.5675765"><ele>62.0</ele><time>2026-05-02T08:35:20.995Z</time></trkpt><trkpt lat="44.303788" lon="4.5674086"><ele>62.0</ele><time>2026-05-02T08:35:21.994Z</time></trkpt><trkpt lat="44.3038832" lon="4.5672403"><ele>63.333333333333336</ele><time>2026-05-02T08:35:22.994Z</time></trkpt><trkpt lat="44.3039833" lon="4.5670685"><ele>64.66666666666667</ele><time>2026-05-02T08:35:23.994Z</time></trkpt><trkpt lat="44.3040845" lon="4.5668897"><ele>66.0</ele><time>2026-05-02T08:35:24.995Z</time></trkpt><trkpt lat="44.3041892" lon="4.5667021"><ele>66.0</ele><time>2026-05-02T08:35:25.994Z</time></trkpt><trkpt lat="44.3042926" lon="4.5665096"><ele>66.0</ele><time>2026-05-02T08:35:26.995Z</time></trkpt><trkpt lat="44.3043898" lon="4.5663062"><ele>66.0</ele><time>2026-05-02T08:35:27.994Z</time></trkpt><trkpt lat="44.3044804" lon="4.5660923"><ele>64.33333333333333</ele><time>2026-05-02T08:35:28.995Z</time></trkpt><trkpt lat="44.3045603" lon="4.565861"><ele>62.666666666666664</ele><time>2026-05-02T08:35:29.994Z</time></trkpt><trkpt lat="44.304633" lon="4.5656206"><ele>61.0</ele><time>2026-05-02T08:35:30.994Z</time></trkpt><trkpt lat="44.3046966" lon="4.5653815"><ele>62.0</ele><time>2026-05-02T08:35:31.994Z</time></trkpt><trkpt lat="44.3047543" lon="4.5651452"><ele>63.0</ele><time>2026-05-02T08:35:32.994Z</time></trkpt><trkpt lat="44.3048078" lon="4.5649161"><ele>64.0</ele><time>2026-05-02T08:35:33.994Z</time></trkpt><trkpt lat="44.3048547" lon="4.5647062"><ele>63.5</ele><time>2026-05-02T08:35:34.994Z</time></trkpt><trkpt lat="44.3048957" lon="4.5645214"><ele>63.0</ele><time>2026-05-02T08:35:35.995Z</time></trkpt><trkpt lat="44.3049349" lon="4.5643428"><ele>62.5</ele><time>2026-05-02T08:35:36.994Z</time></trkpt><trkpt lat="44.3049744" lon="4.5641689"><ele>62.0</ele><time>2026-05-02T08:35:37.994Z</time></trkpt><trkpt lat="44.3050138" lon="4.5639988"><ele>62.0</ele><time>2026-05-02T08:35:38.994Z</time></trkpt><trkpt lat="44.305053" lon="4.563835"><ele>62.0</ele><time>2026-05-02T08:35:39.994Z</time></trkpt><trkpt lat="44.3050923" lon="4.563682"><ele>62.0</ele><time>2026-05-02T08:35:40.993Z</time></trkpt><trkpt lat="44.3051419" lon="4.5635367"><ele>62.0</ele><time>2026-05-02T08:35:41.994Z</time></trkpt><trkpt lat="44.3051975" lon="4.5633996"><ele>61.25</ele><time>2026-05-02T08:35:42.994Z</time></trkpt><trkpt lat="44.3052652" lon="4.5632716"><ele>60.5</ele><time>2026-05-02T08:35:43.994Z</time></trkpt><trkpt lat="44.3053437" lon="4.5631444"><ele>59.75</ele><time>2026-05-02T08:35:44.994Z</time></trkpt><trkpt lat="44.3054304" lon="4.5630154"><ele>59.0</ele><time>2026-05-02T08:35:45.995Z</time></trkpt><trkpt lat="44.3055266" lon="4.5628881"><ele>60.66666666666667</ele><time>2026-05-02T08:35:46.994Z</time></trkpt><trkpt lat="44.305636" lon="4.5627623"><ele>62.33333333333333</ele><time>2026-05-02T08:35:47.993Z</time></trkpt><trkpt lat="44.3057586" lon="4.5626397"><ele>64.0</ele><time>2026-05-02T08:35:48.994Z</time></trkpt><trkpt lat="44.3058892" lon="4.5625154"><ele>64.0</ele><time>2026-05-02T08:35:49.994Z</time></trkpt><trkpt lat="44.306024" lon="4.562388"><ele>64.0</ele><time>2026-05-02T08:35:50.993Z</time></trkpt><trkpt lat="44.3061618" lon="4.5622633"><ele>64.0</ele><time>2026-05-02T08:35:51.995Z</time></trkpt><trkpt lat="44.3063038" lon="4.5621302"><ele>64.66666666666666</ele><time>2026-05-02T08:35:52.994Z</time></trkpt><trkpt lat="44.3064507" lon="4.5619965"><ele>65.33333333333333</ele><time>2026-05-02T08:35:53.994Z</time></trkpt><trkpt lat="44.3065988" lon="4.5618582"><ele>66.0</ele><time>2026-05-02T08:35:54.994Z</time></trkpt><trkpt lat="44.306748" lon="4.561719"><ele>66.0</ele><time>2026-05-02T08:35:55.994Z</time></trkpt><trkpt lat="44.3068958" lon="4.5615765"><ele>66.0</ele><time>2026-05-02T08:35:56.994Z</time></trkpt><trkpt lat="44.3070424" lon="4.5614288"><ele>66.0</ele><time>2026-05-02T08:35:57.994Z</time></trkpt><trkpt lat="44.3071839" lon="4.5612751"><ele>67.33333333333333</ele><time>2026-05-02T08:35:58.994Z</time></trkpt><trkpt lat="44.3073164" lon="4.5611182"><ele>68.66666666666666</ele><time>2026-05-02T08:35:59.995Z</time></trkpt><trkpt lat="44.307437" lon="4.5609629"><ele>70.0</ele><time>2026-05-02T08:36:00.994Z</time></trkpt><trkpt lat="44.3075528" lon="4.5608085"><ele>70.0</ele><time>2026-05-02T08:36:01.995Z</time></trkpt><trkpt lat="44.3076653" lon="4.5606526"><ele>70.0</ele><time>2026-05-02T08:36:02.995Z</time></trkpt><trkpt lat="44.3077742" lon="4.5604924"><ele>70.0</ele><time>2026-05-02T08:36:03.995Z</time></trkpt><trkpt lat="44.3078802" lon="4.5603251"><ele>71.0</ele><time>2026-05-02T08:36:04.993Z</time></trkpt><trkpt lat="44.3079745" lon="4.5601482"><ele>72.0</ele><time>2026-05-02T08:36:05.994Z</time></trkpt><trkpt lat="44.3080529" lon="4.5599594"><ele>73.0</ele><time>2026-05-02T08:36:06.995Z</time></trkpt><trkpt lat="44.3081171" lon="4.5597564"><ele>73.0</ele><time>2026-05-02T08:36:07.995Z</time></trkpt><trkpt lat="44.3081663" lon="4.5595434"><ele>73.0</ele><time>2026-05-02T08:36:08.994Z</time></trkpt><trkpt lat="44.3082087" lon="4.5593338"><ele>73.0</ele><time>2026-05-02T08:36:09.994Z</time></trkpt><trkpt lat="44.3082483" lon="4.5591258"><ele>72.0</ele><time>2026-05-02T08:36:10.993Z</time></trkpt><trkpt lat="44.3082884" lon="4.5589249"><ele>71.0</ele><time>2026-05-02T08:36:11.994Z</time></trkpt><trkpt lat="44.3083359" lon="4.558736"><ele>70.0</ele><time>2026-05-02T08:36:12.995Z</time></trkpt><trkpt lat="44.3084144" lon="4.5585791"><ele>69.0</ele><time>2026-05-02T08:36:13.994Z</time></trkpt><trkpt lat="44.3085149" lon="4.5584628"><ele>69.0</ele><time>2026-05-02T08:36:14.994Z</time></trkpt><trkpt lat="44.3086281" lon="4.558386"><ele>69.0</ele><time>2026-05-02T08:36:15.994Z</time></trkpt><trkpt lat="44.3087512" lon="4.558318"><ele>69.0</ele><time>2026-05-02T08:36:16.994Z</time></trkpt><trkpt lat="44.3088829" lon="4.5582427"><ele>69.0</ele><time>2026-05-02T08:36:17.994Z</time></trkpt><trkpt lat="44.3090237" lon="4.5581618"><ele>69.0</ele><time>2026-05-02T08:36:18.994Z</time></trkpt><trkpt lat="44.3091734" lon="4.5580768"><ele>69.0</ele><time>2026-05-02T08:36:19.994Z</time></trkpt><trkpt lat="44.3093304" lon="4.5579884"><ele>69.0</ele><time>2026-05-02T08:36:20.994Z</time></trkpt><trkpt lat="44.3094916" lon="4.5578963"><ele>69.33333333333333</ele><time>2026-05-02T08:36:21.994Z</time></trkpt><trkpt lat="44.3096518" lon="4.5577995"><ele>69.66666666666666</ele><time>2026-05-02T08:36:22.995Z</time></trkpt><trkpt lat="44.3098039" lon="4.5576981"><ele>70.0</ele><time>2026-05-02T08:36:23.995Z</time></trkpt><trkpt lat="44.3099527" lon="4.5575889"><ele>70.0</ele><time>2026-05-02T08:36:24.994Z</time></trkpt><trkpt lat="44.3100983" lon="4.557473"><ele>70.0</ele><time>2026-05-02T08:36:25.994Z</time></trkpt><trkpt lat="44.3102294" lon="4.5573574"><ele>70.0</ele><time>2026-05-02T08:36:26.993Z</time></trkpt><trkpt lat="44.3103547" lon="4.5572529"><ele>70.0</ele><time>2026-05-02T08:36:27.994Z</time></trkpt><trkpt lat="44.3104783" lon="4.5571889"><ele>70.0</ele><time>2026-05-02T08:36:28.994Z</time></trkpt><trkpt lat="44.3106025" lon="4.5571758"><ele>70.0</ele><time>2026-05-02T08:36:29.994Z</time></trkpt><trkpt lat="44.3107292" lon="4.5572037"><ele>70.0</ele><time>2026-05-02T08:36:30.994Z</time></trkpt><trkpt lat="44.3108578" lon="4.5572524"><ele>72.0</ele><time>2026-05-02T08:36:31.994Z</time></trkpt><trkpt lat="44.3109916" lon="4.5572955"><ele>74.0</ele><time>2026-05-02T08:36:32.994Z</time></trkpt><trkpt lat="44.3111319" lon="4.5573291"><ele>76.0</ele><time>2026-05-02T08:36:33.994Z</time></trkpt><trkpt lat="44.3112718" lon="4.5573416"><ele>78.0</ele><time>2026-05-02T08:36:34.994Z</time></trkpt><trkpt lat="44.311409" lon="4.5573212"><ele>77.5</ele><time>2026-05-02T08:36:35.993Z</time></trkpt><trkpt lat="44.3115378" lon="4.557274"><ele>77.0</ele><time>2026-05-02T08:36:36.995Z</time></trkpt><trkpt lat="44.3116615" lon="4.5571885"><ele>76.5</ele><time>2026-05-02T08:36:37.995Z</time></trkpt><trkpt lat="44.3117804" lon="4.5570673"><ele>76.0</ele><time>2026-05-02T08:36:38.994Z</time></trkpt><trkpt lat="44.3119015" lon="4.5569193"><ele>76.0</ele><time>2026-05-02T08:36:39.994Z</time></trkpt><trkpt lat="44.3120331" lon="4.5567559"><ele>76.0</ele><time>2026-05-02T08:36:40.993Z</time></trkpt><trkpt lat="44.3121734" lon="4.55658"><ele>76.0</ele><time>2026-05-02T08:36:41.992Z</time></trkpt><trkpt lat="44.3123178" lon="4.5563964"><ele>76.33333333333333</ele><time>2026-05-02T08:36:42.993Z</time></trkpt><trkpt lat="44.3124598" lon="4.5562167"><ele>76.66666666666667</ele><time>2026-05-02T08:36:43.994Z</time></trkpt><trkpt lat="44.3125978" lon="4.5560529"><ele>77.0</ele><time>2026-05-02T08:36:44.993Z</time></trkpt><trkpt lat="44.3127443" lon="4.555922"><ele>77.0</ele><time>2026-05-02T08:36:45.992Z</time></trkpt><trkpt lat="44.3129029" lon="4.5558206"><ele>77.0</ele><time>2026-05-02T08:36:46.993Z</time></trkpt><trkpt lat="44.3130712" lon="4.5557279"><ele>77.0</ele><time>2026-05-02T08:36:47.993Z</time></trkpt><trkpt lat="44.3132433" lon="4.5556348"><ele>78.33333333333334</ele><time>2026-05-02T08:36:48.994Z</time></trkpt><trkpt lat="44.3134147" lon="4.5555301"><ele>79.66666666666667</ele><time>2026-05-02T08:36:49.993Z</time></trkpt><trkpt lat="44.3135871" lon="4.5554151"><ele>81.0</ele><time>2026-05-02T08:36:50.993Z</time></trkpt><trkpt lat="44.3137623" lon="4.5552914"><ele>84.66666666666667</ele><time>2026-05-02T08:36:51.993Z</time></trkpt><trkpt lat="44.3139383" lon="4.5551614"><ele>88.33333333333334</ele><time>2026-05-02T08:36:52.993Z</time></trkpt><trkpt lat="44.3141176" lon="4.5550276"><ele>92.0</ele><time>2026-05-02T08:36:53.993Z</time></trkpt><trkpt lat="44.314297" lon="4.5548944"><ele>92.0</ele><time>2026-05-02T08:36:54.993Z</time></trkpt><trkpt lat="44.3144741" lon="4.5547597"><ele>92.0</ele><time>2026-05-02T08:36:55.993Z</time></trkpt><trkpt lat="44.314643" lon="4.5546314"><ele>92.0</ele><time>2026-05-02T08:36:56.993Z</time></trkpt><trkpt lat="44.3148012" lon="4.5545122"><ele>94.66666666666667</ele><time>2026-05-02T08:36:57.993Z</time></trkpt><trkpt lat="44.3149549" lon="4.5543938"><ele>97.33333333333334</ele><time>2026-05-02T08:36:58.994Z</time></trkpt><trkpt lat="44.3151072" lon="4.5542771"><ele>100.0</ele><time>2026-05-02T08:36:59.993Z</time></trkpt><trkpt lat="44.3152474" lon="4.5541681"><ele>100.0</ele><time>2026-05-02T08:37:00.993Z</time></trkpt><trkpt lat="44.3153786" lon="4.5540651"><ele>100.0</ele><time>2026-05-02T08:37:01.993Z</time></trkpt><trkpt lat="44.3155022" lon="4.5539684"><ele>100.0</ele><time>2026-05-02T08:37:02.993Z</time></trkpt><trkpt lat="44.3156208" lon="4.5538784"><ele>100.0</ele><time>2026-05-02T08:37:03.993Z</time></trkpt><trkpt lat="44.3157398" lon="4.5538004"><ele>104.5</ele><time>2026-05-02T08:37:04.994Z</time></trkpt><trkpt lat="44.3158576" lon="4.5537499"><ele>109.0</ele><time>2026-05-02T08:37:05.993Z</time></trkpt><trkpt lat="44.3159834" lon="4.5537349"><ele>113.5</ele><time>2026-05-02T08:37:06.993Z</time></trkpt><trkpt lat="44.3161122" lon="4.5537594"><ele>118.0</ele><time>2026-05-02T08:37:07.992Z</time></trkpt><trkpt lat="44.3162349" lon="4.5537884"><ele>118.0</ele><time>2026-05-02T08:37:08.993Z</time></trkpt><trkpt lat="44.3163475" lon="4.5537629"><ele>118.00000000000001</ele><time>2026-05-02T08:37:09.994Z</time></trkpt><trkpt lat="44.3164434" lon="4.5536895"><ele>118.00000000000001</ele><time>2026-05-02T08:37:10.993Z</time></trkpt><trkpt lat="44.3165129" lon="4.553568"><ele>118.0</ele><time>2026-05-02T08:37:11.992Z</time></trkpt><trkpt lat="44.3165385" lon="4.5534242"><ele>118.0</ele><time>2026-05-02T08:37:12.994Z</time></trkpt><trkpt lat="44.3165317" lon="4.553265"><ele>118.0</ele><time>2026-05-02T08:37:13.992Z</time></trkpt><trkpt lat="44.3165205" lon="4.5530942"><ele>118.0</ele><time>2026-05-02T08:37:14.994Z</time></trkpt><trkpt lat="44.3165256" lon="4.55291"><ele>118.0</ele><time>2026-05-02T08:37:15.993Z</time></trkpt><trkpt lat="44.3165485" lon="4.5527159"><ele>118.0</ele><time>2026-05-02T08:37:16.993Z</time></trkpt><trkpt lat="44.3165964" lon="4.552524"><ele>117.0</ele><time>2026-05-02T08:37:17.993Z</time></trkpt><trkpt lat="44.3166696" lon="4.5523405"><ele>116.0</ele><time>2026-05-02T08:37:18.993Z</time></trkpt><trkpt lat="44.3167704" lon="4.5521776"><ele>115.0</ele><time>2026-05-02T08:37:19.993Z</time></trkpt><trkpt lat="44.3168816" lon="4.5520277"><ele>111.66666666666667</ele><time>2026-05-02T08:37:20.993Z</time></trkpt><trkpt lat="44.316994" lon="4.5518803"><ele>108.33333333333334</ele><time>2026-05-02T08:37:21.992Z</time></trkpt><trkpt lat="44.3170997" lon="4.5517274"><ele>105.0</ele><time>2026-05-02T08:37:22.993Z</time></trkpt><trkpt lat="44.3171861" lon="4.5515653"><ele>108.5</ele><time>2026-05-02T08:37:23.993Z</time></trkpt><trkpt lat="44.317252" lon="4.5513826"><ele>112.0</ele><time>2026-05-02T08:37:24.993Z</time></trkpt><trkpt lat="44.3172971" lon="4.551187"><ele>115.5</ele><time>2026-05-02T08:37:25.993Z</time></trkpt><trkpt lat="44.3173456" lon="4.5509963"><ele>119.0</ele><time>2026-05-02T08:37:26.994Z</time></trkpt><trkpt lat="44.317418" lon="4.5508323"><ele>119.0</ele><time>2026-05-02T08:37:27.993Z</time></trkpt><trkpt lat="44.3174985" lon="4.5506838"><ele>119.0</ele><time>2026-05-02T08:37:28.993Z</time></trkpt><trkpt lat="44.3175788" lon="4.5505446"><ele>119.0</ele><time>2026-05-02T08:37:29.993Z</time></trkpt><trkpt lat="44.3176623" lon="4.5504189"><ele>119.0</ele><time>2026-05-02T08:37:30.993Z</time></trkpt><trkpt lat="44.317754" lon="4.5503077"><ele>121.0</ele><time>2026-05-02T08:37:31.993Z</time></trkpt><trkpt lat="44.3178554" lon="4.5502223"><ele>123.0</ele><time>2026-05-02T08:37:32.993Z</time></trkpt><trkpt lat="44.3179633" lon="4.5501648"><ele>125.0</ele><time>2026-05-02T08:37:33.993Z</time></trkpt><trkpt lat="44.3180778" lon="4.5501432"><ele>127.0</ele><time>2026-05-02T08:37:34.992Z</time></trkpt><trkpt lat="44.3181897" lon="4.5500983"><ele>127.0</ele><time>2026-05-02T08:37:35.993Z</time></trkpt><trkpt lat="44.3182958" lon="4.5500064"><ele>127.0</ele><time>2026-05-02T08:37:36.993Z</time></trkpt><trkpt lat="44.3183838" lon="4.5498748"><ele>127.0</ele><time>2026-05-02T08:37:37.994Z</time></trkpt><trkpt lat="44.3184548" lon="4.549733"><ele>127.0</ele><time>2026-05-02T08:37:38.994Z</time></trkpt><trkpt lat="44.3185215" lon="4.5495933"><ele>122.5</ele><time>2026-05-02T08:37:39.993Z</time></trkpt><trkpt lat="44.3185895" lon="4.5494629"><ele>118.0</ele><time>2026-05-02T08:37:40.994Z</time></trkpt><trkpt lat="44.318666" lon="4.5493471"><ele>113.5</ele><time>2026-05-02T08:37:41.993Z</time></trkpt><trkpt lat="44.3187599" lon="4.5492591"><ele>109.0</ele><time>2026-05-02T08:37:42.993Z</time></trkpt><trkpt lat="44.3188678" lon="4.5492029"><ele>113.4</ele><time>2026-05-02T08:37:43.993Z</time></trkpt><trkpt lat="44.318976" lon="4.5491734"><ele>117.80000000000001</ele><time>2026-05-02T08:37:44.993Z</time></trkpt><trkpt lat="44.3190824" lon="4.5491508"><ele>122.19999999999999</ele><time>2026-05-02T08:37:45.994Z</time></trkpt><trkpt lat="44.3191857" lon="4.5491226"><ele>126.6</ele><time>2026-05-02T08:37:46.993Z</time></trkpt><trkpt lat="44.3192817" lon="4.5490761"><ele>131.0</ele><time>2026-05-02T08:37:47.993Z</time></trkpt><trkpt lat="44.3193651" lon="4.5489963"><ele>131.0</ele><time>2026-05-02T08:37:48.993Z</time></trkpt><trkpt lat="44.3194201" lon="4.5488826"><ele>131.0</ele><time>2026-05-02T08:37:49.993Z</time></trkpt><trkpt lat="44.3194425" lon="4.5487487"><ele>131.0</ele><time>2026-05-02T08:37:50.994Z</time></trkpt><trkpt lat="44.3194334" lon="4.5486161"><ele>131.0</ele><time>2026-05-02T08:37:51.994Z</time></trkpt><trkpt lat="44.31941" lon="4.5484882"><ele>131.0</ele><time>2026-05-02T08:37:52.993Z</time></trkpt><trkpt lat="44.3193918" lon="4.5483665"><ele>128.0</ele><time>2026-05-02T08:37:53.993Z</time></trkpt><trkpt lat="44.3194079" lon="4.5482521"><ele>125.0</ele><time>2026-05-02T08:37:54.994Z</time></trkpt><trkpt lat="44.3194506" lon="4.5481509"><ele>122.0</ele><time>2026-05-02T08:37:55.993Z</time></trkpt><trkpt lat="44.3195091" lon="4.5480619"><ele>119.0</ele><time>2026-05-02T08:37:56.993Z</time></trkpt><trkpt lat="44.3195827" lon="4.5479786"><ele>116.0</ele><time>2026-05-02T08:37:57.993Z</time></trkpt><trkpt lat="44.3196692" lon="4.547897"><ele>116.75</ele><time>2026-05-02T08:37:58.993Z</time></trkpt><trkpt lat="44.319765" lon="4.5478291"><ele>117.5</ele><time>2026-05-02T08:37:59.994Z</time></trkpt><trkpt lat="44.3198702" lon="4.5477764"><ele>118.25</ele><time>2026-05-02T08:38:00.993Z</time></trkpt><trkpt lat="44.3199866" lon="4.5477273"><ele>119.0</ele><time>2026-05-02T08:38:01.993Z</time></trkpt><trkpt lat="44.3201104" lon="4.5476778"><ele>119.0</ele><time>2026-05-02T08:38:02.993Z</time></trkpt><trkpt lat="44.3202415" lon="4.5476356"><ele>119.0</ele><time>2026-05-02T08:38:03.993Z</time></trkpt><trkpt lat="44.320375" lon="4.5476042"><ele>119.0</ele><time>2026-05-02T08:38:04.993Z</time></trkpt><trkpt lat="44.32051" lon="4.5475904"><ele>119.0</ele><time>2026-05-02T08:38:05.993Z</time></trkpt><trkpt lat="44.3206446" lon="4.5475952"><ele>119.5</ele><time>2026-05-02T08:38:06.993Z</time></trkpt><trkpt lat="44.3207785" lon="4.5476175"><ele>120.0</ele><time>2026-05-02T08:38:07.993Z</time></trkpt><trkpt lat="44.3209085" lon="4.5476484"><ele>120.5</ele><time>2026-05-02T08:38:08.994Z</time></trkpt><trkpt lat="44.3210337" lon="4.5476783"><ele>121.0</ele><time>2026-05-02T08:38:09.993Z</time></trkpt><trkpt lat="44.3211531" lon="4.547705"><ele>121.0</ele><time>2026-05-02T08:38:10.993Z</time></trkpt><trkpt lat="44.3212684" lon="4.5477343"><ele>121.0</ele><time>2026-05-02T08:38:11.992Z</time></trkpt><trkpt lat="44.3213788" lon="4.5477656"><ele>121.0</ele><time>2026-05-02T08:38:12.993Z</time></trkpt><trkpt lat="44.3214895" lon="4.5477992"><ele>121.0</ele><time>2026-05-02T08:38:13.993Z</time></trkpt><trkpt lat="44.3216058" lon="4.5478351"><ele>119.6</ele><time>2026-05-02T08:38:14.992Z</time></trkpt><trkpt lat="44.32172" lon="4.5478717"><ele>118.19999999999999</ele><time>2026-05-02T08:38:15.993Z</time></trkpt><trkpt lat="44.3218277" lon="4.5479042"><ele>116.80000000000001</ele><time>2026-05-02T08:38:16.993Z</time></trkpt><trkpt lat="44.3219244" lon="4.5479326"><ele>115.4</ele><time>2026-05-02T08:38:17.993Z</time></trkpt><trkpt lat="44.3220067" lon="4.5479628"><ele>114.0</ele><time>2026-05-02T08:38:18.993Z</time></trkpt><trkpt lat="44.3220775" lon="4.5480039"><ele>118.16666666666667</ele><time>2026-05-02T08:38:19.994Z</time></trkpt><trkpt lat="44.3221338" lon="4.5480595"><ele>122.33333333333334</ele><time>2026-05-02T08:38:20.994Z</time></trkpt><trkpt lat="44.3221776" lon="4.5481396"><ele>126.5</ele><time>2026-05-02T08:38:21.994Z</time></trkpt><trkpt lat="44.3222015" lon="4.5482424"><ele>130.66666666666669</ele><time>2026-05-02T08:38:22.993Z</time></trkpt><trkpt lat="44.3222026" lon="4.5483639"><ele>134.83333333333334</ele><time>2026-05-02T08:38:23.992Z</time></trkpt><trkpt lat="44.3221885" lon="4.5485016"><ele>139.0</ele><time>2026-05-02T08:38:24.993Z</time></trkpt><trkpt lat="44.3221748" lon="4.5486558"><ele>141.5</ele><time>2026-05-02T08:38:25.993Z</time></trkpt><trkpt lat="44.3221751" lon="4.5488286"><ele>144.0</ele><time>2026-05-02T08:38:26.993Z</time></trkpt><trkpt lat="44.3222017" lon="4.5490069"><ele>146.5</ele><time>2026-05-02T08:38:27.993Z</time></trkpt><trkpt lat="44.3222455" lon="4.5491721"><ele>149.0</ele><time>2026-05-02T08:38:28.993Z</time></trkpt><trkpt lat="44.3222905" lon="4.5493181"><ele>143.8</ele><time>2026-05-02T08:38:29.993Z</time></trkpt><trkpt lat="44.3223294" lon="4.5494464"><ele>138.60000000000002</ele><time>2026-05-02T08:38:30.993Z</time></trkpt><trkpt lat="44.3223634" lon="4.549565"><ele>133.4</ele><time>2026-05-02T08:38:31.993Z</time></trkpt><trkpt lat="44.3223915" lon="4.5496777"><ele>128.20000000000002</ele><time>2026-05-02T08:38:32.992Z</time></trkpt><trkpt lat="44.3224189" lon="4.5497939"><ele>123.0</ele><time>2026-05-02T08:38:33.993Z</time></trkpt><trkpt lat="44.3224405" lon="4.549918"><ele>123.0</ele><time>2026-05-02T08:38:34.993Z</time></trkpt><trkpt lat="44.3224488" lon="4.5500349"><ele>123.0</ele><time>2026-05-02T08:38:35.993Z</time></trkpt><trkpt lat="44.3224313" lon="4.5501501"><ele>123.0</ele><time>2026-05-02T08:38:36.993Z</time></trkpt><trkpt lat="44.3223884" lon="4.5502504"><ele>123.0</ele><time>2026-05-02T08:38:37.994Z</time></trkpt><trkpt lat="44.322322" lon="4.5503271"><ele>123.0</ele><time>2026-05-02T08:38:38.993Z</time></trkpt><trkpt lat="44.3222437" lon="4.5503861"><ele>123.0</ele><time>2026-05-02T08:38:39.993Z</time></trkpt><trkpt lat="44.3221571" lon="4.5504265"><ele>125.0</ele><time>2026-05-02T08:38:40.993Z</time></trkpt><trkpt lat="44.322063" lon="4.550466"><ele>127.00000000000001</ele><time>2026-05-02T08:38:41.993Z</time></trkpt><trkpt lat="44.3219665" lon="4.5505103"><ele>129.0</ele><time>2026-05-02T08:38:42.994Z</time></trkpt><trkpt lat="44.3218726" lon="4.5505568"><ele>131.0</ele><time>2026-05-02T08:38:43.994Z</time></trkpt><trkpt lat="44.3217871" lon="4.5506083"><ele>133.0</ele><time>2026-05-02T08:38:44.993Z</time></trkpt><trkpt lat="44.3217158" lon="4.5506762"><ele>133.0</ele><time>2026-05-02T08:38:45.993Z</time></trkpt><trkpt lat="44.3216692" lon="4.5507668"><ele>133.0</ele><time>2026-05-02T08:38:46.994Z</time></trkpt><trkpt lat="44.3216543" lon="4.550874"><ele>133.0</ele><time>2026-05-02T08:38:47.993Z</time></trkpt><trkpt lat="44.3216756" lon="4.5509889"><ele>133.0</ele><time>2026-05-02T08:38:48.993Z</time></trkpt><trkpt lat="44.3217353" lon="4.5511049"><ele>133.0</ele><time>2026-05-02T08:38:49.993Z</time></trkpt><trkpt lat="44.321843" lon="4.5512386"><ele>133.25</ele><time>2026-05-02T08:38:50.993Z</time></trkpt><trkpt lat="44.3219728" lon="4.5513965"><ele>133.5</ele><time>2026-05-02T08:38:51.993Z</time></trkpt><trkpt lat="44.3220537" lon="4.5515559"><ele>133.75</ele><time>2026-05-02T08:38:52.993Z</time></trkpt><trkpt lat="44.3220906" lon="4.5517102"><ele>134.0</ele><time>2026-05-02T08:38:53.994Z</time></trkpt><trkpt lat="44.3220847" lon="4.5518565"><ele>134.0</ele><time>2026-05-02T08:38:54.994Z</time></trkpt><trkpt lat="44.3220336" lon="4.5519987"><ele>134.0</ele><time>2026-05-02T08:38:55.993Z</time></trkpt><trkpt lat="44.3219499" lon="4.5521452"><ele>134.0</ele><time>2026-05-02T08:38:56.994Z</time></trkpt><trkpt lat="44.3218461" lon="4.5522952"><ele>134.0</ele><time>2026-05-02T08:38:57.993Z</time></trkpt><trkpt lat="44.3217277" lon="4.5524592"><ele>132.33333333333331</ele><time>2026-05-02T08:38:58.993Z</time></trkpt><trkpt lat="44.3216048" lon="4.5526404"><ele>130.66666666666666</ele><time>2026-05-02T08:38:59.993Z</time></trkpt><trkpt lat="44.3214807" lon="4.55283"><ele>129.0</ele><time>2026-05-02T08:39:00.994Z</time></trkpt><trkpt lat="44.3213495" lon="4.5530093"><ele>129.0</ele><time>2026-05-02T08:39:01.993Z</time></trkpt><trkpt lat="44.3212073" lon="4.5531727"><ele>129.0</ele><time>2026-05-02T08:39:02.992Z</time></trkpt><trkpt lat="44.3210555" lon="4.5532968"><ele>129.0</ele><time>2026-05-02T08:39:03.993Z</time></trkpt><trkpt lat="44.3209117" lon="4.5533901"><ele>129.0</ele><time>2026-05-02T08:39:04.993Z</time></trkpt><trkpt lat="44.3207983" lon="4.5534737"><ele>129.0</ele><time>2026-05-02T08:39:05.994Z</time></trkpt><trkpt lat="44.3207194" lon="4.553594"><ele>129.0</ele><time>2026-05-02T08:39:06.994Z</time></trkpt><trkpt lat="44.3206733" lon="4.5537349"><ele>129.0</ele><time>2026-05-02T08:39:07.993Z</time></trkpt><trkpt lat="44.3206934" lon="4.5538673"><ele>128.25</ele><time>2026-05-02T08:39:08.994Z</time></trkpt><trkpt lat="44.3207469" lon="4.5539728"><ele>127.5</ele><time>2026-05-02T08:39:09.993Z</time></trkpt><trkpt lat="44.3208377" lon="4.5540532"><ele>126.75</ele><time>2026-05-02T08:39:10.992Z</time></trkpt><trkpt lat="44.3209609" lon="4.5541354"><ele>126.0</ele><time>2026-05-02T08:39:11.993Z</time></trkpt><trkpt lat="44.321087" lon="4.5542541"><ele>126.0</ele><time>2026-05-02T08:39:12.993Z</time></trkpt><trkpt lat="44.321193" lon="4.5544146"><ele>126.0</ele><time>2026-05-02T08:39:13.993Z</time></trkpt><trkpt lat="44.3212744" lon="4.5546097"><ele>126.0</ele><time>2026-05-02T08:39:14.993Z</time></trkpt><trkpt lat="44.3213325" lon="4.5548406"><ele>130.0</ele><time>2026-05-02T08:39:15.993Z</time></trkpt><trkpt lat="44.3213726" lon="4.5551"><ele>134.0</ele><time>2026-05-02T08:39:16.993Z</time></trkpt><trkpt lat="44.3214135" lon="4.55537"><ele>138.0</ele><time>2026-05-02T08:39:17.994Z</time></trkpt><trkpt lat="44.3214771" lon="4.5556396"><ele>128.66666666666666</ele><time>2026-05-02T08:39:18.993Z</time></trkpt><trkpt lat="44.3215673" lon="4.555918"><ele>119.33333333333333</ele><time>2026-05-02T08:39:19.993Z</time></trkpt><trkpt lat="44.3216666" lon="4.5561872"><ele>110.0</ele><time>2026-05-02T08:39:20.994Z</time></trkpt><trkpt lat="44.3217596" lon="4.5564319"><ele>110.0</ele><time>2026-05-02T08:39:21.993Z</time></trkpt><trkpt lat="44.3218294" lon="4.5566512"><ele>110.0</ele><time>2026-05-02T08:39:22.993Z</time></trkpt><trkpt lat="44.3218717" lon="4.5568722"><ele>110.0</ele><time>2026-05-02T08:39:23.992Z</time></trkpt><trkpt lat="44.3218801" lon="4.5570967"><ele>108.25</ele><time>2026-05-02T08:39:24.994Z</time></trkpt><trkpt lat="44.3218718" lon="4.5573124"><ele>106.5</ele><time>2026-05-02T08:39:25.993Z</time></trkpt><trkpt lat="44.3219038" lon="4.5575064"><ele>104.75</ele><time>2026-05-02T08:39:26.994Z</time></trkpt><trkpt lat="44.3219757" lon="4.5576617"><ele>103.0</ele><time>2026-05-02T08:39:27.993Z</time></trkpt><trkpt lat="44.3220733" lon="4.5577659"><ele>103.0</ele><time>2026-05-02T08:39:28.993Z</time></trkpt><trkpt lat="44.322185" lon="4.5578198"><ele>103.0</ele><time>2026-05-02T08:39:29.993Z</time></trkpt><trkpt lat="44.3223015" lon="4.5578242"><ele>103.0</ele><time>2026-05-02T08:39:30.994Z</time></trkpt><trkpt lat="44.3224108" lon="4.5577779"><ele>103.0</ele><time>2026-05-02T08:39:31.993Z</time></trkpt><trkpt lat="44.3225019" lon="4.5576873"><ele>102.75</ele><time>2026-05-02T08:39:32.993Z</time></trkpt><trkpt lat="44.3225721" lon="4.5575564"><ele>102.5</ele><time>2026-05-02T08:39:33.994Z</time></trkpt><trkpt lat="44.3226124" lon="4.5573956"><ele>102.25</ele><time>2026-05-02T08:39:34.993Z</time></trkpt><trkpt lat="44.3226232" lon="4.5572114"><ele>102.0</ele><time>2026-05-02T08:39:35.993Z</time></trkpt><trkpt lat="44.322619" lon="4.5570075"><ele>101.0</ele><time>2026-05-02T08:39:36.993Z</time></trkpt><trkpt lat="44.3226046" lon="4.556786"><ele>100.0</ele><time>2026-05-02T08:39:37.993Z</time></trkpt><trkpt lat="44.3225793" lon="4.5565461"><ele>99.0</ele><time>2026-05-02T08:39:38.992Z</time></trkpt><trkpt lat="44.3225487" lon="4.5562982"><ele>101.66666666666666</ele><time>2026-05-02T08:39:39.993Z</time></trkpt><trkpt lat="44.3225182" lon="4.5560403"><ele>104.33333333333333</ele><time>2026-05-02T08:39:40.993Z</time></trkpt><trkpt lat="44.3224993" lon="4.555778"><ele>107.0</ele><time>2026-05-02T08:39:41.993Z</time></trkpt><trkpt lat="44.3224849" lon="4.5555137"><ele>107.33333333333333</ele><time>2026-05-02T08:39:42.993Z</time></trkpt><trkpt lat="44.3224721" lon="4.5552563"><ele>107.66666666666666</ele><time>2026-05-02T08:39:43.992Z</time></trkpt><trkpt lat="44.3224553" lon="4.5550189"><ele>108.0</ele><time>2026-05-02T08:39:44.993Z</time></trkpt><trkpt lat="44.3224513" lon="4.5547953"><ele>108.0</ele><time>2026-05-02T08:39:45.993Z</time></trkpt><trkpt lat="44.3224734" lon="4.5545892"><ele>108.0</ele><time>2026-05-02T08:39:46.993Z</time></trkpt><trkpt lat="44.3225297" lon="4.5544101"><ele>108.0</ele><time>2026-05-02T08:39:47.993Z</time></trkpt><trkpt lat="44.3226184" lon="4.5542538"><ele>108.0</ele><time>2026-05-02T08:39:48.994Z</time></trkpt><trkpt lat="44.3227426" lon="4.5541329"><ele>106.66666666666666</ele><time>2026-05-02T08:39:49.993Z</time></trkpt><trkpt lat="44.3228843" lon="4.554019"><ele>105.33333333333333</ele><time>2026-05-02T08:39:50.992Z</time></trkpt><trkpt lat="44.3230304" lon="4.5538934"><ele>104.0</ele><time>2026-05-02T08:39:51.993Z</time></trkpt><trkpt lat="44.3231867" lon="4.5537597"><ele>106.66666666666666</ele><time>2026-05-02T08:39:52.993Z</time></trkpt><trkpt lat="44.3233542" lon="4.553625"><ele>109.33333333333334</ele><time>2026-05-02T08:39:53.993Z</time></trkpt><trkpt lat="44.323521" lon="4.5534727"><ele>112.0</ele><time>2026-05-02T08:39:54.994Z</time></trkpt><trkpt lat="44.3236684" lon="4.5532825"><ele>112.0</ele><time>2026-05-02T08:39:55.994Z</time></trkpt><trkpt lat="44.3237992" lon="4.5530759"><ele>112.0</ele><time>2026-05-02T08:39:56.993Z</time></trkpt><trkpt lat="44.3239498" lon="4.5528893"><ele>112.0</ele><time>2026-05-02T08:39:57.994Z</time></trkpt><trkpt lat="44.3241229" lon="4.5527254"><ele>114.33333333333334</ele><time>2026-05-02T08:39:58.994Z</time></trkpt><trkpt lat="44.3243041" lon="4.5525718"><ele>116.66666666666666</ele><time>2026-05-02T08:39:59.993Z</time></trkpt><trkpt lat="44.324489" lon="4.5524195"><ele>119.0</ele><time>2026-05-02T08:40:00.994Z</time></trkpt><trkpt lat="44.3246699" lon="4.5522621"><ele>120.33333333333333</ele><time>2026-05-02T08:40:01.993Z</time></trkpt><trkpt lat="44.3248346" lon="4.5520945"><ele>121.66666666666666</ele><time>2026-05-02T08:40:02.994Z</time></trkpt><trkpt lat="44.3249795" lon="4.5519199"><ele>123.0</ele><time>2026-05-02T08:40:03.993Z</time></trkpt><trkpt lat="44.3251133" lon="4.5517434"><ele>123.0</ele><time>2026-05-02T08:40:04.993Z</time></trkpt><trkpt lat="44.3252364" lon="4.5515703"><ele>123.0</ele><time>2026-05-02T08:40:05.993Z</time></trkpt><trkpt lat="44.3253508" lon="4.551426"><ele>123.0</ele><time>2026-05-02T08:40:06.993Z</time></trkpt><trkpt lat="44.3254545" lon="4.5513569"><ele>123.0</ele><time>2026-05-02T08:40:07.992Z</time></trkpt><trkpt lat="44.3255631" lon="4.5513413"><ele>124.4</ele><time>2026-05-02T08:40:08.993Z</time></trkpt><trkpt lat="44.3256641" lon="4.5513853"><ele>125.80000000000001</ele><time>2026-05-02T08:40:09.993Z</time></trkpt><trkpt lat="44.3257441" lon="4.5514784"><ele>127.2</ele><time>2026-05-02T08:40:10.993Z</time></trkpt><trkpt lat="44.3257872" lon="4.5516132"><ele>128.6</ele><time>2026-05-02T08:40:11.992Z</time></trkpt><trkpt lat="44.3257992" lon="4.5517835"><ele>130.0</ele><time>2026-05-02T08:40:12.993Z</time></trkpt><trkpt lat="44.3257826" lon="4.5519824"><ele>130.0</ele><time>2026-05-02T08:40:13.993Z</time></trkpt><trkpt lat="44.3257547" lon="4.5522048"><ele>130.0</ele><time>2026-05-02T08:40:14.992Z</time></trkpt><trkpt lat="44.325735" lon="4.5524493"><ele>130.0</ele><time>2026-05-02T08:40:15.993Z</time></trkpt><trkpt lat="44.3257271" lon="4.5527112"><ele>129.33333333333334</ele><time>2026-05-02T08:40:16.993Z</time></trkpt><trkpt lat="44.3257296" lon="4.5529853"><ele>128.66666666666666</ele><time>2026-05-02T08:40:17.993Z</time></trkpt><trkpt lat="44.3257341" lon="4.5532667"><ele>128.0</ele><time>2026-05-02T08:40:18.993Z</time></trkpt><trkpt lat="44.3257437" lon="4.5535441"><ele>127.66666666666666</ele><time>2026-05-02T08:40:19.994Z</time></trkpt><trkpt lat="44.3257716" lon="4.553812"><ele>127.33333333333334</ele><time>2026-05-02T08:40:20.993Z</time></trkpt><trkpt lat="44.3258414" lon="4.5540762"><ele>127.0</ele><time>2026-05-02T08:40:21.992Z</time></trkpt><trkpt lat="44.3259281" lon="4.5543386"><ele>128.33333333333334</ele><time>2026-05-02T08:40:22.994Z</time></trkpt><trkpt lat="44.3260143" lon="4.554612"><ele>129.66666666666666</ele><time>2026-05-02T08:40:23.994Z</time></trkpt><trkpt lat="44.326091" lon="4.5548959"><ele>131.0</ele><time>2026-05-02T08:40:24.993Z</time></trkpt><trkpt lat="44.3261495" lon="4.5551883"><ele>131.66666666666666</ele><time>2026-05-02T08:40:25.993Z</time></trkpt><trkpt lat="44.326188" lon="4.5554784"><ele>132.33333333333334</ele><time>2026-05-02T08:40:26.992Z</time></trkpt><trkpt lat="44.3262169" lon="4.55574"><ele>133.0</ele><time>2026-05-02T08:40:27.993Z</time></trkpt><trkpt lat="44.3262398" lon="4.5559593"><ele>133.0</ele><time>2026-05-02T08:40:28.993Z</time></trkpt><trkpt lat="44.326279" lon="4.5561445"><ele>133.0</ele><time>2026-05-02T08:40:29.993Z</time></trkpt><trkpt lat="44.326355" lon="4.5562979"><ele>133.0</ele><time>2026-05-02T08:40:30.993Z</time></trkpt><trkpt lat="44.3264609" lon="4.5564056"><ele>133.0</ele><time>2026-05-02T08:40:31.993Z</time></trkpt><trkpt lat="44.3265867" lon="4.5564567"><ele>128.75</ele><time>2026-05-02T08:40:32.993Z</time></trkpt><trkpt lat="44.3267116" lon="4.5564478"><ele>124.5</ele><time>2026-05-02T08:40:33.993Z</time></trkpt><trkpt lat="44.3268183" lon="4.5563798"><ele>120.25</ele><time>2026-05-02T08:40:34.993Z</time></trkpt><trkpt lat="44.3269043" lon="4.5562594"><ele>116.0</ele><time>2026-05-02T08:40:35.992Z</time></trkpt><trkpt lat="44.3269552" lon="4.5560949"><ele>113.66666666666666</ele><time>2026-05-02T08:40:36.993Z</time></trkpt><trkpt lat="44.3269815" lon="4.5558974"><ele>111.33333333333334</ele><time>2026-05-02T08:40:37.992Z</time></trkpt><trkpt lat="44.3270035" lon="4.555671"><ele>109.0</ele><time>2026-05-02T08:40:38.993Z</time></trkpt><trkpt lat="44.3270295" lon="4.555421"><ele>109.0</ele><time>2026-05-02T08:40:39.993Z</time></trkpt><trkpt lat="44.327064" lon="4.5551572"><ele>109.0</ele><time>2026-05-02T08:40:40.993Z</time></trkpt><trkpt lat="44.3271069" lon="4.5548757"><ele>109.0</ele><time>2026-05-02T08:40:41.993Z</time></trkpt><trkpt lat="44.3271563" lon="4.5545784"><ele>107.66666666666667</ele><time>2026-05-02T08:40:42.993Z</time></trkpt><trkpt lat="44.3271955" lon="4.5542826"><ele>106.33333333333334</ele><time>2026-05-02T08:40:43.993Z</time></trkpt><trkpt lat="44.3272264" lon="4.5539714"><ele>105.0</ele><time>2026-05-02T08:40:44.993Z</time></trkpt><trkpt lat="44.3272582" lon="4.5536491"><ele>115.5</ele><time>2026-05-02T08:40:45.993Z</time></trkpt><trkpt lat="44.3272908" lon="4.5533236"><ele>126.0</ele><time>2026-05-02T08:40:46.993Z</time></trkpt><trkpt lat="44.3273207" lon="4.553007"><ele>125.0</ele><time>2026-05-02T08:40:47.993Z</time></trkpt><trkpt lat="44.3273455" lon="4.5527076"><ele>124.0</ele><time>2026-05-02T08:40:48.993Z</time></trkpt><trkpt lat="44.327366" lon="4.5524374"><ele>123.0</ele><time>2026-05-02T08:40:49.993Z</time></trkpt><trkpt lat="44.3273952" lon="4.5522076"><ele>121.0</ele><time>2026-05-02T08:40:50.993Z</time></trkpt><trkpt lat="44.3274577" lon="4.5520297"><ele>119.0</ele><time>2026-05-02T08:40:51.993Z</time></trkpt><trkpt lat="44.3275475" lon="4.5518866"><ele>117.0</ele><time>2026-05-02T08:40:52.993Z</time></trkpt><trkpt lat="44.3276566" lon="4.5517879"><ele>115.0</ele><time>2026-05-02T08:40:53.994Z</time></trkpt><trkpt lat="44.3277837" lon="4.5517305"><ele>115.0</ele><time>2026-05-02T08:40:54.993Z</time></trkpt><trkpt lat="44.3279152" lon="4.5516867"><ele>115.0</ele><time>2026-05-02T08:40:55.993Z</time></trkpt><trkpt lat="44.328034" lon="4.5516391"><ele>115.0</ele><time>2026-05-02T08:40:56.993Z</time></trkpt><trkpt lat="44.3281422" lon="4.5515768"><ele>115.0</ele><time>2026-05-02T08:40:57.993Z</time></trkpt><trkpt lat="44.3282256" lon="4.5514842"><ele>119.8</ele><time>2026-05-02T08:40:58.993Z</time></trkpt><trkpt lat="44.3282688" lon="4.5513683"><ele>124.6</ele><time>2026-05-02T08:40:59.994Z</time></trkpt><trkpt lat="44.3282812" lon="4.5512487"><ele>129.4</ele><time>2026-05-02T08:41:00.993Z</time></trkpt><trkpt lat="44.3282508" lon="4.551131"><ele>134.2</ele><time>2026-05-02T08:41:01.993Z</time></trkpt><trkpt lat="44.328185" lon="4.5510382"><ele>139.0</ele><time>2026-05-02T08:41:02.994Z</time></trkpt><trkpt lat="44.3280891" lon="4.5509785"><ele>134.75</ele><time>2026-05-02T08:41:03.993Z</time></trkpt><trkpt lat="44.3279778" lon="4.5509285"><ele>130.5</ele><time>2026-05-02T08:41:04.993Z</time></trkpt><trkpt lat="44.3278517" lon="4.550866"><ele>126.25</ele><time>2026-05-02T08:41:05.993Z</time></trkpt><trkpt lat="44.3277372" lon="4.5507893"><ele>122.0</ele><time>2026-05-02T08:41:06.994Z</time></trkpt><trkpt lat="44.3276412" lon="4.5506997"><ele>122.0</ele><time>2026-05-02T08:41:07.993Z</time></trkpt><trkpt lat="44.3275746" lon="4.5505738"><ele>122.0</ele><time>2026-05-02T08:41:08.993Z</time></trkpt><trkpt lat="44.3275372" lon="4.5504311"><ele>122.0</ele><time>2026-05-02T08:41:09.993Z</time></trkpt><trkpt lat="44.3275232" lon="4.5502722"><ele>122.0</ele><time>2026-05-02T08:41:10.993Z</time></trkpt><trkpt lat="44.3275121" lon="4.5500963"><ele>127.0</ele><time>2026-05-02T08:41:11.994Z</time></trkpt><trkpt lat="44.3275041" lon="4.5498959"><ele>132.0</ele><time>2026-05-02T08:41:12.993Z</time></trkpt><trkpt lat="44.3274925" lon="4.5496739"><ele>137.0</ele><time>2026-05-02T08:41:13.993Z</time></trkpt><trkpt lat="44.3274765" lon="4.549432"><ele>140.33333333333331</ele><time>2026-05-02T08:41:14.993Z</time></trkpt><trkpt lat="44.3274542" lon="4.5491871"><ele>143.66666666666666</ele><time>2026-05-02T08:41:15.992Z</time></trkpt><trkpt lat="44.3274325" lon="4.5489571"><ele>147.0</ele><time>2026-05-02T08:41:16.994Z</time></trkpt><trkpt lat="44.327426" lon="4.5487429"><ele>147.0</ele><time>2026-05-02T08:41:17.993Z</time></trkpt><trkpt lat="44.3274553" lon="4.5485376"><ele>147.0</ele><time>2026-05-02T08:41:18.993Z</time></trkpt><trkpt lat="44.3275131" lon="4.5483292"><ele>147.0</ele><time>2026-05-02T08:41:19.993Z</time></trkpt><trkpt lat="44.3275904" lon="4.5481196"><ele>147.0</ele><time>2026-05-02T08:41:20.993Z</time></trkpt><trkpt lat="44.3276784" lon="4.5479002"><ele>147.0</ele><time>2026-05-02T08:41:21.993Z</time></trkpt><trkpt lat="44.3277702" lon="4.5476711"><ele>147.0</ele><time>2026-05-02T08:41:22.993Z</time></trkpt><trkpt lat="44.3278574" lon="4.5474433"><ele>150.0</ele><time>2026-05-02T08:41:23.994Z</time></trkpt><trkpt lat="44.3279441" lon="4.5472429"><ele>153.0</ele><time>2026-05-02T08:41:24.994Z</time></trkpt><trkpt lat="44.3280516" lon="4.5470761"><ele>156.0</ele><time>2026-05-02T08:41:25.993Z</time></trkpt><trkpt lat="44.3281814" lon="4.5469373"><ele>156.0</ele><time>2026-05-02T08:41:26.993Z</time></trkpt><trkpt lat="44.3283276" lon="4.5468125"><ele>156.0</ele><time>2026-05-02T08:41:27.993Z</time></trkpt><trkpt lat="44.3284653" lon="4.5466691"><ele>156.0</ele><time>2026-05-02T08:41:28.992Z</time></trkpt><trkpt lat="44.3285829" lon="4.5465239"><ele>156.0</ele><time>2026-05-02T08:41:29.993Z</time></trkpt><trkpt lat="44.3286762" lon="4.5463801"><ele>156.0</ele><time>2026-05-02T08:41:30.994Z</time></trkpt><trkpt lat="44.3287346" lon="4.5462318"><ele>156.0</ele><time>2026-05-02T08:41:31.993Z</time></trkpt><trkpt lat="44.3287548" lon="4.5460731"><ele>156.0</ele><time>2026-05-02T08:41:32.993Z</time></trkpt><trkpt lat="44.3287381" lon="4.5459111"><ele>155.75</ele><time>2026-05-02T08:41:33.993Z</time></trkpt><trkpt lat="44.3286819" lon="4.5457675"><ele>155.5</ele><time>2026-05-02T08:41:34.993Z</time></trkpt><trkpt lat="44.3285972" lon="4.5456414"><ele>155.25</ele><time>2026-05-02T08:41:35.994Z</time></trkpt><trkpt lat="44.3285045" lon="4.5455201"><ele>155.0</ele><time>2026-05-02T08:41:36.993Z</time></trkpt><trkpt lat="44.3284085" lon="4.5453974"><ele>157.75</ele><time>2026-05-02T08:41:37.993Z</time></trkpt><trkpt lat="44.328312" lon="4.5452714"><ele>160.5</ele><time>2026-05-02T08:41:38.992Z</time></trkpt><trkpt lat="44.3282202" lon="4.5451444"><ele>163.25</ele><time>2026-05-02T08:41:39.993Z</time></trkpt><trkpt lat="44.3281599" lon="4.5450166"><ele>166.0</ele><time>2026-05-02T08:41:40.994Z</time></trkpt><trkpt lat="44.3281485" lon="4.5448824"><ele>166.0</ele><time>2026-05-02T08:41:41.993Z</time></trkpt><trkpt lat="44.3281792" lon="4.5447622"><ele>166.0</ele><time>2026-05-02T08:41:42.994Z</time></trkpt><trkpt lat="44.3282455" lon="4.5446792"><ele>166.0</ele><time>2026-05-02T08:41:43.994Z</time></trkpt><trkpt lat="44.3283337" lon="4.5446506"><ele>166.0</ele><time>2026-05-02T08:41:44.993Z</time></trkpt><trkpt lat="44.3284313" lon="4.5446765"><ele>166.0</ele><time>2026-05-02T08:41:45.993Z</time></trkpt><trkpt lat="44.3285354" lon="4.5447271"><ele>166.0</ele><time>2026-05-02T08:41:46.993Z</time></trkpt><trkpt lat="44.3286472" lon="4.5447918"><ele>166.0</ele><time>2026-05-02T08:41:47.993Z</time></trkpt><trkpt lat="44.3287622" lon="4.5448425"><ele>166.0</ele><time>2026-05-02T08:41:48.993Z</time></trkpt><trkpt lat="44.3288721" lon="4.5448218"><ele>166.0</ele><time>2026-05-02T08:41:49.992Z</time></trkpt><trkpt lat="44.3289581" lon="4.5447551"><ele>168.5</ele><time>2026-05-02T08:41:50.993Z</time></trkpt><trkpt lat="44.3290263" lon="4.5446379"><ele>171.0</ele><time>2026-05-02T08:41:51.993Z</time></trkpt><trkpt lat="44.3290721" lon="4.5444852"><ele>173.5</ele><time>2026-05-02T08:41:52.993Z</time></trkpt><trkpt lat="44.3291346" lon="4.5443259"><ele>176.0</ele><time>2026-05-02T08:41:53.994Z</time></trkpt><trkpt lat="44.3292382" lon="4.5441949"><ele>176.0</ele><time>2026-05-02T08:41:54.993Z</time></trkpt><trkpt lat="44.3293704" lon="4.5440846"><ele>176.0</ele><time>2026-05-02T08:41:55.993Z</time></trkpt><trkpt lat="44.3295213" lon="4.5439809"><ele>176.0</ele><time>2026-05-02T08:41:56.994Z</time></trkpt><trkpt lat="44.3296825" lon="4.5438828"><ele>178.75</ele><time>2026-05-02T08:41:57.993Z</time></trkpt><trkpt lat="44.3298379" lon="4.5438038"><ele>181.5</ele><time>2026-05-02T08:41:58.993Z</time></trkpt><trkpt lat="44.329978" lon="4.5437318"><ele>184.25</ele><time>2026-05-02T08:41:59.993Z</time></trkpt><trkpt lat="44.3300949" lon="4.5436445"><ele>187.0</ele><time>2026-05-02T08:42:00.993Z</time></trkpt><trkpt lat="44.3301632" lon="4.5435245"><ele>187.0</ele><time>2026-05-02T08:42:01.994Z</time></trkpt><trkpt lat="44.3301891" lon="4.5434017"><ele>187.0</ele><time>2026-05-02T08:42:02.994Z</time></trkpt><trkpt lat="44.3301723" lon="4.5432749"><ele>187.0</ele><time>2026-05-02T08:42:03.993Z</time></trkpt><trkpt lat="44.3301239" lon="4.5431507"><ele>187.0</ele><time>2026-05-02T08:42:04.994Z</time></trkpt><trkpt lat="44.3300916" lon="4.5430059"><ele>187.0</ele><time>2026-05-02T08:42:05.993Z</time></trkpt><trkpt lat="44.3300949" lon="4.5428589"><ele>186.5</ele><time>2026-05-02T08:42:06.993Z</time></trkpt><trkpt lat="44.3301322" lon="4.5427116"><ele>186.0</ele><time>2026-05-02T08:42:07.993Z</time></trkpt><trkpt lat="44.3302096" lon="4.5425886"><ele>185.5</ele><time>2026-05-02T08:42:08.992Z</time></trkpt><trkpt lat="44.3303132" lon="4.5424799"><ele>185.0</ele><time>2026-05-02T08:42:09.994Z</time></trkpt><trkpt lat="44.3304381" lon="4.5423637"><ele>187.33333333333331</ele><time>2026-05-02T08:42:10.993Z</time></trkpt><trkpt lat="44.330575" lon="4.5422358"><ele>189.66666666666666</ele><time>2026-05-02T08:42:11.993Z</time></trkpt><trkpt lat="44.3307252" lon="4.5420956"><ele>192.0</ele><time>2026-05-02T08:42:12.994Z</time></trkpt><trkpt lat="44.3308822" lon="4.5419581"><ele>192.0</ele><time>2026-05-02T08:42:13.994Z</time></trkpt><trkpt lat="44.3310487" lon="4.5418446"><ele>192.0</ele><time>2026-05-02T08:42:14.993Z</time></trkpt><trkpt lat="44.331217" lon="4.5417635"><ele>192.0</ele><time>2026-05-02T08:42:15.993Z</time></trkpt><trkpt lat="44.3313786" lon="4.5417026"><ele>194.25</ele><time>2026-05-02T08:42:16.993Z</time></trkpt><trkpt lat="44.3315298" lon="4.5416466"><ele>196.5</ele><time>2026-05-02T08:42:17.993Z</time></trkpt><trkpt lat="44.3316657" lon="4.5415932"><ele>198.75</ele><time>2026-05-02T08:42:18.993Z</time></trkpt><trkpt lat="44.3317832" lon="4.5415399"><ele>201.0</ele><time>2026-05-02T08:42:19.992Z</time></trkpt><trkpt lat="44.3318815" lon="4.5414829"><ele>201.0</ele><time>2026-05-02T08:42:20.993Z</time></trkpt><trkpt lat="44.3319548" lon="4.5414004"><ele>201.0</ele><time>2026-05-02T08:42:21.992Z</time></trkpt><trkpt lat="44.3320056" lon="4.5412874"><ele>201.0</ele><time>2026-05-02T08:42:22.993Z</time></trkpt><trkpt lat="44.332026" lon="4.5411542"><ele>201.0</ele><time>2026-05-02T08:42:23.993Z</time></trkpt><trkpt lat="44.3320104" lon="4.5410182"><ele>201.0</ele><time>2026-05-02T08:42:24.994Z</time></trkpt><trkpt lat="44.3319559" lon="4.5408933"><ele>200.5</ele><time>2026-05-02T08:42:25.994Z</time></trkpt><trkpt lat="44.3318709" lon="4.5407973"><ele>200.0</ele><time>2026-05-02T08:42:26.993Z</time></trkpt><trkpt lat="44.3317586" lon="4.5407401"><ele>199.5</ele><time>2026-05-02T08:42:27.993Z</time></trkpt><trkpt lat="44.3316321" lon="4.5407346"><ele>199.0</ele><time>2026-05-02T08:42:28.993Z</time></trkpt><trkpt lat="44.3314941" lon="4.540776"><ele>202.0</ele><time>2026-05-02T08:42:29.993Z</time></trkpt><trkpt lat="44.3313518" lon="4.5408499"><ele>205.0</ele><time>2026-05-02T08:42:30.993Z</time></trkpt><trkpt lat="44.331198" lon="4.5409233"><ele>208.0</ele><time>2026-05-02T08:42:31.994Z</time></trkpt><trkpt lat="44.331037" lon="4.540989"><ele>208.0</ele><time>2026-05-02T08:42:32.993Z</time></trkpt><trkpt lat="44.3308772" lon="4.5410578"><ele>208.0</ele><time>2026-05-02T08:42:33.994Z</time></trkpt><trkpt lat="44.3307168" lon="4.541127"><ele>208.0</ele><time>2026-05-02T08:42:34.994Z</time></trkpt><trkpt lat="44.3305619" lon="4.5411874"><ele>203.75</ele><time>2026-05-02T08:42:35.993Z</time></trkpt><trkpt lat="44.3304176" lon="4.5412418"><ele>199.5</ele><time>2026-05-02T08:42:36.992Z</time></trkpt><trkpt lat="44.3302784" lon="4.5412811"><ele>195.25</ele><time>2026-05-02T08:42:37.992Z</time></trkpt><trkpt lat="44.3301338" lon="4.5412997"><ele>191.0</ele><time>2026-05-02T08:42:38.993Z</time></trkpt><trkpt lat="44.329995" lon="4.5413014"><ele>191.0</ele><time>2026-05-02T08:42:39.993Z</time></trkpt><trkpt lat="44.3298657" lon="4.5412974"><ele>191.0</ele><time>2026-05-02T08:42:40.993Z</time></trkpt><trkpt lat="44.3297477" lon="4.5412933"><ele>191.0</ele><time>2026-05-02T08:42:41.993Z</time></trkpt><trkpt lat="44.3296401" lon="4.5412872"><ele>191.0</ele><time>2026-05-02T08:42:42.994Z</time></trkpt><trkpt lat="44.3295375" lon="4.5412738"><ele>191.60000000000002</ele><time>2026-05-02T08:42:43.994Z</time></trkpt><trkpt lat="44.3294377" lon="4.5412408"><ele>192.2</ele><time>2026-05-02T08:42:44.994Z</time></trkpt><trkpt lat="44.3293473" lon="4.5411883"><ele>192.8</ele><time>2026-05-02T08:42:45.993Z</time></trkpt><trkpt lat="44.3292626" lon="4.5411186"><ele>193.39999999999998</ele><time>2026-05-02T08:42:46.993Z</time></trkpt><trkpt lat="44.329195" lon="4.5410378"><ele>194.0</ele><time>2026-05-02T08:42:47.992Z</time></trkpt><trkpt lat="44.32914" lon="4.5409511"><ele>196.2</ele><time>2026-05-02T08:42:48.993Z</time></trkpt><trkpt lat="44.3290963" lon="4.5408551"><ele>198.39999999999998</ele><time>2026-05-02T08:42:49.993Z</time></trkpt><trkpt lat="44.3290738" lon="4.540747"><ele>200.6</ele><time>2026-05-02T08:42:50.994Z</time></trkpt><trkpt lat="44.3290811" lon="4.5406239"><ele>202.8</ele><time>2026-05-02T08:42:51.994Z</time></trkpt><trkpt lat="44.3291234" lon="4.5404978"><ele>205.0</ele><time>2026-05-02T08:42:52.994Z</time></trkpt><trkpt lat="44.3291955" lon="4.5403839"><ele>203.75</ele><time>2026-05-02T08:42:53.993Z</time></trkpt><trkpt lat="44.3292848" lon="4.540285"><ele>202.5</ele><time>2026-05-02T08:42:54.994Z</time></trkpt><trkpt lat="44.3293914" lon="4.540204"><ele>201.25</ele><time>2026-05-02T08:42:55.994Z</time></trkpt><trkpt lat="44.3295073" lon="4.5401415"><ele>200.0</ele><time>2026-05-02T08:42:56.993Z</time></trkpt><trkpt lat="44.3296282" lon="4.5400827"><ele>203.5</ele><time>2026-05-02T08:42:57.994Z</time></trkpt><trkpt lat="44.329756" lon="4.5400249"><ele>207.0</ele><time>2026-05-02T08:42:58.993Z</time></trkpt><trkpt lat="44.3298897" lon="4.5399611"><ele>210.5</ele><time>2026-05-02T08:42:59.993Z</time></trkpt><trkpt lat="44.3300475" lon="4.5398737"><ele>214.0</ele><time>2026-05-02T08:43:00.993Z</time></trkpt><trkpt lat="44.3302426" lon="4.5397709"><ele>214.0</ele><time>2026-05-02T08:43:01.992Z</time></trkpt><trkpt lat="44.3304825" lon="4.539665"><ele>214.0</ele><time>2026-05-02T08:43:02.994Z</time></trkpt><trkpt lat="44.3307479" lon="4.5395676"><ele>214.5</ele><time>2026-05-02T08:43:03.993Z</time></trkpt><trkpt lat="44.3310192" lon="4.5394674"><ele>215.0</ele><time>2026-05-02T08:43:04.993Z</time></trkpt><trkpt lat="44.3312841" lon="4.5393554"><ele>220.5</ele><time>2026-05-02T08:43:05.993Z</time></trkpt><trkpt lat="44.3315461" lon="4.5392405"><ele>226.0</ele><time>2026-05-02T08:43:06.994Z</time></trkpt><trkpt lat="44.331804" lon="4.5391234"><ele>226.0</ele><time>2026-05-02T08:43:07.993Z</time></trkpt><trkpt lat="44.3320496" lon="4.5390113"><ele>226.0</ele><time>2026-05-02T08:43:08.994Z</time></trkpt><trkpt lat="44.3322822" lon="4.5389041"><ele>227.0</ele><time>2026-05-02T08:43:09.993Z</time></trkpt><trkpt lat="44.332506" lon="4.5388014"><ele>228.0</ele><time>2026-05-02T08:43:10.993Z</time></trkpt><trkpt lat="44.3327279" lon="4.5386981"><ele>231.0</ele><time>2026-05-02T08:43:11.993Z</time></trkpt><trkpt lat="44.3329483" lon="4.5385978"><ele>234.0</ele><time>2026-05-02T08:43:12.993Z</time></trkpt><trkpt lat="44.3331661" lon="4.5385007"><ele>235.0</ele><time>2026-05-02T08:43:13.994Z</time></trkpt><trkpt lat="44.3333807" lon="4.5384021"><ele>236.0</ele><time>2026-05-02T08:43:14.992Z</time></trkpt><trkpt lat="44.3335883" lon="4.5383041"><ele>237.0</ele><time>2026-05-02T08:43:15.993Z</time></trkpt><trkpt lat="44.3337883" lon="4.5382113"><ele>238.0</ele><time>2026-05-02T08:43:16.992Z</time></trkpt><trkpt lat="44.3339767" lon="4.5381193"><ele>239.0</ele><time>2026-05-02T08:43:17.993Z</time></trkpt><trkpt lat="44.334163" lon="4.5380319"><ele>240.0</ele><time>2026-05-02T08:43:18.994Z</time></trkpt><trkpt lat="44.3343504" lon="4.5379585"><ele>240.0</ele><time>2026-05-02T08:43:19.994Z</time></trkpt><trkpt lat="44.3345424" lon="4.5378971"><ele>240.0</ele><time>2026-05-02T08:43:20.992Z</time></trkpt><trkpt lat="44.3347369" lon="4.5378462"><ele>240.0</ele><time>2026-05-02T08:43:21.993Z</time></trkpt><trkpt lat="44.3349365" lon="4.5378079"><ele>240.33333333333331</ele><time>2026-05-02T08:43:22.993Z</time></trkpt><trkpt lat="44.3351413" lon="4.5377837"><ele>240.66666666666666</ele><time>2026-05-02T08:43:23.993Z</time></trkpt><trkpt lat="44.335357" lon="4.5377645"><ele>241.0</ele><time>2026-05-02T08:43:24.992Z</time></trkpt><trkpt lat="44.3355804" lon="4.5377475"><ele>240.0</ele><time>2026-05-02T08:43:25.993Z</time></trkpt><trkpt lat="44.3358054" lon="4.5377318"><ele>239.0</ele><time>2026-05-02T08:43:26.994Z</time></trkpt><trkpt lat="44.3360358" lon="4.5377146"><ele>239.0</ele><time>2026-05-02T08:43:27.993Z</time></trkpt><trkpt lat="44.3362727" lon="4.5376948"><ele>239.0</ele><time>2026-05-02T08:43:28.994Z</time></trkpt><trkpt lat="44.3365106" lon="4.5376777"><ele>240.5</ele><time>2026-05-02T08:43:29.994Z</time></trkpt><trkpt lat="44.3367493" lon="4.5376577"><ele>242.0</ele><time>2026-05-02T08:43:30.993Z</time></trkpt><trkpt lat="44.3369891" lon="4.5376382"><ele>242.5</ele><time>2026-05-02T08:43:31.993Z</time></trkpt><trkpt lat="44.3372259" lon="4.5376172"><ele>243.0</ele><time>2026-05-02T08:43:32.993Z</time></trkpt><trkpt lat="44.3374627" lon="4.5375954"><ele>243.0</ele><time>2026-05-02T08:43:33.993Z</time></trkpt><trkpt lat="44.3376959" lon="4.5375766"><ele>243.0</ele><time>2026-05-02T08:43:34.993Z</time></trkpt><trkpt lat="44.3379286" lon="4.5375634"><ele>245.5</ele><time>2026-05-02T08:43:35.993Z</time></trkpt><trkpt lat="44.3381609" lon="4.5375531"><ele>248.0</ele><time>2026-05-02T08:43:36.994Z</time></trkpt><trkpt lat="44.3383871" lon="4.5375445"><ele>248.0</ele><time>2026-05-02T08:43:37.993Z</time></trkpt><trkpt lat="44.3386075" lon="4.5375339"><ele>248.0</ele><time>2026-05-02T08:43:38.993Z</time></trkpt><trkpt lat="44.3388215" lon="4.5375205"><ele>248.0</ele><time>2026-05-02T08:43:39.993Z</time></trkpt><trkpt lat="44.3390295" lon="4.5375059"><ele>247.66666666666669</ele><time>2026-05-02T08:43:40.993Z</time></trkpt><trkpt lat="44.3392307" lon="4.5374949"><ele>247.33333333333331</ele><time>2026-05-02T08:43:41.994Z</time></trkpt><trkpt lat="44.3394255" lon="4.5374803"><ele>247.0</ele><time>2026-05-02T08:43:42.993Z</time></trkpt><trkpt lat="44.3396191" lon="4.5374529"><ele>249.0</ele><time>2026-05-02T08:43:43.993Z</time></trkpt><trkpt lat="44.3398095" lon="4.5373983"><ele>251.0</ele><time>2026-05-02T08:43:44.993Z</time></trkpt><trkpt lat="44.3399975" lon="4.5373207"><ele>253.0</ele><time>2026-05-02T08:43:45.993Z</time></trkpt><trkpt lat="44.340186" lon="4.5372316"><ele>253.0</ele><time>2026-05-02T08:43:46.993Z</time></trkpt><trkpt lat="44.340378" lon="4.5371411"><ele>253.0</ele><time>2026-05-02T08:43:47.993Z</time></trkpt><trkpt lat="44.3405635" lon="4.53705"><ele>253.0</ele><time>2026-05-02T08:43:48.993Z</time></trkpt><trkpt lat="44.3407399" lon="4.5369628"><ele>252.66666666666666</ele><time>2026-05-02T08:43:49.993Z</time></trkpt><trkpt lat="44.340908" lon="4.5368758"><ele>252.33333333333331</ele><time>2026-05-02T08:43:50.993Z</time></trkpt><trkpt lat="44.3410631" lon="4.5367996"><ele>252.0</ele><time>2026-05-02T08:43:51.994Z</time></trkpt><trkpt lat="44.3412033" lon="4.5367163"><ele>252.0</ele><time>2026-05-02T08:43:52.993Z</time></trkpt><trkpt lat="44.3413198" lon="4.5366122"><ele>252.0</ele><time>2026-05-02T08:43:53.992Z</time></trkpt><trkpt lat="44.3414074" lon="4.5364751"><ele>252.0</ele><time>2026-05-02T08:43:54.994Z</time></trkpt><trkpt lat="44.3414569" lon="4.5363091"><ele>252.0</ele><time>2026-05-02T08:43:55.993Z</time></trkpt><trkpt lat="44.3414711" lon="4.5361166"><ele>252.66666666666669</ele><time>2026-05-02T08:43:56.993Z</time></trkpt><trkpt lat="44.3414523" lon="4.5359041"><ele>253.33333333333334</ele><time>2026-05-02T08:43:57.992Z</time></trkpt><trkpt lat="44.3414062" lon="4.535676"><ele>254.0</ele><time>2026-05-02T08:43:58.994Z</time></trkpt><trkpt lat="44.3413508" lon="4.5354288"><ele>255.66666666666669</ele><time>2026-05-02T08:43:59.994Z</time></trkpt><trkpt lat="44.3412867" lon="4.535163"><ele>257.3333333333333</ele><time>2026-05-02T08:44:00.994Z</time></trkpt><trkpt lat="44.3412238" lon="4.5348772"><ele>259.0</ele><time>2026-05-02T08:44:01.992Z</time></trkpt><trkpt lat="44.3411592" lon="4.5345853"><ele>259.5</ele><time>2026-05-02T08:44:02.993Z</time></trkpt><trkpt lat="44.3410909" lon="4.5342877"><ele>260.0</ele><time>2026-05-02T08:44:03.993Z</time></trkpt><trkpt lat="44.3410165" lon="4.5339649"><ele>261.0</ele><time>2026-05-02T08:44:04.993Z</time></trkpt><trkpt lat="44.3409389" lon="4.533617"><ele>262.0</ele><time>2026-05-02T08:44:05.993Z</time></trkpt><trkpt lat="44.3408668" lon="4.5332713"><ele>262.0</ele><time>2026-05-02T08:44:06.994Z</time></trkpt><trkpt lat="44.3407985" lon="4.5329203"><ele>262.0</ele><time>2026-05-02T08:44:07.992Z</time></trkpt><trkpt lat="44.3407346" lon="4.5325682"><ele>264.0</ele><time>2026-05-02T08:44:08.994Z</time></trkpt><trkpt lat="44.3406739" lon="4.5322186"><ele>266.0</ele><time>2026-05-02T08:44:09.993Z</time></trkpt><trkpt lat="44.3406142" lon="4.5318706"><ele>267.0</ele><time>2026-05-02T08:44:10.993Z</time></trkpt><trkpt lat="44.3405548" lon="4.5315262"><ele>268.0</ele><time>2026-05-02T08:44:11.993Z</time></trkpt><trkpt lat="44.3404972" lon="4.5311859"><ele>269.0</ele><time>2026-05-02T08:44:12.992Z</time></trkpt><trkpt lat="44.3404411" lon="4.5308522"><ele>270.0</ele><time>2026-05-02T08:44:13.994Z</time></trkpt><trkpt lat="44.3403857" lon="4.5305255"><ele>274.0</ele><time>2026-05-02T08:44:14.993Z</time></trkpt><trkpt lat="44.3403313" lon="4.530205"><ele>278.0</ele><time>2026-05-02T08:44:15.993Z</time></trkpt><trkpt lat="44.340279" lon="4.5298907"><ele>278.0</ele><time>2026-05-02T08:44:16.993Z</time></trkpt><trkpt lat="44.340226" lon="4.5295809"><ele>278.0</ele><time>2026-05-02T08:44:17.993Z</time></trkpt><trkpt lat="44.3401731" lon="4.5292704"><ele>279.0</ele><time>2026-05-02T08:44:18.993Z</time></trkpt><trkpt lat="44.3401228" lon="4.5289581"><ele>280.0</ele><time>2026-05-02T08:44:19.993Z</time></trkpt><trkpt lat="44.3400709" lon="4.5286473"><ele>281.5</ele><time>2026-05-02T08:44:20.993Z</time></trkpt><trkpt lat="44.340009" lon="4.5283411"><ele>283.0</ele><time>2026-05-02T08:44:21.993Z</time></trkpt><trkpt lat="44.3399278" lon="4.5280426"><ele>284.5</ele><time>2026-05-02T08:44:22.993Z</time></trkpt><trkpt lat="44.3398351" lon="4.5277417"><ele>286.0</ele><time>2026-05-02T08:44:23.994Z</time></trkpt><trkpt lat="44.3397386" lon="4.5274366"><ele>286.0</ele><time>2026-05-02T08:44:24.993Z</time></trkpt><trkpt lat="44.339643" lon="4.52713"><ele>286.0</ele><time>2026-05-02T08:44:25.993Z</time></trkpt><trkpt lat="44.3395495" lon="4.5268263"><ele>286.0</ele><time>2026-05-02T08:44:26.994Z</time></trkpt><trkpt lat="44.3394611" lon="4.5265359"><ele>286.0</ele><time>2026-05-02T08:44:27.994Z</time></trkpt><trkpt lat="44.3393757" lon="4.5262601"><ele>286.0</ele><time>2026-05-02T08:44:28.994Z</time></trkpt><trkpt lat="44.3392981" lon="4.5260077"><ele>286.0</ele><time>2026-05-02T08:44:29.993Z</time></trkpt><trkpt lat="44.3392231" lon="4.5257736"><ele>286.0</ele><time>2026-05-02T08:44:30.993Z</time></trkpt><trkpt lat="44.339138" lon="4.5255449"><ele>286.0</ele><time>2026-05-02T08:44:31.994Z</time></trkpt><trkpt lat="44.3390314" lon="4.5253199"><ele>285.0</ele><time>2026-05-02T08:44:32.993Z</time></trkpt><trkpt lat="44.3389011" lon="4.5250961"><ele>284.0</ele><time>2026-05-02T08:44:33.994Z</time></trkpt><trkpt lat="44.3387554" lon="4.524876"><ele>283.0</ele><time>2026-05-02T08:44:34.993Z</time></trkpt><trkpt lat="44.3385831" lon="4.524671"><ele>280.5</ele><time>2026-05-02T08:44:35.994Z</time></trkpt><trkpt lat="44.3383959" lon="4.5244719"><ele>278.0</ele><time>2026-05-02T08:44:36.993Z</time></trkpt><trkpt lat="44.3381928" lon="4.5242802"><ele>276.0</ele><time>2026-05-02T08:44:37.993Z</time></trkpt><trkpt lat="44.3379786" lon="4.5240888"><ele>274.0</ele><time>2026-05-02T08:44:38.993Z</time></trkpt><trkpt lat="44.3377627" lon="4.5238985"><ele>274.5</ele><time>2026-05-02T08:44:39.993Z</time></trkpt><trkpt lat="44.3375526" lon="4.5237108"><ele>275.0</ele><time>2026-05-02T08:44:40.993Z</time></trkpt><trkpt lat="44.3373492" lon="4.5235248"><ele>271.5</ele><time>2026-05-02T08:44:41.993Z</time></trkpt><trkpt lat="44.3371507" lon="4.523343"><ele>268.0</ele><time>2026-05-02T08:44:42.993Z</time></trkpt><trkpt lat="44.3369547" lon="4.5231654"><ele>268.0</ele><time>2026-05-02T08:44:43.993Z</time></trkpt><trkpt lat="44.3367625" lon="4.5229926"><ele>268.0</ele><time>2026-05-02T08:44:44.993Z</time></trkpt><trkpt lat="44.3365724" lon="4.5228229"><ele>266.3333333333333</ele><time>2026-05-02T08:44:45.993Z</time></trkpt><trkpt lat="44.3363856" lon="4.5226577"><ele>264.6666666666667</ele><time>2026-05-02T08:44:46.994Z</time></trkpt><trkpt lat="44.3362013" lon="4.5225018"><ele>263.0</ele><time>2026-05-02T08:44:47.993Z</time></trkpt><trkpt lat="44.3360137" lon="4.5223652"><ele>263.0</ele><time>2026-05-02T08:44:48.993Z</time></trkpt><trkpt lat="44.3358203" lon="4.5222577"><ele>263.0</ele><time>2026-05-02T08:44:49.993Z</time></trkpt><trkpt lat="44.3356168" lon="4.5221711"><ele>263.0</ele><time>2026-05-02T08:44:50.993Z</time></trkpt><trkpt lat="44.3354089" lon="4.5221078"><ele>262.33333333333337</ele><time>2026-05-02T08:44:51.992Z</time></trkpt><trkpt lat="44.3352006" lon="4.5220738"><ele>261.6666666666667</ele><time>2026-05-02T08:44:52.993Z</time></trkpt><trkpt lat="44.3349867" lon="4.5220732"><ele>261.0</ele><time>2026-05-02T08:44:53.994Z</time></trkpt><trkpt lat="44.3347709" lon="4.5220992"><ele>261.6666666666667</ele><time>2026-05-02T08:44:54.993Z</time></trkpt><trkpt lat="44.3345598" lon="4.5221337"><ele>262.33333333333337</ele><time>2026-05-02T08:44:55.993Z</time></trkpt><trkpt lat="44.3343583" lon="4.5221668"><ele>263.0</ele><time>2026-05-02T08:44:56.993Z</time></trkpt><trkpt lat="44.3341648" lon="4.5221987"><ele>263.0</ele><time>2026-05-02T08:44:57.993Z</time></trkpt><trkpt lat="44.3339803" lon="4.5222268"><ele>263.0</ele><time>2026-05-02T08:44:58.993Z</time></trkpt><trkpt lat="44.3338062" lon="4.5222549"><ele>263.0</ele><time>2026-05-02T08:44:59.993Z</time></trkpt><trkpt lat="44.3336393" lon="4.522268"><ele>262.75</ele><time>2026-05-02T08:45:00.993Z</time></trkpt><trkpt lat="44.3334832" lon="4.522246"><ele>262.5</ele><time>2026-05-02T08:45:01.993Z</time></trkpt><trkpt lat="44.3333435" lon="4.5221728"><ele>262.25</ele><time>2026-05-02T08:45:02.993Z</time></trkpt><trkpt lat="44.3332311" lon="4.5220611"><ele>262.0</ele><time>2026-05-02T08:45:03.994Z</time></trkpt><trkpt lat="44.3331553" lon="4.5219108"><ele>262.5</ele><time>2026-05-02T08:45:04.994Z</time></trkpt><trkpt lat="44.3331184" lon="4.5217375"><ele>263.0</ele><time>2026-05-02T08:45:05.994Z</time></trkpt><trkpt lat="44.3331188" lon="4.5215535"><ele>263.5</ele><time>2026-05-02T08:45:06.994Z</time></trkpt><trkpt lat="44.3331388" lon="4.5213647"><ele>264.0</ele><time>2026-05-02T08:45:07.993Z</time></trkpt><trkpt lat="44.3331654" lon="4.5211639"><ele>264.0</ele><time>2026-05-02T08:45:08.993Z</time></trkpt><trkpt lat="44.3331967" lon="4.5209479"><ele>264.0</ele><time>2026-05-02T08:45:09.993Z</time></trkpt><trkpt lat="44.3332284" lon="4.5207133"><ele>264.0</ele><time>2026-05-02T08:45:10.993Z</time></trkpt><trkpt lat="44.3332596" lon="4.5204616"><ele>262.3333333333333</ele><time>2026-05-02T08:45:11.992Z</time></trkpt><trkpt lat="44.33329" lon="4.5202004"><ele>260.66666666666663</ele><time>2026-05-02T08:45:12.993Z</time></trkpt><trkpt lat="44.3333375" lon="4.5199375"><ele>259.0</ele><time>2026-05-02T08:45:13.993Z</time></trkpt><trkpt lat="44.3334142" lon="4.5196992"><ele>256.66666666666663</ele><time>2026-05-02T08:45:14.994Z</time></trkpt><trkpt lat="44.3335171" lon="4.5194881"><ele>254.33333333333331</ele><time>2026-05-02T08:45:15.993Z</time></trkpt><trkpt lat="44.3336315" lon="4.5192947"><ele>252.0</ele><time>2026-05-02T08:45:16.992Z</time></trkpt><trkpt lat="44.3337555" lon="4.5191261"><ele>252.0</ele><time>2026-05-02T08:45:17.993Z</time></trkpt><trkpt lat="44.3338635" lon="4.518985"><ele>252.0</ele><time>2026-05-02T08:45:18.994Z</time></trkpt><trkpt lat="44.3339397" lon="4.5188379"><ele>252.0</ele><time>2026-05-02T08:45:19.994Z</time></trkpt><trkpt lat="44.3339825" lon="4.5186703"><ele>252.0</ele><time>2026-05-02T08:45:20.994Z</time></trkpt><trkpt lat="44.3339817" lon="4.5185043"><ele>252.5</ele><time>2026-05-02T08:45:21.994Z</time></trkpt><trkpt lat="44.3339402" lon="4.5183558"><ele>253.0</ele><time>2026-05-02T08:45:22.994Z</time></trkpt><trkpt lat="44.3338632" lon="4.5182236"><ele>253.5</ele><time>2026-05-02T08:45:23.992Z</time></trkpt><trkpt lat="44.3337597" lon="4.5181025"><ele>254.0</ele><time>2026-05-02T08:45:24.993Z</time></trkpt><trkpt lat="44.3336271" lon="4.5179934"><ele>258.6666666666667</ele><time>2026-05-02T08:45:25.993Z</time></trkpt><trkpt lat="44.3334809" lon="4.5178835"><ele>263.3333333333333</ele><time>2026-05-02T08:45:26.994Z</time></trkpt><trkpt lat="44.3333234" lon="4.5177643"><ele>268.0</ele><time>2026-05-02T08:45:27.993Z</time></trkpt><trkpt lat="44.3331629" lon="4.5176409"><ele>263.66666666666663</ele><time>2026-05-02T08:45:28.993Z</time></trkpt><trkpt lat="44.3330065" lon="4.5175248"><ele>259.3333333333333</ele><time>2026-05-02T08:45:29.994Z</time></trkpt><trkpt lat="44.3328595" lon="4.5174095"><ele>255.0</ele><time>2026-05-02T08:45:30.993Z</time></trkpt><trkpt lat="44.3327289" lon="4.5172738"><ele>255.0</ele><time>2026-05-02T08:45:31.993Z</time></trkpt><trkpt lat="44.3326288" lon="4.517116"><ele>255.0</ele><time>2026-05-02T08:45:32.993Z</time></trkpt><trkpt lat="44.3325587" lon="4.5169355"><ele>255.0</ele><time>2026-05-02T08:45:33.993Z</time></trkpt><trkpt lat="44.3324959" lon="4.5165478"><ele>257.0</ele><time>2026-05-02T08:45:35.993Z</time></trkpt><trkpt lat="44.3324962" lon="4.5163392"><ele>259.0</ele><time>2026-05-02T08:45:36.993Z</time></trkpt><trkpt lat="44.3324989" lon="4.5161168"><ele>261.0</ele><time>2026-05-02T08:45:37.993Z</time></trkpt><trkpt lat="44.3325017" lon="4.5158831"><ele>261.0</ele><time>2026-05-02T08:45:38.993Z</time></trkpt><trkpt lat="44.3325013" lon="4.5156484"><ele>261.0</ele><time>2026-05-02T08:45:39.993Z</time></trkpt><trkpt lat="44.3324984" lon="4.5154207"><ele>261.0</ele><time>2026-05-02T08:45:40.993Z</time></trkpt><trkpt lat="44.3325051" lon="4.5152078"><ele>261.0</ele><time>2026-05-02T08:45:41.993Z</time></trkpt><trkpt lat="44.3325412" lon="4.5150169"><ele>261.0</ele><time>2026-05-02T08:45:42.993Z</time></trkpt><trkpt lat="44.3326038" lon="4.514845"><ele>261.0</ele><time>2026-05-02T08:45:43.993Z</time></trkpt><trkpt lat="44.3326981" lon="4.5147107"><ele>261.0</ele><time>2026-05-02T08:45:44.993Z</time></trkpt><trkpt lat="44.332816" lon="4.5146289"><ele>261.0</ele><time>2026-05-02T08:45:45.993Z</time></trkpt><trkpt lat="44.3329437" lon="4.5146042"><ele>261.0</ele><time>2026-05-02T08:45:46.993Z</time></trkpt><trkpt lat="44.3330727" lon="4.5146266"><ele>261.0</ele><time>2026-05-02T08:45:47.993Z</time></trkpt><trkpt lat="44.3331773" lon="4.5146623"><ele>261.0</ele><time>2026-05-02T08:45:48.992Z</time></trkpt><trkpt lat="44.3332592" lon="4.5146923"><ele>262.6666666666667</ele><time>2026-05-02T08:45:49.992Z</time></trkpt><trkpt lat="44.3333247" lon="4.5147162"><ele>264.3333333333333</ele><time>2026-05-02T08:45:50.992Z</time></trkpt><trkpt lat="44.3333914" lon="4.5147407"><ele>266.0</ele><time>2026-05-02T08:45:51.992Z</time></trkpt><trkpt lat="44.3334524" lon="4.5147627"><ele>267.66666666666663</ele><time>2026-05-02T08:45:52.993Z</time></trkpt><trkpt lat="44.3335676" lon="4.5148046"><ele>269.3333333333333</ele><time>2026-05-02T08:45:54.992Z</time></trkpt><trkpt lat="44.3336513" lon="4.5148464"><ele>271.0</ele><time>2026-05-02T08:45:56.992Z</time></trkpt><trkpt lat="44.3337226" lon="4.5148471"><ele>271.0</ele><time>2026-05-02T08:45:58.991Z</time></trkpt><trkpt lat="44.3337687" lon="4.5147578"><ele>271.0</ele><time>2026-05-02T08:46:01.993Z</time></trkpt><trkpt lat="44.3338386" lon="4.5147216"><ele>271.0</ele><time>2026-05-02T08:46:05.992Z</time></trkpt><trkpt lat="44.3339016" lon="4.5147121"><ele>271.0</ele><time>2026-05-02T08:46:41.993Z</time></trkpt><trkpt lat="44.3339726" lon="4.5147299"><ele>271.0</ele><time>2026-05-02T08:46:54.991Z</time></trkpt><trkpt lat="44.3340201" lon="4.5147908"><ele>271.0</ele><time>2026-05-02T08:47:00.992Z</time></trkpt><trkpt lat="44.3340752" lon="4.5148547"><ele>271.0</ele><time>2026-05-02T08:47:07.912Z</time></trkpt><trkpt lat="44.3341377" lon="4.5148827"><ele>271.0</ele><time>2026-05-02T08:47:56.992Z</time></trkpt><trkpt lat="44.3340811" lon="4.5148289"><ele>271.0</ele><time>2026-05-02T08:48:42.992Z</time></trkpt><trkpt lat="44.3340167" lon="4.5147935"><ele>271.0</ele><time>2026-05-02T08:48:51.007Z</time></trkpt><trkpt lat="44.3339589" lon="4.5147421"><ele>271.0</ele><time>2026-05-02T08:49:02.992Z</time></trkpt><trkpt lat="44.333928" lon="4.5146601"><ele>271.0</ele><time>2026-05-02T08:49:17.992Z</time></trkpt><trkpt lat="44.3338713" lon="4.5147347"><ele>271.0</ele><time>2026-05-02T09:11:34.989Z</time></trkpt><trkpt lat="44.3339109" lon="4.5148173"><ele>271.0</ele><time>2026-05-02T09:11:37.988Z</time></trkpt><trkpt lat="44.3339434" lon="4.5149432"><ele>270.7142857142857</ele><time>2026-05-02T09:11:40.989Z</time></trkpt><trkpt lat="44.3340047" lon="4.5150089"><ele>270.42857142857144</ele><time>2026-05-02T09:11:42.989Z</time></trkpt><trkpt lat="44.3340696" lon="4.5150287"><ele>270.14285714285717</ele><time>2026-05-02T09:11:44.989Z</time></trkpt><trkpt lat="44.3341435" lon="4.5150446"><ele>269.8571428571429</ele><time>2026-05-02T09:11:46.99Z</time></trkpt><trkpt lat="44.3342124" lon="4.5150455"><ele>269.5714285714286</ele><time>2026-05-02T09:11:48.988Z</time></trkpt><trkpt lat="44.3342755" lon="4.5150426"><ele>269.2857142857143</ele><time>2026-05-02T09:11:50.989Z</time></trkpt><trkpt lat="44.3343446" lon="4.515039"><ele>269.0</ele><time>2026-05-02T09:11:52.989Z</time></trkpt><trkpt lat="44.334419" lon="4.5150333"><ele>269.0</ele><time>2026-05-02T09:11:54.988Z</time></trkpt><trkpt lat="44.3344958" lon="4.5150276"><ele>269.0</ele><time>2026-05-02T09:11:56.989Z</time></trkpt><trkpt lat="44.3345772" lon="4.5150237"><ele>269.0</ele><time>2026-05-02T09:11:58.989Z</time></trkpt><trkpt lat="44.3346669" lon="4.5150168"><ele>269.0</ele><time>2026-05-02T09:12:00.989Z</time></trkpt><trkpt lat="44.3347614" lon="4.5150104"><ele>269.0</ele><time>2026-05-02T09:12:02.99Z</time></trkpt><trkpt lat="44.3348582" lon="4.5150006"><ele>269.0</ele><time>2026-05-02T09:12:04.99Z</time></trkpt><trkpt lat="44.3349586" lon="4.5149926"><ele>268.6666666666667</ele><time>2026-05-02T09:12:06.99Z</time></trkpt><trkpt lat="44.3350647" lon="4.5149875"><ele>268.33333333333337</ele><time>2026-05-02T09:12:08.989Z</time></trkpt><trkpt lat="44.3351785" lon="4.5149772"><ele>268.0</ele><time>2026-05-02T09:12:10.989Z</time></trkpt><trkpt lat="44.3352412" lon="4.5149687"><ele>267.6666666666667</ele><time>2026-05-02T09:12:11.99Z</time></trkpt><trkpt lat="44.3353091" lon="4.5149639"><ele>267.3333333333333</ele><time>2026-05-02T09:12:12.99Z</time></trkpt><trkpt lat="44.3353813" lon="4.5149602"><ele>267.0</ele><time>2026-05-02T09:12:13.989Z</time></trkpt><trkpt lat="44.3354593" lon="4.514957"><ele>267.0</ele><time>2026-05-02T09:12:14.988Z</time></trkpt><trkpt lat="44.3355407" lon="4.5149568"><ele>267.0</ele><time>2026-05-02T09:12:15.989Z</time></trkpt><trkpt lat="44.3356248" lon="4.5149626"><ele>267.0</ele><time>2026-05-02T09:12:16.989Z</time></trkpt><trkpt lat="44.3357089" lon="4.514982"><ele>267.0</ele><time>2026-05-02T09:12:17.989Z</time></trkpt><trkpt lat="44.3357934" lon="4.515008"><ele>267.0</ele><time>2026-05-02T09:12:18.99Z</time></trkpt><trkpt lat="44.3358751" lon="4.5150422"><ele>267.0</ele><time>2026-05-02T09:12:19.989Z</time></trkpt><trkpt lat="44.3359551" lon="4.5150834"><ele>266.2</ele><time>2026-05-02T09:12:20.989Z</time></trkpt><trkpt lat="44.3360341" lon="4.5151224"><ele>265.4</ele><time>2026-05-02T09:12:21.989Z</time></trkpt><trkpt lat="44.3361146" lon="4.5151626"><ele>264.6</ele><time>2026-05-02T09:12:22.988Z</time></trkpt><trkpt lat="44.3361973" lon="4.5152038"><ele>263.8</ele><time>2026-05-02T09:12:23.989Z</time></trkpt><trkpt lat="44.3362918" lon="4.5152535"><ele>263.0</ele><time>2026-05-02T09:12:24.989Z</time></trkpt><trkpt lat="44.3363923" lon="4.5153086"><ele>263.5</ele><time>2026-05-02T09:12:25.989Z</time></trkpt><trkpt lat="44.3364987" lon="4.515367"><ele>264.0</ele><time>2026-05-02T09:12:26.99Z</time></trkpt><trkpt lat="44.3366117" lon="4.5154267"><ele>264.5</ele><time>2026-05-02T09:12:27.988Z</time></trkpt><trkpt lat="44.3367336" lon="4.5154894"><ele>265.0</ele><time>2026-05-02T09:12:28.989Z</time></trkpt><trkpt lat="44.3368648" lon="4.5155537"><ele>265.0</ele><time>2026-05-02T09:12:29.989Z</time></trkpt><trkpt lat="44.3370025" lon="4.5156212"><ele>265.0</ele><time>2026-05-02T09:12:30.99Z</time></trkpt><trkpt lat="44.3371456" lon="4.5156921"><ele>265.0</ele><time>2026-05-02T09:12:31.989Z</time></trkpt><trkpt lat="44.3372933" lon="4.5157686"><ele>264.66666666666663</ele><time>2026-05-02T09:12:32.989Z</time></trkpt><trkpt lat="44.337447" lon="4.5158468"><ele>264.3333333333333</ele><time>2026-05-02T09:12:33.989Z</time></trkpt><trkpt lat="44.337598" lon="4.5159237"><ele>264.0</ele><time>2026-05-02T09:12:34.989Z</time></trkpt><trkpt lat="44.3377482" lon="4.5159977"><ele>264.0</ele><time>2026-05-02T09:12:35.99Z</time></trkpt><trkpt lat="44.3378954" lon="4.5160704"><ele>264.0</ele><time>2026-05-02T09:12:36.989Z</time></trkpt><trkpt lat="44.3380425" lon="4.516138"><ele>264.0</ele><time>2026-05-02T09:12:37.99Z</time></trkpt><trkpt lat="44.3381926" lon="4.5161872"><ele>259.0</ele><time>2026-05-02T09:12:38.989Z</time></trkpt><trkpt lat="44.3383461" lon="4.5162083"><ele>254.0</ele><time>2026-05-02T09:12:39.988Z</time></trkpt><trkpt lat="44.3385056" lon="4.5162012"><ele>249.0</ele><time>2026-05-02T09:12:40.99Z</time></trkpt><trkpt lat="44.3386678" lon="4.5161793"><ele>249.0</ele><time>2026-05-02T09:12:41.989Z</time></trkpt><trkpt lat="44.33883" lon="4.5161622"><ele>249.0</ele><time>2026-05-02T09:12:42.989Z</time></trkpt><trkpt lat="44.3389867" lon="4.5161465"><ele>249.0</ele><time>2026-05-02T09:12:43.989Z</time></trkpt><trkpt lat="44.3391275" lon="4.5161233"><ele>249.25</ele><time>2026-05-02T09:12:44.989Z</time></trkpt><trkpt lat="44.3392441" lon="4.5160652"><ele>249.5</ele><time>2026-05-02T09:12:45.989Z</time></trkpt><trkpt lat="44.3393445" lon="4.5159803"><ele>249.75</ele><time>2026-05-02T09:12:46.989Z</time></trkpt><trkpt lat="44.3394152" lon="4.5158716"><ele>250.0</ele><time>2026-05-02T09:12:47.989Z</time></trkpt><trkpt lat="44.3394576" lon="4.5157393"><ele>250.0</ele><time>2026-05-02T09:12:48.989Z</time></trkpt><trkpt lat="44.3394691" lon="4.5155936"><ele>250.0</ele><time>2026-05-02T09:12:49.989Z</time></trkpt><trkpt lat="44.3394485" lon="4.5154452"><ele>250.0</ele><time>2026-05-02T09:12:50.99Z</time></trkpt><trkpt lat="44.339397" lon="4.515308"><ele>250.0</ele><time>2026-05-02T09:12:51.989Z</time></trkpt><trkpt lat="44.3393197" lon="4.5151926"><ele>250.0</ele><time>2026-05-02T09:12:52.989Z</time></trkpt><trkpt lat="44.3392265" lon="4.5151078"><ele>250.0</ele><time>2026-05-02T09:12:53.988Z</time></trkpt><trkpt lat="44.3391276" lon="4.515028"><ele>250.0</ele><time>2026-05-02T09:12:54.989Z</time></trkpt><trkpt lat="44.3390333" lon="4.5149362"><ele>250.0</ele><time>2026-05-02T09:12:55.989Z</time></trkpt><trkpt lat="44.3389439" lon="4.5148274"><ele>250.0</ele><time>2026-05-02T09:12:56.99Z</time></trkpt><trkpt lat="44.3388735" lon="4.5146887"><ele>248.5</ele><time>2026-05-02T09:12:57.989Z</time></trkpt><trkpt lat="44.3388172" lon="4.5145292"><ele>247.0</ele><time>2026-05-02T09:12:58.99Z</time></trkpt><trkpt lat="44.3387719" lon="4.5143489"><ele>245.5</ele><time>2026-05-02T09:12:59.99Z</time></trkpt><trkpt lat="44.3387347" lon="4.5141518"><ele>244.0</ele><time>2026-05-02T09:13:00.989Z</time></trkpt><trkpt lat="44.3386984" lon="4.5139405"><ele>246.66666666666666</ele><time>2026-05-02T09:13:01.989Z</time></trkpt><trkpt lat="44.3386562" lon="4.5137216"><ele>249.33333333333331</ele><time>2026-05-02T09:13:02.989Z</time></trkpt><trkpt lat="44.3385951" lon="4.5135061"><ele>252.0</ele><time>2026-05-02T09:13:03.99Z</time></trkpt><trkpt lat="44.3385029" lon="4.5133021"><ele>252.0</ele><time>2026-05-02T09:13:04.99Z</time></trkpt><trkpt lat="44.3383938" lon="4.5131063"><ele>252.0</ele><time>2026-05-02T09:13:05.989Z</time></trkpt><trkpt lat="44.3382878" lon="4.5129244"><ele>252.0</ele><time>2026-05-02T09:13:06.989Z</time></trkpt><trkpt lat="44.3382066" lon="4.5127415"><ele>255.0</ele><time>2026-05-02T09:13:07.989Z</time></trkpt><trkpt lat="44.3381484" lon="4.5125496"><ele>258.0</ele><time>2026-05-02T09:13:08.989Z</time></trkpt><trkpt lat="44.3381136" lon="4.5123438"><ele>261.0</ele><time>2026-05-02T09:13:09.99Z</time></trkpt><trkpt lat="44.3381018" lon="4.5121427"><ele>264.0</ele><time>2026-05-02T09:13:10.989Z</time></trkpt><trkpt lat="44.3381187" lon="4.5119452"><ele>264.0</ele><time>2026-05-02T09:13:11.989Z</time></trkpt><trkpt lat="44.3381641" lon="4.5117452"><ele>264.0</ele><time>2026-05-02T09:13:12.99Z</time></trkpt><trkpt lat="44.3382279" lon="4.5115443"><ele>264.0</ele><time>2026-05-02T09:13:13.988Z</time></trkpt><trkpt lat="44.33831" lon="4.5113423"><ele>264.0</ele><time>2026-05-02T09:13:14.989Z</time></trkpt><trkpt lat="44.3384143" lon="4.5111424"><ele>264.0</ele><time>2026-05-02T09:13:15.988Z</time></trkpt><trkpt lat="44.3385295" lon="4.5109312"><ele>264.0</ele><time>2026-05-02T09:13:16.988Z</time></trkpt><trkpt lat="44.338645" lon="4.510706"><ele>261.3333333333333</ele><time>2026-05-02T09:13:17.988Z</time></trkpt><trkpt lat="44.3387727" lon="4.5104858"><ele>258.66666666666663</ele><time>2026-05-02T09:13:18.988Z</time></trkpt><trkpt lat="44.3389119" lon="4.5102845"><ele>256.0</ele><time>2026-05-02T09:13:19.988Z</time></trkpt><trkpt lat="44.3390577" lon="4.5101085"><ele>256.0</ele><time>2026-05-02T09:13:20.989Z</time></trkpt><trkpt lat="44.3392112" lon="4.5099703"><ele>256.0</ele><time>2026-05-02T09:13:21.988Z</time></trkpt><trkpt lat="44.3393712" lon="4.5098704"><ele>256.0</ele><time>2026-05-02T09:13:22.988Z</time></trkpt><trkpt lat="44.3395373" lon="4.5098073"><ele>256.0</ele><time>2026-05-02T09:13:23.988Z</time></trkpt><trkpt lat="44.3397059" lon="4.5097711"><ele>256.0</ele><time>2026-05-02T09:13:24.988Z</time></trkpt><trkpt lat="44.3398763" lon="4.5097484"><ele>256.0</ele><time>2026-05-02T09:13:25.989Z</time></trkpt><trkpt lat="44.3400497" lon="4.5097325"><ele>258.3333333333333</ele><time>2026-05-02T09:13:26.988Z</time></trkpt><trkpt lat="44.3402272" lon="4.5097246"><ele>260.6666666666667</ele><time>2026-05-02T09:13:27.988Z</time></trkpt><trkpt lat="44.3404073" lon="4.5097187"><ele>263.0</ele><time>2026-05-02T09:13:28.988Z</time></trkpt><trkpt lat="44.3405897" lon="4.5097112"><ele>264.33333333333337</ele><time>2026-05-02T09:13:29.988Z</time></trkpt><trkpt lat="44.3407764" lon="4.5097005"><ele>265.6666666666667</ele><time>2026-05-02T09:13:30.988Z</time></trkpt><trkpt lat="44.3409655" lon="4.5096946"><ele>267.0</ele><time>2026-05-02T09:13:31.988Z</time></trkpt><trkpt lat="44.3411566" lon="4.5096911"><ele>267.0</ele><time>2026-05-02T09:13:32.988Z</time></trkpt><trkpt lat="44.3413444" lon="4.5096863"><ele>267.0</ele><time>2026-05-02T09:13:33.987Z</time></trkpt><trkpt lat="44.341532" lon="4.5096796"><ele>267.0</ele><time>2026-05-02T09:13:34.988Z</time></trkpt><trkpt lat="44.3417172" lon="4.509671"><ele>268.3333333333333</ele><time>2026-05-02T09:13:35.988Z</time></trkpt><trkpt lat="44.3419021" lon="4.5096651"><ele>269.66666666666663</ele><time>2026-05-02T09:13:36.987Z</time></trkpt><trkpt lat="44.3420844" lon="4.5096582"><ele>271.0</ele><time>2026-05-02T09:13:37.989Z</time></trkpt><trkpt lat="44.3422678" lon="4.5096575"><ele>271.3333333333333</ele><time>2026-05-02T09:13:38.989Z</time></trkpt><trkpt lat="44.3424476" lon="4.5096544"><ele>271.6666666666667</ele><time>2026-05-02T09:13:39.988Z</time></trkpt><trkpt lat="44.3426295" lon="4.5096505"><ele>272.0</ele><time>2026-05-02T09:13:40.989Z</time></trkpt><trkpt lat="44.3428103" lon="4.509641"><ele>272.0</ele><time>2026-05-02T09:13:41.988Z</time></trkpt><trkpt lat="44.342993" lon="4.5096194"><ele>272.0</ele><time>2026-05-02T09:13:42.989Z</time></trkpt><trkpt lat="44.3431761" lon="4.5095742"><ele>272.0</ele><time>2026-05-02T09:13:43.988Z</time></trkpt><trkpt lat="44.3433558" lon="4.5095013"><ele>272.6666666666667</ele><time>2026-05-02T09:13:44.988Z</time></trkpt><trkpt lat="44.3435333" lon="4.5093984"><ele>273.3333333333333</ele><time>2026-05-02T09:13:45.987Z</time></trkpt><trkpt lat="44.3437071" lon="4.5092789"><ele>274.0</ele><time>2026-05-02T09:13:46.988Z</time></trkpt><trkpt lat="44.3438839" lon="4.5091532"><ele>275.0</ele><time>2026-05-02T09:13:47.989Z</time></trkpt><trkpt lat="44.3440628" lon="4.5090268"><ele>276.0</ele><time>2026-05-02T09:13:48.988Z</time></trkpt><trkpt lat="44.3442416" lon="4.5089018"><ele>277.0</ele><time>2026-05-02T09:13:49.988Z</time></trkpt><trkpt lat="44.3444228" lon="4.5087763"><ele>278.3333333333333</ele><time>2026-05-02T09:13:50.988Z</time></trkpt><trkpt lat="44.3446022" lon="4.5086545"><ele>279.6666666666667</ele><time>2026-05-02T09:13:51.989Z</time></trkpt><trkpt lat="44.3447817" lon="4.5085381"><ele>281.0</ele><time>2026-05-02T09:13:52.989Z</time></trkpt><trkpt lat="44.3449581" lon="4.5084252"><ele>281.0</ele><time>2026-05-02T09:13:53.988Z</time></trkpt><trkpt lat="44.3451291" lon="4.5083125"><ele>281.0</ele><time>2026-05-02T09:13:54.988Z</time></trkpt><trkpt lat="44.3452954" lon="4.5081939"><ele>281.0</ele><time>2026-05-02T09:13:55.988Z</time></trkpt><trkpt lat="44.345452" lon="4.5080616"><ele>283.6666666666667</ele><time>2026-05-02T09:13:56.987Z</time></trkpt><trkpt lat="44.3455976" lon="4.5079122"><ele>286.3333333333333</ele><time>2026-05-02T09:13:57.988Z</time></trkpt><trkpt lat="44.345732" lon="4.5077456"><ele>289.0</ele><time>2026-05-02T09:13:58.988Z</time></trkpt><trkpt lat="44.3458539" lon="4.507564"><ele>289.0</ele><time>2026-05-02T09:13:59.989Z</time></trkpt><trkpt lat="44.3459628" lon="4.5073748"><ele>289.0</ele><time>2026-05-02T09:14:00.988Z</time></trkpt><trkpt lat="44.3460624" lon="4.5071917"><ele>289.0</ele><time>2026-05-02T09:14:01.988Z</time></trkpt><trkpt lat="44.3461554" lon="4.5070235"><ele>289.25</ele><time>2026-05-02T09:14:02.988Z</time></trkpt><trkpt lat="44.346243" lon="4.5068695"><ele>289.5</ele><time>2026-05-02T09:14:03.988Z</time></trkpt><trkpt lat="44.3463282" lon="4.5067203"><ele>289.75</ele><time>2026-05-02T09:14:04.988Z</time></trkpt><trkpt lat="44.3464128" lon="4.5065747"><ele>290.0</ele><time>2026-05-02T09:14:05.989Z</time></trkpt><trkpt lat="44.3464945" lon="4.5064354"><ele>290.0</ele><time>2026-05-02T09:14:06.987Z</time></trkpt><trkpt lat="44.3465747" lon="4.5062954"><ele>290.0</ele><time>2026-05-02T09:14:07.988Z</time></trkpt><trkpt lat="44.3466607" lon="4.5061421"><ele>290.0</ele><time>2026-05-02T09:14:08.988Z</time></trkpt><trkpt lat="44.3467534" lon="4.5059789"><ele>290.0</ele><time>2026-05-02T09:14:09.988Z</time></trkpt><trkpt lat="44.3468503" lon="4.5058107"><ele>281.0</ele><time>2026-05-02T09:14:10.988Z</time></trkpt><trkpt lat="44.3469483" lon="4.505643"><ele>272.0</ele><time>2026-05-02T09:14:11.988Z</time></trkpt><trkpt lat="44.347042" lon="4.505488"><ele>263.0</ele><time>2026-05-02T09:14:12.988Z</time></trkpt><trkpt lat="44.347115" lon="4.5053398"><ele>254.0</ele><time>2026-05-02T09:14:13.988Z</time></trkpt><trkpt lat="44.3471439" lon="4.5051803"><ele>252.75</ele><time>2026-05-02T09:14:14.987Z</time></trkpt><trkpt lat="44.3471412" lon="4.505017"><ele>251.5</ele><time>2026-05-02T09:14:15.988Z</time></trkpt><trkpt lat="44.3471033" lon="4.5048625"><ele>250.25</ele><time>2026-05-02T09:14:16.988Z</time></trkpt><trkpt lat="44.3470342" lon="4.5047157"><ele>249.0</ele><time>2026-05-02T09:14:17.987Z</time></trkpt><trkpt lat="44.3469481" lon="4.5045671"><ele>249.0</ele><time>2026-05-02T09:14:18.988Z</time></trkpt><trkpt lat="44.3468697" lon="4.5044099"><ele>249.0</ele><time>2026-05-02T09:14:19.988Z</time></trkpt><trkpt lat="44.3468172" lon="4.5042349"><ele>249.0</ele><time>2026-05-02T09:14:20.988Z</time></trkpt><trkpt lat="44.3467983" lon="4.5040618"><ele>249.0</ele><time>2026-05-02T09:14:21.988Z</time></trkpt><trkpt lat="44.3468266" lon="4.5038995"><ele>249.0</ele><time>2026-05-02T09:14:22.988Z</time></trkpt><trkpt lat="44.3468913" lon="4.5037661"><ele>249.0</ele><time>2026-05-02T09:14:23.988Z</time></trkpt><trkpt lat="44.3469862" lon="4.5036705"><ele>249.0</ele><time>2026-05-02T09:14:24.988Z</time></trkpt><trkpt lat="44.347105" lon="4.5036119"><ele>249.0</ele><time>2026-05-02T09:14:25.988Z</time></trkpt><trkpt lat="44.3472404" lon="4.5035783"><ele>254.66666666666669</ele><time>2026-05-02T09:14:26.988Z</time></trkpt><trkpt lat="44.3473884" lon="4.5035495"><ele>260.33333333333337</ele><time>2026-05-02T09:14:27.988Z</time></trkpt><trkpt lat="44.3475424" lon="4.5035136"><ele>266.0</ele><time>2026-05-02T09:14:28.988Z</time></trkpt><trkpt lat="44.3476941" lon="4.5034682"><ele>266.0</ele><time>2026-05-02T09:14:29.988Z</time></trkpt><trkpt lat="44.3478346" lon="4.5034003"><ele>266.0</ele><time>2026-05-02T09:14:30.988Z</time></trkpt><trkpt lat="44.3479574" lon="4.5032938"><ele>266.0</ele><time>2026-05-02T09:14:31.988Z</time></trkpt><trkpt lat="44.3480611" lon="4.5031469"><ele>266.0</ele><time>2026-05-02T09:14:32.988Z</time></trkpt><trkpt lat="44.3481372" lon="4.5029682"><ele>269.5</ele><time>2026-05-02T09:14:33.988Z</time></trkpt><trkpt lat="44.3481825" lon="4.5027749"><ele>273.0</ele><time>2026-05-02T09:14:34.988Z</time></trkpt><trkpt lat="44.3481929" lon="4.5025663"><ele>276.5</ele><time>2026-05-02T09:14:35.988Z</time></trkpt><trkpt lat="44.348173" lon="4.5023607"><ele>280.0</ele><time>2026-05-02T09:14:36.988Z</time></trkpt><trkpt lat="44.348114" lon="4.5021639"><ele>273.66666666666663</ele><time>2026-05-02T09:14:37.988Z</time></trkpt><trkpt lat="44.348022" lon="4.5019892"><ele>267.3333333333333</ele><time>2026-05-02T09:14:38.988Z</time></trkpt><trkpt lat="44.3478997" lon="4.5018448"><ele>261.0</ele><time>2026-05-02T09:14:39.988Z</time></trkpt><trkpt lat="44.3477545" lon="4.5017451"><ele>261.0</ele><time>2026-05-02T09:14:40.988Z</time></trkpt><trkpt lat="44.3475927" lon="4.5016705"><ele>261.0</ele><time>2026-05-02T09:14:41.988Z</time></trkpt><trkpt lat="44.3474229" lon="4.5015981"><ele>261.0</ele><time>2026-05-02T09:14:42.988Z</time></trkpt><trkpt lat="44.3472455" lon="4.5015255"><ele>261.3333333333333</ele><time>2026-05-02T09:14:43.989Z</time></trkpt><trkpt lat="44.3470722" lon="4.5014456"><ele>261.66666666666663</ele><time>2026-05-02T09:14:44.988Z</time></trkpt><trkpt lat="44.346905" lon="4.5013477"><ele>262.0</ele><time>2026-05-02T09:14:45.988Z</time></trkpt><trkpt lat="44.3467479" lon="4.5012361"><ele>262.0</ele><time>2026-05-02T09:14:46.989Z</time></trkpt><trkpt lat="44.3465994" lon="4.5011134"><ele>262.0</ele><time>2026-05-02T09:14:47.988Z</time></trkpt><trkpt lat="44.3464599" lon="4.5009806"><ele>262.0</ele><time>2026-05-02T09:14:48.988Z</time></trkpt><trkpt lat="44.3463228" lon="4.5008476"><ele>259.66666666666663</ele><time>2026-05-02T09:14:49.989Z</time></trkpt><trkpt lat="44.3461834" lon="4.5007062"><ele>257.3333333333333</ele><time>2026-05-02T09:14:50.987Z</time></trkpt><trkpt lat="44.3460425" lon="4.5005612"><ele>255.0</ele><time>2026-05-02T09:14:51.988Z</time></trkpt><trkpt lat="44.3459005" lon="4.500414"><ele>255.0</ele><time>2026-05-02T09:14:52.988Z</time></trkpt><trkpt lat="44.345758" lon="4.5002628"><ele>255.0</ele><time>2026-05-02T09:14:53.989Z</time></trkpt><trkpt lat="44.3456157" lon="4.500099"><ele>255.0</ele><time>2026-05-02T09:14:54.989Z</time></trkpt><trkpt lat="44.3454743" lon="4.4999182"><ele>254.33333333333331</ele><time>2026-05-02T09:14:55.988Z</time></trkpt><trkpt lat="44.3453319" lon="4.4997286"><ele>253.66666666666666</ele><time>2026-05-02T09:14:56.989Z</time></trkpt><trkpt lat="44.3451846" lon="4.4995283"><ele>253.0</ele><time>2026-05-02T09:14:57.988Z</time></trkpt><trkpt lat="44.3450337" lon="4.4993299"><ele>253.0</ele><time>2026-05-02T09:14:58.988Z</time></trkpt><trkpt lat="44.3448762" lon="4.4991423"><ele>253.0</ele><time>2026-05-02T09:14:59.989Z</time></trkpt><trkpt lat="44.3447139" lon="4.4989672"><ele>253.0</ele><time>2026-05-02T09:15:00.988Z</time></trkpt><trkpt lat="44.344549" lon="4.498802"><ele>254.33333333333331</ele><time>2026-05-02T09:15:01.988Z</time></trkpt><trkpt lat="44.3443877" lon="4.4986389"><ele>255.66666666666669</ele><time>2026-05-02T09:15:02.989Z</time></trkpt><trkpt lat="44.3442294" lon="4.4984791"><ele>257.0</ele><time>2026-05-02T09:15:03.988Z</time></trkpt><trkpt lat="44.3440739" lon="4.4983204"><ele>257.0</ele><time>2026-05-02T09:15:04.988Z</time></trkpt><trkpt lat="44.3439207" lon="4.498166"><ele>257.0</ele><time>2026-05-02T09:15:05.988Z</time></trkpt><trkpt lat="44.3437772" lon="4.498013"><ele>257.0</ele><time>2026-05-02T09:15:06.988Z</time></trkpt><trkpt lat="44.3436436" lon="4.4978639"><ele>257.33333333333337</ele><time>2026-05-02T09:15:07.988Z</time></trkpt><trkpt lat="44.3435191" lon="4.497716"><ele>257.6666666666667</ele><time>2026-05-02T09:15:08.989Z</time></trkpt><trkpt lat="44.3433921" lon="4.4975683"><ele>258.0</ele><time>2026-05-02T09:15:09.989Z</time></trkpt><trkpt lat="44.3432614" lon="4.4974178"><ele>258.0</ele><time>2026-05-02T09:15:10.988Z</time></trkpt><trkpt lat="44.3431256" lon="4.4972609"><ele>258.0</ele><time>2026-05-02T09:15:11.989Z</time></trkpt><trkpt lat="44.3429869" lon="4.4970952"><ele>258.0</ele><time>2026-05-02T09:15:12.988Z</time></trkpt><trkpt lat="44.3428424" lon="4.4969229"><ele>258.3333333333333</ele><time>2026-05-02T09:15:13.987Z</time></trkpt><trkpt lat="44.342696" lon="4.4967488"><ele>258.66666666666663</ele><time>2026-05-02T09:15:14.988Z</time></trkpt><trkpt lat="44.3425514" lon="4.4965791"><ele>259.0</ele><time>2026-05-02T09:15:15.989Z</time></trkpt><trkpt lat="44.3424087" lon="4.4964165"><ele>259.0</ele><time>2026-05-02T09:15:16.989Z</time></trkpt><trkpt lat="44.3422667" lon="4.4962563"><ele>259.0</ele><time>2026-05-02T09:15:17.989Z</time></trkpt><trkpt lat="44.3421299" lon="4.4960965"><ele>259.0</ele><time>2026-05-02T09:15:18.989Z</time></trkpt><trkpt lat="44.3419946" lon="4.4959319"><ele>257.0</ele><time>2026-05-02T09:15:19.988Z</time></trkpt><trkpt lat="44.3418661" lon="4.4957573"><ele>255.0</ele><time>2026-05-02T09:15:20.988Z</time></trkpt><trkpt lat="44.3417453" lon="4.4955695"><ele>253.0</ele><time>2026-05-02T09:15:21.988Z</time></trkpt><trkpt lat="44.3416376" lon="4.4953725"><ele>252.66666666666666</ele><time>2026-05-02T09:15:22.988Z</time></trkpt><trkpt lat="44.3415411" lon="4.4951745"><ele>252.33333333333331</ele><time>2026-05-02T09:15:23.988Z</time></trkpt><trkpt lat="44.3414558" lon="4.494987"><ele>252.0</ele><time>2026-05-02T09:15:24.988Z</time></trkpt><trkpt lat="44.3413796" lon="4.4948095"><ele>243.5</ele><time>2026-05-02T09:15:25.988Z</time></trkpt><trkpt lat="44.3413054" lon="4.4946327"><ele>235.0</ele><time>2026-05-02T09:15:26.989Z</time></trkpt><trkpt lat="44.3412326" lon="4.4944602"><ele>226.5</ele><time>2026-05-02T09:15:27.988Z</time></trkpt><trkpt lat="44.3411706" lon="4.4942931"><ele>218.0</ele><time>2026-05-02T09:15:28.989Z</time></trkpt><trkpt lat="44.3411351" lon="4.4941327"><ele>218.0</ele><time>2026-05-02T09:15:29.988Z</time></trkpt><trkpt lat="44.3411307" lon="4.493976"><ele>218.0</ele><time>2026-05-02T09:15:30.989Z</time></trkpt><trkpt lat="44.3411642" lon="4.4938322"><ele>218.0</ele><time>2026-05-02T09:15:31.988Z</time></trkpt><trkpt lat="44.3412301" lon="4.4937153"><ele>218.0</ele><time>2026-05-02T09:15:32.988Z</time></trkpt><trkpt lat="44.3413249" lon="4.4936338"><ele>218.0</ele><time>2026-05-02T09:15:33.989Z</time></trkpt><trkpt lat="44.3414355" lon="4.493592"><ele>223.5</ele><time>2026-05-02T09:15:34.989Z</time></trkpt><trkpt lat="44.3415501" lon="4.493602"><ele>229.0</ele><time>2026-05-02T09:15:35.988Z</time></trkpt><trkpt lat="44.3416699" lon="4.4936668"><ele>234.5</ele><time>2026-05-02T09:15:36.988Z</time></trkpt><trkpt lat="44.3417919" lon="4.4937669"><ele>240.0</ele><time>2026-05-02T09:15:37.988Z</time></trkpt><trkpt lat="44.3419228" lon="4.493883"><ele>242.0</ele><time>2026-05-02T09:15:38.988Z</time></trkpt><trkpt lat="44.342066" lon="4.4940049"><ele>244.0</ele><time>2026-05-02T09:15:39.988Z</time></trkpt><trkpt lat="44.3422185" lon="4.4941254"><ele>246.0</ele><time>2026-05-02T09:15:40.988Z</time></trkpt><trkpt lat="44.3423791" lon="4.4942453"><ele>246.0</ele><time>2026-05-02T09:15:41.989Z</time></trkpt><trkpt lat="44.3425493" lon="4.4943554"><ele>246.0</ele><time>2026-05-02T09:15:42.988Z</time></trkpt><trkpt lat="44.3427315" lon="4.4944469"><ele>246.0</ele><time>2026-05-02T09:15:43.989Z</time></trkpt><trkpt lat="44.3429193" lon="4.4945288"><ele>248.0</ele><time>2026-05-02T09:15:44.988Z</time></trkpt><trkpt lat="44.3431167" lon="4.4946043"><ele>250.0</ele><time>2026-05-02T09:15:45.988Z</time></trkpt><trkpt lat="44.3433192" lon="4.4946755"><ele>252.0</ele><time>2026-05-02T09:15:46.989Z</time></trkpt><trkpt lat="44.3435216" lon="4.4947379"><ele>252.0</ele><time>2026-05-02T09:15:47.987Z</time></trkpt><trkpt lat="44.3437243" lon="4.4947911"><ele>252.0</ele><time>2026-05-02T09:15:48.989Z</time></trkpt><trkpt lat="44.343923" lon="4.4948325"><ele>252.0</ele><time>2026-05-02T09:15:49.988Z</time></trkpt><trkpt lat="44.3441188" lon="4.4948683"><ele>251.66666666666669</ele><time>2026-05-02T09:15:50.988Z</time></trkpt><trkpt lat="44.3443111" lon="4.4949031"><ele>251.33333333333334</ele><time>2026-05-02T09:15:51.989Z</time></trkpt><trkpt lat="44.3445029" lon="4.4949386"><ele>251.0</ele><time>2026-05-02T09:15:52.989Z</time></trkpt><trkpt lat="44.34469" lon="4.4949705"><ele>249.66666666666669</ele><time>2026-05-02T09:15:53.988Z</time></trkpt><trkpt lat="44.3448692" lon="4.494997"><ele>248.33333333333331</ele><time>2026-05-02T09:15:54.988Z</time></trkpt><trkpt lat="44.3450336" lon="4.4950289"><ele>247.0</ele><time>2026-05-02T09:15:55.988Z</time></trkpt><trkpt lat="44.3451811" lon="4.4950612"><ele>247.0</ele><time>2026-05-02T09:15:56.989Z</time></trkpt><trkpt lat="44.3453184" lon="4.495073"><ele>247.0</ele><time>2026-05-02T09:15:57.987Z</time></trkpt><trkpt lat="44.3454493" lon="4.4950468"><ele>247.0</ele><time>2026-05-02T09:15:58.988Z</time></trkpt><trkpt lat="44.3455675" lon="4.4949813"><ele>247.0</ele><time>2026-05-02T09:15:59.988Z</time></trkpt><trkpt lat="44.3456623" lon="4.4948744"><ele>246.75</ele><time>2026-05-02T09:16:00.989Z</time></trkpt><trkpt lat="44.3457248" lon="4.4947349"><ele>246.5</ele><time>2026-05-02T09:16:01.988Z</time></trkpt><trkpt lat="44.3457586" lon="4.4945708"><ele>246.25</ele><time>2026-05-02T09:16:02.989Z</time></trkpt><trkpt lat="44.345752" lon="4.4943966"><ele>246.0</ele><time>2026-05-02T09:16:03.987Z</time></trkpt><trkpt lat="44.3457134" lon="4.4942247"><ele>246.0</ele><time>2026-05-02T09:16:04.988Z</time></trkpt><trkpt lat="44.3456535" lon="4.4940544"><ele>246.0</ele><time>2026-05-02T09:16:05.988Z</time></trkpt><trkpt lat="44.3455745" lon="4.4938796"><ele>246.0</ele><time>2026-05-02T09:16:06.988Z</time></trkpt><trkpt lat="44.3454897" lon="4.4936942"><ele>246.0</ele><time>2026-05-02T09:16:07.989Z</time></trkpt><trkpt lat="44.3453996" lon="4.4934958"><ele>246.0</ele><time>2026-05-02T09:16:08.988Z</time></trkpt><trkpt lat="44.345304" lon="4.4932865"><ele>246.0</ele><time>2026-05-02T09:16:09.988Z</time></trkpt><trkpt lat="44.3452041" lon="4.4930708"><ele>246.0</ele><time>2026-05-02T09:16:10.988Z</time></trkpt><trkpt lat="44.3450985" lon="4.4928501"><ele>248.0</ele><time>2026-05-02T09:16:11.989Z</time></trkpt><trkpt lat="44.3449955" lon="4.4926219"><ele>250.0</ele><time>2026-05-02T09:16:12.988Z</time></trkpt><trkpt lat="44.3448917" lon="4.4923873"><ele>252.0</ele><time>2026-05-02T09:16:13.988Z</time></trkpt><trkpt lat="44.3447837" lon="4.4921504"><ele>249.33333333333331</ele><time>2026-05-02T09:16:14.988Z</time></trkpt><trkpt lat="44.3446641" lon="4.4919222"><ele>246.66666666666666</ele><time>2026-05-02T09:16:15.988Z</time></trkpt><trkpt lat="44.3445363" lon="4.4916965"><ele>244.0</ele><time>2026-05-02T09:16:16.989Z</time></trkpt><trkpt lat="44.3444071" lon="4.4914759"><ele>244.0</ele><time>2026-05-02T09:16:17.987Z</time></trkpt><trkpt lat="44.3442794" lon="4.4912593"><ele>244.0</ele><time>2026-05-02T09:16:18.988Z</time></trkpt><trkpt lat="44.3441521" lon="4.491046"><ele>244.0</ele><time>2026-05-02T09:16:19.988Z</time></trkpt><trkpt lat="44.3440239" lon="4.4908315"><ele>244.0</ele><time>2026-05-02T09:16:20.988Z</time></trkpt><trkpt lat="44.3438973" lon="4.4906179"><ele>244.0</ele><time>2026-05-02T09:16:21.988Z</time></trkpt><trkpt lat="44.34377" lon="4.4904094"><ele>244.0</ele><time>2026-05-02T09:16:22.989Z</time></trkpt><trkpt lat="44.3436422" lon="4.4902027"><ele>244.0</ele><time>2026-05-02T09:16:23.988Z</time></trkpt><trkpt lat="44.3435159" lon="4.4899955"><ele>244.0</ele><time>2026-05-02T09:16:24.989Z</time></trkpt><trkpt lat="44.3433909" lon="4.4897946"><ele>244.0</ele><time>2026-05-02T09:16:25.988Z</time></trkpt><trkpt lat="44.3432678" lon="4.4896017"><ele>244.0</ele><time>2026-05-02T09:16:26.988Z</time></trkpt><trkpt lat="44.3431441" lon="4.4894131"><ele>244.0</ele><time>2026-05-02T09:16:27.988Z</time></trkpt><trkpt lat="44.3430227" lon="4.4892253"><ele>244.0</ele><time>2026-05-02T09:16:28.987Z</time></trkpt><trkpt lat="44.3429057" lon="4.4890463"><ele>244.0</ele><time>2026-05-02T09:16:29.989Z</time></trkpt><trkpt lat="44.3427944" lon="4.4888745"><ele>244.0</ele><time>2026-05-02T09:16:30.988Z</time></trkpt><trkpt lat="44.3426828" lon="4.4887053"><ele>244.0</ele><time>2026-05-02T09:16:31.988Z</time></trkpt><trkpt lat="44.3425712" lon="4.488538"><ele>245.33333333333331</ele><time>2026-05-02T09:16:32.989Z</time></trkpt><trkpt lat="44.3424632" lon="4.4883762"><ele>246.66666666666669</ele><time>2026-05-02T09:16:33.989Z</time></trkpt><trkpt lat="44.3423594" lon="4.4882197"><ele>248.0</ele><time>2026-05-02T09:16:34.989Z</time></trkpt><trkpt lat="44.3422601" lon="4.48806"><ele>246.5</ele><time>2026-05-02T09:16:35.987Z</time></trkpt><trkpt lat="44.3421785" lon="4.4878849"><ele>245.0</ele><time>2026-05-02T09:16:36.988Z</time></trkpt><trkpt lat="44.3421282" lon="4.4876941"><ele>243.5</ele><time>2026-05-02T09:16:37.989Z</time></trkpt><trkpt lat="44.3421165" lon="4.4875022"><ele>242.0</ele><time>2026-05-02T09:16:38.987Z</time></trkpt><trkpt lat="44.3421396" lon="4.4873167"><ele>242.0</ele><time>2026-05-02T09:16:39.989Z</time></trkpt><trkpt lat="44.3421921" lon="4.4871413"><ele>242.0</ele><time>2026-05-02T09:16:40.989Z</time></trkpt><trkpt lat="44.3422671" lon="4.4869768"><ele>242.0</ele><time>2026-05-02T09:16:41.988Z</time></trkpt><trkpt lat="44.3423551" lon="4.4868152"><ele>242.0</ele><time>2026-05-02T09:16:42.988Z</time></trkpt><trkpt lat="44.3424521" lon="4.4866457"><ele>245.0</ele><time>2026-05-02T09:16:43.988Z</time></trkpt><trkpt lat="44.3425563" lon="4.4864732"><ele>248.0</ele><time>2026-05-02T09:16:44.987Z</time></trkpt><trkpt lat="44.3426588" lon="4.4862979"><ele>251.0</ele><time>2026-05-02T09:16:45.989Z</time></trkpt><trkpt lat="44.34274" lon="4.4861002"><ele>251.0</ele><time>2026-05-02T09:16:46.988Z</time></trkpt><trkpt lat="44.3427995" lon="4.4858855"><ele>251.0</ele><time>2026-05-02T09:16:47.988Z</time></trkpt><trkpt lat="44.3428416" lon="4.4856593"><ele>251.0</ele><time>2026-05-02T09:16:48.988Z</time></trkpt><trkpt lat="44.3428727" lon="4.485422"><ele>252.66666666666669</ele><time>2026-05-02T09:16:49.988Z</time></trkpt><trkpt lat="44.3428992" lon="4.48518"><ele>254.33333333333331</ele><time>2026-05-02T09:16:50.989Z</time></trkpt><trkpt lat="44.342919" lon="4.4849478"><ele>256.0</ele><time>2026-05-02T09:16:51.988Z</time></trkpt><trkpt lat="44.3429367" lon="4.4847258"><ele>257.75</ele><time>2026-05-02T09:16:52.989Z</time></trkpt><trkpt lat="44.3429701" lon="4.4845174"><ele>259.5</ele><time>2026-05-02T09:16:53.989Z</time></trkpt><trkpt lat="44.3430277" lon="4.4843281"><ele>261.25</ele><time>2026-05-02T09:16:54.989Z</time></trkpt><trkpt lat="44.3431085" lon="4.4841623"><ele>263.0</ele><time>2026-05-02T09:16:55.987Z</time></trkpt><trkpt lat="44.3432074" lon="4.4840148"><ele>263.75</ele><time>2026-05-02T09:16:56.989Z</time></trkpt><trkpt lat="44.3433197" lon="4.4838814"><ele>264.5</ele><time>2026-05-02T09:16:57.988Z</time></trkpt><trkpt lat="44.3434366" lon="4.4837544"><ele>265.25</ele><time>2026-05-02T09:16:58.988Z</time></trkpt><trkpt lat="44.3435524" lon="4.4836327"><ele>266.0</ele><time>2026-05-02T09:16:59.988Z</time></trkpt><trkpt lat="44.3436601" lon="4.4835175"><ele>266.0</ele><time>2026-05-02T09:17:00.988Z</time></trkpt><trkpt lat="44.3437571" lon="4.4834054"><ele>266.0</ele><time>2026-05-02T09:17:01.989Z</time></trkpt><trkpt lat="44.3438397" lon="4.4832829"><ele>266.0</ele><time>2026-05-02T09:17:02.988Z</time></trkpt><trkpt lat="44.343895" lon="4.4831413"><ele>266.0</ele><time>2026-05-02T09:17:03.988Z</time></trkpt><trkpt lat="44.3439142" lon="4.482992"><ele>266.75</ele><time>2026-05-02T09:17:04.988Z</time></trkpt><trkpt lat="44.343905" lon="4.4828326"><ele>267.5</ele><time>2026-05-02T09:17:05.989Z</time></trkpt><trkpt lat="44.3438619" lon="4.4826764"><ele>268.25</ele><time>2026-05-02T09:17:06.988Z</time></trkpt><trkpt lat="44.3437836" lon="4.48252"><ele>269.0</ele><time>2026-05-02T09:17:07.988Z</time></trkpt><trkpt lat="44.3436826" lon="4.4823637"><ele>269.0</ele><time>2026-05-02T09:17:08.988Z</time></trkpt><trkpt lat="44.3435725" lon="4.482198"><ele>269.0</ele><time>2026-05-02T09:17:09.988Z</time></trkpt><trkpt lat="44.3434603" lon="4.4820272"><ele>269.0</ele><time>2026-05-02T09:17:10.988Z</time></trkpt><trkpt lat="44.3433435" lon="4.4818575"><ele>269.6666666666667</ele><time>2026-05-02T09:17:11.988Z</time></trkpt><trkpt lat="44.3432274" lon="4.4816832"><ele>270.3333333333333</ele><time>2026-05-02T09:17:12.989Z</time></trkpt><trkpt lat="44.3431122" lon="4.481506"><ele>271.0</ele><time>2026-05-02T09:17:13.988Z</time></trkpt><trkpt lat="44.3430002" lon="4.4813277"><ele>275.66666666666663</ele><time>2026-05-02T09:17:14.989Z</time></trkpt><trkpt lat="44.3428936" lon="4.4811536"><ele>280.3333333333333</ele><time>2026-05-02T09:17:15.988Z</time></trkpt><trkpt lat="44.3427851" lon="4.4809975"><ele>285.0</ele><time>2026-05-02T09:17:16.988Z</time></trkpt><trkpt lat="44.3426528" lon="4.4808793"><ele>285.0</ele><time>2026-05-02T09:17:17.987Z</time></trkpt><trkpt lat="44.3424989" lon="4.4807995"><ele>285.0</ele><time>2026-05-02T09:17:18.988Z</time></trkpt><trkpt lat="44.342331" lon="4.4807354"><ele>285.0</ele><time>2026-05-02T09:17:19.988Z</time></trkpt><trkpt lat="44.3421574" lon="4.4806679"><ele>285.0</ele><time>2026-05-02T09:17:20.988Z</time></trkpt><trkpt lat="44.3419751" lon="4.4805937"><ele>285.0</ele><time>2026-05-02T09:17:21.987Z</time></trkpt><trkpt lat="44.3417923" lon="4.4805174"><ele>285.0</ele><time>2026-05-02T09:17:22.987Z</time></trkpt><trkpt lat="44.3416135" lon="4.4804448"><ele>288.0</ele><time>2026-05-02T09:17:23.989Z</time></trkpt><trkpt lat="44.3414443" lon="4.4803764"><ele>291.0</ele><time>2026-05-02T09:17:24.988Z</time></trkpt><trkpt lat="44.3412814" lon="4.4803142"><ele>294.0</ele><time>2026-05-02T09:17:25.988Z</time></trkpt><trkpt lat="44.3411229" lon="4.4802712"><ele>295.3333333333333</ele><time>2026-05-02T09:17:26.989Z</time></trkpt><trkpt lat="44.3409616" lon="4.4802577"><ele>296.66666666666663</ele><time>2026-05-02T09:17:27.989Z</time></trkpt><trkpt lat="44.3407996" lon="4.4802823"><ele>298.0</ele><time>2026-05-02T09:17:28.988Z</time></trkpt><trkpt lat="44.340642" lon="4.4803563"><ele>296.0</ele><time>2026-05-02T09:17:29.988Z</time></trkpt><trkpt lat="44.3404974" lon="4.4804574"><ele>294.0</ele><time>2026-05-02T09:17:30.988Z</time></trkpt><trkpt lat="44.3403699" lon="4.480568"><ele>292.0</ele><time>2026-05-02T09:17:31.989Z</time></trkpt><trkpt lat="44.3402543" lon="4.4806558"><ele>290.0</ele><time>2026-05-02T09:17:32.988Z</time></trkpt><trkpt lat="44.3401507" lon="4.4806807"><ele>290.0</ele><time>2026-05-02T09:17:33.988Z</time></trkpt><trkpt lat="44.3400677" lon="4.4806555"><ele>290.0</ele><time>2026-05-02T09:17:34.989Z</time></trkpt><trkpt lat="44.3400053" lon="4.4805912"><ele>290.0</ele><time>2026-05-02T09:17:35.988Z</time></trkpt><trkpt lat="44.3399728" lon="4.4804947"><ele>290.0</ele><time>2026-05-02T09:17:36.987Z</time></trkpt><trkpt lat="44.339964" lon="4.4803669"><ele>290.0</ele><time>2026-05-02T09:17:37.989Z</time></trkpt><trkpt lat="44.3399731" lon="4.4802169"><ele>290.0</ele><time>2026-05-02T09:17:38.989Z</time></trkpt><trkpt lat="44.3399935" lon="4.4800509"><ele>289.6666666666667</ele><time>2026-05-02T09:17:39.987Z</time></trkpt><trkpt lat="44.3400592" lon="4.4796617"><ele>289.3333333333333</ele><time>2026-05-02T09:17:41.987Z</time></trkpt><trkpt lat="44.3401157" lon="4.4794899"><ele>289.0</ele><time>2026-05-02T09:17:42.989Z</time></trkpt><trkpt lat="44.3401989" lon="4.479359"><ele>292.25</ele><time>2026-05-02T09:17:43.987Z</time></trkpt><trkpt lat="44.3403042" lon="4.4792618"><ele>295.5</ele><time>2026-05-02T09:17:44.988Z</time></trkpt><trkpt lat="44.3404347" lon="4.479187"><ele>298.75</ele><time>2026-05-02T09:17:45.989Z</time></trkpt><trkpt lat="44.340584" lon="4.4791228"><ele>302.0</ele><time>2026-05-02T09:17:46.987Z</time></trkpt><trkpt lat="44.3407397" lon="4.4790577"><ele>302.0</ele><time>2026-05-02T09:17:47.989Z</time></trkpt><trkpt lat="44.3408915" lon="4.4789956"><ele>302.0</ele><time>2026-05-02T09:17:48.988Z</time></trkpt><trkpt lat="44.3410376" lon="4.478936"><ele>302.0</ele><time>2026-05-02T09:17:49.988Z</time></trkpt><trkpt lat="44.3411844" lon="4.4788707"><ele>302.0</ele><time>2026-05-02T09:17:50.988Z</time></trkpt><trkpt lat="44.3413291" lon="4.4787891"><ele>302.0</ele><time>2026-05-02T09:17:51.988Z</time></trkpt><trkpt lat="44.3414682" lon="4.4786783"><ele>302.0</ele><time>2026-05-02T09:17:52.987Z</time></trkpt><trkpt lat="44.3415997" lon="4.4785619"><ele>300.25</ele><time>2026-05-02T09:17:53.988Z</time></trkpt><trkpt lat="44.3417281" lon="4.4784584"><ele>298.5</ele><time>2026-05-02T09:17:54.988Z</time></trkpt><trkpt lat="44.3418459" lon="4.4783562"><ele>296.75</ele><time>2026-05-02T09:17:55.989Z</time></trkpt><trkpt lat="44.3419365" lon="4.47823"><ele>295.0</ele><time>2026-05-02T09:17:56.988Z</time></trkpt><trkpt lat="44.3419968" lon="4.4780753"><ele>282.25</ele><time>2026-05-02T09:17:57.988Z</time></trkpt><trkpt lat="44.3420321" lon="4.4779076"><ele>269.5</ele><time>2026-05-02T09:17:58.988Z</time></trkpt><trkpt lat="44.3420716" lon="4.4777419"><ele>256.75</ele><time>2026-05-02T09:17:59.988Z</time></trkpt><trkpt lat="44.342128" lon="4.4775828"><ele>244.0</ele><time>2026-05-02T09:18:00.988Z</time></trkpt><trkpt lat="44.342207" lon="4.4774308"><ele>242.0</ele><time>2026-05-02T09:18:01.988Z</time></trkpt><trkpt lat="44.3423228" lon="4.4773074"><ele>240.0</ele><time>2026-05-02T09:18:02.988Z</time></trkpt><trkpt lat="44.3424592" lon="4.477192"><ele>238.0</ele><time>2026-05-02T09:18:03.988Z</time></trkpt><trkpt lat="44.3426035" lon="4.477078"><ele>238.0</ele><time>2026-05-02T09:18:04.988Z</time></trkpt><trkpt lat="44.3427494" lon="4.476977"><ele>238.0</ele><time>2026-05-02T09:18:05.988Z</time></trkpt><trkpt lat="44.3428984" lon="4.4769039"><ele>238.0</ele><time>2026-05-02T09:18:06.989Z</time></trkpt><trkpt lat="44.343047" lon="4.4768599"><ele>247.75</ele><time>2026-05-02T09:18:07.989Z</time></trkpt><trkpt lat="44.3431941" lon="4.4768545"><ele>257.5</ele><time>2026-05-02T09:18:08.989Z</time></trkpt><trkpt lat="44.3433413" lon="4.4768797"><ele>267.25</ele><time>2026-05-02T09:18:09.988Z</time></trkpt><trkpt lat="44.3434881" lon="4.4769198"><ele>277.0</ele><time>2026-05-02T09:18:10.987Z</time></trkpt><trkpt lat="44.3436359" lon="4.4769458"><ele>277.0</ele><time>2026-05-02T09:18:11.989Z</time></trkpt><trkpt lat="44.3437905" lon="4.4769161"><ele>277.0</ele><time>2026-05-02T09:18:12.988Z</time></trkpt><trkpt lat="44.3439505" lon="4.4768641"><ele>277.0</ele><time>2026-05-02T09:18:13.987Z</time></trkpt><trkpt lat="44.3441135" lon="4.476799"><ele>280.66666666666663</ele><time>2026-05-02T09:18:14.988Z</time></trkpt><trkpt lat="44.3442696" lon="4.4767327"><ele>284.3333333333333</ele><time>2026-05-02T09:18:15.989Z</time></trkpt><trkpt lat="44.3444192" lon="4.4766736"><ele>288.0</ele><time>2026-05-02T09:18:16.988Z</time></trkpt><trkpt lat="44.3445528" lon="4.4766167"><ele>288.0</ele><time>2026-05-02T09:18:17.988Z</time></trkpt><trkpt lat="44.344667" lon="4.4765202"><ele>288.0</ele><time>2026-05-02T09:18:18.988Z</time></trkpt><trkpt lat="44.3447587" lon="4.4763818"><ele>288.0</ele><time>2026-05-02T09:18:19.988Z</time></trkpt><trkpt lat="44.3448323" lon="4.476218"><ele>288.0</ele><time>2026-05-02T09:18:20.988Z</time></trkpt><trkpt lat="44.3449242" lon="4.4760791"><ele>285.0</ele><time>2026-05-02T09:18:21.987Z</time></trkpt><trkpt lat="44.3450386" lon="4.4759831"><ele>282.0</ele><time>2026-05-02T09:18:22.988Z</time></trkpt><trkpt lat="44.3451684" lon="4.4759009"><ele>279.0</ele><time>2026-05-02T09:18:23.988Z</time></trkpt><trkpt lat="44.3453206" lon="4.4758316"><ele>276.0</ele><time>2026-05-02T09:18:24.988Z</time></trkpt><trkpt lat="44.3454864" lon="4.4757644"><ele>280.0</ele><time>2026-05-02T09:18:25.988Z</time></trkpt><trkpt lat="44.3456663" lon="4.4757031"><ele>284.0</ele><time>2026-05-02T09:18:26.989Z</time></trkpt><trkpt lat="44.3458514" lon="4.4756387"><ele>288.0</ele><time>2026-05-02T09:18:27.989Z</time></trkpt><trkpt lat="44.3460303" lon="4.4755686"><ele>288.0</ele><time>2026-05-02T09:18:28.988Z</time></trkpt><trkpt lat="44.3462041" lon="4.4754981"><ele>288.0</ele><time>2026-05-02T09:18:29.988Z</time></trkpt><trkpt lat="44.3463702" lon="4.4754369"><ele>288.0</ele><time>2026-05-02T09:18:30.989Z</time></trkpt><trkpt lat="44.3465211" lon="4.4753851"><ele>285.25</ele><time>2026-05-02T09:18:31.987Z</time></trkpt><trkpt lat="44.3466505" lon="4.4753225"><ele>282.5</ele><time>2026-05-02T09:18:32.988Z</time></trkpt><trkpt lat="44.3467489" lon="4.4752278"><ele>279.75</ele><time>2026-05-02T09:18:33.988Z</time></trkpt><trkpt lat="44.3468151" lon="4.4751017"><ele>277.0</ele><time>2026-05-02T09:18:34.989Z</time></trkpt><trkpt lat="44.346837" lon="4.4749593"><ele>277.0</ele><time>2026-05-02T09:18:35.988Z</time></trkpt><trkpt lat="44.3468121" lon="4.4748193"><ele>277.0</ele><time>2026-05-02T09:18:36.988Z</time></trkpt><trkpt lat="44.3467465" lon="4.4746912"><ele>277.0</ele><time>2026-05-02T09:18:37.989Z</time></trkpt><trkpt lat="44.3466413" lon="4.4745697"><ele>277.0</ele><time>2026-05-02T09:18:38.987Z</time></trkpt><trkpt lat="44.3465321" lon="4.474449"><ele>278.75</ele><time>2026-05-02T09:18:39.988Z</time></trkpt><trkpt lat="44.346438" lon="4.4743141"><ele>280.5</ele><time>2026-05-02T09:18:40.988Z</time></trkpt><trkpt lat="44.3463749" lon="4.4741681"><ele>282.25</ele><time>2026-05-02T09:18:41.989Z</time></trkpt><trkpt lat="44.3463569" lon="4.4740141"><ele>284.0</ele><time>2026-05-02T09:18:42.987Z</time></trkpt><trkpt lat="44.3463835" lon="4.4738526"><ele>285.0</ele><time>2026-05-02T09:18:43.988Z</time></trkpt><trkpt lat="44.346441" lon="4.4736983"><ele>286.0</ele><time>2026-05-02T09:18:44.988Z</time></trkpt><trkpt lat="44.3465144" lon="4.4735513"><ele>287.0</ele><time>2026-05-02T09:18:45.989Z</time></trkpt><trkpt lat="44.3465695" lon="4.473397"><ele>288.0</ele><time>2026-05-02T09:18:46.988Z</time></trkpt><trkpt lat="44.3465917" lon="4.4732216"><ele>288.0</ele><time>2026-05-02T09:18:47.987Z</time></trkpt><trkpt lat="44.3465735" lon="4.4730589"><ele>288.0</ele><time>2026-05-02T09:18:48.988Z</time></trkpt><trkpt lat="44.3465118" lon="4.4729183"><ele>288.0</ele><time>2026-05-02T09:18:49.988Z</time></trkpt><trkpt lat="44.3464145" lon="4.4728038"><ele>288.0</ele><time>2026-05-02T09:18:50.988Z</time></trkpt><trkpt lat="44.3463013" lon="4.4727051"><ele>283.75</ele><time>2026-05-02T09:18:51.988Z</time></trkpt><trkpt lat="44.346196" lon="4.4725863"><ele>279.5</ele><time>2026-05-02T09:18:52.988Z</time></trkpt><trkpt lat="44.346107" lon="4.4724366"><ele>275.25</ele><time>2026-05-02T09:18:53.989Z</time></trkpt><trkpt lat="44.3460416" lon="4.4722625"><ele>271.0</ele><time>2026-05-02T09:18:54.987Z</time></trkpt><trkpt lat="44.3460037" lon="4.4720675"><ele>271.0</ele><time>2026-05-02T09:18:55.988Z</time></trkpt><trkpt lat="44.3459863" lon="4.4718537"><ele>271.0</ele><time>2026-05-02T09:18:56.989Z</time></trkpt><trkpt lat="44.3459548" lon="4.4716275"><ele>271.0</ele><time>2026-05-02T09:18:57.988Z</time></trkpt><trkpt lat="44.3458904" lon="4.4714029"><ele>273.3333333333333</ele><time>2026-05-02T09:18:58.988Z</time></trkpt><trkpt lat="44.3457989" lon="4.4711961"><ele>275.6666666666667</ele><time>2026-05-02T09:18:59.989Z</time></trkpt><trkpt lat="44.3457172" lon="4.4710024"><ele>278.0</ele><time>2026-05-02T09:19:00.988Z</time></trkpt><trkpt lat="44.3456719" lon="4.4708044"><ele>278.0</ele><time>2026-05-02T09:19:01.988Z</time></trkpt><trkpt lat="44.3456562" lon="4.4706001"><ele>278.0</ele><time>2026-05-02T09:19:02.989Z</time></trkpt><trkpt lat="44.345669" lon="4.4703808"><ele>278.0</ele><time>2026-05-02T09:19:03.988Z</time></trkpt><trkpt lat="44.3456827" lon="4.4701497"><ele>279.0</ele><time>2026-05-02T09:19:04.988Z</time></trkpt><trkpt lat="44.3456935" lon="4.4699038"><ele>280.0</ele><time>2026-05-02T09:19:05.989Z</time></trkpt><trkpt lat="44.345707" lon="4.4696521"><ele>281.0</ele><time>2026-05-02T09:19:06.989Z</time></trkpt><trkpt lat="44.3457236" lon="4.469401"><ele>281.0</ele><time>2026-05-02T09:19:07.988Z</time></trkpt><trkpt lat="44.3457386" lon="4.4691601"><ele>281.0</ele><time>2026-05-02T09:19:08.988Z</time></trkpt><trkpt lat="44.3457493" lon="4.4689348"><ele>281.0</ele><time>2026-05-02T09:19:09.989Z</time></trkpt><trkpt lat="44.3457699" lon="4.4687266"><ele>280.5</ele><time>2026-05-02T09:19:10.988Z</time></trkpt><trkpt lat="44.3458157" lon="4.4685386"><ele>280.0</ele><time>2026-05-02T09:19:11.988Z</time></trkpt><trkpt lat="44.3458935" lon="4.468367"><ele>279.5</ele><time>2026-05-02T09:19:12.989Z</time></trkpt><trkpt lat="44.345993" lon="4.4682298"><ele>279.0</ele><time>2026-05-02T09:19:13.987Z</time></trkpt><trkpt lat="44.346114" lon="4.4681432"><ele>279.0</ele><time>2026-05-02T09:19:14.988Z</time></trkpt><trkpt lat="44.3462439" lon="4.4681178"><ele>279.0</ele><time>2026-05-02T09:19:15.988Z</time></trkpt><trkpt lat="44.3463775" lon="4.4681416"><ele>279.0</ele><time>2026-05-02T09:19:16.988Z</time></trkpt><trkpt lat="44.3465194" lon="4.4681949"><ele>279.0</ele><time>2026-05-02T09:19:17.988Z</time></trkpt><trkpt lat="44.3466619" lon="4.4682535"><ele>281.5</ele><time>2026-05-02T09:19:18.988Z</time></trkpt><trkpt lat="44.3468006" lon="4.4683238"><ele>284.0</ele><time>2026-05-02T09:19:19.989Z</time></trkpt><trkpt lat="44.3469392" lon="4.4683968"><ele>286.5</ele><time>2026-05-02T09:19:20.988Z</time></trkpt><trkpt lat="44.3470811" lon="4.4684607"><ele>289.0</ele><time>2026-05-02T09:19:21.988Z</time></trkpt><trkpt lat="44.3472243" lon="4.4685055"><ele>290.0</ele><time>2026-05-02T09:19:22.989Z</time></trkpt><trkpt lat="44.3473686" lon="4.4685081"><ele>291.0</ele><time>2026-05-02T09:19:23.988Z</time></trkpt><trkpt lat="44.3475185" lon="4.4684653"><ele>292.0</ele><time>2026-05-02T09:19:24.989Z</time></trkpt><trkpt lat="44.3476728" lon="4.4683965"><ele>292.0</ele><time>2026-05-02T09:19:25.988Z</time></trkpt><trkpt lat="44.3478283" lon="4.4683189"><ele>292.0</ele><time>2026-05-02T09:19:26.989Z</time></trkpt><trkpt lat="44.3479792" lon="4.4682394"><ele>292.0</ele><time>2026-05-02T09:19:27.988Z</time></trkpt><trkpt lat="44.3481182" lon="4.468159"><ele>292.25</ele><time>2026-05-02T09:19:28.988Z</time></trkpt><trkpt lat="44.3482377" lon="4.468058"><ele>292.5</ele><time>2026-05-02T09:19:29.989Z</time></trkpt><trkpt lat="44.3483366" lon="4.4679164"><ele>292.75</ele><time>2026-05-02T09:19:30.989Z</time></trkpt><trkpt lat="44.3484092" lon="4.4677382"><ele>293.0</ele><time>2026-05-02T09:19:31.988Z</time></trkpt><trkpt lat="44.3484515" lon="4.4675397"><ele>293.0</ele><time>2026-05-02T09:19:32.988Z</time></trkpt><trkpt lat="44.3484553" lon="4.4673301"><ele>293.0</ele><time>2026-05-02T09:19:33.988Z</time></trkpt><trkpt lat="44.3484272" lon="4.4671116"><ele>293.0</ele><time>2026-05-02T09:19:34.988Z</time></trkpt><trkpt lat="44.348384" lon="4.4668959"><ele>290.75</ele><time>2026-05-02T09:19:35.987Z</time></trkpt><trkpt lat="44.3483433" lon="4.4666917"><ele>288.5</ele><time>2026-05-02T09:19:36.988Z</time></trkpt><trkpt lat="44.3483191" lon="4.466505"><ele>286.25</ele><time>2026-05-02T09:19:37.988Z</time></trkpt><trkpt lat="44.3483287" lon="4.4663231"><ele>284.0</ele><time>2026-05-02T09:19:38.988Z</time></trkpt><trkpt lat="44.3483721" lon="4.4661559"><ele>279.0</ele><time>2026-05-02T09:19:39.988Z</time></trkpt><trkpt lat="44.3484409" lon="4.4660042"><ele>274.0</ele><time>2026-05-02T09:19:40.988Z</time></trkpt><trkpt lat="44.3485478" lon="4.4658828"><ele>269.0</ele><time>2026-05-02T09:19:41.988Z</time></trkpt><trkpt lat="44.3486754" lon="4.4658032"><ele>264.0</ele><time>2026-05-02T09:19:42.988Z</time></trkpt><trkpt lat="44.3488066" lon="4.4657609"><ele>267.25</ele><time>2026-05-02T09:19:43.988Z</time></trkpt><trkpt lat="44.3489267" lon="4.4657497"><ele>270.5</ele><time>2026-05-02T09:19:44.989Z</time></trkpt><trkpt lat="44.3490394" lon="4.4657896"><ele>273.75</ele><time>2026-05-02T09:19:45.988Z</time></trkpt><trkpt lat="44.3491457" lon="4.4658765"><ele>277.0</ele><time>2026-05-02T09:19:46.988Z</time></trkpt><trkpt lat="44.349247" lon="4.4659911"><ele>277.0</ele><time>2026-05-02T09:19:47.989Z</time></trkpt><trkpt lat="44.3493495" lon="4.4661146"><ele>277.0</ele><time>2026-05-02T09:19:48.989Z</time></trkpt><trkpt lat="44.3494493" lon="4.4662305"><ele>277.0</ele><time>2026-05-02T09:19:49.989Z</time></trkpt><trkpt lat="44.3495545" lon="4.4663218"><ele>277.0</ele><time>2026-05-02T09:19:50.988Z</time></trkpt><trkpt lat="44.3496675" lon="4.4663714"><ele>277.0</ele><time>2026-05-02T09:19:51.988Z</time></trkpt><trkpt lat="44.3497805" lon="4.4663643"><ele>277.0</ele><time>2026-05-02T09:19:52.989Z</time></trkpt><trkpt lat="44.3498888" lon="4.4663001"><ele>277.0</ele><time>2026-05-02T09:19:53.988Z</time></trkpt><trkpt lat="44.3499751" lon="4.4661927"><ele>277.0</ele><time>2026-05-02T09:19:54.988Z</time></trkpt><trkpt lat="44.3500304" lon="4.4660539"><ele>277.0</ele><time>2026-05-02T09:19:55.988Z</time></trkpt><trkpt lat="44.3500654" lon="4.4659048"><ele>277.0</ele><time>2026-05-02T09:19:56.988Z</time></trkpt><trkpt lat="44.3500856" lon="4.4657471"><ele>277.0</ele><time>2026-05-02T09:19:57.988Z</time></trkpt><trkpt lat="44.3501145" lon="4.4656032"><ele>277.0</ele><time>2026-05-02T09:19:58.988Z</time></trkpt><trkpt lat="44.3501414" lon="4.4654691"><ele>277.0</ele><time>2026-05-02T09:19:59.989Z</time></trkpt><trkpt lat="44.3501647" lon="4.4653543"><ele>274.3333333333333</ele><time>2026-05-02T09:20:00.989Z</time></trkpt><trkpt lat="44.3501894" lon="4.4652425"><ele>271.66666666666663</ele><time>2026-05-02T09:20:01.988Z</time></trkpt><trkpt lat="44.3502163" lon="4.4651375"><ele>269.0</ele><time>2026-05-02T09:20:02.988Z</time></trkpt><trkpt lat="44.3502426" lon="4.4650384"><ele>266.3333333333333</ele><time>2026-05-02T09:20:03.989Z</time></trkpt><trkpt lat="44.3502717" lon="4.4649448"><ele>263.6666666666667</ele><time>2026-05-02T09:20:04.989Z</time></trkpt><trkpt lat="44.3503056" lon="4.4648555"><ele>261.0</ele><time>2026-05-02T09:20:05.988Z</time></trkpt><trkpt lat="44.3503501" lon="4.4647785"><ele>261.0</ele><time>2026-05-02T09:20:06.989Z</time></trkpt><trkpt lat="44.3504045" lon="4.4647162"><ele>261.0</ele><time>2026-05-02T09:20:07.987Z</time></trkpt><trkpt lat="44.3504641" lon="4.4646535"><ele>261.0</ele><time>2026-05-02T09:20:14.987Z</time></trkpt><trkpt lat="44.3505048" lon="4.4645616"><ele>261.0</ele><time>2026-05-02T09:20:16.989Z</time></trkpt><trkpt lat="44.35065" lon="4.4645949"><ele>261.0</ele><time>2026-05-02T09:20:44.987Z</time></trkpt><trkpt lat="44.3507901" lon="4.4646455"><ele>268.0</ele><time>2026-05-02T09:20:45.988Z</time></trkpt><trkpt lat="44.3509593" lon="4.4647251"><ele>275.0</ele><time>2026-05-02T09:20:46.988Z</time></trkpt><trkpt lat="44.3511353" lon="4.4648178"><ele>282.0</ele><time>2026-05-02T09:20:47.989Z</time></trkpt><trkpt lat="44.3513209" lon="4.4649119"><ele>281.0</ele><time>2026-05-02T09:20:48.988Z</time></trkpt><trkpt lat="44.35149" lon="4.4649959"><ele>280.0</ele><time>2026-05-02T09:20:49.988Z</time></trkpt><trkpt lat="44.3516511" lon="4.4650784"><ele>279.0</ele><time>2026-05-02T09:20:50.988Z</time></trkpt><trkpt lat="44.3518006" lon="4.4651594"><ele>279.0</ele><time>2026-05-02T09:20:51.988Z</time></trkpt><trkpt lat="44.3519408" lon="4.4652333"><ele>279.0</ele><time>2026-05-02T09:20:52.987Z</time></trkpt><trkpt lat="44.3520851" lon="4.4652799"><ele>279.0</ele><time>2026-05-02T09:20:53.988Z</time></trkpt><trkpt lat="44.3522444" lon="4.465287"><ele>279.3333333333333</ele><time>2026-05-02T09:20:54.988Z</time></trkpt><trkpt lat="44.3524133" lon="4.4652627"><ele>279.66666666666663</ele><time>2026-05-02T09:20:55.988Z</time></trkpt><trkpt lat="44.3525792" lon="4.4652265"><ele>280.0</ele><time>2026-05-02T09:20:56.988Z</time></trkpt><trkpt lat="44.3527381" lon="4.4651915"><ele>280.0</ele><time>2026-05-02T09:20:57.988Z</time></trkpt><trkpt lat="44.3528909" lon="4.4651769"><ele>280.0</ele><time>2026-05-02T09:20:58.989Z</time></trkpt><trkpt lat="44.3530316" lon="4.465191"><ele>280.0</ele><time>2026-05-02T09:20:59.988Z</time></trkpt><trkpt lat="44.3531591" lon="4.465235"><ele>280.0</ele><time>2026-05-02T09:21:00.989Z</time></trkpt><trkpt lat="44.3532711" lon="4.465318"><ele>282.75</ele><time>2026-05-02T09:21:01.988Z</time></trkpt><trkpt lat="44.3533548" lon="4.4654455"><ele>285.5</ele><time>2026-05-02T09:21:02.988Z</time></trkpt><trkpt lat="44.3534118" lon="4.4656106"><ele>288.25</ele><time>2026-05-02T09:21:03.988Z</time></trkpt><trkpt lat="44.3534621" lon="4.4657907"><ele>291.0</ele><time>2026-05-02T09:21:04.989Z</time></trkpt><trkpt lat="44.3535466" lon="4.4659629"><ele>291.0</ele><time>2026-05-02T09:21:05.988Z</time></trkpt><trkpt lat="44.3536549" lon="4.4661336"><ele>291.0</ele><time>2026-05-02T09:21:06.989Z</time></trkpt><trkpt lat="44.3537577" lon="4.4662902"><ele>291.0</ele><time>2026-05-02T09:21:07.989Z</time></trkpt><trkpt lat="44.3538594" lon="4.4664398"><ele>288.5</ele><time>2026-05-02T09:21:08.987Z</time></trkpt><trkpt lat="44.353963" lon="4.4665809"><ele>286.0</ele><time>2026-05-02T09:21:09.988Z</time></trkpt><trkpt lat="44.3540757" lon="4.4666914"><ele>283.5</ele><time>2026-05-02T09:21:10.989Z</time></trkpt><trkpt lat="44.3541878" lon="4.4667725"><ele>281.0</ele><time>2026-05-02T09:21:11.987Z</time></trkpt><trkpt lat="44.3542918" lon="4.4668474"><ele>281.0</ele><time>2026-05-02T09:21:12.988Z</time></trkpt><trkpt lat="44.354376" lon="4.4669677"><ele>281.0</ele><time>2026-05-02T09:21:13.987Z</time></trkpt><trkpt lat="44.3544453" lon="4.4671464"><ele>281.0</ele><time>2026-05-02T09:21:14.988Z</time></trkpt><trkpt lat="44.3545076" lon="4.4673657"><ele>281.0</ele><time>2026-05-02T09:21:15.987Z</time></trkpt><trkpt lat="44.3545814" lon="4.4675756"><ele>280.0</ele><time>2026-05-02T09:21:16.989Z</time></trkpt><trkpt lat="44.3546742" lon="4.4677733"><ele>279.0</ele><time>2026-05-02T09:21:17.987Z</time></trkpt><trkpt lat="44.3547728" lon="4.4679654"><ele>278.0</ele><time>2026-05-02T09:21:18.989Z</time></trkpt><trkpt lat="44.3548746" lon="4.4681551"><ele>278.0</ele><time>2026-05-02T09:21:19.989Z</time></trkpt><trkpt lat="44.3549798" lon="4.4683552"><ele>278.0</ele><time>2026-05-02T09:21:20.987Z</time></trkpt><trkpt lat="44.3550884" lon="4.4685604"><ele>278.0</ele><time>2026-05-02T09:21:21.988Z</time></trkpt><trkpt lat="44.3552091" lon="4.4687589"><ele>281.33333333333337</ele><time>2026-05-02T09:21:22.988Z</time></trkpt><trkpt lat="44.3553447" lon="4.468944"><ele>284.6666666666667</ele><time>2026-05-02T09:21:23.988Z</time></trkpt><trkpt lat="44.3554836" lon="4.4691218"><ele>288.0</ele><time>2026-05-02T09:21:24.988Z</time></trkpt><trkpt lat="44.3556178" lon="4.469294"><ele>285.3333333333333</ele><time>2026-05-02T09:21:25.988Z</time></trkpt><trkpt lat="44.3557455" lon="4.4694562"><ele>282.66666666666663</ele><time>2026-05-02T09:21:26.988Z</time></trkpt><trkpt lat="44.3558648" lon="4.4696058"><ele>280.0</ele><time>2026-05-02T09:21:27.987Z</time></trkpt><trkpt lat="44.3559742" lon="4.4697409"><ele>280.0</ele><time>2026-05-02T09:21:28.988Z</time></trkpt><trkpt lat="44.3560689" lon="4.4698686"><ele>280.0</ele><time>2026-05-02T09:21:29.989Z</time></trkpt><trkpt lat="44.3561509" lon="4.4699879"><ele>280.0</ele><time>2026-05-02T09:21:30.987Z</time></trkpt><trkpt lat="44.3562328" lon="4.4700878"><ele>280.0</ele><time>2026-05-02T09:21:31.988Z</time></trkpt><trkpt lat="44.3563422" lon="4.4701425"><ele>275.25</ele><time>2026-05-02T09:21:32.988Z</time></trkpt><trkpt lat="44.3564753" lon="4.4701542"><ele>270.5</ele><time>2026-05-02T09:21:33.988Z</time></trkpt><trkpt lat="44.35662" lon="4.4701296"><ele>265.75</ele><time>2026-05-02T09:21:34.989Z</time></trkpt><trkpt lat="44.356748" lon="4.4701073"><ele>261.0</ele><time>2026-05-02T09:21:35.988Z</time></trkpt><trkpt lat="44.3568617" lon="4.4701006"><ele>261.0</ele><time>2026-05-02T09:21:36.989Z</time></trkpt><trkpt lat="44.3569787" lon="4.4701337"><ele>261.0</ele><time>2026-05-02T09:21:37.988Z</time></trkpt><trkpt lat="44.3571031" lon="4.4702131"><ele>261.0</ele><time>2026-05-02T09:21:38.988Z</time></trkpt><trkpt lat="44.3572362" lon="4.4703151"><ele>261.0</ele><time>2026-05-02T09:21:39.988Z</time></trkpt><trkpt lat="44.3573703" lon="4.4704168"><ele>264.0</ele><time>2026-05-02T09:21:40.988Z</time></trkpt><trkpt lat="44.3574927" lon="4.4705114"><ele>267.0</ele><time>2026-05-02T09:21:41.989Z</time></trkpt><trkpt lat="44.3576106" lon="4.4706234"><ele>270.0</ele><time>2026-05-02T09:21:42.988Z</time></trkpt><trkpt lat="44.3577138" lon="4.4707799"><ele>273.0</ele><time>2026-05-02T09:21:43.989Z</time></trkpt><trkpt lat="44.3578174" lon="4.4710092"><ele>282.0</ele><time>2026-05-02T09:21:44.988Z</time></trkpt><trkpt lat="44.357941" lon="4.4713056"><ele>291.0</ele><time>2026-05-02T09:21:45.988Z</time></trkpt><trkpt lat="44.3580828" lon="4.4715985"><ele>285.0</ele><time>2026-05-02T09:21:46.987Z</time></trkpt><trkpt lat="44.3582513" lon="4.4719069"><ele>279.0</ele><time>2026-05-02T09:21:47.989Z</time></trkpt><trkpt lat="44.3584247" lon="4.4721839"><ele>279.0</ele><time>2026-05-02T09:21:48.987Z</time></trkpt><trkpt lat="44.3585855" lon="4.4724412"><ele>279.0</ele><time>2026-05-02T09:21:49.988Z</time></trkpt><trkpt lat="44.3587105" lon="4.4726801"><ele>279.0</ele><time>2026-05-02T09:21:50.988Z</time></trkpt><trkpt lat="44.3588466" lon="4.4728725"><ele>279.0</ele><time>2026-05-02T09:21:51.989Z</time></trkpt><trkpt lat="44.3590173" lon="4.4730375"><ele>279.0</ele><time>2026-05-02T09:21:52.988Z</time></trkpt><trkpt lat="44.359192" lon="4.4732007"><ele>277.6666666666667</ele><time>2026-05-02T09:21:53.988Z</time></trkpt><trkpt lat="44.3593286" lon="4.4733754"><ele>276.33333333333337</ele><time>2026-05-02T09:21:54.989Z</time></trkpt><trkpt lat="44.3594227" lon="4.4735662"><ele>275.0</ele><time>2026-05-02T09:21:55.987Z</time></trkpt><trkpt lat="44.3594939" lon="4.4737544"><ele>273.6666666666667</ele><time>2026-05-02T09:21:56.988Z</time></trkpt><trkpt lat="44.3595959" lon="4.4739093"><ele>272.3333333333333</ele><time>2026-05-02T09:21:57.989Z</time></trkpt><trkpt lat="44.3597411" lon="4.4740443"><ele>271.0</ele><time>2026-05-02T09:21:58.988Z</time></trkpt><trkpt lat="44.3599276" lon="4.4741507"><ele>271.0</ele><time>2026-05-02T09:21:59.989Z</time></trkpt><trkpt lat="44.3601003" lon="4.4742609"><ele>271.0</ele><time>2026-05-02T09:22:00.988Z</time></trkpt><trkpt lat="44.3602564" lon="4.4744111"><ele>271.0</ele><time>2026-05-02T09:22:01.988Z</time></trkpt><trkpt lat="44.3603913" lon="4.4745905"><ele>275.0</ele><time>2026-05-02T09:22:02.988Z</time></trkpt><trkpt lat="44.3605031" lon="4.4747975"><ele>279.0</ele><time>2026-05-02T09:22:03.988Z</time></trkpt><trkpt lat="44.3605999" lon="4.4750207"><ele>283.0</ele><time>2026-05-02T09:22:04.987Z</time></trkpt><trkpt lat="44.3606801" lon="4.4752435"><ele>276.66666666666663</ele><time>2026-05-02T09:22:05.988Z</time></trkpt><trkpt lat="44.3607293" lon="4.4754728"><ele>270.3333333333333</ele><time>2026-05-02T09:22:06.988Z</time></trkpt><trkpt lat="44.3607716" lon="4.4756924"><ele>264.0</ele><time>2026-05-02T09:22:07.988Z</time></trkpt><trkpt lat="44.360861" lon="4.4758704"><ele>264.0</ele><time>2026-05-02T09:22:08.988Z</time></trkpt><trkpt lat="44.3609817" lon="4.4760235"><ele>264.0</ele><time>2026-05-02T09:22:09.989Z</time></trkpt><trkpt lat="44.361148" lon="4.4761563"><ele>264.0</ele><time>2026-05-02T09:22:10.988Z</time></trkpt><trkpt lat="44.361334" lon="4.4763144"><ele>263.5</ele><time>2026-05-02T09:22:11.988Z</time></trkpt><trkpt lat="44.3615251" lon="4.4764978"><ele>263.0</ele><time>2026-05-02T09:22:12.988Z</time></trkpt><trkpt lat="44.3617291" lon="4.4766904"><ele>263.0</ele><time>2026-05-02T09:22:13.989Z</time></trkpt><trkpt lat="44.361934" lon="4.4768741"><ele>263.0</ele><time>2026-05-02T09:22:14.989Z</time></trkpt><trkpt lat="44.3621273" lon="4.4770473"><ele>262.33333333333337</ele><time>2026-05-02T09:22:15.989Z</time></trkpt><trkpt lat="44.3622932" lon="4.4772478"><ele>261.6666666666667</ele><time>2026-05-02T09:22:16.988Z</time></trkpt><trkpt lat="44.3624358" lon="4.4774936"><ele>261.0</ele><time>2026-05-02T09:22:17.988Z</time></trkpt><trkpt lat="44.3625729" lon="4.4777796"><ele>264.0</ele><time>2026-05-02T09:22:18.988Z</time></trkpt><trkpt lat="44.3626962" lon="4.4780426"><ele>267.0</ele><time>2026-05-02T09:22:19.988Z</time></trkpt><trkpt lat="44.3628045" lon="4.4782752"><ele>270.0</ele><time>2026-05-02T09:22:20.988Z</time></trkpt><trkpt lat="44.362896" lon="4.4784566"><ele>270.0</ele><time>2026-05-02T09:22:21.989Z</time></trkpt><trkpt lat="44.3630063" lon="4.4785891"><ele>270.0</ele><time>2026-05-02T09:22:22.988Z</time></trkpt><trkpt lat="44.363129" lon="4.4786707"><ele>270.0</ele><time>2026-05-02T09:22:23.988Z</time></trkpt><trkpt lat="44.3632593" lon="4.4786747"><ele>270.0</ele><time>2026-05-02T09:22:24.989Z</time></trkpt><trkpt lat="44.363382" lon="4.4786124"><ele>267.25</ele><time>2026-05-02T09:22:25.989Z</time></trkpt><trkpt lat="44.363482" lon="4.4784859"><ele>264.5</ele><time>2026-05-02T09:22:26.989Z</time></trkpt><trkpt lat="44.3635397" lon="4.4783217"><ele>261.75</ele><time>2026-05-02T09:22:27.988Z</time></trkpt><trkpt lat="44.3635459" lon="4.4781465"><ele>259.0</ele><time>2026-05-02T09:22:28.988Z</time></trkpt><trkpt lat="44.3635086" lon="4.4779495"><ele>260.3333333333333</ele><time>2026-05-02T09:22:29.988Z</time></trkpt><trkpt lat="44.3634386" lon="4.4777108"><ele>261.6666666666667</ele><time>2026-05-02T09:22:30.988Z</time></trkpt><trkpt lat="44.3633532" lon="4.4774131"><ele>263.0</ele><time>2026-05-02T09:22:31.988Z</time></trkpt><trkpt lat="44.3632681" lon="4.4770932"><ele>266.5</ele><time>2026-05-02T09:22:32.988Z</time></trkpt><trkpt lat="44.363169" lon="4.4767613"><ele>270.0</ele><time>2026-05-02T09:22:33.988Z</time></trkpt><trkpt lat="44.3630359" lon="4.4764179"><ele>266.5</ele><time>2026-05-02T09:22:34.987Z</time></trkpt><trkpt lat="44.3628814" lon="4.4761124"><ele>263.0</ele><time>2026-05-02T09:22:35.988Z</time></trkpt><trkpt lat="44.362743" lon="4.4758432"><ele>263.0</ele><time>2026-05-02T09:22:36.988Z</time></trkpt><trkpt lat="44.3626327" lon="4.4756203"><ele>263.0</ele><time>2026-05-02T09:22:37.988Z</time></trkpt><trkpt lat="44.3625475" lon="4.4754203"><ele>263.0</ele><time>2026-05-02T09:22:38.989Z</time></trkpt><trkpt lat="44.3624927" lon="4.475214"><ele>265.25</ele><time>2026-05-02T09:22:39.988Z</time></trkpt><trkpt lat="44.3624797" lon="4.4749978"><ele>267.5</ele><time>2026-05-02T09:22:40.988Z</time></trkpt><trkpt lat="44.362514" lon="4.4747969"><ele>269.75</ele><time>2026-05-02T09:22:41.987Z</time></trkpt><trkpt lat="44.3625891" lon="4.4746269"><ele>272.0</ele><time>2026-05-02T09:22:42.989Z</time></trkpt><trkpt lat="44.362699" lon="4.474498"><ele>272.0</ele><time>2026-05-02T09:22:43.988Z</time></trkpt><trkpt lat="44.3628313" lon="4.4744165"><ele>272.0</ele><time>2026-05-02T09:22:44.987Z</time></trkpt><trkpt lat="44.3629902" lon="4.4743868"><ele>272.0</ele><time>2026-05-02T09:22:45.986Z</time></trkpt><trkpt lat="44.3631799" lon="4.4744021"><ele>274.0</ele><time>2026-05-02T09:22:46.987Z</time></trkpt><trkpt lat="44.3633951" lon="4.4744385"><ele>276.0</ele><time>2026-05-02T09:22:47.986Z</time></trkpt><trkpt lat="44.3636393" lon="4.4744781"><ele>275.0</ele><time>2026-05-02T09:22:48.987Z</time></trkpt><trkpt lat="44.363888" lon="4.4745153"><ele>274.0</ele><time>2026-05-02T09:22:49.988Z</time></trkpt><trkpt lat="44.3641241" lon="4.4745486"><ele>274.0</ele><time>2026-05-02T09:22:50.986Z</time></trkpt><trkpt lat="44.3643404" lon="4.47459"><ele>274.0</ele><time>2026-05-02T09:22:51.987Z</time></trkpt><trkpt lat="44.3645229" lon="4.4746274"><ele>274.0</ele><time>2026-05-02T09:22:52.987Z</time></trkpt><trkpt lat="44.3646845" lon="4.4746156"><ele>275.66666666666663</ele><time>2026-05-02T09:22:53.988Z</time></trkpt><trkpt lat="44.3648373" lon="4.4745481"><ele>277.3333333333333</ele><time>2026-05-02T09:22:54.987Z</time></trkpt><trkpt lat="44.3649707" lon="4.4744183"><ele>279.0</ele><time>2026-05-02T09:22:55.987Z</time></trkpt><trkpt lat="44.3650693" lon="4.4742368"><ele>279.0</ele><time>2026-05-02T09:22:56.987Z</time></trkpt><trkpt lat="44.3651237" lon="4.4740215"><ele>279.0</ele><time>2026-05-02T09:22:57.986Z</time></trkpt><trkpt lat="44.3651335" lon="4.4737783"><ele>279.0</ele><time>2026-05-02T09:22:58.987Z</time></trkpt><trkpt lat="44.3650982" lon="4.4735039"><ele>278.5</ele><time>2026-05-02T09:22:59.987Z</time></trkpt><trkpt lat="44.3650235" lon="4.4732026"><ele>278.0</ele><time>2026-05-02T09:23:00.987Z</time></trkpt><trkpt lat="44.3649401" lon="4.4728663"><ele>280.5</ele><time>2026-05-02T09:23:01.987Z</time></trkpt><trkpt lat="44.364853" lon="4.4724973"><ele>283.0</ele><time>2026-05-02T09:23:02.988Z</time></trkpt><trkpt lat="44.3647682" lon="4.4721398"><ele>278.5</ele><time>2026-05-02T09:23:03.987Z</time></trkpt><trkpt lat="44.3646875" lon="4.4718033"><ele>274.0</ele><time>2026-05-02T09:23:04.987Z</time></trkpt><trkpt lat="44.3646073" lon="4.4714734"><ele>276.0</ele><time>2026-05-02T09:23:05.988Z</time></trkpt><trkpt lat="44.3645238" lon="4.471135"><ele>278.0</ele><time>2026-05-02T09:23:06.987Z</time></trkpt><trkpt lat="44.364422" lon="4.4707841"><ele>280.5</ele><time>2026-05-02T09:23:07.988Z</time></trkpt><trkpt lat="44.3642913" lon="4.4704256"><ele>283.0</ele><time>2026-05-02T09:23:08.987Z</time></trkpt><trkpt lat="44.364145" lon="4.4700923"><ele>283.0</ele><time>2026-05-02T09:23:09.987Z</time></trkpt><trkpt lat="44.3640071" lon="4.4697805"><ele>283.0</ele><time>2026-05-02T09:23:10.987Z</time></trkpt><trkpt lat="44.3638793" lon="4.4694845"><ele>282.3333333333333</ele><time>2026-05-02T09:23:11.987Z</time></trkpt><trkpt lat="44.3637623" lon="4.4692175"><ele>281.6666666666667</ele><time>2026-05-02T09:23:12.987Z</time></trkpt><trkpt lat="44.3636516" lon="4.4689768"><ele>281.0</ele><time>2026-05-02T09:23:13.986Z</time></trkpt><trkpt lat="44.3635568" lon="4.4687681"><ele>281.0</ele><time>2026-05-02T09:23:14.988Z</time></trkpt><trkpt lat="44.3634886" lon="4.4685836"><ele>281.0</ele><time>2026-05-02T09:23:15.987Z</time></trkpt><trkpt lat="44.3634558" lon="4.4684023"><ele>281.0</ele><time>2026-05-02T09:23:16.987Z</time></trkpt><trkpt lat="44.3634668" lon="4.4682195"><ele>281.0</ele><time>2026-05-02T09:23:17.987Z</time></trkpt><trkpt lat="44.3635148" lon="4.4680516"><ele>281.0</ele><time>2026-05-02T09:23:18.987Z</time></trkpt><trkpt lat="44.3635982" lon="4.4679238"><ele>281.0</ele><time>2026-05-02T09:23:19.987Z</time></trkpt><trkpt lat="44.3637112" lon="4.467838"><ele>281.0</ele><time>2026-05-02T09:23:20.987Z</time></trkpt><trkpt lat="44.3638383" lon="4.4677955"><ele>281.0</ele><time>2026-05-02T09:23:21.987Z</time></trkpt><trkpt lat="44.363964" lon="4.4678014"><ele>281.0</ele><time>2026-05-02T09:23:22.987Z</time></trkpt><trkpt lat="44.3640998" lon="4.4678532"><ele>281.0</ele><time>2026-05-02T09:23:23.987Z</time></trkpt><trkpt lat="44.3642622" lon="4.4679271"><ele>281.0</ele><time>2026-05-02T09:23:24.988Z</time></trkpt><trkpt lat="44.3644526" lon="4.4680195"><ele>284.0</ele><time>2026-05-02T09:23:25.987Z</time></trkpt><trkpt lat="44.3646691" lon="4.4681246"><ele>287.0</ele><time>2026-05-02T09:23:26.987Z</time></trkpt><trkpt lat="44.3649114" lon="4.4682482"><ele>288.0</ele><time>2026-05-02T09:23:27.987Z</time></trkpt><trkpt lat="44.3651603" lon="4.4683695"><ele>289.0</ele><time>2026-05-02T09:23:28.987Z</time></trkpt><trkpt lat="44.3654074" lon="4.4684901"><ele>286.5</ele><time>2026-05-02T09:23:29.988Z</time></trkpt><trkpt lat="44.3656378" lon="4.4686127"><ele>284.0</ele><time>2026-05-02T09:23:30.987Z</time></trkpt><trkpt lat="44.3658498" lon="4.4687526"><ele>288.0</ele><time>2026-05-02T09:23:31.987Z</time></trkpt><trkpt lat="44.3660434" lon="4.4689117"><ele>292.0</ele><time>2026-05-02T09:23:32.987Z</time></trkpt><trkpt lat="44.3662232" lon="4.4690728"><ele>296.0</ele><time>2026-05-02T09:23:33.988Z</time></trkpt><trkpt lat="44.3663764" lon="4.4692119"><ele>296.0</ele><time>2026-05-02T09:23:34.987Z</time></trkpt><trkpt lat="44.3665093" lon="4.4692962"><ele>296.0</ele><time>2026-05-02T09:23:35.988Z</time></trkpt><trkpt lat="44.3666442" lon="4.4693321"><ele>296.0</ele><time>2026-05-02T09:23:36.988Z</time></trkpt><trkpt lat="44.3667705" lon="4.4693035"><ele>296.0</ele><time>2026-05-02T09:23:37.988Z</time></trkpt><trkpt lat="44.3668809" lon="4.4692168"><ele>296.0</ele><time>2026-05-02T09:23:38.987Z</time></trkpt><trkpt lat="44.3669638" lon="4.4690701"><ele>296.0</ele><time>2026-05-02T09:23:39.988Z</time></trkpt><trkpt lat="44.3670069" lon="4.4688798"><ele>296.0</ele><time>2026-05-02T09:23:40.987Z</time></trkpt><trkpt lat="44.3670183" lon="4.4686401"><ele>296.0</ele><time>2026-05-02T09:23:41.987Z</time></trkpt><trkpt lat="44.3670253" lon="4.4683743"><ele>292.33333333333337</ele><time>2026-05-02T09:23:42.987Z</time></trkpt><trkpt lat="44.3670456" lon="4.4681192"><ele>288.6666666666667</ele><time>2026-05-02T09:23:43.988Z</time></trkpt><trkpt lat="44.3670827" lon="4.4678828"><ele>285.0</ele><time>2026-05-02T09:23:44.988Z</time></trkpt><trkpt lat="44.36713" lon="4.4676621"><ele>290.0</ele><time>2026-05-02T09:23:45.987Z</time></trkpt><trkpt lat="44.3671953" lon="4.4674524"><ele>295.0</ele><time>2026-05-02T09:23:46.988Z</time></trkpt><trkpt lat="44.3672921" lon="4.4672512"><ele>300.0</ele><time>2026-05-02T09:23:47.986Z</time></trkpt><trkpt lat="44.3674032" lon="4.4670625"><ele>300.0</ele><time>2026-05-02T09:23:48.988Z</time></trkpt><trkpt lat="44.3675289" lon="4.4669034"><ele>300.0</ele><time>2026-05-02T09:23:49.987Z</time></trkpt><trkpt lat="44.3676654" lon="4.4667805"><ele>300.0</ele><time>2026-05-02T09:23:50.987Z</time></trkpt><trkpt lat="44.3678219" lon="4.4666914"><ele>300.0</ele><time>2026-05-02T09:23:51.987Z</time></trkpt><trkpt lat="44.3680077" lon="4.4666051"><ele>300.0</ele><time>2026-05-02T09:23:52.987Z</time></trkpt><trkpt lat="44.3681986" lon="4.466517"><ele>300.0</ele><time>2026-05-02T09:23:53.988Z</time></trkpt><trkpt lat="44.3683637" lon="4.4664222"><ele>301.0</ele><time>2026-05-02T09:23:54.988Z</time></trkpt><trkpt lat="44.3684953" lon="4.4663065"><ele>302.0</ele><time>2026-05-02T09:23:55.987Z</time></trkpt><trkpt lat="44.3685911" lon="4.4661518"><ele>303.0</ele><time>2026-05-02T09:23:56.988Z</time></trkpt><trkpt lat="44.368637" lon="4.4659815"><ele>304.0</ele><time>2026-05-02T09:23:57.987Z</time></trkpt><trkpt lat="44.3686351" lon="4.4658005"><ele>304.0</ele><time>2026-05-02T09:23:58.987Z</time></trkpt><trkpt lat="44.3685844" lon="4.4656163"><ele>304.0</ele><time>2026-05-02T09:23:59.987Z</time></trkpt><trkpt lat="44.3684869" lon="4.4654538"><ele>304.0</ele><time>2026-05-02T09:24:00.987Z</time></trkpt><trkpt lat="44.3683481" lon="4.4653"><ele>302.3333333333333</ele><time>2026-05-02T09:24:01.987Z</time></trkpt><trkpt lat="44.3681833" lon="4.4651328"><ele>300.6666666666667</ele><time>2026-05-02T09:24:02.987Z</time></trkpt><trkpt lat="44.3680022" lon="4.4649341"><ele>299.0</ele><time>2026-05-02T09:24:03.988Z</time></trkpt><trkpt lat="44.3678109" lon="4.4647172"><ele>305.5</ele><time>2026-05-02T09:24:04.987Z</time></trkpt><trkpt lat="44.36763" lon="4.4645001"><ele>312.0</ele><time>2026-05-02T09:24:05.987Z</time></trkpt><trkpt lat="44.3674617" lon="4.4642671"><ele>312.0</ele><time>2026-05-02T09:24:06.987Z</time></trkpt><trkpt lat="44.3673106" lon="4.4640402"><ele>312.0</ele><time>2026-05-02T09:24:07.987Z</time></trkpt><trkpt lat="44.3671929" lon="4.4638159"><ele>312.0</ele><time>2026-05-02T09:24:08.987Z</time></trkpt><trkpt lat="44.3671072" lon="4.4635881"><ele>309.0</ele><time>2026-05-02T09:24:09.988Z</time></trkpt><trkpt lat="44.3670604" lon="4.4633628"><ele>306.0</ele><time>2026-05-02T09:24:10.987Z</time></trkpt><trkpt lat="44.3670505" lon="4.4631333"><ele>303.0</ele><time>2026-05-02T09:24:11.988Z</time></trkpt><trkpt lat="44.36706" lon="4.462868"><ele>303.0</ele><time>2026-05-02T09:24:12.987Z</time></trkpt><trkpt lat="44.3670667" lon="4.4625659"><ele>303.0</ele><time>2026-05-02T09:24:13.987Z</time></trkpt><trkpt lat="44.3670612" lon="4.4622289"><ele>305.0</ele><time>2026-05-02T09:24:14.987Z</time></trkpt><trkpt lat="44.3670225" lon="4.4618591"><ele>307.0</ele><time>2026-05-02T09:24:15.986Z</time></trkpt><trkpt lat="44.3669562" lon="4.461479"><ele>308.5</ele><time>2026-05-02T09:24:16.987Z</time></trkpt><trkpt lat="44.3668839" lon="4.461137"><ele>310.0</ele><time>2026-05-02T09:24:17.988Z</time></trkpt><trkpt lat="44.3668153" lon="4.4608191"><ele>310.0</ele><time>2026-05-02T09:24:18.986Z</time></trkpt><trkpt lat="44.3667511" lon="4.4605376"><ele>310.0</ele><time>2026-05-02T09:24:19.988Z</time></trkpt><trkpt lat="44.3666904" lon="4.4602818"><ele>310.0</ele><time>2026-05-02T09:24:20.987Z</time></trkpt><trkpt lat="44.3666375" lon="4.4600694"><ele>313.5</ele><time>2026-05-02T09:24:21.988Z</time></trkpt><trkpt lat="44.3665947" lon="4.4598863"><ele>317.0</ele><time>2026-05-02T09:24:22.987Z</time></trkpt><trkpt lat="44.3665551" lon="4.4597222"><ele>320.5</ele><time>2026-05-02T09:24:23.987Z</time></trkpt><trkpt lat="44.3665194" lon="4.459567"><ele>324.0</ele><time>2026-05-02T09:24:24.987Z</time></trkpt><trkpt lat="44.3664824" lon="4.4594147"><ele>325.5</ele><time>2026-05-02T09:24:25.988Z</time></trkpt><trkpt lat="44.3664495" lon="4.4592665"><ele>327.0</ele><time>2026-05-02T09:24:26.987Z</time></trkpt><trkpt lat="44.3664229" lon="4.459114"><ele>328.5</ele><time>2026-05-02T09:24:27.987Z</time></trkpt><trkpt lat="44.366407" lon="4.4589557"><ele>330.0</ele><time>2026-05-02T09:24:28.987Z</time></trkpt><trkpt lat="44.3663957" lon="4.4587945"><ele>331.0</ele><time>2026-05-02T09:24:29.987Z</time></trkpt><trkpt lat="44.3663857" lon="4.4586245"><ele>332.0</ele><time>2026-05-02T09:24:30.988Z</time></trkpt><trkpt lat="44.366382" lon="4.4584471"><ele>333.0</ele><time>2026-05-02T09:24:31.987Z</time></trkpt><trkpt lat="44.36638" lon="4.4582724"><ele>334.0</ele><time>2026-05-02T09:24:32.988Z</time></trkpt><trkpt lat="44.3663771" lon="4.4581029"><ele>336.75</ele><time>2026-05-02T09:24:33.987Z</time></trkpt><trkpt lat="44.3663751" lon="4.4579313"><ele>339.5</ele><time>2026-05-02T09:24:34.987Z</time></trkpt><trkpt lat="44.3663745" lon="4.4577542"><ele>342.25</ele><time>2026-05-02T09:24:35.987Z</time></trkpt><trkpt lat="44.3663734" lon="4.4575694"><ele>345.0</ele><time>2026-05-02T09:24:36.987Z</time></trkpt><trkpt lat="44.366378" lon="4.4573819"><ele>345.0</ele><time>2026-05-02T09:24:37.987Z</time></trkpt><trkpt lat="44.3663989" lon="4.4571873"><ele>345.0</ele><time>2026-05-02T09:24:38.987Z</time></trkpt><trkpt lat="44.3664411" lon="4.4569979"><ele>345.0</ele><time>2026-05-02T09:24:39.988Z</time></trkpt><trkpt lat="44.3665072" lon="4.456822"><ele>345.0</ele><time>2026-05-02T09:24:40.987Z</time></trkpt><trkpt lat="44.3665894" lon="4.4566643"><ele>344.75</ele><time>2026-05-02T09:24:41.987Z</time></trkpt><trkpt lat="44.3666847" lon="4.4565192"><ele>344.5</ele><time>2026-05-02T09:24:42.988Z</time></trkpt><trkpt lat="44.3667682" lon="4.456373"><ele>344.25</ele><time>2026-05-02T09:24:43.987Z</time></trkpt><trkpt lat="44.3668263" lon="4.4562126"><ele>344.0</ele><time>2026-05-02T09:24:44.987Z</time></trkpt><trkpt lat="44.3668583" lon="4.4560408"><ele>342.5</ele><time>2026-05-02T09:24:45.987Z</time></trkpt><trkpt lat="44.3668585" lon="4.45586"><ele>341.0</ele><time>2026-05-02T09:24:46.987Z</time></trkpt><trkpt lat="44.3668376" lon="4.4556731"><ele>339.5</ele><time>2026-05-02T09:24:47.988Z</time></trkpt><trkpt lat="44.3668082" lon="4.4554788"><ele>338.0</ele><time>2026-05-02T09:24:48.987Z</time></trkpt><trkpt lat="44.3667774" lon="4.4552758"><ele>336.0</ele><time>2026-05-02T09:24:49.987Z</time></trkpt><trkpt lat="44.3667508" lon="4.4550653"><ele>334.0</ele><time>2026-05-02T09:24:50.987Z</time></trkpt><trkpt lat="44.3667234" lon="4.4548495"><ele>332.0</ele><time>2026-05-02T09:24:51.987Z</time></trkpt><trkpt lat="44.3667097" lon="4.4546392"><ele>329.6</ele><time>2026-05-02T09:24:52.987Z</time></trkpt><trkpt lat="44.3667196" lon="4.4544546"><ele>327.20000000000005</ele><time>2026-05-02T09:24:53.988Z</time></trkpt><trkpt lat="44.3667559" lon="4.454311"><ele>324.8</ele><time>2026-05-02T09:24:54.987Z</time></trkpt><trkpt lat="44.3668145" lon="4.4542231"><ele>322.4</ele><time>2026-05-02T09:24:55.987Z</time></trkpt><trkpt lat="44.3668876" lon="4.4541878"><ele>320.0</ele><time>2026-05-02T09:24:56.987Z</time></trkpt><trkpt lat="44.3669761" lon="4.4542029"><ele>320.0</ele><time>2026-05-02T09:24:57.986Z</time></trkpt><trkpt lat="44.3670654" lon="4.4542782"><ele>320.0</ele><time>2026-05-02T09:24:58.987Z</time></trkpt><trkpt lat="44.3671463" lon="4.4544024"><ele>320.0</ele><time>2026-05-02T09:24:59.987Z</time></trkpt><trkpt lat="44.367226" lon="4.4545644"><ele>320.0</ele><time>2026-05-02T09:25:00.987Z</time></trkpt><trkpt lat="44.3673115" lon="4.4547493"><ele>320.33333333333337</ele><time>2026-05-02T09:25:01.987Z</time></trkpt><trkpt lat="44.3674069" lon="4.4549462"><ele>320.6666666666667</ele><time>2026-05-02T09:25:02.987Z</time></trkpt><trkpt lat="44.3675212" lon="4.4551458"><ele>321.0</ele><time>2026-05-02T09:25:03.987Z</time></trkpt><trkpt lat="44.3676536" lon="4.4553444"><ele>325.0</ele><time>2026-05-02T09:25:04.987Z</time></trkpt><trkpt lat="44.3677947" lon="4.4555438"><ele>329.0</ele><time>2026-05-02T09:25:05.986Z</time></trkpt><trkpt lat="44.3679417" lon="4.4557387"><ele>333.0</ele><time>2026-05-02T09:25:06.987Z</time></trkpt><trkpt lat="44.3680944" lon="4.4559364"><ele>327.6666666666667</ele><time>2026-05-02T09:25:07.987Z</time></trkpt><trkpt lat="44.3682567" lon="4.4561421"><ele>322.33333333333337</ele><time>2026-05-02T09:25:08.987Z</time></trkpt><trkpt lat="44.368422" lon="4.4563511"><ele>317.0</ele><time>2026-05-02T09:25:09.987Z</time></trkpt><trkpt lat="44.3685832" lon="4.4565651"><ele>317.0</ele><time>2026-05-02T09:25:10.986Z</time></trkpt><trkpt lat="44.3687373" lon="4.4567819"><ele>317.0</ele><time>2026-05-02T09:25:11.987Z</time></trkpt><trkpt lat="44.3688825" lon="4.4570015"><ele>317.0</ele><time>2026-05-02T09:25:12.987Z</time></trkpt><trkpt lat="44.3690238" lon="4.4572166"><ele>313.0</ele><time>2026-05-02T09:25:13.987Z</time></trkpt><trkpt lat="44.3691676" lon="4.457426"><ele>309.0</ele><time>2026-05-02T09:25:14.988Z</time></trkpt><trkpt lat="44.3693129" lon="4.4576369"><ele>305.0</ele><time>2026-05-02T09:25:15.987Z</time></trkpt><trkpt lat="44.3694583" lon="4.4578519"><ele>309.33333333333337</ele><time>2026-05-02T09:25:16.987Z</time></trkpt><trkpt lat="44.3695999" lon="4.4580712"><ele>313.6666666666667</ele><time>2026-05-02T09:25:17.987Z</time></trkpt><trkpt lat="44.3697387" lon="4.4582854"><ele>318.0</ele><time>2026-05-02T09:25:18.988Z</time></trkpt><trkpt lat="44.3698698" lon="4.4584969"><ele>312.3333333333333</ele><time>2026-05-02T09:25:19.988Z</time></trkpt><trkpt lat="44.3699932" lon="4.4587108"><ele>306.66666666666663</ele><time>2026-05-02T09:25:20.988Z</time></trkpt><trkpt lat="44.3701086" lon="4.4589264"><ele>301.0</ele><time>2026-05-02T09:25:21.987Z</time></trkpt><trkpt lat="44.3702218" lon="4.4591382"><ele>301.0</ele><time>2026-05-02T09:25:22.987Z</time></trkpt><trkpt lat="44.3703302" lon="4.4593409"><ele>301.0</ele><time>2026-05-02T09:25:23.986Z</time></trkpt><trkpt lat="44.3704312" lon="4.4595245"><ele>301.0</ele><time>2026-05-02T09:25:24.988Z</time></trkpt><trkpt lat="44.370516" lon="4.459704"><ele>296.25</ele><time>2026-05-02T09:25:25.987Z</time></trkpt><trkpt lat="44.3705647" lon="4.4599029"><ele>291.5</ele><time>2026-05-02T09:25:26.987Z</time></trkpt><trkpt lat="44.3705811" lon="4.4601064"><ele>286.75</ele><time>2026-05-02T09:25:27.988Z</time></trkpt><trkpt lat="44.3705863" lon="4.4603048"><ele>282.0</ele><time>2026-05-02T09:25:28.988Z</time></trkpt><trkpt lat="44.370601" lon="4.4604871"><ele>282.0</ele><time>2026-05-02T09:25:29.987Z</time></trkpt><trkpt lat="44.3706393" lon="4.4606443"><ele>282.0</ele><time>2026-05-02T09:25:30.987Z</time></trkpt><trkpt lat="44.3707103" lon="4.4607663"><ele>282.0</ele><time>2026-05-02T09:25:31.987Z</time></trkpt><trkpt lat="44.3708066" lon="4.4608431"><ele>282.0</ele><time>2026-05-02T09:25:32.987Z</time></trkpt><trkpt lat="44.3709168" lon="4.4608585"><ele>282.0</ele><time>2026-05-02T09:25:33.986Z</time></trkpt><trkpt lat="44.3710264" lon="4.4608273"><ele>282.0</ele><time>2026-05-02T09:25:34.988Z</time></trkpt><trkpt lat="44.3711141" lon="4.4607348"><ele>282.0</ele><time>2026-05-02T09:25:35.986Z</time></trkpt><trkpt lat="44.3711699" lon="4.4606014"><ele>282.0</ele><time>2026-05-02T09:25:36.988Z</time></trkpt><trkpt lat="44.3712063" lon="4.4604409"><ele>280.5</ele><time>2026-05-02T09:25:37.987Z</time></trkpt><trkpt lat="44.3712333" lon="4.4602591"><ele>279.0</ele><time>2026-05-02T09:25:38.988Z</time></trkpt><trkpt lat="44.3712611" lon="4.4600568"><ele>277.5</ele><time>2026-05-02T09:25:39.987Z</time></trkpt><trkpt lat="44.3712724" lon="4.4598221"><ele>276.0</ele><time>2026-05-02T09:25:40.987Z</time></trkpt><trkpt lat="44.3712748" lon="4.459562"><ele>274.6666666666667</ele><time>2026-05-02T09:25:41.987Z</time></trkpt><trkpt lat="44.3712774" lon="4.4592888"><ele>273.33333333333337</ele><time>2026-05-02T09:25:42.987Z</time></trkpt><trkpt lat="44.3712748" lon="4.4590064"><ele>272.0</ele><time>2026-05-02T09:25:43.988Z</time></trkpt><trkpt lat="44.3712488" lon="4.4587257"><ele>270.6666666666667</ele><time>2026-05-02T09:25:44.986Z</time></trkpt><trkpt lat="44.3712018" lon="4.458495"><ele>269.3333333333333</ele><time>2026-05-02T09:25:45.987Z</time></trkpt><trkpt lat="44.3711527" lon="4.4582828"><ele>268.0</ele><time>2026-05-02T09:25:46.987Z</time></trkpt><trkpt lat="44.3711212" lon="4.4580631"><ele>267.0</ele><time>2026-05-02T09:25:47.987Z</time></trkpt><trkpt lat="44.3711085" lon="4.4578474"><ele>266.0</ele><time>2026-05-02T09:25:48.987Z</time></trkpt><trkpt lat="44.3710989" lon="4.4576585"><ele>265.0</ele><time>2026-05-02T09:25:49.987Z</time></trkpt><trkpt lat="44.3710711" lon="4.457484"><ele>264.0</ele><time>2026-05-02T09:25:50.988Z</time></trkpt><trkpt lat="44.3710116" lon="4.4573117"><ele>264.0</ele><time>2026-05-02T09:25:51.988Z</time></trkpt><trkpt lat="44.3709232" lon="4.4571277"><ele>264.0</ele><time>2026-05-02T09:25:52.987Z</time></trkpt><trkpt lat="44.3708188" lon="4.4569295"><ele>264.0</ele><time>2026-05-02T09:25:53.988Z</time></trkpt><trkpt lat="44.370717" lon="4.4567217"><ele>266.6666666666667</ele><time>2026-05-02T09:25:54.987Z</time></trkpt><trkpt lat="44.3706288" lon="4.4564982"><ele>269.33333333333337</ele><time>2026-05-02T09:25:55.988Z</time></trkpt><trkpt lat="44.3705626" lon="4.4562691"><ele>272.0</ele><time>2026-05-02T09:25:56.987Z</time></trkpt><trkpt lat="44.3705058" lon="4.4560557"><ele>267.5</ele><time>2026-05-02T09:25:57.987Z</time></trkpt><trkpt lat="44.3704622" lon="4.4558504"><ele>263.0</ele><time>2026-05-02T09:25:58.987Z</time></trkpt><trkpt lat="44.3704494" lon="4.4556462"><ele>258.5</ele><time>2026-05-02T09:25:59.988Z</time></trkpt><trkpt lat="44.3704482" lon="4.4554489"><ele>254.0</ele><time>2026-05-02T09:26:00.988Z</time></trkpt><trkpt lat="44.3704363" lon="4.4552587"><ele>251.66666666666669</ele><time>2026-05-02T09:26:01.987Z</time></trkpt><trkpt lat="44.3703992" lon="4.4550701"><ele>249.33333333333331</ele><time>2026-05-02T09:26:02.987Z</time></trkpt><trkpt lat="44.370325" lon="4.4548848"><ele>247.0</ele><time>2026-05-02T09:26:03.988Z</time></trkpt><trkpt lat="44.3702215" lon="4.4547083"><ele>250.33333333333331</ele><time>2026-05-02T09:26:04.986Z</time></trkpt><trkpt lat="44.370114" lon="4.4545215"><ele>253.66666666666669</ele><time>2026-05-02T09:26:05.988Z</time></trkpt><trkpt lat="44.3700357" lon="4.454314"><ele>257.0</ele><time>2026-05-02T09:26:06.987Z</time></trkpt><trkpt lat="44.3699745" lon="4.4540837"><ele>257.0</ele><time>2026-05-02T09:26:07.987Z</time></trkpt><trkpt lat="44.3699192" lon="4.4538404"><ele>257.0</ele><time>2026-05-02T09:26:08.987Z</time></trkpt><trkpt lat="44.3698638" lon="4.4536056"><ele>257.0</ele><time>2026-05-02T09:26:09.987Z</time></trkpt><trkpt lat="44.36979" lon="4.4533894"><ele>252.0</ele><time>2026-05-02T09:26:10.987Z</time></trkpt><trkpt lat="44.3696864" lon="4.4532132"><ele>247.0</ele><time>2026-05-02T09:26:11.987Z</time></trkpt><trkpt lat="44.3695754" lon="4.4530589"><ele>242.0</ele><time>2026-05-02T09:26:12.988Z</time></trkpt><trkpt lat="44.369473" lon="4.4529033"><ele>242.0</ele><time>2026-05-02T09:26:13.988Z</time></trkpt><trkpt lat="44.3693772" lon="4.452753"><ele>242.0</ele><time>2026-05-02T09:26:14.987Z</time></trkpt><trkpt lat="44.3692973" lon="4.4526116"><ele>242.0</ele><time>2026-05-02T09:26:15.988Z</time></trkpt><trkpt lat="44.3692458" lon="4.4524832"><ele>242.0</ele><time>2026-05-02T09:26:16.988Z</time></trkpt><trkpt lat="44.3692297" lon="4.452357"><ele>242.0</ele><time>2026-05-02T09:26:17.987Z</time></trkpt><trkpt lat="44.3692505" lon="4.4522352"><ele>242.0</ele><time>2026-05-02T09:26:18.986Z</time></trkpt><trkpt lat="44.3692975" lon="4.4521126"><ele>242.0</ele><time>2026-05-02T09:26:19.987Z</time></trkpt><trkpt lat="44.3693675" lon="4.4519754"><ele>242.0</ele><time>2026-05-02T09:26:20.987Z</time></trkpt><trkpt lat="44.3694546" lon="4.4518228"><ele>242.0</ele><time>2026-05-02T09:26:21.987Z</time></trkpt><trkpt lat="44.3695639" lon="4.4516562"><ele>242.33333333333334</ele><time>2026-05-02T09:26:22.987Z</time></trkpt><trkpt lat="44.3696944" lon="4.4514753"><ele>242.66666666666669</ele><time>2026-05-02T09:26:23.987Z</time></trkpt><trkpt lat="44.3698394" lon="4.4512876"><ele>243.0</ele><time>2026-05-02T09:26:24.987Z</time></trkpt><trkpt lat="44.3699874" lon="4.4511054"><ele>243.0</ele><time>2026-05-02T09:26:25.988Z</time></trkpt><trkpt lat="44.370137" lon="4.4509372"><ele>243.0</ele><time>2026-05-02T09:26:26.988Z</time></trkpt><trkpt lat="44.3702829" lon="4.4507825"><ele>243.0</ele><time>2026-05-02T09:26:27.986Z</time></trkpt><trkpt lat="44.3704139" lon="4.4506218"><ele>247.66666666666669</ele><time>2026-05-02T09:26:28.987Z</time></trkpt><trkpt lat="44.3705232" lon="4.450427"><ele>252.33333333333334</ele><time>2026-05-02T09:26:29.987Z</time></trkpt><trkpt lat="44.3706283" lon="4.4502041"><ele>257.0</ele><time>2026-05-02T09:26:30.987Z</time></trkpt><trkpt lat="44.3707304" lon="4.4499816"><ele>257.0</ele><time>2026-05-02T09:26:31.987Z</time></trkpt><trkpt lat="44.3708295" lon="4.4497528"><ele>257.0</ele><time>2026-05-02T09:26:32.987Z</time></trkpt><trkpt lat="44.3709213" lon="4.4495228"><ele>257.0</ele><time>2026-05-02T09:26:33.987Z</time></trkpt><trkpt lat="44.3709962" lon="4.4492942"><ele>250.33333333333334</ele><time>2026-05-02T09:26:34.987Z</time></trkpt><trkpt lat="44.3710607" lon="4.4490738"><ele>243.66666666666669</ele><time>2026-05-02T09:26:35.988Z</time></trkpt><trkpt lat="44.3711414" lon="4.4488792"><ele>237.0</ele><time>2026-05-02T09:26:36.987Z</time></trkpt><trkpt lat="44.3712487" lon="4.4487364"><ele>239.25</ele><time>2026-05-02T09:26:37.987Z</time></trkpt><trkpt lat="44.3713694" lon="4.4486501"><ele>241.5</ele><time>2026-05-02T09:26:38.987Z</time></trkpt><trkpt lat="44.3714997" lon="4.4486115"><ele>243.75</ele><time>2026-05-02T09:26:39.987Z</time></trkpt><trkpt lat="44.371639" lon="4.4486112"><ele>246.0</ele><time>2026-05-02T09:26:40.987Z</time></trkpt><trkpt lat="44.371778" lon="4.4486458"><ele>246.0</ele><time>2026-05-02T09:26:41.987Z</time></trkpt><trkpt lat="44.3719154" lon="4.4486911"><ele>246.0</ele><time>2026-05-02T09:26:42.987Z</time></trkpt><trkpt lat="44.3720545" lon="4.4487495"><ele>246.0</ele><time>2026-05-02T09:26:43.987Z</time></trkpt><trkpt lat="44.3721933" lon="4.4488228"><ele>246.0</ele><time>2026-05-02T09:26:44.987Z</time></trkpt><trkpt lat="44.3723288" lon="4.4489217"><ele>254.25</ele><time>2026-05-02T09:26:45.987Z</time></trkpt><trkpt lat="44.3724479" lon="4.4490368"><ele>262.5</ele><time>2026-05-02T09:26:46.987Z</time></trkpt><trkpt lat="44.3725586" lon="4.4491487"><ele>270.75</ele><time>2026-05-02T09:26:47.987Z</time></trkpt><trkpt lat="44.3726612" lon="4.4492395"><ele>279.0</ele><time>2026-05-02T09:26:48.988Z</time></trkpt><trkpt lat="44.3727592" lon="4.449293"><ele>279.0</ele><time>2026-05-02T09:26:49.987Z</time></trkpt><trkpt lat="44.3728516" lon="4.449296"><ele>279.0</ele><time>2026-05-02T09:26:50.988Z</time></trkpt><trkpt lat="44.3729404" lon="4.4492436"><ele>279.0</ele><time>2026-05-02T09:26:51.987Z</time></trkpt><trkpt lat="44.3730131" lon="4.4491477"><ele>279.0</ele><time>2026-05-02T09:26:52.987Z</time></trkpt><trkpt lat="44.3730689" lon="4.4490232"><ele>279.0</ele><time>2026-05-02T09:26:53.987Z</time></trkpt><trkpt lat="44.3731221" lon="4.448875"><ele>277.0</ele><time>2026-05-02T09:26:54.986Z</time></trkpt><trkpt lat="44.373175" lon="4.4487155"><ele>275.0</ele><time>2026-05-02T09:26:55.987Z</time></trkpt><trkpt lat="44.3732292" lon="4.4485502"><ele>273.0</ele><time>2026-05-02T09:26:56.987Z</time></trkpt><trkpt lat="44.3733019" lon="4.4483966"><ele>271.0</ele><time>2026-05-02T09:26:57.986Z</time></trkpt><trkpt lat="44.3734075" lon="4.4482738"><ele>271.0</ele><time>2026-05-02T09:26:58.988Z</time></trkpt><trkpt lat="44.3735302" lon="4.4481842"><ele>271.0</ele><time>2026-05-02T09:26:59.988Z</time></trkpt><trkpt lat="44.3736468" lon="4.4481145"><ele>271.0</ele><time>2026-05-02T09:27:00.987Z</time></trkpt><trkpt lat="44.373738" lon="4.4480463"><ele>271.0</ele><time>2026-05-02T09:27:01.988Z</time></trkpt><trkpt lat="44.373817" lon="4.4479791"><ele>272.0</ele><time>2026-05-02T09:27:02.987Z</time></trkpt><trkpt lat="44.3738783" lon="4.4478871"><ele>273.0</ele><time>2026-05-02T09:27:03.987Z</time></trkpt><trkpt lat="44.3739047" lon="4.4477731"><ele>274.0</ele><time>2026-05-02T09:27:04.987Z</time></trkpt><trkpt lat="44.3738924" lon="4.4476487"><ele>275.0</ele><time>2026-05-02T09:27:05.988Z</time></trkpt><trkpt lat="44.3738431" lon="4.4475353"><ele>276.0</ele><time>2026-05-02T09:27:06.987Z</time></trkpt><trkpt lat="44.3737626" lon="4.4474573"><ele>276.0</ele><time>2026-05-02T09:27:07.987Z</time></trkpt><trkpt lat="44.3736596" lon="4.4474262"><ele>276.0</ele><time>2026-05-02T09:27:08.986Z</time></trkpt><trkpt lat="44.3735424" lon="4.4474212"><ele>276.0</ele><time>2026-05-02T09:27:09.987Z</time></trkpt><trkpt lat="44.3734242" lon="4.4473996"><ele>276.0</ele><time>2026-05-02T09:27:10.987Z</time></trkpt><trkpt lat="44.3733046" lon="4.4473503"><ele>276.0</ele><time>2026-05-02T09:27:11.988Z</time></trkpt><trkpt lat="44.3731769" lon="4.4472743"><ele>276.0</ele><time>2026-05-02T09:27:12.987Z</time></trkpt><trkpt lat="44.3730454" lon="4.4471802"><ele>276.0</ele><time>2026-05-02T09:27:13.987Z</time></trkpt><trkpt lat="44.372915" lon="4.4470594"><ele>276.0</ele><time>2026-05-02T09:27:14.987Z</time></trkpt><trkpt lat="44.3727947" lon="4.4469031"><ele>275.0</ele><time>2026-05-02T09:27:15.987Z</time></trkpt><trkpt lat="44.3726962" lon="4.4467178"><ele>274.0</ele><time>2026-05-02T09:27:16.986Z</time></trkpt><trkpt lat="44.3726263" lon="4.4465024"><ele>273.0</ele><time>2026-05-02T09:27:17.988Z</time></trkpt><trkpt lat="44.3725815" lon="4.4462684"><ele>276.6666666666667</ele><time>2026-05-02T09:27:18.988Z</time></trkpt><trkpt lat="44.3725459" lon="4.4460202"><ele>280.33333333333337</ele><time>2026-05-02T09:27:19.987Z</time></trkpt><trkpt lat="44.3725065" lon="4.4457613"><ele>284.0</ele><time>2026-05-02T09:27:20.987Z</time></trkpt><trkpt lat="44.3724606" lon="4.4454991"><ele>286.33333333333337</ele><time>2026-05-02T09:27:21.987Z</time></trkpt><trkpt lat="44.3724092" lon="4.4452378"><ele>288.6666666666667</ele><time>2026-05-02T09:27:22.987Z</time></trkpt><trkpt lat="44.372369" lon="4.4449874"><ele>291.0</ele><time>2026-05-02T09:27:23.987Z</time></trkpt><trkpt lat="44.3723479" lon="4.4447375"><ele>291.0</ele><time>2026-05-02T09:27:24.986Z</time></trkpt><trkpt lat="44.3723463" lon="4.4445011"><ele>291.0</ele><time>2026-05-02T09:27:25.987Z</time></trkpt><trkpt lat="44.3723593" lon="4.4442824"><ele>291.0</ele><time>2026-05-02T09:27:26.987Z</time></trkpt><trkpt lat="44.3723875" lon="4.4440875"><ele>291.0</ele><time>2026-05-02T09:27:27.987Z</time></trkpt><trkpt lat="44.3724447" lon="4.4439272"><ele>291.0</ele><time>2026-05-02T09:27:28.987Z</time></trkpt><trkpt lat="44.3725343" lon="4.4438148"><ele>291.0</ele><time>2026-05-02T09:27:29.988Z</time></trkpt><trkpt lat="44.3726407" lon="4.4437633"><ele>291.0</ele><time>2026-05-02T09:27:30.987Z</time></trkpt><trkpt lat="44.3727551" lon="4.4437724"><ele>291.0</ele><time>2026-05-02T09:27:31.988Z</time></trkpt><trkpt lat="44.3728687" lon="4.4438226"><ele>291.0</ele><time>2026-05-02T09:27:32.988Z</time></trkpt><trkpt lat="44.3729879" lon="4.4438763"><ele>291.0</ele><time>2026-05-02T09:27:33.987Z</time></trkpt><trkpt lat="44.373115" lon="4.4439005"><ele>291.0</ele><time>2026-05-02T09:27:34.987Z</time></trkpt><trkpt lat="44.3732451" lon="4.4438946"><ele>292.25</ele><time>2026-05-02T09:27:35.988Z</time></trkpt><trkpt lat="44.3733712" lon="4.4438442"><ele>293.5</ele><time>2026-05-02T09:27:36.987Z</time></trkpt><trkpt lat="44.3734858" lon="4.4437504"><ele>294.75</ele><time>2026-05-02T09:27:37.987Z</time></trkpt><trkpt lat="44.3735843" lon="4.4436185"><ele>296.0</ele><time>2026-05-02T09:27:38.988Z</time></trkpt><trkpt lat="44.3736616" lon="4.4434561"><ele>296.0</ele><time>2026-05-02T09:27:39.987Z</time></trkpt><trkpt lat="44.3737054" lon="4.4432666"><ele>296.0</ele><time>2026-05-02T09:27:40.987Z</time></trkpt><trkpt lat="44.3737147" lon="4.4430596"><ele>296.0</ele><time>2026-05-02T09:27:41.988Z</time></trkpt><trkpt lat="44.3737112" lon="4.4428433"><ele>296.0</ele><time>2026-05-02T09:27:42.986Z</time></trkpt><trkpt lat="44.3737067" lon="4.4426225"><ele>294.33333333333337</ele><time>2026-05-02T09:27:43.987Z</time></trkpt><trkpt lat="44.3737041" lon="4.4423995"><ele>292.6666666666667</ele><time>2026-05-02T09:27:44.987Z</time></trkpt><trkpt lat="44.3737145" lon="4.4421814"><ele>291.0</ele><time>2026-05-02T09:27:45.987Z</time></trkpt><trkpt lat="44.3737508" lon="4.4419784"><ele>290.5</ele><time>2026-05-02T09:27:46.987Z</time></trkpt><trkpt lat="44.3738147" lon="4.4418122"><ele>290.0</ele><time>2026-05-02T09:27:47.987Z</time></trkpt><trkpt lat="44.3738977" lon="4.4416647"><ele>289.5</ele><time>2026-05-02T09:27:48.986Z</time></trkpt><trkpt lat="44.3739925" lon="4.4415172"><ele>289.0</ele><time>2026-05-02T09:27:49.987Z</time></trkpt><trkpt lat="44.3740918" lon="4.4413698"><ele>294.25</ele><time>2026-05-02T09:27:50.987Z</time></trkpt><trkpt lat="44.3741913" lon="4.4412242"><ele>299.5</ele><time>2026-05-02T09:27:51.986Z</time></trkpt><trkpt lat="44.3742903" lon="4.4410793"><ele>304.75</ele><time>2026-05-02T09:27:52.987Z</time></trkpt><trkpt lat="44.3743889" lon="4.4409399"><ele>310.0</ele><time>2026-05-02T09:27:53.987Z</time></trkpt><trkpt lat="44.374482" lon="4.4408074"><ele>310.0</ele><time>2026-05-02T09:27:54.988Z</time></trkpt><trkpt lat="44.3745649" lon="4.4406753"><ele>310.0</ele><time>2026-05-02T09:27:55.987Z</time></trkpt><trkpt lat="44.374627" lon="4.4405377"><ele>310.0</ele><time>2026-05-02T09:27:56.987Z</time></trkpt><trkpt lat="44.3746527" lon="4.4403859"><ele>310.0</ele><time>2026-05-02T09:27:57.988Z</time></trkpt><trkpt lat="44.3746381" lon="4.440223"><ele>310.75</ele><time>2026-05-02T09:27:58.986Z</time></trkpt><trkpt lat="44.374591" lon="4.4400752"><ele>311.5</ele><time>2026-05-02T09:27:59.987Z</time></trkpt><trkpt lat="44.3745104" lon="4.4399521"><ele>312.25</ele><time>2026-05-02T09:28:00.986Z</time></trkpt><trkpt lat="44.374406" lon="4.4398456"><ele>313.0</ele><time>2026-05-02T09:28:01.987Z</time></trkpt><trkpt lat="44.3742843" lon="4.4397487"><ele>313.0</ele><time>2026-05-02T09:28:02.987Z</time></trkpt><trkpt lat="44.3741613" lon="4.4396621"><ele>313.0</ele><time>2026-05-02T09:28:03.987Z</time></trkpt><trkpt lat="44.3740458" lon="4.439579"><ele>313.0</ele><time>2026-05-02T09:28:04.988Z</time></trkpt><trkpt lat="44.3739638" lon="4.4394742"><ele>313.0</ele><time>2026-05-02T09:28:05.988Z</time></trkpt><trkpt lat="44.3739167" lon="4.4393497"><ele>314.66666666666663</ele><time>2026-05-02T09:28:06.987Z</time></trkpt><trkpt lat="44.3739133" lon="4.4392299"><ele>316.3333333333333</ele><time>2026-05-02T09:28:07.986Z</time></trkpt><trkpt lat="44.3739447" lon="4.4391325"><ele>318.0</ele><time>2026-05-02T09:28:08.987Z</time></trkpt><trkpt lat="44.3740088" lon="4.4390665"><ele>319.6666666666667</ele><time>2026-05-02T09:28:09.986Z</time></trkpt><trkpt lat="44.3740897" lon="4.4390239"><ele>321.33333333333337</ele><time>2026-05-02T09:28:10.988Z</time></trkpt><trkpt lat="44.3741675" lon="4.4389832"><ele>323.0</ele><time>2026-05-02T09:28:11.987Z</time></trkpt><trkpt lat="44.3742461" lon="4.4389493"><ele>323.0</ele><time>2026-05-02T09:28:12.987Z</time></trkpt><trkpt lat="44.3743301" lon="4.4389289"><ele>323.0</ele><time>2026-05-02T09:28:13.987Z</time></trkpt><trkpt lat="44.3744226" lon="4.438933"><ele>323.0</ele><time>2026-05-02T09:28:14.987Z</time></trkpt><trkpt lat="44.3745322" lon="4.4389612"><ele>323.0</ele><time>2026-05-02T09:28:15.987Z</time></trkpt><trkpt lat="44.374655" lon="4.4389929"><ele>323.0</ele><time>2026-05-02T09:28:16.987Z</time></trkpt><trkpt lat="44.3747846" lon="4.4389905"><ele>324.0</ele><time>2026-05-02T09:28:17.987Z</time></trkpt><trkpt lat="44.3749321" lon="4.4389468"><ele>325.0</ele><time>2026-05-02T09:28:18.986Z</time></trkpt><trkpt lat="44.3751022" lon="4.4388693"><ele>326.0</ele><time>2026-05-02T09:28:19.987Z</time></trkpt><trkpt lat="44.3752802" lon="4.4387844"><ele>321.6666666666667</ele><time>2026-05-02T09:28:20.987Z</time></trkpt><trkpt lat="44.3754721" lon="4.4386957"><ele>317.3333333333333</ele><time>2026-05-02T09:28:21.987Z</time></trkpt><trkpt lat="44.3756668" lon="4.438602"><ele>313.0</ele><time>2026-05-02T09:28:22.987Z</time></trkpt><trkpt lat="44.3758596" lon="4.4385087"><ele>313.0</ele><time>2026-05-02T09:28:23.987Z</time></trkpt><trkpt lat="44.376049" lon="4.4384186"><ele>313.0</ele><time>2026-05-02T09:28:24.987Z</time></trkpt><trkpt lat="44.3762354" lon="4.4383306"><ele>313.0</ele><time>2026-05-02T09:28:25.987Z</time></trkpt><trkpt lat="44.3764184" lon="4.4382489"><ele>311.3333333333333</ele><time>2026-05-02T09:28:26.987Z</time></trkpt><trkpt lat="44.3765956" lon="4.438181"><ele>309.6666666666667</ele><time>2026-05-02T09:28:27.986Z</time></trkpt><trkpt lat="44.3767589" lon="4.438154"><ele>308.0</ele><time>2026-05-02T09:28:28.987Z</time></trkpt><trkpt lat="44.3769127" lon="4.4381652"><ele>308.0</ele><time>2026-05-02T09:28:29.986Z</time></trkpt><trkpt lat="44.3770527" lon="4.4382062"><ele>308.0</ele><time>2026-05-02T09:28:30.987Z</time></trkpt><trkpt lat="44.3771782" lon="4.4382651"><ele>308.0</ele><time>2026-05-02T09:28:31.988Z</time></trkpt><trkpt lat="44.3772989" lon="4.4383261"><ele>308.0</ele><time>2026-05-02T09:28:32.987Z</time></trkpt><trkpt lat="44.3774122" lon="4.4383844"><ele>304.83333333333337</ele><time>2026-05-02T09:28:33.988Z</time></trkpt><trkpt lat="44.3775025" lon="4.4384335"><ele>301.6666666666667</ele><time>2026-05-02T09:28:34.988Z</time></trkpt><trkpt lat="44.377578" lon="4.4384916"><ele>298.5</ele><time>2026-05-02T09:28:35.987Z</time></trkpt><trkpt lat="44.377643" lon="4.4385608"><ele>295.3333333333333</ele><time>2026-05-02T09:28:36.988Z</time></trkpt><trkpt lat="44.3776995" lon="4.4386357"><ele>292.16666666666663</ele><time>2026-05-02T09:28:37.987Z</time></trkpt><trkpt lat="44.3777518" lon="4.4387101"><ele>289.0</ele><time>2026-05-02T09:28:38.987Z</time></trkpt><trkpt lat="44.3778021" lon="4.4387846"><ele>282.14285714285717</ele><time>2026-05-02T09:28:39.987Z</time></trkpt><trkpt lat="44.3778518" lon="4.4388564"><ele>275.2857142857143</ele><time>2026-05-02T09:28:40.987Z</time></trkpt><trkpt lat="44.3778994" lon="4.4389278"><ele>268.42857142857144</ele><time>2026-05-02T09:28:41.988Z</time></trkpt><trkpt lat="44.3779474" lon="4.439003"><ele>261.57142857142856</ele><time>2026-05-02T09:28:42.987Z</time></trkpt><trkpt lat="44.3779973" lon="4.4390789"><ele>254.71428571428572</ele><time>2026-05-02T09:28:43.987Z</time></trkpt><trkpt lat="44.3780475" lon="4.4391587"><ele>247.85714285714286</ele><time>2026-05-02T09:28:44.987Z</time></trkpt><trkpt lat="44.3780987" lon="4.4392488"><ele>241.0</ele><time>2026-05-02T09:28:45.987Z</time></trkpt><trkpt lat="44.3781495" lon="4.439347"><ele>241.0</ele><time>2026-05-02T09:28:46.987Z</time></trkpt><trkpt lat="44.3782015" lon="4.4394592"><ele>241.00000000000003</ele><time>2026-05-02T09:28:47.988Z</time></trkpt><trkpt lat="44.3782626" lon="4.439586"><ele>241.00000000000003</ele><time>2026-05-02T09:28:48.988Z</time></trkpt><trkpt lat="44.378331" lon="4.4397154"><ele>241.0</ele><time>2026-05-02T09:28:49.987Z</time></trkpt><trkpt lat="44.3784109" lon="4.4398343"><ele>241.0</ele><time>2026-05-02T09:28:50.988Z</time></trkpt><trkpt lat="44.3785042" lon="4.4399424"><ele>237.60000000000002</ele><time>2026-05-02T09:28:51.988Z</time></trkpt><trkpt lat="44.3786078" lon="4.4400332"><ele>234.20000000000002</ele><time>2026-05-02T09:28:52.988Z</time></trkpt><trkpt lat="44.3787136" lon="4.4401093"><ele>230.79999999999998</ele><time>2026-05-02T09:28:53.987Z</time></trkpt><trkpt lat="44.3787913" lon="4.4402008"><ele>227.39999999999998</ele><time>2026-05-02T09:28:54.987Z</time></trkpt><trkpt lat="44.3788376" lon="4.4403189"><ele>224.0</ele><time>2026-05-02T09:28:55.987Z</time></trkpt><trkpt lat="44.3788605" lon="4.4404596"><ele>231.2</ele><time>2026-05-02T09:28:56.987Z</time></trkpt><trkpt lat="44.3788655" lon="4.4406139"><ele>238.39999999999998</ele><time>2026-05-02T09:28:57.987Z</time></trkpt><trkpt lat="44.3788704" lon="4.4407696"><ele>245.6</ele><time>2026-05-02T09:28:58.987Z</time></trkpt><trkpt lat="44.3788913" lon="4.4409188"><ele>252.8</ele><time>2026-05-02T09:28:59.988Z</time></trkpt><trkpt lat="44.3789324" lon="4.4410454"><ele>260.0</ele><time>2026-05-02T09:29:00.987Z</time></trkpt><trkpt lat="44.3790001" lon="4.4411476"><ele>260.0</ele><time>2026-05-02T09:29:01.987Z</time></trkpt><trkpt lat="44.3790814" lon="4.4412356"><ele>260.0</ele><time>2026-05-02T09:29:02.987Z</time></trkpt><trkpt lat="44.3791785" lon="4.4413217"><ele>260.0</ele><time>2026-05-02T09:29:03.987Z</time></trkpt><trkpt lat="44.3792846" lon="4.4414182"><ele>260.0</ele><time>2026-05-02T09:29:04.988Z</time></trkpt><trkpt lat="44.3793978" lon="4.4415252"><ele>257.0</ele><time>2026-05-02T09:29:05.987Z</time></trkpt><trkpt lat="44.3795162" lon="4.4416411"><ele>254.0</ele><time>2026-05-02T09:29:06.986Z</time></trkpt><trkpt lat="44.3796373" lon="4.4417654"><ele>251.0</ele><time>2026-05-02T09:29:07.987Z</time></trkpt><trkpt lat="44.3797615" lon="4.4419014"><ele>251.0</ele><time>2026-05-02T09:29:08.987Z</time></trkpt><trkpt lat="44.3798896" lon="4.4420541"><ele>251.0</ele><time>2026-05-02T09:29:09.987Z</time></trkpt><trkpt lat="44.3800191" lon="4.442206"><ele>251.0</ele><time>2026-05-02T09:29:10.987Z</time></trkpt><trkpt lat="44.3801495" lon="4.4423553"><ele>270.5</ele><time>2026-05-02T09:29:11.986Z</time></trkpt><trkpt lat="44.380282" lon="4.4425002"><ele>290.0</ele><time>2026-05-02T09:29:12.987Z</time></trkpt><trkpt lat="44.3810101" lon="4.4432002"><ele>290.0</ele><time>2026-05-02T09:29:17.987Z</time></trkpt><trkpt lat="44.3811387" lon="4.4432911"><ele>290.0</ele><time>2026-05-02T09:29:18.987Z</time></trkpt><trkpt lat="44.3812795" lon="4.4433793"><ele>290.0</ele><time>2026-05-02T09:29:19.987Z</time></trkpt><trkpt lat="44.381424" lon="4.4434677"><ele>284.75</ele><time>2026-05-02T09:29:20.986Z</time></trkpt><trkpt lat="44.3815647" lon="4.4435667"><ele>279.5</ele><time>2026-05-02T09:29:21.987Z</time></trkpt><trkpt lat="44.38169" lon="4.4436763"><ele>274.25</ele><time>2026-05-02T09:29:22.988Z</time></trkpt><trkpt lat="44.3818115" lon="4.443785"><ele>269.0</ele><time>2026-05-02T09:29:23.988Z</time></trkpt><trkpt lat="44.3819272" lon="4.4438886"><ele>269.0</ele><time>2026-05-02T09:29:24.988Z</time></trkpt><trkpt lat="44.382043" lon="4.4439927"><ele>269.0</ele><time>2026-05-02T09:29:25.988Z</time></trkpt><trkpt lat="44.3821573" lon="4.4440981"><ele>269.0</ele><time>2026-05-02T09:29:26.988Z</time></trkpt><trkpt lat="44.3822725" lon="4.4442047"><ele>269.0</ele><time>2026-05-02T09:29:27.987Z</time></trkpt><trkpt lat="44.382387" lon="4.4443157"><ele>263.25</ele><time>2026-05-02T09:29:28.987Z</time></trkpt><trkpt lat="44.3824986" lon="4.4444368"><ele>257.5</ele><time>2026-05-02T09:29:29.987Z</time></trkpt><trkpt lat="44.3826047" lon="4.4445686"><ele>251.75</ele><time>2026-05-02T09:29:30.988Z</time></trkpt><trkpt lat="44.3827027" lon="4.4447146"><ele>246.0</ele><time>2026-05-02T09:29:31.987Z</time></trkpt><trkpt lat="44.382796" lon="4.4448757"><ele>246.0</ele><time>2026-05-02T09:29:32.987Z</time></trkpt><trkpt lat="44.3828874" lon="4.4450516"><ele>246.0</ele><time>2026-05-02T09:29:33.986Z</time></trkpt><trkpt lat="44.3829817" lon="4.4452404"><ele>246.0</ele><time>2026-05-02T09:29:34.987Z</time></trkpt><trkpt lat="44.3830772" lon="4.4454388"><ele>237.66666666666669</ele><time>2026-05-02T09:29:35.987Z</time></trkpt><trkpt lat="44.3831777" lon="4.445637"><ele>229.33333333333334</ele><time>2026-05-02T09:29:36.987Z</time></trkpt><trkpt lat="44.3832853" lon="4.445832"><ele>221.0</ele><time>2026-05-02T09:29:37.987Z</time></trkpt><trkpt lat="44.3834001" lon="4.4460172"><ele>221.0</ele><time>2026-05-02T09:29:38.988Z</time></trkpt><trkpt lat="44.3835182" lon="4.4461942"><ele>221.0</ele><time>2026-05-02T09:29:39.988Z</time></trkpt><trkpt lat="44.3836402" lon="4.4463645"><ele>221.0</ele><time>2026-05-02T09:29:40.987Z</time></trkpt><trkpt lat="44.3837641" lon="4.4465324"><ele>212.33333333333334</ele><time>2026-05-02T09:29:41.988Z</time></trkpt><trkpt lat="44.3838892" lon="4.4466961"><ele>203.66666666666669</ele><time>2026-05-02T09:29:42.988Z</time></trkpt><trkpt lat="44.3840095" lon="4.4468587"><ele>195.0</ele><time>2026-05-02T09:29:43.987Z</time></trkpt><trkpt lat="44.3841124" lon="4.4470136"><ele>199.5</ele><time>2026-05-02T09:29:44.988Z</time></trkpt><trkpt lat="44.3841869" lon="4.4471695"><ele>204.0</ele><time>2026-05-02T09:29:45.987Z</time></trkpt><trkpt lat="44.3842293" lon="4.4473199"><ele>208.5</ele><time>2026-05-02T09:29:46.987Z</time></trkpt><trkpt lat="44.3842445" lon="4.447467"><ele>213.0</ele><time>2026-05-02T09:29:47.988Z</time></trkpt><trkpt lat="44.384235" lon="4.4476156"><ele>213.0</ele><time>2026-05-02T09:29:48.987Z</time></trkpt><trkpt lat="44.3842106" lon="4.4477491"><ele>213.0</ele><time>2026-05-02T09:29:49.987Z</time></trkpt><trkpt lat="44.3842002" lon="4.4478519"><ele>213.0</ele><time>2026-05-02T09:29:50.986Z</time></trkpt><trkpt lat="44.3842191" lon="4.447939"><ele>213.0</ele><time>2026-05-02T09:29:51.987Z</time></trkpt><trkpt lat="44.38432" lon="4.4480123"><ele>213.0</ele><time>2026-05-02T09:29:53.988Z</time></trkpt><trkpt lat="44.3844206" lon="4.4479064"><ele>213.0</ele><time>2026-05-02T09:29:55.987Z</time></trkpt><trkpt lat="44.3844422" lon="4.4478026"><ele>213.0</ele><time>2026-05-02T09:29:56.987Z</time></trkpt><trkpt lat="44.3844427" lon="4.4476723"><ele>213.0</ele><time>2026-05-02T09:29:57.988Z</time></trkpt><trkpt lat="44.3844366" lon="4.4475224"><ele>213.0</ele><time>2026-05-02T09:29:58.987Z</time></trkpt><trkpt lat="44.3844213" lon="4.4473514"><ele>213.0</ele><time>2026-05-02T09:29:59.987Z</time></trkpt><trkpt lat="44.3843994" lon="4.4471583"><ele>207.0</ele><time>2026-05-02T09:30:00.987Z</time></trkpt><trkpt lat="44.3843716" lon="4.4469524"><ele>201.0</ele><time>2026-05-02T09:30:01.987Z</time></trkpt><trkpt lat="44.3843234" lon="4.4467493"><ele>195.0</ele><time>2026-05-02T09:30:02.987Z</time></trkpt><trkpt lat="44.3842493" lon="4.4465569"><ele>195.0</ele><time>2026-05-02T09:30:03.987Z</time></trkpt><trkpt lat="44.3841537" lon="4.4463819"><ele>195.0</ele><time>2026-05-02T09:30:04.988Z</time></trkpt><trkpt lat="44.3840579" lon="4.4462048"><ele>195.0</ele><time>2026-05-02T09:30:05.987Z</time></trkpt><trkpt lat="44.3839937" lon="4.4459938"><ele>189.33333333333334</ele><time>2026-05-02T09:30:06.988Z</time></trkpt><trkpt lat="44.3839507" lon="4.4457648"><ele>183.66666666666669</ele><time>2026-05-02T09:30:07.988Z</time></trkpt><trkpt lat="44.3839163" lon="4.4455266"><ele>178.0</ele><time>2026-05-02T09:30:08.987Z</time></trkpt><trkpt lat="44.3838771" lon="4.4452823"><ele>182.66666666666669</ele><time>2026-05-02T09:30:09.987Z</time></trkpt><trkpt lat="44.3838313" lon="4.445034"><ele>187.33333333333334</ele><time>2026-05-02T09:30:10.988Z</time></trkpt><trkpt lat="44.3837852" lon="4.4447843"><ele>192.0</ele><time>2026-05-02T09:30:11.988Z</time></trkpt><trkpt lat="44.38374" lon="4.4445287"><ele>192.0</ele><time>2026-05-02T09:30:12.988Z</time></trkpt><trkpt lat="44.3836926" lon="4.4442767"><ele>192.0</ele><time>2026-05-02T09:30:13.987Z</time></trkpt><trkpt lat="44.3836417" lon="4.4440269"><ele>192.0</ele><time>2026-05-02T09:30:14.987Z</time></trkpt><trkpt lat="44.3835948" lon="4.4437759"><ele>188.0</ele><time>2026-05-02T09:30:15.987Z</time></trkpt><trkpt lat="44.3835494" lon="4.443524"><ele>184.0</ele><time>2026-05-02T09:30:16.987Z</time></trkpt><trkpt lat="44.3835013" lon="4.4432758"><ele>180.0</ele><time>2026-05-02T09:30:17.986Z</time></trkpt><trkpt lat="44.3834511" lon="4.4430286"><ele>173.66666666666666</ele><time>2026-05-02T09:30:18.987Z</time></trkpt><trkpt lat="44.3833968" lon="4.4427859"><ele>167.33333333333331</ele><time>2026-05-02T09:30:19.987Z</time></trkpt><trkpt lat="44.3833285" lon="4.4425509"><ele>161.0</ele><time>2026-05-02T09:30:20.988Z</time></trkpt><trkpt lat="44.3832471" lon="4.4423246"><ele>161.66666666666666</ele><time>2026-05-02T09:30:21.987Z</time></trkpt><trkpt lat="44.3831584" lon="4.442105"><ele>162.33333333333334</ele><time>2026-05-02T09:30:22.987Z</time></trkpt><trkpt lat="44.3830737" lon="4.441887"><ele>163.0</ele><time>2026-05-02T09:30:23.987Z</time></trkpt><trkpt lat="44.3830012" lon="4.4416836"><ele>163.0</ele><time>2026-05-02T09:30:24.987Z</time></trkpt><trkpt lat="44.3829285" lon="4.4415114"><ele>163.0</ele><time>2026-05-02T09:30:25.987Z</time></trkpt><trkpt lat="44.3828404" lon="4.4413701"><ele>163.0</ele><time>2026-05-02T09:30:26.987Z</time></trkpt><trkpt lat="44.3827307" lon="4.4412617"><ele>163.0</ele><time>2026-05-02T09:30:27.987Z</time></trkpt><trkpt lat="44.3826061" lon="4.4411699"><ele>156.0</ele><time>2026-05-02T09:30:28.987Z</time></trkpt><trkpt lat="44.3824774" lon="4.4410621"><ele>149.0</ele><time>2026-05-02T09:30:29.988Z</time></trkpt><trkpt lat="44.3823721" lon="4.4409055"><ele>142.0</ele><time>2026-05-02T09:30:30.988Z</time></trkpt><trkpt lat="44.3822864" lon="4.4407227"><ele>142.0</ele><time>2026-05-02T09:30:31.987Z</time></trkpt><trkpt lat="44.3822093" lon="4.4405341"><ele>142.0</ele><time>2026-05-02T09:30:32.986Z</time></trkpt><trkpt lat="44.3821326" lon="4.4403463"><ele>142.0</ele><time>2026-05-02T09:30:33.987Z</time></trkpt><trkpt lat="44.3820479" lon="4.4401681"><ele>141.33333333333334</ele><time>2026-05-02T09:30:34.987Z</time></trkpt><trkpt lat="44.3819537" lon="4.4400006"><ele>140.66666666666666</ele><time>2026-05-02T09:30:35.987Z</time></trkpt><trkpt lat="44.3818522" lon="4.4398417"><ele>140.0</ele><time>2026-05-02T09:30:36.988Z</time></trkpt><trkpt lat="44.3817447" lon="4.4396799"><ele>130.33333333333331</ele><time>2026-05-02T09:30:37.987Z</time></trkpt><trkpt lat="44.3816291" lon="4.4395057"><ele>120.66666666666666</ele><time>2026-05-02T09:30:38.987Z</time></trkpt><trkpt lat="44.3815097" lon="4.4393244"><ele>111.0</ele><time>2026-05-02T09:30:39.988Z</time></trkpt><trkpt lat="44.3813857" lon="4.4391405"><ele>110.66666666666666</ele><time>2026-05-02T09:30:40.987Z</time></trkpt><trkpt lat="44.3812548" lon="4.4389582"><ele>110.33333333333333</ele><time>2026-05-02T09:30:41.987Z</time></trkpt><trkpt lat="44.3811182" lon="4.4387777"><ele>110.0</ele><time>2026-05-02T09:30:42.987Z</time></trkpt><trkpt lat="44.3809776" lon="4.4386012"><ele>110.0</ele><time>2026-05-02T09:30:43.987Z</time></trkpt><trkpt lat="44.380832" lon="4.4384361"><ele>110.0</ele><time>2026-05-02T09:30:44.987Z</time></trkpt><trkpt lat="44.3806867" lon="4.4382791"><ele>110.0</ele><time>2026-05-02T09:30:45.987Z</time></trkpt><trkpt lat="44.3805423" lon="4.4381192"><ele>108.33333333333333</ele><time>2026-05-02T09:30:46.987Z</time></trkpt><trkpt lat="44.3804008" lon="4.4379597"><ele>106.66666666666666</ele><time>2026-05-02T09:30:47.987Z</time></trkpt><trkpt lat="44.3802585" lon="4.4378071"><ele>105.0</ele><time>2026-05-02T09:30:48.987Z</time></trkpt><trkpt lat="44.3801157" lon="4.4376574"><ele>105.0</ele><time>2026-05-02T09:30:49.987Z</time></trkpt><trkpt lat="44.3799787" lon="4.4375054"><ele>105.0</ele><time>2026-05-02T09:30:50.987Z</time></trkpt><trkpt lat="44.3798443" lon="4.4373486"><ele>105.0</ele><time>2026-05-02T09:30:51.987Z</time></trkpt><trkpt lat="44.3797133" lon="4.4371907"><ele>103.0</ele><time>2026-05-02T09:30:52.987Z</time></trkpt><trkpt lat="44.3795854" lon="4.4370318"><ele>101.0</ele><time>2026-05-02T09:30:53.987Z</time></trkpt><trkpt lat="44.3794637" lon="4.4368661"><ele>99.0</ele><time>2026-05-02T09:30:54.988Z</time></trkpt><trkpt lat="44.3793463" lon="4.436703"><ele>99.0</ele><time>2026-05-02T09:30:55.987Z</time></trkpt><trkpt lat="44.3792383" lon="4.4365552"><ele>99.0</ele><time>2026-05-02T09:30:56.988Z</time></trkpt><trkpt lat="44.3791416" lon="4.4364203"><ele>99.0</ele><time>2026-05-02T09:30:57.988Z</time></trkpt><trkpt lat="44.3790573" lon="4.4363008"><ele>99.0</ele><time>2026-05-02T09:30:58.987Z</time></trkpt><trkpt lat="44.3789828" lon="4.4361837"><ele>96.4</ele><time>2026-05-02T09:30:59.987Z</time></trkpt><trkpt lat="44.3789269" lon="4.4360525"><ele>93.80000000000001</ele><time>2026-05-02T09:31:00.988Z</time></trkpt><trkpt lat="44.3789057" lon="4.4359052"><ele>91.19999999999999</ele><time>2026-05-02T09:31:01.988Z</time></trkpt><trkpt lat="44.3789208" lon="4.4357642"><ele>88.6</ele><time>2026-05-02T09:31:02.986Z</time></trkpt><trkpt lat="44.3789602" lon="4.4356348"><ele>86.0</ele><time>2026-05-02T09:31:03.987Z</time></trkpt><trkpt lat="44.3790165" lon="4.4355091"><ele>86.25</ele><time>2026-05-02T09:31:04.987Z</time></trkpt><trkpt lat="44.3790836" lon="4.435372"><ele>86.5</ele><time>2026-05-02T09:31:05.987Z</time></trkpt><trkpt lat="44.3791605" lon="4.4352143"><ele>86.75</ele><time>2026-05-02T09:31:06.987Z</time></trkpt><trkpt lat="44.3792407" lon="4.4350499"><ele>87.0</ele><time>2026-05-02T09:31:07.988Z</time></trkpt><trkpt lat="44.3793111" lon="4.4348815"><ele>87.0</ele><time>2026-05-02T09:31:08.987Z</time></trkpt><trkpt lat="44.3793495" lon="4.4346887"><ele>87.0</ele><time>2026-05-02T09:31:09.987Z</time></trkpt><trkpt lat="44.3793614" lon="4.4344791"><ele>87.0</ele><time>2026-05-02T09:31:10.988Z</time></trkpt><trkpt lat="44.3793573" lon="4.4342595"><ele>88.0</ele><time>2026-05-02T09:31:11.987Z</time></trkpt><trkpt lat="44.3793513" lon="4.4340293"><ele>89.0</ele><time>2026-05-02T09:31:12.987Z</time></trkpt><trkpt lat="44.3793431" lon="4.4337893"><ele>90.0</ele><time>2026-05-02T09:31:13.987Z</time></trkpt><trkpt lat="44.3793331" lon="4.4335421"><ele>90.0</ele><time>2026-05-02T09:31:14.988Z</time></trkpt><trkpt lat="44.3793162" lon="4.4332946"><ele>90.0</ele><time>2026-05-02T09:31:15.987Z</time></trkpt><trkpt lat="44.3792913" lon="4.433054"><ele>90.0</ele><time>2026-05-02T09:31:16.987Z</time></trkpt><trkpt lat="44.3792621" lon="4.4328205"><ele>93.0</ele><time>2026-05-02T09:31:17.986Z</time></trkpt><trkpt lat="44.379233" lon="4.4325999"><ele>96.0</ele><time>2026-05-02T09:31:18.988Z</time></trkpt><trkpt lat="44.3792053" lon="4.4323932"><ele>99.0</ele><time>2026-05-02T09:31:19.988Z</time></trkpt><trkpt lat="44.3791793" lon="4.4321971"><ele>98.25</ele><time>2026-05-02T09:31:20.987Z</time></trkpt><trkpt lat="44.3791546" lon="4.4320101"><ele>97.5</ele><time>2026-05-02T09:31:21.987Z</time></trkpt><trkpt lat="44.3791298" lon="4.4318243"><ele>96.75</ele><time>2026-05-02T09:31:22.987Z</time></trkpt><trkpt lat="44.3791024" lon="4.4316393"><ele>96.0</ele><time>2026-05-02T09:31:23.988Z</time></trkpt><trkpt lat="44.3790738" lon="4.4314502"><ele>96.5</ele><time>2026-05-02T09:31:24.987Z</time></trkpt><trkpt lat="44.3790468" lon="4.4312633"><ele>97.0</ele><time>2026-05-02T09:31:25.988Z</time></trkpt><trkpt lat="44.3790205" lon="4.4310843"><ele>97.5</ele><time>2026-05-02T09:31:26.986Z</time></trkpt><trkpt lat="44.3789972" lon="4.4309183"><ele>98.0</ele><time>2026-05-02T09:31:27.987Z</time></trkpt><trkpt lat="44.3789728" lon="4.4307629"><ele>98.0</ele><time>2026-05-02T09:31:28.988Z</time></trkpt><trkpt lat="44.3789433" lon="4.4306212"><ele>98.0</ele><time>2026-05-02T09:31:29.988Z</time></trkpt><trkpt lat="44.3789127" lon="4.4305036"><ele>98.0</ele><time>2026-05-02T09:31:30.987Z</time></trkpt><trkpt lat="44.3788861" lon="4.4304098"><ele>98.0</ele><time>2026-05-02T09:31:31.987Z</time></trkpt><trkpt lat="44.3788356" lon="4.4302613"><ele>98.0</ele><time>2026-05-02T09:31:33.987Z</time></trkpt><trkpt lat="44.3787848" lon="4.4301103"><ele>97.49999999999999</ele><time>2026-05-02T09:31:35.987Z</time></trkpt><trkpt lat="44.3787547" lon="4.4300236"><ele>97.0</ele><time>2026-05-02T09:31:36.988Z</time></trkpt><trkpt lat="44.378719" lon="4.4299259"><ele>96.5</ele><time>2026-05-02T09:31:37.987Z</time></trkpt><trkpt lat="44.3786834" lon="4.4298149"><ele>96.0</ele><time>2026-05-02T09:31:38.986Z</time></trkpt><trkpt lat="44.3786446" lon="4.4296991"><ele>95.5</ele><time>2026-05-02T09:31:39.987Z</time></trkpt><trkpt lat="44.3786035" lon="4.4295751"><ele>95.0</ele><time>2026-05-02T09:31:40.987Z</time></trkpt><trkpt lat="44.3785631" lon="4.4294395"><ele>95.0</ele><time>2026-05-02T09:31:41.987Z</time></trkpt><trkpt lat="44.378516" lon="4.4292935"><ele>95.0</ele><time>2026-05-02T09:31:42.987Z</time></trkpt><trkpt lat="44.378465" lon="4.429143"><ele>95.0</ele><time>2026-05-02T09:31:43.986Z</time></trkpt><trkpt lat="44.378413" lon="4.4289975"><ele>95.0</ele><time>2026-05-02T09:31:44.988Z</time></trkpt><trkpt lat="44.3783576" lon="4.428852"><ele>97.0</ele><time>2026-05-02T09:31:45.987Z</time></trkpt><trkpt lat="44.378303" lon="4.4287107"><ele>99.0</ele><time>2026-05-02T09:31:46.987Z</time></trkpt><trkpt lat="44.3782474" lon="4.4285795"><ele>101.0</ele><time>2026-05-02T09:31:47.987Z</time></trkpt><trkpt lat="44.3781888" lon="4.4284559"><ele>103.0</ele><time>2026-05-02T09:31:48.988Z</time></trkpt><trkpt lat="44.3781325" lon="4.4283382"><ele>105.0</ele><time>2026-05-02T09:31:49.987Z</time></trkpt><trkpt lat="44.378084" lon="4.4282303"><ele>105.0</ele><time>2026-05-02T09:31:50.987Z</time></trkpt><trkpt lat="44.3780383" lon="4.4281331"><ele>105.0</ele><time>2026-05-02T09:31:51.987Z</time></trkpt><trkpt lat="44.377994" lon="4.4280391"><ele>105.0</ele><time>2026-05-02T09:31:52.987Z</time></trkpt><trkpt lat="44.3779531" lon="4.427953"><ele>105.0</ele><time>2026-05-02T09:31:53.987Z</time></trkpt><trkpt lat="44.3779155" lon="4.4278738"><ele>105.0</ele><time>2026-05-02T09:31:54.986Z</time></trkpt><trkpt lat="44.3778776" lon="4.4277896"><ele>105.0</ele><time>2026-05-02T09:31:55.987Z</time></trkpt><trkpt lat="44.3778383" lon="4.4276982"><ele>104.2</ele><time>2026-05-02T09:31:56.986Z</time></trkpt><trkpt lat="44.377795" lon="4.4276022"><ele>103.4</ele><time>2026-05-02T09:31:57.986Z</time></trkpt><trkpt lat="44.3777502" lon="4.427494"><ele>102.6</ele><time>2026-05-02T09:31:58.987Z</time></trkpt><trkpt lat="44.377702" lon="4.4273816"><ele>101.8</ele><time>2026-05-02T09:31:59.986Z</time></trkpt><trkpt lat="44.3776509" lon="4.4272668"><ele>101.0</ele><time>2026-05-02T09:32:00.987Z</time></trkpt><trkpt lat="44.3775953" lon="4.4271425"><ele>101.0</ele><time>2026-05-02T09:32:01.986Z</time></trkpt><trkpt lat="44.3775378" lon="4.4270142"><ele>101.0</ele><time>2026-05-02T09:32:02.988Z</time></trkpt><trkpt lat="44.3774821" lon="4.4268923"><ele>101.0</ele><time>2026-05-02T09:32:03.986Z</time></trkpt><trkpt lat="44.3774242" lon="4.4267655"><ele>101.0</ele><time>2026-05-02T09:32:04.987Z</time></trkpt><trkpt lat="44.3773618" lon="4.4266357"><ele>101.0</ele><time>2026-05-02T09:32:05.987Z</time></trkpt><trkpt lat="44.3773028" lon="4.4265071"><ele>101.0</ele><time>2026-05-02T09:32:06.987Z</time></trkpt><trkpt lat="44.3772438" lon="4.4263857"><ele>101.0</ele><time>2026-05-02T09:32:07.987Z</time></trkpt><trkpt lat="44.3771817" lon="4.4262679"><ele>101.0</ele><time>2026-05-02T09:32:08.987Z</time></trkpt><trkpt lat="44.3771188" lon="4.4261517"><ele>101.0</ele><time>2026-05-02T09:32:09.986Z</time></trkpt><trkpt lat="44.3770565" lon="4.4260364"><ele>101.0</ele><time>2026-05-02T09:32:10.988Z</time></trkpt><trkpt lat="44.37699" lon="4.4259137"><ele>100.25</ele><time>2026-05-02T09:32:11.987Z</time></trkpt><trkpt lat="44.3769283" lon="4.4257775"><ele>99.5</ele><time>2026-05-02T09:32:12.988Z</time></trkpt><trkpt lat="44.3768777" lon="4.4256234"><ele>98.75</ele><time>2026-05-02T09:32:13.987Z</time></trkpt><trkpt lat="44.3768465" lon="4.4254499"><ele>98.0</ele><time>2026-05-02T09:32:14.987Z</time></trkpt><trkpt lat="44.376827" lon="4.4252714"><ele>98.0</ele><time>2026-05-02T09:32:15.987Z</time></trkpt><trkpt lat="44.3768103" lon="4.4250951"><ele>98.0</ele><time>2026-05-02T09:32:16.987Z</time></trkpt><trkpt lat="44.3767902" lon="4.424913"><ele>98.0</ele><time>2026-05-02T09:32:17.987Z</time></trkpt><trkpt lat="44.3767556" lon="4.424734"><ele>98.0</ele><time>2026-05-02T09:32:18.987Z</time></trkpt><trkpt lat="44.3766993" lon="4.4245576"><ele>101.25</ele><time>2026-05-02T09:32:19.986Z</time></trkpt><trkpt lat="44.3766305" lon="4.424387"><ele>104.5</ele><time>2026-05-02T09:32:20.987Z</time></trkpt><trkpt lat="44.3765564" lon="4.4242097"><ele>107.75</ele><time>2026-05-02T09:32:21.987Z</time></trkpt><trkpt lat="44.3764831" lon="4.4240273"><ele>111.0</ele><time>2026-05-02T09:32:22.988Z</time></trkpt><trkpt lat="44.3764126" lon="4.4238499"><ele>106.75</ele><time>2026-05-02T09:32:23.987Z</time></trkpt><trkpt lat="44.3763512" lon="4.4236695"><ele>102.5</ele><time>2026-05-02T09:32:24.988Z</time></trkpt><trkpt lat="44.376307" lon="4.4234793"><ele>98.25</ele><time>2026-05-02T09:32:25.987Z</time></trkpt><trkpt lat="44.3762727" lon="4.4232832"><ele>94.0</ele><time>2026-05-02T09:32:26.987Z</time></trkpt><trkpt lat="44.3762515" lon="4.4230899"><ele>94.75</ele><time>2026-05-02T09:32:27.987Z</time></trkpt><trkpt lat="44.3762426" lon="4.4228923"><ele>95.5</ele><time>2026-05-02T09:32:28.987Z</time></trkpt><trkpt lat="44.3762469" lon="4.4226962"><ele>96.25</ele><time>2026-05-02T09:32:29.987Z</time></trkpt><trkpt lat="44.3762612" lon="4.4225123"><ele>97.0</ele><time>2026-05-02T09:32:30.987Z</time></trkpt><trkpt lat="44.376283" lon="4.4223377"><ele>97.0</ele><time>2026-05-02T09:32:31.987Z</time></trkpt><trkpt lat="44.3763215" lon="4.4221816"><ele>97.0</ele><time>2026-05-02T09:32:32.988Z</time></trkpt><trkpt lat="44.3763702" lon="4.4220387"><ele>97.0</ele><time>2026-05-02T09:32:33.987Z</time></trkpt><trkpt lat="44.3764246" lon="4.4218982"><ele>97.0</ele><time>2026-05-02T09:32:34.987Z</time></trkpt><trkpt lat="44.3764763" lon="4.4217665"><ele>98.19999999999999</ele><time>2026-05-02T09:32:35.987Z</time></trkpt><trkpt lat="44.3765262" lon="4.4216424"><ele>99.4</ele><time>2026-05-02T09:32:36.988Z</time></trkpt><trkpt lat="44.376575" lon="4.4215241"><ele>100.6</ele><time>2026-05-02T09:32:37.987Z</time></trkpt><trkpt lat="44.3766243" lon="4.4214045"><ele>101.80000000000001</ele><time>2026-05-02T09:32:38.988Z</time></trkpt><trkpt lat="44.3766763" lon="4.4212831"><ele>103.0</ele><time>2026-05-02T09:32:39.987Z</time></trkpt><trkpt lat="44.3767284" lon="4.421163"><ele>102.99999999999999</ele><time>2026-05-02T09:32:40.987Z</time></trkpt><trkpt lat="44.3767759" lon="4.4210531"><ele>103.0</ele><time>2026-05-02T09:32:41.987Z</time></trkpt><trkpt lat="44.3768132" lon="4.4209566"><ele>103.0</ele><time>2026-05-02T09:32:42.987Z</time></trkpt><trkpt lat="44.3768475" lon="4.4208706"><ele>103.0</ele><time>2026-05-02T09:32:43.986Z</time></trkpt><trkpt lat="44.3768793" lon="4.4207882"><ele>103.0</ele><time>2026-05-02T09:32:44.987Z</time></trkpt><trkpt lat="44.3769113" lon="4.4207089"><ele>102.99999999999999</ele><time>2026-05-02T09:32:45.987Z</time></trkpt><trkpt lat="44.376945" lon="4.420628"><ele>103.0</ele><time>2026-05-02T09:32:46.988Z</time></trkpt><trkpt lat="44.3769795" lon="4.4205407"><ele>102.85714285714285</ele><time>2026-05-02T09:32:47.986Z</time></trkpt><trkpt lat="44.3770136" lon="4.420452"><ele>102.71428571428571</ele><time>2026-05-02T09:32:48.987Z</time></trkpt><trkpt lat="44.3770458" lon="4.4203706"><ele>102.57142857142857</ele><time>2026-05-02T09:32:49.987Z</time></trkpt><trkpt lat="44.3770787" lon="4.4202883"><ele>102.42857142857142</ele><time>2026-05-02T09:32:50.987Z</time></trkpt><trkpt lat="44.3771153" lon="4.4202019"><ele>102.28571428571429</ele><time>2026-05-02T09:32:51.987Z</time></trkpt><trkpt lat="44.3771591" lon="4.4201057"><ele>102.14285714285714</ele><time>2026-05-02T09:32:52.987Z</time></trkpt><trkpt lat="44.3772103" lon="4.4200094"><ele>102.0</ele><time>2026-05-02T09:32:53.987Z</time></trkpt><trkpt lat="44.3772703" lon="4.4199088"><ele>102.19999999999999</ele><time>2026-05-02T09:32:54.987Z</time></trkpt><trkpt lat="44.3773485" lon="4.4198164"><ele>102.4</ele><time>2026-05-02T09:32:55.987Z</time></trkpt><trkpt lat="44.3774404" lon="4.4197267"><ele>102.6</ele><time>2026-05-02T09:32:56.988Z</time></trkpt><trkpt lat="44.3775271" lon="4.4196308"><ele>102.80000000000001</ele><time>2026-05-02T09:32:57.987Z</time></trkpt><trkpt lat="44.37761" lon="4.4195216"><ele>103.0</ele><time>2026-05-02T09:32:58.988Z</time></trkpt><trkpt lat="44.3776894" lon="4.4194028"><ele>103.0</ele><time>2026-05-02T09:32:59.986Z</time></trkpt><trkpt lat="44.3777666" lon="4.4192755"><ele>103.0</ele><time>2026-05-02T09:33:00.987Z</time></trkpt><trkpt lat="44.3778533" lon="4.4191554"><ele>103.0</ele><time>2026-05-02T09:33:01.987Z</time></trkpt><trkpt lat="44.3779525" lon="4.4190628"><ele>103.0</ele><time>2026-05-02T09:33:02.988Z</time></trkpt><trkpt lat="44.3780555" lon="4.418993"><ele>102.00000000000001</ele><time>2026-05-02T09:33:03.987Z</time></trkpt><trkpt lat="44.3781531" lon="4.4189337"><ele>101.0</ele><time>2026-05-02T09:33:04.987Z</time></trkpt><trkpt lat="44.3782364" lon="4.4188839"><ele>100.0</ele><time>2026-05-02T09:33:05.987Z</time></trkpt><trkpt lat="44.378306" lon="4.4188447"><ele>99.0</ele><time>2026-05-02T09:33:06.987Z</time></trkpt><trkpt lat="44.3783723" lon="4.4188082"><ele>98.00000000000001</ele><time>2026-05-02T09:33:07.987Z</time></trkpt><trkpt lat="44.3784375" lon="4.4187719"><ele>97.0</ele><time>2026-05-02T09:33:08.988Z</time></trkpt><trkpt lat="44.3785064" lon="4.4187382"><ele>97.00000000000001</ele><time>2026-05-02T09:33:09.988Z</time></trkpt><trkpt lat="44.3785821" lon="4.4187069"><ele>97.0</ele><time>2026-05-02T09:33:10.988Z</time></trkpt><trkpt lat="44.3786595" lon="4.4186784"><ele>97.0</ele><time>2026-05-02T09:33:11.987Z</time></trkpt><trkpt lat="44.3787356" lon="4.4186495"><ele>97.0</ele><time>2026-05-02T09:33:12.988Z</time></trkpt><trkpt lat="44.3788096" lon="4.4186224"><ele>97.00000000000001</ele><time>2026-05-02T09:33:13.987Z</time></trkpt><trkpt lat="44.3788878" lon="4.4185972"><ele>97.0</ele><time>2026-05-02T09:33:14.987Z</time></trkpt><trkpt lat="44.3789673" lon="4.4185732"><ele>97.66666666666667</ele><time>2026-05-02T09:33:15.987Z</time></trkpt><trkpt lat="44.3790494" lon="4.4185491"><ele>98.33333333333334</ele><time>2026-05-02T09:33:16.987Z</time></trkpt><trkpt lat="44.3791295" lon="4.4185262"><ele>99.0</ele><time>2026-05-02T09:33:17.987Z</time></trkpt><trkpt lat="44.3792118" lon="4.4185029"><ele>99.66666666666666</ele><time>2026-05-02T09:33:18.987Z</time></trkpt><trkpt lat="44.3792959" lon="4.4184739"><ele>100.33333333333333</ele><time>2026-05-02T09:33:19.987Z</time></trkpt><trkpt lat="44.3793884" lon="4.418448"><ele>101.0</ele><time>2026-05-02T09:33:20.987Z</time></trkpt><trkpt lat="44.3794896" lon="4.4184196"><ele>101.0</ele><time>2026-05-02T09:33:21.987Z</time></trkpt><trkpt lat="44.3795971" lon="4.4183916"><ele>101.0</ele><time>2026-05-02T09:33:22.987Z</time></trkpt><trkpt lat="44.3797023" lon="4.4183687"><ele>101.0</ele><time>2026-05-02T09:33:23.987Z</time></trkpt><trkpt lat="44.3798083" lon="4.4183536"><ele>101.0</ele><time>2026-05-02T09:33:24.988Z</time></trkpt><trkpt lat="44.3799127" lon="4.4183405"><ele>101.0</ele><time>2026-05-02T09:33:25.986Z</time></trkpt><trkpt lat="44.3800142" lon="4.4183309"><ele>101.8</ele><time>2026-05-02T09:33:26.987Z</time></trkpt><trkpt lat="44.3801114" lon="4.4183251"><ele>102.6</ele><time>2026-05-02T09:33:27.987Z</time></trkpt><trkpt lat="44.3802038" lon="4.4183161"><ele>103.4</ele><time>2026-05-02T09:33:28.988Z</time></trkpt><trkpt lat="44.3802948" lon="4.4183044"><ele>104.2</ele><time>2026-05-02T09:33:29.987Z</time></trkpt><trkpt lat="44.3803832" lon="4.4182915"><ele>105.0</ele><time>2026-05-02T09:33:30.987Z</time></trkpt><trkpt lat="44.3804626" lon="4.4182841"><ele>106.16666666666667</ele><time>2026-05-02T09:33:31.988Z</time></trkpt><trkpt lat="44.3805777" lon="4.4182874"><ele>107.33333333333334</ele><time>2026-05-02T09:33:33.987Z</time></trkpt><trkpt lat="44.38066" lon="4.4183013"><ele>108.5</ele><time>2026-05-02T09:33:35.987Z</time></trkpt><trkpt lat="44.3807327" lon="4.4183124"><ele>109.66666666666667</ele><time>2026-05-02T09:33:37.987Z</time></trkpt><trkpt lat="44.380799" lon="4.4183203"><ele>110.83333333333334</ele><time>2026-05-02T09:33:39.987Z</time></trkpt><trkpt lat="44.3808716" lon="4.4183282"><ele>112.0</ele><time>2026-05-02T09:33:42.987Z</time></trkpt><trkpt lat="44.3809496" lon="4.4183229"><ele>112.0</ele><time>2026-05-02T09:33:45.986Z</time></trkpt><trkpt lat="44.3810392" lon="4.4183275"><ele>111.99999999999999</ele><time>2026-05-02T09:33:47.987Z</time></trkpt><trkpt lat="44.3811374" lon="4.4183302"><ele>111.99999999999999</ele><time>2026-05-02T09:33:49.987Z</time></trkpt><trkpt lat="44.3812433" lon="4.4183236"><ele>112.0</ele><time>2026-05-02T09:33:51.988Z</time></trkpt><trkpt lat="44.3813515" lon="4.4183155"><ele>112.0</ele><time>2026-05-02T09:33:53.987Z</time></trkpt><trkpt lat="44.3814414" lon="4.418316"><ele>111.0</ele><time>2026-05-02T09:33:55.987Z</time></trkpt><trkpt lat="44.3815395" lon="4.418319"><ele>109.99999999999999</ele><time>2026-05-02T09:33:57.987Z</time></trkpt><trkpt lat="44.3816431" lon="4.4183215"><ele>108.99999999999999</ele><time>2026-05-02T09:33:59.987Z</time></trkpt><trkpt lat="44.3817564" lon="4.4183287"><ele>108.0</ele><time>2026-05-02T09:34:01.986Z</time></trkpt><trkpt lat="44.3818285" lon="4.4183377"><ele>107.0</ele><time>2026-05-02T09:34:02.987Z</time></trkpt><trkpt lat="44.3819014" lon="4.4183481"><ele>107.0</ele><time>2026-05-02T09:34:03.987Z</time></trkpt><trkpt lat="44.3819784" lon="4.4183613"><ele>106.99999999999999</ele><time>2026-05-02T09:34:04.988Z</time></trkpt><trkpt lat="44.3820609" lon="4.418379"><ele>106.99999999999999</ele><time>2026-05-02T09:34:05.986Z</time></trkpt><trkpt lat="44.3821505" lon="4.4183992"><ele>107.0</ele><time>2026-05-02T09:34:06.987Z</time></trkpt><trkpt lat="44.3822465" lon="4.4184207"><ele>107.0</ele><time>2026-05-02T09:34:07.987Z</time></trkpt><trkpt lat="44.3823477" lon="4.4184462"><ele>107.75</ele><time>2026-05-02T09:34:08.986Z</time></trkpt><trkpt lat="44.3824544" lon="4.4184719"><ele>108.5</ele><time>2026-05-02T09:34:09.987Z</time></trkpt><trkpt lat="44.3825629" lon="4.4185001"><ele>109.25</ele><time>2026-05-02T09:34:10.987Z</time></trkpt><trkpt lat="44.3826787" lon="4.4185339"><ele>110.0</ele><time>2026-05-02T09:34:11.986Z</time></trkpt><trkpt lat="44.3827965" lon="4.4185642"><ele>110.0</ele><time>2026-05-02T09:34:12.987Z</time></trkpt><trkpt lat="44.3829169" lon="4.4185932"><ele>110.0</ele><time>2026-05-02T09:34:13.987Z</time></trkpt><trkpt lat="44.3830416" lon="4.4186199"><ele>110.0</ele><time>2026-05-02T09:34:14.987Z</time></trkpt><trkpt lat="44.3831678" lon="4.418641"><ele>110.0</ele><time>2026-05-02T09:34:15.987Z</time></trkpt><trkpt lat="44.383296" lon="4.4186574"><ele>108.0</ele><time>2026-05-02T09:34:16.987Z</time></trkpt><trkpt lat="44.3834209" lon="4.4186637"><ele>106.0</ele><time>2026-05-02T09:34:17.987Z</time></trkpt><trkpt lat="44.3835424" lon="4.4186504"><ele>104.0</ele><time>2026-05-02T09:34:18.988Z</time></trkpt><trkpt lat="44.3836581" lon="4.4186153"><ele>102.0</ele><time>2026-05-02T09:34:19.987Z</time></trkpt><trkpt lat="44.3837651" lon="4.418561"><ele>100.0</ele><time>2026-05-02T09:34:20.987Z</time></trkpt><trkpt lat="44.3838797" lon="4.4184901"><ele>98.0</ele><time>2026-05-02T09:34:21.987Z</time></trkpt><trkpt lat="44.3839992" lon="4.4184067"><ele>96.0</ele><time>2026-05-02T09:34:22.987Z</time></trkpt><trkpt lat="44.3841237" lon="4.4183165"><ele>94.0</ele><time>2026-05-02T09:34:23.988Z</time></trkpt><trkpt lat="44.3842493" lon="4.418221"><ele>94.0</ele><time>2026-05-02T09:34:24.987Z</time></trkpt><trkpt lat="44.3843728" lon="4.4181323"><ele>94.0</ele><time>2026-05-02T09:34:25.988Z</time></trkpt><trkpt lat="44.3844941" lon="4.4180825"><ele>94.0</ele><time>2026-05-02T09:34:26.987Z</time></trkpt><trkpt lat="44.3846157" lon="4.4180604"><ele>94.0</ele><time>2026-05-02T09:34:27.987Z</time></trkpt><trkpt lat="44.3847279" lon="4.4180504"><ele>93.4</ele><time>2026-05-02T09:34:28.987Z</time></trkpt><trkpt lat="44.3848351" lon="4.4180301"><ele>92.80000000000001</ele><time>2026-05-02T09:34:29.987Z</time></trkpt><trkpt lat="44.3849388" lon="4.4179933"><ele>92.19999999999999</ele><time>2026-05-02T09:34:30.988Z</time></trkpt><trkpt lat="44.3850405" lon="4.4179375"><ele>91.6</ele><time>2026-05-02T09:34:31.986Z</time></trkpt><trkpt lat="44.3851407" lon="4.4178714"><ele>91.0</ele><time>2026-05-02T09:34:32.986Z</time></trkpt><trkpt lat="44.3852397" lon="4.4178015"><ele>91.8</ele><time>2026-05-02T09:34:33.986Z</time></trkpt><trkpt lat="44.3853357" lon="4.4177314"><ele>92.6</ele><time>2026-05-02T09:34:34.987Z</time></trkpt><trkpt lat="44.3854293" lon="4.4176561"><ele>93.4</ele><time>2026-05-02T09:34:35.988Z</time></trkpt><trkpt lat="44.3855196" lon="4.4175718"><ele>94.2</ele><time>2026-05-02T09:34:36.987Z</time></trkpt><trkpt lat="44.3856084" lon="4.4174803"><ele>95.0</ele><time>2026-05-02T09:34:37.987Z</time></trkpt><trkpt lat="44.3856932" lon="4.417376"><ele>95.0</ele><time>2026-05-02T09:34:38.987Z</time></trkpt><trkpt lat="44.3857798" lon="4.4172588"><ele>95.0</ele><time>2026-05-02T09:34:39.987Z</time></trkpt><trkpt lat="44.3858588" lon="4.4171289"><ele>95.0</ele><time>2026-05-02T09:34:40.987Z</time></trkpt><trkpt lat="44.3859359" lon="4.4169871"><ele>95.0</ele><time>2026-05-02T09:34:41.988Z</time></trkpt><trkpt lat="44.3860094" lon="4.4168394"><ele>98.0</ele><time>2026-05-02T09:34:42.988Z</time></trkpt><trkpt lat="44.3860843" lon="4.4166892"><ele>101.0</ele><time>2026-05-02T09:34:43.988Z</time></trkpt><trkpt lat="44.3861582" lon="4.4165343"><ele>104.0</ele><time>2026-05-02T09:34:44.988Z</time></trkpt><trkpt lat="44.3862269" lon="4.4163705"><ele>107.0</ele><time>2026-05-02T09:34:45.988Z</time></trkpt><trkpt lat="44.3862798" lon="4.4162035"><ele>109.5</ele><time>2026-05-02T09:34:46.988Z</time></trkpt><trkpt lat="44.3863127" lon="4.4160296"><ele>112.0</ele><time>2026-05-02T09:34:47.987Z</time></trkpt><trkpt lat="44.3863293" lon="4.4158548"><ele>114.5</ele><time>2026-05-02T09:34:48.987Z</time></trkpt><trkpt lat="44.386329" lon="4.4156761"><ele>117.0</ele><time>2026-05-02T09:34:49.988Z</time></trkpt><trkpt lat="44.3863147" lon="4.4154965"><ele>117.25</ele><time>2026-05-02T09:34:50.988Z</time></trkpt><trkpt lat="44.3862954" lon="4.4153209"><ele>117.5</ele><time>2026-05-02T09:34:51.987Z</time></trkpt><trkpt lat="44.3862681" lon="4.4151488"><ele>117.75</ele><time>2026-05-02T09:34:52.987Z</time></trkpt><trkpt lat="44.3862365" lon="4.4149796"><ele>118.0</ele><time>2026-05-02T09:34:53.987Z</time></trkpt><trkpt lat="44.3862029" lon="4.4148199"><ele>118.0</ele><time>2026-05-02T09:34:54.986Z</time></trkpt><trkpt lat="44.3861663" lon="4.4146657"><ele>118.0</ele><time>2026-05-02T09:34:55.987Z</time></trkpt><trkpt lat="44.3861275" lon="4.4145153"><ele>118.0</ele><time>2026-05-02T09:34:56.987Z</time></trkpt><trkpt lat="44.3860815" lon="4.41436"><ele>118.0</ele><time>2026-05-02T09:34:57.986Z</time></trkpt><trkpt lat="44.3860351" lon="4.4142062"><ele>114.75</ele><time>2026-05-02T09:34:58.986Z</time></trkpt><trkpt lat="44.3859842" lon="4.4140571"><ele>111.5</ele><time>2026-05-02T09:34:59.987Z</time></trkpt><trkpt lat="44.3859285" lon="4.4139175"><ele>108.25</ele><time>2026-05-02T09:35:00.987Z</time></trkpt><trkpt lat="44.3858676" lon="4.4137909"><ele>105.0</ele><time>2026-05-02T09:35:01.987Z</time></trkpt><trkpt lat="44.3857926" lon="4.4136789"><ele>102.5</ele><time>2026-05-02T09:35:02.987Z</time></trkpt><trkpt lat="44.3856991" lon="4.4135922"><ele>100.0</ele><time>2026-05-02T09:35:03.987Z</time></trkpt><trkpt lat="44.3855961" lon="4.4135407"><ele>97.5</ele><time>2026-05-02T09:35:04.988Z</time></trkpt><trkpt lat="44.3854838" lon="4.4135431"><ele>95.0</ele><time>2026-05-02T09:35:05.988Z</time></trkpt><trkpt lat="44.385366" lon="4.4135767"><ele>95.0</ele><time>2026-05-02T09:35:06.987Z</time></trkpt><trkpt lat="44.3852418" lon="4.4136264"><ele>95.0</ele><time>2026-05-02T09:35:07.988Z</time></trkpt><trkpt lat="44.3851105" lon="4.4136785"><ele>95.0</ele><time>2026-05-02T09:35:08.988Z</time></trkpt><trkpt lat="44.3849736" lon="4.4137321"><ele>95.0</ele><time>2026-05-02T09:35:09.987Z</time></trkpt><trkpt lat="44.384838" lon="4.4137863"><ele>95.75</ele><time>2026-05-02T09:35:10.987Z</time></trkpt><trkpt lat="44.3847054" lon="4.4138434"><ele>96.5</ele><time>2026-05-02T09:35:11.988Z</time></trkpt><trkpt lat="44.3845772" lon="4.4139074"><ele>97.25</ele><time>2026-05-02T09:35:12.987Z</time></trkpt><trkpt lat="44.3844532" lon="4.4139751"><ele>98.0</ele><time>2026-05-02T09:35:13.987Z</time></trkpt><trkpt lat="44.3843294" lon="4.414044"><ele>98.0</ele><time>2026-05-02T09:35:14.987Z</time></trkpt><trkpt lat="44.3842063" lon="4.4140809"><ele>98.0</ele><time>2026-05-02T09:35:15.986Z</time></trkpt><trkpt lat="44.3840884" lon="4.4140791"><ele>98.0</ele><time>2026-05-02T09:35:16.986Z</time></trkpt><trkpt lat="44.3839955" lon="4.4140484"><ele>98.0</ele><time>2026-05-02T09:35:17.987Z</time></trkpt><trkpt lat="44.3839279" lon="4.414008"><ele>98.0</ele><time>2026-05-02T09:35:18.987Z</time></trkpt><trkpt lat="44.3838315" lon="4.4139351"><ele>97.4</ele><time>2026-05-02T09:35:20.987Z</time></trkpt><trkpt lat="44.383754" lon="4.4138757"><ele>96.80000000000001</ele><time>2026-05-02T09:35:22.987Z</time></trkpt><trkpt lat="44.3836717" lon="4.4138228"><ele>96.2</ele><time>2026-05-02T09:35:24.987Z</time></trkpt><trkpt lat="44.3835712" lon="4.4137555"><ele>95.6</ele><time>2026-05-02T09:35:26.988Z</time></trkpt><trkpt lat="44.3834582" lon="4.4136796"><ele>95.0</ele><time>2026-05-02T09:35:28.988Z</time></trkpt><trkpt lat="44.3834003" lon="4.4136388"><ele>95.0</ele><time>2026-05-02T09:35:29.987Z</time></trkpt><trkpt lat="44.3833424" lon="4.4136036"><ele>95.0</ele><time>2026-05-02T09:35:30.987Z</time></trkpt><trkpt lat="44.3832219" lon="4.4135505"><ele>95.0</ele><time>2026-05-02T09:35:32.988Z</time></trkpt><trkpt lat="44.3831561" lon="4.4135379"><ele>95.0</ele><time>2026-05-02T09:35:33.986Z</time></trkpt><trkpt lat="44.3830848" lon="4.4135443"><ele>95.0</ele><time>2026-05-02T09:35:34.986Z</time></trkpt><trkpt lat="44.3830105" lon="4.4135612"><ele>95.0</ele><time>2026-05-02T09:35:35.986Z</time></trkpt><trkpt lat="44.3829348" lon="4.4135893"><ele>96.33333333333334</ele><time>2026-05-02T09:35:36.986Z</time></trkpt><trkpt lat="44.3828558" lon="4.4136195"><ele>97.66666666666667</ele><time>2026-05-02T09:35:37.986Z</time></trkpt><trkpt lat="44.3827763" lon="4.4136504"><ele>99.0</ele><time>2026-05-02T09:35:38.986Z</time></trkpt><trkpt lat="44.3826936" lon="4.4136779"><ele>100.33333333333334</ele><time>2026-05-02T09:35:39.987Z</time></trkpt><trkpt lat="44.3826043" lon="4.4136945"><ele>101.66666666666667</ele><time>2026-05-02T09:35:40.986Z</time></trkpt><trkpt lat="44.3825151" lon="4.4136808"><ele>103.0</ele><time>2026-05-02T09:35:41.987Z</time></trkpt><trkpt lat="44.3824275" lon="4.4136314"><ele>103.0</ele><time>2026-05-02T09:35:42.986Z</time></trkpt><trkpt lat="44.3823502" lon="4.4135479"><ele>103.0</ele><time>2026-05-02T09:35:43.986Z</time></trkpt><trkpt lat="44.3822772" lon="4.4134373"><ele>103.0</ele><time>2026-05-02T09:35:44.986Z</time></trkpt><trkpt lat="44.3822135" lon="4.4133129"><ele>103.0</ele><time>2026-05-02T09:35:45.987Z</time></trkpt><trkpt lat="44.3821543" lon="4.4131898"><ele>103.0</ele><time>2026-05-02T09:35:46.986Z</time></trkpt><trkpt lat="44.3820952" lon="4.4130533"><ele>99.25</ele><time>2026-05-02T09:35:47.986Z</time></trkpt><trkpt lat="44.3820398" lon="4.4128986"><ele>95.5</ele><time>2026-05-02T09:35:48.986Z</time></trkpt><trkpt lat="44.3819888" lon="4.4127283"><ele>91.75</ele><time>2026-05-02T09:35:49.986Z</time></trkpt><trkpt lat="44.3819514" lon="4.4125503"><ele>88.0</ele><time>2026-05-02T09:35:50.986Z</time></trkpt><trkpt lat="44.3819333" lon="4.4123625"><ele>88.0</ele><time>2026-05-02T09:35:51.985Z</time></trkpt><trkpt lat="44.3819222" lon="4.4121745"><ele>88.0</ele><time>2026-05-02T09:35:52.986Z</time></trkpt><trkpt lat="44.3819217" lon="4.4119914"><ele>88.0</ele><time>2026-05-02T09:35:53.986Z</time></trkpt><trkpt lat="44.381924" lon="4.4118107"><ele>88.0</ele><time>2026-05-02T09:35:54.987Z</time></trkpt><trkpt lat="44.3819316" lon="4.411635"><ele>87.5</ele><time>2026-05-02T09:35:55.986Z</time></trkpt><trkpt lat="44.381949" lon="4.4114673"><ele>87.0</ele><time>2026-05-02T09:35:56.986Z</time></trkpt><trkpt lat="44.3819749" lon="4.4113017"><ele>86.5</ele><time>2026-05-02T09:35:57.986Z</time></trkpt><trkpt lat="44.3820018" lon="4.4111418"><ele>86.0</ele><time>2026-05-02T09:35:58.986Z</time></trkpt><trkpt lat="44.3820311" lon="4.4109873"><ele>85.6</ele><time>2026-05-02T09:35:59.985Z</time></trkpt><trkpt lat="44.382062" lon="4.4108346"><ele>85.19999999999999</ele><time>2026-05-02T09:36:00.985Z</time></trkpt><trkpt lat="44.3820955" lon="4.4106924"><ele>84.80000000000001</ele><time>2026-05-02T09:36:01.986Z</time></trkpt><trkpt lat="44.3821303" lon="4.4105569"><ele>84.4</ele><time>2026-05-02T09:36:02.986Z</time></trkpt><trkpt lat="44.3821664" lon="4.4104262"><ele>84.0</ele><time>2026-05-02T09:36:03.986Z</time></trkpt><trkpt lat="44.3822039" lon="4.4103015"><ele>89.80000000000001</ele><time>2026-05-02T09:36:04.987Z</time></trkpt><trkpt lat="44.3822405" lon="4.410184"><ele>95.60000000000001</ele><time>2026-05-02T09:36:05.986Z</time></trkpt><trkpt lat="44.382278" lon="4.4100646"><ele>101.4</ele><time>2026-05-02T09:36:06.986Z</time></trkpt><trkpt lat="44.382324" lon="4.4099377"><ele>107.2</ele><time>2026-05-02T09:36:07.987Z</time></trkpt><trkpt lat="44.3823732" lon="4.4098038"><ele>113.0</ele><time>2026-05-02T09:36:08.986Z</time></trkpt><trkpt lat="44.3824173" lon="4.4096634"><ele>110.80000000000001</ele><time>2026-05-02T09:36:09.986Z</time></trkpt><trkpt lat="44.3824573" lon="4.4095208"><ele>108.60000000000001</ele><time>2026-05-02T09:36:10.987Z</time></trkpt><trkpt lat="44.3824904" lon="4.4093779"><ele>106.4</ele><time>2026-05-02T09:36:11.986Z</time></trkpt><trkpt lat="44.3825238" lon="4.4092328"><ele>104.19999999999999</ele><time>2026-05-02T09:36:12.987Z</time></trkpt><trkpt lat="44.382556" lon="4.4090869"><ele>102.0</ele><time>2026-05-02T09:36:13.987Z</time></trkpt><trkpt lat="44.3825903" lon="4.4089439"><ele>100.0</ele><time>2026-05-02T09:36:14.986Z</time></trkpt><trkpt lat="44.3826277" lon="4.4088046"><ele>98.0</ele><time>2026-05-02T09:36:15.986Z</time></trkpt><trkpt lat="44.3826712" lon="4.4086781"><ele>96.0</ele><time>2026-05-02T09:36:16.986Z</time></trkpt><trkpt lat="44.382721" lon="4.4085557"><ele>94.0</ele><time>2026-05-02T09:36:17.987Z</time></trkpt><trkpt lat="44.3827723" lon="4.4084355"><ele>92.0</ele><time>2026-05-02T09:36:18.985Z</time></trkpt><trkpt lat="44.3828285" lon="4.4083208"><ele>92.0</ele><time>2026-05-02T09:36:19.985Z</time></trkpt><trkpt lat="44.3828991" lon="4.4082241"><ele>92.0</ele><time>2026-05-02T09:36:20.985Z</time></trkpt><trkpt lat="44.382987" lon="4.4081495"><ele>92.0</ele><time>2026-05-02T09:36:21.986Z</time></trkpt><trkpt lat="44.3830923" lon="4.4080979"><ele>92.0</ele><time>2026-05-02T09:36:22.986Z</time></trkpt><trkpt lat="44.3832059" lon="4.4080717"><ele>92.0</ele><time>2026-05-02T09:36:23.986Z</time></trkpt><trkpt lat="44.3833235" lon="4.4080675"><ele>95.39999999999999</ele><time>2026-05-02T09:36:24.987Z</time></trkpt><trkpt lat="44.3834386" lon="4.4080652"><ele>98.8</ele><time>2026-05-02T09:36:25.987Z</time></trkpt><trkpt lat="44.3835472" lon="4.4080427"><ele>102.2</ele><time>2026-05-02T09:36:26.986Z</time></trkpt><trkpt lat="44.3836578" lon="4.4080311"><ele>105.6</ele><time>2026-05-02T09:36:27.987Z</time></trkpt><trkpt lat="44.3837624" lon="4.4080649"><ele>109.0</ele><time>2026-05-02T09:36:28.985Z</time></trkpt><trkpt lat="44.3838525" lon="4.4081384"><ele>109.80000000000001</ele><time>2026-05-02T09:36:29.985Z</time></trkpt><trkpt lat="44.3839246" lon="4.4082379"><ele>110.60000000000001</ele><time>2026-05-02T09:36:30.986Z</time></trkpt><trkpt lat="44.3840077" lon="4.4083321"><ele>111.4</ele><time>2026-05-02T09:36:31.986Z</time></trkpt><trkpt lat="44.384109" lon="4.4084055"><ele>112.2</ele><time>2026-05-02T09:36:32.987Z</time></trkpt><trkpt lat="44.3842087" lon="4.4084688"><ele>113.0</ele><time>2026-05-02T09:36:33.986Z</time></trkpt><trkpt lat="44.3843082" lon="4.4085314"><ele>113.0</ele><time>2026-05-02T09:36:34.986Z</time></trkpt><trkpt lat="44.3844166" lon="4.4085887"><ele>113.0</ele><time>2026-05-02T09:36:35.986Z</time></trkpt><trkpt lat="44.3845308" lon="4.4086246"><ele>113.0</ele><time>2026-05-02T09:36:36.986Z</time></trkpt><trkpt lat="44.3846469" lon="4.4086534"><ele>113.0</ele><time>2026-05-02T09:36:37.986Z</time></trkpt><trkpt lat="44.3847645" lon="4.4086831"><ele>110.60000000000001</ele><time>2026-05-02T09:36:38.986Z</time></trkpt><trkpt lat="44.3848807" lon="4.4087125"><ele>108.20000000000002</ele><time>2026-05-02T09:36:39.986Z</time></trkpt><trkpt lat="44.3849925" lon="4.4087406"><ele>105.8</ele><time>2026-05-02T09:36:40.986Z</time></trkpt><trkpt lat="44.385098" lon="4.4087704"><ele>103.4</ele><time>2026-05-02T09:36:41.985Z</time></trkpt><trkpt lat="44.3851996" lon="4.4087979"><ele>101.0</ele><time>2026-05-02T09:36:42.986Z</time></trkpt><trkpt lat="44.3852979" lon="4.4088207"><ele>110.14285714285714</ele><time>2026-05-02T09:36:43.986Z</time></trkpt><trkpt lat="44.3853813" lon="4.4088399"><ele>119.28571428571428</ele><time>2026-05-02T09:36:44.986Z</time></trkpt><trkpt lat="44.3854546" lon="4.4088545"><ele>128.42857142857144</ele><time>2026-05-02T09:36:45.986Z</time></trkpt><trkpt lat="44.385529" lon="4.4088631"><ele>137.57142857142858</ele><time>2026-05-02T09:36:46.987Z</time></trkpt><trkpt lat="44.3855975" lon="4.4088594"><ele>146.71428571428572</ele><time>2026-05-02T09:36:47.986Z</time></trkpt><trkpt lat="44.3856647" lon="4.4088576"><ele>155.85714285714286</ele><time>2026-05-02T09:36:48.986Z</time></trkpt><trkpt lat="44.3857325" lon="4.4088575"><ele>165.0</ele><time>2026-05-02T09:36:49.986Z</time></trkpt><trkpt lat="44.3858002" lon="4.4088566"><ele>165.0</ele><time>2026-05-02T09:36:50.986Z</time></trkpt><trkpt lat="44.3858678" lon="4.4088557"><ele>165.0</ele><time>2026-05-02T09:36:51.987Z</time></trkpt><trkpt lat="44.3859354" lon="4.4088549"><ele>165.0</ele><time>2026-05-02T09:36:52.987Z</time></trkpt><trkpt lat="44.38601" lon="4.4088076"><ele>165.0</ele><time>2026-05-02T09:36:53.986Z</time></trkpt><trkpt lat="44.3860933" lon="4.4087869"><ele>165.0</ele><time>2026-05-02T09:36:54.986Z</time></trkpt><trkpt lat="44.3861709" lon="4.4087455"><ele>165.0</ele><time>2026-05-02T09:36:55.985Z</time></trkpt><trkpt lat="44.3862421" lon="4.408724"><ele>161.00000000000003</ele><time>2026-05-02T09:36:56.985Z</time></trkpt><trkpt lat="44.3863143" lon="4.408686"><ele>157.0</ele><time>2026-05-02T09:36:57.986Z</time></trkpt><trkpt lat="44.3863815" lon="4.4086572"><ele>153.0</ele><time>2026-05-02T09:36:58.986Z</time></trkpt><trkpt lat="44.386446" lon="4.4086144"><ele>149.0</ele><time>2026-05-02T09:36:59.987Z</time></trkpt><trkpt lat="44.3865148" lon="4.4085804"><ele>145.0</ele><time>2026-05-02T09:37:00.987Z</time></trkpt><trkpt lat="44.3865916" lon="4.4085692"><ele>141.00000000000003</ele><time>2026-05-02T09:37:01.985Z</time></trkpt><trkpt lat="44.3866661" lon="4.4085595"><ele>137.0</ele><time>2026-05-02T09:37:02.986Z</time></trkpt><trkpt lat="44.3867407" lon="4.4085521"><ele>137.0</ele><time>2026-05-02T09:37:03.986Z</time></trkpt><trkpt lat="44.3868153" lon="4.4085465"><ele>137.0</ele><time>2026-05-02T09:37:04.986Z</time></trkpt><trkpt lat="44.38702" lon="4.4084806"><ele>137.0</ele><time>2026-05-02T09:37:10.986Z</time></trkpt><trkpt lat="44.3871145" lon="4.4084897"><ele>137.0</ele><time>2026-05-02T09:37:14.987Z</time></trkpt><trkpt lat="44.3871927" lon="4.408487"><ele>134.83333333333331</ele><time>2026-05-02T09:37:16.987Z</time></trkpt><trkpt lat="44.3872802" lon="4.4085122"><ele>132.66666666666666</ele><time>2026-05-02T09:37:18.987Z</time></trkpt><trkpt lat="44.3873648" lon="4.4085096"><ele>130.5</ele><time>2026-05-02T09:37:20.987Z</time></trkpt><trkpt lat="44.38744" lon="4.408493"><ele>128.33333333333334</ele><time>2026-05-02T09:37:22.986Z</time></trkpt><trkpt lat="44.3875185" lon="4.4084753"><ele>126.16666666666667</ele><time>2026-05-02T09:37:24.986Z</time></trkpt><trkpt lat="44.3876263" lon="4.4084817"><ele>124.0</ele><time>2026-05-02T09:37:26.986Z</time></trkpt><trkpt lat="44.387714" lon="4.4084839"><ele>124.0</ele><time>2026-05-02T09:37:27.986Z</time></trkpt><trkpt lat="44.3878032" lon="4.4084645"><ele>124.0</ele><time>2026-05-02T09:37:28.985Z</time></trkpt><trkpt lat="44.3879027" lon="4.4084151"><ele>124.0</ele><time>2026-05-02T09:37:29.985Z</time></trkpt><trkpt lat="44.3880051" lon="4.4083235"><ele>124.0</ele><time>2026-05-02T09:37:30.987Z</time></trkpt><trkpt lat="44.3881113" lon="4.4082055"><ele>121.5</ele><time>2026-05-02T09:37:31.987Z</time></trkpt><trkpt lat="44.3882112" lon="4.4080765"><ele>119.0</ele><time>2026-05-02T09:37:32.987Z</time></trkpt><trkpt lat="44.3883091" lon="4.4079525"><ele>116.5</ele><time>2026-05-02T09:37:33.986Z</time></trkpt><trkpt lat="44.3883993" lon="4.4078463"><ele>114.0</ele><time>2026-05-02T09:37:34.986Z</time></trkpt><trkpt lat="44.3884805" lon="4.4077738"><ele>113.33333333333333</ele><time>2026-05-02T09:37:35.986Z</time></trkpt><trkpt lat="44.3885476" lon="4.4077294"><ele>112.66666666666666</ele><time>2026-05-02T09:37:36.986Z</time></trkpt><trkpt lat="44.3886162" lon="4.4076913"><ele>112.0</ele><time>2026-05-02T09:37:38.987Z</time></trkpt><trkpt lat="44.3886861" lon="4.4076688"><ele>111.33333333333333</ele><time>2026-05-02T09:37:43.986Z</time></trkpt><trkpt lat="44.38876" lon="4.4076798"><ele>110.66666666666666</ele><time>2026-05-02T09:37:49.987Z</time></trkpt><trkpt lat="44.3888347" lon="4.4076998"><ele>110.0</ele><time>2026-05-02T09:37:53.985Z</time></trkpt><trkpt lat="44.3889215" lon="4.4077311"><ele>109.99999999999999</ele><time>2026-05-02T09:37:56.987Z</time></trkpt><trkpt lat="44.3889854" lon="4.4077632"><ele>110.0</ele><time>2026-05-02T09:37:59.986Z</time></trkpt><trkpt lat="44.3889201" lon="4.4077344"><ele>110.0</ele><time>2026-05-02T09:39:57.986Z</time></trkpt><trkpt lat="44.3888526" lon="4.4077089"><ele>110.0</ele><time>2026-05-02T09:40:01.985Z</time></trkpt><trkpt lat="44.3887781" lon="4.4076972"><ele>110.0</ele><time>2026-05-02T09:40:07.985Z</time></trkpt><trkpt lat="44.3887155" lon="4.4076501"><ele>109.99999999999999</ele><time>2026-05-02T09:40:13.985Z</time></trkpt><trkpt lat="44.3886476" lon="4.4076203"><ele>110.0</ele><time>2026-05-02T09:40:19.984Z</time></trkpt><trkpt lat="44.3885963" lon="4.4076768"><ele>106.71428571428571</ele><time>2026-05-02T09:40:26.985Z</time></trkpt><trkpt lat="44.3885426" lon="4.4077387"><ele>103.42857142857143</ele><time>2026-05-02T09:40:36.936Z</time></trkpt><trkpt lat="44.3884535" lon="4.407748"><ele>100.14285714285714</ele><time>2026-05-02T09:40:59.985Z</time></trkpt><trkpt lat="44.3885096" lon="4.4076857"><ele>96.85714285714286</ele><time>2026-05-02T09:41:50.985Z</time></trkpt><trkpt lat="44.3885755" lon="4.4076621"><ele>93.57142857142857</ele><time>2026-05-02T09:42:00.984Z</time></trkpt><trkpt lat="44.3886423" lon="4.4076385"><ele>90.28571428571428</ele><time>2026-05-02T09:42:09.945Z</time></trkpt><trkpt lat="44.3887078" lon="4.4076338"><ele>87.0</ele><time>2026-05-02T09:42:17.981Z</time></trkpt><trkpt lat="44.3887725" lon="4.4076272"><ele>87.0</ele><time>2026-05-02T09:42:26.985Z</time></trkpt><trkpt lat="44.3888418" lon="4.4076528"><ele>87.0</ele><time>2026-05-02T09:42:54.003Z</time></trkpt><trkpt lat="44.3889101" lon="4.4076542"><ele>87.0</ele><time>2026-05-02T09:43:02.985Z</time></trkpt><trkpt lat="44.3889597" lon="4.4077171"><ele>87.0</ele><time>2026-05-02T09:43:19.986Z</time></trkpt><trkpt lat="44.3890154" lon="4.4077654"><ele>87.0</ele><time>2026-05-02T09:43:26.986Z</time></trkpt><trkpt lat="44.3889565" lon="4.4077161"><ele>87.0</ele><time>2026-05-02T09:43:53.985Z</time></trkpt><trkpt lat="44.3888941" lon="4.407676"><ele>87.0</ele><time>2026-05-02T09:44:02.985Z</time></trkpt><trkpt lat="44.3888296" lon="4.4077046"><ele>87.0</ele><time>2026-05-02T09:44:11.985Z</time></trkpt><trkpt lat="44.3887726" lon="4.407653"><ele>87.0</ele><time>2026-05-02T09:44:19.986Z</time></trkpt><trkpt lat="44.3887054" lon="4.4076748"><ele>87.0</ele><time>2026-05-02T09:44:41.985Z</time></trkpt><trkpt lat="44.3887072" lon="4.4077641"><ele>87.0</ele><time>2026-05-02T09:46:05.011Z</time></trkpt><trkpt lat="44.3887744" lon="4.4077836"><ele>87.0</ele><time>2026-05-02T09:46:25.985Z</time></trkpt><trkpt lat="44.3888383" lon="4.4078127"><ele>87.0</ele><time>2026-05-02T09:46:32.983Z</time></trkpt><trkpt lat="44.3889022" lon="4.4077829"><ele>87.0</ele><time>2026-05-02T09:46:37.983Z</time></trkpt><trkpt lat="44.3889484" lon="4.4077217"><ele>90.28571428571428</ele><time>2026-05-02T09:46:47.983Z</time></trkpt><trkpt lat="44.3890167" lon="4.4077105"><ele>93.57142857142857</ele><time>2026-05-02T09:46:54.987Z</time></trkpt><trkpt lat="44.3890856" lon="4.4077"><ele>96.85714285714286</ele><time>2026-05-02T09:47:05.928Z</time></trkpt><trkpt lat="44.3891362" lon="4.4076407"><ele>100.14285714285714</ele><time>2026-05-02T09:47:11.984Z</time></trkpt><trkpt lat="44.3891811" lon="4.4075726"><ele>103.42857142857143</ele><time>2026-05-02T09:47:22.001Z</time></trkpt><trkpt lat="44.3892392" lon="4.4075286"><ele>106.71428571428571</ele><time>2026-05-02T09:47:31.984Z</time></trkpt><trkpt lat="44.3891839" lon="4.407593"><ele>110.0</ele><time>2026-05-02T09:48:05.922Z</time></trkpt><trkpt lat="44.3891387" lon="4.4076649"><ele>109.99999999999999</ele><time>2026-05-02T09:48:13.984Z</time></trkpt><trkpt lat="44.3890741" lon="4.4077095"><ele>110.0</ele><time>2026-05-02T09:48:24.984Z</time></trkpt><trkpt lat="44.3890092" lon="4.407734"><ele>110.0</ele><time>2026-05-02T09:48:43.984Z</time></trkpt><trkpt lat="44.3889549" lon="4.4076638"><ele>110.0</ele><time>2026-05-02T09:57:26.982Z</time></trkpt><trkpt lat="44.3888906" lon="4.4076538"><ele>109.99999999999999</ele><time>2026-05-02T09:57:27.982Z</time></trkpt><trkpt lat="44.3888227" lon="4.4076416"><ele>110.0</ele><time>2026-05-02T09:57:28.982Z</time></trkpt><trkpt lat="44.3886962" lon="4.4076309"><ele>110.66666666666666</ele><time>2026-05-02T09:57:30.983Z</time></trkpt><trkpt lat="44.3886277" lon="4.4076478"><ele>111.33333333333333</ele><time>2026-05-02T09:57:31.982Z</time></trkpt><trkpt lat="44.3885556" lon="4.4076814"><ele>112.0</ele><time>2026-05-02T09:57:32.982Z</time></trkpt><trkpt lat="44.3884799" lon="4.407737"><ele>112.66666666666666</ele><time>2026-05-02T09:57:33.982Z</time></trkpt><trkpt lat="44.3884084" lon="4.4078171"><ele>113.33333333333333</ele><time>2026-05-02T09:57:34.982Z</time></trkpt><trkpt lat="44.3883293" lon="4.4079109"><ele>114.0</ele><time>2026-05-02T09:57:35.983Z</time></trkpt><trkpt lat="44.3882497" lon="4.4080107"><ele>114.0</ele><time>2026-05-02T09:57:36.982Z</time></trkpt><trkpt lat="44.388167" lon="4.4081182"><ele>114.0</ele><time>2026-05-02T09:57:37.982Z</time></trkpt><trkpt lat="44.3880836" lon="4.408223"><ele>114.0</ele><time>2026-05-02T09:57:38.982Z</time></trkpt><trkpt lat="44.3879976" lon="4.4083199"><ele>114.0</ele><time>2026-05-02T09:57:39.982Z</time></trkpt><trkpt lat="44.387908" lon="4.4083978"><ele>114.0</ele><time>2026-05-02T09:57:40.981Z</time></trkpt><trkpt lat="44.3878146" lon="4.40845"><ele>116.5</ele><time>2026-05-02T09:57:41.983Z</time></trkpt><trkpt lat="44.3877087" lon="4.40848"><ele>119.0</ele><time>2026-05-02T09:57:42.981Z</time></trkpt><trkpt lat="44.3875908" lon="4.4084926"><ele>121.5</ele><time>2026-05-02T09:57:43.982Z</time></trkpt><trkpt lat="44.3874671" lon="4.4085039"><ele>124.0</ele><time>2026-05-02T09:57:44.983Z</time></trkpt><trkpt lat="44.3873392" lon="4.4085109"><ele>124.0</ele><time>2026-05-02T09:57:45.982Z</time></trkpt><trkpt lat="44.3872097" lon="4.4085153"><ele>124.0</ele><time>2026-05-02T09:57:46.982Z</time></trkpt><trkpt lat="44.3870804" lon="4.4085113"><ele>124.0</ele><time>2026-05-02T09:57:47.982Z</time></trkpt><trkpt lat="44.3869555" lon="4.4085233"><ele>124.0</ele><time>2026-05-02T09:57:48.982Z</time></trkpt><trkpt lat="44.386835" lon="4.4085326"><ele>126.6</ele><time>2026-05-02T09:57:49.982Z</time></trkpt><trkpt lat="44.3867136" lon="4.4085434"><ele>129.2</ele><time>2026-05-02T09:57:50.982Z</time></trkpt><trkpt lat="44.3865997" lon="4.4085508"><ele>131.79999999999998</ele><time>2026-05-02T09:57:51.982Z</time></trkpt><trkpt lat="44.3865151" lon="4.4085677"><ele>134.4</ele><time>2026-05-02T09:57:52.982Z</time></trkpt><trkpt lat="44.3864444" lon="4.4086124"><ele>137.0</ele><time>2026-05-02T09:57:53.982Z</time></trkpt><trkpt lat="44.3863594" lon="4.408666"><ele>128.5</ele><time>2026-05-02T09:57:54.981Z</time></trkpt><trkpt lat="44.3862667" lon="4.4087137"><ele>120.0</ele><time>2026-05-02T09:57:55.982Z</time></trkpt><trkpt lat="44.38616" lon="4.408746"><ele>111.5</ele><time>2026-05-02T09:57:56.982Z</time></trkpt><trkpt lat="44.3860405" lon="4.4087701"><ele>103.0</ele><time>2026-05-02T09:57:57.982Z</time></trkpt><trkpt lat="44.3859198" lon="4.4087903"><ele>103.0</ele><time>2026-05-02T09:57:58.982Z</time></trkpt><trkpt lat="44.3857973" lon="4.408808"><ele>103.0</ele><time>2026-05-02T09:57:59.983Z</time></trkpt><trkpt lat="44.3856734" lon="4.4088334"><ele>103.0</ele><time>2026-05-02T09:58:00.981Z</time></trkpt><trkpt lat="44.3855666" lon="4.4088461"><ele>103.0</ele><time>2026-05-02T09:58:01.982Z</time></trkpt><trkpt lat="44.3854479" lon="4.408827"><ele>102.5</ele><time>2026-05-02T09:58:02.982Z</time></trkpt><trkpt lat="44.3853349" lon="4.4088072"><ele>102.0</ele><time>2026-05-02T09:58:03.982Z</time></trkpt><trkpt lat="44.3852178" lon="4.4087771"><ele>101.5</ele><time>2026-05-02T09:58:04.982Z</time></trkpt><trkpt lat="44.3851071" lon="4.4087465"><ele>101.0</ele><time>2026-05-02T09:58:05.982Z</time></trkpt><trkpt lat="44.3849953" lon="4.4087208"><ele>101.0</ele><time>2026-05-02T09:58:06.982Z</time></trkpt><trkpt lat="44.3848888" lon="4.4086928"><ele>101.0</ele><time>2026-05-02T09:58:07.983Z</time></trkpt><trkpt lat="44.3847852" lon="4.4086628"><ele>101.0</ele><time>2026-05-02T09:58:08.983Z</time></trkpt><trkpt lat="44.3846875" lon="4.4086359"><ele>101.0</ele><time>2026-05-02T09:58:09.983Z</time></trkpt><trkpt lat="44.3845976" lon="4.4086169"><ele>101.0</ele><time>2026-05-02T09:58:10.982Z</time></trkpt><trkpt lat="44.3845076" lon="4.4085901"><ele>103.4</ele><time>2026-05-02T09:58:11.982Z</time></trkpt><trkpt lat="44.3844149" lon="4.4085542"><ele>105.8</ele><time>2026-05-02T09:58:12.982Z</time></trkpt><trkpt lat="44.3843208" lon="4.4085074"><ele>108.20000000000002</ele><time>2026-05-02T09:58:13.982Z</time></trkpt><trkpt lat="44.3842296" lon="4.408453"><ele>110.60000000000001</ele><time>2026-05-02T09:58:14.982Z</time></trkpt><trkpt lat="44.3841446" lon="4.4084013"><ele>113.0</ele><time>2026-05-02T09:58:15.982Z</time></trkpt><trkpt lat="44.3840655" lon="4.4083528"><ele>113.0</ele><time>2026-05-02T09:58:16.981Z</time></trkpt><trkpt lat="44.3839942" lon="4.4082973"><ele>113.0</ele><time>2026-05-02T09:58:17.982Z</time></trkpt><trkpt lat="44.3839412" lon="4.4082232"><ele>113.0</ele><time>2026-05-02T09:58:18.983Z</time></trkpt><trkpt lat="44.3838973" lon="4.4081484"><ele>113.0</ele><time>2026-05-02T09:58:19.983Z</time></trkpt><trkpt lat="44.3838509" lon="4.4080796"><ele>113.0</ele><time>2026-05-02T09:58:20.981Z</time></trkpt><trkpt lat="44.3837888" lon="4.4080313"><ele>113.0</ele><time>2026-05-02T09:58:21.983Z</time></trkpt><trkpt lat="44.3837166" lon="4.4080094"><ele>113.0</ele><time>2026-05-02T09:58:22.982Z</time></trkpt><trkpt lat="44.383641" lon="4.4080048"><ele>112.33333333333333</ele><time>2026-05-02T09:58:23.981Z</time></trkpt><trkpt lat="44.3835621" lon="4.4080172"><ele>111.66666666666666</ele><time>2026-05-02T09:58:24.983Z</time></trkpt><trkpt lat="44.3834807" lon="4.4080314"><ele>111.0</ele><time>2026-05-02T09:58:25.982Z</time></trkpt><trkpt lat="44.3834039" lon="4.4080412"><ele>110.33333333333334</ele><time>2026-05-02T09:58:26.981Z</time></trkpt><trkpt lat="44.3833266" lon="4.4080378"><ele>109.66666666666667</ele><time>2026-05-02T09:58:27.983Z</time></trkpt><trkpt lat="44.3832526" lon="4.4080318"><ele>109.0</ele><time>2026-05-02T09:58:28.982Z</time></trkpt><trkpt lat="44.3831748" lon="4.4080294"><ele>109.00000000000001</ele><time>2026-05-02T09:58:29.982Z</time></trkpt><trkpt lat="44.3830958" lon="4.4080446"><ele>109.0</ele><time>2026-05-02T09:58:30.983Z</time></trkpt><trkpt lat="44.383018" lon="4.4080804"><ele>109.0</ele><time>2026-05-02T09:58:31.982Z</time></trkpt><trkpt lat="44.3829428" lon="4.4081368"><ele>109.0</ele><time>2026-05-02T09:58:32.982Z</time></trkpt><trkpt lat="44.3828742" lon="4.4082152"><ele>109.00000000000001</ele><time>2026-05-02T09:58:33.982Z</time></trkpt><trkpt lat="44.3828126" lon="4.4083113"><ele>109.0</ele><time>2026-05-02T09:58:34.982Z</time></trkpt><trkpt lat="44.3827553" lon="4.4084225"><ele>107.6</ele><time>2026-05-02T09:58:35.982Z</time></trkpt><trkpt lat="44.3827007" lon="4.4085472"><ele>106.2</ele><time>2026-05-02T09:58:36.982Z</time></trkpt><trkpt lat="44.3826517" lon="4.4086795"><ele>104.8</ele><time>2026-05-02T09:58:37.981Z</time></trkpt><trkpt lat="44.3826082" lon="4.4088195"><ele>103.39999999999999</ele><time>2026-05-02T09:58:38.982Z</time></trkpt><trkpt lat="44.3825688" lon="4.408966"><ele>102.0</ele><time>2026-05-02T09:58:39.982Z</time></trkpt><trkpt lat="44.3825316" lon="4.4091196"><ele>102.0</ele><time>2026-05-02T09:58:40.983Z</time></trkpt><trkpt lat="44.3824978" lon="4.4092792"><ele>102.0</ele><time>2026-05-02T09:58:41.983Z</time></trkpt><trkpt lat="44.38246" lon="4.4094393"><ele>102.0</ele><time>2026-05-02T09:58:42.982Z</time></trkpt><trkpt lat="44.3824184" lon="4.409597"><ele>102.0</ele><time>2026-05-02T09:58:43.982Z</time></trkpt><trkpt lat="44.3823729" lon="4.4097493"><ele>104.19999999999999</ele><time>2026-05-02T09:58:44.982Z</time></trkpt><trkpt lat="44.3823235" lon="4.4098932"><ele>106.4</ele><time>2026-05-02T09:58:45.982Z</time></trkpt><trkpt lat="44.3822718" lon="4.4100341"><ele>108.60000000000001</ele><time>2026-05-02T09:58:46.982Z</time></trkpt><trkpt lat="44.3822252" lon="4.4101711"><ele>110.80000000000001</ele><time>2026-05-02T09:58:47.982Z</time></trkpt><trkpt lat="44.3821844" lon="4.410305"><ele>113.0</ele><time>2026-05-02T09:58:48.982Z</time></trkpt><trkpt lat="44.3821468" lon="4.4104393"><ele>107.2</ele><time>2026-05-02T09:58:49.981Z</time></trkpt><trkpt lat="44.3821125" lon="4.4105679"><ele>101.4</ele><time>2026-05-02T09:58:50.982Z</time></trkpt><trkpt lat="44.3820828" lon="4.4106937"><ele>95.60000000000001</ele><time>2026-05-02T09:58:51.982Z</time></trkpt><trkpt lat="44.3820536" lon="4.4108203"><ele>89.80000000000001</ele><time>2026-05-02T09:58:52.982Z</time></trkpt><trkpt lat="44.382023" lon="4.4109539"><ele>84.0</ele><time>2026-05-02T09:58:53.982Z</time></trkpt><trkpt lat="44.3819929" lon="4.4110869"><ele>84.0</ele><time>2026-05-02T09:58:54.982Z</time></trkpt><trkpt lat="44.3819705" lon="4.4112209"><ele>84.0</ele><time>2026-05-02T09:58:55.982Z</time></trkpt><trkpt lat="44.3819473" lon="4.4113576"><ele>84.0</ele><time>2026-05-02T09:58:56.982Z</time></trkpt><trkpt lat="44.381932" lon="4.4114955"><ele>84.0</ele><time>2026-05-02T09:58:57.982Z</time></trkpt><trkpt lat="44.3819176" lon="4.4116361"><ele>84.0</ele><time>2026-05-02T09:58:58.982Z</time></trkpt><trkpt lat="44.381908" lon="4.4117783"><ele>84.4</ele><time>2026-05-02T09:58:59.982Z</time></trkpt><trkpt lat="44.3819063" lon="4.4119208"><ele>84.80000000000001</ele><time>2026-05-02T09:59:00.982Z</time></trkpt><trkpt lat="44.3819067" lon="4.4120639"><ele>85.19999999999999</ele><time>2026-05-02T09:59:01.982Z</time></trkpt><trkpt lat="44.3819118" lon="4.4122056"><ele>85.6</ele><time>2026-05-02T09:59:02.983Z</time></trkpt><trkpt lat="44.381919" lon="4.4123471"><ele>86.0</ele><time>2026-05-02T09:59:03.982Z</time></trkpt><trkpt lat="44.3819312" lon="4.4124934"><ele>86.19999999999999</ele><time>2026-05-02T09:59:04.982Z</time></trkpt><trkpt lat="44.3819503" lon="4.4126368"><ele>86.39999999999999</ele><time>2026-05-02T09:59:05.983Z</time></trkpt><trkpt lat="44.3819814" lon="4.4127764"><ele>86.6</ele><time>2026-05-02T09:59:06.982Z</time></trkpt><trkpt lat="44.3820234" lon="4.4129083"><ele>86.8</ele><time>2026-05-02T09:59:07.982Z</time></trkpt><trkpt lat="44.3820685" lon="4.4130342"><ele>87.0</ele><time>2026-05-02T09:59:08.981Z</time></trkpt><trkpt lat="44.3821154" lon="4.4131511"><ele>87.0</ele><time>2026-05-02T09:59:09.983Z</time></trkpt><trkpt lat="44.3821671" lon="4.4132549"><ele>87.0</ele><time>2026-05-02T09:59:10.982Z</time></trkpt><trkpt lat="44.3822189" lon="4.4133498"><ele>87.0</ele><time>2026-05-02T09:59:11.982Z</time></trkpt><trkpt lat="44.3822632" lon="4.4134357"><ele>87.0</ele><time>2026-05-02T09:59:12.982Z</time></trkpt><trkpt lat="44.3823142" lon="4.4135406"><ele>87.0</ele><time>2026-05-02T09:59:14.982Z</time></trkpt><trkpt lat="44.382378" lon="4.4136249"><ele>87.0</ele><time>2026-05-02T09:59:17.983Z</time></trkpt><trkpt lat="44.3824866" lon="4.4136975"><ele>90.19999999999999</ele><time>2026-05-02T09:59:19.983Z</time></trkpt><trkpt lat="44.3825751" lon="4.4137363"><ele>93.4</ele><time>2026-05-02T09:59:21.983Z</time></trkpt><trkpt lat="44.3826517" lon="4.4137299"><ele>96.6</ele><time>2026-05-02T09:59:24.982Z</time></trkpt><trkpt lat="44.3827599" lon="4.413692"><ele>99.80000000000001</ele><time>2026-05-02T09:59:26.982Z</time></trkpt><trkpt lat="44.3828662" lon="4.4136438"><ele>103.0</ele><time>2026-05-02T09:59:28.982Z</time></trkpt><trkpt lat="44.382943" lon="4.413606"><ele>102.99999999999999</ele><time>2026-05-02T09:59:30.982Z</time></trkpt><trkpt lat="44.3830077" lon="4.4135792"><ele>103.0</ele><time>2026-05-02T09:59:33.982Z</time></trkpt><trkpt lat="44.3830787" lon="4.4135624"><ele>103.0</ele><time>2026-05-02T09:59:39.981Z</time></trkpt><trkpt lat="44.3831504" lon="4.413555"><ele>103.0</ele><time>2026-05-02T09:59:42.982Z</time></trkpt><trkpt lat="44.3832198" lon="4.4135624"><ele>103.0</ele><time>2026-05-02T09:59:45.982Z</time></trkpt><trkpt lat="44.383287" lon="4.4135884"><ele>102.99999999999999</ele><time>2026-05-02T09:59:50.982Z</time></trkpt><trkpt lat="44.3833528" lon="4.4136324"><ele>103.0</ele><time>2026-05-02T09:59:55.982Z</time></trkpt><trkpt lat="44.3834192" lon="4.4136831"><ele>102.0</ele><time>2026-05-02T09:59:57.982Z</time></trkpt><trkpt lat="44.3834925" lon="4.413731"><ele>101.0</ele><time>2026-05-02T09:59:58.983Z</time></trkpt><trkpt lat="44.3835803" lon="4.4137914"><ele>100.0</ele><time>2026-05-02T09:59:59.983Z</time></trkpt><trkpt lat="44.3836756" lon="4.4138563"><ele>99.0</ele><time>2026-05-02T10:00:00.982Z</time></trkpt><trkpt lat="44.3837804" lon="4.4139271"><ele>98.0</ele><time>2026-05-02T10:00:01.981Z</time></trkpt><trkpt lat="44.3838819" lon="4.4139932"><ele>98.0</ele><time>2026-05-02T10:00:02.982Z</time></trkpt><trkpt lat="44.3839848" lon="4.414052"><ele>98.0</ele><time>2026-05-02T10:00:03.982Z</time></trkpt><trkpt lat="44.3840953" lon="4.414092"><ele>98.0</ele><time>2026-05-02T10:00:04.982Z</time></trkpt><trkpt lat="44.3842213" lon="4.4141009"><ele>98.0</ele><time>2026-05-02T10:00:05.982Z</time></trkpt><trkpt lat="44.3843546" lon="4.4140658"><ele>98.0</ele><time>2026-05-02T10:00:06.982Z</time></trkpt><trkpt lat="44.3844998" lon="4.4139935"><ele>98.0</ele><time>2026-05-02T10:00:07.983Z</time></trkpt><trkpt lat="44.3846556" lon="4.4139112"><ele>98.0</ele><time>2026-05-02T10:00:08.983Z</time></trkpt><trkpt lat="44.3848136" lon="4.4138407"><ele>97.0</ele><time>2026-05-02T10:00:09.982Z</time></trkpt><trkpt lat="44.3849766" lon="4.413772"><ele>96.0</ele><time>2026-05-02T10:00:10.983Z</time></trkpt><trkpt lat="44.3851399" lon="4.4137065"><ele>95.0</ele><time>2026-05-02T10:00:11.981Z</time></trkpt><trkpt lat="44.3852911" lon="4.4136466"><ele>95.0</ele><time>2026-05-02T10:00:12.982Z</time></trkpt><trkpt lat="44.3854328" lon="4.413606"><ele>95.0</ele><time>2026-05-02T10:00:13.982Z</time></trkpt><trkpt lat="44.3855625" lon="4.4136046"><ele>95.0</ele><time>2026-05-02T10:00:14.982Z</time></trkpt><trkpt lat="44.3856814" lon="4.413647"><ele>95.0</ele><time>2026-05-02T10:00:15.982Z</time></trkpt><trkpt lat="44.3857779" lon="4.4137316"><ele>97.5</ele><time>2026-05-02T10:00:16.982Z</time></trkpt><trkpt lat="44.385862" lon="4.4138517"><ele>100.0</ele><time>2026-05-02T10:00:17.982Z</time></trkpt><trkpt lat="44.3859366" lon="4.4140228"><ele>102.5</ele><time>2026-05-02T10:00:18.983Z</time></trkpt><trkpt lat="44.386008" lon="4.4142215"><ele>105.0</ele><time>2026-05-02T10:00:19.982Z</time></trkpt><trkpt lat="44.3860782" lon="4.4144363"><ele>109.33333333333334</ele><time>2026-05-02T10:00:20.981Z</time></trkpt><trkpt lat="44.3861418" lon="4.4146678"><ele>113.66666666666667</ele><time>2026-05-02T10:00:21.981Z</time></trkpt><trkpt lat="44.3861966" lon="4.4149156"><ele>118.0</ele><time>2026-05-02T10:00:22.982Z</time></trkpt><trkpt lat="44.3862426" lon="4.4151689"><ele>118.0</ele><time>2026-05-02T10:00:23.982Z</time></trkpt><trkpt lat="44.3862788" lon="4.4154137"><ele>118.0</ele><time>2026-05-02T10:00:24.982Z</time></trkpt><trkpt lat="44.3863036" lon="4.4156459"><ele>118.0</ele><time>2026-05-02T10:00:25.982Z</time></trkpt><trkpt lat="44.3863058" lon="4.4158631"><ele>117.66666666666667</ele><time>2026-05-02T10:00:26.982Z</time></trkpt><trkpt lat="44.3862759" lon="4.4160831"><ele>117.33333333333334</ele><time>2026-05-02T10:00:27.982Z</time></trkpt><trkpt lat="44.3862233" lon="4.4163041"><ele>117.0</ele><time>2026-05-02T10:00:28.983Z</time></trkpt><trkpt lat="44.3861394" lon="4.4165201"><ele>113.66666666666666</ele><time>2026-05-02T10:00:29.982Z</time></trkpt><trkpt lat="44.3860381" lon="4.4167312"><ele>110.33333333333333</ele><time>2026-05-02T10:00:30.983Z</time></trkpt><trkpt lat="44.3859302" lon="4.4169426"><ele>107.0</ele><time>2026-05-02T10:00:31.982Z</time></trkpt><trkpt lat="44.3858154" lon="4.4171466"><ele>107.33333333333333</ele><time>2026-05-02T10:00:32.982Z</time></trkpt><trkpt lat="44.3856882" lon="4.417334"><ele>107.66666666666666</ele><time>2026-05-02T10:00:33.982Z</time></trkpt><trkpt lat="44.385551" lon="4.4175028"><ele>108.0</ele><time>2026-05-02T10:00:34.983Z</time></trkpt><trkpt lat="44.385405" lon="4.4176352"><ele>108.0</ele><time>2026-05-02T10:00:35.983Z</time></trkpt><trkpt lat="44.3852563" lon="4.4177457"><ele>108.0</ele><time>2026-05-02T10:00:36.982Z</time></trkpt><trkpt lat="44.3851109" lon="4.4178452"><ele>108.0</ele><time>2026-05-02T10:00:37.982Z</time></trkpt><trkpt lat="44.3849742" lon="4.4179351"><ele>104.5</ele><time>2026-05-02T10:00:38.982Z</time></trkpt><trkpt lat="44.3848372" lon="4.4179886"><ele>101.0</ele><time>2026-05-02T10:00:39.983Z</time></trkpt><trkpt lat="44.3846995" lon="4.4180074"><ele>97.5</ele><time>2026-05-02T10:00:40.983Z</time></trkpt><trkpt lat="44.384563" lon="4.4180322"><ele>94.0</ele><time>2026-05-02T10:00:41.982Z</time></trkpt><trkpt lat="44.3844297" lon="4.4180803"><ele>94.0</ele><time>2026-05-02T10:00:42.982Z</time></trkpt><trkpt lat="44.3843007" lon="4.4181553"><ele>94.0</ele><time>2026-05-02T10:00:43.982Z</time></trkpt><trkpt lat="44.3841764" lon="4.4182446"><ele>94.0</ele><time>2026-05-02T10:00:44.982Z</time></trkpt><trkpt lat="44.3840521" lon="4.4183417"><ele>94.0</ele><time>2026-05-02T10:00:45.982Z</time></trkpt><trkpt lat="44.3839252" lon="4.418439"><ele>96.0</ele><time>2026-05-02T10:00:46.982Z</time></trkpt><trkpt lat="44.3837987" lon="4.4185287"><ele>98.0</ele><time>2026-05-02T10:00:47.981Z</time></trkpt><trkpt lat="44.3836691" lon="4.4185929"><ele>100.0</ele><time>2026-05-02T10:00:48.981Z</time></trkpt><trkpt lat="44.3835402" lon="4.4186276"><ele>102.0</ele><time>2026-05-02T10:00:49.982Z</time></trkpt><trkpt lat="44.3834073" lon="4.4186369"><ele>102.0</ele><time>2026-05-02T10:00:50.982Z</time></trkpt><trkpt lat="44.3832694" lon="4.4186275"><ele>102.0</ele><time>2026-05-02T10:00:51.981Z</time></trkpt><trkpt lat="44.3831292" lon="4.4186102"><ele>102.0</ele><time>2026-05-02T10:00:52.982Z</time></trkpt><trkpt lat="44.3829885" lon="4.4185848"><ele>102.0</ele><time>2026-05-02T10:00:53.982Z</time></trkpt><trkpt lat="44.3828517" lon="4.4185507"><ele>104.0</ele><time>2026-05-02T10:00:54.982Z</time></trkpt><trkpt lat="44.3827264" lon="4.4185196"><ele>106.0</ele><time>2026-05-02T10:00:55.982Z</time></trkpt><trkpt lat="44.3826106" lon="4.4184908"><ele>108.0</ele><time>2026-05-02T10:00:56.982Z</time></trkpt><trkpt lat="44.3825028" lon="4.4184618"><ele>110.0</ele><time>2026-05-02T10:00:57.983Z</time></trkpt><trkpt lat="44.3823927" lon="4.4184314"><ele>110.0</ele><time>2026-05-02T10:00:58.982Z</time></trkpt><trkpt lat="44.3822799" lon="4.4184041"><ele>110.0</ele><time>2026-05-02T10:00:59.983Z</time></trkpt><trkpt lat="44.3821707" lon="4.4183824"><ele>110.0</ele><time>2026-05-02T10:01:00.982Z</time></trkpt><trkpt lat="44.3820715" lon="4.4183632"><ele>110.0</ele><time>2026-05-02T10:01:01.982Z</time></trkpt><trkpt lat="44.3819982" lon="4.4183508"><ele>110.0</ele><time>2026-05-02T10:01:02.981Z</time></trkpt><trkpt lat="44.381923" lon="4.4183363"><ele>109.4</ele><time>2026-05-02T10:01:06.982Z</time></trkpt><trkpt lat="44.3818443" lon="4.4183273"><ele>108.8</ele><time>2026-05-02T10:01:25.982Z</time></trkpt><trkpt lat="44.3817509" lon="4.4183171"><ele>108.19999999999999</ele><time>2026-05-02T10:01:26.982Z</time></trkpt><trkpt lat="44.3816568" lon="4.4183073"><ele>107.6</ele><time>2026-05-02T10:01:27.982Z</time></trkpt><trkpt lat="44.3815524" lon="4.4183067"><ele>107.0</ele><time>2026-05-02T10:01:28.982Z</time></trkpt><trkpt lat="44.3814365" lon="4.4183113"><ele>108.25</ele><time>2026-05-02T10:01:29.982Z</time></trkpt><trkpt lat="44.3813197" lon="4.4183125"><ele>109.5</ele><time>2026-05-02T10:01:30.982Z</time></trkpt><trkpt lat="44.3812021" lon="4.4183109"><ele>110.75</ele><time>2026-05-02T10:01:31.982Z</time></trkpt><trkpt lat="44.3810865" lon="4.4183146"><ele>112.0</ele><time>2026-05-02T10:01:32.983Z</time></trkpt><trkpt lat="44.3809709" lon="4.4183134"><ele>112.0</ele><time>2026-05-02T10:01:33.981Z</time></trkpt><trkpt lat="44.3808558" lon="4.4183042"><ele>112.0</ele><time>2026-05-02T10:01:34.982Z</time></trkpt><trkpt lat="44.3807407" lon="4.4182827"><ele>112.0</ele><time>2026-05-02T10:01:35.982Z</time></trkpt><trkpt lat="44.380624" lon="4.4182685"><ele>112.0</ele><time>2026-05-02T10:01:36.981Z</time></trkpt><trkpt lat="44.3804987" lon="4.4182635"><ele>110.25</ele><time>2026-05-02T10:01:37.983Z</time></trkpt><trkpt lat="44.3803681" lon="4.418272"><ele>108.5</ele><time>2026-05-02T10:01:38.983Z</time></trkpt><trkpt lat="44.3802293" lon="4.4182867"><ele>106.75</ele><time>2026-05-02T10:01:39.983Z</time></trkpt><trkpt lat="44.380085" lon="4.4182983"><ele>105.0</ele><time>2026-05-02T10:01:40.982Z</time></trkpt><trkpt lat="44.379934" lon="4.4183144"><ele>105.0</ele><time>2026-05-02T10:01:41.982Z</time></trkpt><trkpt lat="44.3797811" lon="4.4183347"><ele>105.0</ele><time>2026-05-02T10:01:42.982Z</time></trkpt><trkpt lat="44.3796292" lon="4.4183627"><ele>105.0</ele><time>2026-05-02T10:01:43.982Z</time></trkpt><trkpt lat="44.3794771" lon="4.4183973"><ele>103.66666666666666</ele><time>2026-05-02T10:01:44.982Z</time></trkpt><trkpt lat="44.3793242" lon="4.4184378"><ele>102.33333333333333</ele><time>2026-05-02T10:01:45.982Z</time></trkpt><trkpt lat="44.3791736" lon="4.4184823"><ele>101.0</ele><time>2026-05-02T10:01:46.982Z</time></trkpt><trkpt lat="44.3790343" lon="4.4185236"><ele>101.0</ele><time>2026-05-02T10:01:47.982Z</time></trkpt><trkpt lat="44.3789091" lon="4.4185618"><ele>101.0</ele><time>2026-05-02T10:01:48.982Z</time></trkpt><trkpt lat="44.3787975" lon="4.418599"><ele>101.0</ele><time>2026-05-02T10:01:49.982Z</time></trkpt><trkpt lat="44.3787043" lon="4.4186317"><ele>101.0</ele><time>2026-05-02T10:01:50.981Z</time></trkpt><trkpt lat="44.3786258" lon="4.4186529"><ele>101.0</ele><time>2026-05-02T10:01:51.983Z</time></trkpt><trkpt lat="44.3785487" lon="4.4186852"><ele>100.33333333333333</ele><time>2026-05-02T10:01:52.981Z</time></trkpt><trkpt lat="44.3784673" lon="4.4187183"><ele>99.66666666666666</ele><time>2026-05-02T10:01:53.983Z</time></trkpt><trkpt lat="44.3783902" lon="4.4187616"><ele>99.0</ele><time>2026-05-02T10:01:54.98Z</time></trkpt><trkpt lat="44.3783186" lon="4.4188076"><ele>98.33333333333334</ele><time>2026-05-02T10:01:55.982Z</time></trkpt><trkpt lat="44.3782555" lon="4.4188378"><ele>97.66666666666667</ele><time>2026-05-02T10:01:56.982Z</time></trkpt><trkpt lat="44.3781649" lon="4.4188431"><ele>97.0</ele><time>2026-05-02T10:01:58.981Z</time></trkpt><trkpt lat="44.3781158" lon="4.4189205"><ele>97.0</ele><time>2026-05-02T10:02:01.981Z</time></trkpt><trkpt lat="44.3782233" lon="4.418899"><ele>97.0</ele><time>2026-05-02T10:02:04.983Z</time></trkpt><trkpt lat="44.3782993" lon="4.4188492"><ele>97.0</ele><time>2026-05-02T10:02:05.982Z</time></trkpt><trkpt lat="44.3783848" lon="4.4187975"><ele>97.0</ele><time>2026-05-02T10:02:06.982Z</time></trkpt><trkpt lat="44.3784875" lon="4.4187473"><ele>97.0</ele><time>2026-05-02T10:02:07.982Z</time></trkpt><trkpt lat="44.3785986" lon="4.4187034"><ele>97.0</ele><time>2026-05-02T10:02:08.981Z</time></trkpt><trkpt lat="44.3787227" lon="4.4186626"><ele>97.0</ele><time>2026-05-02T10:02:09.983Z</time></trkpt><trkpt lat="44.3788525" lon="4.4186237"><ele>97.0</ele><time>2026-05-02T10:02:10.982Z</time></trkpt><trkpt lat="44.378998" lon="4.4185771"><ele>97.0</ele><time>2026-05-02T10:02:11.982Z</time></trkpt><trkpt lat="44.3791538" lon="4.4185272"><ele>98.33333333333334</ele><time>2026-05-02T10:02:12.982Z</time></trkpt><trkpt lat="44.379315" lon="4.4184774"><ele>99.66666666666666</ele><time>2026-05-02T10:02:13.981Z</time></trkpt><trkpt lat="44.3794755" lon="4.4184299"><ele>101.0</ele><time>2026-05-02T10:02:14.982Z</time></trkpt><trkpt lat="44.3796355" lon="4.4183881"><ele>102.0</ele><time>2026-05-02T10:02:15.982Z</time></trkpt><trkpt lat="44.3797911" lon="4.4183601"><ele>103.0</ele><time>2026-05-02T10:02:16.982Z</time></trkpt><trkpt lat="44.3799387" lon="4.4183406"><ele>104.0</ele><time>2026-05-02T10:02:17.981Z</time></trkpt><trkpt lat="44.380082" lon="4.4183175"><ele>105.0</ele><time>2026-05-02T10:02:18.98Z</time></trkpt><trkpt lat="44.3802218" lon="4.4183033"><ele>105.0</ele><time>2026-05-02T10:02:19.982Z</time></trkpt><trkpt lat="44.3803536" lon="4.4182882"><ele>105.0</ele><time>2026-05-02T10:02:20.982Z</time></trkpt><trkpt lat="44.3804696" lon="4.4182804"><ele>105.0</ele><time>2026-05-02T10:02:21.982Z</time></trkpt><trkpt lat="44.3805709" lon="4.4182839"><ele>105.0</ele><time>2026-05-02T10:02:22.982Z</time></trkpt><trkpt lat="44.3806628" lon="4.4182933"><ele>105.0</ele><time>2026-05-02T10:02:23.981Z</time></trkpt><trkpt lat="44.3807446" lon="4.4183046"><ele>106.0</ele><time>2026-05-02T10:02:24.981Z</time></trkpt><trkpt lat="44.3808179" lon="4.4183112"><ele>107.0</ele><time>2026-05-02T10:02:25.981Z</time></trkpt><trkpt lat="44.380888" lon="4.4183208"><ele>108.0</ele><time>2026-05-02T10:02:26.982Z</time></trkpt><trkpt lat="44.380959" lon="4.4183271"><ele>109.0</ele><time>2026-05-02T10:02:27.981Z</time></trkpt><trkpt lat="44.3810311" lon="4.4183312"><ele>110.0</ele><time>2026-05-02T10:02:28.981Z</time></trkpt><trkpt lat="44.3811062" lon="4.4183295"><ele>111.0</ele><time>2026-05-02T10:02:29.982Z</time></trkpt><trkpt lat="44.3811762" lon="4.4183318"><ele>112.0</ele><time>2026-05-02T10:02:30.981Z</time></trkpt><trkpt lat="44.3812418" lon="4.4183321"><ele>112.0</ele><time>2026-05-02T10:02:31.981Z</time></trkpt><trkpt lat="44.3813092" lon="4.4183288"><ele>112.0</ele><time>2026-05-02T10:02:32.982Z</time></trkpt><trkpt lat="44.3813799" lon="4.4183265"><ele>112.0</ele><time>2026-05-02T10:02:33.981Z</time></trkpt><trkpt lat="44.3814487" lon="4.4183236"><ele>112.0</ele><time>2026-05-02T10:02:34.982Z</time></trkpt><trkpt lat="44.3815153" lon="4.4183185"><ele>112.0</ele><time>2026-05-02T10:02:35.982Z</time></trkpt><trkpt lat="44.3815811" lon="4.4183186"><ele>112.0</ele><time>2026-05-02T10:02:36.983Z</time></trkpt><trkpt lat="44.3816483" lon="4.4183223"><ele>112.0</ele><time>2026-05-02T10:02:37.982Z</time></trkpt><trkpt lat="44.3817184" lon="4.4183257"><ele>111.66666666666667</ele><time>2026-05-02T10:02:38.982Z</time></trkpt><trkpt lat="44.3817908" lon="4.4183366"><ele>111.33333333333334</ele><time>2026-05-02T10:02:39.981Z</time></trkpt><trkpt lat="44.3818655" lon="4.4183514"><ele>111.0</ele><time>2026-05-02T10:02:40.982Z</time></trkpt><trkpt lat="44.3819435" lon="4.418365"><ele>110.66666666666666</ele><time>2026-05-02T10:02:41.982Z</time></trkpt><trkpt lat="44.3820234" lon="4.4183782"><ele>110.33333333333333</ele><time>2026-05-02T10:02:42.981Z</time></trkpt><trkpt lat="44.3821048" lon="4.4183941"><ele>110.0</ele><time>2026-05-02T10:02:43.981Z</time></trkpt><trkpt lat="44.3821866" lon="4.4184142"><ele>110.0</ele><time>2026-05-02T10:02:44.982Z</time></trkpt><trkpt lat="44.3822684" lon="4.4184354"><ele>110.0</ele><time>2026-05-02T10:02:45.981Z</time></trkpt><trkpt lat="44.3823511" lon="4.4184554"><ele>110.0</ele><time>2026-05-02T10:02:46.982Z</time></trkpt><trkpt lat="44.3824333" lon="4.4184738"><ele>110.0</ele><time>2026-05-02T10:02:47.981Z</time></trkpt><trkpt lat="44.3825068" lon="4.4184952"><ele>110.0</ele><time>2026-05-02T10:02:48.982Z</time></trkpt><trkpt lat="44.382631" lon="4.4185274"><ele>110.0</ele><time>2026-05-02T10:02:50.982Z</time></trkpt><trkpt lat="44.382697" lon="4.4185466"><ele>110.0</ele><time>2026-05-02T10:02:51.981Z</time></trkpt><trkpt lat="44.382762" lon="4.418566"><ele>110.0</ele><time>2026-05-02T10:02:52.983Z</time></trkpt><trkpt lat="44.3828785" lon="4.4186017"><ele>110.0</ele><time>2026-05-02T10:02:54.983Z</time></trkpt><trkpt lat="44.3829933" lon="4.4186287"><ele>110.0</ele><time>2026-05-02T10:02:56.981Z</time></trkpt><trkpt lat="44.383113" lon="4.4186463"><ele>108.85714285714285</ele><time>2026-05-02T10:02:58.981Z</time></trkpt><trkpt lat="44.3831772" lon="4.4186561"><ele>107.71428571428571</ele><time>2026-05-02T10:02:59.982Z</time></trkpt><trkpt lat="44.3832421" lon="4.4186648"><ele>106.57142857142857</ele><time>2026-05-02T10:03:00.981Z</time></trkpt><trkpt lat="44.3833127" lon="4.4186722"><ele>105.42857142857142</ele><time>2026-05-02T10:03:01.982Z</time></trkpt><trkpt lat="44.3833825" lon="4.4186795"><ele>104.28571428571429</ele><time>2026-05-02T10:03:02.982Z</time></trkpt><trkpt lat="44.3834527" lon="4.418677"><ele>103.14285714285714</ele><time>2026-05-02T10:03:03.983Z</time></trkpt><trkpt lat="44.3835273" lon="4.4186716"><ele>102.0</ele><time>2026-05-02T10:03:04.982Z</time></trkpt><trkpt lat="44.3835993" lon="4.4186525"><ele>102.0</ele><time>2026-05-02T10:03:05.982Z</time></trkpt><trkpt lat="44.3836691" lon="4.418627"><ele>102.0</ele><time>2026-05-02T10:03:06.982Z</time></trkpt><trkpt lat="44.3837357" lon="4.4185989"><ele>102.0</ele><time>2026-05-02T10:03:07.982Z</time></trkpt><trkpt lat="44.3837977" lon="4.4185624"><ele>102.0</ele><time>2026-05-02T10:03:08.982Z</time></trkpt><trkpt lat="44.3838618" lon="4.4185231"><ele>102.0</ele><time>2026-05-02T10:03:09.982Z</time></trkpt><trkpt lat="44.3839286" lon="4.4184808"><ele>102.0</ele><time>2026-05-02T10:03:10.983Z</time></trkpt><trkpt lat="44.3839895" lon="4.4184337"><ele>102.0</ele><time>2026-05-02T10:03:11.982Z</time></trkpt><trkpt lat="44.3840476" lon="4.4183744"><ele>100.39999999999999</ele><time>2026-05-02T10:03:12.982Z</time></trkpt><trkpt lat="44.3841113" lon="4.4183023"><ele>98.8</ele><time>2026-05-02T10:03:13.982Z</time></trkpt><trkpt lat="44.3841948" lon="4.4182226"><ele>97.2</ele><time>2026-05-02T10:03:14.983Z</time></trkpt><trkpt lat="44.3842849" lon="4.4181571"><ele>95.6</ele><time>2026-05-02T10:03:15.982Z</time></trkpt><trkpt lat="44.3843719" lon="4.4181082"><ele>94.0</ele><time>2026-05-02T10:03:16.982Z</time></trkpt><trkpt lat="44.3844663" lon="4.4180702"><ele>94.0</ele><time>2026-05-02T10:03:17.982Z</time></trkpt><trkpt lat="44.3845724" lon="4.4180415"><ele>94.0</ele><time>2026-05-02T10:03:18.982Z</time></trkpt><trkpt lat="44.3846754" lon="4.4180305"><ele>94.0</ele><time>2026-05-02T10:03:19.983Z</time></trkpt><trkpt lat="44.3847704" lon="4.4180288"><ele>94.0</ele><time>2026-05-02T10:03:20.982Z</time></trkpt><trkpt lat="44.3848585" lon="4.4180159"><ele>94.0</ele><time>2026-05-02T10:03:21.982Z</time></trkpt><trkpt lat="44.3849452" lon="4.4179751"><ele>97.5</ele><time>2026-05-02T10:03:22.982Z</time></trkpt><trkpt lat="44.3850454" lon="4.4179015"><ele>101.0</ele><time>2026-05-02T10:03:23.982Z</time></trkpt><trkpt lat="44.3851645" lon="4.417808"><ele>104.5</ele><time>2026-05-02T10:03:24.982Z</time></trkpt><trkpt lat="44.3852897" lon="4.417734"><ele>108.0</ele><time>2026-05-02T10:03:25.982Z</time></trkpt><trkpt lat="44.3854156" lon="4.4176475"><ele>107.75</ele><time>2026-05-02T10:03:26.982Z</time></trkpt><trkpt lat="44.3855313" lon="4.4175456"><ele>107.5</ele><time>2026-05-02T10:03:27.982Z</time></trkpt><trkpt lat="44.3856431" lon="4.4174281"><ele>107.25</ele><time>2026-05-02T10:03:28.981Z</time></trkpt><trkpt lat="44.3857465" lon="4.4172892"><ele>107.0</ele><time>2026-05-02T10:03:29.981Z</time></trkpt><trkpt lat="44.3858463" lon="4.4171356"><ele>107.0</ele><time>2026-05-02T10:03:30.983Z</time></trkpt><trkpt lat="44.38594" lon="4.4169656"><ele>107.0</ele><time>2026-05-02T10:03:31.983Z</time></trkpt><trkpt lat="44.3860289" lon="4.41679"><ele>107.0</ele><time>2026-05-02T10:03:32.982Z</time></trkpt><trkpt lat="44.3861121" lon="4.4166142"><ele>107.0</ele><time>2026-05-02T10:03:33.982Z</time></trkpt><trkpt lat="44.3861832" lon="4.4164383"><ele>107.0</ele><time>2026-05-02T10:03:34.983Z</time></trkpt><trkpt lat="44.3862413" lon="4.416265"><ele>107.0</ele><time>2026-05-02T10:03:35.983Z</time></trkpt><trkpt lat="44.3862845" lon="4.4160929"><ele>107.0</ele><time>2026-05-02T10:03:36.982Z</time></trkpt><trkpt lat="44.3863122" lon="4.4159153"><ele>109.5</ele><time>2026-05-02T10:03:37.982Z</time></trkpt><trkpt lat="44.3863177" lon="4.4157242"><ele>112.0</ele><time>2026-05-02T10:03:38.981Z</time></trkpt><trkpt lat="44.3863085" lon="4.4155211"><ele>114.5</ele><time>2026-05-02T10:03:39.982Z</time></trkpt><trkpt lat="44.386291" lon="4.4153125"><ele>117.0</ele><time>2026-05-02T10:03:40.982Z</time></trkpt><trkpt lat="44.3862616" lon="4.4151067"><ele>117.33333333333334</ele><time>2026-05-02T10:03:41.983Z</time></trkpt><trkpt lat="44.3862235" lon="4.4149021"><ele>117.66666666666667</ele><time>2026-05-02T10:03:42.983Z</time></trkpt><trkpt lat="44.3861767" lon="4.4147021"><ele>118.0</ele><time>2026-05-02T10:03:43.982Z</time></trkpt><trkpt lat="44.3861219" lon="4.4145024"><ele>114.75</ele><time>2026-05-02T10:03:44.983Z</time></trkpt><trkpt lat="44.3860627" lon="4.4143024"><ele>111.5</ele><time>2026-05-02T10:03:45.983Z</time></trkpt><trkpt lat="44.3860005" lon="4.4141121"><ele>108.25</ele><time>2026-05-02T10:03:46.982Z</time></trkpt><trkpt lat="44.3859344" lon="4.4139349"><ele>105.0</ele><time>2026-05-02T10:03:47.982Z</time></trkpt><trkpt lat="44.3858589" lon="4.4137837"><ele>102.5</ele><time>2026-05-02T10:03:48.982Z</time></trkpt><trkpt lat="44.3857677" lon="4.413663"><ele>100.0</ele><time>2026-05-02T10:03:49.983Z</time></trkpt><trkpt lat="44.3856624" lon="4.4135822"><ele>97.5</ele><time>2026-05-02T10:03:50.982Z</time></trkpt><trkpt lat="44.3855484" lon="4.4135487"><ele>95.0</ele><time>2026-05-02T10:03:51.982Z</time></trkpt><trkpt lat="44.3854238" lon="4.4135619"><ele>95.0</ele><time>2026-05-02T10:03:52.982Z</time></trkpt><trkpt lat="44.3852897" lon="4.4136095"><ele>95.0</ele><time>2026-05-02T10:03:53.983Z</time></trkpt><trkpt lat="44.385145" lon="4.4136665"><ele>95.0</ele><time>2026-05-02T10:03:54.982Z</time></trkpt><trkpt lat="44.3849938" lon="4.4137291"><ele>95.0</ele><time>2026-05-02T10:03:55.982Z</time></trkpt><trkpt lat="44.3848376" lon="4.4137917"><ele>96.0</ele><time>2026-05-02T10:03:56.982Z</time></trkpt><trkpt lat="44.3846824" lon="4.4138589"><ele>97.0</ele><time>2026-05-02T10:03:57.982Z</time></trkpt><trkpt lat="44.3845312" lon="4.4139333"><ele>98.0</ele><time>2026-05-02T10:03:58.981Z</time></trkpt><trkpt lat="44.3843864" lon="4.4140076"><ele>98.0</ele><time>2026-05-02T10:03:59.981Z</time></trkpt><trkpt lat="44.3842479" lon="4.414068"><ele>98.0</ele><time>2026-05-02T10:04:00.981Z</time></trkpt><trkpt lat="44.3841293" lon="4.4140806"><ele>98.0</ele><time>2026-05-02T10:04:01.981Z</time></trkpt><trkpt lat="44.3840171" lon="4.4140433"><ele>98.0</ele><time>2026-05-02T10:04:02.981Z</time></trkpt><trkpt lat="44.3839029" lon="4.4139729"><ele>97.25</ele><time>2026-05-02T10:04:03.982Z</time></trkpt><trkpt lat="44.3837847" lon="4.4138894"><ele>96.5</ele><time>2026-05-02T10:04:04.981Z</time></trkpt><trkpt lat="44.3836675" lon="4.4138091"><ele>95.75</ele><time>2026-05-02T10:04:05.981Z</time></trkpt><trkpt lat="44.3835558" lon="4.413737"><ele>95.0</ele><time>2026-05-02T10:04:06.981Z</time></trkpt><trkpt lat="44.3834555" lon="4.4136765"><ele>95.0</ele><time>2026-05-02T10:04:07.98Z</time></trkpt><trkpt lat="44.3833548" lon="4.4136168"><ele>95.0</ele><time>2026-05-02T10:04:08.981Z</time></trkpt><trkpt lat="44.383258" lon="4.4135717"><ele>95.0</ele><time>2026-05-02T10:04:09.982Z</time></trkpt><trkpt lat="44.3831579" lon="4.4135471"><ele>95.0</ele><time>2026-05-02T10:04:10.982Z</time></trkpt><trkpt lat="44.3830493" lon="4.4135559"><ele>95.0</ele><time>2026-05-02T10:04:11.981Z</time></trkpt><trkpt lat="44.3829311" lon="4.4135944"><ele>97.0</ele><time>2026-05-02T10:04:12.981Z</time></trkpt><trkpt lat="44.3828054" lon="4.4136447"><ele>99.0</ele><time>2026-05-02T10:04:13.981Z</time></trkpt><trkpt lat="44.3826731" lon="4.4136799"><ele>101.0</ele><time>2026-05-02T10:04:14.981Z</time></trkpt><trkpt lat="44.3825502" lon="4.4136756"><ele>103.0</ele><time>2026-05-02T10:04:15.981Z</time></trkpt><trkpt lat="44.3824425" lon="4.4136297"><ele>103.0</ele><time>2026-05-02T10:04:16.982Z</time></trkpt><trkpt lat="44.382349" lon="4.4135373"><ele>103.0</ele><time>2026-05-02T10:04:17.982Z</time></trkpt><trkpt lat="44.3822693" lon="4.4134056"><ele>103.0</ele><time>2026-05-02T10:04:18.981Z</time></trkpt><trkpt lat="44.3821873" lon="4.413252"><ele>103.0</ele><time>2026-05-02T10:04:19.981Z</time></trkpt><trkpt lat="44.3821082" lon="4.4130787"><ele>99.25</ele><time>2026-05-02T10:04:20.98Z</time></trkpt><trkpt lat="44.3820391" lon="4.4128889"><ele>95.5</ele><time>2026-05-02T10:04:21.981Z</time></trkpt><trkpt lat="44.3819853" lon="4.4126999"><ele>91.75</ele><time>2026-05-02T10:04:22.981Z</time></trkpt><trkpt lat="44.3819517" lon="4.412512"><ele>88.0</ele><time>2026-05-02T10:04:23.982Z</time></trkpt><trkpt lat="44.3819348" lon="4.4123184"><ele>87.33333333333333</ele><time>2026-05-02T10:04:24.982Z</time></trkpt><trkpt lat="44.3819264" lon="4.4121134"><ele>86.66666666666667</ele><time>2026-05-02T10:04:25.982Z</time></trkpt><trkpt lat="44.3819238" lon="4.4118993"><ele>86.0</ele><time>2026-05-02T10:04:26.981Z</time></trkpt><trkpt lat="44.3819305" lon="4.41168"><ele>86.0</ele><time>2026-05-02T10:04:27.981Z</time></trkpt><trkpt lat="44.3819527" lon="4.4114625"><ele>86.0</ele><time>2026-05-02T10:04:28.981Z</time></trkpt><trkpt lat="44.3819871" lon="4.4112472"><ele>86.0</ele><time>2026-05-02T10:04:29.981Z</time></trkpt><trkpt lat="44.3820267" lon="4.4110331"><ele>85.33333333333334</ele><time>2026-05-02T10:04:30.981Z</time></trkpt><trkpt lat="44.3820729" lon="4.4108169"><ele>84.66666666666667</ele><time>2026-05-02T10:04:31.982Z</time></trkpt><trkpt lat="44.3821269" lon="4.4106055"><ele>84.0</ele><time>2026-05-02T10:04:32.982Z</time></trkpt><trkpt lat="44.3821852" lon="4.4103975"><ele>93.66666666666666</ele><time>2026-05-02T10:04:33.981Z</time></trkpt><trkpt lat="44.3822486" lon="4.4101884"><ele>103.33333333333333</ele><time>2026-05-02T10:04:34.981Z</time></trkpt><trkpt lat="44.3823188" lon="4.4099822"><ele>113.0</ele><time>2026-05-02T10:04:35.981Z</time></trkpt><trkpt lat="44.3823887" lon="4.4097743"><ele>109.33333333333333</ele><time>2026-05-02T10:04:36.982Z</time></trkpt><trkpt lat="44.382456" lon="4.4095615"><ele>105.66666666666666</ele><time>2026-05-02T10:04:37.981Z</time></trkpt><trkpt lat="44.3825111" lon="4.4093413"><ele>102.0</ele><time>2026-05-02T10:04:38.981Z</time></trkpt><trkpt lat="44.3825572" lon="4.4091143"><ele>102.0</ele><time>2026-05-02T10:04:39.982Z</time></trkpt><trkpt lat="44.3826144" lon="4.4088965"><ele>102.0</ele><time>2026-05-02T10:04:40.981Z</time></trkpt><trkpt lat="44.3826799" lon="4.4086975"><ele>102.0</ele><time>2026-05-02T10:04:41.981Z</time></trkpt><trkpt lat="44.3827472" lon="4.4085201"><ele>103.75</ele><time>2026-05-02T10:04:42.981Z</time></trkpt><trkpt lat="44.3828165" lon="4.4083745"><ele>105.5</ele><time>2026-05-02T10:04:43.982Z</time></trkpt><trkpt lat="44.382891" lon="4.4082545"><ele>107.25</ele><time>2026-05-02T10:04:44.981Z</time></trkpt><trkpt lat="44.3829793" lon="4.4081639"><ele>109.0</ele><time>2026-05-02T10:04:45.981Z</time></trkpt><trkpt lat="44.3830804" lon="4.4081012"><ele>109.0</ele><time>2026-05-02T10:04:46.981Z</time></trkpt><trkpt lat="44.3831925" lon="4.4080648"><ele>109.0</ele><time>2026-05-02T10:04:47.981Z</time></trkpt><trkpt lat="44.3833107" lon="4.4080575"><ele>109.0</ele><time>2026-05-02T10:04:48.981Z</time></trkpt><trkpt lat="44.3834275" lon="4.4080532"><ele>109.0</ele><time>2026-05-02T10:04:49.981Z</time></trkpt><trkpt lat="44.3835389" lon="4.4080331"><ele>109.0</ele><time>2026-05-02T10:04:50.981Z</time></trkpt><trkpt lat="44.3836469" lon="4.4080288"><ele>109.0</ele><time>2026-05-02T10:04:51.98Z</time></trkpt><trkpt lat="44.3837482" lon="4.408051"><ele>109.0</ele><time>2026-05-02T10:04:52.981Z</time></trkpt><trkpt lat="44.3838364" lon="4.4081078"><ele>109.0</ele><time>2026-05-02T10:04:53.982Z</time></trkpt><trkpt lat="44.3839049" lon="4.4081893"><ele>109.0</ele><time>2026-05-02T10:04:54.982Z</time></trkpt><trkpt lat="44.3839622" lon="4.4082768"><ele>109.66666666666667</ele><time>2026-05-02T10:04:55.981Z</time></trkpt><trkpt lat="44.3840279" lon="4.4083448"><ele>110.33333333333334</ele><time>2026-05-02T10:04:56.982Z</time></trkpt><trkpt lat="44.3841004" lon="4.4084003"><ele>111.0</ele><time>2026-05-02T10:04:57.981Z</time></trkpt><trkpt lat="44.3841789" lon="4.4084501"><ele>111.66666666666666</ele><time>2026-05-02T10:04:58.98Z</time></trkpt><trkpt lat="44.3842638" lon="4.4085016"><ele>112.33333333333333</ele><time>2026-05-02T10:04:59.981Z</time></trkpt><trkpt lat="44.3843516" lon="4.408552"><ele>113.0</ele><time>2026-05-02T10:05:00.981Z</time></trkpt><trkpt lat="44.3844473" lon="4.4085951"><ele>113.0</ele><time>2026-05-02T10:05:01.981Z</time></trkpt><trkpt lat="44.384544" lon="4.4086279"><ele>113.00000000000001</ele><time>2026-05-02T10:05:02.982Z</time></trkpt><trkpt lat="44.3846441" lon="4.4086559"><ele>113.00000000000001</ele><time>2026-05-02T10:05:03.98Z</time></trkpt><trkpt lat="44.3847443" lon="4.4086803"><ele>113.0</ele><time>2026-05-02T10:05:04.981Z</time></trkpt><trkpt lat="44.3848421" lon="4.4087048"><ele>113.0</ele><time>2026-05-02T10:05:05.981Z</time></trkpt><trkpt lat="44.3849382" lon="4.4087301"><ele>110.60000000000001</ele><time>2026-05-02T10:05:06.981Z</time></trkpt><trkpt lat="44.3850324" lon="4.4087587"><ele>108.20000000000002</ele><time>2026-05-02T10:05:07.981Z</time></trkpt><trkpt lat="44.3851278" lon="4.4087827"><ele>105.8</ele><time>2026-05-02T10:05:08.98Z</time></trkpt><trkpt lat="44.3852261" lon="4.4088068"><ele>103.4</ele><time>2026-05-02T10:05:09.981Z</time></trkpt><trkpt lat="44.3853254" lon="4.4088313"><ele>101.0</ele><time>2026-05-02T10:05:10.981Z</time></trkpt><trkpt lat="44.3854273" lon="4.4088539"><ele>101.4</ele><time>2026-05-02T10:05:11.982Z</time></trkpt><trkpt lat="44.3855362" lon="4.4088596"><ele>101.8</ele><time>2026-05-02T10:05:12.981Z</time></trkpt><trkpt lat="44.3856469" lon="4.4088512"><ele>102.2</ele><time>2026-05-02T10:05:13.981Z</time></trkpt><trkpt lat="44.3857584" lon="4.4088408"><ele>102.60000000000001</ele><time>2026-05-02T10:05:14.981Z</time></trkpt><trkpt lat="44.3858703" lon="4.4088303"><ele>103.0</ele><time>2026-05-02T10:05:15.981Z</time></trkpt><trkpt lat="44.3859801" lon="4.4088221"><ele>103.0</ele><time>2026-05-02T10:05:16.981Z</time></trkpt><trkpt lat="44.386083" lon="4.4087952"><ele>103.0</ele><time>2026-05-02T10:05:17.982Z</time></trkpt><trkpt lat="44.386174" lon="4.4087946"><ele>103.0</ele><time>2026-05-02T10:05:18.981Z</time></trkpt><trkpt lat="44.3862502" lon="4.4087441"><ele>103.0</ele><time>2026-05-02T10:05:19.981Z</time></trkpt><trkpt lat="44.3863184" lon="4.4087156"><ele>103.0</ele><time>2026-05-02T10:05:20.981Z</time></trkpt><trkpt lat="44.3864229" lon="4.408646"><ele>109.80000000000001</ele><time>2026-05-02T10:05:22.982Z</time></trkpt><trkpt lat="44.3865046" lon="4.4086112"><ele>116.6</ele><time>2026-05-02T10:05:24.981Z</time></trkpt><trkpt lat="44.3865943" lon="4.4085951"><ele>123.39999999999999</ele><time>2026-05-02T10:05:26.982Z</time></trkpt><trkpt lat="44.3866933" lon="4.4085748"><ele>130.2</ele><time>2026-05-02T10:05:28.981Z</time></trkpt><trkpt lat="44.3867919" lon="4.4085547"><ele>137.0</ele><time>2026-05-02T10:05:30.981Z</time></trkpt><trkpt lat="44.3868735" lon="4.4085404"><ele>137.0</ele><time>2026-05-02T10:05:31.982Z</time></trkpt><trkpt lat="44.3869618" lon="4.4084911"><ele>137.0</ele><time>2026-05-02T10:05:33.981Z</time></trkpt><trkpt lat="44.3870432" lon="4.4084728"><ele>137.0</ele><time>2026-05-02T10:05:35.982Z</time></trkpt><trkpt lat="44.387113" lon="4.4084909"><ele>137.0</ele><time>2026-05-02T10:05:47.98Z</time></trkpt><trkpt lat="44.3872037" lon="4.408509"><ele>137.0</ele><time>2026-05-02T10:06:28.981Z</time></trkpt><trkpt lat="44.3873295" lon="4.4085208"><ele>133.75</ele><time>2026-05-02T10:06:29.981Z</time></trkpt><trkpt lat="44.387463" lon="4.4085137"><ele>130.5</ele><time>2026-05-02T10:06:30.981Z</time></trkpt><trkpt lat="44.3876007" lon="4.408517"><ele>127.25</ele><time>2026-05-02T10:06:31.981Z</time></trkpt><trkpt lat="44.3877153" lon="4.4085034"><ele>124.0</ele><time>2026-05-02T10:06:32.981Z</time></trkpt><trkpt lat="44.3878284" lon="4.408474"><ele>124.0</ele><time>2026-05-02T10:06:33.981Z</time></trkpt><trkpt lat="44.3879399" lon="4.4084107"><ele>124.0</ele><time>2026-05-02T10:06:34.981Z</time></trkpt><trkpt lat="44.3880509" lon="4.4083025"><ele>124.0</ele><time>2026-05-02T10:06:35.982Z</time></trkpt><trkpt lat="44.3881611" lon="4.4081665"><ele>124.0</ele><time>2026-05-02T10:06:36.981Z</time></trkpt><trkpt lat="44.3882714" lon="4.4080271"><ele>114.75</ele><time>2026-05-02T10:06:37.981Z</time></trkpt><trkpt lat="44.3883728" lon="4.4079011"><ele>105.5</ele><time>2026-05-02T10:06:38.98Z</time></trkpt><trkpt lat="44.3884739" lon="4.407798"><ele>96.25</ele><time>2026-05-02T10:06:39.981Z</time></trkpt><trkpt lat="44.3885748" lon="4.4077307"><ele>87.0</ele><time>2026-05-02T10:06:40.981Z</time></trkpt><trkpt lat="44.38867" lon="4.4076954"><ele>87.0</ele><time>2026-05-02T10:06:41.982Z</time></trkpt><trkpt lat="44.3887525" lon="4.4076942"><ele>87.0</ele><time>2026-05-02T10:06:42.981Z</time></trkpt><trkpt lat="44.3888204" lon="4.4077068"><ele>87.0</ele><time>2026-05-02T10:06:43.981Z</time></trkpt><trkpt lat="44.3889266" lon="4.4077337"><ele>87.0</ele><time>2026-05-02T10:06:45.981Z</time></trkpt><trkpt lat="44.3890147" lon="4.4077389"><ele>87.0</ele><time>2026-05-02T10:06:47.981Z</time></trkpt><trkpt lat="44.3890982" lon="4.4077162"><ele>87.0</ele><time>2026-05-02T10:06:50.981Z</time></trkpt><trkpt lat="44.3891523" lon="4.4076655"><ele>91.6</ele><time>2026-05-02T10:06:53.981Z</time></trkpt><trkpt lat="44.3892247" lon="4.4075928"><ele>96.19999999999999</ele><time>2026-05-02T10:08:22.981Z</time></trkpt><trkpt lat="44.3892753" lon="4.4074762"><ele>100.8</ele><time>2026-05-02T10:08:24.981Z</time></trkpt><trkpt lat="44.389348" lon="4.4073631"><ele>105.4</ele><time>2026-05-02T10:08:26.981Z</time></trkpt><trkpt lat="44.3894111" lon="4.4072791"><ele>110.0</ele><time>2026-05-02T10:08:28.981Z</time></trkpt><trkpt lat="44.3894381" lon="4.4071641"><ele>105.8</ele><time>2026-05-02T10:13:48.979Z</time></trkpt><trkpt lat="44.3894739" lon="4.4070726"><ele>101.6</ele><time>2026-05-02T10:13:49.98Z</time></trkpt><trkpt lat="44.3895233" lon="4.4069657"><ele>97.4</ele><time>2026-05-02T10:13:50.979Z</time></trkpt><trkpt lat="44.3895735" lon="4.4068572"><ele>93.2</ele><time>2026-05-02T10:13:51.979Z</time></trkpt><trkpt lat="44.3896239" lon="4.4067359"><ele>89.0</ele><time>2026-05-02T10:13:52.979Z</time></trkpt><trkpt lat="44.3896668" lon="4.4066222"><ele>91.16666666666667</ele><time>2026-05-02T10:13:53.979Z</time></trkpt><trkpt lat="44.3897034" lon="4.4065085"><ele>93.33333333333334</ele><time>2026-05-02T10:13:54.979Z</time></trkpt><trkpt lat="44.3897328" lon="4.4063959"><ele>95.5</ele><time>2026-05-02T10:13:55.979Z</time></trkpt><trkpt lat="44.3897593" lon="4.4062785"><ele>97.66666666666667</ele><time>2026-05-02T10:13:56.979Z</time></trkpt><trkpt lat="44.3897964" lon="4.4061627"><ele>99.83333333333333</ele><time>2026-05-02T10:13:57.979Z</time></trkpt><trkpt lat="44.3898453" lon="4.4060521"><ele>102.0</ele><time>2026-05-02T10:13:58.979Z</time></trkpt><trkpt lat="44.3898992" lon="4.4059471"><ele>102.0</ele><time>2026-05-02T10:13:59.979Z</time></trkpt><trkpt lat="44.3899583" lon="4.4058486"><ele>102.0</ele><time>2026-05-02T10:14:00.979Z</time></trkpt><trkpt lat="44.3900251" lon="4.405754"><ele>102.0</ele><time>2026-05-02T10:14:01.979Z</time></trkpt><trkpt lat="44.390106" lon="4.4056627"><ele>102.0</ele><time>2026-05-02T10:14:02.979Z</time></trkpt><trkpt lat="44.3901988" lon="4.4055757"><ele>102.0</ele><time>2026-05-02T10:14:03.979Z</time></trkpt><trkpt lat="44.3902987" lon="4.4054936"><ele>102.39999999999999</ele><time>2026-05-02T10:14:04.978Z</time></trkpt><trkpt lat="44.3903991" lon="4.4054008"><ele>102.8</ele><time>2026-05-02T10:14:05.979Z</time></trkpt><trkpt lat="44.3904891" lon="4.4052982"><ele>103.2</ele><time>2026-05-02T10:14:06.979Z</time></trkpt><trkpt lat="44.3905658" lon="4.4051988"><ele>103.6</ele><time>2026-05-02T10:14:07.979Z</time></trkpt><trkpt lat="44.3906306" lon="4.4051036"><ele>104.0</ele><time>2026-05-02T10:14:08.979Z</time></trkpt><trkpt lat="44.3906899" lon="4.4050116"><ele>103.99999999999999</ele><time>2026-05-02T10:14:09.98Z</time></trkpt><trkpt lat="44.3907451" lon="4.4049235"><ele>104.0</ele><time>2026-05-02T10:14:10.979Z</time></trkpt><trkpt lat="44.3907972" lon="4.4048297"><ele>104.0</ele><time>2026-05-02T10:14:11.979Z</time></trkpt><trkpt lat="44.3908436" lon="4.4047309"><ele>104.0</ele><time>2026-05-02T10:14:12.98Z</time></trkpt><trkpt lat="44.3908826" lon="4.4046203"><ele>103.99999999999999</ele><time>2026-05-02T10:14:13.979Z</time></trkpt><trkpt lat="44.3909043" lon="4.4044818"><ele>104.0</ele><time>2026-05-02T10:14:14.979Z</time></trkpt><trkpt lat="44.3909042" lon="4.4042993"><ele>104.0</ele><time>2026-05-02T10:14:15.98Z</time></trkpt><trkpt lat="44.3908931" lon="4.4040908"><ele>104.0</ele><time>2026-05-02T10:14:16.979Z</time></trkpt><trkpt lat="44.3908784" lon="4.4038627"><ele>104.0</ele><time>2026-05-02T10:14:17.978Z</time></trkpt><trkpt lat="44.3908686" lon="4.4036546"><ele>105.0</ele><time>2026-05-02T10:14:18.979Z</time></trkpt><trkpt lat="44.3908637" lon="4.403452"><ele>106.0</ele><time>2026-05-02T10:14:19.98Z</time></trkpt><trkpt lat="44.3908754" lon="4.4032565"><ele>107.0</ele><time>2026-05-02T10:14:20.979Z</time></trkpt><trkpt lat="44.3909078" lon="4.4030745"><ele>108.0</ele><time>2026-05-02T10:14:21.98Z</time></trkpt><trkpt lat="44.3909584" lon="4.4028957"><ele>105.33333333333334</ele><time>2026-05-02T10:14:22.979Z</time></trkpt><trkpt lat="44.3910291" lon="4.4027152"><ele>102.66666666666667</ele><time>2026-05-02T10:14:23.979Z</time></trkpt><trkpt lat="44.3911125" lon="4.4025358"><ele>100.0</ele><time>2026-05-02T10:14:24.979Z</time></trkpt><trkpt lat="44.3912017" lon="4.4023528"><ele>100.0</ele><time>2026-05-02T10:14:25.979Z</time></trkpt><trkpt lat="44.3912918" lon="4.4021753"><ele>100.0</ele><time>2026-05-02T10:14:26.979Z</time></trkpt><trkpt lat="44.3913812" lon="4.4020123"><ele>100.0</ele><time>2026-05-02T10:14:27.98Z</time></trkpt><trkpt lat="44.3914732" lon="4.40187"><ele>100.0</ele><time>2026-05-02T10:14:28.978Z</time></trkpt><trkpt lat="44.391571" lon="4.4017686"><ele>100.0</ele><time>2026-05-02T10:14:29.979Z</time></trkpt><trkpt lat="44.391673" lon="4.4017126"><ele>100.0</ele><time>2026-05-02T10:14:30.979Z</time></trkpt><trkpt lat="44.3917822" lon="4.4017013"><ele>100.0</ele><time>2026-05-02T10:14:31.979Z</time></trkpt><trkpt lat="44.3919093" lon="4.4017266"><ele>100.0</ele><time>2026-05-02T10:14:32.979Z</time></trkpt><trkpt lat="44.3920349" lon="4.4017909"><ele>100.0</ele><time>2026-05-02T10:14:33.979Z</time></trkpt><trkpt lat="44.3921499" lon="4.4018897"><ele>100.0</ele><time>2026-05-02T10:14:34.979Z</time></trkpt><trkpt lat="44.3922527" lon="4.4020217"><ele>100.0</ele><time>2026-05-02T10:14:35.979Z</time></trkpt><trkpt lat="44.3923454" lon="4.4021728"><ele>100.0</ele><time>2026-05-02T10:14:36.979Z</time></trkpt><trkpt lat="44.3924417" lon="4.4023152"><ele>100.5</ele><time>2026-05-02T10:14:37.98Z</time></trkpt><trkpt lat="44.3925426" lon="4.4024436"><ele>101.0</ele><time>2026-05-02T10:14:38.979Z</time></trkpt><trkpt lat="44.3926378" lon="4.402573"><ele>101.5</ele><time>2026-05-02T10:14:39.979Z</time></trkpt><trkpt lat="44.3927191" lon="4.4027114"><ele>102.0</ele><time>2026-05-02T10:14:40.979Z</time></trkpt><trkpt lat="44.3927946" lon="4.4028554"><ele>104.5</ele><time>2026-05-02T10:14:41.979Z</time></trkpt><trkpt lat="44.3928629" lon="4.4030136"><ele>107.0</ele><time>2026-05-02T10:14:42.98Z</time></trkpt><trkpt lat="44.3929229" lon="4.4031827"><ele>109.5</ele><time>2026-05-02T10:14:43.979Z</time></trkpt><trkpt lat="44.3929777" lon="4.403347"><ele>112.0</ele><time>2026-05-02T10:14:44.979Z</time></trkpt><trkpt lat="44.3930359" lon="4.4035034"><ele>107.25</ele><time>2026-05-02T10:14:45.979Z</time></trkpt><trkpt lat="44.3931063" lon="4.4036433"><ele>102.5</ele><time>2026-05-02T10:14:46.979Z</time></trkpt><trkpt lat="44.393192" lon="4.4037581"><ele>97.75</ele><time>2026-05-02T10:14:47.98Z</time></trkpt><trkpt lat="44.393294" lon="4.4038407"><ele>93.0</ele><time>2026-05-02T10:14:48.979Z</time></trkpt><trkpt lat="44.3934117" lon="4.4038867"><ele>93.0</ele><time>2026-05-02T10:14:49.979Z</time></trkpt><trkpt lat="44.3935276" lon="4.4038896"><ele>93.0</ele><time>2026-05-02T10:14:50.979Z</time></trkpt><trkpt lat="44.3936617" lon="4.4038623"><ele>93.0</ele><time>2026-05-02T10:14:51.979Z</time></trkpt><trkpt lat="44.393812" lon="4.4038267"><ele>93.0</ele><time>2026-05-02T10:14:52.978Z</time></trkpt><trkpt lat="44.3939709" lon="4.4037897"><ele>90.66666666666667</ele><time>2026-05-02T10:14:53.979Z</time></trkpt><trkpt lat="44.3941302" lon="4.4037511"><ele>88.33333333333334</ele><time>2026-05-02T10:14:54.978Z</time></trkpt><trkpt lat="44.3942916" lon="4.4037133"><ele>86.0</ele><time>2026-05-02T10:14:55.98Z</time></trkpt><trkpt lat="44.3944525" lon="4.4036764"><ele>86.0</ele><time>2026-05-02T10:14:56.978Z</time></trkpt><trkpt lat="44.3946104" lon="4.403643"><ele>86.0</ele><time>2026-05-02T10:14:57.979Z</time></trkpt><trkpt lat="44.3947661" lon="4.4036109"><ele>86.0</ele><time>2026-05-02T10:14:58.979Z</time></trkpt><trkpt lat="44.3949308" lon="4.4035774"><ele>85.66666666666667</ele><time>2026-05-02T10:14:59.979Z</time></trkpt><trkpt lat="44.3951003" lon="4.4035443"><ele>85.33333333333333</ele><time>2026-05-02T10:15:00.979Z</time></trkpt><trkpt lat="44.3952728" lon="4.4035114"><ele>85.0</ele><time>2026-05-02T10:15:01.979Z</time></trkpt><trkpt lat="44.3954357" lon="4.403476"><ele>86.5</ele><time>2026-05-02T10:15:02.979Z</time></trkpt><trkpt lat="44.3955898" lon="4.403443"><ele>88.0</ele><time>2026-05-02T10:15:03.979Z</time></trkpt><trkpt lat="44.3957334" lon="4.4034071"><ele>89.5</ele><time>2026-05-02T10:15:04.98Z</time></trkpt><trkpt lat="44.3958698" lon="4.4033666"><ele>91.0</ele><time>2026-05-02T10:15:05.979Z</time></trkpt><trkpt lat="44.396002" lon="4.4033119"><ele>91.0</ele><time>2026-05-02T10:15:06.978Z</time></trkpt><trkpt lat="44.3961321" lon="4.4032398"><ele>91.0</ele><time>2026-05-02T10:15:07.979Z</time></trkpt><trkpt lat="44.396253" lon="4.4031418"><ele>91.0</ele><time>2026-05-02T10:15:08.978Z</time></trkpt><trkpt lat="44.3963678" lon="4.4030275"><ele>91.0</ele><time>2026-05-02T10:15:09.979Z</time></trkpt><trkpt lat="44.3964811" lon="4.4029081"><ele>90.25</ele><time>2026-05-02T10:15:10.978Z</time></trkpt><trkpt lat="44.3965912" lon="4.4027858"><ele>89.5</ele><time>2026-05-02T10:15:11.979Z</time></trkpt><trkpt lat="44.3966975" lon="4.4026645"><ele>88.75</ele><time>2026-05-02T10:15:12.98Z</time></trkpt><trkpt lat="44.3968016" lon="4.4025472"><ele>88.0</ele><time>2026-05-02T10:15:13.978Z</time></trkpt><trkpt lat="44.3969028" lon="4.4024304"><ele>88.0</ele><time>2026-05-02T10:15:14.98Z</time></trkpt><trkpt lat="44.3970007" lon="4.4023114"><ele>88.0</ele><time>2026-05-02T10:15:15.979Z</time></trkpt><trkpt lat="44.3970944" lon="4.402197"><ele>88.0</ele><time>2026-05-02T10:15:16.979Z</time></trkpt><trkpt lat="44.3971833" lon="4.4020768"><ele>88.0</ele><time>2026-05-02T10:15:17.978Z</time></trkpt><trkpt lat="44.3972622" lon="4.4019531"><ele>88.0</ele><time>2026-05-02T10:15:18.98Z</time></trkpt><trkpt lat="44.3973307" lon="4.4018254"><ele>88.0</ele><time>2026-05-02T10:15:19.979Z</time></trkpt><trkpt lat="44.3973876" lon="4.4016904"><ele>88.0</ele><time>2026-05-02T10:15:20.978Z</time></trkpt><trkpt lat="44.3974414" lon="4.401556"><ele>88.0</ele><time>2026-05-02T10:15:21.979Z</time></trkpt><trkpt lat="44.3974943" lon="4.4014257"><ele>88.0</ele><time>2026-05-02T10:15:22.979Z</time></trkpt><trkpt lat="44.3975448" lon="4.4012991"><ele>88.0</ele><time>2026-05-02T10:15:23.978Z</time></trkpt><trkpt lat="44.3975865" lon="4.401196"><ele>88.0</ele><time>2026-05-02T10:15:24.979Z</time></trkpt><trkpt lat="44.3976281" lon="4.4011018"><ele>88.0</ele><time>2026-05-02T10:15:25.979Z</time></trkpt><trkpt lat="44.3976682" lon="4.4010085"><ele>88.0</ele><time>2026-05-02T10:15:26.978Z</time></trkpt><trkpt lat="44.3977093" lon="4.4009062"><ele>88.0</ele><time>2026-05-02T10:15:27.979Z</time></trkpt><trkpt lat="44.3977531" lon="4.4007957"><ele>88.0</ele><time>2026-05-02T10:15:28.979Z</time></trkpt><trkpt lat="44.3978012" lon="4.4006776"><ele>88.0</ele><time>2026-05-02T10:15:29.978Z</time></trkpt><trkpt lat="44.3978533" lon="4.4005503"><ele>88.0</ele><time>2026-05-02T10:15:30.979Z</time></trkpt><trkpt lat="44.3979071" lon="4.4004129"><ele>88.0</ele><time>2026-05-02T10:15:31.979Z</time></trkpt><trkpt lat="44.3979593" lon="4.400267"><ele>88.0</ele><time>2026-05-02T10:15:32.979Z</time></trkpt><trkpt lat="44.3980091" lon="4.4001145"><ele>88.25</ele><time>2026-05-02T10:15:33.979Z</time></trkpt><trkpt lat="44.3980511" lon="4.3999564"><ele>88.5</ele><time>2026-05-02T10:15:34.979Z</time></trkpt><trkpt lat="44.3980861" lon="4.3997899"><ele>88.75</ele><time>2026-05-02T10:15:35.979Z</time></trkpt><trkpt lat="44.39812" lon="4.3996187"><ele>89.0</ele><time>2026-05-02T10:15:36.979Z</time></trkpt><trkpt lat="44.3981528" lon="4.3994509"><ele>89.5</ele><time>2026-05-02T10:15:37.98Z</time></trkpt><trkpt lat="44.3981823" lon="4.3992805"><ele>90.0</ele><time>2026-05-02T10:15:38.979Z</time></trkpt><trkpt lat="44.3982154" lon="4.3991098"><ele>90.5</ele><time>2026-05-02T10:15:39.98Z</time></trkpt><trkpt lat="44.398248" lon="4.3989381"><ele>91.0</ele><time>2026-05-02T10:15:40.979Z</time></trkpt><trkpt lat="44.3982784" lon="4.3987625"><ele>91.25</ele><time>2026-05-02T10:15:41.979Z</time></trkpt><trkpt lat="44.398307" lon="4.3985914"><ele>91.5</ele><time>2026-05-02T10:15:42.979Z</time></trkpt><trkpt lat="44.3983325" lon="4.3984213"><ele>91.75</ele><time>2026-05-02T10:15:43.979Z</time></trkpt><trkpt lat="44.398354" lon="4.3982474"><ele>92.0</ele><time>2026-05-02T10:15:44.979Z</time></trkpt><trkpt lat="44.3983721" lon="4.3980666"><ele>92.5</ele><time>2026-05-02T10:15:45.979Z</time></trkpt><trkpt lat="44.3983852" lon="4.3978845"><ele>93.0</ele><time>2026-05-02T10:15:46.979Z</time></trkpt><trkpt lat="44.3983925" lon="4.3977122"><ele>93.5</ele><time>2026-05-02T10:15:47.979Z</time></trkpt><trkpt lat="44.3983923" lon="4.3975537"><ele>94.0</ele><time>2026-05-02T10:15:48.979Z</time></trkpt><trkpt lat="44.3983875" lon="4.3974021"><ele>94.0</ele><time>2026-05-02T10:15:49.979Z</time></trkpt><trkpt lat="44.3983803" lon="4.3972559"><ele>94.0</ele><time>2026-05-02T10:15:50.979Z</time></trkpt><trkpt lat="44.3983744" lon="4.3971142"><ele>94.0</ele><time>2026-05-02T10:15:51.98Z</time></trkpt><trkpt lat="44.3983697" lon="4.3969692"><ele>94.0</ele><time>2026-05-02T10:15:52.979Z</time></trkpt><trkpt lat="44.3983673" lon="4.3968259"><ele>94.0</ele><time>2026-05-02T10:15:53.979Z</time></trkpt><trkpt lat="44.398372" lon="4.3966949"><ele>93.2</ele><time>2026-05-02T10:15:54.979Z</time></trkpt><trkpt lat="44.3983831" lon="4.3965869"><ele>92.4</ele><time>2026-05-02T10:15:55.979Z</time></trkpt><trkpt lat="44.398411" lon="4.396451"><ele>91.6</ele><time>2026-05-02T10:15:57.978Z</time></trkpt><trkpt lat="44.3984347" lon="4.3963528"><ele>90.8</ele><time>2026-05-02T10:15:59.98Z</time></trkpt><trkpt lat="44.3984657" lon="4.3962396"><ele>90.0</ele><time>2026-05-02T10:16:01.98Z</time></trkpt><trkpt lat="44.3985253" lon="4.3960983"><ele>89.57142857142857</ele><time>2026-05-02T10:16:03.98Z</time></trkpt><trkpt lat="44.3985746" lon="4.3960348"><ele>89.14285714285715</ele><time>2026-05-02T10:16:04.979Z</time></trkpt><trkpt lat="44.3986301" lon="4.3959773"><ele>88.71428571428572</ele><time>2026-05-02T10:16:05.979Z</time></trkpt><trkpt lat="44.3986876" lon="4.3959199"><ele>88.28571428571428</ele><time>2026-05-02T10:16:06.979Z</time></trkpt><trkpt lat="44.3987271" lon="4.3958505"><ele>87.85714285714286</ele><time>2026-05-02T10:16:07.979Z</time></trkpt><trkpt lat="44.3987451" lon="4.395764"><ele>87.42857142857143</ele><time>2026-05-02T10:16:08.978Z</time></trkpt><trkpt lat="44.3987351" lon="4.3956721"><ele>87.0</ele><time>2026-05-02T10:16:09.979Z</time></trkpt><trkpt lat="44.3986963" lon="4.3955908"><ele>87.0</ele><time>2026-05-02T10:16:10.98Z</time></trkpt><trkpt lat="44.3986459" lon="4.395518"><ele>87.0</ele><time>2026-05-02T10:16:11.98Z</time></trkpt><trkpt lat="44.3985991" lon="4.3954285"><ele>87.0</ele><time>2026-05-02T10:16:12.98Z</time></trkpt><trkpt lat="44.3985813" lon="4.3953083"><ele>87.0</ele><time>2026-05-02T10:16:13.98Z</time></trkpt><trkpt lat="44.3985694" lon="4.3951802"><ele>87.0</ele><time>2026-05-02T10:16:14.979Z</time></trkpt><trkpt lat="44.398569" lon="4.3950465"><ele>87.0</ele><time>2026-05-02T10:16:15.979Z</time></trkpt><trkpt lat="44.3985778" lon="4.3949185"><ele>87.0</ele><time>2026-05-02T10:16:16.979Z</time></trkpt><trkpt lat="44.3985901" lon="4.3947833"><ele>87.0</ele><time>2026-05-02T10:16:17.979Z</time></trkpt><trkpt lat="44.3986027" lon="4.3946437"><ele>87.0</ele><time>2026-05-02T10:16:18.979Z</time></trkpt><trkpt lat="44.3986155" lon="4.3945049"><ele>87.0</ele><time>2026-05-02T10:16:19.979Z</time></trkpt><trkpt lat="44.3986288" lon="4.3943729"><ele>87.0</ele><time>2026-05-02T10:16:20.979Z</time></trkpt><trkpt lat="44.3986427" lon="4.394246"><ele>87.0</ele><time>2026-05-02T10:16:21.979Z</time></trkpt><trkpt lat="44.3986538" lon="4.3941251"><ele>87.0</ele><time>2026-05-02T10:16:22.98Z</time></trkpt><trkpt lat="44.3986655" lon="4.3940073"><ele>87.0</ele><time>2026-05-02T10:16:23.978Z</time></trkpt><trkpt lat="44.3986774" lon="4.3938971"><ele>87.0</ele><time>2026-05-02T10:16:24.98Z</time></trkpt><trkpt lat="44.3986873" lon="4.3938022"><ele>87.0</ele><time>2026-05-02T10:16:25.98Z</time></trkpt><trkpt lat="44.3986998" lon="4.3937101"><ele>87.0</ele><time>2026-05-02T10:16:26.979Z</time></trkpt><trkpt lat="44.3987078" lon="4.3936223"><ele>87.25</ele><time>2026-05-02T10:16:27.979Z</time></trkpt><trkpt lat="44.3987249" lon="4.3934577"><ele>87.5</ele><time>2026-05-02T10:16:29.979Z</time></trkpt><trkpt lat="44.3987393" lon="4.3933057"><ele>87.75</ele><time>2026-05-02T10:16:31.979Z</time></trkpt><trkpt lat="44.3987504" lon="4.3931651"><ele>88.0</ele><time>2026-05-02T10:16:33.98Z</time></trkpt><trkpt lat="44.3987735" lon="4.3929887"><ele>88.16666666666666</ele><time>2026-05-02T10:16:35.98Z</time></trkpt><trkpt lat="44.3987874" lon="4.3928799"><ele>88.33333333333333</ele><time>2026-05-02T10:16:36.979Z</time></trkpt><trkpt lat="44.3988025" lon="4.3927598"><ele>88.5</ele><time>2026-05-02T10:16:37.979Z</time></trkpt><trkpt lat="44.3988147" lon="4.3926304"><ele>88.66666666666667</ele><time>2026-05-02T10:16:38.979Z</time></trkpt><trkpt lat="44.3988294" lon="4.3924978"><ele>88.83333333333334</ele><time>2026-05-02T10:16:39.979Z</time></trkpt><trkpt lat="44.3988431" lon="4.3923679"><ele>89.0</ele><time>2026-05-02T10:16:40.979Z</time></trkpt><trkpt lat="44.3988563" lon="4.3922406"><ele>89.4</ele><time>2026-05-02T10:16:41.979Z</time></trkpt><trkpt lat="44.3988707" lon="4.3921117"><ele>89.80000000000001</ele><time>2026-05-02T10:16:42.979Z</time></trkpt><trkpt lat="44.3988867" lon="4.3919791"><ele>90.19999999999999</ele><time>2026-05-02T10:16:43.98Z</time></trkpt><trkpt lat="44.3989028" lon="4.3918397"><ele>90.6</ele><time>2026-05-02T10:16:44.98Z</time></trkpt><trkpt lat="44.3989194" lon="4.3916922"><ele>91.0</ele><time>2026-05-02T10:16:45.979Z</time></trkpt><trkpt lat="44.3989384" lon="4.3915419"><ele>91.0</ele><time>2026-05-02T10:16:46.979Z</time></trkpt><trkpt lat="44.3989553" lon="4.3913931"><ele>91.0</ele><time>2026-05-02T10:16:47.979Z</time></trkpt><trkpt lat="44.3989713" lon="4.3912434"><ele>91.0</ele><time>2026-05-02T10:16:48.979Z</time></trkpt><trkpt lat="44.3989876" lon="4.3910918"><ele>91.0</ele><time>2026-05-02T10:16:49.98Z</time></trkpt><trkpt lat="44.3990082" lon="4.3909384"><ele>91.0</ele><time>2026-05-02T10:16:50.979Z</time></trkpt><trkpt lat="44.3990334" lon="4.3907793"><ele>91.5</ele><time>2026-05-02T10:16:51.979Z</time></trkpt><trkpt lat="44.3990595" lon="4.3906202"><ele>92.0</ele><time>2026-05-02T10:16:52.979Z</time></trkpt><trkpt lat="44.3990885" lon="4.3904617"><ele>92.5</ele><time>2026-05-02T10:16:53.979Z</time></trkpt><trkpt lat="44.3991227" lon="4.3903062"><ele>93.0</ele><time>2026-05-02T10:16:54.98Z</time></trkpt><trkpt lat="44.3991627" lon="4.390159"><ele>93.25</ele><time>2026-05-02T10:16:55.979Z</time></trkpt><trkpt lat="44.3992035" lon="4.3900148"><ele>93.5</ele><time>2026-05-02T10:16:56.979Z</time></trkpt><trkpt lat="44.3992469" lon="4.3898666"><ele>93.75</ele><time>2026-05-02T10:16:57.979Z</time></trkpt><trkpt lat="44.3992949" lon="4.3897133"><ele>94.0</ele><time>2026-05-02T10:16:58.979Z</time></trkpt><trkpt lat="44.39935" lon="4.3895586"><ele>94.75</ele><time>2026-05-02T10:16:59.979Z</time></trkpt><trkpt lat="44.3994105" lon="4.3894053"><ele>95.5</ele><time>2026-05-02T10:17:00.979Z</time></trkpt><trkpt lat="44.3994757" lon="4.3892572"><ele>96.25</ele><time>2026-05-02T10:17:01.978Z</time></trkpt><trkpt lat="44.3995422" lon="4.3891098"><ele>97.0</ele><time>2026-05-02T10:17:02.98Z</time></trkpt><trkpt lat="44.3996119" lon="4.3889689"><ele>98.0</ele><time>2026-05-02T10:17:03.979Z</time></trkpt><trkpt lat="44.3996842" lon="4.388838"><ele>99.0</ele><time>2026-05-02T10:17:04.979Z</time></trkpt><trkpt lat="44.399757" lon="4.3887161"><ele>100.0</ele><time>2026-05-02T10:17:05.979Z</time></trkpt><trkpt lat="44.3998272" lon="4.3886035"><ele>101.0</ele><time>2026-05-02T10:17:06.98Z</time></trkpt><trkpt lat="44.3998912" lon="4.3885039"><ele>102.0</ele><time>2026-05-02T10:17:07.979Z</time></trkpt><trkpt lat="44.3999481" lon="4.3884161"><ele>102.0</ele><time>2026-05-02T10:17:08.979Z</time></trkpt><trkpt lat="44.399995" lon="4.3883436"><ele>102.0</ele><time>2026-05-02T10:17:09.979Z</time></trkpt><trkpt lat="44.4000643" lon="4.3882568"><ele>102.0</ele><time>2026-05-02T10:17:11.979Z</time></trkpt><trkpt lat="44.400115" lon="4.3882041"><ele>102.0</ele><time>2026-05-02T10:17:13.978Z</time></trkpt><trkpt lat="44.4001985" lon="4.3881171"><ele>102.0</ele><time>2026-05-02T10:17:16.979Z</time></trkpt><trkpt lat="44.4003021" lon="4.3880524"><ele>102.0</ele><time>2026-05-02T10:17:18.978Z</time></trkpt><trkpt lat="44.400371" lon="4.3880297"><ele>102.0</ele><time>2026-05-02T10:17:19.979Z</time></trkpt><trkpt lat="44.4004373" lon="4.3879928"><ele>102.0</ele><time>2026-05-02T10:17:20.979Z</time></trkpt><trkpt lat="44.4004959" lon="4.3879265"><ele>102.0</ele><time>2026-05-02T10:17:21.979Z</time></trkpt><trkpt lat="44.4005484" lon="4.3878464"><ele>102.0</ele><time>2026-05-02T10:17:22.979Z</time></trkpt><trkpt lat="44.4006061" lon="4.3877711"><ele>102.0</ele><time>2026-05-02T10:17:23.979Z</time></trkpt><trkpt lat="44.400681" lon="4.3877064"><ele>102.0</ele><time>2026-05-02T10:17:24.98Z</time></trkpt><trkpt lat="44.4007621" lon="4.3876313"><ele>102.39999999999999</ele><time>2026-05-02T10:17:25.98Z</time></trkpt><trkpt lat="44.4008369" lon="4.3875456"><ele>102.8</ele><time>2026-05-02T10:17:26.979Z</time></trkpt><trkpt lat="44.4009131" lon="4.3874376"><ele>103.2</ele><time>2026-05-02T10:17:27.979Z</time></trkpt><trkpt lat="44.4009892" lon="4.3873164"><ele>103.6</ele><time>2026-05-02T10:17:28.979Z</time></trkpt><trkpt lat="44.4010646" lon="4.3871872"><ele>104.0</ele><time>2026-05-02T10:17:29.978Z</time></trkpt><trkpt lat="44.4011418" lon="4.3870506"><ele>104.0</ele><time>2026-05-02T10:17:30.979Z</time></trkpt><trkpt lat="44.4012231" lon="4.3869085"><ele>104.0</ele><time>2026-05-02T10:17:31.98Z</time></trkpt><trkpt lat="44.4013089" lon="4.3867632"><ele>104.0</ele><time>2026-05-02T10:17:32.979Z</time></trkpt><trkpt lat="44.4013928" lon="4.3866212"><ele>104.0</ele><time>2026-05-02T10:17:33.98Z</time></trkpt><trkpt lat="44.4014785" lon="4.3864845"><ele>103.0</ele><time>2026-05-02T10:17:34.979Z</time></trkpt><trkpt lat="44.4015665" lon="4.3863546"><ele>102.0</ele><time>2026-05-02T10:17:35.979Z</time></trkpt><trkpt lat="44.4016549" lon="4.3862268"><ele>101.0</ele><time>2026-05-02T10:17:36.979Z</time></trkpt><trkpt lat="44.4017434" lon="4.3861013"><ele>100.0</ele><time>2026-05-02T10:17:37.98Z</time></trkpt><trkpt lat="44.4018229" lon="4.3859685"><ele>100.0</ele><time>2026-05-02T10:17:38.979Z</time></trkpt><trkpt lat="44.4018905" lon="4.3858081"><ele>100.0</ele><time>2026-05-02T10:17:39.98Z</time></trkpt><trkpt lat="44.4019442" lon="4.3856272"><ele>100.0</ele><time>2026-05-02T10:17:40.979Z</time></trkpt><trkpt lat="44.4019923" lon="4.3854275"><ele>100.0</ele><time>2026-05-02T10:17:41.979Z</time></trkpt><trkpt lat="44.402039" lon="4.3852206"><ele>98.33333333333334</ele><time>2026-05-02T10:17:42.979Z</time></trkpt><trkpt lat="44.4020925" lon="4.3850153"><ele>96.66666666666667</ele><time>2026-05-02T10:17:43.979Z</time></trkpt><trkpt lat="44.4021594" lon="4.3848224"><ele>95.0</ele><time>2026-05-02T10:17:44.979Z</time></trkpt><trkpt lat="44.4022432" lon="4.3846445"><ele>95.0</ele><time>2026-05-02T10:17:45.979Z</time></trkpt><trkpt lat="44.4023458" lon="4.3844835"><ele>95.0</ele><time>2026-05-02T10:17:46.98Z</time></trkpt><trkpt lat="44.4024613" lon="4.3843385"><ele>95.0</ele><time>2026-05-02T10:17:47.979Z</time></trkpt><trkpt lat="44.4025829" lon="4.3842052"><ele>95.0</ele><time>2026-05-02T10:17:48.979Z</time></trkpt><trkpt lat="44.4027115" lon="4.3840839"><ele>95.0</ele><time>2026-05-02T10:17:49.98Z</time></trkpt><trkpt lat="44.4028416" lon="4.3839732"><ele>95.0</ele><time>2026-05-02T10:17:50.979Z</time></trkpt><trkpt lat="44.4029748" lon="4.3838704"><ele>94.33333333333334</ele><time>2026-05-02T10:17:51.979Z</time></trkpt><trkpt lat="44.4031134" lon="4.3837893"><ele>93.66666666666667</ele><time>2026-05-02T10:17:52.979Z</time></trkpt><trkpt lat="44.4032613" lon="4.3837331"><ele>93.0</ele><time>2026-05-02T10:17:53.979Z</time></trkpt><trkpt lat="44.4034167" lon="4.3837126"><ele>93.0</ele><time>2026-05-02T10:17:54.978Z</time></trkpt><trkpt lat="44.40357" lon="4.3837319"><ele>93.0</ele><time>2026-05-02T10:17:55.979Z</time></trkpt><trkpt lat="44.4037149" lon="4.383791"><ele>93.0</ele><time>2026-05-02T10:17:56.979Z</time></trkpt><trkpt lat="44.4038555" lon="4.3838695"><ele>94.33333333333334</ele><time>2026-05-02T10:17:57.98Z</time></trkpt><trkpt lat="44.4039965" lon="4.3839456"><ele>95.66666666666667</ele><time>2026-05-02T10:17:58.978Z</time></trkpt><trkpt lat="44.4041442" lon="4.384"><ele>97.0</ele><time>2026-05-02T10:17:59.979Z</time></trkpt><trkpt lat="44.4043035" lon="4.3840389"><ele>97.0</ele><time>2026-05-02T10:18:00.979Z</time></trkpt><trkpt lat="44.4044664" lon="4.3840616"><ele>97.0</ele><time>2026-05-02T10:18:01.979Z</time></trkpt><trkpt lat="44.4046334" lon="4.3840737"><ele>97.0</ele><time>2026-05-02T10:18:02.979Z</time></trkpt><trkpt lat="44.404799" lon="4.3840826"><ele>94.0</ele><time>2026-05-02T10:18:03.978Z</time></trkpt><trkpt lat="44.4049584" lon="4.3840887"><ele>91.0</ele><time>2026-05-02T10:18:04.979Z</time></trkpt><trkpt lat="44.4051191" lon="4.3840962"><ele>88.0</ele><time>2026-05-02T10:18:05.979Z</time></trkpt><trkpt lat="44.4052814" lon="4.3841111"><ele>88.0</ele><time>2026-05-02T10:18:06.978Z</time></trkpt><trkpt lat="44.4054388" lon="4.3841372"><ele>88.0</ele><time>2026-05-02T10:18:07.979Z</time></trkpt><trkpt lat="44.4055902" lon="4.3841846"><ele>88.0</ele><time>2026-05-02T10:18:08.98Z</time></trkpt><trkpt lat="44.4057388" lon="4.384248"><ele>88.0</ele><time>2026-05-02T10:18:09.979Z</time></trkpt><trkpt lat="44.4058845" lon="4.3843258"><ele>88.0</ele><time>2026-05-02T10:18:10.979Z</time></trkpt><trkpt lat="44.4060263" lon="4.3844169"><ele>88.0</ele><time>2026-05-02T10:18:11.979Z</time></trkpt><trkpt lat="44.4061614" lon="4.3845162"><ele>88.0</ele><time>2026-05-02T10:18:12.978Z</time></trkpt><trkpt lat="44.4062864" lon="4.3846163"><ele>88.0</ele><time>2026-05-02T10:18:13.979Z</time></trkpt><trkpt lat="44.4064015" lon="4.3847207"><ele>88.0</ele><time>2026-05-02T10:18:14.98Z</time></trkpt><trkpt lat="44.4065063" lon="4.3848348"><ele>88.0</ele><time>2026-05-02T10:18:15.98Z</time></trkpt><trkpt lat="44.4065984" lon="4.3849718"><ele>88.2</ele><time>2026-05-02T10:18:16.98Z</time></trkpt><trkpt lat="44.4066735" lon="4.3851148"><ele>88.4</ele><time>2026-05-02T10:18:17.979Z</time></trkpt><trkpt lat="44.4067324" lon="4.38525"><ele>88.60000000000001</ele><time>2026-05-02T10:18:18.979Z</time></trkpt><trkpt lat="44.4067774" lon="4.3853801"><ele>88.80000000000001</ele><time>2026-05-02T10:18:19.979Z</time></trkpt><trkpt lat="44.4068124" lon="4.3855138"><ele>89.0</ele><time>2026-05-02T10:18:20.979Z</time></trkpt><trkpt lat="44.4068495" lon="4.385654"><ele>89.6</ele><time>2026-05-02T10:18:21.979Z</time></trkpt><trkpt lat="44.4068887" lon="4.3858033"><ele>90.2</ele><time>2026-05-02T10:18:22.979Z</time></trkpt><trkpt lat="44.4069249" lon="4.3859561"><ele>90.8</ele><time>2026-05-02T10:18:23.979Z</time></trkpt><trkpt lat="44.4069623" lon="4.3861032"><ele>91.39999999999999</ele><time>2026-05-02T10:18:24.979Z</time></trkpt><trkpt lat="44.4069973" lon="4.3862366"><ele>92.0</ele><time>2026-05-02T10:18:25.978Z</time></trkpt><trkpt lat="44.4070347" lon="4.3863683"><ele>92.0</ele><time>2026-05-02T10:18:26.979Z</time></trkpt><trkpt lat="44.4070761" lon="4.3864938"><ele>92.0</ele><time>2026-05-02T10:18:27.979Z</time></trkpt><trkpt lat="44.4071202" lon="4.3866128"><ele>92.0</ele><time>2026-05-02T10:18:28.979Z</time></trkpt><trkpt lat="44.407163" lon="4.3867254"><ele>92.0</ele><time>2026-05-02T10:18:29.979Z</time></trkpt><trkpt lat="44.4072031" lon="4.3868208"><ele>92.0</ele><time>2026-05-02T10:18:30.978Z</time></trkpt><trkpt lat="44.407263" lon="4.3869426"><ele>92.0</ele><time>2026-05-02T10:18:32.979Z</time></trkpt><trkpt lat="44.4073087" lon="4.3870252"><ele>92.0</ele><time>2026-05-02T10:18:35.98Z</time></trkpt><trkpt lat="44.4073594" lon="4.3870983"><ele>92.0</ele><time>2026-05-02T10:18:37.979Z</time></trkpt><trkpt lat="44.4074387" lon="4.3872116"><ele>92.0</ele><time>2026-05-02T10:18:39.979Z</time></trkpt><trkpt lat="44.4074781" lon="4.3872904"><ele>92.0</ele><time>2026-05-02T10:18:40.979Z</time></trkpt><trkpt lat="44.4075064" lon="4.3873783"><ele>92.0</ele><time>2026-05-02T10:18:41.979Z</time></trkpt><trkpt lat="44.4075332" lon="4.3874591"><ele>92.75</ele><time>2026-05-02T10:18:42.979Z</time></trkpt><trkpt lat="44.4076141" lon="4.3875541"><ele>93.5</ele><time>2026-05-02T10:18:44.978Z</time></trkpt><trkpt lat="44.4077192" lon="4.3875387"><ele>94.25</ele><time>2026-05-02T10:18:46.979Z</time></trkpt><trkpt lat="44.4077885" lon="4.3874204"><ele>95.0</ele><time>2026-05-02T10:18:48.977Z</time></trkpt><trkpt lat="44.4078218" lon="4.3872396"><ele>94.8</ele><time>2026-05-02T10:18:50.978Z</time></trkpt><trkpt lat="44.4078518" lon="4.3871349"><ele>94.6</ele><time>2026-05-02T10:18:51.978Z</time></trkpt><trkpt lat="44.4078974" lon="4.3870205"><ele>94.4</ele><time>2026-05-02T10:18:52.977Z</time></trkpt><trkpt lat="44.4079554" lon="4.386897"><ele>94.2</ele><time>2026-05-02T10:18:53.978Z</time></trkpt><trkpt lat="44.4080207" lon="4.3867507"><ele>94.0</ele><time>2026-05-02T10:18:54.978Z</time></trkpt><trkpt lat="44.4080924" lon="4.3865975"><ele>94.0</ele><time>2026-05-02T10:18:55.978Z</time></trkpt><trkpt lat="44.4081622" lon="4.3864431"><ele>94.0</ele><time>2026-05-02T10:18:56.979Z</time></trkpt><trkpt lat="44.4082335" lon="4.386281"><ele>94.0</ele><time>2026-05-02T10:18:57.979Z</time></trkpt><trkpt lat="44.4083033" lon="4.3861105"><ele>94.0</ele><time>2026-05-02T10:18:58.978Z</time></trkpt><trkpt lat="44.4083756" lon="4.3859336"><ele>94.0</ele><time>2026-05-02T10:18:59.978Z</time></trkpt><trkpt lat="44.4084473" lon="4.3857514"><ele>94.0</ele><time>2026-05-02T10:19:00.979Z</time></trkpt><trkpt lat="44.4085188" lon="4.3855656"><ele>94.0</ele><time>2026-05-02T10:19:01.978Z</time></trkpt><trkpt lat="44.4085931" lon="4.3853701"><ele>94.0</ele><time>2026-05-02T10:19:02.978Z</time></trkpt><trkpt lat="44.4086692" lon="4.3851582"><ele>94.0</ele><time>2026-05-02T10:19:03.977Z</time></trkpt><trkpt lat="44.4087483" lon="4.3849405"><ele>94.0</ele><time>2026-05-02T10:19:04.978Z</time></trkpt><trkpt lat="44.408834" lon="4.3847121"><ele>94.0</ele><time>2026-05-02T10:19:05.978Z</time></trkpt><trkpt lat="44.4089275" lon="4.3844737"><ele>94.0</ele><time>2026-05-02T10:19:06.978Z</time></trkpt><trkpt lat="44.4090207" lon="4.3842419"><ele>94.0</ele><time>2026-05-02T10:19:07.978Z</time></trkpt><trkpt lat="44.4091103" lon="4.384019"><ele>94.33333333333333</ele><time>2026-05-02T10:19:08.977Z</time></trkpt><trkpt lat="44.4091964" lon="4.3838024"><ele>94.66666666666667</ele><time>2026-05-02T10:19:09.979Z</time></trkpt><trkpt lat="44.4092759" lon="4.383598"><ele>95.0</ele><time>2026-05-02T10:19:10.978Z</time></trkpt><trkpt lat="44.4093473" lon="4.3834142"><ele>95.0</ele><time>2026-05-02T10:19:11.978Z</time></trkpt><trkpt lat="44.4094125" lon="4.3832526"><ele>95.0</ele><time>2026-05-02T10:19:12.978Z</time></trkpt><trkpt lat="44.4094705" lon="4.3831079"><ele>95.0</ele><time>2026-05-02T10:19:13.978Z</time></trkpt><trkpt lat="44.4095408" lon="4.3829875"><ele>95.0</ele><time>2026-05-02T10:19:14.978Z</time></trkpt><trkpt lat="44.4096069" lon="4.3828784"><ele>94.75</ele><time>2026-05-02T10:19:15.978Z</time></trkpt><trkpt lat="44.4096528" lon="4.3827266"><ele>94.5</ele><time>2026-05-02T10:19:16.979Z</time></trkpt><trkpt lat="44.4097052" lon="4.3825384"><ele>94.25</ele><time>2026-05-02T10:19:17.977Z</time></trkpt><trkpt lat="44.4097758" lon="4.3823301"><ele>94.0</ele><time>2026-05-02T10:19:18.979Z</time></trkpt><trkpt lat="44.4098611" lon="4.3821082"><ele>95.66666666666666</ele><time>2026-05-02T10:19:19.978Z</time></trkpt><trkpt lat="44.4099523" lon="4.3818679"><ele>97.33333333333333</ele><time>2026-05-02T10:19:20.978Z</time></trkpt><trkpt lat="44.4100422" lon="4.3816337"><ele>99.0</ele><time>2026-05-02T10:19:21.979Z</time></trkpt><trkpt lat="44.4101369" lon="4.3813922"><ele>99.33333333333334</ele><time>2026-05-02T10:19:22.979Z</time></trkpt><trkpt lat="44.4102351" lon="4.3811437"><ele>99.66666666666667</ele><time>2026-05-02T10:19:23.978Z</time></trkpt><trkpt lat="44.4103362" lon="4.3808878"><ele>100.0</ele><time>2026-05-02T10:19:24.978Z</time></trkpt><trkpt lat="44.410441" lon="4.3806252"><ele>99.33333333333334</ele><time>2026-05-02T10:19:25.979Z</time></trkpt><trkpt lat="44.4105471" lon="4.3803562"><ele>98.66666666666666</ele><time>2026-05-02T10:19:26.979Z</time></trkpt><trkpt lat="44.4106541" lon="4.3800806"><ele>98.0</ele><time>2026-05-02T10:19:27.978Z</time></trkpt><trkpt lat="44.4107641" lon="4.3798009"><ele>98.0</ele><time>2026-05-02T10:19:28.978Z</time></trkpt><trkpt lat="44.4108723" lon="4.3795247"><ele>98.0</ele><time>2026-05-02T10:19:29.979Z</time></trkpt><trkpt lat="44.410978" lon="4.3792587"><ele>98.0</ele><time>2026-05-02T10:19:30.978Z</time></trkpt><trkpt lat="44.4110795" lon="4.3790059"><ele>97.0</ele><time>2026-05-02T10:19:31.978Z</time></trkpt><trkpt lat="44.4111772" lon="4.3787615"><ele>96.0</ele><time>2026-05-02T10:19:32.978Z</time></trkpt><trkpt lat="44.4112682" lon="4.3785303"><ele>95.0</ele><time>2026-05-02T10:19:33.978Z</time></trkpt><trkpt lat="44.4113506" lon="4.3783172"><ele>95.0</ele><time>2026-05-02T10:19:34.979Z</time></trkpt><trkpt lat="44.4114215" lon="4.3781325"><ele>95.0</ele><time>2026-05-02T10:19:35.979Z</time></trkpt><trkpt lat="44.4114799" lon="4.3779778"><ele>95.0</ele><time>2026-05-02T10:19:36.978Z</time></trkpt><trkpt lat="44.4115262" lon="4.377856"><ele>95.0</ele><time>2026-05-02T10:19:37.979Z</time></trkpt><trkpt lat="44.4115652" lon="4.3777531"><ele>95.16666666666667</ele><time>2026-05-02T10:19:38.978Z</time></trkpt><trkpt lat="44.4116104" lon="4.3776658"><ele>95.33333333333334</ele><time>2026-05-02T10:19:39.978Z</time></trkpt><trkpt lat="44.4116657" lon="4.377597"><ele>95.5</ele><time>2026-05-02T10:19:40.978Z</time></trkpt><trkpt lat="44.4117197" lon="4.3775364"><ele>95.66666666666667</ele><time>2026-05-02T10:19:41.978Z</time></trkpt><trkpt lat="44.4117614" lon="4.3774597"><ele>95.83333333333333</ele><time>2026-05-02T10:19:42.978Z</time></trkpt><trkpt lat="44.4117855" lon="4.3773573"><ele>96.0</ele><time>2026-05-02T10:19:43.979Z</time></trkpt><trkpt lat="44.4117993" lon="4.3772353"><ele>96.25</ele><time>2026-05-02T10:19:44.978Z</time></trkpt><trkpt lat="44.411821" lon="4.3770933"><ele>96.5</ele><time>2026-05-02T10:19:45.978Z</time></trkpt><trkpt lat="44.4118661" lon="4.3769441"><ele>96.75</ele><time>2026-05-02T10:19:46.979Z</time></trkpt><trkpt lat="44.4119279" lon="4.37679"><ele>97.0</ele><time>2026-05-02T10:19:47.978Z</time></trkpt><trkpt lat="44.4119927" lon="4.3766265"><ele>97.0</ele><time>2026-05-02T10:19:48.979Z</time></trkpt><trkpt lat="44.4120528" lon="4.3764685"><ele>97.0</ele><time>2026-05-02T10:19:49.977Z</time></trkpt><trkpt lat="44.4121091" lon="4.3763201"><ele>97.0</ele><time>2026-05-02T10:19:50.978Z</time></trkpt><trkpt lat="44.4121668" lon="4.3761728"><ele>97.0</ele><time>2026-05-02T10:19:51.978Z</time></trkpt><trkpt lat="44.4122274" lon="4.3760204"><ele>98.0</ele><time>2026-05-02T10:19:52.978Z</time></trkpt><trkpt lat="44.4122919" lon="4.3758605"><ele>99.0</ele><time>2026-05-02T10:19:53.979Z</time></trkpt><trkpt lat="44.4123591" lon="4.3756909"><ele>100.0</ele><time>2026-05-02T10:19:54.978Z</time></trkpt><trkpt lat="44.4124297" lon="4.3755103"><ele>101.0</ele><time>2026-05-02T10:19:55.978Z</time></trkpt><trkpt lat="44.4125023" lon="4.3753184"><ele>101.0</ele><time>2026-05-02T10:19:56.979Z</time></trkpt><trkpt lat="44.4125796" lon="4.3751211"><ele>101.0</ele><time>2026-05-02T10:19:57.979Z</time></trkpt><trkpt lat="44.4126544" lon="4.3749314"><ele>101.0</ele><time>2026-05-02T10:19:58.979Z</time></trkpt><trkpt lat="44.4127241" lon="4.3747451"><ele>101.0</ele><time>2026-05-02T10:19:59.978Z</time></trkpt><trkpt lat="44.4127935" lon="4.3745622"><ele>101.0</ele><time>2026-05-02T10:20:00.978Z</time></trkpt><trkpt lat="44.4128644" lon="4.3743768"><ele>101.0</ele><time>2026-05-02T10:20:01.978Z</time></trkpt><trkpt lat="44.4129346" lon="4.374193"><ele>101.0</ele><time>2026-05-02T10:20:02.978Z</time></trkpt><trkpt lat="44.4130042" lon="4.3740113"><ele>101.0</ele><time>2026-05-02T10:20:03.979Z</time></trkpt><trkpt lat="44.4130729" lon="4.3738257"><ele>101.0</ele><time>2026-05-02T10:20:04.978Z</time></trkpt><trkpt lat="44.4131453" lon="4.3736351"><ele>101.0</ele><time>2026-05-02T10:20:05.978Z</time></trkpt><trkpt lat="44.4132199" lon="4.3734455"><ele>101.0</ele><time>2026-05-02T10:20:06.978Z</time></trkpt><trkpt lat="44.4132926" lon="4.3732563"><ele>101.0</ele><time>2026-05-02T10:20:07.978Z</time></trkpt><trkpt lat="44.4133663" lon="4.3730604"><ele>101.0</ele><time>2026-05-02T10:20:08.978Z</time></trkpt><trkpt lat="44.4134412" lon="4.3728631"><ele>101.0</ele><time>2026-05-02T10:20:09.978Z</time></trkpt><trkpt lat="44.413513" lon="4.3726744"><ele>101.0</ele><time>2026-05-02T10:20:10.978Z</time></trkpt><trkpt lat="44.4135807" lon="4.3724936"><ele>101.0</ele><time>2026-05-02T10:20:11.977Z</time></trkpt><trkpt lat="44.4136475" lon="4.3723209"><ele>101.0</ele><time>2026-05-02T10:20:12.978Z</time></trkpt><trkpt lat="44.4137088" lon="4.3721584"><ele>101.0</ele><time>2026-05-02T10:20:13.978Z</time></trkpt><trkpt lat="44.4137663" lon="4.3720069"><ele>101.0</ele><time>2026-05-02T10:20:14.977Z</time></trkpt><trkpt lat="44.4138231" lon="4.3718659"><ele>101.0</ele><time>2026-05-02T10:20:15.978Z</time></trkpt><trkpt lat="44.4138872" lon="4.3717365"><ele>101.0</ele><time>2026-05-02T10:20:16.978Z</time></trkpt><trkpt lat="44.4139515" lon="4.3716019"><ele>101.25</ele><time>2026-05-02T10:20:17.978Z</time></trkpt><trkpt lat="44.4140107" lon="4.3714423"><ele>101.5</ele><time>2026-05-02T10:20:18.979Z</time></trkpt><trkpt lat="44.4140709" lon="4.3712576"><ele>101.75</ele><time>2026-05-02T10:20:19.978Z</time></trkpt><trkpt lat="44.4141397" lon="4.371063"><ele>102.0</ele><time>2026-05-02T10:20:20.978Z</time></trkpt><trkpt lat="44.4142172" lon="4.3708583"><ele>102.66666666666666</ele><time>2026-05-02T10:20:21.978Z</time></trkpt><trkpt lat="44.4142973" lon="4.3706487"><ele>103.33333333333333</ele><time>2026-05-02T10:20:22.978Z</time></trkpt><trkpt lat="44.4143765" lon="4.3704392"><ele>104.0</ele><time>2026-05-02T10:20:23.979Z</time></trkpt><trkpt lat="44.4144573" lon="4.3702254"><ele>104.33333333333333</ele><time>2026-05-02T10:20:24.978Z</time></trkpt><trkpt lat="44.4145372" lon="4.3700178"><ele>104.66666666666666</ele><time>2026-05-02T10:20:25.978Z</time></trkpt><trkpt lat="44.4146173" lon="4.3698203"><ele>105.0</ele><time>2026-05-02T10:20:26.978Z</time></trkpt><trkpt lat="44.4147028" lon="4.3696012"><ele>105.0</ele><time>2026-05-02T10:20:27.977Z</time></trkpt><trkpt lat="44.4147944" lon="4.3693678"><ele>105.0</ele><time>2026-05-02T10:20:28.979Z</time></trkpt><trkpt lat="44.4148879" lon="4.369134"><ele>105.0</ele><time>2026-05-02T10:20:29.978Z</time></trkpt><trkpt lat="44.4149771" lon="4.368909"><ele>105.33333333333334</ele><time>2026-05-02T10:20:30.978Z</time></trkpt><trkpt lat="44.4150604" lon="4.3686906"><ele>105.66666666666667</ele><time>2026-05-02T10:20:31.978Z</time></trkpt><trkpt lat="44.4151387" lon="4.3684871"><ele>106.0</ele><time>2026-05-02T10:20:32.977Z</time></trkpt><trkpt lat="44.415213" lon="4.3682969"><ele>106.0</ele><time>2026-05-02T10:20:33.978Z</time></trkpt><trkpt lat="44.4152832" lon="4.3681181"><ele>106.0</ele><time>2026-05-02T10:20:34.978Z</time></trkpt><trkpt lat="44.4153486" lon="4.3679493"><ele>106.0</ele><time>2026-05-02T10:20:35.978Z</time></trkpt><trkpt lat="44.4154134" lon="4.3677819"><ele>106.0</ele><time>2026-05-02T10:20:36.978Z</time></trkpt><trkpt lat="44.4154817" lon="4.3676094"><ele>106.5</ele><time>2026-05-02T10:20:37.978Z</time></trkpt><trkpt lat="44.4155471" lon="4.36744"><ele>107.0</ele><time>2026-05-02T10:20:38.977Z</time></trkpt><trkpt lat="44.4156109" lon="4.3672759"><ele>107.5</ele><time>2026-05-02T10:20:39.979Z</time></trkpt><trkpt lat="44.4156744" lon="4.3671121"><ele>108.0</ele><time>2026-05-02T10:20:40.978Z</time></trkpt><trkpt lat="44.4157395" lon="4.3669436"><ele>108.0</ele><time>2026-05-02T10:20:41.978Z</time></trkpt><trkpt lat="44.4158064" lon="4.3667699"><ele>108.0</ele><time>2026-05-02T10:20:42.978Z</time></trkpt><trkpt lat="44.4158762" lon="4.3665929"><ele>108.0</ele><time>2026-05-02T10:20:43.978Z</time></trkpt><trkpt lat="44.4159478" lon="4.366414"><ele>108.0</ele><time>2026-05-02T10:20:44.978Z</time></trkpt><trkpt lat="44.4160204" lon="4.3662297"><ele>108.75</ele><time>2026-05-02T10:20:45.978Z</time></trkpt><trkpt lat="44.416095" lon="4.366039"><ele>109.5</ele><time>2026-05-02T10:20:46.978Z</time></trkpt><trkpt lat="44.4161659" lon="4.3658531"><ele>110.25</ele><time>2026-05-02T10:20:47.979Z</time></trkpt><trkpt lat="44.4162333" lon="4.3656762"><ele>111.0</ele><time>2026-05-02T10:20:48.978Z</time></trkpt><trkpt lat="44.4162994" lon="4.3655072"><ele>111.75</ele><time>2026-05-02T10:20:49.978Z</time></trkpt><trkpt lat="44.416365" lon="4.3653369"><ele>112.5</ele><time>2026-05-02T10:20:50.979Z</time></trkpt><trkpt lat="44.4164323" lon="4.3651677"><ele>113.25</ele><time>2026-05-02T10:20:51.979Z</time></trkpt><trkpt lat="44.4164984" lon="4.3649989"><ele>114.0</ele><time>2026-05-02T10:20:52.978Z</time></trkpt><trkpt lat="44.4165643" lon="4.3648325"><ele>114.0</ele><time>2026-05-02T10:20:53.979Z</time></trkpt><trkpt lat="44.4166282" lon="4.3646658"><ele>114.0</ele><time>2026-05-02T10:20:54.978Z</time></trkpt><trkpt lat="44.4166898" lon="4.3645089"><ele>114.0</ele><time>2026-05-02T10:20:55.978Z</time></trkpt><trkpt lat="44.4167478" lon="4.3643624"><ele>114.0</ele><time>2026-05-02T10:20:56.977Z</time></trkpt><trkpt lat="44.4168012" lon="4.3642264"><ele>114.0</ele><time>2026-05-02T10:20:57.979Z</time></trkpt><trkpt lat="44.4168521" lon="4.3641066"><ele>114.0</ele><time>2026-05-02T10:20:58.978Z</time></trkpt><trkpt lat="44.4169085" lon="4.3640063"><ele>114.0</ele><time>2026-05-02T10:20:59.979Z</time></trkpt><trkpt lat="44.4169648" lon="4.3639134"><ele>114.0</ele><time>2026-05-02T10:21:00.978Z</time></trkpt><trkpt lat="44.417015" lon="4.3638097"><ele>114.0</ele><time>2026-05-02T10:21:01.978Z</time></trkpt><trkpt lat="44.417056" lon="4.3636807"><ele>114.0</ele><time>2026-05-02T10:21:02.977Z</time></trkpt><trkpt lat="44.4170931" lon="4.3635274"><ele>114.0</ele><time>2026-05-02T10:21:03.978Z</time></trkpt><trkpt lat="44.4171424" lon="4.3633577"><ele>114.0</ele><time>2026-05-02T10:21:04.978Z</time></trkpt><trkpt lat="44.4172117" lon="4.3631878"><ele>114.0</ele><time>2026-05-02T10:21:05.978Z</time></trkpt><trkpt lat="44.4172806" lon="4.3630133"><ele>114.0</ele><time>2026-05-02T10:21:06.978Z</time></trkpt><trkpt lat="44.417347" lon="4.3628438"><ele>114.0</ele><time>2026-05-02T10:21:07.978Z</time></trkpt><trkpt lat="44.4174113" lon="4.3626768"><ele>114.0</ele><time>2026-05-02T10:21:08.979Z</time></trkpt><trkpt lat="44.4174737" lon="4.3625206"><ele>114.0</ele><time>2026-05-02T10:21:09.978Z</time></trkpt><trkpt lat="44.4175334" lon="4.362375"><ele>114.0</ele><time>2026-05-02T10:21:10.978Z</time></trkpt><trkpt lat="44.4175886" lon="4.3622345"><ele>114.0</ele><time>2026-05-02T10:21:11.978Z</time></trkpt><trkpt lat="44.4176421" lon="4.3620989"><ele>114.0</ele><time>2026-05-02T10:21:12.978Z</time></trkpt><trkpt lat="44.4176951" lon="4.3619681"><ele>114.0</ele><time>2026-05-02T10:21:13.978Z</time></trkpt><trkpt lat="44.4177456" lon="4.3618438"><ele>114.0</ele><time>2026-05-02T10:21:14.978Z</time></trkpt><trkpt lat="44.4177945" lon="4.3617252"><ele>114.2</ele><time>2026-05-02T10:21:15.978Z</time></trkpt><trkpt lat="44.4178415" lon="4.3616081"><ele>114.4</ele><time>2026-05-02T10:21:16.979Z</time></trkpt><trkpt lat="44.4178863" lon="4.361485"><ele>114.6</ele><time>2026-05-02T10:21:17.979Z</time></trkpt><trkpt lat="44.41793" lon="4.3613581"><ele>114.8</ele><time>2026-05-02T10:21:18.978Z</time></trkpt><trkpt lat="44.4179707" lon="4.361232"><ele>115.0</ele><time>2026-05-02T10:21:19.978Z</time></trkpt><trkpt lat="44.418007" lon="4.3611193"><ele>115.42857142857142</ele><time>2026-05-02T10:21:20.978Z</time></trkpt><trkpt lat="44.4180379" lon="4.3610184"><ele>115.85714285714286</ele><time>2026-05-02T10:21:21.978Z</time></trkpt><trkpt lat="44.418064" lon="4.3609191"><ele>116.28571428571428</ele><time>2026-05-02T10:21:22.979Z</time></trkpt><trkpt lat="44.4180879" lon="4.3608229"><ele>116.71428571428571</ele><time>2026-05-02T10:21:23.978Z</time></trkpt><trkpt lat="44.4181094" lon="4.3607257"><ele>117.14285714285714</ele><time>2026-05-02T10:21:24.978Z</time></trkpt><trkpt lat="44.4181298" lon="4.3606315"><ele>117.57142857142857</ele><time>2026-05-02T10:21:25.979Z</time></trkpt><trkpt lat="44.4181461" lon="4.3605426"><ele>118.0</ele><time>2026-05-02T10:21:26.978Z</time></trkpt><trkpt lat="44.4181708" lon="4.3603935"><ele>118.4</ele><time>2026-05-02T10:21:28.979Z</time></trkpt><trkpt lat="44.4181878" lon="4.3602483"><ele>118.80000000000001</ele><time>2026-05-02T10:21:30.979Z</time></trkpt><trkpt lat="44.4182094" lon="4.360085"><ele>119.2</ele><time>2026-05-02T10:21:32.979Z</time></trkpt><trkpt lat="44.418219" lon="4.3599899"><ele>119.6</ele><time>2026-05-02T10:21:33.978Z</time></trkpt><trkpt lat="44.4182288" lon="4.3598809"><ele>120.0</ele><time>2026-05-02T10:21:34.978Z</time></trkpt><trkpt lat="44.4182384" lon="4.3597585"><ele>120.2</ele><time>2026-05-02T10:21:35.978Z</time></trkpt><trkpt lat="44.4182506" lon="4.3596287"><ele>120.4</ele><time>2026-05-02T10:21:36.978Z</time></trkpt><trkpt lat="44.4182632" lon="4.3595"><ele>120.6</ele><time>2026-05-02T10:21:37.977Z</time></trkpt><trkpt lat="44.4182763" lon="4.3593699"><ele>120.8</ele><time>2026-05-02T10:21:38.979Z</time></trkpt><trkpt lat="44.4182898" lon="4.3592269"><ele>121.0</ele><time>2026-05-02T10:21:39.978Z</time></trkpt><trkpt lat="44.4183055" lon="4.3590769"><ele>121.0</ele><time>2026-05-02T10:21:40.978Z</time></trkpt><trkpt lat="44.4183208" lon="4.3589178"><ele>121.0</ele><time>2026-05-02T10:21:41.979Z</time></trkpt><trkpt lat="44.4183339" lon="4.3587665"><ele>121.0</ele><time>2026-05-02T10:21:42.979Z</time></trkpt><trkpt lat="44.4183445" lon="4.3586421"><ele>121.0</ele><time>2026-05-02T10:21:43.979Z</time></trkpt><trkpt lat="44.4183538" lon="4.3585325"><ele>121.0</ele><time>2026-05-02T10:21:44.977Z</time></trkpt><trkpt lat="44.4183638" lon="4.3584362"><ele>121.16666666666667</ele><time>2026-05-02T10:21:45.979Z</time></trkpt><trkpt lat="44.4183802" lon="4.3582786"><ele>121.33333333333334</ele><time>2026-05-02T10:21:47.979Z</time></trkpt><trkpt lat="44.4183963" lon="4.3581203"><ele>121.5</ele><time>2026-05-02T10:21:49.977Z</time></trkpt><trkpt lat="44.418408" lon="4.3580313"><ele>121.66666666666666</ele><time>2026-05-02T10:21:50.979Z</time></trkpt><trkpt lat="44.4184201" lon="4.3579324"><ele>121.83333333333333</ele><time>2026-05-02T10:21:51.977Z</time></trkpt><trkpt lat="44.41843" lon="4.357822"><ele>122.0</ele><time>2026-05-02T10:21:52.978Z</time></trkpt><trkpt lat="44.4184424" lon="4.3577094"><ele>122.0</ele><time>2026-05-02T10:21:53.978Z</time></trkpt><trkpt lat="44.4184508" lon="4.3575908"><ele>121.99999999999999</ele><time>2026-05-02T10:21:54.978Z</time></trkpt><trkpt lat="44.4184594" lon="4.3574604"><ele>121.99999999999999</ele><time>2026-05-02T10:21:55.978Z</time></trkpt><trkpt lat="44.418472" lon="4.3573132"><ele>122.0</ele><time>2026-05-02T10:21:56.979Z</time></trkpt><trkpt lat="44.4184887" lon="4.3571609"><ele>122.0</ele><time>2026-05-02T10:21:57.978Z</time></trkpt><trkpt lat="44.4185062" lon="4.3570043"><ele>121.75</ele><time>2026-05-02T10:21:58.978Z</time></trkpt><trkpt lat="44.4185231" lon="4.3568429"><ele>121.5</ele><time>2026-05-02T10:21:59.978Z</time></trkpt><trkpt lat="44.4185399" lon="4.3566743"><ele>121.25</ele><time>2026-05-02T10:22:00.977Z</time></trkpt><trkpt lat="44.4185553" lon="4.3565031"><ele>121.0</ele><time>2026-05-02T10:22:01.978Z</time></trkpt><trkpt lat="44.4185722" lon="4.3563392"><ele>121.0</ele><time>2026-05-02T10:22:02.978Z</time></trkpt><trkpt lat="44.4185886" lon="4.3561773"><ele>121.0</ele><time>2026-05-02T10:22:03.978Z</time></trkpt><trkpt lat="44.4186042" lon="4.3560173"><ele>121.0</ele><time>2026-05-02T10:22:04.978Z</time></trkpt><trkpt lat="44.4186208" lon="4.3558616"><ele>121.0</ele><time>2026-05-02T10:22:05.978Z</time></trkpt><trkpt lat="44.4186352" lon="4.3557018"><ele>121.0</ele><time>2026-05-02T10:22:06.979Z</time></trkpt><trkpt lat="44.4186504" lon="4.355542"><ele>121.0</ele><time>2026-05-02T10:22:07.979Z</time></trkpt><trkpt lat="44.4186665" lon="4.3553773"><ele>121.0</ele><time>2026-05-02T10:22:08.977Z</time></trkpt><trkpt lat="44.4186835" lon="4.3552101"><ele>121.0</ele><time>2026-05-02T10:22:09.978Z</time></trkpt><trkpt lat="44.4187004" lon="4.3550408"><ele>121.25</ele><time>2026-05-02T10:22:10.978Z</time></trkpt><trkpt lat="44.4187178" lon="4.3548675"><ele>121.5</ele><time>2026-05-02T10:22:11.979Z</time></trkpt><trkpt lat="44.4187373" lon="4.3546888"><ele>121.75</ele><time>2026-05-02T10:22:12.978Z</time></trkpt><trkpt lat="44.4187558" lon="4.3545125"><ele>122.0</ele><time>2026-05-02T10:22:13.978Z</time></trkpt><trkpt lat="44.4187731" lon="4.3543398"><ele>121.75</ele><time>2026-05-02T10:22:14.978Z</time></trkpt><trkpt lat="44.4187857" lon="4.3541707"><ele>121.5</ele><time>2026-05-02T10:22:15.978Z</time></trkpt><trkpt lat="44.4188008" lon="4.354008"><ele>121.25</ele><time>2026-05-02T10:22:16.979Z</time></trkpt><trkpt lat="44.4188181" lon="4.353846"><ele>121.0</ele><time>2026-05-02T10:22:17.977Z</time></trkpt><trkpt lat="44.4188369" lon="4.3536724"><ele>121.0</ele><time>2026-05-02T10:22:18.978Z</time></trkpt><trkpt lat="44.4188554" lon="4.3534906"><ele>121.0</ele><time>2026-05-02T10:22:19.978Z</time></trkpt><trkpt lat="44.4188742" lon="4.3532946"><ele>121.0</ele><time>2026-05-02T10:22:20.978Z</time></trkpt><trkpt lat="44.4188917" lon="4.3530961"><ele>121.0</ele><time>2026-05-02T10:22:21.977Z</time></trkpt><trkpt lat="44.4189084" lon="4.3529038"><ele>121.25</ele><time>2026-05-02T10:22:22.978Z</time></trkpt><trkpt lat="44.4189314" lon="4.35272"><ele>121.5</ele><time>2026-05-02T10:22:23.979Z</time></trkpt><trkpt lat="44.4189634" lon="4.3525426"><ele>121.75</ele><time>2026-05-02T10:22:24.979Z</time></trkpt><trkpt lat="44.4190158" lon="4.3523787"><ele>122.0</ele><time>2026-05-02T10:22:25.979Z</time></trkpt><trkpt lat="44.4190948" lon="4.3522381"><ele>120.5</ele><time>2026-05-02T10:22:26.978Z</time></trkpt><trkpt lat="44.419201" lon="4.3521227"><ele>119.0</ele><time>2026-05-02T10:22:27.978Z</time></trkpt><trkpt lat="44.419319" lon="4.3520352"><ele>117.5</ele><time>2026-05-02T10:22:28.978Z</time></trkpt><trkpt lat="44.4194533" lon="4.3519926"><ele>116.0</ele><time>2026-05-02T10:22:29.979Z</time></trkpt><trkpt lat="44.4195943" lon="4.3519955"><ele>113.66666666666666</ele><time>2026-05-02T10:22:30.979Z</time></trkpt><trkpt lat="44.4197377" lon="4.3520455"><ele>111.33333333333334</ele><time>2026-05-02T10:22:31.978Z</time></trkpt><trkpt lat="44.4198824" lon="4.352113"><ele>109.0</ele><time>2026-05-02T10:22:32.978Z</time></trkpt><trkpt lat="44.4200322" lon="4.3521849"><ele>109.33333333333334</ele><time>2026-05-02T10:22:33.977Z</time></trkpt><trkpt lat="44.4201842" lon="4.3522589"><ele>109.66666666666666</ele><time>2026-05-02T10:22:34.978Z</time></trkpt><trkpt lat="44.4203377" lon="4.3523354"><ele>110.0</ele><time>2026-05-02T10:22:35.978Z</time></trkpt><trkpt lat="44.4204845" lon="4.3524088"><ele>110.0</ele><time>2026-05-02T10:22:36.978Z</time></trkpt><trkpt lat="44.4206279" lon="4.3524803"><ele>110.0</ele><time>2026-05-02T10:22:37.978Z</time></trkpt><trkpt lat="44.4207661" lon="4.3525516"><ele>110.0</ele><time>2026-05-02T10:22:38.977Z</time></trkpt><trkpt lat="44.4209006" lon="4.3526189"><ele>110.0</ele><time>2026-05-02T10:22:39.979Z</time></trkpt><trkpt lat="44.421037" lon="4.3526804"><ele>110.0</ele><time>2026-05-02T10:22:40.978Z</time></trkpt><trkpt lat="44.4211828" lon="4.3527491"><ele>110.0</ele><time>2026-05-02T10:22:41.978Z</time></trkpt><trkpt lat="44.4213331" lon="4.3528252"><ele>110.0</ele><time>2026-05-02T10:22:42.978Z</time></trkpt><trkpt lat="44.4214912" lon="4.3529058"><ele>108.0</ele><time>2026-05-02T10:22:43.977Z</time></trkpt><trkpt lat="44.4216559" lon="4.3529968"><ele>106.0</ele><time>2026-05-02T10:22:44.978Z</time></trkpt><trkpt lat="44.4218262" lon="4.3531003"><ele>104.0</ele><time>2026-05-02T10:22:45.978Z</time></trkpt><trkpt lat="44.4220012" lon="4.3532105"><ele>105.33333333333333</ele><time>2026-05-02T10:22:46.979Z</time></trkpt><trkpt lat="44.4221818" lon="4.3533263"><ele>106.66666666666666</ele><time>2026-05-02T10:22:47.979Z</time></trkpt><trkpt lat="44.4223635" lon="4.3534464"><ele>108.0</ele><time>2026-05-02T10:22:48.978Z</time></trkpt><trkpt lat="44.4225411" lon="4.3535627"><ele>108.0</ele><time>2026-05-02T10:22:49.978Z</time></trkpt><trkpt lat="44.422713" lon="4.3536783"><ele>108.0</ele><time>2026-05-02T10:22:50.978Z</time></trkpt><trkpt lat="44.4228816" lon="4.3537917"><ele>108.0</ele><time>2026-05-02T10:22:51.979Z</time></trkpt><trkpt lat="44.4230486" lon="4.3539055"><ele>110.0</ele><time>2026-05-02T10:22:52.978Z</time></trkpt><trkpt lat="44.4232118" lon="4.3540146"><ele>112.0</ele><time>2026-05-02T10:22:53.978Z</time></trkpt><trkpt lat="44.4233742" lon="4.3541213"><ele>114.0</ele><time>2026-05-02T10:22:54.978Z</time></trkpt><trkpt lat="44.4235345" lon="4.3542251"><ele>114.0</ele><time>2026-05-02T10:22:55.978Z</time></trkpt><trkpt lat="44.4236905" lon="4.3543262"><ele>114.0</ele><time>2026-05-02T10:22:56.977Z</time></trkpt><trkpt lat="44.4238432" lon="4.3544251"><ele>114.0</ele><time>2026-05-02T10:22:57.978Z</time></trkpt><trkpt lat="44.4239922" lon="4.3545234"><ele>117.33333333333334</ele><time>2026-05-02T10:22:58.978Z</time></trkpt><trkpt lat="44.4241396" lon="4.3546229"><ele>120.66666666666667</ele><time>2026-05-02T10:22:59.978Z</time></trkpt><trkpt lat="44.4242852" lon="4.3547177"><ele>124.0</ele><time>2026-05-02T10:23:00.978Z</time></trkpt><trkpt lat="44.4245647" lon="4.3549101"><ele>118.25</ele><time>2026-05-02T10:23:02.979Z</time></trkpt><trkpt lat="44.4246946" lon="4.3550141"><ele>112.5</ele><time>2026-05-02T10:23:03.979Z</time></trkpt><trkpt lat="44.4248175" lon="4.3551194"><ele>106.75</ele><time>2026-05-02T10:23:04.978Z</time></trkpt><trkpt lat="44.4249361" lon="4.3552248"><ele>101.0</ele><time>2026-05-02T10:23:05.978Z</time></trkpt><trkpt lat="44.4250473" lon="4.3553217"><ele>101.0</ele><time>2026-05-02T10:23:06.977Z</time></trkpt><trkpt lat="44.4251564" lon="4.3554122"><ele>101.0</ele><time>2026-05-02T10:23:07.978Z</time></trkpt><trkpt lat="44.4252637" lon="4.3554994"><ele>101.0</ele><time>2026-05-02T10:23:08.978Z</time></trkpt><trkpt lat="44.4253766" lon="4.3555847"><ele>101.0</ele><time>2026-05-02T10:23:09.979Z</time></trkpt><trkpt lat="44.4254896" lon="4.3556731"><ele>103.75</ele><time>2026-05-02T10:23:10.978Z</time></trkpt><trkpt lat="44.4255985" lon="4.3557592"><ele>106.5</ele><time>2026-05-02T10:23:11.978Z</time></trkpt><trkpt lat="44.4257095" lon="4.3558383"><ele>109.25</ele><time>2026-05-02T10:23:12.979Z</time></trkpt><trkpt lat="44.4258223" lon="4.3559071"><ele>112.0</ele><time>2026-05-02T10:23:13.978Z</time></trkpt><trkpt lat="44.4259414" lon="4.3559705"><ele>112.0</ele><time>2026-05-02T10:23:14.978Z</time></trkpt><trkpt lat="44.4260676" lon="4.3560395"><ele>112.0</ele><time>2026-05-02T10:23:15.979Z</time></trkpt><trkpt lat="44.426194" lon="4.3561258"><ele>112.0</ele><time>2026-05-02T10:23:16.977Z</time></trkpt><trkpt lat="44.4263169" lon="4.3562343"><ele>112.0</ele><time>2026-05-02T10:23:17.978Z</time></trkpt><trkpt lat="44.4264348" lon="4.356368"><ele>116.0</ele><time>2026-05-02T10:23:18.978Z</time></trkpt><trkpt lat="44.4265447" lon="4.3565247"><ele>120.0</ele><time>2026-05-02T10:23:19.977Z</time></trkpt><trkpt lat="44.4266482" lon="4.3566914"><ele>124.0</ele><time>2026-05-02T10:23:20.978Z</time></trkpt><trkpt lat="44.4267543" lon="4.3568557"><ele>124.0</ele><time>2026-05-02T10:23:21.978Z</time></trkpt><trkpt lat="44.426872" lon="4.3570101"><ele>124.0</ele><time>2026-05-02T10:23:22.977Z</time></trkpt><trkpt lat="44.4269989" lon="4.3571517"><ele>124.0</ele><time>2026-05-02T10:23:23.978Z</time></trkpt><trkpt lat="44.427136" lon="4.3572743"><ele>123.0</ele><time>2026-05-02T10:23:24.978Z</time></trkpt><trkpt lat="44.4272748" lon="4.357386"><ele>122.0</ele><time>2026-05-02T10:23:25.979Z</time></trkpt><trkpt lat="44.4274058" lon="4.357495"><ele>121.0</ele><time>2026-05-02T10:23:26.977Z</time></trkpt><trkpt lat="44.4275334" lon="4.3575955"><ele>121.0</ele><time>2026-05-02T10:23:27.979Z</time></trkpt><trkpt lat="44.4276633" lon="4.357672"><ele>121.0</ele><time>2026-05-02T10:23:28.978Z</time></trkpt><trkpt lat="44.4277997" lon="4.3577198"><ele>121.0</ele><time>2026-05-02T10:23:29.978Z</time></trkpt><trkpt lat="44.4279386" lon="4.3577633"><ele>121.0</ele><time>2026-05-02T10:23:30.978Z</time></trkpt><trkpt lat="44.4280733" lon="4.3578066"><ele>116.0</ele><time>2026-05-02T10:23:31.978Z</time></trkpt><trkpt lat="44.4282062" lon="4.3578458"><ele>111.0</ele><time>2026-05-02T10:23:32.978Z</time></trkpt><trkpt lat="44.4283422" lon="4.3578834"><ele>106.0</ele><time>2026-05-02T10:23:33.978Z</time></trkpt><trkpt lat="44.4284776" lon="4.3579251"><ele>101.0</ele><time>2026-05-02T10:23:34.978Z</time></trkpt><trkpt lat="44.4286083" lon="4.3579714"><ele>101.0</ele><time>2026-05-02T10:23:35.978Z</time></trkpt><trkpt lat="44.4287369" lon="4.3580104"><ele>101.0</ele><time>2026-05-02T10:23:36.977Z</time></trkpt><trkpt lat="44.4288622" lon="4.3580356"><ele>101.0</ele><time>2026-05-02T10:23:37.978Z</time></trkpt><trkpt lat="44.4289877" lon="4.3580433"><ele>101.0</ele><time>2026-05-02T10:23:38.978Z</time></trkpt><trkpt lat="44.4291139" lon="4.3580348"><ele>100.25</ele><time>2026-05-02T10:23:39.978Z</time></trkpt><trkpt lat="44.42924" lon="4.3580216"><ele>99.5</ele><time>2026-05-02T10:23:40.978Z</time></trkpt><trkpt lat="44.4293659" lon="4.3580308"><ele>98.75</ele><time>2026-05-02T10:23:41.977Z</time></trkpt><trkpt lat="44.4294914" lon="4.3580347"><ele>98.0</ele><time>2026-05-02T10:23:42.979Z</time></trkpt><trkpt lat="44.4296143" lon="4.3580061"><ele>99.25</ele><time>2026-05-02T10:23:43.978Z</time></trkpt><trkpt lat="44.4297353" lon="4.3579393"><ele>100.5</ele><time>2026-05-02T10:23:44.978Z</time></trkpt><trkpt lat="44.4298572" lon="4.3578495"><ele>101.75</ele><time>2026-05-02T10:23:45.978Z</time></trkpt><trkpt lat="44.4299856" lon="4.3577581"><ele>103.0</ele><time>2026-05-02T10:23:46.978Z</time></trkpt><trkpt lat="44.4301216" lon="4.3576678"><ele>103.0</ele><time>2026-05-02T10:23:47.978Z</time></trkpt><trkpt lat="44.4302636" lon="4.3575733"><ele>103.0</ele><time>2026-05-02T10:23:48.978Z</time></trkpt><trkpt lat="44.4304069" lon="4.3574752"><ele>103.0</ele><time>2026-05-02T10:23:49.977Z</time></trkpt><trkpt lat="44.4305486" lon="4.357377"><ele>100.66666666666667</ele><time>2026-05-02T10:23:50.979Z</time></trkpt><trkpt lat="44.4306928" lon="4.357274"><ele>98.33333333333334</ele><time>2026-05-02T10:23:51.978Z</time></trkpt><trkpt lat="44.4308373" lon="4.3571625"><ele>96.0</ele><time>2026-05-02T10:23:52.978Z</time></trkpt><trkpt lat="44.4309776" lon="4.3570427"><ele>96.0</ele><time>2026-05-02T10:23:53.978Z</time></trkpt><trkpt lat="44.431115" lon="4.35692"><ele>96.0</ele><time>2026-05-02T10:23:54.978Z</time></trkpt><trkpt lat="44.4312443" lon="4.3567932"><ele>96.0</ele><time>2026-05-02T10:23:55.977Z</time></trkpt><trkpt lat="44.4313615" lon="4.3566597"><ele>97.5</ele><time>2026-05-02T10:23:56.978Z</time></trkpt><trkpt lat="44.4314688" lon="4.3565231"><ele>99.0</ele><time>2026-05-02T10:23:57.977Z</time></trkpt><trkpt lat="44.4315694" lon="4.3563825"><ele>100.5</ele><time>2026-05-02T10:23:58.977Z</time></trkpt><trkpt lat="44.4316593" lon="4.3562444"><ele>102.0</ele><time>2026-05-02T10:23:59.977Z</time></trkpt><trkpt lat="44.4317483" lon="4.3561097"><ele>102.0</ele><time>2026-05-02T10:24:00.976Z</time></trkpt><trkpt lat="44.4318358" lon="4.3559784"><ele>102.0</ele><time>2026-05-02T10:24:01.977Z</time></trkpt><trkpt lat="44.431923" lon="4.3558491"><ele>102.0</ele><time>2026-05-02T10:24:02.977Z</time></trkpt><trkpt lat="44.4320118" lon="4.355715"><ele>102.0</ele><time>2026-05-02T10:24:03.977Z</time></trkpt><trkpt lat="44.4320995" lon="4.3555821"><ele>104.75</ele><time>2026-05-02T10:24:04.977Z</time></trkpt><trkpt lat="44.4321827" lon="4.3554507"><ele>107.5</ele><time>2026-05-02T10:24:05.978Z</time></trkpt><trkpt lat="44.4322632" lon="4.3553202"><ele>110.25</ele><time>2026-05-02T10:24:06.977Z</time></trkpt><trkpt lat="44.4323396" lon="4.3551907"><ele>113.0</ele><time>2026-05-02T10:24:07.977Z</time></trkpt><trkpt lat="44.4324092" lon="4.3550653"><ele>113.0</ele><time>2026-05-02T10:24:08.977Z</time></trkpt><trkpt lat="44.4324696" lon="4.3549525"><ele>113.00000000000001</ele><time>2026-05-02T10:24:09.977Z</time></trkpt><trkpt lat="44.4325241" lon="4.3548426"><ele>113.00000000000001</ele><time>2026-05-02T10:24:10.976Z</time></trkpt><trkpt lat="44.432575" lon="4.3547349"><ele>113.0</ele><time>2026-05-02T10:24:11.977Z</time></trkpt><trkpt lat="44.4326229" lon="4.3546262"><ele>113.0</ele><time>2026-05-02T10:24:12.977Z</time></trkpt><trkpt lat="44.4326716" lon="4.354518"><ele>110.60000000000001</ele><time>2026-05-02T10:24:13.977Z</time></trkpt><trkpt lat="44.4327227" lon="4.354402"><ele>108.20000000000002</ele><time>2026-05-02T10:24:14.977Z</time></trkpt><trkpt lat="44.4327715" lon="4.3542768"><ele>105.8</ele><time>2026-05-02T10:24:15.977Z</time></trkpt><trkpt lat="44.4328193" lon="4.3541386"><ele>103.4</ele><time>2026-05-02T10:24:16.977Z</time></trkpt><trkpt lat="44.4328696" lon="4.3539971"><ele>101.0</ele><time>2026-05-02T10:24:17.978Z</time></trkpt><trkpt lat="44.4329235" lon="4.3538523"><ele>105.0</ele><time>2026-05-02T10:24:18.977Z</time></trkpt><trkpt lat="44.4329781" lon="4.3537052"><ele>109.0</ele><time>2026-05-02T10:24:19.977Z</time></trkpt><trkpt lat="44.4330292" lon="4.3535543"><ele>113.0</ele><time>2026-05-02T10:24:20.977Z</time></trkpt><trkpt lat="44.4330844" lon="4.3534038"><ele>117.0</ele><time>2026-05-02T10:24:21.977Z</time></trkpt><trkpt lat="44.4331405" lon="4.3532514"><ele>117.0</ele><time>2026-05-02T10:24:22.976Z</time></trkpt><trkpt lat="44.4332012" lon="4.3530946"><ele>117.0</ele><time>2026-05-02T10:24:23.977Z</time></trkpt><trkpt lat="44.4332598" lon="4.3529323"><ele>117.0</ele><time>2026-05-02T10:24:24.977Z</time></trkpt><trkpt lat="44.4333227" lon="4.352762"><ele>117.0</ele><time>2026-05-02T10:24:25.977Z</time></trkpt><trkpt lat="44.4333904" lon="4.3525823"><ele>114.0</ele><time>2026-05-02T10:24:26.977Z</time></trkpt><trkpt lat="44.4334639" lon="4.3523916"><ele>111.0</ele><time>2026-05-02T10:24:27.977Z</time></trkpt><trkpt lat="44.433541" lon="4.3521952"><ele>108.0</ele><time>2026-05-02T10:24:28.977Z</time></trkpt><trkpt lat="44.4336153" lon="4.3519946"><ele>107.0</ele><time>2026-05-02T10:24:29.978Z</time></trkpt><trkpt lat="44.4336901" lon="4.3517924"><ele>106.0</ele><time>2026-05-02T10:24:30.978Z</time></trkpt><trkpt lat="44.4337638" lon="4.3515916"><ele>105.0</ele><time>2026-05-02T10:24:31.978Z</time></trkpt><trkpt lat="44.4338359" lon="4.3513965"><ele>108.0</ele><time>2026-05-02T10:24:32.977Z</time></trkpt><trkpt lat="44.4339095" lon="4.3512034"><ele>111.0</ele><time>2026-05-02T10:24:33.976Z</time></trkpt><trkpt lat="44.433986" lon="4.3510129"><ele>114.0</ele><time>2026-05-02T10:24:34.977Z</time></trkpt><trkpt lat="44.4340608" lon="4.3508243"><ele>114.0</ele><time>2026-05-02T10:24:35.977Z</time></trkpt><trkpt lat="44.4341352" lon="4.3506402"><ele>114.0</ele><time>2026-05-02T10:24:36.977Z</time></trkpt><trkpt lat="44.4342068" lon="4.3504599"><ele>114.0</ele><time>2026-05-02T10:24:37.978Z</time></trkpt><trkpt lat="44.4342734" lon="4.3502834"><ele>114.0</ele><time>2026-05-02T10:24:38.977Z</time></trkpt><trkpt lat="44.4343391" lon="4.3501156"><ele>113.0</ele><time>2026-05-02T10:24:39.976Z</time></trkpt><trkpt lat="44.4344014" lon="4.3499533"><ele>112.0</ele><time>2026-05-02T10:24:40.977Z</time></trkpt><trkpt lat="44.4344628" lon="4.3497986"><ele>111.0</ele><time>2026-05-02T10:24:41.978Z</time></trkpt><trkpt lat="44.4345251" lon="4.3496445"><ele>110.0</ele><time>2026-05-02T10:24:42.977Z</time></trkpt><trkpt lat="44.4345858" lon="4.3494945"><ele>112.75</ele><time>2026-05-02T10:24:43.977Z</time></trkpt><trkpt lat="44.4346495" lon="4.3493466"><ele>115.5</ele><time>2026-05-02T10:24:44.977Z</time></trkpt><trkpt lat="44.4347144" lon="4.3491935"><ele>118.25</ele><time>2026-05-02T10:24:45.978Z</time></trkpt><trkpt lat="44.4347739" lon="4.3490347"><ele>121.0</ele><time>2026-05-02T10:24:46.978Z</time></trkpt><trkpt lat="44.4348257" lon="4.3488731"><ele>121.0</ele><time>2026-05-02T10:24:47.976Z</time></trkpt><trkpt lat="44.4348666" lon="4.3487035"><ele>121.0</ele><time>2026-05-02T10:24:48.978Z</time></trkpt><trkpt lat="44.4348957" lon="4.3485241"><ele>121.0</ele><time>2026-05-02T10:24:49.978Z</time></trkpt><trkpt lat="44.4349185" lon="4.348338"><ele>121.0</ele><time>2026-05-02T10:24:50.977Z</time></trkpt><trkpt lat="44.4349331" lon="4.348142"><ele>121.0</ele><time>2026-05-02T10:24:51.977Z</time></trkpt><trkpt lat="44.4349423" lon="4.3479478"><ele>121.0</ele><time>2026-05-02T10:24:52.978Z</time></trkpt><trkpt lat="44.4349429" lon="4.3477498"><ele>121.0</ele><time>2026-05-02T10:24:53.977Z</time></trkpt><trkpt lat="44.4349398" lon="4.3475475"><ele>121.0</ele><time>2026-05-02T10:24:54.978Z</time></trkpt><trkpt lat="44.4349352" lon="4.3473525"><ele>121.5</ele><time>2026-05-02T10:24:55.977Z</time></trkpt><trkpt lat="44.4349283" lon="4.3471647"><ele>122.0</ele><time>2026-05-02T10:24:56.978Z</time></trkpt><trkpt lat="44.4349218" lon="4.3469802"><ele>122.5</ele><time>2026-05-02T10:24:57.977Z</time></trkpt><trkpt lat="44.4349149" lon="4.3468029"><ele>123.0</ele><time>2026-05-02T10:24:58.978Z</time></trkpt><trkpt lat="44.4349064" lon="4.3466307"><ele>123.0</ele><time>2026-05-02T10:24:59.978Z</time></trkpt><trkpt lat="44.4348977" lon="4.3464605"><ele>123.0</ele><time>2026-05-02T10:25:00.978Z</time></trkpt><trkpt lat="44.434886" lon="4.3462948"><ele>123.0</ele><time>2026-05-02T10:25:01.977Z</time></trkpt><trkpt lat="44.4348705" lon="4.3461311"><ele>123.0</ele><time>2026-05-02T10:25:02.978Z</time></trkpt><trkpt lat="44.4348511" lon="4.3459679"><ele>124.5</ele><time>2026-05-02T10:25:03.976Z</time></trkpt><trkpt lat="44.4348286" lon="4.345806"><ele>126.0</ele><time>2026-05-02T10:25:04.977Z</time></trkpt><trkpt lat="44.4347998" lon="4.3456436"><ele>127.5</ele><time>2026-05-02T10:25:05.978Z</time></trkpt><trkpt lat="44.4347727" lon="4.3454839"><ele>129.0</ele><time>2026-05-02T10:25:06.977Z</time></trkpt><trkpt lat="44.4347471" lon="4.3453321"><ele>129.8</ele><time>2026-05-02T10:25:07.977Z</time></trkpt><trkpt lat="44.4347236" lon="4.3451843"><ele>130.60000000000002</ele><time>2026-05-02T10:25:08.977Z</time></trkpt><trkpt lat="44.4347034" lon="4.3450455"><ele>131.4</ele><time>2026-05-02T10:25:09.977Z</time></trkpt><trkpt lat="44.4346831" lon="4.3449126"><ele>132.20000000000002</ele><time>2026-05-02T10:25:10.978Z</time></trkpt><trkpt lat="44.4346619" lon="4.3447861"><ele>133.0</ele><time>2026-05-02T10:25:11.978Z</time></trkpt><trkpt lat="44.4346396" lon="4.3446577"><ele>128.8</ele><time>2026-05-02T10:25:12.977Z</time></trkpt><trkpt lat="44.4346188" lon="4.3445386"><ele>124.60000000000001</ele><time>2026-05-02T10:25:13.977Z</time></trkpt><trkpt lat="44.4345977" lon="4.3444181"><ele>120.39999999999999</ele><time>2026-05-02T10:25:14.977Z</time></trkpt><trkpt lat="44.4345757" lon="4.3442864"><ele>116.19999999999999</ele><time>2026-05-02T10:25:15.977Z</time></trkpt><trkpt lat="44.4345533" lon="4.3441459"><ele>112.0</ele><time>2026-05-02T10:25:16.978Z</time></trkpt><trkpt lat="44.4345323" lon="4.3439995"><ele>112.0</ele><time>2026-05-02T10:25:17.976Z</time></trkpt><trkpt lat="44.4345194" lon="4.343852"><ele>112.0</ele><time>2026-05-02T10:25:18.978Z</time></trkpt><trkpt lat="44.4345166" lon="4.3436917"><ele>112.0</ele><time>2026-05-02T10:25:19.977Z</time></trkpt><trkpt lat="44.4345259" lon="4.3435254"><ele>112.0</ele><time>2026-05-02T10:25:20.977Z</time></trkpt><trkpt lat="44.4345494" lon="4.3433622"><ele>112.0</ele><time>2026-05-02T10:25:21.976Z</time></trkpt><trkpt lat="44.4345756" lon="4.3432022"><ele>111.99999999999999</ele><time>2026-05-02T10:25:22.978Z</time></trkpt><trkpt lat="44.4345983" lon="4.3430461"><ele>111.99999999999999</ele><time>2026-05-02T10:25:23.978Z</time></trkpt><trkpt lat="44.4346205" lon="4.342893"><ele>112.0</ele><time>2026-05-02T10:25:24.978Z</time></trkpt><trkpt lat="44.434643" lon="4.3427535"><ele>112.0</ele><time>2026-05-02T10:25:25.978Z</time></trkpt><trkpt lat="44.4346656" lon="4.342641"><ele>112.83333333333334</ele><time>2026-05-02T10:25:26.977Z</time></trkpt><trkpt lat="44.4346868" lon="4.3425335"><ele>113.66666666666667</ele><time>2026-05-02T10:25:27.977Z</time></trkpt><trkpt lat="44.434709" lon="4.3424273"><ele>114.5</ele><time>2026-05-02T10:25:28.977Z</time></trkpt><trkpt lat="44.4347314" lon="4.3423268"><ele>115.33333333333334</ele><time>2026-05-02T10:25:29.978Z</time></trkpt><trkpt lat="44.4347545" lon="4.342234"><ele>116.16666666666667</ele><time>2026-05-02T10:25:30.976Z</time></trkpt><trkpt lat="44.4347848" lon="4.3421462"><ele>117.0</ele><time>2026-05-02T10:25:31.978Z</time></trkpt><trkpt lat="44.4348305" lon="4.3420549"><ele>117.0</ele><time>2026-05-02T10:25:32.976Z</time></trkpt><trkpt lat="44.4348852" lon="4.3419558"><ele>116.99999999999999</ele><time>2026-05-02T10:25:33.977Z</time></trkpt><trkpt lat="44.4349461" lon="4.3418399"><ele>116.99999999999999</ele><time>2026-05-02T10:25:34.978Z</time></trkpt><trkpt lat="44.4350255" lon="4.3417339"><ele>117.0</ele><time>2026-05-02T10:25:35.977Z</time></trkpt><trkpt lat="44.4351246" lon="4.3416507"><ele>117.0</ele><time>2026-05-02T10:25:36.978Z</time></trkpt><trkpt lat="44.4352333" lon="4.3415829"><ele>117.0</ele><time>2026-05-02T10:25:37.977Z</time></trkpt><trkpt lat="44.4353422" lon="4.3415187"><ele>117.0</ele><time>2026-05-02T10:25:38.976Z</time></trkpt><trkpt lat="44.4354534" lon="4.341453"><ele>117.0</ele><time>2026-05-02T10:25:39.977Z</time></trkpt><trkpt lat="44.4355619" lon="4.3413919"><ele>117.0</ele><time>2026-05-02T10:25:40.978Z</time></trkpt><trkpt lat="44.4356667" lon="4.341335"><ele>117.0</ele><time>2026-05-02T10:25:41.977Z</time></trkpt><trkpt lat="44.4357741" lon="4.3412831"><ele>116.99999999999999</ele><time>2026-05-02T10:25:42.978Z</time></trkpt><trkpt lat="44.4358816" lon="4.3412415"><ele>116.99999999999999</ele><time>2026-05-02T10:25:43.977Z</time></trkpt><trkpt lat="44.4359843" lon="4.3412206"><ele>117.0</ele><time>2026-05-02T10:25:44.977Z</time></trkpt><trkpt lat="44.4360847" lon="4.3412227"><ele>117.0</ele><time>2026-05-02T10:25:45.976Z</time></trkpt><trkpt lat="44.4361859" lon="4.3412474"><ele>117.0</ele><time>2026-05-02T10:25:46.977Z</time></trkpt><trkpt lat="44.436289" lon="4.3412914"><ele>117.0</ele><time>2026-05-02T10:25:47.977Z</time></trkpt><trkpt lat="44.4363948" lon="4.3413548"><ele>117.0</ele><time>2026-05-02T10:25:48.977Z</time></trkpt><trkpt lat="44.4365055" lon="4.3414356"><ele>117.0</ele><time>2026-05-02T10:25:49.977Z</time></trkpt><trkpt lat="44.4366202" lon="4.3415204"><ele>119.0</ele><time>2026-05-02T10:25:50.977Z</time></trkpt><trkpt lat="44.4367305" lon="4.3416037"><ele>121.0</ele><time>2026-05-02T10:25:51.977Z</time></trkpt><trkpt lat="44.4368335" lon="4.3416838"><ele>123.0</ele><time>2026-05-02T10:25:52.978Z</time></trkpt><trkpt lat="44.4369318" lon="4.3417625"><ele>125.0</ele><time>2026-05-02T10:25:53.977Z</time></trkpt><trkpt lat="44.437038" lon="4.3418464"><ele>124.0</ele><time>2026-05-02T10:25:54.977Z</time></trkpt><trkpt lat="44.4371527" lon="4.3419362"><ele>123.0</ele><time>2026-05-02T10:25:55.978Z</time></trkpt><trkpt lat="44.4372763" lon="4.342037"><ele>122.0</ele><time>2026-05-02T10:25:56.976Z</time></trkpt><trkpt lat="44.4374039" lon="4.3421479"><ele>121.0</ele><time>2026-05-02T10:25:57.977Z</time></trkpt><trkpt lat="44.4375352" lon="4.3422586"><ele>121.0</ele><time>2026-05-02T10:25:58.977Z</time></trkpt><trkpt lat="44.4376626" lon="4.3423665"><ele>121.0</ele><time>2026-05-02T10:25:59.976Z</time></trkpt><trkpt lat="44.4377875" lon="4.3424682"><ele>121.0</ele><time>2026-05-02T10:26:00.977Z</time></trkpt><trkpt lat="44.4379136" lon="4.3425726"><ele>121.0</ele><time>2026-05-02T10:26:01.977Z</time></trkpt><trkpt lat="44.4380392" lon="4.3426798"><ele>120.5</ele><time>2026-05-02T10:26:02.976Z</time></trkpt><trkpt lat="44.438167" lon="4.3427874"><ele>120.0</ele><time>2026-05-02T10:26:03.977Z</time></trkpt><trkpt lat="44.438295" lon="4.3428941"><ele>119.5</ele><time>2026-05-02T10:26:04.976Z</time></trkpt><trkpt lat="44.4384235" lon="4.3430018"><ele>119.0</ele><time>2026-05-02T10:26:05.978Z</time></trkpt><trkpt lat="44.4385494" lon="4.3431083"><ele>119.0</ele><time>2026-05-02T10:26:06.978Z</time></trkpt><trkpt lat="44.4386724" lon="4.3432113"><ele>119.0</ele><time>2026-05-02T10:26:07.978Z</time></trkpt><trkpt lat="44.4387972" lon="4.3433085"><ele>119.0</ele><time>2026-05-02T10:26:08.977Z</time></trkpt><trkpt lat="44.4389296" lon="4.3433974"><ele>119.0</ele><time>2026-05-02T10:26:09.978Z</time></trkpt><trkpt lat="44.4390701" lon="4.3434717"><ele>118.33333333333333</ele><time>2026-05-02T10:26:10.977Z</time></trkpt><trkpt lat="44.4392149" lon="4.3435421"><ele>117.66666666666666</ele><time>2026-05-02T10:26:11.978Z</time></trkpt><trkpt lat="44.4393603" lon="4.3436116"><ele>117.0</ele><time>2026-05-02T10:26:12.976Z</time></trkpt><trkpt lat="44.439507" lon="4.3436793"><ele>117.0</ele><time>2026-05-02T10:26:13.977Z</time></trkpt><trkpt lat="44.4396575" lon="4.3437562"><ele>117.0</ele><time>2026-05-02T10:26:14.977Z</time></trkpt><trkpt lat="44.439809" lon="4.3438456"><ele>117.0</ele><time>2026-05-02T10:26:15.977Z</time></trkpt><trkpt lat="44.4399594" lon="4.3439514"><ele>117.66666666666666</ele><time>2026-05-02T10:26:16.977Z</time></trkpt><trkpt lat="44.4401067" lon="4.3440703"><ele>118.33333333333333</ele><time>2026-05-02T10:26:17.977Z</time></trkpt><trkpt lat="44.4402491" lon="4.3442013"><ele>119.0</ele><time>2026-05-02T10:26:18.977Z</time></trkpt><trkpt lat="44.440389" lon="4.3443445"><ele>118.66666666666666</ele><time>2026-05-02T10:26:19.977Z</time></trkpt><trkpt lat="44.4405261" lon="4.3444907"><ele>118.33333333333334</ele><time>2026-05-02T10:26:20.977Z</time></trkpt><trkpt lat="44.4406613" lon="4.3446392"><ele>118.0</ele><time>2026-05-02T10:26:21.978Z</time></trkpt><trkpt lat="44.4407918" lon="4.3447892"><ele>118.0</ele><time>2026-05-02T10:26:22.977Z</time></trkpt><trkpt lat="44.4409226" lon="4.3449389"><ele>118.0</ele><time>2026-05-02T10:26:23.978Z</time></trkpt><trkpt lat="44.441052" lon="4.3450897"><ele>118.0</ele><time>2026-05-02T10:26:24.977Z</time></trkpt><trkpt lat="44.4411815" lon="4.345241"><ele>118.0</ele><time>2026-05-02T10:26:25.976Z</time></trkpt><trkpt lat="44.4413057" lon="4.3453908"><ele>118.0</ele><time>2026-05-02T10:26:26.977Z</time></trkpt><trkpt lat="44.4414252" lon="4.345534"><ele>118.0</ele><time>2026-05-02T10:26:27.978Z</time></trkpt><trkpt lat="44.4415397" lon="4.3456715"><ele>118.25</ele><time>2026-05-02T10:26:28.978Z</time></trkpt><trkpt lat="44.4416479" lon="4.3458055"><ele>118.5</ele><time>2026-05-02T10:26:29.977Z</time></trkpt><trkpt lat="44.4417525" lon="4.3459316"><ele>118.75</ele><time>2026-05-02T10:26:30.977Z</time></trkpt><trkpt lat="44.4418534" lon="4.3460499"><ele>119.0</ele><time>2026-05-02T10:26:31.977Z</time></trkpt><trkpt lat="44.4419496" lon="4.3461641"><ele>119.0</ele><time>2026-05-02T10:26:32.977Z</time></trkpt><trkpt lat="44.4420406" lon="4.346272"><ele>119.0</ele><time>2026-05-02T10:26:33.978Z</time></trkpt><trkpt lat="44.4421284" lon="4.3463785"><ele>119.0</ele><time>2026-05-02T10:26:34.977Z</time></trkpt><trkpt lat="44.4422132" lon="4.3464784"><ele>119.0</ele><time>2026-05-02T10:26:35.978Z</time></trkpt><trkpt lat="44.442296" lon="4.3465726"><ele>119.2</ele><time>2026-05-02T10:26:36.977Z</time></trkpt><trkpt lat="44.442376" lon="4.3466638"><ele>119.4</ele><time>2026-05-02T10:26:37.977Z</time></trkpt><trkpt lat="44.442453" lon="4.3467555"><ele>119.6</ele><time>2026-05-02T10:26:38.978Z</time></trkpt><trkpt lat="44.4425241" lon="4.346844"><ele>119.8</ele><time>2026-05-02T10:26:39.978Z</time></trkpt><trkpt lat="44.4425903" lon="4.3469295"><ele>120.0</ele><time>2026-05-02T10:26:40.977Z</time></trkpt><trkpt lat="44.4426541" lon="4.3470108"><ele>120.0</ele><time>2026-05-02T10:26:41.977Z</time></trkpt><trkpt lat="44.4427165" lon="4.3470878"><ele>120.0</ele><time>2026-05-02T10:26:42.976Z</time></trkpt><trkpt lat="44.4427759" lon="4.3471632"><ele>120.0</ele><time>2026-05-02T10:26:43.978Z</time></trkpt><trkpt lat="44.4428326" lon="4.3472392"><ele>120.0</ele><time>2026-05-02T10:26:44.978Z</time></trkpt><trkpt lat="44.4428815" lon="4.3473212"><ele>120.0</ele><time>2026-05-02T10:26:45.977Z</time></trkpt><trkpt lat="44.4429151" lon="4.3474119"><ele>120.0</ele><time>2026-05-02T10:26:46.978Z</time></trkpt><trkpt lat="44.4429347" lon="4.3475038"><ele>119.83333333333333</ele><time>2026-05-02T10:26:47.978Z</time></trkpt><trkpt lat="44.4429584" lon="4.3475916"><ele>119.66666666666666</ele><time>2026-05-02T10:26:48.977Z</time></trkpt><trkpt lat="44.4429968" lon="4.3476657"><ele>119.5</ele><time>2026-05-02T10:26:49.978Z</time></trkpt><trkpt lat="44.4431053" lon="4.3477333"><ele>119.33333333333333</ele><time>2026-05-02T10:26:51.978Z</time></trkpt><trkpt lat="44.4431728" lon="4.3477325"><ele>119.16666666666666</ele><time>2026-05-02T10:26:52.976Z</time></trkpt><trkpt lat="44.4432508" lon="4.3477415"><ele>119.0</ele><time>2026-05-02T10:26:53.977Z</time></trkpt><trkpt lat="44.4433367" lon="4.3477832"><ele>119.5</ele><time>2026-05-02T10:26:54.977Z</time></trkpt><trkpt lat="44.4434291" lon="4.3478437"><ele>120.0</ele><time>2026-05-02T10:26:55.978Z</time></trkpt><trkpt lat="44.4435366" lon="4.3479129"><ele>120.5</ele><time>2026-05-02T10:26:56.976Z</time></trkpt><trkpt lat="44.4436597" lon="4.3479876"><ele>121.0</ele><time>2026-05-02T10:26:57.977Z</time></trkpt><trkpt lat="44.4437957" lon="4.3480602"><ele>122.0</ele><time>2026-05-02T10:26:58.978Z</time></trkpt><trkpt lat="44.4439456" lon="4.3481295"><ele>123.0</ele><time>2026-05-02T10:26:59.976Z</time></trkpt><trkpt lat="44.4441" lon="4.348198"><ele>124.0</ele><time>2026-05-02T10:27:00.977Z</time></trkpt><trkpt lat="44.4442476" lon="4.3482631"><ele>124.0</ele><time>2026-05-02T10:27:01.977Z</time></trkpt><trkpt lat="44.4443923" lon="4.3483229"><ele>124.0</ele><time>2026-05-02T10:27:02.977Z</time></trkpt><trkpt lat="44.4445386" lon="4.3483816"><ele>124.0</ele><time>2026-05-02T10:27:03.977Z</time></trkpt><trkpt lat="44.4446853" lon="4.3484431"><ele>124.0</ele><time>2026-05-02T10:27:04.976Z</time></trkpt><trkpt lat="44.4448331" lon="4.3485031"><ele>124.0</ele><time>2026-05-02T10:27:05.977Z</time></trkpt><trkpt lat="44.4449819" lon="4.3485632"><ele>124.0</ele><time>2026-05-02T10:27:06.977Z</time></trkpt><trkpt lat="44.4451306" lon="4.3486169"><ele>124.0</ele><time>2026-05-02T10:27:07.977Z</time></trkpt><trkpt lat="44.4452832" lon="4.348666"><ele>124.0</ele><time>2026-05-02T10:27:08.978Z</time></trkpt><trkpt lat="44.445445" lon="4.3487156"><ele>124.0</ele><time>2026-05-02T10:27:09.978Z</time></trkpt><trkpt lat="44.4456138" lon="4.3487643"><ele>124.0</ele><time>2026-05-02T10:27:10.978Z</time></trkpt><trkpt lat="44.4457833" lon="4.3488057"><ele>124.0</ele><time>2026-05-02T10:27:11.977Z</time></trkpt><trkpt lat="44.445948" lon="4.3488414"><ele>124.0</ele><time>2026-05-02T10:27:12.977Z</time></trkpt><trkpt lat="44.4461059" lon="4.3488693"><ele>124.0</ele><time>2026-05-02T10:27:13.977Z</time></trkpt><trkpt lat="44.446269" lon="4.3488908"><ele>124.0</ele><time>2026-05-02T10:27:14.977Z</time></trkpt><trkpt lat="44.4464353" lon="4.3489049"><ele>124.0</ele><time>2026-05-02T10:27:15.977Z</time></trkpt><trkpt lat="44.446602" lon="4.3489163"><ele>123.0</ele><time>2026-05-02T10:27:16.978Z</time></trkpt><trkpt lat="44.4467669" lon="4.3489242"><ele>122.0</ele><time>2026-05-02T10:27:17.977Z</time></trkpt><trkpt lat="44.4469295" lon="4.3489237"><ele>121.0</ele><time>2026-05-02T10:27:18.977Z</time></trkpt><trkpt lat="44.4470893" lon="4.3489183"><ele>120.66666666666667</ele><time>2026-05-02T10:27:19.977Z</time></trkpt><trkpt lat="44.4472533" lon="4.3489123"><ele>120.33333333333334</ele><time>2026-05-02T10:27:20.977Z</time></trkpt><trkpt lat="44.4474137" lon="4.3489074"><ele>120.0</ele><time>2026-05-02T10:27:21.977Z</time></trkpt><trkpt lat="44.4475689" lon="4.348902"><ele>120.0</ele><time>2026-05-02T10:27:22.977Z</time></trkpt><trkpt lat="44.4477168" lon="4.3488948"><ele>120.0</ele><time>2026-05-02T10:27:23.978Z</time></trkpt><trkpt lat="44.4478635" lon="4.3488802"><ele>120.0</ele><time>2026-05-02T10:27:24.978Z</time></trkpt><trkpt lat="44.4480036" lon="4.3488591"><ele>120.0</ele><time>2026-05-02T10:27:25.977Z</time></trkpt><trkpt lat="44.4481355" lon="4.3488387"><ele>120.0</ele><time>2026-05-02T10:27:26.978Z</time></trkpt><trkpt lat="44.4482519" lon="4.3488177"><ele>120.0</ele><time>2026-05-02T10:27:27.977Z</time></trkpt><trkpt lat="44.4483575" lon="4.3487943"><ele>120.0</ele><time>2026-05-02T10:27:28.977Z</time></trkpt><trkpt lat="44.4484558" lon="4.3487711"><ele>120.0</ele><time>2026-05-02T10:27:29.977Z</time></trkpt><trkpt lat="44.4485524" lon="4.3487467"><ele>120.0</ele><time>2026-05-02T10:27:30.977Z</time></trkpt><trkpt lat="44.4486461" lon="4.3487201"><ele>120.0</ele><time>2026-05-02T10:27:31.977Z</time></trkpt><trkpt lat="44.4487334" lon="4.3486948"><ele>120.0</ele><time>2026-05-02T10:27:32.977Z</time></trkpt><trkpt lat="44.4488174" lon="4.3486642"><ele>120.0</ele><time>2026-05-02T10:27:33.978Z</time></trkpt><trkpt lat="44.4488961" lon="4.3486355"><ele>120.0</ele><time>2026-05-02T10:27:34.977Z</time></trkpt><trkpt lat="44.448959" lon="4.3486126"><ele>120.0</ele><time>2026-05-02T10:27:35.977Z</time></trkpt><trkpt lat="44.4490579" lon="4.3485721"><ele>120.0</ele><time>2026-05-02T10:27:37.978Z</time></trkpt><trkpt lat="44.4491449" lon="4.3485376"><ele>120.5</ele><time>2026-05-02T10:27:39.977Z</time></trkpt><trkpt lat="44.4492241" lon="4.3485109"><ele>121.0</ele><time>2026-05-02T10:27:41.977Z</time></trkpt><trkpt lat="44.4493016" lon="4.3484753"><ele>121.5</ele><time>2026-05-02T10:27:43.977Z</time></trkpt><trkpt lat="44.4493896" lon="4.3484336"><ele>122.0</ele><time>2026-05-02T10:27:45.977Z</time></trkpt><trkpt lat="44.4494752" lon="4.3483952"><ele>122.5</ele><time>2026-05-02T10:27:47.977Z</time></trkpt><trkpt lat="44.4495451" lon="4.3483598"><ele>123.0</ele><time>2026-05-02T10:27:49.978Z</time></trkpt><trkpt lat="44.4496145" lon="4.3483247"><ele>123.2</ele><time>2026-05-02T10:27:52.977Z</time></trkpt><trkpt lat="44.4496779" lon="4.3482982"><ele>123.4</ele><time>2026-05-02T10:27:55.978Z</time></trkpt><trkpt lat="44.449754" lon="4.3482609"><ele>123.60000000000001</ele><time>2026-05-02T10:28:07.977Z</time></trkpt><trkpt lat="44.4498553" lon="4.3482056"><ele>123.80000000000001</ele><time>2026-05-02T10:28:09.978Z</time></trkpt><trkpt lat="44.4499841" lon="4.3481781"><ele>124.0</ele><time>2026-05-02T10:28:11.976Z</time></trkpt><trkpt lat="44.4500539" lon="4.3481594"><ele>124.00000000000001</ele><time>2026-05-02T10:28:12.977Z</time></trkpt><trkpt lat="44.4501286" lon="4.3481215"><ele>124.0</ele><time>2026-05-02T10:28:13.977Z</time></trkpt><trkpt lat="44.4502059" lon="4.3480762"><ele>124.0</ele><time>2026-05-02T10:28:14.977Z</time></trkpt><trkpt lat="44.4502818" lon="4.3480308"><ele>124.0</ele><time>2026-05-02T10:28:15.976Z</time></trkpt><trkpt lat="44.4503566" lon="4.3479897"><ele>124.00000000000001</ele><time>2026-05-02T10:28:16.977Z</time></trkpt><trkpt lat="44.4504355" lon="4.347941"><ele>124.0</ele><time>2026-05-02T10:28:17.978Z</time></trkpt><trkpt lat="44.4505185" lon="4.3478845"><ele>123.80000000000001</ele><time>2026-05-02T10:28:18.978Z</time></trkpt><trkpt lat="44.4506055" lon="4.3478206"><ele>123.60000000000001</ele><time>2026-05-02T10:28:19.977Z</time></trkpt><trkpt lat="44.4506951" lon="4.3477459"><ele>123.4</ele><time>2026-05-02T10:28:20.977Z</time></trkpt><trkpt lat="44.4507908" lon="4.3476658"><ele>123.2</ele><time>2026-05-02T10:28:21.977Z</time></trkpt><trkpt lat="44.4508933" lon="4.3475835"><ele>123.0</ele><time>2026-05-02T10:28:22.977Z</time></trkpt><trkpt lat="44.4509976" lon="4.3474979"><ele>123.0</ele><time>2026-05-02T10:28:23.977Z</time></trkpt><trkpt lat="44.451109" lon="4.3474048"><ele>123.0</ele><time>2026-05-02T10:28:24.978Z</time></trkpt><trkpt lat="44.4512216" lon="4.3473096"><ele>123.0</ele><time>2026-05-02T10:28:25.977Z</time></trkpt><trkpt lat="44.4513345" lon="4.3472173"><ele>123.0</ele><time>2026-05-02T10:28:26.978Z</time></trkpt><trkpt lat="44.4514457" lon="4.3471258"><ele>123.25</ele><time>2026-05-02T10:28:27.977Z</time></trkpt><trkpt lat="44.4515598" lon="4.3470302"><ele>123.5</ele><time>2026-05-02T10:28:28.978Z</time></trkpt><trkpt lat="44.4516739" lon="4.3469317"><ele>123.75</ele><time>2026-05-02T10:28:29.976Z</time></trkpt><trkpt lat="44.4517874" lon="4.3468373"><ele>124.0</ele><time>2026-05-02T10:28:30.978Z</time></trkpt><trkpt lat="44.4518998" lon="4.3467442"><ele>124.0</ele><time>2026-05-02T10:28:31.977Z</time></trkpt><trkpt lat="44.4520076" lon="4.3466549"><ele>124.0</ele><time>2026-05-02T10:28:32.977Z</time></trkpt><trkpt lat="44.4521121" lon="4.3465687"><ele>124.0</ele><time>2026-05-02T10:28:33.977Z</time></trkpt><trkpt lat="44.4522119" lon="4.3464871"><ele>124.0</ele><time>2026-05-02T10:28:34.978Z</time></trkpt><trkpt lat="44.4523083" lon="4.3464055"><ele>123.75</ele><time>2026-05-02T10:28:35.978Z</time></trkpt><trkpt lat="44.4524085" lon="4.3463187"><ele>123.5</ele><time>2026-05-02T10:28:36.978Z</time></trkpt><trkpt lat="44.4525135" lon="4.3462255"><ele>123.25</ele><time>2026-05-02T10:28:37.978Z</time></trkpt><trkpt lat="44.4526281" lon="4.3461333"><ele>123.0</ele><time>2026-05-02T10:28:38.976Z</time></trkpt><trkpt lat="44.4527489" lon="4.3460353"><ele>123.0</ele><time>2026-05-02T10:28:39.977Z</time></trkpt><trkpt lat="44.4528739" lon="4.3459326"><ele>123.0</ele><time>2026-05-02T10:28:40.977Z</time></trkpt><trkpt lat="44.4529976" lon="4.3458289"><ele>123.0</ele><time>2026-05-02T10:28:41.978Z</time></trkpt><trkpt lat="44.4531196" lon="4.3457269"><ele>123.0</ele><time>2026-05-02T10:28:42.977Z</time></trkpt><trkpt lat="44.4532389" lon="4.345625"><ele>122.75</ele><time>2026-05-02T10:28:43.977Z</time></trkpt><trkpt lat="44.4533545" lon="4.3455276"><ele>122.5</ele><time>2026-05-02T10:28:44.977Z</time></trkpt><trkpt lat="44.4534684" lon="4.3454311"><ele>122.25</ele><time>2026-05-02T10:28:45.977Z</time></trkpt><trkpt lat="44.4535795" lon="4.3453381"><ele>122.0</ele><time>2026-05-02T10:28:46.977Z</time></trkpt><trkpt lat="44.4536923" lon="4.3452426"><ele>122.75</ele><time>2026-05-02T10:28:47.977Z</time></trkpt><trkpt lat="44.4538039" lon="4.3451453"><ele>123.5</ele><time>2026-05-02T10:28:48.977Z</time></trkpt><trkpt lat="44.4539173" lon="4.3450455"><ele>124.25</ele><time>2026-05-02T10:28:49.977Z</time></trkpt><trkpt lat="44.4540314" lon="4.3449448"><ele>125.0</ele><time>2026-05-02T10:28:50.977Z</time></trkpt><trkpt lat="44.4541491" lon="4.3448427"><ele>125.0</ele><time>2026-05-02T10:28:51.977Z</time></trkpt><trkpt lat="44.4542667" lon="4.3447405"><ele>125.0</ele><time>2026-05-02T10:28:52.977Z</time></trkpt><trkpt lat="44.4543798" lon="4.3446441"><ele>125.0</ele><time>2026-05-02T10:28:53.977Z</time></trkpt><trkpt lat="44.454489" lon="4.3445485"><ele>125.0</ele><time>2026-05-02T10:28:54.978Z</time></trkpt><trkpt lat="44.4545957" lon="4.3444538"><ele>125.5</ele><time>2026-05-02T10:28:55.978Z</time></trkpt><trkpt lat="44.4547043" lon="4.3443589"><ele>126.0</ele><time>2026-05-02T10:28:56.978Z</time></trkpt><trkpt lat="44.4548135" lon="4.3442637"><ele>126.5</ele><time>2026-05-02T10:28:57.977Z</time></trkpt><trkpt lat="44.4549284" lon="4.3441624"><ele>127.0</ele><time>2026-05-02T10:28:58.977Z</time></trkpt><trkpt lat="44.4550502" lon="4.3440613"><ele>127.0</ele><time>2026-05-02T10:28:59.977Z</time></trkpt><trkpt lat="44.455173" lon="4.3439635"><ele>127.0</ele><time>2026-05-02T10:29:00.978Z</time></trkpt><trkpt lat="44.4552966" lon="4.3438638"><ele>127.0</ele><time>2026-05-02T10:29:01.978Z</time></trkpt><trkpt lat="44.4554202" lon="4.3437622"><ele>127.0</ele><time>2026-05-02T10:29:02.977Z</time></trkpt><trkpt lat="44.4555445" lon="4.3436593"><ele>127.25</ele><time>2026-05-02T10:29:03.976Z</time></trkpt><trkpt lat="44.4556701" lon="4.3435623"><ele>127.5</ele><time>2026-05-02T10:29:04.977Z</time></trkpt><trkpt lat="44.4557964" lon="4.3434793"><ele>127.75</ele><time>2026-05-02T10:29:05.977Z</time></trkpt><trkpt lat="44.4559253" lon="4.3434134"><ele>128.0</ele><time>2026-05-02T10:29:06.977Z</time></trkpt><trkpt lat="44.4560582" lon="4.343367"><ele>128.0</ele><time>2026-05-02T10:29:07.978Z</time></trkpt><trkpt lat="44.4561947" lon="4.343351"><ele>128.0</ele><time>2026-05-02T10:29:08.978Z</time></trkpt><trkpt lat="44.4563325" lon="4.3433619"><ele>128.0</ele><time>2026-05-02T10:29:09.977Z</time></trkpt><trkpt lat="44.4564662" lon="4.3433947"><ele>128.0</ele><time>2026-05-02T10:29:10.978Z</time></trkpt><trkpt lat="44.4565978" lon="4.3434378"><ele>127.5</ele><time>2026-05-02T10:29:11.978Z</time></trkpt><trkpt lat="44.4567315" lon="4.3434883"><ele>127.0</ele><time>2026-05-02T10:29:12.977Z</time></trkpt><trkpt lat="44.4568682" lon="4.3435443"><ele>126.5</ele><time>2026-05-02T10:29:13.978Z</time></trkpt><trkpt lat="44.4570077" lon="4.3436008"><ele>126.0</ele><time>2026-05-02T10:29:14.977Z</time></trkpt><trkpt lat="44.4571497" lon="4.3436557"><ele>126.0</ele><time>2026-05-02T10:29:15.978Z</time></trkpt><trkpt lat="44.4572967" lon="4.3437041"><ele>126.0</ele><time>2026-05-02T10:29:16.977Z</time></trkpt><trkpt lat="44.4574483" lon="4.343742"><ele>126.0</ele><time>2026-05-02T10:29:17.976Z</time></trkpt><trkpt lat="44.4576064" lon="4.3437592"><ele>126.0</ele><time>2026-05-02T10:29:18.977Z</time></trkpt><trkpt lat="44.4577565" lon="4.3437475"><ele>126.0</ele><time>2026-05-02T10:29:19.978Z</time></trkpt><trkpt lat="44.4578873" lon="4.3437187"><ele>126.0</ele><time>2026-05-02T10:29:20.977Z</time></trkpt><trkpt lat="44.4580013" lon="4.3436796"><ele>126.0</ele><time>2026-05-02T10:29:21.977Z</time></trkpt><trkpt lat="44.4581" lon="4.343633"><ele>126.8</ele><time>2026-05-02T10:29:22.977Z</time></trkpt><trkpt lat="44.4581904" lon="4.3435805"><ele>127.6</ele><time>2026-05-02T10:29:23.976Z</time></trkpt><trkpt lat="44.4582741" lon="4.343532"><ele>128.4</ele><time>2026-05-02T10:29:24.976Z</time></trkpt><trkpt lat="44.4583405" lon="4.3435005"><ele>129.2</ele><time>2026-05-02T10:29:25.976Z</time></trkpt><trkpt lat="44.4584658" lon="4.3434734"><ele>130.0</ele><time>2026-05-02T10:29:27.976Z</time></trkpt><trkpt lat="44.4585385" lon="4.3434669"><ele>130.0</ele><time>2026-05-02T10:29:28.977Z</time></trkpt><trkpt lat="44.458605" lon="4.3434442"><ele>130.0</ele><time>2026-05-02T10:29:29.976Z</time></trkpt><trkpt lat="44.4586875" lon="4.343327"><ele>130.0</ele><time>2026-05-02T10:29:31.975Z</time></trkpt><trkpt lat="44.4586567" lon="4.3431775"><ele>130.0</ele><time>2026-05-02T10:29:33.977Z</time></trkpt><trkpt lat="44.4585608" lon="4.3430784"><ele>130.0</ele><time>2026-05-02T10:29:35.975Z</time></trkpt><trkpt lat="44.4585134" lon="4.343005"><ele>129.16666666666669</ele><time>2026-05-02T10:29:36.976Z</time></trkpt><trkpt lat="44.4584624" lon="4.3429156"><ele>128.33333333333334</ele><time>2026-05-02T10:29:37.976Z</time></trkpt><trkpt lat="44.4584044" lon="4.342825"><ele>127.5</ele><time>2026-05-02T10:29:38.976Z</time></trkpt><trkpt lat="44.458337" lon="4.3427432"><ele>126.66666666666666</ele><time>2026-05-02T10:29:39.977Z</time></trkpt><trkpt lat="44.45828" lon="4.3426787"><ele>125.83333333333333</ele><time>2026-05-02T10:29:40.976Z</time></trkpt><trkpt lat="44.4581884" lon="4.3425803"><ele>125.0</ele><time>2026-05-02T10:29:42.976Z</time></trkpt><trkpt lat="44.4581035" lon="4.3424878"><ele>125.0</ele><time>2026-05-02T10:29:44.976Z</time></trkpt><trkpt lat="44.4580328" lon="4.3424012"><ele>125.0</ele><time>2026-05-02T10:29:46.976Z</time></trkpt><trkpt lat="44.4579599" lon="4.3423046"><ele>125.0</ele><time>2026-05-02T10:29:48.977Z</time></trkpt><trkpt lat="44.4578726" lon="4.3422209"><ele>125.0</ele><time>2026-05-02T10:29:50.976Z</time></trkpt><trkpt lat="44.4577766" lon="4.3421513"><ele>125.0</ele><time>2026-05-02T10:29:52.975Z</time></trkpt><trkpt lat="44.4576715" lon="4.3420668"><ele>124.6</ele><time>2026-05-02T10:29:54.976Z</time></trkpt><trkpt lat="44.4575679" lon="4.3419876"><ele>124.2</ele><time>2026-05-02T10:29:56.976Z</time></trkpt><trkpt lat="44.4574547" lon="4.3418952"><ele>123.80000000000001</ele><time>2026-05-02T10:29:58.976Z</time></trkpt><trkpt lat="44.4573873" lon="4.3418349"><ele>123.4</ele><time>2026-05-02T10:29:59.976Z</time></trkpt><trkpt lat="44.4573152" lon="4.3417666"><ele>123.0</ele><time>2026-05-02T10:30:00.976Z</time></trkpt><trkpt lat="44.457235" lon="4.3416925"><ele>123.0</ele><time>2026-05-02T10:30:01.976Z</time></trkpt><trkpt lat="44.457151" lon="4.3416137"><ele>123.00000000000001</ele><time>2026-05-02T10:30:02.977Z</time></trkpt><trkpt lat="44.4570717" lon="4.3415439"><ele>123.00000000000001</ele><time>2026-05-02T10:30:03.976Z</time></trkpt><trkpt lat="44.4569968" lon="4.3414756"><ele>123.0</ele><time>2026-05-02T10:30:04.976Z</time></trkpt><trkpt lat="44.4569343" lon="4.3414201"><ele>123.0</ele><time>2026-05-02T10:30:05.976Z</time></trkpt><trkpt lat="44.4568379" lon="4.3413417"><ele>122.60000000000001</ele><time>2026-05-02T10:30:07.977Z</time></trkpt><trkpt lat="44.4567533" lon="4.3412697"><ele>122.20000000000002</ele><time>2026-05-02T10:30:09.976Z</time></trkpt><trkpt lat="44.456666" lon="4.3411837"><ele>121.8</ele><time>2026-05-02T10:30:11.976Z</time></trkpt><trkpt lat="44.4565644" lon="4.3410909"><ele>121.4</ele><time>2026-05-02T10:30:13.976Z</time></trkpt><trkpt lat="44.4565047" lon="4.3410452"><ele>121.0</ele><time>2026-05-02T10:30:14.976Z</time></trkpt><trkpt lat="44.4564455" lon="4.3409999"><ele>121.0</ele><time>2026-05-02T10:30:15.976Z</time></trkpt><trkpt lat="44.4563848" lon="4.3409552"><ele>120.99999999999999</ele><time>2026-05-02T10:30:16.977Z</time></trkpt><trkpt lat="44.4563221" lon="4.3409014"><ele>121.0</ele><time>2026-05-02T10:30:17.975Z</time></trkpt><trkpt lat="44.4562605" lon="4.3408431"><ele>121.0</ele><time>2026-05-02T10:30:18.976Z</time></trkpt><trkpt lat="44.4562018" lon="4.3407881"><ele>120.99999999999999</ele><time>2026-05-02T10:30:19.977Z</time></trkpt><trkpt lat="44.4561392" lon="4.3407382"><ele>121.0</ele><time>2026-05-02T10:30:20.977Z</time></trkpt><trkpt lat="44.4560742" lon="4.3406923"><ele>121.0</ele><time>2026-05-02T10:30:21.976Z</time></trkpt><trkpt lat="44.4560084" lon="4.3406449"><ele>121.00000000000001</ele><time>2026-05-02T10:30:22.975Z</time></trkpt><trkpt lat="44.455942" lon="4.3405939"><ele>121.0</ele><time>2026-05-02T10:30:23.976Z</time></trkpt><trkpt lat="44.4558755" lon="4.3405421"><ele>121.0</ele><time>2026-05-02T10:30:24.977Z</time></trkpt><trkpt lat="44.4558038" lon="4.3404887"><ele>121.0</ele><time>2026-05-02T10:30:25.976Z</time></trkpt><trkpt lat="44.4557295" lon="4.3404356"><ele>121.00000000000001</ele><time>2026-05-02T10:30:26.976Z</time></trkpt><trkpt lat="44.4556505" lon="4.3403831"><ele>121.0</ele><time>2026-05-02T10:30:27.977Z</time></trkpt><trkpt lat="44.455571" lon="4.340326"><ele>121.00000000000001</ele><time>2026-05-02T10:30:28.976Z</time></trkpt><trkpt lat="44.4554932" lon="4.3402633"><ele>121.0</ele><time>2026-05-02T10:30:29.977Z</time></trkpt><trkpt lat="44.4554177" lon="4.3402048"><ele>121.0</ele><time>2026-05-02T10:30:30.976Z</time></trkpt><trkpt lat="44.4553465" lon="4.340153"><ele>121.0</ele><time>2026-05-02T10:30:31.977Z</time></trkpt><trkpt lat="44.455279" lon="4.3401148"><ele>121.00000000000001</ele><time>2026-05-02T10:30:32.976Z</time></trkpt><trkpt lat="44.4552198" lon="4.3400847"><ele>121.0</ele><time>2026-05-02T10:30:33.976Z</time></trkpt><trkpt lat="44.4551345" lon="4.3400581"><ele>121.0</ele><time>2026-05-02T10:30:35.977Z</time></trkpt><trkpt lat="44.4550496" lon="4.3400513"><ele>120.99999999999999</ele><time>2026-05-02T10:30:38.976Z</time></trkpt><trkpt lat="44.4549854" lon="4.3400348"><ele>121.0</ele><time>2026-05-02T10:30:41.975Z</time></trkpt><trkpt lat="44.4549019" lon="4.3400167"><ele>121.0</ele><time>2026-05-02T10:30:52.976Z</time></trkpt><trkpt lat="44.4548375" lon="4.3400112"><ele>120.99999999999999</ele><time>2026-05-02T10:30:54.975Z</time></trkpt><trkpt lat="44.4547687" lon="4.340009"><ele>121.0</ele><time>2026-05-02T10:30:56.977Z</time></trkpt><trkpt lat="44.4546887" lon="4.3400115"><ele>121.0</ele><time>2026-05-02T10:30:58.976Z</time></trkpt><trkpt lat="44.4546144" lon="4.340013"><ele>121.00000000000001</ele><time>2026-05-02T10:31:00.976Z</time></trkpt><trkpt lat="44.4545553" lon="4.3399714"><ele>121.0</ele><time>2026-05-02T10:31:02.976Z</time></trkpt><trkpt lat="44.4545519" lon="4.3398757"><ele>121.0</ele><time>2026-05-02T10:31:04.977Z</time></trkpt><trkpt lat="44.4546026" lon="4.3397401"><ele>121.0</ele><time>2026-05-02T10:31:06.976Z</time></trkpt><trkpt lat="44.4546348" lon="4.3396587"><ele>121.00000000000001</ele><time>2026-05-02T10:31:07.977Z</time></trkpt><trkpt lat="44.454671" lon="4.3395575"><ele>121.0</ele><time>2026-05-02T10:31:08.977Z</time></trkpt><trkpt lat="44.4547124" lon="4.3394509"><ele>120.6</ele><time>2026-05-02T10:31:09.976Z</time></trkpt><trkpt lat="44.454763" lon="4.3393331"><ele>120.19999999999999</ele><time>2026-05-02T10:31:10.976Z</time></trkpt><trkpt lat="44.4548153" lon="4.339202"><ele>119.80000000000001</ele><time>2026-05-02T10:31:11.977Z</time></trkpt><trkpt lat="44.4548724" lon="4.3390604"><ele>119.4</ele><time>2026-05-02T10:31:12.976Z</time></trkpt><trkpt lat="44.4549351" lon="4.3389095"><ele>119.0</ele><time>2026-05-02T10:31:13.976Z</time></trkpt><trkpt lat="44.4549952" lon="4.3387525"><ele>118.25</ele><time>2026-05-02T10:31:14.976Z</time></trkpt><trkpt lat="44.455057" lon="4.3385873"><ele>117.5</ele><time>2026-05-02T10:31:15.975Z</time></trkpt><trkpt lat="44.4551189" lon="4.3384324"><ele>116.75</ele><time>2026-05-02T10:31:16.977Z</time></trkpt><trkpt lat="44.4551818" lon="4.3382804"><ele>116.0</ele><time>2026-05-02T10:31:17.977Z</time></trkpt><trkpt lat="44.455245" lon="4.3381322"><ele>115.75</ele><time>2026-05-02T10:31:18.975Z</time></trkpt><trkpt lat="44.4553073" lon="4.3379849"><ele>115.5</ele><time>2026-05-02T10:31:19.976Z</time></trkpt><trkpt lat="44.4553652" lon="4.337837"><ele>115.25</ele><time>2026-05-02T10:31:20.976Z</time></trkpt><trkpt lat="44.4554236" lon="4.3376889"><ele>115.0</ele><time>2026-05-02T10:31:21.977Z</time></trkpt><trkpt lat="44.4554815" lon="4.3375476"><ele>116.0</ele><time>2026-05-02T10:31:22.976Z</time></trkpt><trkpt lat="44.4555313" lon="4.3374096"><ele>117.0</ele><time>2026-05-02T10:31:23.976Z</time></trkpt><trkpt lat="44.4555592" lon="4.3372684"><ele>118.0</ele><time>2026-05-02T10:31:24.975Z</time></trkpt><trkpt lat="44.4555625" lon="4.3371188"><ele>119.0</ele><time>2026-05-02T10:31:25.976Z</time></trkpt><trkpt lat="44.4555443" lon="4.3369623"><ele>120.0</ele><time>2026-05-02T10:31:26.977Z</time></trkpt><trkpt lat="44.4555209" lon="4.3368035"><ele>120.2</ele><time>2026-05-02T10:31:27.976Z</time></trkpt><trkpt lat="44.4555026" lon="4.3366438"><ele>120.4</ele><time>2026-05-02T10:31:28.976Z</time></trkpt><trkpt lat="44.4554938" lon="4.3364888"><ele>120.6</ele><time>2026-05-02T10:31:29.976Z</time></trkpt><trkpt lat="44.4554982" lon="4.3363338"><ele>120.8</ele><time>2026-05-02T10:31:30.976Z</time></trkpt><trkpt lat="44.4555183" lon="4.3361813"><ele>121.0</ele><time>2026-05-02T10:31:31.975Z</time></trkpt><trkpt lat="44.4555531" lon="4.3360403"><ele>121.0</ele><time>2026-05-02T10:31:32.976Z</time></trkpt><trkpt lat="44.4556005" lon="4.3359109"><ele>121.0</ele><time>2026-05-02T10:31:33.975Z</time></trkpt><trkpt lat="44.4556605" lon="4.3358005"><ele>121.0</ele><time>2026-05-02T10:31:34.976Z</time></trkpt><trkpt lat="44.4557313" lon="4.3357087"><ele>121.0</ele><time>2026-05-02T10:31:35.975Z</time></trkpt><trkpt lat="44.4558099" lon="4.3356365"><ele>121.0</ele><time>2026-05-02T10:31:36.976Z</time></trkpt><trkpt lat="44.4558903" lon="4.3355731"><ele>121.19999999999999</ele><time>2026-05-02T10:31:37.977Z</time></trkpt><trkpt lat="44.4559741" lon="4.3355096"><ele>121.39999999999999</ele><time>2026-05-02T10:31:38.976Z</time></trkpt><trkpt lat="44.4560649" lon="4.3354415"><ele>121.6</ele><time>2026-05-02T10:31:39.976Z</time></trkpt><trkpt lat="44.4561631" lon="4.3353648"><ele>121.8</ele><time>2026-05-02T10:31:40.976Z</time></trkpt><trkpt lat="44.4562691" lon="4.3352819"><ele>122.0</ele><time>2026-05-02T10:31:41.976Z</time></trkpt><trkpt lat="44.4563857" lon="4.335198"><ele>122.0</ele><time>2026-05-02T10:31:42.975Z</time></trkpt><trkpt lat="44.456502" lon="4.3351146"><ele>121.99999999999999</ele><time>2026-05-02T10:31:43.976Z</time></trkpt><trkpt lat="44.4566067" lon="4.3350368"><ele>121.99999999999999</ele><time>2026-05-02T10:31:44.976Z</time></trkpt><trkpt lat="44.4566904" lon="4.334968"><ele>122.0</ele><time>2026-05-02T10:31:45.976Z</time></trkpt><trkpt lat="44.456756" lon="4.3348983"><ele>122.0</ele><time>2026-05-02T10:31:46.976Z</time></trkpt><trkpt lat="44.4567923" lon="4.3348174"><ele>121.99999999999999</ele><time>2026-05-02T10:31:47.977Z</time></trkpt><trkpt lat="44.4568119" lon="4.3347248"><ele>122.0</ele><time>2026-05-02T10:31:48.976Z</time></trkpt><trkpt lat="44.456817" lon="4.3346277"><ele>122.0</ele><time>2026-05-02T10:31:49.975Z</time></trkpt><trkpt lat="44.4568267" lon="4.3344784"><ele>122.0</ele><time>2026-05-02T10:31:51.976Z</time></trkpt><trkpt lat="44.4568245" lon="4.3343534"><ele>121.99999999999999</ele><time>2026-05-02T10:31:53.976Z</time></trkpt><trkpt lat="44.4568195" lon="4.3342367"><ele>122.0</ele><time>2026-05-02T10:31:55.977Z</time></trkpt><trkpt lat="44.4568267" lon="4.3341017"><ele>122.33333333333333</ele><time>2026-05-02T10:31:57.976Z</time></trkpt><trkpt lat="44.4568347" lon="4.3339367"><ele>122.66666666666666</ele><time>2026-05-02T10:31:59.976Z</time></trkpt><trkpt lat="44.4568368" lon="4.3338342"><ele>123.0</ele><time>2026-05-02T10:32:00.977Z</time></trkpt><trkpt lat="44.456839" lon="4.3337169"><ele>123.33333333333334</ele><time>2026-05-02T10:32:01.975Z</time></trkpt><trkpt lat="44.4568403" lon="4.3336019"><ele>123.66666666666667</ele><time>2026-05-02T10:32:02.976Z</time></trkpt><trkpt lat="44.4568424" lon="4.3334965"><ele>124.0</ele><time>2026-05-02T10:32:03.976Z</time></trkpt><trkpt lat="44.4568129" lon="4.3333466"><ele>124.0</ele><time>2026-05-02T10:32:05.975Z</time></trkpt><trkpt lat="44.4566981" lon="4.3332877"><ele>124.0</ele><time>2026-05-02T10:32:07.976Z</time></trkpt><trkpt lat="44.456608" lon="4.333279"><ele>124.0</ele><time>2026-05-02T10:32:08.975Z</time></trkpt><trkpt lat="44.4565055" lon="4.333275"><ele>124.0</ele><time>2026-05-02T10:32:09.976Z</time></trkpt><trkpt lat="44.4563982" lon="4.3332687"><ele>124.0</ele><time>2026-05-02T10:32:10.976Z</time></trkpt><trkpt lat="44.4562826" lon="4.333265"><ele>123.5</ele><time>2026-05-02T10:32:11.977Z</time></trkpt><trkpt lat="44.4561584" lon="4.3332627"><ele>123.0</ele><time>2026-05-02T10:32:12.976Z</time></trkpt><trkpt lat="44.4560411" lon="4.3332591"><ele>122.5</ele><time>2026-05-02T10:32:13.975Z</time></trkpt><trkpt lat="44.455931" lon="4.3332564"><ele>122.0</ele><time>2026-05-02T10:32:14.977Z</time></trkpt><trkpt lat="44.4558274" lon="4.3332567"><ele>121.99999999999999</ele><time>2026-05-02T10:32:15.977Z</time></trkpt><trkpt lat="44.4557446" lon="4.3332542"><ele>122.0</ele><time>2026-05-02T10:32:16.977Z</time></trkpt><trkpt lat="44.4556733" lon="4.3332377"><ele>122.0</ele><time>2026-05-02T10:32:17.976Z</time></trkpt><trkpt lat="44.4555721" lon="4.3331305"><ele>122.0</ele><time>2026-05-02T10:32:19.976Z</time></trkpt><trkpt lat="44.4555341" lon="4.3330442"><ele>121.99999999999999</ele><time>2026-05-02T10:32:20.976Z</time></trkpt><trkpt lat="44.455503" lon="4.3329394"><ele>122.0</ele><time>2026-05-02T10:32:21.977Z</time></trkpt><trkpt lat="44.4554776" lon="4.3328214"><ele>124.0</ele><time>2026-05-02T10:32:22.976Z</time></trkpt><trkpt lat="44.4554541" lon="4.3326965"><ele>125.99999999999999</ele><time>2026-05-02T10:32:23.977Z</time></trkpt><trkpt lat="44.4554265" lon="4.332572"><ele>127.99999999999999</ele><time>2026-05-02T10:32:24.976Z</time></trkpt><trkpt lat="44.4554" lon="4.3324483"><ele>130.0</ele><time>2026-05-02T10:32:25.976Z</time></trkpt><trkpt lat="44.455374" lon="4.3323288"><ele>132.0</ele><time>2026-05-02T10:32:26.976Z</time></trkpt><trkpt lat="44.4553468" lon="4.3322113"><ele>132.5</ele><time>2026-05-02T10:32:27.976Z</time></trkpt><trkpt lat="44.4553187" lon="4.3320932"><ele>133.0</ele><time>2026-05-02T10:32:28.976Z</time></trkpt><trkpt lat="44.4552905" lon="4.3319762"><ele>133.5</ele><time>2026-05-02T10:32:29.976Z</time></trkpt><trkpt lat="44.4552617" lon="4.3318634"><ele>134.0</ele><time>2026-05-02T10:32:30.976Z</time></trkpt><trkpt lat="44.4552345" lon="4.3317484"><ele>134.5</ele><time>2026-05-02T10:32:31.976Z</time></trkpt><trkpt lat="44.4552091" lon="4.3316347"><ele>135.0</ele><time>2026-05-02T10:32:32.976Z</time></trkpt><trkpt lat="44.455182" lon="4.3315237"><ele>135.0</ele><time>2026-05-02T10:32:33.976Z</time></trkpt><trkpt lat="44.455156" lon="4.3314117"><ele>135.0</ele><time>2026-05-02T10:32:34.976Z</time></trkpt><trkpt lat="44.4551278" lon="4.3312945"><ele>135.0</ele><time>2026-05-02T10:32:35.976Z</time></trkpt><trkpt lat="44.455102" lon="4.3311819"><ele>135.0</ele><time>2026-05-02T10:32:36.977Z</time></trkpt><trkpt lat="44.4550775" lon="4.3310773"><ele>135.0</ele><time>2026-05-02T10:32:37.976Z</time></trkpt><trkpt lat="44.4550543" lon="4.33098"><ele>135.0</ele><time>2026-05-02T10:32:38.977Z</time></trkpt><trkpt lat="44.4550294" lon="4.3308832"><ele>135.5</ele><time>2026-05-02T10:32:39.975Z</time></trkpt><trkpt lat="44.4550034" lon="4.3307759"><ele>136.0</ele><time>2026-05-02T10:32:40.977Z</time></trkpt><trkpt lat="44.4549871" lon="4.3306592"><ele>136.5</ele><time>2026-05-02T10:32:41.976Z</time></trkpt><trkpt lat="44.4549872" lon="4.3305353"><ele>137.0</ele><time>2026-05-02T10:32:42.976Z</time></trkpt><trkpt lat="44.4550108" lon="4.3304107"><ele>137.5</ele><time>2026-05-02T10:32:43.976Z</time></trkpt><trkpt lat="44.4550573" lon="4.3302999"><ele>138.0</ele><time>2026-05-02T10:32:44.976Z</time></trkpt><trkpt lat="44.4551149" lon="4.3301961"><ele>138.5</ele><time>2026-05-02T10:32:45.977Z</time></trkpt><trkpt lat="44.4551828" lon="4.3300887"><ele>139.0</ele><time>2026-05-02T10:32:46.976Z</time></trkpt><trkpt lat="44.455259" lon="4.3299706"><ele>139.5</ele><time>2026-05-02T10:32:47.977Z</time></trkpt><trkpt lat="44.455342" lon="4.329844"><ele>140.0</ele><time>2026-05-02T10:32:48.975Z</time></trkpt><trkpt lat="44.4554286" lon="4.3297166"><ele>140.75</ele><time>2026-05-02T10:32:49.976Z</time></trkpt><trkpt lat="44.4555179" lon="4.3295888"><ele>141.5</ele><time>2026-05-02T10:32:50.976Z</time></trkpt><trkpt lat="44.4556127" lon="4.3294603"><ele>142.25</ele><time>2026-05-02T10:32:51.976Z</time></trkpt><trkpt lat="44.4557115" lon="4.3293269"><ele>143.0</ele><time>2026-05-02T10:32:52.977Z</time></trkpt><trkpt lat="44.4558114" lon="4.3291868"><ele>143.0</ele><time>2026-05-02T10:32:53.976Z</time></trkpt><trkpt lat="44.4559119" lon="4.3290428"><ele>143.0</ele><time>2026-05-02T10:32:54.977Z</time></trkpt><trkpt lat="44.4560148" lon="4.3288984"><ele>143.0</ele><time>2026-05-02T10:32:55.976Z</time></trkpt><trkpt lat="44.4561164" lon="4.3287556"><ele>143.0</ele><time>2026-05-02T10:32:56.976Z</time></trkpt><trkpt lat="44.4562166" lon="4.3286168"><ele>145.0</ele><time>2026-05-02T10:32:57.976Z</time></trkpt><trkpt lat="44.4563133" lon="4.3284788"><ele>147.0</ele><time>2026-05-02T10:32:58.977Z</time></trkpt><trkpt lat="44.456408" lon="4.3283426"><ele>149.0</ele><time>2026-05-02T10:32:59.976Z</time></trkpt><trkpt lat="44.4565002" lon="4.3282078"><ele>151.0</ele><time>2026-05-02T10:33:00.976Z</time></trkpt><trkpt lat="44.4565909" lon="4.3280797"><ele>152.0</ele><time>2026-05-02T10:33:01.976Z</time></trkpt><trkpt lat="44.4566784" lon="4.3279621"><ele>153.0</ele><time>2026-05-02T10:33:02.976Z</time></trkpt><trkpt lat="44.4567618" lon="4.327848"><ele>154.0</ele><time>2026-05-02T10:33:03.976Z</time></trkpt><trkpt lat="44.4568417" lon="4.3277327"><ele>155.0</ele><time>2026-05-02T10:33:04.976Z</time></trkpt><trkpt lat="44.4569125" lon="4.3276091"><ele>155.0</ele><time>2026-05-02T10:33:05.976Z</time></trkpt><trkpt lat="44.4569685" lon="4.3274641"><ele>155.0</ele><time>2026-05-02T10:33:06.975Z</time></trkpt><trkpt lat="44.4570053" lon="4.3272977"><ele>155.0</ele><time>2026-05-02T10:33:07.976Z</time></trkpt><trkpt lat="44.4570269" lon="4.3271176"><ele>155.0</ele><time>2026-05-02T10:33:08.976Z</time></trkpt><trkpt lat="44.457042" lon="4.3269302"><ele>156.25</ele><time>2026-05-02T10:33:09.976Z</time></trkpt><trkpt lat="44.4570588" lon="4.3267373"><ele>157.5</ele><time>2026-05-02T10:33:10.977Z</time></trkpt><trkpt lat="44.4570944" lon="4.3265448"><ele>158.75</ele><time>2026-05-02T10:33:11.977Z</time></trkpt><trkpt lat="44.4571562" lon="4.3263612"><ele>160.0</ele><time>2026-05-02T10:33:12.976Z</time></trkpt><trkpt lat="44.4572355" lon="4.3261875"><ele>161.75</ele><time>2026-05-02T10:33:13.977Z</time></trkpt><trkpt lat="44.4573173" lon="4.3260173"><ele>163.5</ele><time>2026-05-02T10:33:14.976Z</time></trkpt><trkpt lat="44.4573874" lon="4.3258386"><ele>165.25</ele><time>2026-05-02T10:33:15.976Z</time></trkpt><trkpt lat="44.4574374" lon="4.3256393"><ele>167.0</ele><time>2026-05-02T10:33:16.976Z</time></trkpt><trkpt lat="44.4574784" lon="4.3254256"><ele>167.66666666666666</ele><time>2026-05-02T10:33:17.976Z</time></trkpt><trkpt lat="44.4575198" lon="4.3252056"><ele>168.33333333333334</ele><time>2026-05-02T10:33:18.976Z</time></trkpt><trkpt lat="44.4575626" lon="4.3249862"><ele>169.0</ele><time>2026-05-02T10:33:19.976Z</time></trkpt><trkpt lat="44.4576043" lon="4.3247805"><ele>169.0</ele><time>2026-05-02T10:33:20.976Z</time></trkpt><trkpt lat="44.4576451" lon="4.3245878"><ele>169.0</ele><time>2026-05-02T10:33:21.976Z</time></trkpt><trkpt lat="44.4576855" lon="4.3244017"><ele>169.0</ele><time>2026-05-02T10:33:22.976Z</time></trkpt><trkpt lat="44.4577211" lon="4.3242195"><ele>169.0</ele><time>2026-05-02T10:33:23.977Z</time></trkpt><trkpt lat="44.4577549" lon="4.3240344"><ele>169.0</ele><time>2026-05-02T10:33:24.976Z</time></trkpt><trkpt lat="44.4577815" lon="4.3238427"><ele>169.0</ele><time>2026-05-02T10:33:25.977Z</time></trkpt><trkpt lat="44.457777" lon="4.323643"><ele>169.0</ele><time>2026-05-02T10:33:26.976Z</time></trkpt><trkpt lat="44.45775" lon="4.3234355"><ele>169.0</ele><time>2026-05-02T10:33:27.977Z</time></trkpt><trkpt lat="44.4576972" lon="4.3232287"><ele>169.66666666666669</ele><time>2026-05-02T10:33:28.976Z</time></trkpt><trkpt lat="44.4576216" lon="4.3230305"><ele>170.33333333333334</ele><time>2026-05-02T10:33:29.976Z</time></trkpt><trkpt lat="44.457533" lon="4.3228504"><ele>171.0</ele><time>2026-05-02T10:33:30.976Z</time></trkpt><trkpt lat="44.4574342" lon="4.322698"><ele>171.0</ele><time>2026-05-02T10:33:31.976Z</time></trkpt><trkpt lat="44.4573243" lon="4.3225768"><ele>171.0</ele><time>2026-05-02T10:33:32.976Z</time></trkpt><trkpt lat="44.4571955" lon="4.3224747"><ele>171.0</ele><time>2026-05-02T10:33:33.975Z</time></trkpt><trkpt lat="44.4570558" lon="4.3223862"><ele>171.0</ele><time>2026-05-02T10:33:34.976Z</time></trkpt><trkpt lat="44.4569092" lon="4.3223239"><ele>170.75</ele><time>2026-05-02T10:33:35.976Z</time></trkpt><trkpt lat="44.4567671" lon="4.322272"><ele>170.5</ele><time>2026-05-02T10:33:36.977Z</time></trkpt><trkpt lat="44.4566323" lon="4.3222255"><ele>170.25</ele><time>2026-05-02T10:33:37.977Z</time></trkpt><trkpt lat="44.4565031" lon="4.3221641"><ele>170.0</ele><time>2026-05-02T10:33:38.977Z</time></trkpt><trkpt lat="44.4563774" lon="4.3220715"><ele>169.33333333333331</ele><time>2026-05-02T10:33:39.976Z</time></trkpt><trkpt lat="44.4562573" lon="4.3219576"><ele>168.66666666666666</ele><time>2026-05-02T10:33:40.975Z</time></trkpt><trkpt lat="44.456133" lon="4.321835"><ele>168.0</ele><time>2026-05-02T10:33:41.976Z</time></trkpt><trkpt lat="44.4560021" lon="4.3217182"><ele>168.0</ele><time>2026-05-02T10:33:42.975Z</time></trkpt><trkpt lat="44.4558662" lon="4.3216153"><ele>168.0</ele><time>2026-05-02T10:33:43.976Z</time></trkpt><trkpt lat="44.4557408" lon="4.321516"><ele>168.0</ele><time>2026-05-02T10:33:44.976Z</time></trkpt><trkpt lat="44.455631" lon="4.3214068"><ele>168.0</ele><time>2026-05-02T10:33:45.976Z</time></trkpt><trkpt lat="44.4555271" lon="4.3212811"><ele>168.75</ele><time>2026-05-02T10:33:46.976Z</time></trkpt><trkpt lat="44.4554335" lon="4.3211275"><ele>169.5</ele><time>2026-05-02T10:33:47.977Z</time></trkpt><trkpt lat="44.4553491" lon="4.3209541"><ele>170.25</ele><time>2026-05-02T10:33:48.976Z</time></trkpt><trkpt lat="44.4552643" lon="4.320776"><ele>171.0</ele><time>2026-05-02T10:33:49.977Z</time></trkpt><trkpt lat="44.4551813" lon="4.3205982"><ele>171.25</ele><time>2026-05-02T10:33:50.976Z</time></trkpt><trkpt lat="44.4551024" lon="4.3204168"><ele>171.5</ele><time>2026-05-02T10:33:51.976Z</time></trkpt><trkpt lat="44.4550376" lon="4.3202308"><ele>171.75</ele><time>2026-05-02T10:33:52.976Z</time></trkpt><trkpt lat="44.4549893" lon="4.3200368"><ele>172.0</ele><time>2026-05-02T10:33:53.977Z</time></trkpt><trkpt lat="44.4549596" lon="4.3198323"><ele>171.75</ele><time>2026-05-02T10:33:54.975Z</time></trkpt><trkpt lat="44.4549415" lon="4.3196231"><ele>171.5</ele><time>2026-05-02T10:33:55.976Z</time></trkpt><trkpt lat="44.4549268" lon="4.3194166"><ele>171.25</ele><time>2026-05-02T10:33:56.977Z</time></trkpt><trkpt lat="44.4549109" lon="4.3192135"><ele>171.0</ele><time>2026-05-02T10:33:57.976Z</time></trkpt><trkpt lat="44.4548981" lon="4.3190161"><ele>172.0</ele><time>2026-05-02T10:33:58.977Z</time></trkpt><trkpt lat="44.4548976" lon="4.3188253"><ele>173.0</ele><time>2026-05-02T10:33:59.977Z</time></trkpt><trkpt lat="44.454906" lon="4.3186331"><ele>174.0</ele><time>2026-05-02T10:34:00.976Z</time></trkpt><trkpt lat="44.4549208" lon="4.3184477"><ele>175.0</ele><time>2026-05-02T10:34:01.976Z</time></trkpt><trkpt lat="44.4549347" lon="4.3182718"><ele>175.0</ele><time>2026-05-02T10:34:02.976Z</time></trkpt><trkpt lat="44.4549479" lon="4.3180987"><ele>175.0</ele><time>2026-05-02T10:34:03.977Z</time></trkpt><trkpt lat="44.4549603" lon="4.3179263"><ele>175.0</ele><time>2026-05-02T10:34:04.977Z</time></trkpt><trkpt lat="44.4549677" lon="4.3177636"><ele>175.0</ele><time>2026-05-02T10:34:05.976Z</time></trkpt><trkpt lat="44.4549709" lon="4.3176008"><ele>176.25</ele><time>2026-05-02T10:34:06.976Z</time></trkpt><trkpt lat="44.454971" lon="4.3174379"><ele>177.5</ele><time>2026-05-02T10:34:07.976Z</time></trkpt><trkpt lat="44.4549701" lon="4.3172745"><ele>178.75</ele><time>2026-05-02T10:34:08.976Z</time></trkpt><trkpt lat="44.4549642" lon="4.3171138"><ele>180.0</ele><time>2026-05-02T10:34:09.976Z</time></trkpt><trkpt lat="44.454951" lon="4.3169489"><ele>181.25</ele><time>2026-05-02T10:34:10.977Z</time></trkpt><trkpt lat="44.4549267" lon="4.3167859"><ele>182.5</ele><time>2026-05-02T10:34:11.977Z</time></trkpt><trkpt lat="44.454895" lon="4.316624"><ele>183.75</ele><time>2026-05-02T10:34:12.976Z</time></trkpt><trkpt lat="44.4548659" lon="4.3164696"><ele>185.0</ele><time>2026-05-02T10:34:13.977Z</time></trkpt><trkpt lat="44.4548473" lon="4.3163091"><ele>185.5</ele><time>2026-05-02T10:34:14.975Z</time></trkpt><trkpt lat="44.4548407" lon="4.3161411"><ele>186.0</ele><time>2026-05-02T10:34:15.976Z</time></trkpt><trkpt lat="44.4548423" lon="4.3159696"><ele>186.5</ele><time>2026-05-02T10:34:16.976Z</time></trkpt><trkpt lat="44.4548469" lon="4.3157917"><ele>187.0</ele><time>2026-05-02T10:34:17.977Z</time></trkpt><trkpt lat="44.454853" lon="4.3156132"><ele>187.75</ele><time>2026-05-02T10:34:18.976Z</time></trkpt><trkpt lat="44.4548625" lon="4.3154458"><ele>188.5</ele><time>2026-05-02T10:34:19.977Z</time></trkpt><trkpt lat="44.4548748" lon="4.315279"><ele>189.25</ele><time>2026-05-02T10:34:20.977Z</time></trkpt><trkpt lat="44.4548895" lon="4.3151238"><ele>190.0</ele><time>2026-05-02T10:34:21.977Z</time></trkpt><trkpt lat="44.4549035" lon="4.3149803"><ele>190.0</ele><time>2026-05-02T10:34:22.976Z</time></trkpt><trkpt lat="44.4549088" lon="4.3148493"><ele>190.0</ele><time>2026-05-02T10:34:23.977Z</time></trkpt><trkpt lat="44.4548884" lon="4.3147314"><ele>190.0</ele><time>2026-05-02T10:34:24.976Z</time></trkpt><trkpt lat="44.454843" lon="4.3146253"><ele>190.0</ele><time>2026-05-02T10:34:25.976Z</time></trkpt><trkpt lat="44.4547737" lon="4.3145296"><ele>190.0</ele><time>2026-05-02T10:34:26.976Z</time></trkpt><trkpt lat="44.4546849" lon="4.3144429"><ele>190.25</ele><time>2026-05-02T10:34:27.976Z</time></trkpt><trkpt lat="44.4545849" lon="4.3143539"><ele>190.5</ele><time>2026-05-02T10:34:28.976Z</time></trkpt><trkpt lat="44.4544754" lon="4.3142553"><ele>190.75</ele><time>2026-05-02T10:34:29.977Z</time></trkpt><trkpt lat="44.4543559" lon="4.3141484"><ele>191.0</ele><time>2026-05-02T10:34:30.976Z</time></trkpt><trkpt lat="44.4542274" lon="4.3140366"><ele>191.0</ele><time>2026-05-02T10:34:31.976Z</time></trkpt><trkpt lat="44.454093" lon="4.3139236"><ele>191.0</ele><time>2026-05-02T10:34:32.976Z</time></trkpt><trkpt lat="44.4539566" lon="4.3138061"><ele>191.0</ele><time>2026-05-02T10:34:33.976Z</time></trkpt><trkpt lat="44.4538261" lon="4.3136875"><ele>190.25</ele><time>2026-05-02T10:34:34.976Z</time></trkpt><trkpt lat="44.4537053" lon="4.3135678"><ele>189.5</ele><time>2026-05-02T10:34:35.975Z</time></trkpt><trkpt lat="44.4535945" lon="4.3134414"><ele>188.75</ele><time>2026-05-02T10:34:36.976Z</time></trkpt><trkpt lat="44.4534958" lon="4.3133097"><ele>188.0</ele><time>2026-05-02T10:34:37.974Z</time></trkpt><trkpt lat="44.4534095" lon="4.3131719"><ele>186.75</ele><time>2026-05-02T10:34:38.975Z</time></trkpt><trkpt lat="44.453323" lon="4.3130243"><ele>185.5</ele><time>2026-05-02T10:34:39.976Z</time></trkpt><trkpt lat="44.4532275" lon="4.3128629"><ele>184.25</ele><time>2026-05-02T10:34:40.976Z</time></trkpt><trkpt lat="44.453129" lon="4.3127006"><ele>183.0</ele><time>2026-05-02T10:34:41.975Z</time></trkpt><trkpt lat="44.4530307" lon="4.3125424"><ele>183.5</ele><time>2026-05-02T10:34:42.974Z</time></trkpt><trkpt lat="44.4529338" lon="4.3123841"><ele>184.0</ele><time>2026-05-02T10:34:43.975Z</time></trkpt><trkpt lat="44.4528415" lon="4.3122234"><ele>184.5</ele><time>2026-05-02T10:34:44.976Z</time></trkpt><trkpt lat="44.4527511" lon="4.3120623"><ele>185.0</ele><time>2026-05-02T10:34:45.975Z</time></trkpt><trkpt lat="44.4526598" lon="4.3119064"><ele>183.75</ele><time>2026-05-02T10:34:46.975Z</time></trkpt><trkpt lat="44.4525681" lon="4.3117573"><ele>182.5</ele><time>2026-05-02T10:34:47.975Z</time></trkpt><trkpt lat="44.4524845" lon="4.3116195"><ele>181.25</ele><time>2026-05-02T10:34:48.975Z</time></trkpt><trkpt lat="44.4524079" lon="4.3114948"><ele>180.0</ele><time>2026-05-02T10:34:49.974Z</time></trkpt><trkpt lat="44.4523284" lon="4.3113719"><ele>180.0</ele><time>2026-05-02T10:34:50.975Z</time></trkpt><trkpt lat="44.4522542" lon="4.3112518"><ele>180.0</ele><time>2026-05-02T10:34:51.974Z</time></trkpt><trkpt lat="44.4521829" lon="4.3111326"><ele>180.0</ele><time>2026-05-02T10:34:52.975Z</time></trkpt><trkpt lat="44.4521132" lon="4.3110169"><ele>180.0</ele><time>2026-05-02T10:34:53.975Z</time></trkpt><trkpt lat="44.4520456" lon="4.3109019"><ele>180.0</ele><time>2026-05-02T10:34:54.976Z</time></trkpt><trkpt lat="44.4519779" lon="4.31079"><ele>179.0</ele><time>2026-05-02T10:34:55.975Z</time></trkpt><trkpt lat="44.4519115" lon="4.3106771"><ele>178.0</ele><time>2026-05-02T10:34:56.976Z</time></trkpt><trkpt lat="44.4518407" lon="4.3105622"><ele>177.0</ele><time>2026-05-02T10:34:57.974Z</time></trkpt><trkpt lat="44.4517676" lon="4.3104387"><ele>176.0</ele><time>2026-05-02T10:34:58.975Z</time></trkpt><trkpt lat="44.4516932" lon="4.3103115"><ele>175.0</ele><time>2026-05-02T10:34:59.975Z</time></trkpt><trkpt lat="44.4516153" lon="4.3101862"><ele>175.0</ele><time>2026-05-02T10:35:00.975Z</time></trkpt><trkpt lat="44.4515383" lon="4.3100609"><ele>175.0</ele><time>2026-05-02T10:35:01.975Z</time></trkpt><trkpt lat="44.4514625" lon="4.3099369"><ele>175.0</ele><time>2026-05-02T10:35:02.975Z</time></trkpt><trkpt lat="44.4513873" lon="4.3098111"><ele>175.0</ele><time>2026-05-02T10:35:03.974Z</time></trkpt><trkpt lat="44.4513107" lon="4.3096883"><ele>173.75</ele><time>2026-05-02T10:35:04.975Z</time></trkpt><trkpt lat="44.4512351" lon="4.3095618"><ele>172.5</ele><time>2026-05-02T10:35:05.975Z</time></trkpt><trkpt lat="44.4511576" lon="4.3094382"><ele>171.25</ele><time>2026-05-02T10:35:06.976Z</time></trkpt><trkpt lat="44.4510855" lon="4.3093208"><ele>170.0</ele><time>2026-05-02T10:35:07.975Z</time></trkpt><trkpt lat="44.451018" lon="4.3092058"><ele>170.0</ele><time>2026-05-02T10:35:08.976Z</time></trkpt><trkpt lat="44.4509592" lon="4.309089"><ele>170.0</ele><time>2026-05-02T10:35:09.975Z</time></trkpt><trkpt lat="44.4509039" lon="4.308958"><ele>170.0</ele><time>2026-05-02T10:35:10.975Z</time></trkpt><trkpt lat="44.4508488" lon="4.3088154"><ele>170.0</ele><time>2026-05-02T10:35:11.975Z</time></trkpt><trkpt lat="44.4507882" lon="4.3086668"><ele>170.0</ele><time>2026-05-02T10:35:12.975Z</time></trkpt><trkpt lat="44.4507233" lon="4.308512"><ele>170.25</ele><time>2026-05-02T10:35:13.975Z</time></trkpt><trkpt lat="44.4506583" lon="4.3083516"><ele>170.5</ele><time>2026-05-02T10:35:14.975Z</time></trkpt><trkpt lat="44.450599" lon="4.3081958"><ele>170.75</ele><time>2026-05-02T10:35:15.975Z</time></trkpt><trkpt lat="44.4505459" lon="4.3080474"><ele>171.0</ele><time>2026-05-02T10:35:16.975Z</time></trkpt><trkpt lat="44.4505031" lon="4.3079028"><ele>171.0</ele><time>2026-05-02T10:35:17.975Z</time></trkpt><trkpt lat="44.4504686" lon="4.3077526"><ele>171.0</ele><time>2026-05-02T10:35:18.975Z</time></trkpt><trkpt lat="44.4504411" lon="4.3075885"><ele>171.0</ele><time>2026-05-02T10:35:19.975Z</time></trkpt><trkpt lat="44.4504175" lon="4.3074203"><ele>171.0</ele><time>2026-05-02T10:35:20.975Z</time></trkpt><trkpt lat="44.4503954" lon="4.3072563"><ele>170.60000000000002</ele><time>2026-05-02T10:35:21.975Z</time></trkpt><trkpt lat="44.450369" lon="4.307112"><ele>170.2</ele><time>2026-05-02T10:35:22.975Z</time></trkpt><trkpt lat="44.4503259" lon="4.3069912"><ele>169.8</ele><time>2026-05-02T10:35:23.976Z</time></trkpt><trkpt lat="44.4502579" lon="4.3068883"><ele>169.39999999999998</ele><time>2026-05-02T10:35:24.976Z</time></trkpt><trkpt lat="44.4501697" lon="4.3067976"><ele>169.0</ele><time>2026-05-02T10:35:25.974Z</time></trkpt><trkpt lat="44.4500653" lon="4.3067126"><ele>169.0</ele><time>2026-05-02T10:35:26.975Z</time></trkpt><trkpt lat="44.44996" lon="4.306623"><ele>169.0</ele><time>2026-05-02T10:35:27.976Z</time></trkpt><trkpt lat="44.4498598" lon="4.3065328"><ele>169.0</ele><time>2026-05-02T10:35:28.975Z</time></trkpt><trkpt lat="44.4497732" lon="4.3064384"><ele>169.0</ele><time>2026-05-02T10:35:29.974Z</time></trkpt><trkpt lat="44.4497009" lon="4.3063296"><ele>170.2</ele><time>2026-05-02T10:35:30.976Z</time></trkpt><trkpt lat="44.4496571" lon="4.306198"><ele>171.39999999999998</ele><time>2026-05-02T10:35:31.975Z</time></trkpt><trkpt lat="44.4496311" lon="4.3060533"><ele>172.6</ele><time>2026-05-02T10:35:32.975Z</time></trkpt><trkpt lat="44.4496186" lon="4.3058914"><ele>173.8</ele><time>2026-05-02T10:35:33.975Z</time></trkpt><trkpt lat="44.4496239" lon="4.3057254"><ele>175.0</ele><time>2026-05-02T10:35:34.975Z</time></trkpt><trkpt lat="44.4496503" lon="4.3055643"><ele>175.2</ele><time>2026-05-02T10:35:35.975Z</time></trkpt><trkpt lat="44.4496772" lon="4.3054175"><ele>175.4</ele><time>2026-05-02T10:35:36.974Z</time></trkpt><trkpt lat="44.4496886" lon="4.3052827"><ele>175.60000000000002</ele><time>2026-05-02T10:35:37.976Z</time></trkpt><trkpt lat="44.4496655" lon="4.3051621"><ele>175.8</ele><time>2026-05-02T10:35:38.975Z</time></trkpt><trkpt lat="44.4496037" lon="4.3050709"><ele>176.0</ele><time>2026-05-02T10:35:39.975Z</time></trkpt><trkpt lat="44.4495203" lon="4.3050158"><ele>172.5</ele><time>2026-05-02T10:35:40.975Z</time></trkpt><trkpt lat="44.4494147" lon="4.3050042"><ele>169.0</ele><time>2026-05-02T10:35:41.975Z</time></trkpt><trkpt lat="44.4492955" lon="4.3050164"><ele>165.5</ele><time>2026-05-02T10:35:42.976Z</time></trkpt><trkpt lat="44.4491742" lon="4.305026"><ele>162.0</ele><time>2026-05-02T10:35:43.974Z</time></trkpt><trkpt lat="44.4490553" lon="4.3050182"><ele>162.0</ele><time>2026-05-02T10:35:44.976Z</time></trkpt><trkpt lat="44.4489433" lon="4.3049825"><ele>162.0</ele><time>2026-05-02T10:35:45.975Z</time></trkpt><trkpt lat="44.448841" lon="4.304921"><ele>162.0</ele><time>2026-05-02T10:35:46.976Z</time></trkpt><trkpt lat="44.4487444" lon="4.3048542"><ele>162.0</ele><time>2026-05-02T10:35:47.975Z</time></trkpt><trkpt lat="44.4486502" lon="4.3047891"><ele>162.0</ele><time>2026-05-02T10:35:48.975Z</time></trkpt><trkpt lat="44.4485571" lon="4.3047339"><ele>160.6</ele><time>2026-05-02T10:35:49.974Z</time></trkpt><trkpt lat="44.4484642" lon="4.3046914"><ele>159.2</ele><time>2026-05-02T10:35:50.976Z</time></trkpt><trkpt lat="44.4483673" lon="4.3046718"><ele>157.8</ele><time>2026-05-02T10:35:51.976Z</time></trkpt><trkpt lat="44.4482659" lon="4.3046913"><ele>156.4</ele><time>2026-05-02T10:35:52.974Z</time></trkpt><trkpt lat="44.4481719" lon="4.3047532"><ele>155.0</ele><time>2026-05-02T10:35:53.975Z</time></trkpt><trkpt lat="44.4480902" lon="4.3048479"><ele>153.6</ele><time>2026-05-02T10:35:54.975Z</time></trkpt><trkpt lat="44.4480113" lon="4.3049491"><ele>152.2</ele><time>2026-05-02T10:35:55.976Z</time></trkpt><trkpt lat="44.4479422" lon="4.3050558"><ele>150.8</ele><time>2026-05-02T10:35:56.975Z</time></trkpt><trkpt lat="44.4478943" lon="4.3051729"><ele>149.4</ele><time>2026-05-02T10:35:57.975Z</time></trkpt><trkpt lat="44.4478692" lon="4.3053039"><ele>148.0</ele><time>2026-05-02T10:35:58.975Z</time></trkpt><trkpt lat="44.447858" lon="4.3054329"><ele>146.4</ele><time>2026-05-02T10:35:59.975Z</time></trkpt><trkpt lat="44.4478518" lon="4.305534"><ele>144.8</ele><time>2026-05-02T10:36:00.975Z</time></trkpt><trkpt lat="44.4478564" lon="4.3057005"><ele>143.2</ele><time>2026-05-02T10:36:02.975Z</time></trkpt><trkpt lat="44.4478854" lon="4.30582"><ele>141.6</ele><time>2026-05-02T10:36:04.975Z</time></trkpt><trkpt lat="44.4479361" lon="4.3059245"><ele>140.0</ele><time>2026-05-02T10:36:06.975Z</time></trkpt><trkpt lat="44.4479886" lon="4.3060147"><ele>140.0</ele><time>2026-05-02T10:36:08.976Z</time></trkpt><trkpt lat="44.4480356" lon="4.3060817"><ele>140.0</ele><time>2026-05-02T10:36:10.976Z</time></trkpt><trkpt lat="44.4480895" lon="4.3061351"><ele>140.0</ele><time>2026-05-02T10:36:12.974Z</time></trkpt><trkpt lat="44.4481635" lon="4.3061875"><ele>140.0</ele><time>2026-05-02T10:36:15.976Z</time></trkpt><trkpt lat="44.4482206" lon="4.3062461"><ele>140.0</ele><time>2026-05-02T10:36:18.975Z</time></trkpt><trkpt lat="44.4482733" lon="4.3063233"><ele>140.0</ele><time>2026-05-02T10:36:21.975Z</time></trkpt><trkpt lat="44.4483207" lon="4.3064211"><ele>140.0</ele><time>2026-05-02T10:36:24.975Z</time></trkpt><trkpt lat="44.448315" lon="4.3065477"><ele>138.83333333333331</ele><time>2026-05-02T10:36:27.975Z</time></trkpt><trkpt lat="44.4482595" lon="4.3066302"><ele>137.66666666666666</ele><time>2026-05-02T10:36:30.976Z</time></trkpt><trkpt lat="44.4481987" lon="4.306667"><ele>136.5</ele><time>2026-05-02T10:36:32.975Z</time></trkpt><trkpt lat="44.4481095" lon="4.3066693"><ele>135.33333333333334</ele><time>2026-05-02T10:36:35.974Z</time></trkpt><trkpt lat="44.4480262" lon="4.3066359"><ele>134.16666666666669</ele><time>2026-05-02T10:36:38.975Z</time></trkpt><trkpt lat="44.4479575" lon="4.3066026"><ele>133.0</ele><time>2026-05-02T10:36:41.974Z</time></trkpt><trkpt lat="44.4478951" lon="4.3065838"><ele>132.14285714285714</ele><time>2026-05-02T10:36:44.975Z</time></trkpt><trkpt lat="44.44782" lon="4.3065872"><ele>131.28571428571428</ele><time>2026-05-02T10:36:48.975Z</time></trkpt><trkpt lat="44.4477719" lon="4.306671"><ele>130.42857142857144</ele><time>2026-05-02T10:36:52.976Z</time></trkpt><trkpt lat="44.4477319" lon="4.3067497"><ele>129.57142857142856</ele><time>2026-05-02T10:36:56.974Z</time></trkpt><trkpt lat="44.447685" lon="4.3068226"><ele>128.71428571428572</ele><time>2026-05-02T10:37:06.975Z</time></trkpt><trkpt lat="44.4476251" lon="4.3069031"><ele>127.85714285714286</ele><time>2026-05-02T10:37:09.974Z</time></trkpt><trkpt lat="44.4475804" lon="4.3069657"><ele>127.0</ele><time>2026-05-02T10:37:12.974Z</time></trkpt><trkpt lat="44.4476091" lon="4.30706"><ele>127.00000000000001</ele><time>2026-05-02T10:37:16.976Z</time></trkpt><trkpt lat="44.4476782" lon="4.3070362"><ele>127.0</ele><time>2026-05-02T10:37:19.976Z</time></trkpt><trkpt lat="44.44772" lon="4.3069527"><ele>127.0</ele><time>2026-05-02T10:37:25.975Z</time></trkpt><trkpt lat="44.4477543" lon="4.3068598"><ele>127.0</ele><time>2026-05-02T10:37:28.976Z</time></trkpt><trkpt lat="44.4476994" lon="4.306764"><ele>127.00000000000001</ele><time>2026-05-02T10:37:31.976Z</time></trkpt><trkpt lat="44.4476328" lon="4.3066846"><ele>127.0</ele><time>2026-05-02T10:37:34.975Z</time></trkpt><trkpt lat="44.4475874" lon="4.3066202"><ele>127.0</ele><time>2026-05-02T10:37:37.976Z</time></trkpt><trkpt lat="44.4475275" lon="4.3065461"><ele>127.0</ele><time>2026-05-02T10:37:40.975Z</time></trkpt><trkpt lat="44.4474804" lon="4.3064771"><ele>127.0</ele><time>2026-05-02T10:37:42.975Z</time></trkpt><trkpt lat="44.4474265" lon="4.3064303"><ele>127.0</ele><time>2026-05-02T10:37:45.975Z</time></trkpt><trkpt lat="44.4473767" lon="4.3064927"><ele>127.0</ele><time>2026-05-02T10:37:48.976Z</time></trkpt><trkpt lat="44.4473976" lon="4.3065765"><ele>127.0</ele><time>2026-05-02T10:37:53.976Z</time></trkpt><trkpt lat="44.4474518" lon="4.3066423"><ele>127.0</ele><time>2026-05-02T10:42:50.974Z</time></trkpt><trkpt lat="44.4474775" lon="4.3067257"><ele>127.0</ele><time>2026-05-02T10:42:53.975Z</time></trkpt><trkpt lat="44.4475112" lon="4.3068158"><ele>127.0</ele><time>2026-05-02T10:43:02.974Z</time></trkpt><trkpt lat="44.4475233" lon="4.3069142"><ele>127.0</ele><time>2026-05-02T10:43:26.974Z</time></trkpt><trkpt lat="44.447499" lon="4.306816"><ele>127.0</ele><time>2026-05-02T10:43:46.974Z</time></trkpt><trkpt lat="44.4474603" lon="4.3067304"><ele>127.0</ele><time>2026-05-02T10:43:52.974Z</time></trkpt><trkpt lat="44.4474534" lon="4.3066241"><ele>127.0</ele><time>2026-05-02T10:43:58.974Z</time></trkpt><trkpt lat="44.4473987" lon="4.3065702"><ele>127.0</ele><time>2026-05-02T10:44:04.974Z</time></trkpt><trkpt lat="44.4474569" lon="4.3066051"><ele>127.0</ele><time>2026-05-02T10:45:18.973Z</time></trkpt><trkpt lat="44.4474791" lon="4.306703"><ele>127.0</ele><time>2026-05-02T10:45:24.972Z</time></trkpt><trkpt lat="44.4475227" lon="4.3067674"><ele>127.0</ele><time>2026-05-02T10:45:30.973Z</time></trkpt><trkpt lat="44.4475683" lon="4.3068342"><ele>127.0</ele><time>2026-05-02T10:45:37.973Z</time></trkpt><trkpt lat="44.4476232" lon="4.3068793"><ele>127.0</ele><time>2026-05-02T10:45:43.977Z</time></trkpt><trkpt lat="44.4476751" lon="4.3069427"><ele>127.0</ele><time>2026-05-02T10:45:49.974Z</time></trkpt><trkpt lat="44.4477399" lon="4.3069211"><ele>127.0</ele><time>2026-05-02T10:45:57.973Z</time></trkpt><trkpt lat="44.4477935" lon="4.3068565"><ele>127.0</ele><time>2026-05-02T10:46:06.974Z</time></trkpt><trkpt lat="44.4478573" lon="4.3068616"><ele>127.0</ele><time>2026-05-02T10:46:45.974Z</time></trkpt><trkpt lat="44.4479229" lon="4.3068702"><ele>127.0</ele><time>2026-05-02T10:47:05.974Z</time></trkpt><trkpt lat="44.4478581" lon="4.3069143"><ele>127.0</ele><time>2026-05-02T10:47:21.973Z</time></trkpt><trkpt lat="44.4478361" lon="4.3070041"><ele>127.0</ele><time>2026-05-02T10:47:30.974Z</time></trkpt><trkpt lat="44.4478787" lon="4.3070715"><ele>127.0</ele><time>2026-05-02T10:47:36.973Z</time></trkpt><trkpt lat="44.4479277" lon="4.3071372"><ele>127.0</ele><time>2026-05-02T10:47:44.893Z</time></trkpt><trkpt lat="44.4478965" lon="4.307043"><ele>127.0</ele><time>2026-05-02T10:48:25.973Z</time></trkpt><trkpt lat="44.4478802" lon="4.3069572"><ele>127.0</ele><time>2026-05-02T10:48:31.917Z</time></trkpt><trkpt lat="44.4478805" lon="4.3068629"><ele>127.0</ele><time>2026-05-02T10:48:37.973Z</time></trkpt><trkpt lat="44.447932" lon="4.306798"><ele>127.0</ele><time>2026-05-02T10:48:47.994Z</time></trkpt><trkpt lat="44.4479779" lon="4.3067235"><ele>127.0</ele><time>2026-05-02T10:48:54.979Z</time></trkpt><trkpt lat="44.4480481" lon="4.3066993"><ele>127.0</ele><time>2026-05-02T10:49:01.972Z</time></trkpt><trkpt lat="44.4481215" lon="4.3067196"><ele>127.0</ele><time>2026-05-02T10:49:09.896Z</time></trkpt><trkpt lat="44.448182" lon="4.3067442"><ele>128.0</ele><time>2026-05-02T10:49:15.973Z</time></trkpt><trkpt lat="44.4482463" lon="4.3067777"><ele>129.0</ele><time>2026-05-02T10:49:22.971Z</time></trkpt><trkpt lat="44.4483013" lon="4.3068231"><ele>130.0</ele><time>2026-05-02T10:49:29.972Z</time></trkpt><trkpt lat="44.4482952" lon="4.3067197"><ele>131.0</ele><time>2026-05-02T10:51:57.972Z</time></trkpt><trkpt lat="44.4481487" lon="4.3067216"><ele>132.0</ele><time>2026-05-02T10:52:59.972Z</time></trkpt><trkpt lat="44.4480837" lon="4.3066986"><ele>133.0</ele><time>2026-05-02T10:53:04.876Z</time></trkpt><trkpt lat="44.4480204" lon="4.3067076"><ele>133.0</ele><time>2026-05-02T10:53:10.021Z</time></trkpt><trkpt lat="44.4479627" lon="4.3067621"><ele>133.0</ele><time>2026-05-02T10:53:14.933Z</time></trkpt><trkpt lat="44.4479096" lon="4.3068314"><ele>133.0</ele><time>2026-05-02T10:53:19.972Z</time></trkpt><trkpt lat="44.4478525" lon="4.3068974"><ele>133.0</ele><time>2026-05-02T10:53:25.972Z</time></trkpt><trkpt lat="44.4478356" lon="4.3069922"><ele>133.0</ele><time>2026-05-02T10:53:31.971Z</time></trkpt><trkpt lat="44.447867" lon="4.3070755"><ele>133.0</ele><time>2026-05-02T10:53:36.971Z</time></trkpt><trkpt lat="44.4479198" lon="4.307149"><ele>133.0</ele><time>2026-05-02T10:53:41.926Z</time></trkpt><trkpt lat="44.4479755" lon="4.3072037"><ele>132.0</ele><time>2026-05-02T10:53:46.953Z</time></trkpt><trkpt lat="44.4480326" lon="4.3072491"><ele>131.0</ele><time>2026-05-02T10:53:51.971Z</time></trkpt><trkpt lat="44.4480756" lon="4.3073306"><ele>130.0</ele><time>2026-05-02T10:53:57.984Z</time></trkpt><trkpt lat="44.4480666" lon="4.3074202"><ele>129.0</ele><time>2026-05-02T10:54:02.982Z</time></trkpt><trkpt lat="44.4480526" lon="4.307518"><ele>128.0</ele><time>2026-05-02T10:54:08.972Z</time></trkpt><trkpt lat="44.4480451" lon="4.3076118"><ele>127.0</ele><time>2026-05-02T10:54:14.971Z</time></trkpt><trkpt lat="44.4480627" lon="4.3076995"><ele>126.0</ele><time>2026-05-02T10:54:20.002Z</time></trkpt><trkpt lat="44.4480898" lon="4.3077846"><ele>126.0</ele><time>2026-05-02T10:54:24.971Z</time></trkpt><trkpt lat="44.4481173" lon="4.3078692"><ele>126.0</ele><time>2026-05-02T10:54:31.971Z</time></trkpt><trkpt lat="44.4481677" lon="4.3079223"><ele>126.0</ele><time>2026-05-02T10:54:40.915Z</time></trkpt><trkpt lat="44.4481762" lon="4.3080115"><ele>126.0</ele><time>2026-05-02T10:54:46.97Z</time></trkpt><trkpt lat="44.44815" lon="4.3080989"><ele>126.0</ele><time>2026-05-02T10:55:24.983Z</time></trkpt><trkpt lat="44.4482045" lon="4.3081606"><ele>126.0</ele><time>2026-05-02T10:55:31.971Z</time></trkpt><trkpt lat="44.4481496" lon="4.3082319"><ele>126.0</ele><time>2026-05-02T10:55:53.971Z</time></trkpt><trkpt lat="44.4480952" lon="4.3081873"><ele>125.57142857142857</ele><time>2026-05-02T10:55:58.971Z</time></trkpt><trkpt lat="44.4480433" lon="4.3082429"><ele>125.14285714285714</ele><time>2026-05-02T10:56:09.974Z</time></trkpt><trkpt lat="44.4479812" lon="4.3082941"><ele>124.71428571428572</ele><time>2026-05-02T10:56:18.971Z</time></trkpt><trkpt lat="44.4479146" lon="4.3082815"><ele>124.28571428571429</ele><time>2026-05-02T10:56:23.971Z</time></trkpt><trkpt lat="44.4479273" lon="4.3083742"><ele>123.85714285714286</ele><time>2026-05-02T10:56:34.971Z</time></trkpt><trkpt lat="44.447969" lon="4.3084484"><ele>123.42857142857144</ele><time>2026-05-02T10:56:41.97Z</time></trkpt><trkpt lat="44.4479721" lon="4.3085426"><ele>123.00000000000001</ele><time>2026-05-02T10:56:48.97Z</time></trkpt><trkpt lat="44.4479448" lon="4.3086262"><ele>123.00000000000001</ele><time>2026-05-02T10:56:54.971Z</time></trkpt><trkpt lat="44.4478869" lon="4.3085852"><ele>123.0</ele><time>2026-05-02T10:57:18.972Z</time></trkpt><trkpt lat="44.4478248" lon="4.3085492"><ele>123.00000000000001</ele><time>2026-05-02T10:57:25.972Z</time></trkpt><trkpt lat="44.4477567" lon="4.3085526"><ele>123.00000000000001</ele><time>2026-05-02T10:57:32.971Z</time></trkpt><trkpt lat="44.4476975" lon="4.308516"><ele>123.0</ele><time>2026-05-02T10:57:41.971Z</time></trkpt><trkpt lat="44.447733" lon="4.3084413"><ele>123.00000000000001</ele><time>2026-05-02T10:57:48.971Z</time></trkpt><trkpt lat="44.4477805" lon="4.3083735"><ele>123.00000000000001</ele><time>2026-05-02T10:57:55.971Z</time></trkpt><trkpt lat="44.4477623" lon="4.3082872"><ele>123.00000000000001</ele><time>2026-05-02T10:58:02.969Z</time></trkpt><trkpt lat="44.4476955" lon="4.3082695"><ele>123.0</ele><time>2026-05-02T10:58:09.97Z</time></trkpt><trkpt lat="44.4476324" lon="4.3082772"><ele>123.00000000000001</ele><time>2026-05-02T10:58:15.971Z</time></trkpt><trkpt lat="44.4475643" lon="4.3082644"><ele>123.00000000000001</ele><time>2026-05-02T10:58:22.97Z</time></trkpt><trkpt lat="44.4475186" lon="4.3081912"><ele>123.0</ele><time>2026-05-02T10:58:37.97Z</time></trkpt><trkpt lat="44.4474749" lon="4.3081261"><ele>123.00000000000001</ele><time>2026-05-02T10:58:43.97Z</time></trkpt><trkpt lat="44.4474198" lon="4.3081973"><ele>123.00000000000001</ele><time>2026-05-02T10:59:50.974Z</time></trkpt><trkpt lat="44.4473513" lon="4.308205"><ele>123.0</ele><time>2026-05-02T10:59:55.975Z</time></trkpt><trkpt lat="44.4473933" lon="4.3082725"><ele>123.0</ele><time>2026-05-02T11:00:06.97Z</time></trkpt><trkpt lat="44.4474441" lon="4.3082152"><ele>123.0</ele><time>2026-05-02T11:00:13.97Z</time></trkpt></trkseg></trk></gpx>